<?xml version='1.0' encoding='UTF-8'?>
<gpx version="1.1" creator="https://www.komoot.de" xmlns="http://www.topografix.com/GPX/1/1" xmlns:xsi="http://www.w3.org/2001/XMLSchema-instance" xsi:schemaLocation="http://www.topografix.com/GPX/1/1 http://www.topografix.com/GPX/1/1/gpx.xsd">
  <metadata>
    <name>Percorso Principale</name>
    <author>
      <link href="https://www.komoot.de">
        <text>komoot</text>
        <type>text/html</type>
      </link>
    </author>
  </metadata>
  <trk>
    <name>Percorso Principale</name>
    <trkseg>
      <trkpt lat="39.954000" lon="15.976057">
        <ele>288.318051</ele>
        <time>2023-12-03T17:18:27.017Z</time>
      </trkpt>
      <trkpt lat="39.953948" lon="15.976118">
        <ele>288.318051</ele>
        <time>2023-12-03T17:18:30.875Z</time>
      </trkpt>
      <trkpt lat="39.953846" lon="15.976162">
        <ele>288.318051</ele>
        <time>2023-12-03T17:18:36.433Z</time>
      </trkpt>
      <trkpt lat="39.953802" lon="15.976332">
        <ele>288.318051</ele>
        <time>2023-12-03T17:18:43.845Z</time>
      </trkpt>
      <trkpt lat="39.953643" lon="15.976780">
        <ele>288.318051</ele>
        <time>2023-12-03T17:19:04.869Z</time>
      </trkpt>
      <trkpt lat="39.953502" lon="15.977181">
        <ele>289.365995</ele>
        <time>2023-12-03T17:19:23.213Z</time>
      </trkpt>
      <trkpt lat="39.953407" lon="15.977296">
        <ele>290.393208</ele>
        <time>2023-12-03T17:19:30.294Z</time>
      </trkpt>
      <trkpt lat="39.953261" lon="15.977319">
        <ele>291.558809</ele>
        <time>2023-12-03T17:19:37.814Z</time>
      </trkpt>
      <trkpt lat="39.952401" lon="15.977077">
        <ele>298.531937</ele>
        <time>2023-12-03T17:20:22.161Z</time>
      </trkpt>
      <trkpt lat="39.951701" lon="15.976957">
        <ele>303.942386</ele>
        <time>2023-12-03T17:20:46.980Z</time>
      </trkpt>
      <trkpt lat="39.950898" lon="15.976973">
        <ele>309.547990</ele>
        <time>2023-12-03T17:21:13.721Z</time>
      </trkpt>
      <trkpt lat="39.950750" lon="15.976986">
        <ele>310.583371</ele>
        <time>2023-12-03T17:21:19.473Z</time>
      </trkpt>
      <trkpt lat="39.950688" lon="15.977051">
        <ele>311.138575</ele>
        <time>2023-12-03T17:21:22.970Z</time>
      </trkpt>
      <trkpt lat="39.950692" lon="15.977102">
        <ele>311.412893</ele>
        <time>2023-12-03T17:21:24.853Z</time>
      </trkpt>
      <trkpt lat="39.950736" lon="15.977137">
        <ele>311.772611</ele>
        <time>2023-12-03T17:21:27.140Z</time>
      </trkpt>
      <trkpt lat="39.951820" lon="15.977552">
        <ele>323.307007</ele>
        <time>2023-12-03T17:22:33.296Z</time>
      </trkpt>
      <trkpt lat="39.951940" lon="15.977649">
        <ele>325.086203</ele>
        <time>2023-12-03T17:22:42.840Z</time>
      </trkpt>
      <trkpt lat="39.951948" lon="15.977724">
        <ele>325.817786</ele>
        <time>2023-12-03T17:22:47.116Z</time>
      </trkpt>
      <trkpt lat="39.951930" lon="15.977801">
        <ele>326.595531</ele>
        <time>2023-12-03T17:22:51.807Z</time>
      </trkpt>
      <trkpt lat="39.951839" lon="15.977915">
        <ele>328.185631</ele>
        <time>2023-12-03T17:23:00.853Z</time>
      </trkpt>
      <trkpt lat="39.951212" lon="15.978289">
        <ele>336.874745</ele>
        <time>2023-12-03T17:23:50.181Z</time>
      </trkpt>
      <trkpt lat="39.950611" lon="15.978411">
        <ele>343.537196</ele>
        <time>2023-12-03T17:24:30.670Z</time>
      </trkpt>
      <trkpt lat="39.949987" lon="15.978446">
        <ele>350.237747</ele>
        <time>2023-12-03T17:25:06.523Z</time>
      </trkpt>
      <trkpt lat="39.949934" lon="15.978472">
        <ele>350.845217</ele>
        <time>2023-12-03T17:25:09.383Z</time>
      </trkpt>
      <trkpt lat="39.949908" lon="15.978541">
        <ele>351.477539</ele>
        <time>2023-12-03T17:25:12.294Z</time>
      </trkpt>
      <trkpt lat="39.949927" lon="15.978686">
        <ele>352.687352</ele>
        <time>2023-12-03T17:25:17.904Z</time>
      </trkpt>
      <trkpt lat="39.949972" lon="15.978762">
        <ele>353.477126</ele>
        <time>2023-12-03T17:25:21.430Z</time>
      </trkpt>
      <trkpt lat="39.950035" lon="15.978795">
        <ele>354.205455</ele>
        <time>2023-12-03T17:25:24.663Z</time>
      </trkpt>
      <trkpt lat="39.951023" lon="15.978902">
        <ele>363.723035</ele>
        <time>2023-12-03T17:26:13.469Z</time>
      </trkpt>
      <trkpt lat="39.951505" lon="15.978976">
        <ele>368.178201</ele>
        <time>2023-12-03T17:26:37.057Z</time>
      </trkpt>
      <trkpt lat="39.951821" lon="15.979057">
        <ele>371.134465</ele>
        <time>2023-12-03T17:26:53.193Z</time>
      </trkpt>
      <trkpt lat="39.951902" lon="15.979173">
        <ele>372.238647</ele>
        <time>2023-12-03T17:26:59.648Z</time>
      </trkpt>
      <trkpt lat="39.951930" lon="15.979334">
        <ele>373.400398</ele>
        <time>2023-12-03T17:27:06.832Z</time>
      </trkpt>
      <trkpt lat="39.951886" lon="15.979532">
        <ele>375.137669</ele>
        <time>2023-12-03T17:27:15.971Z</time>
      </trkpt>
      <trkpt lat="39.951833" lon="15.979639">
        <ele>376.240200</ele>
        <time>2023-12-03T17:27:22.167Z</time>
      </trkpt>
      <trkpt lat="39.951699" lon="15.979729">
        <ele>377.941772</ele>
        <time>2023-12-03T17:27:31.900Z</time>
      </trkpt>
      <trkpt lat="39.951640" lon="15.979739">
        <ele>378.613466</ele>
        <time>2023-12-03T17:27:35.792Z</time>
      </trkpt>
      <trkpt lat="39.951250" lon="15.979483">
        <ele>383.542484</ele>
        <time>2023-12-03T17:28:05.554Z</time>
      </trkpt>
      <trkpt lat="39.951197" lon="15.979476">
        <ele>384.143900</ele>
        <time>2023-12-03T17:28:09.304Z</time>
      </trkpt>
      <trkpt lat="39.950863" lon="15.979561">
        <ele>387.985767</ele>
        <time>2023-12-03T17:28:32.020Z</time>
      </trkpt>
      <trkpt lat="39.950752" lon="15.979665">
        <ele>389.528677</ele>
        <time>2023-12-03T17:28:40.604Z</time>
      </trkpt>
      <trkpt lat="39.950564" lon="15.980065">
        <ele>393.589404</ele>
        <time>2023-12-03T17:29:00.606Z</time>
      </trkpt>
      <trkpt lat="39.950435" lon="15.980164">
        <ele>394.508964</ele>
        <time>2023-12-03T17:29:07.998Z</time>
      </trkpt>
      <trkpt lat="39.950304" lon="15.980181">
        <ele>395.158819</ele>
        <time>2023-12-03T17:29:14.236Z</time>
      </trkpt>
      <trkpt lat="39.949950" lon="15.980180">
        <ele>396.906295</ele>
        <time>2023-12-03T17:29:28.482Z</time>
      </trkpt>
      <trkpt lat="39.949494" lon="15.979910">
        <ele>399.378316</ele>
        <time>2023-12-03T17:29:43.541Z</time>
      </trkpt>
      <trkpt lat="39.949360" lon="15.979875">
        <ele>400.052919</ele>
        <time>2023-12-03T17:29:47.418Z</time>
      </trkpt>
      <trkpt lat="39.948593" lon="15.979894">
        <ele>404.159449</ele>
        <time>2023-12-03T17:30:06.106Z</time>
      </trkpt>
      <trkpt lat="39.948213" lon="15.979966">
        <ele>406.631757</ele>
        <time>2023-12-03T17:30:15.157Z</time>
      </trkpt>
      <trkpt lat="39.948019" lon="15.979912">
        <ele>407.908949</ele>
        <time>2023-12-03T17:30:21.161Z</time>
      </trkpt>
      <trkpt lat="39.947900" lon="15.979803">
        <ele>408.845164</ele>
        <time>2023-12-03T17:30:25.936Z</time>
      </trkpt>
      <trkpt lat="39.947862" lon="15.979670">
        <ele>409.545754</ele>
        <time>2023-12-03T17:30:30.325Z</time>
      </trkpt>
      <trkpt lat="39.947762" lon="15.979590">
        <ele>410.301049</ele>
        <time>2023-12-03T17:30:35.100Z</time>
      </trkpt>
      <trkpt lat="39.947692" lon="15.979572">
        <ele>410.760419</ele>
        <time>2023-12-03T17:30:38.210Z</time>
      </trkpt>
      <trkpt lat="39.947522" lon="15.979498">
        <ele>411.914302</ele>
        <time>2023-12-03T17:30:48.021Z</time>
      </trkpt>
      <trkpt lat="39.947322" lon="15.979284">
        <ele>413.579817</ele>
        <time>2023-12-03T17:31:02.210Z</time>
      </trkpt>
      <trkpt lat="39.947213" lon="15.979202">
        <ele>414.419152</ele>
        <time>2023-12-03T17:31:10.283Z</time>
      </trkpt>
      <trkpt lat="39.946798" lon="15.979140">
        <ele>421.020051</ele>
        <time>2023-12-03T17:31:39.067Z</time>
      </trkpt>
      <trkpt lat="39.946375" lon="15.978906">
        <ele>428.280790</ele>
        <time>2023-12-03T17:32:15.923Z</time>
      </trkpt>
      <trkpt lat="39.946273" lon="15.978814">
        <ele>430.240467</ele>
        <time>2023-12-03T17:32:26.181Z</time>
      </trkpt>
      <trkpt lat="39.946197" lon="15.978718">
        <ele>431.912297</ele>
        <time>2023-12-03T17:32:34.786Z</time>
      </trkpt>
      <trkpt lat="39.945988" lon="15.978297">
        <ele>437.988639</ele>
        <time>2023-12-03T17:33:07.741Z</time>
      </trkpt>
      <trkpt lat="39.945897" lon="15.978231">
        <ele>439.634013</ele>
        <time>2023-12-03T17:33:16.596Z</time>
      </trkpt>
      <trkpt lat="39.945804" lon="15.978187">
        <ele>441.197331</ele>
        <time>2023-12-03T17:33:25.798Z</time>
      </trkpt>
      <trkpt lat="39.945321" lon="15.978127">
        <ele>448.071302</ele>
        <time>2023-12-03T17:34:08.734Z</time>
      </trkpt>
      <trkpt lat="39.945214" lon="15.978081">
        <ele>449.619065</ele>
        <time>2023-12-03T17:34:18.278Z</time>
      </trkpt>
      <trkpt lat="39.944555" lon="15.977643">
        <ele>459.780083</ele>
        <time>2023-12-03T17:35:15.920Z</time>
      </trkpt>
      <trkpt lat="39.944425" lon="15.977480">
        <ele>462.257392</ele>
        <time>2023-12-03T17:35:27.421Z</time>
      </trkpt>
      <trkpt lat="39.944262" lon="15.977206">
        <ele>465.910212</ele>
        <time>2023-12-03T17:35:42.095Z</time>
      </trkpt>
      <trkpt lat="39.944034" lon="15.976973">
        <ele>467.081377</ele>
        <time>2023-12-03T17:35:53.977Z</time>
      </trkpt>
      <trkpt lat="39.943895" lon="15.976719">
        <ele>466.500863</ele>
        <time>2023-12-03T17:36:00.294Z</time>
      </trkpt>
      <trkpt lat="39.943814" lon="15.976688">
        <ele>466.296044</ele>
        <time>2023-12-03T17:36:01.897Z</time>
      </trkpt>
      <trkpt lat="39.943747" lon="15.976718">
        <ele>466.124167</ele>
        <time>2023-12-03T17:36:02.937Z</time>
      </trkpt>
      <trkpt lat="39.943706" lon="15.976799">
        <ele>465.943612</ele>
        <time>2023-12-03T17:36:03.851Z</time>
      </trkpt>
      <trkpt lat="39.943709" lon="15.976915">
        <ele>465.727703</ele>
        <time>2023-12-03T17:36:04.776Z</time>
      </trkpt>
      <trkpt lat="39.943742" lon="15.976976">
        <ele>465.588825</ele>
        <time>2023-12-03T17:36:05.344Z</time>
      </trkpt>
      <trkpt lat="39.943941" lon="15.977070">
        <ele>465.075294</ele>
        <time>2023-12-03T17:36:07.295Z</time>
      </trkpt>
      <trkpt lat="39.944075" lon="15.977196">
        <ele>464.674487</ele>
        <time>2023-12-03T17:36:08.726Z</time>
      </trkpt>
      <trkpt lat="39.944180" lon="15.977362">
        <ele>464.274162</ele>
        <time>2023-12-03T17:36:10.216Z</time>
      </trkpt>
      <trkpt lat="39.944284" lon="15.977619">
        <ele>463.733579</ele>
        <time>2023-12-03T17:36:12.158Z</time>
      </trkpt>
      <trkpt lat="39.944348" lon="15.977708">
        <ele>463.506592</ele>
        <time>2023-12-03T17:36:13.013Z</time>
      </trkpt>
      <trkpt lat="39.944547" lon="15.977868">
        <ele>463.044733</ele>
        <time>2023-12-03T17:36:15.069Z</time>
      </trkpt>
      <trkpt lat="39.944732" lon="15.978058">
        <ele>462.775321</ele>
        <time>2023-12-03T17:36:17.218Z</time>
      </trkpt>
      <trkpt lat="39.944968" lon="15.978235">
        <ele>462.463840</ele>
        <time>2023-12-03T17:36:19.671Z</time>
      </trkpt>
      <trkpt lat="39.944995" lon="15.978310">
        <ele>462.391159</ele>
        <time>2023-12-03T17:36:20.291Z</time>
      </trkpt>
      <trkpt lat="39.944939" lon="15.978474">
        <ele>462.233676</ele>
        <time>2023-12-03T17:36:21.535Z</time>
      </trkpt>
      <trkpt lat="39.944848" lon="15.978499">
        <ele>462.127272</ele>
        <time>2023-12-03T17:36:22.466Z</time>
      </trkpt>
      <trkpt lat="39.944653" lon="15.978348">
        <ele>461.867802</ele>
        <time>2023-12-03T17:36:25.029Z</time>
      </trkpt>
      <trkpt lat="39.944572" lon="15.978323">
        <ele>461.772565</ele>
        <time>2023-12-03T17:36:25.917Z</time>
      </trkpt>
      <trkpt lat="39.944278" lon="15.978319">
        <ele>461.436161</ele>
        <time>2023-12-03T17:36:32.478Z</time>
      </trkpt>
      <trkpt lat="39.944110" lon="15.978220">
        <ele>461.225233</ele>
        <time>2023-12-03T17:36:39.370Z</time>
      </trkpt>
      <trkpt lat="39.943941" lon="15.978062">
        <ele>462.227650</ele>
        <time>2023-12-03T17:36:47.933Z</time>
      </trkpt>
      <trkpt lat="39.943849" lon="15.978035">
        <ele>463.551690</ele>
        <time>2023-12-03T17:36:53.078Z</time>
      </trkpt>
      <trkpt lat="39.943411" lon="15.978059">
        <ele>469.706944</ele>
        <time>2023-12-03T17:37:23.660Z</time>
      </trkpt>
      <trkpt lat="39.943311" lon="15.978038">
        <ele>471.129097</ele>
        <time>2023-12-03T17:37:32.475Z</time>
      </trkpt>
      <trkpt lat="39.942998" lon="15.977778">
        <ele>476.339398</ele>
        <time>2023-12-03T17:38:03.204Z</time>
      </trkpt>
      <trkpt lat="39.942901" lon="15.977737">
        <ele>477.771076</ele>
        <time>2023-12-03T17:38:11.510Z</time>
      </trkpt>
      <trkpt lat="39.942609" lon="15.977767">
        <ele>481.883662</ele>
        <time>2023-12-03T17:38:36.321Z</time>
      </trkpt>
      <trkpt lat="39.942507" lon="15.977740">
        <ele>483.345010</ele>
        <time>2023-12-03T17:38:44.888Z</time>
      </trkpt>
      <trkpt lat="39.941952" lon="15.977397">
        <ele>491.365525</ele>
        <time>2023-12-03T17:39:32.478Z</time>
      </trkpt>
      <trkpt lat="39.941841" lon="15.977354">
        <ele>492.817414</ele>
        <time>2023-12-03T17:39:40.803Z</time>
      </trkpt>
      <trkpt lat="39.941705" lon="15.977348">
        <ele>494.523655</ele>
        <time>2023-12-03T17:39:50.298Z</time>
      </trkpt>
      <trkpt lat="39.941572" lon="15.977322">
        <ele>496.209932</ele>
        <time>2023-12-03T17:39:59.426Z</time>
      </trkpt>
      <trkpt lat="39.941508" lon="15.977296">
        <ele>497.050435</ele>
        <time>2023-12-03T17:40:03.983Z</time>
      </trkpt>
      <trkpt lat="39.941427" lon="15.977244">
        <ele>498.182431</ele>
        <time>2023-12-03T17:40:10.020Z</time>
      </trkpt>
      <trkpt lat="39.941294" lon="15.977099">
        <ele>500.355944</ele>
        <time>2023-12-03T17:40:21.187Z</time>
      </trkpt>
      <trkpt lat="39.941178" lon="15.976978">
        <ele>502.218375</ele>
        <time>2023-12-03T17:40:30.339Z</time>
      </trkpt>
      <trkpt lat="39.941072" lon="15.976951">
        <ele>503.572588</ele>
        <time>2023-12-03T17:40:36.545Z</time>
      </trkpt>
      <trkpt lat="39.940982" lon="15.976990">
        <ele>504.761725</ele>
        <time>2023-12-03T17:40:41.791Z</time>
      </trkpt>
      <trkpt lat="39.940632" lon="15.977286">
        <ele>509.582570</ele>
        <time>2023-12-03T17:41:03.315Z</time>
      </trkpt>
      <trkpt lat="39.940523" lon="15.977291">
        <ele>510.443019</ele>
        <time>2023-12-03T17:41:08.708Z</time>
      </trkpt>
      <trkpt lat="39.940185" lon="15.977186">
        <ele>513.184145</ele>
        <time>2023-12-03T17:41:24.198Z</time>
      </trkpt>
      <trkpt lat="39.939847" lon="15.977390">
        <ele>516.122345</ele>
        <time>2023-12-03T17:41:41.425Z</time>
      </trkpt>
      <trkpt lat="39.939523" lon="15.977685">
        <ele>519.239654</ele>
        <time>2023-12-03T17:41:58.797Z</time>
      </trkpt>
      <trkpt lat="39.939360" lon="15.977788">
        <ele>520.668564</ele>
        <time>2023-12-03T17:42:06.808Z</time>
      </trkpt>
      <trkpt lat="39.939222" lon="15.977833">
        <ele>521.790778</ele>
        <time>2023-12-03T17:42:13.501Z</time>
      </trkpt>
      <trkpt lat="39.939094" lon="15.977841">
        <ele>522.801749</ele>
        <time>2023-12-03T17:42:19.176Z</time>
      </trkpt>
      <trkpt lat="39.938976" lon="15.977780">
        <ele>523.708075</ele>
        <time>2023-12-03T17:42:24.757Z</time>
      </trkpt>
      <trkpt lat="39.938846" lon="15.977671">
        <ele>524.767612</ele>
        <time>2023-12-03T17:42:31.723Z</time>
      </trkpt>
      <trkpt lat="39.938612" lon="15.977350">
        <ele>527.095871</ele>
        <time>2023-12-03T17:42:46.624Z</time>
      </trkpt>
      <trkpt lat="39.938378" lon="15.977019">
        <ele>529.462508</ele>
        <time>2023-12-03T17:43:01.266Z</time>
      </trkpt>
      <trkpt lat="39.938262" lon="15.976940">
        <ele>530.359674</ele>
        <time>2023-12-03T17:43:06.763Z</time>
      </trkpt>
      <trkpt lat="39.937871" lon="15.976769">
        <ele>533.186983</ele>
        <time>2023-12-03T17:43:24.476Z</time>
      </trkpt>
      <trkpt lat="39.937746" lon="15.976713">
        <ele>534.093105</ele>
        <time>2023-12-03T17:43:30.160Z</time>
      </trkpt>
      <trkpt lat="39.937588" lon="15.976631">
        <ele>535.258933</ele>
        <time>2023-12-03T17:43:37.441Z</time>
      </trkpt>
      <trkpt lat="39.936852" lon="15.976328">
        <ele>537.421159</ele>
        <time>2023-12-03T17:44:05.043Z</time>
      </trkpt>
      <trkpt lat="39.936203" lon="15.976064">
        <ele>539.245529</ele>
        <time>2023-12-03T17:44:20.907Z</time>
      </trkpt>
      <trkpt lat="39.936052" lon="15.976121">
        <ele>539.667377</ele>
        <time>2023-12-03T17:44:23.557Z</time>
      </trkpt>
      <trkpt lat="39.935242" lon="15.976777">
        <ele>536.360958</ele>
        <time>2023-12-03T17:44:33.757Z</time>
      </trkpt>
      <trkpt lat="39.935180" lon="15.976803">
        <ele>536.020822</ele>
        <time>2023-12-03T17:44:34.355Z</time>
      </trkpt>
      <trkpt lat="39.934724" lon="15.976496">
        <ele>533.340653</ele>
        <time>2023-12-03T17:44:38.869Z</time>
      </trkpt>
      <trkpt lat="39.934556" lon="15.976523">
        <ele>532.456599</ele>
        <time>2023-12-03T17:44:40.347Z</time>
      </trkpt>
      <trkpt lat="39.934539" lon="15.976651">
        <ele>531.936370</ele>
        <time>2023-12-03T17:44:41.234Z</time>
      </trkpt>
      <trkpt lat="39.934567" lon="15.977217">
        <ele>530.730125</ele>
        <time>2023-12-03T17:44:45.065Z</time>
      </trkpt>
      <trkpt lat="39.934516" lon="15.977324">
        <ele>530.682352</ele>
        <time>2023-12-03T17:44:45.933Z</time>
      </trkpt>
      <trkpt lat="39.934399" lon="15.977444">
        <ele>530.608745</ele>
        <time>2023-12-03T17:44:47.352Z</time>
      </trkpt>
      <trkpt lat="39.934185" lon="15.977558">
        <ele>530.494430</ele>
        <time>2023-12-03T17:44:49.539Z</time>
      </trkpt>
      <trkpt lat="39.933936" lon="15.977472">
        <ele>530.367050</ele>
        <time>2023-12-03T17:44:52.451Z</time>
      </trkpt>
      <trkpt lat="39.933761" lon="15.977407">
        <ele>530.277067</ele>
        <time>2023-12-03T17:44:55.184Z</time>
      </trkpt>
      <trkpt lat="39.933627" lon="15.977408">
        <ele>530.210801</ele>
        <time>2023-12-03T17:44:57.848Z</time>
      </trkpt>
      <trkpt lat="39.933461" lon="15.977448">
        <ele>530.127321</ele>
        <time>2023-12-03T17:45:01.854Z</time>
      </trkpt>
      <trkpt lat="39.933275" lon="15.977440">
        <ele>530.035291</ele>
        <time>2023-12-03T17:45:08.144Z</time>
      </trkpt>
      <trkpt lat="39.931911" lon="15.976944">
        <ele>542.034032</ele>
        <time>2023-12-03T17:46:28.110Z</time>
      </trkpt>
      <trkpt lat="39.931303" lon="15.976696">
        <ele>547.892600</ele>
        <time>2023-12-03T17:47:06.408Z</time>
      </trkpt>
      <trkpt lat="39.930714" lon="15.976378">
        <ele>551.770638</ele>
        <time>2023-12-03T17:47:35.355Z</time>
      </trkpt>
      <trkpt lat="39.930407" lon="15.976158">
        <ele>553.901634</ele>
        <time>2023-12-03T17:47:47.590Z</time>
      </trkpt>
      <trkpt lat="39.930094" lon="15.975864">
        <ele>556.248234</ele>
        <time>2023-12-03T17:47:59.413Z</time>
      </trkpt>
      <trkpt lat="39.929405" lon="15.975103">
        <ele>560.287653</ele>
        <time>2023-12-03T17:48:25.479Z</time>
      </trkpt>
      <trkpt lat="39.929031" lon="15.974814">
        <ele>561.811878</ele>
        <time>2023-12-03T17:48:38.546Z</time>
      </trkpt>
      <trkpt lat="39.928474" lon="15.974531">
        <ele>563.907794</ele>
        <time>2023-12-03T17:48:56.016Z</time>
      </trkpt>
      <trkpt lat="39.928224" lon="15.974495">
        <ele>564.767769</ele>
        <time>2023-12-03T17:49:02.885Z</time>
      </trkpt>
      <trkpt lat="39.927680" lon="15.974477">
        <ele>566.434201</ele>
        <time>2023-12-03T17:49:16.746Z</time>
      </trkpt>
      <trkpt lat="39.926461" lon="15.974624">
        <ele>570.218829</ele>
        <time>2023-12-03T17:49:49.556Z</time>
      </trkpt>
      <trkpt lat="39.926260" lon="15.974600">
        <ele>571.215639</ele>
        <time>2023-12-03T17:49:55.186Z</time>
      </trkpt>
      <trkpt lat="39.926006" lon="15.974457">
        <ele>572.581961</ele>
        <time>2023-12-03T17:50:03.325Z</time>
      </trkpt>
      <trkpt lat="39.925885" lon="15.974403">
        <ele>573.213558</ele>
        <time>2023-12-03T17:50:07.304Z</time>
      </trkpt>
      <trkpt lat="39.924691" lon="15.974003">
        <ele>579.389913</ele>
        <time>2023-12-03T17:50:53.199Z</time>
      </trkpt>
      <trkpt lat="39.923675" lon="15.973822">
        <ele>585.971979</ele>
        <time>2023-12-03T17:51:36.458Z</time>
      </trkpt>
      <trkpt lat="39.923354" lon="15.973736">
        <ele>588.075449</ele>
        <time>2023-12-03T17:51:49.502Z</time>
      </trkpt>
      <trkpt lat="39.922657" lon="15.973492">
        <ele>592.959886</ele>
        <time>2023-12-03T17:52:17.743Z</time>
      </trkpt>
      <trkpt lat="39.921761" lon="15.973349">
        <ele>599.431852</ele>
        <time>2023-12-03T17:52:56.138Z</time>
      </trkpt>
      <trkpt lat="39.921645" lon="15.973294">
        <ele>600.316812</ele>
        <time>2023-12-03T17:53:01.609Z</time>
      </trkpt>
      <trkpt lat="39.921299" lon="15.973017">
        <ele>603.227786</ele>
        <time>2023-12-03T17:53:20.544Z</time>
      </trkpt>
      <trkpt lat="39.920903" lon="15.972643">
        <ele>607.404103</ele>
        <time>2023-12-03T17:53:45.395Z</time>
      </trkpt>
      <trkpt lat="39.919521" lon="15.971125">
        <ele>621.124298</ele>
        <time>2023-12-03T17:55:16.068Z</time>
      </trkpt>
      <trkpt lat="39.919397" lon="15.971105">
        <ele>621.699509</ele>
        <time>2023-12-03T17:55:20.735Z</time>
      </trkpt>
      <trkpt lat="39.919274" lon="15.971199">
        <ele>622.355864</ele>
        <time>2023-12-03T17:55:25.651Z</time>
      </trkpt>
      <trkpt lat="39.919082" lon="15.971546">
        <ele>623.866626</ele>
        <time>2023-12-03T17:55:36.193Z</time>
      </trkpt>
      <trkpt lat="39.919004" lon="15.971626">
        <ele>624.323499</ele>
        <time>2023-12-03T17:55:39.152Z</time>
      </trkpt>
      <trkpt lat="39.918848" lon="15.971696">
        <ele>625.083017</ele>
        <time>2023-12-03T17:55:43.684Z</time>
      </trkpt>
      <trkpt lat="39.917984" lon="15.971897">
        <ele>627.258209</ele>
        <time>2023-12-03T17:56:00.382Z</time>
      </trkpt>
      <trkpt lat="39.917616" lon="15.971987">
        <ele>627.259600</ele>
        <time>2023-12-03T17:56:05.273Z</time>
      </trkpt>
      <trkpt lat="39.917045" lon="15.972250">
        <ele>627.261850</ele>
        <time>2023-12-03T17:56:13.673Z</time>
      </trkpt>
      <trkpt lat="39.916535" lon="15.972513">
        <ele>627.159437</ele>
        <time>2023-12-03T17:56:21.053Z</time>
      </trkpt>
      <trkpt lat="39.915357" lon="15.973056">
        <ele>626.199403</ele>
        <time>2023-12-03T17:56:36.522Z</time>
      </trkpt>
      <trkpt lat="39.915105" lon="15.973232">
        <ele>625.979744</ele>
        <time>2023-12-03T17:56:39.906Z</time>
      </trkpt>
      <trkpt lat="39.913909" lon="15.974449">
        <ele>625.919190</ele>
        <time>2023-12-03T17:57:00.368Z</time>
      </trkpt>
      <trkpt lat="39.913788" lon="15.974483">
        <ele>625.922560</ele>
        <time>2023-12-03T17:57:02.524Z</time>
      </trkpt>
      <trkpt lat="39.913524" lon="15.974417">
        <ele>625.929878</ele>
        <time>2023-12-03T17:57:07.898Z</time>
      </trkpt>
      <trkpt lat="39.912987" lon="15.974194">
        <ele>626.480238</ele>
        <time>2023-12-03T17:57:20.769Z</time>
      </trkpt>
      <trkpt lat="39.912329" lon="15.973792">
        <ele>627.211224</ele>
        <time>2023-12-03T17:57:37.479Z</time>
      </trkpt>
      <trkpt lat="39.912118" lon="15.973708">
        <ele>627.433155</ele>
        <time>2023-12-03T17:57:41.556Z</time>
      </trkpt>
      <trkpt lat="39.911884" lon="15.973677">
        <ele>627.669759</ele>
        <time>2023-12-03T17:57:45.276Z</time>
      </trkpt>
      <trkpt lat="39.911597" lon="15.973752">
        <ele>627.199293</ele>
        <time>2023-12-03T17:57:48.748Z</time>
      </trkpt>
      <trkpt lat="39.910909" lon="15.974046">
        <ele>625.446366</ele>
        <time>2023-12-03T17:57:56.089Z</time>
      </trkpt>
      <trkpt lat="39.910829" lon="15.974144">
        <ele>625.180587</ele>
        <time>2023-12-03T17:57:57.167Z</time>
      </trkpt>
      <trkpt lat="39.910779" lon="15.974357">
        <ele>624.766915</ele>
        <time>2023-12-03T17:57:58.884Z</time>
      </trkpt>
      <trkpt lat="39.910792" lon="15.974668">
        <ele>624.188498</ele>
        <time>2023-12-03T17:58:01.300Z</time>
      </trkpt>
      <trkpt lat="39.910792" lon="15.975452">
        <ele>624.052274</ele>
        <time>2023-12-03T17:58:07.579Z</time>
      </trkpt>
      <trkpt lat="39.910787" lon="15.975555">
        <ele>624.248314</ele>
        <time>2023-12-03T17:58:08.466Z</time>
      </trkpt>
      <trkpt lat="39.910754" lon="15.975672">
        <ele>624.485103</ele>
        <time>2023-12-03T17:58:09.556Z</time>
      </trkpt>
      <trkpt lat="39.910695" lon="15.975733">
        <ele>624.671578</ele>
        <time>2023-12-03T17:58:10.460Z</time>
      </trkpt>
      <trkpt lat="39.910635" lon="15.975763">
        <ele>624.830714</ele>
        <time>2023-12-03T17:58:11.243Z</time>
      </trkpt>
      <trkpt lat="39.910493" lon="15.975741">
        <ele>625.184835</ele>
        <time>2023-12-03T17:58:13.007Z</time>
      </trkpt>
      <trkpt lat="39.908784" lon="15.974766">
        <ele>632.164572</ele>
        <time>2023-12-03T17:59:22.574Z</time>
      </trkpt>
      <trkpt lat="39.908591" lon="15.974718">
        <ele>633.235412</ele>
        <time>2023-12-03T17:59:31.630Z</time>
      </trkpt>
      <trkpt lat="39.908455" lon="15.974784">
        <ele>634.026317</ele>
        <time>2023-12-03T17:59:37.814Z</time>
      </trkpt>
      <trkpt lat="39.908367" lon="15.974941">
        <ele>634.839230</ele>
        <time>2023-12-03T17:59:44.031Z</time>
      </trkpt>
      <trkpt lat="39.908329" lon="15.975124">
        <ele>635.631820</ele>
        <time>2023-12-03T17:59:49.484Z</time>
      </trkpt>
      <trkpt lat="39.908377" lon="15.975311">
        <ele>636.456205</ele>
        <time>2023-12-03T17:59:54.942Z</time>
      </trkpt>
      <trkpt lat="39.908790" lon="15.976439">
        <ele>637.989516</ele>
        <time>2023-12-03T18:00:19.645Z</time>
      </trkpt>
      <trkpt lat="39.908934" lon="15.976669">
        <ele>638.096326</ele>
        <time>2023-12-03T18:00:23.214Z</time>
      </trkpt>
      <trkpt lat="39.909382" lon="15.977146">
        <ele>638.367617</ele>
        <time>2023-12-03T18:00:29.841Z</time>
      </trkpt>
      <trkpt lat="39.909574" lon="15.977393">
        <ele>638.442309</ele>
        <time>2023-12-03T18:00:32.728Z</time>
      </trkpt>
      <trkpt lat="39.909572" lon="15.977560">
        <ele>638.143044</ele>
        <time>2023-12-03T18:00:34.071Z</time>
      </trkpt>
      <trkpt lat="39.909472" lon="15.977660">
        <ele>637.848645</ele>
        <time>2023-12-03T18:00:35.385Z</time>
      </trkpt>
      <trkpt lat="39.908528" lon="15.977725">
        <ele>635.640459</ele>
        <time>2023-12-03T18:00:45.358Z</time>
      </trkpt>
      <trkpt lat="39.905804" lon="15.977573">
        <ele>628.657437</ele>
        <time>2023-12-03T18:01:14.663Z</time>
      </trkpt>
      <trkpt lat="39.904902" lon="15.977718">
        <ele>625.192005</ele>
        <time>2023-12-03T18:01:23.330Z</time>
      </trkpt>
      <trkpt lat="39.904875" lon="15.977813">
        <ele>624.895668</ele>
        <time>2023-12-03T18:01:24.062Z</time>
      </trkpt>
      <trkpt lat="39.904745" lon="15.977952">
        <ele>624.254556</ele>
        <time>2023-12-03T18:01:25.708Z</time>
      </trkpt>
      <trkpt lat="39.904525" lon="15.978010">
        <ele>623.398699</ele>
        <time>2023-12-03T18:01:27.952Z</time>
      </trkpt>
      <trkpt lat="39.904382" lon="15.977999">
        <ele>622.943902</ele>
        <time>2023-12-03T18:01:29.364Z</time>
      </trkpt>
      <trkpt lat="39.904021" lon="15.977911">
        <ele>622.017154</ele>
        <time>2023-12-03T18:01:33.043Z</time>
      </trkpt>
      <trkpt lat="39.903870" lon="15.977782">
        <ele>621.561580</ele>
        <time>2023-12-03T18:01:34.883Z</time>
      </trkpt>
      <trkpt lat="39.903726" lon="15.977565">
        <ele>621.006158</ele>
        <time>2023-12-03T18:01:37.113Z</time>
      </trkpt>
      <trkpt lat="39.903639" lon="15.977476">
        <ele>620.727090</ele>
        <time>2023-12-03T18:01:38.242Z</time>
      </trkpt>
      <trkpt lat="39.903460" lon="15.977368">
        <ele>620.229360</ele>
        <time>2023-12-03T18:01:40.216Z</time>
      </trkpt>
      <trkpt lat="39.903239" lon="15.977300">
        <ele>619.656357</ele>
        <time>2023-12-03T18:01:42.703Z</time>
      </trkpt>
      <trkpt lat="39.902944" lon="15.977253">
        <ele>618.906407</ele>
        <time>2023-12-03T18:01:46.199Z</time>
      </trkpt>
      <trkpt lat="39.902663" lon="15.977345">
        <ele>618.338628</ele>
        <time>2023-12-03T18:01:49.938Z</time>
      </trkpt>
      <trkpt lat="39.902157" lon="15.977686">
        <ele>617.475606</ele>
        <time>2023-12-03T18:01:58.986Z</time>
      </trkpt>
      <trkpt lat="39.901724" lon="15.977831">
        <ele>616.798274</ele>
        <time>2023-12-03T18:02:04.588Z</time>
      </trkpt>
      <trkpt lat="39.901127" lon="15.978085">
        <ele>615.823930</ele>
        <time>2023-12-03T18:02:11.193Z</time>
      </trkpt>
      <trkpt lat="39.900986" lon="15.978235">
        <ele>615.028178</ele>
        <time>2023-12-03T18:02:12.976Z</time>
      </trkpt>
      <trkpt lat="39.900883" lon="15.978453">
        <ele>614.169392</ele>
        <time>2023-12-03T18:02:14.856Z</time>
      </trkpt>
      <trkpt lat="39.900617" lon="15.979502">
        <ele>610.463526</ele>
        <time>2023-12-03T18:02:22.821Z</time>
      </trkpt>
      <trkpt lat="39.900515" lon="15.979818">
        <ele>609.313570</ele>
        <time>2023-12-03T18:02:25.283Z</time>
      </trkpt>
      <trkpt lat="39.900407" lon="15.980019">
        <ele>608.490438</ele>
        <time>2023-12-03T18:02:27.054Z</time>
      </trkpt>
      <trkpt lat="39.900258" lon="15.980178">
        <ele>607.965389</ele>
        <time>2023-12-03T18:02:28.929Z</time>
      </trkpt>
      <trkpt lat="39.900115" lon="15.980266">
        <ele>607.906932</ele>
        <time>2023-12-03T18:02:30.419Z</time>
      </trkpt>
      <trkpt lat="39.899348" lon="15.980431">
        <ele>607.619562</ele>
        <time>2023-12-03T18:02:39.002Z</time>
      </trkpt>
      <trkpt lat="39.899183" lon="15.980420">
        <ele>607.558487</ele>
        <time>2023-12-03T18:02:41.537Z</time>
      </trkpt>
      <trkpt lat="39.898619" lon="15.980290">
        <ele>607.346760</ele>
        <time>2023-12-03T18:02:55.600Z</time>
      </trkpt>
      <trkpt lat="39.898396" lon="15.980286">
        <ele>608.107387</ele>
        <time>2023-12-03T18:03:03.478Z</time>
      </trkpt>
      <trkpt lat="39.898270" lon="15.980328">
        <ele>608.678690</ele>
        <time>2023-12-03T18:03:08.357Z</time>
      </trkpt>
      <trkpt lat="39.898226" lon="15.980389">
        <ele>608.960858</ele>
        <time>2023-12-03T18:03:10.980Z</time>
      </trkpt>
      <trkpt lat="39.898206" lon="15.980485">
        <ele>609.296103</ele>
        <time>2023-12-03T18:03:13.611Z</time>
      </trkpt>
      <trkpt lat="39.898216" lon="15.980581">
        <ele>609.622599</ele>
        <time>2023-12-03T18:03:16.504Z</time>
      </trkpt>
      <trkpt lat="39.898262" lon="15.980662">
        <ele>609.962228</ele>
        <time>2023-12-03T18:03:19.599Z</time>
      </trkpt>
      <trkpt lat="39.898638" lon="15.981148">
        <ele>612.288304</ele>
        <time>2023-12-03T18:03:39.578Z</time>
      </trkpt>
      <trkpt lat="39.899114" lon="15.981762">
        <ele>615.230032</ele>
        <time>2023-12-03T18:03:59.386Z</time>
      </trkpt>
      <trkpt lat="39.899299" lon="15.981940">
        <ele>615.906953</ele>
        <time>2023-12-03T18:04:04.749Z</time>
      </trkpt>
      <trkpt lat="39.899419" lon="15.981987">
        <ele>616.275683</ele>
        <time>2023-12-03T18:04:08.181Z</time>
      </trkpt>
      <trkpt lat="39.899537" lon="15.981995">
        <ele>616.623399</ele>
        <time>2023-12-03T18:04:11.222Z</time>
      </trkpt>
      <trkpt lat="39.899771" lon="15.981808">
        <ele>617.431119</ele>
        <time>2023-12-03T18:04:19.025Z</time>
      </trkpt>
      <trkpt lat="39.899921" lon="15.981724">
        <ele>617.911547</ele>
        <time>2023-12-03T18:04:23.415Z</time>
      </trkpt>
      <trkpt lat="39.900393" lon="15.981645">
        <ele>619.311939</ele>
        <time>2023-12-03T18:04:36.359Z</time>
      </trkpt>
      <trkpt lat="39.900515" lon="15.981668">
        <ele>619.674693</ele>
        <time>2023-12-03T18:04:39.415Z</time>
      </trkpt>
      <trkpt lat="39.900598" lon="15.981726">
        <ele>619.951827</ele>
        <time>2023-12-03T18:04:41.468Z</time>
      </trkpt>
      <trkpt lat="39.900733" lon="15.982106">
        <ele>620.997185</ele>
        <time>2023-12-03T18:04:48.922Z</time>
      </trkpt>
      <trkpt lat="39.900860" lon="15.982196">
        <ele>621.536449</ele>
        <time>2023-12-03T18:04:52.418Z</time>
      </trkpt>
      <trkpt lat="39.900945" lon="15.982299">
        <ele>621.969393</ele>
        <time>2023-12-03T18:04:55.416Z</time>
      </trkpt>
      <trkpt lat="39.901051" lon="15.982600">
        <ele>622.917245</ele>
        <time>2023-12-03T18:05:02.325Z</time>
      </trkpt>
      <trkpt lat="39.901114" lon="15.982696">
        <ele>623.278794</ele>
        <time>2023-12-03T18:05:05.237Z</time>
      </trkpt>
      <trkpt lat="39.901244" lon="15.982794">
        <ele>623.839019</ele>
        <time>2023-12-03T18:05:09.756Z</time>
      </trkpt>
      <trkpt lat="39.901531" lon="15.982911">
        <ele>624.960815</ele>
        <time>2023-12-03T18:05:19.599Z</time>
      </trkpt>
      <trkpt lat="39.901604" lon="15.982997">
        <ele>625.327881</ele>
        <time>2023-12-03T18:05:23.022Z</time>
      </trkpt>
      <trkpt lat="39.901659" lon="15.983120">
        <ele>625.735321</ele>
        <time>2023-12-03T18:05:26.879Z</time>
      </trkpt>
      <trkpt lat="39.901720" lon="15.983439">
        <ele>626.676186</ele>
        <time>2023-12-03T18:05:35.434Z</time>
      </trkpt>
      <trkpt lat="39.901750" lon="15.983642">
        <ele>627.273736</ele>
        <time>2023-12-03T18:05:40.696Z</time>
      </trkpt>
      <trkpt lat="39.901748" lon="15.983792">
        <ele>627.777424</ele>
        <time>2023-12-03T18:05:44.422Z</time>
      </trkpt>
      <trkpt lat="39.901722" lon="15.983927">
        <ele>628.244739</ele>
        <time>2023-12-03T18:05:47.754Z</time>
      </trkpt>
      <trkpt lat="39.901442" lon="15.984351">
        <ele>630.123072</ele>
        <time>2023-12-03T18:06:00.667Z</time>
      </trkpt>
      <trkpt lat="39.901403" lon="15.984453">
        <ele>630.505707</ele>
        <time>2023-12-03T18:06:03.301Z</time>
      </trkpt>
      <trkpt lat="39.901400" lon="15.984812">
        <ele>631.711095</ele>
        <time>2023-12-03T18:06:11.796Z</time>
      </trkpt>
      <trkpt lat="39.901378" lon="15.984978">
        <ele>632.276684</ele>
        <time>2023-12-03T18:06:15.848Z</time>
      </trkpt>
      <trkpt lat="39.901309" lon="15.985126">
        <ele>632.858148</ele>
        <time>2023-12-03T18:06:20.112Z</time>
      </trkpt>
      <trkpt lat="39.901257" lon="15.985184">
        <ele>633.157667</ele>
        <time>2023-12-03T18:06:22.326Z</time>
      </trkpt>
      <trkpt lat="39.901198" lon="15.985204">
        <ele>633.424469</ele>
        <time>2023-12-03T18:06:24.325Z</time>
      </trkpt>
      <trkpt lat="39.901131" lon="15.985187">
        <ele>633.723197</ele>
        <time>2023-12-03T18:06:26.633Z</time>
      </trkpt>
      <trkpt lat="39.901054" lon="15.985084">
        <ele>634.206055</ele>
        <time>2023-12-03T18:06:30.421Z</time>
      </trkpt>
      <trkpt lat="39.901086" lon="15.983554">
        <ele>640.373099</ele>
        <time>2023-12-03T18:07:11.280Z</time>
      </trkpt>
      <trkpt lat="39.901047" lon="15.983442">
        <ele>640.886218</ele>
        <time>2023-12-03T18:07:14.828Z</time>
      </trkpt>
      <trkpt lat="39.900968" lon="15.983345">
        <ele>641.476395</ele>
        <time>2023-12-03T18:07:18.951Z</time>
      </trkpt>
      <trkpt lat="39.900820" lon="15.983297">
        <ele>642.305755</ele>
        <time>2023-12-03T18:07:24.633Z</time>
      </trkpt>
      <trkpt lat="39.900469" lon="15.983295">
        <ele>644.214508</ele>
        <time>2023-12-03T18:07:38.311Z</time>
      </trkpt>
      <trkpt lat="39.900406" lon="15.983266">
        <ele>644.577836</ele>
        <time>2023-12-03T18:07:40.976Z</time>
      </trkpt>
      <trkpt lat="39.900343" lon="15.983194">
        <ele>645.059418</ele>
        <time>2023-12-03T18:07:44.404Z</time>
      </trkpt>
      <trkpt lat="39.900104" lon="15.983114">
        <ele>646.638195</ele>
        <time>2023-12-03T18:07:54.301Z</time>
      </trkpt>
      <trkpt lat="39.899212" lon="15.983592">
        <ele>652.808827</ele>
        <time>2023-12-03T18:08:34.773Z</time>
      </trkpt>
      <trkpt lat="39.899145" lon="15.983713">
        <ele>653.541300</ele>
        <time>2023-12-03T18:08:39.578Z</time>
      </trkpt>
      <trkpt lat="39.899060" lon="15.983959">
        <ele>654.865617</ele>
        <time>2023-12-03T18:08:48.301Z</time>
      </trkpt>
      <trkpt lat="39.898934" lon="15.984052">
        <ele>655.792059</ele>
        <time>2023-12-03T18:08:54.060Z</time>
      </trkpt>
      <trkpt lat="39.898866" lon="15.984053">
        <ele>656.227163</ele>
        <time>2023-12-03T18:08:56.760Z</time>
      </trkpt>
      <trkpt lat="39.898528" lon="15.983883">
        <ele>657.456171</ele>
        <time>2023-12-03T18:09:10.142Z</time>
      </trkpt>
      <trkpt lat="39.898418" lon="15.983887">
        <ele>657.803742</ele>
        <time>2023-12-03T18:09:13.973Z</time>
      </trkpt>
      <trkpt lat="39.897947" lon="15.984112">
        <ele>659.388161</ele>
        <time>2023-12-03T18:09:30.028Z</time>
      </trkpt>
      <trkpt lat="39.897833" lon="15.984059">
        <ele>659.770449</ele>
        <time>2023-12-03T18:09:33.343Z</time>
      </trkpt>
      <trkpt lat="39.897768" lon="15.983981">
        <ele>660.049507</ele>
        <time>2023-12-03T18:09:35.271Z</time>
      </trkpt>
      <trkpt lat="39.897437" lon="15.983214">
        <ele>662.155598</ele>
        <time>2023-12-03T18:09:47.142Z</time>
      </trkpt>
      <trkpt lat="39.897370" lon="15.983158">
        <ele>662.344752</ele>
        <time>2023-12-03T18:09:48.089Z</time>
      </trkpt>
      <trkpt lat="39.897284" lon="15.983158">
        <ele>662.549136</ele>
        <time>2023-12-03T18:09:49.392Z</time>
      </trkpt>
      <trkpt lat="39.896811" lon="15.983463">
        <ele>663.803281</ele>
        <time>2023-12-03T18:09:57.788Z</time>
      </trkpt>
      <trkpt lat="39.896693" lon="15.983493">
        <ele>664.088999</ele>
        <time>2023-12-03T18:09:59.871Z</time>
      </trkpt>
      <trkpt lat="39.896575" lon="15.983473">
        <ele>664.371794</ele>
        <time>2023-12-03T18:10:02.633Z</time>
      </trkpt>
      <trkpt lat="39.896213" lon="15.983125">
        <ele>665.440787</ele>
        <time>2023-12-03T18:10:14.623Z</time>
      </trkpt>
      <trkpt lat="39.896135" lon="15.983116">
        <ele>665.626883</ele>
        <time>2023-12-03T18:10:16.807Z</time>
      </trkpt>
      <trkpt lat="39.896076" lon="15.983141">
        <ele>665.774323</ele>
        <time>2023-12-03T18:10:18.722Z</time>
      </trkpt>
      <trkpt lat="39.896035" lon="15.983207">
        <ele>665.929164</ele>
        <time>2023-12-03T18:10:21.143Z</time>
      </trkpt>
      <trkpt lat="39.896022" lon="15.983324">
        <ele>666.144718</ele>
        <time>2023-12-03T18:10:24.346Z</time>
      </trkpt>
      <trkpt lat="39.896093" lon="15.983489">
        <ele>666.815681</ele>
        <time>2023-12-03T18:10:29.407Z</time>
      </trkpt>
      <trkpt lat="39.896722" lon="15.984169">
        <ele>673.294343</ele>
        <time>2023-12-03T18:11:05.145Z</time>
      </trkpt>
      <trkpt lat="39.896827" lon="15.984331">
        <ele>674.584234</ele>
        <time>2023-12-03T18:11:13.702Z</time>
      </trkpt>
      <trkpt lat="39.897340" lon="15.985553">
        <ele>682.952279</ele>
        <time>2023-12-03T18:12:10.565Z</time>
      </trkpt>
      <trkpt lat="39.897404" lon="15.985825">
        <ele>684.608849</ele>
        <time>2023-12-03T18:12:20.856Z</time>
      </trkpt>
      <trkpt lat="39.897393" lon="15.985952">
        <ele>685.353022</ele>
        <time>2023-12-03T18:12:25.478Z</time>
      </trkpt>
      <trkpt lat="39.897340" lon="15.986051">
        <ele>686.055934</ele>
        <time>2023-12-03T18:12:29.817Z</time>
      </trkpt>
      <trkpt lat="39.897268" lon="15.986108">
        <ele>686.695273</ele>
        <time>2023-12-03T18:12:33.667Z</time>
      </trkpt>
      <trkpt lat="39.897196" lon="15.986116">
        <ele>687.243701</ele>
        <time>2023-12-03T18:12:36.920Z</time>
      </trkpt>
      <trkpt lat="39.897115" lon="15.986072">
        <ele>687.909701</ele>
        <time>2023-12-03T18:12:40.875Z</time>
      </trkpt>
      <trkpt lat="39.896895" lon="15.985711">
        <ele>690.594141</ele>
        <time>2023-12-03T18:12:56.430Z</time>
      </trkpt>
      <trkpt lat="39.896756" lon="15.985578">
        <ele>691.902816</ele>
        <time>2023-12-03T18:13:03.765Z</time>
      </trkpt>
      <trkpt lat="39.896673" lon="15.985569">
        <ele>692.534922</ele>
        <time>2023-12-03T18:13:07.188Z</time>
      </trkpt>
      <trkpt lat="39.896595" lon="15.985611">
        <ele>693.175430</ele>
        <time>2023-12-03T18:13:10.553Z</time>
      </trkpt>
      <trkpt lat="39.896282" lon="15.986020">
        <ele>696.123188</ele>
        <time>2023-12-03T18:13:27.242Z</time>
      </trkpt>
      <trkpt lat="39.896232" lon="15.986279">
        <ele>697.394421</ele>
        <time>2023-12-03T18:13:34.308Z</time>
      </trkpt>
      <trkpt lat="39.896323" lon="15.986532">
        <ele>698.724441</ele>
        <time>2023-12-03T18:13:41.840Z</time>
      </trkpt>
      <trkpt lat="39.896908" lon="15.987004">
        <ele>702.992942</ele>
        <time>2023-12-03T18:14:08.527Z</time>
      </trkpt>
      <trkpt lat="39.897611" lon="15.987312">
        <ele>707.958669</ele>
        <time>2023-12-03T18:14:41.616Z</time>
      </trkpt>
      <trkpt lat="39.897664" lon="15.987410">
        <ele>708.625005</ele>
        <time>2023-12-03T18:14:45.683Z</time>
      </trkpt>
      <trkpt lat="39.897689" lon="15.987553">
        <ele>709.440077</ele>
        <time>2023-12-03T18:14:50.661Z</time>
      </trkpt>
      <trkpt lat="39.897652" lon="15.987706">
        <ele>710.331591</ele>
        <time>2023-12-03T18:14:56.216Z</time>
      </trkpt>
      <trkpt lat="39.896634" lon="15.988970">
        <ele>720.235274</ele>
        <time>2023-12-03T18:15:57.652Z</time>
      </trkpt>
      <trkpt lat="39.896610" lon="15.989074">
        <ele>720.756886</ele>
        <time>2023-12-03T18:16:01.210Z</time>
      </trkpt>
      <trkpt lat="39.896627" lon="15.989174">
        <ele>721.248828</ele>
        <time>2023-12-03T18:16:04.709Z</time>
      </trkpt>
      <trkpt lat="39.896679" lon="15.989270">
        <ele>721.813247</ele>
        <time>2023-12-03T18:16:08.820Z</time>
      </trkpt>
      <trkpt lat="39.896857" lon="15.989399">
        <ele>723.088244</ele>
        <time>2023-12-03T18:16:17.307Z</time>
      </trkpt>
      <trkpt lat="39.896908" lon="15.989478">
        <ele>723.584131</ele>
        <time>2023-12-03T18:16:20.636Z</time>
      </trkpt>
      <trkpt lat="39.897152" lon="15.990088">
        <ele>726.888195</ele>
        <time>2023-12-03T18:16:41.654Z</time>
      </trkpt>
      <trkpt lat="39.897238" lon="15.990236">
        <ele>727.779898</ele>
        <time>2023-12-03T18:16:46.787Z</time>
      </trkpt>
      <trkpt lat="39.897587" lon="15.990653">
        <ele>730.498362</ele>
        <time>2023-12-03T18:17:03.424Z</time>
      </trkpt>
      <trkpt lat="39.897683" lon="15.990804">
        <ele>731.216972</ele>
        <time>2023-12-03T18:17:08.196Z</time>
      </trkpt>
      <trkpt lat="39.897750" lon="15.990959">
        <ele>731.868890</ele>
        <time>2023-12-03T18:17:12.409Z</time>
      </trkpt>
      <trkpt lat="39.897832" lon="15.991353">
        <ele>733.364813</ele>
        <time>2023-12-03T18:17:22.864Z</time>
      </trkpt>
      <trkpt lat="39.897887" lon="15.991468">
        <ele>733.861385</ele>
        <time>2023-12-03T18:17:26.400Z</time>
      </trkpt>
      <trkpt lat="39.897967" lon="15.991540">
        <ele>734.325722</ele>
        <time>2023-12-03T18:17:29.816Z</time>
      </trkpt>
      <trkpt lat="39.898675" lon="15.991651">
        <ele>737.731707</ele>
        <time>2023-12-03T18:17:54.475Z</time>
      </trkpt>
      <trkpt lat="39.898873" lon="15.991717">
        <ele>738.717510</ele>
        <time>2023-12-03T18:18:01.419Z</time>
      </trkpt>
      <trkpt lat="39.899237" lon="15.991950">
        <ele>740.700214</ele>
        <time>2023-12-03T18:18:14.028Z</time>
      </trkpt>
      <trkpt lat="39.899310" lon="15.992060">
        <ele>741.245768</ele>
        <time>2023-12-03T18:18:17.318Z</time>
      </trkpt>
      <trkpt lat="39.899337" lon="15.992181">
        <ele>741.718436</ele>
        <time>2023-12-03T18:18:20.255Z</time>
      </trkpt>
      <trkpt lat="39.899312" lon="15.992605">
        <ele>743.313512</ele>
        <time>2023-12-03T18:18:30.181Z</time>
      </trkpt>
      <trkpt lat="39.899368" lon="15.992717">
        <ele>743.814961</ele>
        <time>2023-12-03T18:18:33.655Z</time>
      </trkpt>
      <trkpt lat="39.899611" lon="15.993042">
        <ele>745.517203</ele>
        <time>2023-12-03T18:18:45.980Z</time>
      </trkpt>
      <trkpt lat="39.899938" lon="15.993383">
        <ele>747.897629</ele>
        <time>2023-12-03T18:19:02.204Z</time>
      </trkpt>
      <trkpt lat="39.900030" lon="15.993453">
        <ele>748.786360</ele>
        <time>2023-12-03T18:19:06.378Z</time>
      </trkpt>
      <trkpt lat="39.900235" lon="15.993673">
        <ele>751.001697</ele>
        <time>2023-12-03T18:19:18.589Z</time>
      </trkpt>
      <trkpt lat="39.900283" lon="15.993808">
        <ele>751.954027</ele>
        <time>2023-12-03T18:19:23.781Z</time>
      </trkpt>
      <trkpt lat="39.900294" lon="15.993995">
        <ele>753.154397</ele>
        <time>2023-12-03T18:19:30.664Z</time>
      </trkpt>
      <trkpt lat="39.900265" lon="15.994134">
        <ele>754.076351</ele>
        <time>2023-12-03T18:19:35.680Z</time>
      </trkpt>
      <trkpt lat="39.900167" lon="15.994266">
        <ele>755.252030</ele>
        <time>2023-12-03T18:19:42.288Z</time>
      </trkpt>
      <trkpt lat="39.899619" lon="15.994749">
        <ele>760.770956</ele>
        <time>2023-12-03T18:20:15.297Z</time>
      </trkpt>
      <trkpt lat="39.899277" lon="15.994961">
        <ele>764.027110</ele>
        <time>2023-12-03T18:20:38.338Z</time>
      </trkpt>
      <trkpt lat="39.899032" lon="15.994960">
        <ele>766.179041</ele>
        <time>2023-12-03T18:20:53.703Z</time>
      </trkpt>
      <trkpt lat="39.898821" lon="15.994872">
        <ele>768.124882</ele>
        <time>2023-12-03T18:21:06.418Z</time>
      </trkpt>
      <trkpt lat="39.898330" lon="15.994629">
        <ele>772.737901</ele>
        <time>2023-12-03T18:21:32.459Z</time>
      </trkpt>
      <trkpt lat="39.898059" lon="15.994599">
        <ele>775.126758</ele>
        <time>2023-12-03T18:21:44.856Z</time>
      </trkpt>
      <trkpt lat="39.897756" lon="15.994673">
        <ele>777.834425</ele>
        <time>2023-12-03T18:21:58.037Z</time>
      </trkpt>
      <trkpt lat="39.897643" lon="15.994561">
        <ele>778.592300</ele>
        <time>2023-12-03T18:22:02.983Z</time>
      </trkpt>
      <trkpt lat="39.897520" lon="15.994247">
        <ele>779.986955</ele>
        <time>2023-12-03T18:22:12.905Z</time>
      </trkpt>
      <trkpt lat="39.897419" lon="15.994082">
        <ele>780.821956</ele>
        <time>2023-12-03T18:22:18.793Z</time>
      </trkpt>
      <trkpt lat="39.896952" lon="15.993813">
        <ele>783.454531</ele>
        <time>2023-12-03T18:22:37.133Z</time>
      </trkpt>
      <trkpt lat="39.896623" lon="15.993701">
        <ele>785.207813</ele>
        <time>2023-12-03T18:22:48.362Z</time>
      </trkpt>
      <trkpt lat="39.896574" lon="15.993648">
        <ele>785.536127</ele>
        <time>2023-12-03T18:22:50.014Z</time>
      </trkpt>
      <trkpt lat="39.896508" lon="15.993432">
        <ele>786.455861</ele>
        <time>2023-12-03T18:22:54.801Z</time>
      </trkpt>
      <trkpt lat="39.896456" lon="15.993348">
        <ele>786.882833</ele>
        <time>2023-12-03T18:22:57.133Z</time>
      </trkpt>
      <trkpt lat="39.896119" lon="15.993037">
        <ele>789.196068</ele>
        <time>2023-12-03T18:23:11.175Z</time>
      </trkpt>
      <trkpt lat="39.895206" lon="15.992631">
        <ele>794.667781</ele>
        <time>2023-12-03T18:23:47.256Z</time>
      </trkpt>
      <trkpt lat="39.894545" lon="15.992470">
        <ele>798.774888</ele>
        <time>2023-12-03T18:24:15.278Z</time>
      </trkpt>
      <trkpt lat="39.894423" lon="15.992498">
        <ele>799.663207</ele>
        <time>2023-12-03T18:24:21.162Z</time>
      </trkpt>
      <trkpt lat="39.894156" lon="15.992400">
        <ele>801.652328</ele>
        <time>2023-12-03T18:24:33.387Z</time>
      </trkpt>
      <trkpt lat="39.893774" lon="15.992302">
        <ele>804.444202</ele>
        <time>2023-12-03T18:24:50.306Z</time>
      </trkpt>
      <trkpt lat="39.893577" lon="15.992296">
        <ele>805.857271</ele>
        <time>2023-12-03T18:24:58.965Z</time>
      </trkpt>
      <trkpt lat="39.892851" lon="15.992243">
        <ele>811.048287</ele>
        <time>2023-12-03T18:25:30.111Z</time>
      </trkpt>
      <trkpt lat="39.892724" lon="15.992194">
        <ele>811.970437</ele>
        <time>2023-12-03T18:25:35.924Z</time>
      </trkpt>
      <trkpt lat="39.892060" lon="15.991801">
        <ele>817.047800</ele>
        <time>2023-12-03T18:26:11.430Z</time>
      </trkpt>
      <trkpt lat="39.891884" lon="15.991767">
        <ele>818.286565</ele>
        <time>2023-12-03T18:26:19.187Z</time>
      </trkpt>
      <trkpt lat="39.891765" lon="15.991781">
        <ele>819.118456</ele>
        <time>2023-12-03T18:26:24.562Z</time>
      </trkpt>
      <trkpt lat="39.891558" lon="15.991883">
        <ele>820.659230</ele>
        <time>2023-12-03T18:26:33.343Z</time>
      </trkpt>
      <trkpt lat="39.891509" lon="15.991875">
        <ele>821.003053</ele>
        <time>2023-12-03T18:26:35.244Z</time>
      </trkpt>
      <trkpt lat="39.891434" lon="15.991775">
        <ele>821.750070</ele>
        <time>2023-12-03T18:26:40.078Z</time>
      </trkpt>
      <trkpt lat="39.891424" lon="15.991665">
        <ele>822.341796</ele>
        <time>2023-12-03T18:26:43.566Z</time>
      </trkpt>
      <trkpt lat="39.891460" lon="15.991390">
        <ele>823.341816</ele>
        <time>2023-12-03T18:26:51.671Z</time>
      </trkpt>
      <trkpt lat="39.891532" lon="15.991212">
        <ele>823.908973</ele>
        <time>2023-12-03T18:26:57.504Z</time>
      </trkpt>
      <trkpt lat="39.891600" lon="15.990936">
        <ele>824.726022</ele>
        <time>2023-12-03T18:27:05.351Z</time>
      </trkpt>
      <trkpt lat="39.891657" lon="15.990576">
        <ele>825.762086</ele>
        <time>2023-12-03T18:27:14.822Z</time>
      </trkpt>
      <trkpt lat="39.891645" lon="15.990225">
        <ele>826.752385</ele>
        <time>2023-12-03T18:27:24.126Z</time>
      </trkpt>
      <trkpt lat="39.891598" lon="15.989926">
        <ele>827.612641</ele>
        <time>2023-12-03T18:27:32.044Z</time>
      </trkpt>
      <trkpt lat="39.891497" lon="15.989645">
        <ele>828.487259</ele>
        <time>2023-12-03T18:27:39.733Z</time>
      </trkpt>
      <trkpt lat="39.891306" lon="15.989365">
        <ele>829.394791</ele>
        <time>2023-12-03T18:27:49.456Z</time>
      </trkpt>
      <trkpt lat="39.891098" lon="15.989239">
        <ele>829.354094</ele>
        <time>2023-12-03T18:27:56.445Z</time>
      </trkpt>
      <trkpt lat="39.890888" lon="15.989163">
        <ele>829.315424</ele>
        <time>2023-12-03T18:28:03.040Z</time>
      </trkpt>
      <trkpt lat="39.890716" lon="15.989148">
        <ele>829.284837</ele>
        <time>2023-12-03T18:28:07.079Z</time>
      </trkpt>
      <trkpt lat="39.890040" lon="15.989297">
        <ele>829.163191</ele>
        <time>2023-12-03T18:28:19.088Z</time>
      </trkpt>
      <trkpt lat="39.889882" lon="15.989291">
        <ele>829.135145</ele>
        <time>2023-12-03T18:28:21.440Z</time>
      </trkpt>
      <trkpt lat="39.889720" lon="15.989176">
        <ele>829.102414</ele>
        <time>2023-12-03T18:28:24.061Z</time>
      </trkpt>
      <trkpt lat="39.889620" lon="15.989062">
        <ele>829.041414</ele>
        <time>2023-12-03T18:28:26.041Z</time>
      </trkpt>
      <trkpt lat="39.889542" lon="15.988857">
        <ele>828.691359</ele>
        <time>2023-12-03T18:28:28.711Z</time>
      </trkpt>
      <trkpt lat="39.889536" lon="15.988679">
        <ele>828.418788</ele>
        <time>2023-12-03T18:28:30.812Z</time>
      </trkpt>
      <trkpt lat="39.889567" lon="15.988482">
        <ele>828.111141</ele>
        <time>2023-12-03T18:28:33.314Z</time>
      </trkpt>
      <trkpt lat="39.889628" lon="15.988298">
        <ele>827.804504</ele>
        <time>2023-12-03T18:28:35.768Z</time>
      </trkpt>
      <trkpt lat="39.889746" lon="15.988025">
        <ele>827.325155</ele>
        <time>2023-12-03T18:28:39.624Z</time>
      </trkpt>
      <trkpt lat="39.889943" lon="15.987720">
        <ele>826.715249</ele>
        <time>2023-12-03T18:28:44.262Z</time>
      </trkpt>
      <trkpt lat="39.890009" lon="15.987498">
        <ele>826.351029</ele>
        <time>2023-12-03T18:28:46.897Z</time>
      </trkpt>
      <trkpt lat="39.890020" lon="15.987322">
        <ele>826.080891</ele>
        <time>2023-12-03T18:28:48.805Z</time>
      </trkpt>
      <trkpt lat="39.889948" lon="15.986834">
        <ele>825.918027</ele>
        <time>2023-12-03T18:28:54.792Z</time>
      </trkpt>
      <trkpt lat="39.889880" lon="15.986748">
        <ele>826.371525</ele>
        <time>2023-12-03T18:28:56.700Z</time>
      </trkpt>
      <trkpt lat="39.889617" lon="15.986602">
        <ele>827.739698</ele>
        <time>2023-12-03T18:29:03.846Z</time>
      </trkpt>
      <trkpt lat="39.889507" lon="15.986590">
        <ele>828.268010</ele>
        <time>2023-12-03T18:29:07.542Z</time>
      </trkpt>
      <trkpt lat="39.889258" lon="15.986656">
        <ele>829.484145</ele>
        <time>2023-12-03T18:29:17.029Z</time>
      </trkpt>
      <trkpt lat="39.889125" lon="15.986637">
        <ele>830.124509</ele>
        <time>2023-12-03T18:29:23.546Z</time>
      </trkpt>
      <trkpt lat="39.888834" lon="15.986709">
        <ele>831.542140</ele>
        <time>2023-12-03T18:29:39.149Z</time>
      </trkpt>
      <trkpt lat="39.888844" lon="15.986852">
        <ele>832.069460</ele>
        <time>2023-12-03T18:29:45.500Z</time>
      </trkpt>
      <trkpt lat="39.888794" lon="15.986993">
        <ele>832.639882</ele>
        <time>2023-12-03T18:29:52.128Z</time>
      </trkpt>
      <trkpt lat="39.888516" lon="15.987093">
        <ele>834.020167</ele>
        <time>2023-12-03T18:30:07.775Z</time>
      </trkpt>
      <trkpt lat="39.888242" lon="15.987264">
        <ele>836.011627</ele>
        <time>2023-12-03T18:30:23.612Z</time>
      </trkpt>
      <trkpt lat="39.888128" lon="15.987302">
        <ele>836.795854</ele>
        <time>2023-12-03T18:30:29.673Z</time>
      </trkpt>
      <trkpt lat="39.887804" lon="15.987239">
        <ele>838.979102</ele>
        <time>2023-12-03T18:30:45.707Z</time>
      </trkpt>
      <trkpt lat="39.887349" lon="15.987288">
        <ele>842.021853</ele>
        <time>2023-12-03T18:31:07.906Z</time>
      </trkpt>
      <trkpt lat="39.887190" lon="15.987261">
        <ele>843.090489</ele>
        <time>2023-12-03T18:31:15.344Z</time>
      </trkpt>
      <trkpt lat="39.886991" lon="15.987090">
        <ele>844.679097</ele>
        <time>2023-12-03T18:31:26.047Z</time>
      </trkpt>
      <trkpt lat="39.886797" lon="15.987006">
        <ele>846.041531</ele>
        <time>2023-12-03T18:31:34.701Z</time>
      </trkpt>
      <trkpt lat="39.886191" lon="15.987081">
        <ele>846.955631</ele>
        <time>2023-12-03T18:31:55.399Z</time>
      </trkpt>
      <trkpt lat="39.885491" lon="15.987049">
        <ele>847.961748</ele>
        <time>2023-12-03T18:32:11.320Z</time>
      </trkpt>
      <trkpt lat="39.885162" lon="15.987167">
        <ele>848.451902</ele>
        <time>2023-12-03T18:32:17.822Z</time>
      </trkpt>
      <trkpt lat="39.884653" lon="15.987246">
        <ele>847.324566</ele>
        <time>2023-12-03T18:32:26.410Z</time>
      </trkpt>
      <trkpt lat="39.884503" lon="15.987296">
        <ele>846.738143</ele>
        <time>2023-12-03T18:32:28.920Z</time>
      </trkpt>
      <trkpt lat="39.884340" lon="15.987426">
        <ele>846.014334</ele>
        <time>2023-12-03T18:32:31.673Z</time>
      </trkpt>
      <trkpt lat="39.884167" lon="15.987616">
        <ele>845.157431</ele>
        <time>2023-12-03T18:32:34.917Z</time>
      </trkpt>
      <trkpt lat="39.883505" lon="15.988174">
        <ele>842.171304</ele>
        <time>2023-12-03T18:32:45.286Z</time>
      </trkpt>
      <trkpt lat="39.883125" lon="15.988318">
        <ele>841.880540</ele>
        <time>2023-12-03T18:32:50.469Z</time>
      </trkpt>
      <trkpt lat="39.882797" lon="15.988713">
        <ele>841.905024</ele>
        <time>2023-12-03T18:32:56.932Z</time>
      </trkpt>
      <trkpt lat="39.882575" lon="15.989300">
        <ele>841.932554</ele>
        <time>2023-12-03T18:33:07.444Z</time>
      </trkpt>
      <trkpt lat="39.882467" lon="15.989690">
        <ele>841.949996</ele>
        <time>2023-12-03T18:33:18.514Z</time>
      </trkpt>
      <trkpt lat="39.882431" lon="15.989807">
        <ele>841.955299</ele>
        <time>2023-12-03T18:33:21.919Z</time>
      </trkpt>
      <trkpt lat="39.882412" lon="15.990088">
        <ele>842.903342</ele>
        <time>2023-12-03T18:33:31.214Z</time>
      </trkpt>
      <trkpt lat="39.882441" lon="15.990288">
        <ele>844.436383</ele>
        <time>2023-12-03T18:33:38.867Z</time>
      </trkpt>
      <trkpt lat="39.882530" lon="15.990377">
        <ele>845.537506</ele>
        <time>2023-12-03T18:33:45.289Z</time>
      </trkpt>
      <trkpt lat="39.882838" lon="15.990580">
        <ele>848.925285</ele>
        <time>2023-12-03T18:34:05.495Z</time>
      </trkpt>
      <trkpt lat="39.882944" lon="15.990692">
        <ele>850.264724</ele>
        <time>2023-12-03T18:34:13.797Z</time>
      </trkpt>
      <trkpt lat="39.883014" lon="15.990831">
        <ele>851.516973</ele>
        <time>2023-12-03T18:34:21.279Z</time>
      </trkpt>
      <trkpt lat="39.883049" lon="15.991000">
        <ele>852.835400</ele>
        <time>2023-12-03T18:34:29.521Z</time>
      </trkpt>
      <trkpt lat="39.882976" lon="15.992034">
        <ele>860.016276</ele>
        <time>2023-12-03T18:35:17.226Z</time>
      </trkpt>
      <trkpt lat="39.882884" lon="15.992130">
        <ele>860.461276</ele>
        <time>2023-12-03T18:35:23.654Z</time>
      </trkpt>
      <trkpt lat="39.882543" lon="15.992121">
        <ele>861.749057</ele>
        <time>2023-12-03T18:35:41.538Z</time>
      </trkpt>
      <trkpt lat="39.882103" lon="15.992007">
        <ele>863.442884</ele>
        <time>2023-12-03T18:35:58.354Z</time>
      </trkpt>
      <trkpt lat="39.881940" lon="15.992017">
        <ele>864.059006</ele>
        <time>2023-12-03T18:36:02.812Z</time>
      </trkpt>
      <trkpt lat="39.881847" lon="15.992064">
        <ele>864.435628</ele>
        <time>2023-12-03T18:36:04.869Z</time>
      </trkpt>
      <trkpt lat="39.881798" lon="15.992135">
        <ele>864.712298</ele>
        <time>2023-12-03T18:36:05.690Z</time>
      </trkpt>
      <trkpt lat="39.881787" lon="15.992236">
        <ele>865.007864</ele>
        <time>2023-12-03T18:36:06.587Z</time>
      </trkpt>
      <trkpt lat="39.881871" lon="15.992559">
        <ele>865.995993</ele>
        <time>2023-12-03T18:36:09.454Z</time>
      </trkpt>
      <trkpt lat="39.881874" lon="15.992688">
        <ele>866.369924</ele>
        <time>2023-12-03T18:36:10.372Z</time>
      </trkpt>
      <trkpt lat="39.881796" lon="15.992843">
        <ele>865.540863</ele>
        <time>2023-12-03T18:36:11.741Z</time>
      </trkpt>
      <trkpt lat="39.881444" lon="15.993090">
        <ele>862.922916</ele>
        <time>2023-12-03T18:36:15.354Z</time>
      </trkpt>
      <trkpt lat="39.881327" lon="15.993144">
        <ele>862.110125</ele>
        <time>2023-12-03T18:36:16.438Z</time>
      </trkpt>
      <trkpt lat="39.881152" lon="15.993247">
        <ele>860.852701</ele>
        <time>2023-12-03T18:36:18.153Z</time>
      </trkpt>
      <trkpt lat="39.880924" lon="15.993444">
        <ele>859.061305</ele>
        <time>2023-12-03T18:36:20.549Z</time>
      </trkpt>
      <trkpt lat="39.880750" lon="15.993720">
        <ele>857.266365</ele>
        <time>2023-12-03T18:36:22.973Z</time>
      </trkpt>
      <trkpt lat="39.880317" lon="15.994494">
        <ele>853.235734</ele>
        <time>2023-12-03T18:36:29.599Z</time>
      </trkpt>
      <trkpt lat="39.880239" lon="15.994675">
        <ele>852.567746</ele>
        <time>2023-12-03T18:36:31.077Z</time>
      </trkpt>
      <trkpt lat="39.880197" lon="15.995028">
        <ele>851.418266</ele>
        <time>2023-12-03T18:36:33.735Z</time>
      </trkpt>
      <trkpt lat="39.880214" lon="15.995299">
        <ele>850.543314</ele>
        <time>2023-12-03T18:36:35.793Z</time>
      </trkpt>
      <trkpt lat="39.880315" lon="15.995577">
        <ele>849.553555</ele>
        <time>2023-12-03T18:36:38.096Z</time>
      </trkpt>
      <trkpt lat="39.880742" lon="15.996322">
        <ele>847.092575</ele>
        <time>2023-12-03T18:36:45.356Z</time>
      </trkpt>
      <trkpt lat="39.880737" lon="15.996433">
        <ele>847.096382</ele>
        <time>2023-12-03T18:36:46.431Z</time>
      </trkpt>
      <trkpt lat="39.880682" lon="15.996563">
        <ele>847.101464</ele>
        <time>2023-12-03T18:36:48.078Z</time>
      </trkpt>
      <trkpt lat="39.880413" lon="15.996778">
        <ele>847.115544</ele>
        <time>2023-12-03T18:36:53.808Z</time>
      </trkpt>
      <trkpt lat="39.880347" lon="15.996853">
        <ele>847.119451</ele>
        <time>2023-12-03T18:36:55.778Z</time>
      </trkpt>
      <trkpt lat="39.880293" lon="15.996964">
        <ele>847.123951</ele>
        <time>2023-12-03T18:36:57.907Z</time>
      </trkpt>
      <trkpt lat="39.880248" lon="15.997105">
        <ele>847.129180</ele>
        <time>2023-12-03T18:37:00.619Z</time>
      </trkpt>
      <trkpt lat="39.880207" lon="15.997464">
        <ele>847.141607</ele>
        <time>2023-12-03T18:37:06.530Z</time>
      </trkpt>
      <trkpt lat="39.880196" lon="15.997867">
        <ele>847.155414</ele>
        <time>2023-12-03T18:37:11.963Z</time>
      </trkpt>
      <trkpt lat="39.880214" lon="15.998167">
        <ele>847.165717</ele>
        <time>2023-12-03T18:37:15.022Z</time>
      </trkpt>
      <trkpt lat="39.880265" lon="15.998410">
        <ele>847.350495</ele>
        <time>2023-12-03T18:37:17.154Z</time>
      </trkpt>
      <trkpt lat="39.880742" lon="15.999351">
        <ele>848.345867</ele>
        <time>2023-12-03T18:37:30.197Z</time>
      </trkpt>
      <trkpt lat="39.880741" lon="15.999571">
        <ele>848.540043</ele>
        <time>2023-12-03T18:37:34.267Z</time>
      </trkpt>
      <trkpt lat="39.880578" lon="16.000071">
        <ele>849.019514</ele>
        <time>2023-12-03T18:37:46.022Z</time>
      </trkpt>
      <trkpt lat="39.880561" lon="16.000394">
        <ele>849.346781</ele>
        <time>2023-12-03T18:37:52.969Z</time>
      </trkpt>
      <trkpt lat="39.880925" lon="16.002855">
        <ele>852.322379</ele>
        <time>2023-12-03T18:38:35.068Z</time>
      </trkpt>
      <trkpt lat="39.880870" lon="16.003246">
        <ele>851.957633</ele>
        <time>2023-12-03T18:38:40.241Z</time>
      </trkpt>
      <trkpt lat="39.880805" lon="16.003395">
        <ele>851.800368</ele>
        <time>2023-12-03T18:38:42.315Z</time>
      </trkpt>
      <trkpt lat="39.880474" lon="16.004143">
        <ele>851.008087</ele>
        <time>2023-12-03T18:38:50.098Z</time>
      </trkpt>
      <trkpt lat="39.880435" lon="16.004325">
        <ele>850.834700</ele>
        <time>2023-12-03T18:38:51.623Z</time>
      </trkpt>
      <trkpt lat="39.880433" lon="16.004509">
        <ele>850.665849</ele>
        <time>2023-12-03T18:38:53.050Z</time>
      </trkpt>
      <trkpt lat="39.880579" lon="16.005326">
        <ele>849.111465</ele>
        <time>2023-12-03T18:38:59.263Z</time>
      </trkpt>
      <trkpt lat="39.880326" lon="16.006055">
        <ele>847.217531</ele>
        <time>2023-12-03T18:39:05.354Z</time>
      </trkpt>
      <trkpt lat="39.880311" lon="16.006237">
        <ele>846.784228</ele>
        <time>2023-12-03T18:39:06.977Z</time>
      </trkpt>
      <trkpt lat="39.880334" lon="16.006397">
        <ele>846.398894</ele>
        <time>2023-12-03T18:39:08.318Z</time>
      </trkpt>
      <trkpt lat="39.880422" lon="16.006642">
        <ele>845.758553</ele>
        <time>2023-12-03T18:39:10.692Z</time>
      </trkpt>
      <trkpt lat="39.880690" lon="16.007321">
        <ele>844.322193</ele>
        <time>2023-12-03T18:39:16.803Z</time>
      </trkpt>
      <trkpt lat="39.880776" lon="16.007415">
        <ele>844.119762</ele>
        <time>2023-12-03T18:39:17.989Z</time>
      </trkpt>
      <trkpt lat="39.880865" lon="16.007445">
        <ele>843.953973</ele>
        <time>2023-12-03T18:39:18.933Z</time>
      </trkpt>
      <trkpt lat="39.881285" lon="16.007426">
        <ele>843.196069</ele>
        <time>2023-12-03T18:39:23.541Z</time>
      </trkpt>
      <trkpt lat="39.881443" lon="16.007549">
        <ele>842.864152</ele>
        <time>2023-12-03T18:39:25.731Z</time>
      </trkpt>
      <trkpt lat="39.881630" lon="16.007796">
        <ele>842.383965</ele>
        <time>2023-12-03T18:39:28.994Z</time>
      </trkpt>
      <trkpt lat="39.881727" lon="16.008016">
        <ele>842.032827</ele>
        <time>2023-12-03T18:39:31.549Z</time>
      </trkpt>
      <trkpt lat="39.881857" lon="16.008445">
        <ele>841.365161</ele>
        <time>2023-12-03T18:39:35.746Z</time>
      </trkpt>
      <trkpt lat="39.881926" lon="16.008567">
        <ele>841.125571</ele>
        <time>2023-12-03T18:39:37.032Z</time>
      </trkpt>
      <trkpt lat="39.882172" lon="16.008759">
        <ele>840.534837</ele>
        <time>2023-12-03T18:39:40.134Z</time>
      </trkpt>
      <trkpt lat="39.882445" lon="16.008888">
        <ele>839.936592</ele>
        <time>2023-12-03T18:39:43.195Z</time>
      </trkpt>
      <trkpt lat="39.882583" lon="16.009033">
        <ele>839.571395</ele>
        <time>2023-12-03T18:39:45.049Z</time>
      </trkpt>
      <trkpt lat="39.882651" lon="16.009285">
        <ele>839.149106</ele>
        <time>2023-12-03T18:39:47.204Z</time>
      </trkpt>
      <trkpt lat="39.882680" lon="16.009549">
        <ele>838.727505</ele>
        <time>2023-12-03T18:39:49.422Z</time>
      </trkpt>
      <trkpt lat="39.882627" lon="16.009775">
        <ele>838.353920</ele>
        <time>2023-12-03T18:39:51.338Z</time>
      </trkpt>
      <trkpt lat="39.882554" lon="16.010014">
        <ele>837.947264</ele>
        <time>2023-12-03T18:39:53.540Z</time>
      </trkpt>
      <trkpt lat="39.882537" lon="16.010182">
        <ele>837.742320</ele>
        <time>2023-12-03T18:39:54.973Z</time>
      </trkpt>
      <trkpt lat="39.882627" lon="16.010648">
        <ele>837.204076</ele>
        <time>2023-12-03T18:39:59.156Z</time>
      </trkpt>
      <trkpt lat="39.882737" lon="16.010992">
        <ele>836.786646</ele>
        <time>2023-12-03T18:40:02.408Z</time>
      </trkpt>
      <trkpt lat="39.882856" lon="16.011319">
        <ele>836.381273</ele>
        <time>2023-12-03T18:40:05.571Z</time>
      </trkpt>
      <trkpt lat="39.882911" lon="16.011511">
        <ele>836.151719</ele>
        <time>2023-12-03T18:40:07.303Z</time>
      </trkpt>
      <trkpt lat="39.883034" lon="16.011771">
        <ele>835.809598</ele>
        <time>2023-12-03T18:40:10.076Z</time>
      </trkpt>
      <trkpt lat="39.883277" lon="16.012103">
        <ele>835.295691</ele>
        <time>2023-12-03T18:40:14.341Z</time>
      </trkpt>
      <trkpt lat="39.883309" lon="16.012337">
        <ele>835.301846</ele>
        <time>2023-12-03T18:40:16.638Z</time>
      </trkpt>
      <trkpt lat="39.883492" lon="16.013404">
        <ele>835.464650</ele>
        <time>2023-12-03T18:40:28.217Z</time>
      </trkpt>
      <trkpt lat="39.883532" lon="16.013657">
        <ele>835.503114</ele>
        <time>2023-12-03T18:40:31.504Z</time>
      </trkpt>
      <trkpt lat="39.883586" lon="16.013874">
        <ele>835.537084</ele>
        <time>2023-12-03T18:40:34.618Z</time>
      </trkpt>
      <trkpt lat="39.883865" lon="16.014695">
        <ele>836.450289</ele>
        <time>2023-12-03T18:40:48.516Z</time>
      </trkpt>
      <trkpt lat="39.884042" lon="16.015383">
        <ele>838.182077</ele>
        <time>2023-12-03T18:41:01.914Z</time>
      </trkpt>
      <trkpt lat="39.884448" lon="16.017702">
        <ele>846.118276</ele>
        <time>2023-12-03T18:41:59.818Z</time>
      </trkpt>
      <trkpt lat="39.884665" lon="16.019168">
        <ele>853.292913</ele>
        <time>2023-12-03T18:42:48.325Z</time>
      </trkpt>
      <trkpt lat="39.884737" lon="16.019408">
        <ele>855.001648</ele>
        <time>2023-12-03T18:42:57.976Z</time>
      </trkpt>
      <trkpt lat="39.884850" lon="16.019597">
        <ele>856.590414</ele>
        <time>2023-12-03T18:43:07.128Z</time>
      </trkpt>
      <trkpt lat="39.885046" lon="16.019767">
        <ele>858.624983</ele>
        <time>2023-12-03T18:43:19.262Z</time>
      </trkpt>
      <trkpt lat="39.885196" lon="16.019957">
        <ele>860.432606</ele>
        <time>2023-12-03T18:43:30.364Z</time>
      </trkpt>
      <trkpt lat="39.885671" lon="16.021028">
        <ele>868.311436</ele>
        <time>2023-12-03T18:44:20.166Z</time>
      </trkpt>
      <trkpt lat="39.885784" lon="16.021389">
        <ele>870.341461</ele>
        <time>2023-12-03T18:44:34.017Z</time>
      </trkpt>
      <trkpt lat="39.885818" lon="16.021607">
        <ele>871.499744</ele>
        <time>2023-12-03T18:44:41.077Z</time>
      </trkpt>
      <trkpt lat="39.885835" lon="16.021833">
        <ele>872.682113</ele>
        <time>2023-12-03T18:44:48.468Z</time>
      </trkpt>
      <trkpt lat="39.885784" lon="16.022163">
        <ele>874.434849</ele>
        <time>2023-12-03T18:44:58.607Z</time>
      </trkpt>
      <trkpt lat="39.885659" lon="16.022768">
        <ele>877.697140</ele>
        <time>2023-12-03T18:45:17.482Z</time>
      </trkpt>
      <trkpt lat="39.885635" lon="16.023130">
        <ele>879.461957</ele>
        <time>2023-12-03T18:45:28.035Z</time>
      </trkpt>
      <trkpt lat="39.885664" lon="16.023403">
        <ele>880.186073</ele>
        <time>2023-12-03T18:45:35.422Z</time>
      </trkpt>
      <trkpt lat="39.885837" lon="16.023954">
        <ele>881.750261</ele>
        <time>2023-12-03T18:45:49.641Z</time>
      </trkpt>
      <trkpt lat="39.886019" lon="16.024320">
        <ele>882.896151</ele>
        <time>2023-12-03T18:45:58.130Z</time>
      </trkpt>
      <trkpt lat="39.886299" lon="16.025092">
        <ele>885.139647</ele>
        <time>2023-12-03T18:46:14.752Z</time>
      </trkpt>
      <trkpt lat="39.886695" lon="16.026144">
        <ele>885.132559</ele>
        <time>2023-12-03T18:46:35.387Z</time>
      </trkpt>
      <trkpt lat="39.886914" lon="16.026637">
        <ele>884.935716</ele>
        <time>2023-12-03T18:46:40.571Z</time>
      </trkpt>
      <trkpt lat="39.886975" lon="16.026868">
        <ele>884.851300</ele>
        <time>2023-12-03T18:46:42.530Z</time>
      </trkpt>
      <trkpt lat="39.887003" lon="16.027125">
        <ele>884.761604</ele>
        <time>2023-12-03T18:46:44.512Z</time>
      </trkpt>
      <trkpt lat="39.886984" lon="16.027339">
        <ele>884.687164</ele>
        <time>2023-12-03T18:46:46.131Z</time>
      </trkpt>
      <trkpt lat="39.886811" lon="16.028108">
        <ele>883.632702</ele>
        <time>2023-12-03T18:46:52.201Z</time>
      </trkpt>
      <trkpt lat="39.886818" lon="16.028261">
        <ele>883.427768</ele>
        <time>2023-12-03T18:46:53.418Z</time>
      </trkpt>
      <trkpt lat="39.887108" lon="16.029352">
        <ele>881.883991</ele>
        <time>2023-12-03T18:47:03.602Z</time>
      </trkpt>
      <trkpt lat="39.887119" lon="16.029481">
        <ele>881.710449</ele>
        <time>2023-12-03T18:47:05.210Z</time>
      </trkpt>
      <trkpt lat="39.887082" lon="16.029852">
        <ele>881.990336</ele>
        <time>2023-12-03T18:47:10.470Z</time>
      </trkpt>
      <trkpt lat="39.887110" lon="16.030019">
        <ele>882.291123</ele>
        <time>2023-12-03T18:47:13.414Z</time>
      </trkpt>
      <trkpt lat="39.887333" lon="16.030718">
        <ele>883.623157</ele>
        <time>2023-12-03T18:47:28.800Z</time>
      </trkpt>
      <trkpt lat="39.887368" lon="16.030900">
        <ele>883.953309</ele>
        <time>2023-12-03T18:47:32.894Z</time>
      </trkpt>
      <trkpt lat="39.887366" lon="16.031170">
        <ele>884.428422</ele>
        <time>2023-12-03T18:47:38.718Z</time>
      </trkpt>
      <trkpt lat="39.887326" lon="16.031430">
        <ele>884.895022</ele>
        <time>2023-12-03T18:47:44.456Z</time>
      </trkpt>
      <trkpt lat="39.887179" lon="16.032567">
        <ele>886.529368</ele>
        <time>2023-12-03T18:48:06.767Z</time>
      </trkpt>
      <trkpt lat="39.887090" lon="16.032676">
        <ele>886.721198</ele>
        <time>2023-12-03T18:48:09.376Z</time>
      </trkpt>
      <trkpt lat="39.886926" lon="16.032764">
        <ele>886.999770</ele>
        <time>2023-12-03T18:48:12.960Z</time>
      </trkpt>
      <trkpt lat="39.886719" lon="16.032989">
        <ele>887.423144</ele>
        <time>2023-12-03T18:48:17.384Z</time>
      </trkpt>
      <trkpt lat="39.886587" lon="16.033225">
        <ele>887.775119</ele>
        <time>2023-12-03T18:48:20.815Z</time>
      </trkpt>
      <trkpt lat="39.886553" lon="16.033420">
        <ele>888.016126</ele>
        <time>2023-12-03T18:48:23.180Z</time>
      </trkpt>
      <trkpt lat="39.886584" lon="16.033600">
        <ele>888.238462</ele>
        <time>2023-12-03T18:48:25.479Z</time>
      </trkpt>
      <trkpt lat="39.886749" lon="16.034143">
        <ele>889.782789</ele>
        <time>2023-12-03T18:48:33.918Z</time>
      </trkpt>
      <trkpt lat="39.887257" lon="16.035254">
        <ele>894.281971</ele>
        <time>2023-12-03T18:49:05.779Z</time>
      </trkpt>
      <trkpt lat="39.887333" lon="16.035476">
        <ele>895.127648</ele>
        <time>2023-12-03T18:49:13.917Z</time>
      </trkpt>
      <trkpt lat="39.887409" lon="16.035801">
        <ele>896.309601</ele>
        <time>2023-12-03T18:49:25.440Z</time>
      </trkpt>
      <trkpt lat="39.887516" lon="16.036477">
        <ele>899.363087</ele>
        <time>2023-12-03T18:49:50.044Z</time>
      </trkpt>
      <trkpt lat="39.887652" lon="16.036936">
        <ele>901.616964</ele>
        <time>2023-12-03T18:50:07.489Z</time>
      </trkpt>
      <trkpt lat="39.887638" lon="16.037146">
        <ele>902.582544</ele>
        <time>2023-12-03T18:50:14.808Z</time>
      </trkpt>
      <trkpt lat="39.887521" lon="16.037499">
        <ele>904.343957</ele>
        <time>2023-12-03T18:50:27.415Z</time>
      </trkpt>
      <trkpt lat="39.887498" lon="16.037650">
        <ele>905.049147</ele>
        <time>2023-12-03T18:50:31.753Z</time>
      </trkpt>
      <trkpt lat="39.887462" lon="16.038495">
        <ele>907.609623</ele>
        <time>2023-12-03T18:50:47.799Z</time>
      </trkpt>
      <trkpt lat="39.887360" lon="16.038976">
        <ele>907.937439</ele>
        <time>2023-12-03T18:50:54.774Z</time>
      </trkpt>
      <trkpt lat="39.887352" lon="16.039175">
        <ele>908.068343</ele>
        <time>2023-12-03T18:50:56.995Z</time>
      </trkpt>
      <trkpt lat="39.887423" lon="16.039342">
        <ele>908.193760</ele>
        <time>2023-12-03T18:50:59.994Z</time>
      </trkpt>
      <trkpt lat="39.887581" lon="16.039438">
        <ele>908.343005</ele>
        <time>2023-12-03T18:51:02.354Z</time>
      </trkpt>
      <trkpt lat="39.887925" lon="16.039520">
        <ele>908.642395</ele>
        <time>2023-12-03T18:51:07.727Z</time>
      </trkpt>
      <trkpt lat="39.888246" lon="16.039567">
        <ele>908.918938</ele>
        <time>2023-12-03T18:51:12.435Z</time>
      </trkpt>
      <trkpt lat="39.888422" lon="16.039637">
        <ele>909.134908</ele>
        <time>2023-12-03T18:51:15.051Z</time>
      </trkpt>
      <trkpt lat="39.888598" lon="16.039844">
        <ele>909.418355</ele>
        <time>2023-12-03T18:51:18.075Z</time>
      </trkpt>
      <trkpt lat="39.888628" lon="16.039969">
        <ele>909.538507</ele>
        <time>2023-12-03T18:51:19.697Z</time>
      </trkpt>
      <trkpt lat="39.888638" lon="16.040060">
        <ele>909.622842</ele>
        <time>2023-12-03T18:51:20.854Z</time>
      </trkpt>
      <trkpt lat="39.888599" lon="16.040263">
        <ele>909.814820</ele>
        <time>2023-12-03T18:51:22.914Z</time>
      </trkpt>
      <trkpt lat="39.888396" lon="16.040597">
        <ele>910.205709</ele>
        <time>2023-12-03T18:51:28.536Z</time>
      </trkpt>
      <trkpt lat="39.887752" lon="16.041541">
        <ele>911.653967</ele>
        <time>2023-12-03T18:51:54.636Z</time>
      </trkpt>
      <trkpt lat="39.885701" lon="16.045105">
        <ele>919.726457</ele>
        <time>2023-12-03T18:53:16.112Z</time>
      </trkpt>
      <trkpt lat="39.885388" lon="16.045793">
        <ele>921.134318</ele>
        <time>2023-12-03T18:53:32.505Z</time>
      </trkpt>
      <trkpt lat="39.884786" lon="16.046855">
        <ele>923.458415</ele>
        <time>2023-12-03T18:53:56.837Z</time>
      </trkpt>
      <trkpt lat="39.884584" lon="16.047152">
        <ele>923.970498</ele>
        <time>2023-12-03T18:54:03.220Z</time>
      </trkpt>
      <trkpt lat="39.884434" lon="16.047305">
        <ele>924.222578</ele>
        <time>2023-12-03T18:54:06.939Z</time>
      </trkpt>
      <trkpt lat="39.883955" lon="16.047566">
        <ele>924.909655</ele>
        <time>2023-12-03T18:54:17.312Z</time>
      </trkpt>
      <trkpt lat="39.883570" lon="16.047853">
        <ele>925.496623</ele>
        <time>2023-12-03T18:54:26.006Z</time>
      </trkpt>
      <trkpt lat="39.883053" lon="16.048261">
        <ele>926.318588</ele>
        <time>2023-12-03T18:54:37.741Z</time>
      </trkpt>
      <trkpt lat="39.882889" lon="16.048428">
        <ele>926.624466</ele>
        <time>2023-12-03T18:54:41.529Z</time>
      </trkpt>
      <trkpt lat="39.882794" lon="16.048637">
        <ele>926.898413</ele>
        <time>2023-12-03T18:54:45.025Z</time>
      </trkpt>
      <trkpt lat="39.882737" lon="16.048969">
        <ele>927.282083</ele>
        <time>2023-12-03T18:54:49.855Z</time>
      </trkpt>
      <trkpt lat="39.882672" lon="16.049998">
        <ele>928.446463</ele>
        <time>2023-12-03T18:55:06.987Z</time>
      </trkpt>
      <trkpt lat="39.882626" lon="16.050352">
        <ele>928.888019</ele>
        <time>2023-12-03T18:55:13.543Z</time>
      </trkpt>
      <trkpt lat="39.882579" lon="16.050704">
        <ele>929.423386</ele>
        <time>2023-12-03T18:55:20.014Z</time>
      </trkpt>
      <trkpt lat="39.882487" lon="16.051025">
        <ele>929.936830</ele>
        <time>2023-12-03T18:55:26.149Z</time>
      </trkpt>
      <trkpt lat="39.882337" lon="16.051380">
        <ele>930.544078</ele>
        <time>2023-12-03T18:55:33.243Z</time>
      </trkpt>
      <trkpt lat="39.882128" lon="16.051654">
        <ele>931.122973</ele>
        <time>2023-12-03T18:55:39.910Z</time>
      </trkpt>
      <trkpt lat="39.881877" lon="16.051874">
        <ele>931.713645</ele>
        <time>2023-12-03T18:55:46.482Z</time>
      </trkpt>
      <trkpt lat="39.881685" lon="16.051984">
        <ele>932.123193</ele>
        <time>2023-12-03T18:55:51.167Z</time>
      </trkpt>
      <trkpt lat="39.880424" lon="16.052567">
        <ele>934.729274</ele>
        <time>2023-12-03T18:56:21.410Z</time>
      </trkpt>
      <trkpt lat="39.880257" lon="16.052676">
        <ele>935.093016</ele>
        <time>2023-12-03T18:56:25.641Z</time>
      </trkpt>
      <trkpt lat="39.879948" lon="16.052996">
        <ele>935.868506</ele>
        <time>2023-12-03T18:56:34.722Z</time>
      </trkpt>
      <trkpt lat="39.879815" lon="16.053201">
        <ele>936.295364</ele>
        <time>2023-12-03T18:56:39.467Z</time>
      </trkpt>
      <trkpt lat="39.879126" lon="16.054416">
        <ele>938.697631</ele>
        <time>2023-12-03T18:57:05.120Z</time>
      </trkpt>
      <trkpt lat="39.877787" lon="16.056687">
        <ele>944.580467</ele>
        <time>2023-12-03T18:58:01.149Z</time>
      </trkpt>
      <trkpt lat="39.877719" lon="16.056854">
        <ele>945.130958</ele>
        <time>2023-12-03T18:58:05.457Z</time>
      </trkpt>
      <trkpt lat="39.877689" lon="16.057026">
        <ele>945.644569</ele>
        <time>2023-12-03T18:58:09.553Z</time>
      </trkpt>
      <trkpt lat="39.877696" lon="16.057162">
        <ele>946.041471</ele>
        <time>2023-12-03T18:58:12.746Z</time>
      </trkpt>
      <trkpt lat="39.877900" lon="16.058224">
        <ele>949.229259</ele>
        <time>2023-12-03T18:58:38.592Z</time>
      </trkpt>
      <trkpt lat="39.877793" lon="16.058503">
        <ele>950.137464</ele>
        <time>2023-12-03T18:58:46.156Z</time>
      </trkpt>
      <trkpt lat="39.877583" lon="16.058811">
        <ele>951.336801</ele>
        <time>2023-12-03T18:58:56.208Z</time>
      </trkpt>
      <trkpt lat="39.876319" lon="16.060771">
        <ele>958.560080</ele>
        <time>2023-12-03T18:59:53.584Z</time>
      </trkpt>
      <trkpt lat="39.876227" lon="16.061001">
        <ele>959.315102</ele>
        <time>2023-12-03T18:59:59.358Z</time>
      </trkpt>
      <trkpt lat="39.876115" lon="16.064126">
        <ele>967.975295</ele>
        <time>2023-12-03T19:01:12.278Z</time>
      </trkpt>
      <trkpt lat="39.876064" lon="16.064396">
        <ele>968.686475</ele>
        <time>2023-12-03T19:01:18.311Z</time>
      </trkpt>
      <trkpt lat="39.875996" lon="16.064580">
        <ele>969.208810</ele>
        <time>2023-12-03T19:01:22.468Z</time>
      </trkpt>
      <trkpt lat="39.875901" lon="16.064730">
        <ele>969.706234</ele>
        <time>2023-12-03T19:01:26.362Z</time>
      </trkpt>
      <trkpt lat="39.875485" lon="16.065144">
        <ele>971.066092</ele>
        <time>2023-12-03T19:01:38.984Z</time>
      </trkpt>
      <trkpt lat="39.875006" lon="16.065654">
        <ele>972.017031</ele>
        <time>2023-12-03T19:01:52.867Z</time>
      </trkpt>
      <trkpt lat="39.874832" lon="16.065845">
        <ele>972.366791</ele>
        <time>2023-12-03T19:01:57.672Z</time>
      </trkpt>
      <trkpt lat="39.874696" lon="16.065994">
        <ele>972.639948</ele>
        <time>2023-12-03T19:02:01.306Z</time>
      </trkpt>
      <trkpt lat="39.874384" lon="16.066330">
        <ele>973.262204</ele>
        <time>2023-12-03T19:02:09.256Z</time>
      </trkpt>
      <trkpt lat="39.873326" lon="16.067393">
        <ele>973.476704</ele>
        <time>2023-12-03T19:02:30.671Z</time>
      </trkpt>
      <trkpt lat="39.872286" lon="16.068213">
        <ele>972.952991</ele>
        <time>2023-12-03T19:02:45.896Z</time>
      </trkpt>
      <trkpt lat="39.872118" lon="16.068384">
        <ele>972.770702</ele>
        <time>2023-12-03T19:02:48.439Z</time>
      </trkpt>
      <trkpt lat="39.871392" lon="16.069480">
        <ele>971.867057</ele>
        <time>2023-12-03T19:03:02.166Z</time>
      </trkpt>
      <trkpt lat="39.871222" lon="16.069729">
        <ele>971.745146</ele>
        <time>2023-12-03T19:03:05.630Z</time>
      </trkpt>
      <trkpt lat="39.871030" lon="16.070008">
        <ele>971.608065</ele>
        <time>2023-12-03T19:03:09.447Z</time>
      </trkpt>
      <trkpt lat="39.870079" lon="16.071033">
        <ele>970.991430</ele>
        <time>2023-12-03T19:03:26.289Z</time>
      </trkpt>
      <trkpt lat="39.869983" lon="16.071136">
        <ele>970.897471</ele>
        <time>2023-12-03T19:03:27.962Z</time>
      </trkpt>
      <trkpt lat="39.869868" lon="16.071258">
        <ele>970.785424</ele>
        <time>2023-12-03T19:03:29.904Z</time>
      </trkpt>
      <trkpt lat="39.869658" lon="16.071626">
        <ele>970.519505</ele>
        <time>2023-12-03T19:03:34.394Z</time>
      </trkpt>
      <trkpt lat="39.869163" lon="16.072497">
        <ele>969.891032</ele>
        <time>2023-12-03T19:03:44.567Z</time>
      </trkpt>
      <trkpt lat="39.868748" lon="16.073303">
        <ele>969.932832</ele>
        <time>2023-12-03T19:03:53.997Z</time>
      </trkpt>
      <trkpt lat="39.868713" lon="16.073372">
        <ele>969.960959</ele>
        <time>2023-12-03T19:03:54.851Z</time>
      </trkpt>
      <trkpt lat="39.868284" lon="16.074167">
        <ele>970.291460</ele>
        <time>2023-12-03T19:04:06.789Z</time>
      </trkpt>
      <trkpt lat="39.867506" lon="16.075606">
        <ele>973.024919</ele>
        <time>2023-12-03T19:04:37.193Z</time>
      </trkpt>
      <trkpt lat="39.867149" lon="16.076134">
        <ele>974.595414</ele>
        <time>2023-12-03T19:04:52.949Z</time>
      </trkpt>
      <trkpt lat="39.864313" lon="16.079877">
        <ele>990.883449</ele>
        <time>2023-12-03T19:07:01.893Z</time>
      </trkpt>
      <trkpt lat="39.863908" lon="16.080558">
        <ele>992.430039</ele>
        <time>2023-12-03T19:07:18.930Z</time>
      </trkpt>
      <trkpt lat="39.863391" lon="16.081739">
        <ele>994.870823</ele>
        <time>2023-12-03T19:07:42.196Z</time>
      </trkpt>
      <trkpt lat="39.863250" lon="16.082364">
        <ele>995.761118</ele>
        <time>2023-12-03T19:07:52.469Z</time>
      </trkpt>
      <trkpt lat="39.863161" lon="16.083008">
        <ele>996.626553</ele>
        <time>2023-12-03T19:08:02.795Z</time>
      </trkpt>
      <trkpt lat="39.863086" lon="16.084906">
        <ele>999.290324</ele>
        <time>2023-12-03T19:08:35.695Z</time>
      </trkpt>
      <trkpt lat="39.863040" lon="16.085146">
        <ele>999.663798</ele>
        <time>2023-12-03T19:08:40.244Z</time>
      </trkpt>
      <trkpt lat="39.862935" lon="16.085485">
        <ele>1000.215716</ele>
        <time>2023-12-03T19:08:46.962Z</time>
      </trkpt>
      <trkpt lat="39.862687" lon="16.086184">
        <ele>1001.378345</ele>
        <time>2023-12-03T19:09:00.335Z</time>
      </trkpt>
      <trkpt lat="39.862447" lon="16.086724">
        <ele>1002.065265</ele>
        <time>2023-12-03T19:09:10.573Z</time>
      </trkpt>
      <trkpt lat="39.862178" lon="16.087014">
        <ele>1002.502943</ele>
        <time>2023-12-03T19:09:17.744Z</time>
      </trkpt>
      <trkpt lat="39.861882" lon="16.087378">
        <ele>1003.013178</ele>
        <time>2023-12-03T19:09:25.706Z</time>
      </trkpt>
      <trkpt lat="39.861617" lon="16.088109">
        <ele>1003.791039</ele>
        <time>2023-12-03T19:09:36.989Z</time>
      </trkpt>
      <trkpt lat="39.860927" lon="16.090264">
        <ele>1005.970952</ele>
        <time>2023-12-03T19:10:11.040Z</time>
      </trkpt>
      <trkpt lat="39.860759" lon="16.090904">
        <ele>1007.477303</ele>
        <time>2023-12-03T19:10:23.599Z</time>
      </trkpt>
      <trkpt lat="39.860688" lon="16.091192">
        <ele>1008.212540</ele>
        <time>2023-12-03T19:10:29.346Z</time>
      </trkpt>
      <trkpt lat="39.860185" lon="16.092380">
        <ele>1011.510279</ele>
        <time>2023-12-03T19:10:57.940Z</time>
      </trkpt>
      <trkpt lat="39.859898" lon="16.093192">
        <ele>1016.965732</ele>
        <time>2023-12-03T19:11:24.218Z</time>
      </trkpt>
      <trkpt lat="39.859632" lon="16.094067">
        <ele>1023.141845</ele>
        <time>2023-12-03T19:12:04.800Z</time>
      </trkpt>
      <trkpt lat="39.859587" lon="16.094322">
        <ele>1024.858943</ele>
        <time>2023-12-03T19:12:17.408Z</time>
      </trkpt>
      <trkpt lat="39.859586" lon="16.094617">
        <ele>1026.794909</ele>
        <time>2023-12-03T19:12:30.783Z</time>
      </trkpt>
      <trkpt lat="39.859669" lon="16.094966">
        <ele>1028.761731</ele>
        <time>2023-12-03T19:12:46.029Z</time>
      </trkpt>
      <trkpt lat="39.859834" lon="16.095384">
        <ele>1031.202197</ele>
        <time>2023-12-03T19:13:04.787Z</time>
      </trkpt>
      <trkpt lat="39.860096" lon="16.095920">
        <ele>1034.501526</ele>
        <time>2023-12-03T19:13:27.974Z</time>
      </trkpt>
      <trkpt lat="39.860698" lon="16.097292">
        <ele>1038.329155</ele>
        <time>2023-12-03T19:14:02.247Z</time>
      </trkpt>
      <trkpt lat="39.860839" lon="16.097642">
        <ele>1037.748081</ele>
        <time>2023-12-03T19:14:05.496Z</time>
      </trkpt>
      <trkpt lat="39.860981" lon="16.098078">
        <ele>1037.051834</ele>
        <time>2023-12-03T19:14:08.989Z</time>
      </trkpt>
      <trkpt lat="39.861275" lon="16.099138">
        <ele>1034.140253</ele>
        <time>2023-12-03T19:14:17.230Z</time>
      </trkpt>
      <trkpt lat="39.861405" lon="16.099928">
        <ele>1029.680898</ele>
        <time>2023-12-03T19:14:22.895Z</time>
      </trkpt>
      <trkpt lat="39.861486" lon="16.100129">
        <ele>1028.427919</ele>
        <time>2023-12-03T19:14:24.433Z</time>
      </trkpt>
      <trkpt lat="39.861578" lon="16.100262">
        <ele>1027.439756</ele>
        <time>2023-12-03T19:14:25.654Z</time>
      </trkpt>
      <trkpt lat="39.862217" lon="16.100851">
        <ele>1021.540454</ele>
        <time>2023-12-03T19:14:32.473Z</time>
      </trkpt>
      <trkpt lat="39.862302" lon="16.100875">
        <ele>1020.761940</ele>
        <time>2023-12-03T19:14:33.222Z</time>
      </trkpt>
      <trkpt lat="39.862416" lon="16.100867">
        <ele>1019.740027</ele>
        <time>2023-12-03T19:14:34.219Z</time>
      </trkpt>
      <trkpt lat="39.862990" lon="16.100537">
        <ele>1014.124009</ele>
        <time>2023-12-03T19:14:39.693Z</time>
      </trkpt>
      <trkpt lat="39.863263" lon="16.100531">
        <ele>1011.679991</ele>
        <time>2023-12-03T19:14:42.071Z</time>
      </trkpt>
      <trkpt lat="39.863421" lon="16.100592">
        <ele>1010.204912</ele>
        <time>2023-12-03T19:14:43.502Z</time>
      </trkpt>
      <trkpt lat="39.864128" lon="16.101149">
        <ele>1002.299663</ele>
        <time>2023-12-03T19:14:50.722Z</time>
      </trkpt>
      <trkpt lat="39.864663" lon="16.101353">
        <ele>996.675469</ele>
        <time>2023-12-03T19:14:55.528Z</time>
      </trkpt>
      <trkpt lat="39.864762" lon="16.101426">
        <ele>995.527748</ele>
        <time>2023-12-03T19:14:56.522Z</time>
      </trkpt>
      <trkpt lat="39.864872" lon="16.101539">
        <ele>994.114429</ele>
        <time>2023-12-03T19:14:57.723Z</time>
      </trkpt>
      <trkpt lat="39.865277" lon="16.102075">
        <ele>988.287198</ele>
        <time>2023-12-03T19:15:02.644Z</time>
      </trkpt>
      <trkpt lat="39.865341" lon="16.102227">
        <ele>986.935350</ele>
        <time>2023-12-03T19:15:03.760Z</time>
      </trkpt>
      <trkpt lat="39.865361" lon="16.102387">
        <ele>985.671306</ele>
        <time>2023-12-03T19:15:04.812Z</time>
      </trkpt>
      <trkpt lat="39.865335" lon="16.102553">
        <ele>984.350238</ele>
        <time>2023-12-03T19:15:05.911Z</time>
      </trkpt>
      <trkpt lat="39.865237" lon="16.102865">
        <ele>981.721574</ele>
        <time>2023-12-03T19:15:08.094Z</time>
      </trkpt>
      <trkpt lat="39.865127" lon="16.103137">
        <ele>979.324252</ele>
        <time>2023-12-03T19:15:10.092Z</time>
      </trkpt>
      <trkpt lat="39.864786" lon="16.103669">
        <ele>973.919689</ele>
        <time>2023-12-03T19:15:14.612Z</time>
      </trkpt>
      <trkpt lat="39.862986" lon="16.105933">
        <ele>960.868121</ele>
        <time>2023-12-03T19:15:38.060Z</time>
      </trkpt>
      <trkpt lat="39.862794" lon="16.106088">
        <ele>960.810436</ele>
        <time>2023-12-03T19:15:41.864Z</time>
      </trkpt>
      <trkpt lat="39.862263" lon="16.106262">
        <ele>960.670600</ele>
        <time>2023-12-03T19:15:51.537Z</time>
      </trkpt>
      <trkpt lat="39.862103" lon="16.106363">
        <ele>960.625194</ele>
        <time>2023-12-03T19:15:55.181Z</time>
      </trkpt>
      <trkpt lat="39.862034" lon="16.106564">
        <ele>960.582030</ele>
        <time>2023-12-03T19:15:59.079Z</time>
      </trkpt>
      <trkpt lat="39.861981" lon="16.106891">
        <ele>960.516514</ele>
        <time>2023-12-03T19:16:05.402Z</time>
      </trkpt>
      <trkpt lat="39.861744" lon="16.107732">
        <ele>959.451026</ele>
        <time>2023-12-03T19:16:21.982Z</time>
      </trkpt>
      <trkpt lat="39.861364" lon="16.108581">
        <ele>958.179930</ele>
        <time>2023-12-03T19:16:30.591Z</time>
      </trkpt>
      <trkpt lat="39.861014" lon="16.109794">
        <ele>950.904373</ele>
        <time>2023-12-03T19:16:39.558Z</time>
      </trkpt>
      <trkpt lat="39.860953" lon="16.110080">
        <ele>948.293540</ele>
        <time>2023-12-03T19:16:41.510Z</time>
      </trkpt>
      <trkpt lat="39.860944" lon="16.110621">
        <ele>943.534022</ele>
        <time>2023-12-03T19:16:45.011Z</time>
      </trkpt>
      <trkpt lat="39.860971" lon="16.111626">
        <ele>933.736040</ele>
        <time>2023-12-03T19:16:51.402Z</time>
      </trkpt>
      <trkpt lat="39.860954" lon="16.111774">
        <ele>931.841851</ele>
        <time>2023-12-03T19:16:52.346Z</time>
      </trkpt>
      <trkpt lat="39.860620" lon="16.113136">
        <ele>913.743709</ele>
        <time>2023-12-03T19:17:01.390Z</time>
      </trkpt>
      <trkpt lat="39.860510" lon="16.113332">
        <ele>910.670422</ele>
        <time>2023-12-03T19:17:02.930Z</time>
      </trkpt>
      <trkpt lat="39.860397" lon="16.113417">
        <ele>908.518757</ele>
        <time>2023-12-03T19:17:04.012Z</time>
      </trkpt>
      <trkpt lat="39.859998" lon="16.113599">
        <ele>902.637556</ele>
        <time>2023-12-03T19:17:07.510Z</time>
      </trkpt>
      <trkpt lat="39.859086" lon="16.114314">
        <ele>888.469868</ele>
        <time>2023-12-03T19:17:16.423Z</time>
      </trkpt>
      <trkpt lat="39.858748" lon="16.114450">
        <ele>883.761274</ele>
        <time>2023-12-03T19:17:19.432Z</time>
      </trkpt>
      <trkpt lat="39.858392" lon="16.114516">
        <ele>881.482053</ele>
        <time>2023-12-03T19:17:22.506Z</time>
      </trkpt>
      <trkpt lat="39.858016" lon="16.114431">
        <ele>879.374677</ele>
        <time>2023-12-03T19:17:25.868Z</time>
      </trkpt>
      <trkpt lat="39.857016" lon="16.113957">
        <ele>873.498291</ele>
        <time>2023-12-03T19:17:37.212Z</time>
      </trkpt>
      <trkpt lat="39.856850" lon="16.113833">
        <ele>872.650111</ele>
        <time>2023-12-03T19:17:39.350Z</time>
      </trkpt>
      <trkpt lat="39.856711" lon="16.113690">
        <ele>871.902321</ele>
        <time>2023-12-03T19:17:41.051Z</time>
      </trkpt>
      <trkpt lat="39.856516" lon="16.113374">
        <ele>870.588289</ele>
        <time>2023-12-03T19:17:44.113Z</time>
      </trkpt>
      <trkpt lat="39.856419" lon="16.113267">
        <ele>870.051655</ele>
        <time>2023-12-03T19:17:45.407Z</time>
      </trkpt>
      <trkpt lat="39.856332" lon="16.113250">
        <ele>869.680235</ele>
        <time>2023-12-03T19:17:46.218Z</time>
      </trkpt>
      <trkpt lat="39.856230" lon="16.113271">
        <ele>869.244250</ele>
        <time>2023-12-03T19:17:47.176Z</time>
      </trkpt>
      <trkpt lat="39.856018" lon="16.113404">
        <ele>868.250806</ele>
        <time>2023-12-03T19:17:49.497Z</time>
      </trkpt>
      <trkpt lat="39.855559" lon="16.113875">
        <ele>865.783895</ele>
        <time>2023-12-03T19:17:55.142Z</time>
      </trkpt>
      <trkpt lat="39.855368" lon="16.113994">
        <ele>864.026098</ele>
        <time>2023-12-03T19:17:57.148Z</time>
      </trkpt>
      <trkpt lat="39.855183" lon="16.114062">
        <ele>862.383219</ele>
        <time>2023-12-03T19:17:58.898Z</time>
      </trkpt>
      <trkpt lat="39.854991" lon="16.114067">
        <ele>860.741925</ele>
        <time>2023-12-03T19:18:00.557Z</time>
      </trkpt>
      <trkpt lat="39.854104" lon="16.113746">
        <ele>852.873885</ele>
        <time>2023-12-03T19:18:08.394Z</time>
      </trkpt>
      <trkpt lat="39.853947" lon="16.113740">
        <ele>851.531476</ele>
        <time>2023-12-03T19:18:09.751Z</time>
      </trkpt>
      <trkpt lat="39.853460" lon="16.113843">
        <ele>848.095945</ele>
        <time>2023-12-03T19:18:14.214Z</time>
      </trkpt>
      <trkpt lat="39.853268" lon="16.113846">
        <ele>846.875726</ele>
        <time>2023-12-03T19:18:16.011Z</time>
      </trkpt>
      <trkpt lat="39.852891" lon="16.113755">
        <ele>844.439161</ele>
        <time>2023-12-03T19:18:19.701Z</time>
      </trkpt>
      <trkpt lat="39.852760" lon="16.113749">
        <ele>843.606162</ele>
        <time>2023-12-03T19:18:20.956Z</time>
      </trkpt>
      <trkpt lat="39.852638" lon="16.113837">
        <ele>842.719940</ele>
        <time>2023-12-03T19:18:22.246Z</time>
      </trkpt>
      <trkpt lat="39.852629" lon="16.113950">
        <ele>842.165701</ele>
        <time>2023-12-03T19:18:23.059Z</time>
      </trkpt>
      <trkpt lat="39.852668" lon="16.114028">
        <ele>841.711578</ele>
        <time>2023-12-03T19:18:23.720Z</time>
      </trkpt>
      <trkpt lat="39.852740" lon="16.114100">
        <ele>841.134748</ele>
        <time>2023-12-03T19:18:24.537Z</time>
      </trkpt>
      <trkpt lat="39.852857" lon="16.114118">
        <ele>840.386062</ele>
        <time>2023-12-03T19:18:25.590Z</time>
      </trkpt>
      <trkpt lat="39.853676" lon="16.114033">
        <ele>835.571061</ele>
        <time>2023-12-03T19:18:32.913Z</time>
      </trkpt>
      <trkpt lat="39.853946" lon="16.114070">
        <ele>834.031838</ele>
        <time>2023-12-03T19:18:35.417Z</time>
      </trkpt>
      <trkpt lat="39.854095" lon="16.114108">
        <ele>833.171038</ele>
        <time>2023-12-03T19:18:36.877Z</time>
      </trkpt>
      <trkpt lat="39.854669" lon="16.114442">
        <ele>829.606800</ele>
        <time>2023-12-03T19:18:43.392Z</time>
      </trkpt>
      <trkpt lat="39.855076" lon="16.114630">
        <ele>826.551773</ele>
        <time>2023-12-03T19:18:47.303Z</time>
      </trkpt>
      <trkpt lat="39.855302" lon="16.114659">
        <ele>824.768204</ele>
        <time>2023-12-03T19:18:49.293Z</time>
      </trkpt>
      <trkpt lat="39.855456" lon="16.114629">
        <ele>823.545257</ele>
        <time>2023-12-03T19:18:50.636Z</time>
      </trkpt>
      <trkpt lat="39.855831" lon="16.114450">
        <ele>820.408548</ele>
        <time>2023-12-03T19:18:54.096Z</time>
      </trkpt>
      <trkpt lat="39.856015" lon="16.114436">
        <ele>818.960971</ele>
        <time>2023-12-03T19:18:55.720Z</time>
      </trkpt>
      <trkpt lat="39.856508" lon="16.114781">
        <ele>814.568402</ele>
        <time>2023-12-03T19:19:00.719Z</time>
      </trkpt>
      <trkpt lat="39.857008" lon="16.115365">
        <ele>809.642168</ele>
        <time>2023-12-03T19:19:06.567Z</time>
      </trkpt>
      <trkpt lat="39.857534" lon="16.116062">
        <ele>804.138244</ele>
        <time>2023-12-03T19:19:13.061Z</time>
      </trkpt>
      <trkpt lat="39.857561" lon="16.116163">
        <ele>803.536001</ele>
        <time>2023-12-03T19:19:13.871Z</time>
      </trkpt>
      <trkpt lat="39.857557" lon="16.116267">
        <ele>802.949630</ele>
        <time>2023-12-03T19:19:14.621Z</time>
      </trkpt>
      <trkpt lat="39.857529" lon="16.116296">
        <ele>802.687226</ele>
        <time>2023-12-03T19:19:14.951Z</time>
      </trkpt>
      <trkpt lat="39.857415" lon="16.116341">
        <ele>801.813416</ele>
        <time>2023-12-03T19:19:16.105Z</time>
      </trkpt>
      <trkpt lat="39.857340" lon="16.116298">
        <ele>801.375648</ele>
        <time>2023-12-03T19:19:17.180Z</time>
      </trkpt>
      <trkpt lat="39.856739" lon="16.115404">
        <ele>800.134201</ele>
        <time>2023-12-03T19:19:29.136Z</time>
      </trkpt>
      <trkpt lat="39.856528" lon="16.115153">
        <ele>799.745344</ele>
        <time>2023-12-03T19:19:32.194Z</time>
      </trkpt>
      <trkpt lat="39.856106" lon="16.114831">
        <ele>799.079784</ele>
        <time>2023-12-03T19:19:37.806Z</time>
      </trkpt>
      <trkpt lat="39.856007" lon="16.114812">
        <ele>798.949784</ele>
        <time>2023-12-03T19:19:39.613Z</time>
      </trkpt>
      <trkpt lat="39.855852" lon="16.114835">
        <ele>798.798510</ele>
        <time>2023-12-03T19:19:42.724Z</time>
      </trkpt>
      <trkpt lat="39.855613" lon="16.114989">
        <ele>798.539952</ele>
        <time>2023-12-03T19:19:47.881Z</time>
      </trkpt>
      <trkpt lat="39.855305" lon="16.115106">
        <ele>798.228848</ele>
        <time>2023-12-03T19:19:54.960Z</time>
      </trkpt>
      <trkpt lat="39.855071" lon="16.115154">
        <ele>797.999145</ele>
        <time>2023-12-03T19:19:59.961Z</time>
      </trkpt>
      <trkpt lat="39.854779" lon="16.115137">
        <ele>797.715713</ele>
        <time>2023-12-03T19:20:04.599Z</time>
      </trkpt>
      <trkpt lat="39.854040" lon="16.114928">
        <ele>795.412802</ele>
        <time>2023-12-03T19:20:11.792Z</time>
      </trkpt>
      <trkpt lat="39.853811" lon="16.114940">
        <ele>793.728361</ele>
        <time>2023-12-03T19:20:13.942Z</time>
      </trkpt>
      <trkpt lat="39.853526" lon="16.115027">
        <ele>791.576951</ele>
        <time>2023-12-03T19:20:16.647Z</time>
      </trkpt>
      <trkpt lat="39.853270" lon="16.115212">
        <ele>789.425283</ele>
        <time>2023-12-03T19:20:19.309Z</time>
      </trkpt>
      <trkpt lat="39.852558" lon="16.116062">
        <ele>781.610462</ele>
        <time>2023-12-03T19:20:27.643Z</time>
      </trkpt>
      <trkpt lat="39.852367" lon="16.116226">
        <ele>779.209631</ele>
        <time>2023-12-03T19:20:29.579Z</time>
      </trkpt>
      <trkpt lat="39.852156" lon="16.116359">
        <ele>776.749573</ele>
        <time>2023-12-03T19:20:31.546Z</time>
      </trkpt>
      <trkpt lat="39.852043" lon="16.116377">
        <ele>775.554821</ele>
        <time>2023-12-03T19:20:32.507Z</time>
      </trkpt>
      <trkpt lat="39.851878" lon="16.116353">
        <ele>773.812407</ele>
        <time>2023-12-03T19:20:33.909Z</time>
      </trkpt>
      <trkpt lat="39.851481" lon="16.116228">
        <ele>769.525958</ele>
        <time>2023-12-03T19:20:37.396Z</time>
      </trkpt>
      <trkpt lat="39.851279" lon="16.116130">
        <ele>767.263730</ele>
        <time>2023-12-03T19:20:39.259Z</time>
      </trkpt>
      <trkpt lat="39.851214" lon="16.116019">
        <ele>766.138931</ele>
        <time>2023-12-03T19:20:40.195Z</time>
      </trkpt>
      <trkpt lat="39.851200" lon="16.115822">
        <ele>764.759423</ele>
        <time>2023-12-03T19:20:41.524Z</time>
      </trkpt>
      <trkpt lat="39.851216" lon="16.114725">
        <ele>759.188167</ele>
        <time>2023-12-03T19:20:49.098Z</time>
      </trkpt>
      <trkpt lat="39.851189" lon="16.114599">
        <ele>758.523919</ele>
        <time>2023-12-03T19:20:50.021Z</time>
      </trkpt>
      <trkpt lat="39.851075" lon="16.114421">
        <ele>757.346871</ele>
        <time>2023-12-03T19:20:51.673Z</time>
      </trkpt>
      <trkpt lat="39.850814" lon="16.114147">
        <ele>755.129723</ele>
        <time>2023-12-03T19:20:54.772Z</time>
      </trkpt>
      <trkpt lat="39.850462" lon="16.113895">
        <ele>752.755239</ele>
        <time>2023-12-03T19:20:58.500Z</time>
      </trkpt>
      <trkpt lat="39.849316" lon="16.113304">
        <ele>747.647409</ele>
        <time>2023-12-03T19:21:10.089Z</time>
      </trkpt>
      <trkpt lat="39.848884" lon="16.112945">
        <ele>745.696185</ele>
        <time>2023-12-03T19:21:15.607Z</time>
      </trkpt>
      <trkpt lat="39.848669" lon="16.112803">
        <ele>745.383134</ele>
        <time>2023-12-03T19:21:18.609Z</time>
      </trkpt>
      <trkpt lat="39.848339" lon="16.112703">
        <ele>744.943136</ele>
        <time>2023-12-03T19:21:24.241Z</time>
      </trkpt>
      <trkpt lat="39.847994" lon="16.112643">
        <ele>744.491128</ele>
        <time>2023-12-03T19:21:30.510Z</time>
      </trkpt>
      <trkpt lat="39.846829" lon="16.112595">
        <ele>741.116934</ele>
        <time>2023-12-03T19:21:43.401Z</time>
      </trkpt>
      <trkpt lat="39.846730" lon="16.112652">
        <ele>740.409801</ele>
        <time>2023-12-03T19:21:44.410Z</time>
      </trkpt>
      <trkpt lat="39.846674" lon="16.112765">
        <ele>739.735205</ele>
        <time>2023-12-03T19:21:45.365Z</time>
      </trkpt>
      <trkpt lat="39.846669" lon="16.112869">
        <ele>739.212547</ele>
        <time>2023-12-03T19:21:46.093Z</time>
      </trkpt>
      <trkpt lat="39.846737" lon="16.112993">
        <ele>738.448235</ele>
        <time>2023-12-03T19:21:47.182Z</time>
      </trkpt>
      <trkpt lat="39.846856" lon="16.113041">
        <ele>737.634390</ele>
        <time>2023-12-03T19:21:48.306Z</time>
      </trkpt>
      <trkpt lat="39.847460" lon="16.113045">
        <ele>733.688446</ele>
        <time>2023-12-03T19:21:53.641Z</time>
      </trkpt>
      <trkpt lat="39.847682" lon="16.113136">
        <ele>732.168009</ele>
        <time>2023-12-03T19:21:55.647Z</time>
      </trkpt>
      <trkpt lat="39.847961" lon="16.113412">
        <ele>729.023373</ele>
        <time>2023-12-03T19:21:58.632Z</time>
      </trkpt>
      <trkpt lat="39.849769" lon="16.115426">
        <ele>705.918533</ele>
        <time>2023-12-03T19:22:19.218Z</time>
      </trkpt>
      <trkpt lat="39.849887" lon="16.115621">
        <ele>704.037137</ele>
        <time>2023-12-03T19:22:20.862Z</time>
      </trkpt>
      <trkpt lat="39.849936" lon="16.115799">
        <ele>702.604284</ele>
        <time>2023-12-03T19:22:22.117Z</time>
      </trkpt>
      <trkpt lat="39.849948" lon="16.115994">
        <ele>701.121963</ele>
        <time>2023-12-03T19:22:23.408Z</time>
      </trkpt>
      <trkpt lat="39.849882" lon="16.117423">
        <ele>689.752539</ele>
        <time>2023-12-03T19:22:32.834Z</time>
      </trkpt>
      <trkpt lat="39.849889" lon="16.117602">
        <ele>688.282893</ele>
        <time>2023-12-03T19:22:34.008Z</time>
      </trkpt>
      <trkpt lat="39.850079" lon="16.118181">
        <ele>683.119774</ele>
        <time>2023-12-03T19:22:38.117Z</time>
      </trkpt>
      <trkpt lat="39.850134" lon="16.118480">
        <ele>680.598685</ele>
        <time>2023-12-03T19:22:40.123Z</time>
      </trkpt>
      <trkpt lat="39.850308" lon="16.119872">
        <ele>671.017642</ele>
        <time>2023-12-03T19:22:49.446Z</time>
      </trkpt>
      <trkpt lat="39.850363" lon="16.120034">
        <ele>669.908810</ele>
        <time>2023-12-03T19:22:50.642Z</time>
      </trkpt>
      <trkpt lat="39.850441" lon="16.120177">
        <ele>668.810719</ele>
        <time>2023-12-03T19:22:51.825Z</time>
      </trkpt>
      <trkpt lat="39.850559" lon="16.120329">
        <ele>667.457546</ele>
        <time>2023-12-03T19:22:53.291Z</time>
      </trkpt>
      <trkpt lat="39.850696" lon="16.120415">
        <ele>666.217518</ele>
        <time>2023-12-03T19:22:54.643Z</time>
      </trkpt>
      <trkpt lat="39.850846" lon="16.120593">
        <ele>664.562992</ele>
        <time>2023-12-03T19:22:56.484Z</time>
      </trkpt>
      <trkpt lat="39.850851" lon="16.120730">
        <ele>663.704429</ele>
        <time>2023-12-03T19:22:57.454Z</time>
      </trkpt>
      <trkpt lat="39.850830" lon="16.120812">
        <ele>663.163318</ele>
        <time>2023-12-03T19:22:58.070Z</time>
      </trkpt>
      <trkpt lat="39.850733" lon="16.120864">
        <ele>662.642650</ele>
        <time>2023-12-03T19:22:59.039Z</time>
      </trkpt>
      <trkpt lat="39.850650" lon="16.120835">
        <ele>662.470409</ele>
        <time>2023-12-03T19:22:59.872Z</time>
      </trkpt>
      <trkpt lat="39.850472" lon="16.120592">
        <ele>661.953591</ele>
        <time>2023-12-03T19:23:02.387Z</time>
      </trkpt>
      <trkpt lat="39.850079" lon="16.119933">
        <ele>660.669548</ele>
        <time>2023-12-03T19:23:09.445Z</time>
      </trkpt>
      <trkpt lat="39.849702" lon="16.118820">
        <ele>658.973263</ele>
        <time>2023-12-03T19:23:23.094Z</time>
      </trkpt>
      <trkpt lat="39.849628" lon="16.118672">
        <ele>658.838263</ele>
        <time>2023-12-03T19:23:25.403Z</time>
      </trkpt>
      <trkpt lat="39.849280" lon="16.118181">
        <ele>658.327490</ele>
        <time>2023-12-03T19:23:33.226Z</time>
      </trkpt>
      <trkpt lat="39.849146" lon="16.118019">
        <ele>658.145470</ele>
        <time>2023-12-03T19:23:35.641Z</time>
      </trkpt>
      <trkpt lat="39.849043" lon="16.117940">
        <ele>658.026465</ele>
        <time>2023-12-03T19:23:37.042Z</time>
      </trkpt>
      <trkpt lat="39.848910" lon="16.117870">
        <ele>657.883649</ele>
        <time>2023-12-03T19:23:38.791Z</time>
      </trkpt>
      <trkpt lat="39.848723" lon="16.117818">
        <ele>657.693276</ele>
        <time>2023-12-03T19:23:40.886Z</time>
      </trkpt>
      <trkpt lat="39.848385" lon="16.117727">
        <ele>657.330979</ele>
        <time>2023-12-03T19:23:44.574Z</time>
      </trkpt>
      <trkpt lat="39.848235" lon="16.117713">
        <ele>656.734440</ele>
        <time>2023-12-03T19:23:46.155Z</time>
      </trkpt>
      <trkpt lat="39.847951" lon="16.117849">
        <ele>655.534156</ele>
        <time>2023-12-03T19:23:49.211Z</time>
      </trkpt>
      <trkpt lat="39.847598" lon="16.118333">
        <ele>653.501069</ele>
        <time>2023-12-03T19:23:54.262Z</time>
      </trkpt>
      <trkpt lat="39.847270" lon="16.118939">
        <ele>651.242980</ele>
        <time>2023-12-03T19:23:59.755Z</time>
      </trkpt>
      <trkpt lat="39.847135" lon="16.119176">
        <ele>650.344234</ele>
        <time>2023-12-03T19:24:01.870Z</time>
      </trkpt>
      <trkpt lat="39.846799" lon="16.119664">
        <ele>647.255180</ele>
        <time>2023-12-03T19:24:06.534Z</time>
      </trkpt>
      <trkpt lat="39.846724" lon="16.119847">
        <ele>646.254871</ele>
        <time>2023-12-03T19:24:07.993Z</time>
      </trkpt>
      <trkpt lat="39.847126" lon="16.123145">
        <ele>630.793252</ele>
        <time>2023-12-03T19:24:31.140Z</time>
      </trkpt>
      <trkpt lat="39.847120" lon="16.123818">
        <ele>628.495294</ele>
        <time>2023-12-03T19:24:36.076Z</time>
      </trkpt>
      <trkpt lat="39.847059" lon="16.124620">
        <ele>628.724562</ele>
        <time>2023-12-03T19:24:43.824Z</time>
      </trkpt>
      <trkpt lat="39.847029" lon="16.124853">
        <ele>628.791771</ele>
        <time>2023-12-03T19:24:47.497Z</time>
      </trkpt>
      <trkpt lat="39.846963" lon="16.125097">
        <ele>628.865365</ele>
        <time>2023-12-03T19:24:52.091Z</time>
      </trkpt>
      <trkpt lat="39.846754" lon="16.125621">
        <ele>629.033348</ele>
        <time>2023-12-03T19:25:02.911Z</time>
      </trkpt>
      <trkpt lat="39.846495" lon="16.126312">
        <ele>629.953631</ele>
        <time>2023-12-03T19:25:18.687Z</time>
      </trkpt>
      <trkpt lat="39.846438" lon="16.126661">
        <ele>630.591111</ele>
        <time>2023-12-03T19:25:26.733Z</time>
      </trkpt>
      <trkpt lat="39.846443" lon="16.127037">
        <ele>631.262979</ele>
        <time>2023-12-03T19:25:35.209Z</time>
      </trkpt>
      <trkpt lat="39.846467" lon="16.127225">
        <ele>631.603474</ele>
        <time>2023-12-03T19:25:39.484Z</time>
      </trkpt>
      <trkpt lat="39.846890" lon="16.128780">
        <ele>633.251448</ele>
        <time>2023-12-03T19:26:03.731Z</time>
      </trkpt>
      <trkpt lat="39.847109" lon="16.129479">
        <ele>633.193760</ele>
        <time>2023-12-03T19:26:10.644Z</time>
      </trkpt>
      <trkpt lat="39.847213" lon="16.130059">
        <ele>633.148249</ele>
        <time>2023-12-03T19:26:16.343Z</time>
      </trkpt>
      <trkpt lat="39.847203" lon="16.130610">
        <ele>633.155705</ele>
        <time>2023-12-03T19:26:22.461Z</time>
      </trkpt>
      <trkpt lat="39.847118" lon="16.131567">
        <ele>633.268285</ele>
        <time>2023-12-03T19:26:35.855Z</time>
      </trkpt>
      <trkpt lat="39.847034" lon="16.131942">
        <ele>633.313934</ele>
        <time>2023-12-03T19:26:41.128Z</time>
      </trkpt>
      <trkpt lat="39.846997" lon="16.132113">
        <ele>633.334695</ele>
        <time>2023-12-03T19:26:43.334Z</time>
      </trkpt>
      <trkpt lat="39.846934" lon="16.132870">
        <ele>632.582973</ele>
        <time>2023-12-03T19:26:51.638Z</time>
      </trkpt>
      <trkpt lat="39.847004" lon="16.133214">
        <ele>631.178349</ele>
        <time>2023-12-03T19:26:55.095Z</time>
      </trkpt>
      <trkpt lat="39.847119" lon="16.133468">
        <ele>630.014493</ele>
        <time>2023-12-03T19:26:57.651Z</time>
      </trkpt>
      <trkpt lat="39.847716" lon="16.134131">
        <ele>625.981265</ele>
        <time>2023-12-03T19:27:05.108Z</time>
      </trkpt>
      <trkpt lat="39.847812" lon="16.134356">
        <ele>624.965295</ele>
        <time>2023-12-03T19:27:06.820Z</time>
      </trkpt>
      <trkpt lat="39.847921" lon="16.134801">
        <ele>620.775955</ele>
        <time>2023-12-03T19:27:09.842Z</time>
      </trkpt>
      <trkpt lat="39.848032" lon="16.135485">
        <ele>611.740019</ele>
        <time>2023-12-03T19:27:14.288Z</time>
      </trkpt>
      <trkpt lat="39.848073" lon="16.135944">
        <ele>605.767499</ele>
        <time>2023-12-03T19:27:17.207Z</time>
      </trkpt>
      <trkpt lat="39.848047" lon="16.136370">
        <ele>600.244147</ele>
        <time>2023-12-03T19:27:19.895Z</time>
      </trkpt>
      <trkpt lat="39.847937" lon="16.136813">
        <ele>594.226422</ele>
        <time>2023-12-03T19:27:22.816Z</time>
      </trkpt>
      <trkpt lat="39.847848" lon="16.137063">
        <ele>590.776450</ele>
        <time>2023-12-03T19:27:24.539Z</time>
      </trkpt>
      <trkpt lat="39.847718" lon="16.137293">
        <ele>587.213550</ele>
        <time>2023-12-03T19:27:26.336Z</time>
      </trkpt>
      <trkpt lat="39.847275" lon="16.137749">
        <ele>578.038992</ele>
        <time>2023-12-03T19:27:30.957Z</time>
      </trkpt>
      <trkpt lat="39.846739" lon="16.138143">
        <ele>568.038520</ele>
        <time>2023-12-03T19:27:36.087Z</time>
      </trkpt>
      <trkpt lat="39.846400" lon="16.138320">
        <ele>563.883093</ele>
        <time>2023-12-03T19:27:39.239Z</time>
      </trkpt>
      <trkpt lat="39.846170" lon="16.138386">
        <ele>562.732637</ele>
        <time>2023-12-03T19:27:41.340Z</time>
      </trkpt>
      <trkpt lat="39.845631" lon="16.138366">
        <ele>560.098643</ele>
        <time>2023-12-03T19:27:46.249Z</time>
      </trkpt>
      <trkpt lat="39.845554" lon="16.138285">
        <ele>559.615154</ele>
        <time>2023-12-03T19:27:47.309Z</time>
      </trkpt>
      <trkpt lat="39.845123" lon="16.138169">
        <ele>557.465310</ele>
        <time>2023-12-03T19:27:52.147Z</time>
      </trkpt>
      <trkpt lat="39.844812" lon="16.138115">
        <ele>555.932687</ele>
        <time>2023-12-03T19:27:56.355Z</time>
      </trkpt>
      <trkpt lat="39.844611" lon="16.138117">
        <ele>555.550334</ele>
        <time>2023-12-03T19:27:59.016Z</time>
      </trkpt>
      <trkpt lat="39.844509" lon="16.138191">
        <ele>555.355373</ele>
        <time>2023-12-03T19:28:01.205Z</time>
      </trkpt>
      <trkpt lat="39.843916" lon="16.138144">
        <ele>554.363345</ele>
        <time>2023-12-03T19:28:09.451Z</time>
      </trkpt>
      <trkpt lat="39.843672" lon="16.138186">
        <ele>553.952369</ele>
        <time>2023-12-03T19:28:12.435Z</time>
      </trkpt>
      <trkpt lat="39.843414" lon="16.138351">
        <ele>553.472423</ele>
        <time>2023-12-03T19:28:15.446Z</time>
      </trkpt>
      <trkpt lat="39.843153" lon="16.138604">
        <ele>552.929144</ele>
        <time>2023-12-03T19:28:18.717Z</time>
      </trkpt>
      <trkpt lat="39.843261" lon="16.138809">
        <ele>551.940437</ele>
        <time>2023-12-03T19:28:20.588Z</time>
      </trkpt>
      <trkpt lat="39.843336" lon="16.138815">
        <ele>551.475912</ele>
        <time>2023-12-03T19:28:21.346Z</time>
      </trkpt>
      <trkpt lat="39.843668" lon="16.138460">
        <ele>548.820396</ele>
        <time>2023-12-03T19:28:25.386Z</time>
      </trkpt>
      <trkpt lat="39.843722" lon="16.138440">
        <ele>548.473332</ele>
        <time>2023-12-03T19:28:25.903Z</time>
      </trkpt>
      <trkpt lat="39.843797" lon="16.138451">
        <ele>548.006750</ele>
        <time>2023-12-03T19:28:26.586Z</time>
      </trkpt>
      <trkpt lat="39.844416" lon="16.138751">
        <ele>543.923733</ele>
        <time>2023-12-03T19:28:32.466Z</time>
      </trkpt>
      <trkpt lat="39.844970" lon="16.139052">
        <ele>540.354707</ele>
        <time>2023-12-03T19:28:37.783Z</time>
      </trkpt>
      <trkpt lat="39.845742" lon="16.139382">
        <ele>535.798597</ele>
        <time>2023-12-03T19:28:45.141Z</time>
      </trkpt>
      <trkpt lat="39.845825" lon="16.139453">
        <ele>535.241778</ele>
        <time>2023-12-03T19:28:46.073Z</time>
      </trkpt>
      <trkpt lat="39.845929" lon="16.139627">
        <ele>534.292435</ele>
        <time>2023-12-03T19:28:47.658Z</time>
      </trkpt>
      <trkpt lat="39.846003" lon="16.139795">
        <ele>533.458582</ele>
        <time>2023-12-03T19:28:49.105Z</time>
      </trkpt>
      <trkpt lat="39.846065" lon="16.139901">
        <ele>532.884888</ele>
        <time>2023-12-03T19:28:50.109Z</time>
      </trkpt>
      <trkpt lat="39.846081" lon="16.140007">
        <ele>532.419801</ele>
        <time>2023-12-03T19:28:50.912Z</time>
      </trkpt>
      <trkpt lat="39.846312" lon="16.140283">
        <ele>531.448414</ele>
        <time>2023-12-03T19:28:54.146Z</time>
      </trkpt>
      <trkpt lat="39.846362" lon="16.140440">
        <ele>531.297154</ele>
        <time>2023-12-03T19:28:55.537Z</time>
      </trkpt>
      <trkpt lat="39.846351" lon="16.140540">
        <ele>531.207254</ele>
        <time>2023-12-03T19:28:56.401Z</time>
      </trkpt>
      <trkpt lat="39.846015" lon="16.141632">
        <ele>530.160327</ele>
        <time>2023-12-03T19:29:07.665Z</time>
      </trkpt>
      <trkpt lat="39.845975" lon="16.141954">
        <ele>529.870046</ele>
        <time>2023-12-03T19:29:11.474Z</time>
      </trkpt>
      <trkpt lat="39.845925" lon="16.142136">
        <ele>529.698023</ele>
        <time>2023-12-03T19:29:13.731Z</time>
      </trkpt>
      <trkpt lat="39.845883" lon="16.142298">
        <ele>529.572346</ele>
        <time>2023-12-03T19:29:15.709Z</time>
      </trkpt>
      <trkpt lat="39.845847" lon="16.143087">
        <ele>529.691294</ele>
        <time>2023-12-03T19:29:25.066Z</time>
      </trkpt>
      <trkpt lat="39.845547" lon="16.144409">
        <ele>529.898755</ele>
        <time>2023-12-03T19:29:41.771Z</time>
      </trkpt>
      <trkpt lat="39.844912" lon="16.146685">
        <ele>531.255712</ele>
        <time>2023-12-03T19:30:12.996Z</time>
      </trkpt>
      <trkpt lat="39.844507" lon="16.148057">
        <ele>533.733804</ele>
        <time>2023-12-03T19:30:40.906Z</time>
      </trkpt>
      <trkpt lat="39.844300" lon="16.148330">
        <ele>534.401531</ele>
        <time>2023-12-03T19:30:50.267Z</time>
      </trkpt>
      <trkpt lat="39.844076" lon="16.148532">
        <ele>535.019078</ele>
        <time>2023-12-03T19:30:58.784Z</time>
      </trkpt>
      <trkpt lat="39.843851" lon="16.148685">
        <ele>535.403838</ele>
        <time>2023-12-03T19:31:06.528Z</time>
      </trkpt>
      <trkpt lat="39.843645" lon="16.148755">
        <ele>535.470541</ele>
        <time>2023-12-03T19:31:12.919Z</time>
      </trkpt>
      <trkpt lat="39.843324" lon="16.148808">
        <ele>535.571919</ele>
        <time>2023-12-03T19:31:21.918Z</time>
      </trkpt>
      <trkpt lat="39.842236" lon="16.148652">
        <ele>535.914863</ele>
        <time>2023-12-03T19:31:42.855Z</time>
      </trkpt>
      <trkpt lat="39.841913" lon="16.148688">
        <ele>535.246959</ele>
        <time>2023-12-03T19:31:47.806Z</time>
      </trkpt>
      <trkpt lat="39.841658" lon="16.148781">
        <ele>534.528119</ele>
        <time>2023-12-03T19:31:51.688Z</time>
      </trkpt>
      <trkpt lat="39.841405" lon="16.148937">
        <ele>533.768255</ele>
        <time>2023-12-03T19:31:55.785Z</time>
      </trkpt>
      <trkpt lat="39.841104" lon="16.149306">
        <ele>532.646138</ele>
        <time>2023-12-03T19:32:01.871Z</time>
      </trkpt>
      <trkpt lat="39.840601" lon="16.150282">
        <ele>530.169806</ele>
        <time>2023-12-03T19:32:15.038Z</time>
      </trkpt>
      <trkpt lat="39.840382" lon="16.150648">
        <ele>529.173030</ele>
        <time>2023-12-03T19:32:20.360Z</time>
      </trkpt>
      <trkpt lat="39.840165" lon="16.150948">
        <ele>528.287650</ele>
        <time>2023-12-03T19:32:25.204Z</time>
      </trkpt>
      <trkpt lat="39.838587" lon="16.152606">
        <ele>522.891022</ele>
        <time>2023-12-03T19:32:55.453Z</time>
      </trkpt>
      <trkpt lat="39.838484" lon="16.152812">
        <ele>522.405682</ele>
        <time>2023-12-03T19:32:58.230Z</time>
      </trkpt>
      <trkpt lat="39.838408" lon="16.153095">
        <ele>521.813758</ele>
        <time>2023-12-03T19:33:01.731Z</time>
      </trkpt>
      <trkpt lat="39.838383" lon="16.153337">
        <ele>521.382572</ele>
        <time>2023-12-03T19:33:04.635Z</time>
      </trkpt>
      <trkpt lat="39.838392" lon="16.153501">
        <ele>521.309176</ele>
        <time>2023-12-03T19:33:06.688Z</time>
      </trkpt>
      <trkpt lat="39.838437" lon="16.153702">
        <ele>521.215713</ele>
        <time>2023-12-03T19:33:09.300Z</time>
      </trkpt>
      <trkpt lat="39.838760" lon="16.154666">
        <ele>520.746195</ele>
        <time>2023-12-03T19:33:24.197Z</time>
      </trkpt>
      <trkpt lat="39.838834" lon="16.155063">
        <ele>520.563828</ele>
        <time>2023-12-03T19:33:30.640Z</time>
      </trkpt>
      <trkpt lat="39.838834" lon="16.155321">
        <ele>520.448656</ele>
        <time>2023-12-03T19:33:34.905Z</time>
      </trkpt>
      <trkpt lat="39.838727" lon="16.155728">
        <ele>520.410485</ele>
        <time>2023-12-03T19:33:42.155Z</time>
      </trkpt>
      <trkpt lat="39.838613" lon="16.155976">
        <ele>520.490082</ele>
        <time>2023-12-03T19:33:47.025Z</time>
      </trkpt>
      <trkpt lat="39.838459" lon="16.156204">
        <ele>520.573703</ele>
        <time>2023-12-03T19:33:52.143Z</time>
      </trkpt>
      <trkpt lat="39.838018" lon="16.156715">
        <ele>520.785403</ele>
        <time>2023-12-03T19:34:04.829Z</time>
      </trkpt>
      <trkpt lat="39.837232" lon="16.157712">
        <ele>521.603305</ele>
        <time>2023-12-03T19:34:28.520Z</time>
      </trkpt>
      <trkpt lat="39.837071" lon="16.157992">
        <ele>521.924188</ele>
        <time>2023-12-03T19:34:34.908Z</time>
      </trkpt>
      <trkpt lat="39.836791" lon="16.158711">
        <ele>522.663722</ele>
        <time>2023-12-03T19:34:51.266Z</time>
      </trkpt>
      <trkpt lat="39.836523" lon="16.159305">
        <ele>523.069340</ele>
        <time>2023-12-03T19:35:06.522Z</time>
      </trkpt>
      <trkpt lat="39.836227" lon="16.159595">
        <ele>522.844651</ele>
        <time>2023-12-03T19:35:16.745Z</time>
      </trkpt>
      <trkpt lat="39.835876" lon="16.159795">
        <ele>522.612249</ele>
        <time>2023-12-03T19:35:25.334Z</time>
      </trkpt>
      <trkpt lat="39.835432" lon="16.159843">
        <ele>522.341995</ele>
        <time>2023-12-03T19:35:32.642Z</time>
      </trkpt>
      <trkpt lat="39.834988" lon="16.159726">
        <ele>522.067209</ele>
        <time>2023-12-03T19:35:39.198Z</time>
      </trkpt>
      <trkpt lat="39.834558" lon="16.159526">
        <ele>520.953930</ele>
        <time>2023-12-03T19:35:45.772Z</time>
      </trkpt>
      <trkpt lat="39.834394" lon="16.159494">
        <ele>520.535036</ele>
        <time>2023-12-03T19:35:48.304Z</time>
      </trkpt>
      <trkpt lat="39.834226" lon="16.159507">
        <ele>520.109913</ele>
        <time>2023-12-03T19:35:50.767Z</time>
      </trkpt>
      <trkpt lat="39.834068" lon="16.159553">
        <ele>519.700947</ele>
        <time>2023-12-03T19:35:53.341Z</time>
      </trkpt>
      <trkpt lat="39.833932" lon="16.159634">
        <ele>519.323181</ele>
        <time>2023-12-03T19:35:55.642Z</time>
      </trkpt>
      <trkpt lat="39.833611" lon="16.159966">
        <ele>518.287698</ele>
        <time>2023-12-03T19:36:02.056Z</time>
      </trkpt>
      <trkpt lat="39.833244" lon="16.160979">
        <ele>516.145538</ele>
        <time>2023-12-03T19:36:15.386Z</time>
      </trkpt>
      <trkpt lat="39.833133" lon="16.161170">
        <ele>515.691064</ele>
        <time>2023-12-03T19:36:18.301Z</time>
      </trkpt>
      <trkpt lat="39.833005" lon="16.161331">
        <ele>515.251364</ele>
        <time>2023-12-03T19:36:21.249Z</time>
      </trkpt>
      <trkpt lat="39.832834" lon="16.161465">
        <ele>514.758260</ele>
        <time>2023-12-03T19:36:24.492Z</time>
      </trkpt>
      <trkpt lat="39.832177" lon="16.161779">
        <ele>513.022306</ele>
        <time>2023-12-03T19:36:34.999Z</time>
      </trkpt>
      <trkpt lat="39.832011" lon="16.161908">
        <ele>512.459480</ele>
        <time>2023-12-03T19:36:37.660Z</time>
      </trkpt>
      <trkpt lat="39.831873" lon="16.162083">
        <ele>511.898657</ele>
        <time>2023-12-03T19:36:40.316Z</time>
      </trkpt>
      <trkpt lat="39.831767" lon="16.162298">
        <ele>511.327413</ele>
        <time>2023-12-03T19:36:42.962Z</time>
      </trkpt>
      <trkpt lat="39.831699" lon="16.162520">
        <ele>510.793032</ele>
        <time>2023-12-03T19:36:45.475Z</time>
      </trkpt>
      <trkpt lat="39.831662" lon="16.162942">
        <ele>509.843384</ele>
        <time>2023-12-03T19:36:50.024Z</time>
      </trkpt>
      <trkpt lat="39.831695" lon="16.163165">
        <ele>509.335622</ele>
        <time>2023-12-03T19:36:52.564Z</time>
      </trkpt>
      <trkpt lat="39.831753" lon="16.163372">
        <ele>508.842961</ele>
        <time>2023-12-03T19:36:55.208Z</time>
      </trkpt>
      <trkpt lat="39.831838" lon="16.163563">
        <ele>508.349393</ele>
        <time>2023-12-03T19:36:57.974Z</time>
      </trkpt>
      <trkpt lat="39.831965" lon="16.163728">
        <ele>507.832822</ele>
        <time>2023-12-03T19:37:01.171Z</time>
      </trkpt>
      <trkpt lat="39.832153" lon="16.163912">
        <ele>508.376441</ele>
        <time>2023-12-03T19:37:06.100Z</time>
      </trkpt>
      <trkpt lat="39.832495" lon="16.164058">
        <ele>509.208374</ele>
        <time>2023-12-03T19:37:15.690Z</time>
      </trkpt>
      <trkpt lat="39.832804" lon="16.164152">
        <ele>509.941862</ele>
        <time>2023-12-03T19:37:26.133Z</time>
      </trkpt>
      <trkpt lat="39.833075" lon="16.164279">
        <ele>510.607610</ele>
        <time>2023-12-03T19:37:36.864Z</time>
      </trkpt>
      <trkpt lat="39.833195" lon="16.164377">
        <ele>510.935025</ele>
        <time>2023-12-03T19:37:42.230Z</time>
      </trkpt>
      <trkpt lat="39.833314" lon="16.164503">
        <ele>511.289546</ele>
        <time>2023-12-03T19:37:48.153Z</time>
      </trkpt>
      <trkpt lat="39.833456" lon="16.164739">
        <ele>511.821732</ele>
        <time>2023-12-03T19:37:56.350Z</time>
      </trkpt>
      <trkpt lat="39.833526" lon="16.164995">
        <ele>511.898656</ele>
        <time>2023-12-03T19:38:03.287Z</time>
      </trkpt>
      <trkpt lat="39.833566" lon="16.165249">
        <ele>511.768820</ele>
        <time>2023-12-03T19:38:08.953Z</time>
      </trkpt>
      <trkpt lat="39.833571" lon="16.165477">
        <ele>511.654604</ele>
        <time>2023-12-03T19:38:13.222Z</time>
      </trkpt>
      <trkpt lat="39.833537" lon="16.165700">
        <ele>511.540758</ele>
        <time>2023-12-03T19:38:16.680Z</time>
      </trkpt>
      <trkpt lat="39.833405" lon="16.166007">
        <ele>511.364572</ele>
        <time>2023-12-03T19:38:21.300Z</time>
      </trkpt>
      <trkpt lat="39.833235" lon="16.166209">
        <ele>511.214505</ele>
        <time>2023-12-03T19:38:24.926Z</time>
      </trkpt>
      <trkpt lat="39.832738" lon="16.166683">
        <ele>510.809867</ele>
        <time>2023-12-03T19:38:33.994Z</time>
      </trkpt>
      <trkpt lat="39.832548" lon="16.167016">
        <ele>510.324879</ele>
        <time>2023-12-03T19:38:38.619Z</time>
      </trkpt>
      <trkpt lat="39.832467" lon="16.167270">
        <ele>510.003355</ele>
        <time>2023-12-03T19:38:41.668Z</time>
      </trkpt>
      <trkpt lat="39.832414" lon="16.167545">
        <ele>509.671895</ele>
        <time>2023-12-03T19:38:44.823Z</time>
      </trkpt>
      <trkpt lat="39.832444" lon="16.167985">
        <ele>509.155489</ele>
        <time>2023-12-03T19:38:49.832Z</time>
      </trkpt>
      <trkpt lat="39.832527" lon="16.168279">
        <ele>508.789298</ele>
        <time>2023-12-03T19:38:53.593Z</time>
      </trkpt>
      <trkpt lat="39.833479" lon="16.170137">
        <ele>510.945931</ele>
        <time>2023-12-03T19:39:42.363Z</time>
      </trkpt>
      <trkpt lat="39.833574" lon="16.170490">
        <ele>511.606695</ele>
        <time>2023-12-03T19:39:52.416Z</time>
      </trkpt>
      <trkpt lat="39.833599" lon="16.170706">
        <ele>511.992571</ele>
        <time>2023-12-03T19:39:58.081Z</time>
      </trkpt>
      <trkpt lat="39.833587" lon="16.170930">
        <ele>512.358155</ele>
        <time>2023-12-03T19:40:03.819Z</time>
      </trkpt>
      <trkpt lat="39.833503" lon="16.171295">
        <ele>512.911596</ele>
        <time>2023-12-03T19:40:13.301Z</time>
      </trkpt>
      <trkpt lat="39.833009" lon="16.173035">
        <ele>515.606065</ele>
        <time>2023-12-03T19:40:51.740Z</time>
      </trkpt>
      <trkpt lat="39.832894" lon="16.173710">
        <ele>516.187676</ele>
        <time>2023-12-03T19:41:03.160Z</time>
      </trkpt>
      <trkpt lat="39.832904" lon="16.174228">
        <ele>516.620239</ele>
        <time>2023-12-03T19:41:12.060Z</time>
      </trkpt>
      <trkpt lat="39.832969" lon="16.174661">
        <ele>516.988549</ele>
        <time>2023-12-03T19:41:20.091Z</time>
      </trkpt>
      <trkpt lat="39.833400" lon="16.176033">
        <ele>519.350096</ele>
        <time>2023-12-03T19:41:50.788Z</time>
      </trkpt>
      <trkpt lat="39.833998" lon="16.177704">
        <ele>523.368891</ele>
        <time>2023-12-03T19:42:39.745Z</time>
      </trkpt>
      <trkpt lat="39.834083" lon="16.178010">
        <ele>523.919681</ele>
        <time>2023-12-03T19:42:49.018Z</time>
      </trkpt>
      <trkpt lat="39.834124" lon="16.178480">
        <ele>524.720333</ele>
        <time>2023-12-03T19:43:02.254Z</time>
      </trkpt>
      <trkpt lat="39.834101" lon="16.178735">
        <ele>525.154920</ele>
        <time>2023-12-03T19:43:09.234Z</time>
      </trkpt>
      <trkpt lat="39.833830" lon="16.179726">
        <ele>526.675649</ele>
        <time>2023-12-03T19:43:28.841Z</time>
      </trkpt>
      <trkpt lat="39.833779" lon="16.179998">
        <ele>525.691208</ele>
        <time>2023-12-03T19:43:32.317Z</time>
      </trkpt>
      <trkpt lat="39.833745" lon="16.180521">
        <ele>523.845774</ele>
        <time>2023-12-03T19:43:38.112Z</time>
      </trkpt>
      <trkpt lat="39.833736" lon="16.180666">
        <ele>523.334294</ele>
        <time>2023-12-03T19:43:39.606Z</time>
      </trkpt>
      <trkpt lat="39.833680" lon="16.181239">
        <ele>521.303387</ele>
        <time>2023-12-03T19:43:45.516Z</time>
      </trkpt>
      <trkpt lat="39.833598" lon="16.181664">
        <ele>519.762649</ele>
        <time>2023-12-03T19:43:49.901Z</time>
      </trkpt>
      <trkpt lat="39.833513" lon="16.181908">
        <ele>518.820599</ele>
        <time>2023-12-03T19:43:52.550Z</time>
      </trkpt>
      <trkpt lat="39.833406" lon="16.182131">
        <ele>517.216406</ele>
        <time>2023-12-03T19:43:55.102Z</time>
      </trkpt>
      <trkpt lat="39.833117" lon="16.182534">
        <ele>513.446663</ele>
        <time>2023-12-03T19:44:00.366Z</time>
      </trkpt>
      <trkpt lat="39.832317" lon="16.183452">
        <ele>503.953680</ele>
        <time>2023-12-03T19:44:13.507Z</time>
      </trkpt>
      <trkpt lat="39.831058" lon="16.185142">
        <ele>485.963040</ele>
        <time>2023-12-03T19:44:35.523Z</time>
      </trkpt>
      <trkpt lat="39.830711" lon="16.185486">
        <ele>482.199389</ele>
        <time>2023-12-03T19:44:40.829Z</time>
      </trkpt>
      <trkpt lat="39.830447" lon="16.185683">
        <ele>479.782068</ele>
        <time>2023-12-03T19:44:44.565Z</time>
      </trkpt>
      <trkpt lat="39.830183" lon="16.185822">
        <ele>477.519752</ele>
        <time>2023-12-03T19:44:48.108Z</time>
      </trkpt>
      <trkpt lat="39.829763" lon="16.185962">
        <ele>474.075458</ele>
        <time>2023-12-03T19:44:53.584Z</time>
      </trkpt>
      <trkpt lat="39.828375" lon="16.186235">
        <ele>466.239990</ele>
        <time>2023-12-03T19:45:12.348Z</time>
      </trkpt>
      <trkpt lat="39.828122" lon="16.186325">
        <ele>465.100295</ele>
        <time>2023-12-03T19:45:16.066Z</time>
      </trkpt>
      <trkpt lat="39.826501" lon="16.186906">
        <ele>459.181630</ele>
        <time>2023-12-03T19:45:40.969Z</time>
      </trkpt>
      <trkpt lat="39.826097" lon="16.187185">
        <ele>457.789332</ele>
        <time>2023-12-03T19:45:47.792Z</time>
      </trkpt>
      <trkpt lat="39.825812" lon="16.187576">
        <ele>456.197097</ele>
        <time>2023-12-03T19:45:53.812Z</time>
      </trkpt>
      <trkpt lat="39.825602" lon="16.188022">
        <ele>454.015595</ele>
        <time>2023-12-03T19:45:59.502Z</time>
      </trkpt>
      <trkpt lat="39.825413" lon="16.189041">
        <ele>449.644247</ele>
        <time>2023-12-03T19:46:10.283Z</time>
      </trkpt>
      <trkpt lat="39.825125" lon="16.189594">
        <ele>446.711970</ele>
        <time>2023-12-03T19:46:16.776Z</time>
      </trkpt>
      <trkpt lat="39.824968" lon="16.190102">
        <ele>443.412659</ele>
        <time>2023-12-03T19:46:22.038Z</time>
      </trkpt>
      <trkpt lat="39.824721" lon="16.190645">
        <ele>439.610189</ele>
        <time>2023-12-03T19:46:28.083Z</time>
      </trkpt>
      <trkpt lat="39.824498" lon="16.191069">
        <ele>436.513885</ele>
        <time>2023-12-03T19:46:33.002Z</time>
      </trkpt>
      <trkpt lat="39.822303" lon="16.193038">
        <ele>417.856001</ele>
        <time>2023-12-03T19:47:07.224Z</time>
      </trkpt>
      <trkpt lat="39.821412" lon="16.193820">
        <ele>411.005952</ele>
        <time>2023-12-03T19:47:21.181Z</time>
      </trkpt>
      <trkpt lat="39.821058" lon="16.194091">
        <ele>408.580569</ele>
        <time>2023-12-03T19:47:26.549Z</time>
      </trkpt>
      <trkpt lat="39.820055" lon="16.194745">
        <ele>403.305190</ele>
        <time>2023-12-03T19:47:41.739Z</time>
      </trkpt>
      <trkpt lat="39.820214" lon="16.195160">
        <ele>401.630045</ele>
        <time>2023-12-03T19:47:46.720Z</time>
      </trkpt>
      <trkpt lat="39.820291" lon="16.195366">
        <ele>400.802530</ele>
        <time>2023-12-03T19:47:49.242Z</time>
      </trkpt>
      <trkpt lat="39.820366" lon="16.195570">
        <ele>400.247503</ele>
        <time>2023-12-03T19:47:51.725Z</time>
      </trkpt>
      <trkpt lat="39.820433" lon="16.195750">
        <ele>399.804195</ele>
        <time>2023-12-03T19:47:54.005Z</time>
      </trkpt>
      <trkpt lat="39.819547" lon="16.196435">
        <ele>396.830806</ele>
        <time>2023-12-03T19:48:04.945Z</time>
      </trkpt>
      <trkpt lat="39.819268" lon="16.196655">
        <ele>395.889593</ele>
        <time>2023-12-03T19:48:08.373Z</time>
      </trkpt>
      <trkpt lat="39.818748" lon="16.197061">
        <ele>393.718299</ele>
        <time>2023-12-03T19:48:14.513Z</time>
      </trkpt>
      <trkpt lat="39.818398" lon="16.197333">
        <ele>392.170123</ele>
        <time>2023-12-03T19:48:18.508Z</time>
      </trkpt>
      <trkpt lat="39.818231" lon="16.197462">
        <ele>391.432589</ele>
        <time>2023-12-03T19:48:20.406Z</time>
      </trkpt>
      <trkpt lat="39.818200" lon="16.197485">
        <ele>391.297069</ele>
        <time>2023-12-03T19:48:20.756Z</time>
      </trkpt>
      <trkpt lat="39.817689" lon="16.197869">
        <ele>389.056103</ele>
        <time>2023-12-03T19:48:26.534Z</time>
      </trkpt>
      <trkpt lat="39.817231" lon="16.198237">
        <ele>386.603729</ele>
        <time>2023-12-03T19:48:31.672Z</time>
      </trkpt>
      <trkpt lat="39.816895" lon="16.198495">
        <ele>384.751027</ele>
        <time>2023-12-03T19:48:35.335Z</time>
      </trkpt>
      <trkpt lat="39.816728" lon="16.198623">
        <ele>383.830619</ele>
        <time>2023-12-03T19:48:37.140Z</time>
      </trkpt>
      <trkpt lat="39.816428" lon="16.198853">
        <ele>382.177079</ele>
        <time>2023-12-03T19:48:40.391Z</time>
      </trkpt>
      <trkpt lat="39.816318" lon="16.198941">
        <ele>381.563885</ele>
        <time>2023-12-03T19:48:41.600Z</time>
      </trkpt>
      <trkpt lat="39.816220" lon="16.199015">
        <ele>381.025814</ele>
        <time>2023-12-03T19:48:42.684Z</time>
      </trkpt>
      <trkpt lat="39.815435" lon="16.199616">
        <ele>377.922369</ele>
        <time>2023-12-03T19:48:51.573Z</time>
      </trkpt>
      <trkpt lat="39.815268" lon="16.199744">
        <ele>377.332853</ele>
        <time>2023-12-03T19:48:53.541Z</time>
      </trkpt>
      <trkpt lat="39.815177" lon="16.199519">
        <ele>376.738692</ele>
        <time>2023-12-03T19:48:55.480Z</time>
      </trkpt>
      <trkpt lat="39.814464" lon="16.197974">
        <ele>375.864716</ele>
        <time>2023-12-03T19:49:11.008Z</time>
      </trkpt>
      <trkpt lat="39.814162" lon="16.197339">
        <ele>376.892572</ele>
        <time>2023-12-03T19:49:26.483Z</time>
      </trkpt>
      <trkpt lat="39.814126" lon="16.197200">
        <ele>377.094450</ele>
        <time>2023-12-03T19:49:30.333Z</time>
      </trkpt>
      <trkpt lat="39.814124" lon="16.197041">
        <ele>377.313300</ele>
        <time>2023-12-03T19:49:34.127Z</time>
      </trkpt>
      <trkpt lat="39.814179" lon="16.196359">
        <ele>379.212786</ele>
        <time>2023-12-03T19:49:52.573Z</time>
      </trkpt>
      <trkpt lat="39.814237" lon="16.196010">
        <ele>380.858576</ele>
        <time>2023-12-03T19:50:02.768Z</time>
      </trkpt>
      <trkpt lat="39.814456" lon="16.195495">
        <ele>383.571727</ele>
        <time>2023-12-03T19:50:21.006Z</time>
      </trkpt>
      <trkpt lat="39.814901" lon="16.194444">
        <ele>388.994911</ele>
        <time>2023-12-03T19:50:59.318Z</time>
      </trkpt>
      <trkpt lat="39.814978" lon="16.194019">
        <ele>390.534608</ele>
        <time>2023-12-03T19:51:12.098Z</time>
      </trkpt>
      <trkpt lat="39.814999" lon="16.193642">
        <ele>391.867421</ele>
        <time>2023-12-03T19:51:23.284Z</time>
      </trkpt>
      <trkpt lat="39.815061" lon="16.192484">
        <ele>395.960496</ele>
        <time>2023-12-03T19:51:51.024Z</time>
      </trkpt>
      <trkpt lat="39.815094" lon="16.192361">
        <ele>396.419895</ele>
        <time>2023-12-03T19:51:53.392Z</time>
      </trkpt>
      <trkpt lat="39.815207" lon="16.192152">
        <ele>397.210277</ele>
        <time>2023-12-03T19:51:58.281Z</time>
      </trkpt>
      <trkpt lat="39.815487" lon="16.191887">
        <ele>398.381603</ele>
        <time>2023-12-03T19:52:06.687Z</time>
      </trkpt>
      <trkpt lat="39.815522" lon="16.191796">
        <ele>398.646111</ele>
        <time>2023-12-03T19:52:08.680Z</time>
      </trkpt>
      <trkpt lat="39.815518" lon="16.191696">
        <ele>398.906368</ele>
        <time>2023-12-03T19:52:10.684Z</time>
      </trkpt>
      <trkpt lat="39.815453" lon="16.191570">
        <ele>399.300851</ele>
        <time>2023-12-03T19:52:13.868Z</time>
      </trkpt>
      <trkpt lat="39.815389" lon="16.191527">
        <ele>399.544544</ele>
        <time>2023-12-03T19:52:15.923Z</time>
      </trkpt>
      <trkpt lat="39.814633" lon="16.191328">
        <ele>402.154379</ele>
        <time>2023-12-03T19:52:39.203Z</time>
      </trkpt>
      <trkpt lat="39.814583" lon="16.191288">
        <ele>402.352953</ele>
        <time>2023-12-03T19:52:41.063Z</time>
      </trkpt>
      <trkpt lat="39.814519" lon="16.191162">
        <ele>402.745564</ele>
        <time>2023-12-03T19:52:44.590Z</time>
      </trkpt>
      <trkpt lat="39.814521" lon="16.191010">
        <ele>403.165202</ele>
        <time>2023-12-03T19:52:48.107Z</time>
      </trkpt>
      <trkpt lat="39.814729" lon="16.189850">
        <ele>406.750743</ele>
        <time>2023-12-03T19:53:13.841Z</time>
      </trkpt>
      <trkpt lat="39.814710" lon="16.189715">
        <ele>407.163865</ele>
        <time>2023-12-03T19:53:17.158Z</time>
      </trkpt>
      <trkpt lat="39.814629" lon="16.189627">
        <ele>407.577286</ele>
        <time>2023-12-03T19:53:20.558Z</time>
      </trkpt>
      <trkpt lat="39.814259" lon="16.189463">
        <ele>409.108948</ele>
        <time>2023-12-03T19:53:34.009Z</time>
      </trkpt>
      <trkpt lat="39.814164" lon="16.189378">
        <ele>409.560672</ele>
        <time>2023-12-03T19:53:37.971Z</time>
      </trkpt>
      <trkpt lat="39.814031" lon="16.189064">
        <ele>410.690804</ele>
        <time>2023-12-03T19:53:47.005Z</time>
      </trkpt>
      <trkpt lat="39.813929" lon="16.188954">
        <ele>411.253346</ele>
        <time>2023-12-03T19:53:50.701Z</time>
      </trkpt>
      <trkpt lat="39.813511" lon="16.188856">
        <ele>413.057224</ele>
        <time>2023-12-03T19:54:03.176Z</time>
      </trkpt>
      <trkpt lat="39.813417" lon="16.188786">
        <ele>413.517159</ele>
        <time>2023-12-03T19:54:06.539Z</time>
      </trkpt>
      <trkpt lat="39.813346" lon="16.188681">
        <ele>413.973530</ele>
        <time>2023-12-03T19:54:09.708Z</time>
      </trkpt>
      <trkpt lat="39.813092" lon="16.187914">
        <ele>416.698436</ele>
        <time>2023-12-03T19:54:30.275Z</time>
      </trkpt>
      <trkpt lat="39.813038" lon="16.187690">
        <ele>417.464361</ele>
        <time>2023-12-03T19:54:36.295Z</time>
      </trkpt>
      <trkpt lat="39.813038" lon="16.187552">
        <ele>417.936604</ele>
        <time>2023-12-03T19:54:39.939Z</time>
      </trkpt>
      <trkpt lat="39.813094" lon="16.187302">
        <ele>418.863710</ele>
        <time>2023-12-03T19:54:46.862Z</time>
      </trkpt>
      <trkpt lat="39.813185" lon="16.187213">
        <ele>419.391232</ele>
        <time>2023-12-03T19:54:50.762Z</time>
      </trkpt>
      <trkpt lat="39.813298" lon="16.187204">
        <ele>419.915939</ele>
        <time>2023-12-03T19:54:54.815Z</time>
      </trkpt>
      <trkpt lat="39.814180" lon="16.187345">
        <ele>424.034505</ele>
        <time>2023-12-03T19:55:25.414Z</time>
      </trkpt>
      <trkpt lat="39.814284" lon="16.187294">
        <ele>424.549582</ele>
        <time>2023-12-03T19:55:29.212Z</time>
      </trkpt>
      <trkpt lat="39.814324" lon="16.187243">
        <ele>424.809072</ele>
        <time>2023-12-03T19:55:31.282Z</time>
      </trkpt>
      <trkpt lat="39.814459" lon="16.186596">
        <ele>426.372919</ele>
        <time>2023-12-03T19:55:48.090Z</time>
      </trkpt>
      <trkpt lat="39.814589" lon="16.186356">
        <ele>426.693204</ele>
        <time>2023-12-03T19:55:54.011Z</time>
      </trkpt>
      <trkpt lat="39.815123" lon="16.185719">
        <ele>427.721555</ele>
        <time>2023-12-03T19:56:08.024Z</time>
      </trkpt>
      <trkpt lat="39.815263" lon="16.185023">
        <ele>428.506215</ele>
        <time>2023-12-03T19:56:15.554Z</time>
      </trkpt>
      <trkpt lat="39.815198" lon="16.184744">
        <ele>428.350640</ele>
        <time>2023-12-03T19:56:18.370Z</time>
      </trkpt>
      <trkpt lat="39.815113" lon="16.184555">
        <ele>428.156002</ele>
        <time>2023-12-03T19:56:20.385Z</time>
      </trkpt>
      <trkpt lat="39.815113" lon="16.184373">
        <ele>427.994258</ele>
        <time>2023-12-03T19:56:22.090Z</time>
      </trkpt>
      <trkpt lat="39.815647" lon="16.183646">
        <ele>427.100307</ele>
        <time>2023-12-03T19:56:31.340Z</time>
      </trkpt>
      <trkpt lat="39.815782" lon="16.183314">
        <ele>426.766466</ele>
        <time>2023-12-03T19:56:34.637Z</time>
      </trkpt>
      <trkpt lat="39.815842" lon="16.183009">
        <ele>426.486665</ele>
        <time>2023-12-03T19:56:37.408Z</time>
      </trkpt>
      <trkpt lat="39.815976" lon="16.182755">
        <ele>425.980468</ele>
        <time>2023-12-03T19:56:40.182Z</time>
      </trkpt>
      <trkpt lat="39.816221" lon="16.182599">
        <ele>425.392776</ele>
        <time>2023-12-03T19:56:43.240Z</time>
      </trkpt>
      <trkpt lat="39.816599" lon="16.182565">
        <ele>424.576308</ele>
        <time>2023-12-03T19:56:47.502Z</time>
      </trkpt>
      <trkpt lat="39.816674" lon="16.182495">
        <ele>424.377457</ele>
        <time>2023-12-03T19:56:48.620Z</time>
      </trkpt>
      <trkpt lat="39.816768" lon="16.182116">
        <ele>423.718275</ele>
        <time>2023-12-03T19:56:51.893Z</time>
      </trkpt>
      <trkpt lat="39.816816" lon="16.181866">
        <ele>423.291764</ele>
        <time>2023-12-03T19:56:53.977Z</time>
      </trkpt>
      <trkpt lat="39.817130" lon="16.180734">
        <ele>420.482749</ele>
        <time>2023-12-03T19:57:03.344Z</time>
      </trkpt>
      <trkpt lat="39.817320" lon="16.180377">
        <ele>419.314445</ele>
        <time>2023-12-03T19:57:06.514Z</time>
      </trkpt>
      <trkpt lat="39.817688" lon="16.179904">
        <ele>417.503438</ele>
        <time>2023-12-03T19:57:11.685Z</time>
      </trkpt>
      <trkpt lat="39.817758" lon="16.179781">
        <ele>417.091657</ele>
        <time>2023-12-03T19:57:12.891Z</time>
      </trkpt>
      <trkpt lat="39.817791" lon="16.179636">
        <ele>416.684860</ele>
        <time>2023-12-03T19:57:14.099Z</time>
      </trkpt>
      <trkpt lat="39.817789" lon="16.178946">
        <ele>414.915923</ele>
        <time>2023-12-03T19:57:19.431Z</time>
      </trkpt>
      <trkpt lat="39.817830" lon="16.178845">
        <ele>414.626737</ele>
        <time>2023-12-03T19:57:20.301Z</time>
      </trkpt>
      <trkpt lat="39.817990" lon="16.178692">
        <ele>413.972459</ele>
        <time>2023-12-03T19:57:22.252Z</time>
      </trkpt>
      <trkpt lat="39.818318" lon="16.178452">
        <ele>412.732419</ele>
        <time>2023-12-03T19:57:25.908Z</time>
      </trkpt>
      <trkpt lat="39.818517" lon="16.178244">
        <ele>411.891354</ele>
        <time>2023-12-03T19:57:28.385Z</time>
      </trkpt>
      <trkpt lat="39.818837" lon="16.177815">
        <ele>410.378519</ele>
        <time>2023-12-03T19:57:33.290Z</time>
      </trkpt>
      <trkpt lat="39.818898" lon="16.177633">
        <ele>410.122839</ele>
        <time>2023-12-03T19:57:35.418Z</time>
      </trkpt>
      <trkpt lat="39.818910" lon="16.177505">
        <ele>409.956805</ele>
        <time>2023-12-03T19:57:36.484Z</time>
      </trkpt>
      <trkpt lat="39.818927" lon="16.176652">
        <ele>408.858128</ele>
        <time>2023-12-03T19:57:43.385Z</time>
      </trkpt>
      <trkpt lat="39.819007" lon="16.176437">
        <ele>408.550523</ele>
        <time>2023-12-03T19:57:45.163Z</time>
      </trkpt>
      <trkpt lat="39.819426" lon="16.176178">
        <ele>407.772974</ele>
        <time>2023-12-03T19:57:50.318Z</time>
      </trkpt>
      <trkpt lat="39.819454" lon="16.176111">
        <ele>407.674764</ele>
        <time>2023-12-03T19:57:51.033Z</time>
      </trkpt>
      <trkpt lat="39.819441" lon="16.175995">
        <ele>407.523824</ele>
        <time>2023-12-03T19:57:52.046Z</time>
      </trkpt>
      <trkpt lat="39.819246" lon="16.175625">
        <ele>408.258794</ele>
        <time>2023-12-03T19:57:58.843Z</time>
      </trkpt>
      <trkpt lat="39.819127" lon="16.175612">
        <ele>408.686915</ele>
        <time>2023-12-03T19:58:01.491Z</time>
      </trkpt>
      <trkpt lat="39.818807" lon="16.175719">
        <ele>409.871366</ele>
        <time>2023-12-03T19:58:12.299Z</time>
      </trkpt>
      <trkpt lat="39.818734" lon="16.175701">
        <ele>410.137727</ele>
        <time>2023-12-03T19:58:15.383Z</time>
      </trkpt>
      <trkpt lat="39.818697" lon="16.175639">
        <ele>410.353925</ele>
        <time>2023-12-03T19:58:18.275Z</time>
      </trkpt>
      <trkpt lat="39.818718" lon="16.175569">
        <ele>410.560858</ele>
        <time>2023-12-03T19:58:20.726Z</time>
      </trkpt>
      <trkpt lat="39.818794" lon="16.175536">
        <ele>410.848076</ele>
        <time>2023-12-03T19:58:23.887Z</time>
      </trkpt>
      <trkpt lat="39.818926" lon="16.175565">
        <ele>411.327995</ele>
        <time>2023-12-03T19:58:28.920Z</time>
      </trkpt>
      <trkpt lat="39.819066" lon="16.175523">
        <ele>411.843055</ele>
        <time>2023-12-03T19:58:34.554Z</time>
      </trkpt>
      <trkpt lat="39.819161" lon="16.175424">
        <ele>412.279299</ele>
        <time>2023-12-03T19:58:37.932Z</time>
      </trkpt>
      <trkpt lat="39.819231" lon="16.175203">
        <ele>412.937553</ele>
        <time>2023-12-03T19:58:43.073Z</time>
      </trkpt>
      <trkpt lat="39.819386" lon="16.174098">
        <ele>415.408078</ele>
        <time>2023-12-03T19:59:08.222Z</time>
      </trkpt>
      <trkpt lat="39.819356" lon="16.173974">
        <ele>415.665590</ele>
        <time>2023-12-03T19:59:10.716Z</time>
      </trkpt>
      <trkpt lat="39.819281" lon="16.173968">
        <ele>415.859372</ele>
        <time>2023-12-03T19:59:12.861Z</time>
      </trkpt>
      <trkpt lat="39.819241" lon="16.174117">
        <ele>416.172015</ele>
        <time>2023-12-03T19:59:16.453Z</time>
      </trkpt>
      <trkpt lat="39.819142" lon="16.174962">
        <ele>417.865126</ele>
        <time>2023-12-03T19:59:32.254Z</time>
      </trkpt>
      <trkpt lat="39.819007" lon="16.175242">
        <ele>418.519572</ele>
        <time>2023-12-03T19:59:36.842Z</time>
      </trkpt>
      <trkpt lat="39.818897" lon="16.175287">
        <ele>418.815244</ele>
        <time>2023-12-03T19:59:38.888Z</time>
      </trkpt>
      <trkpt lat="39.818692" lon="16.175274">
        <ele>419.341553</ele>
        <time>2023-12-03T19:59:41.689Z</time>
      </trkpt>
      <trkpt lat="39.818393" lon="16.175177">
        <ele>420.131729</ele>
        <time>2023-12-03T19:59:45.618Z</time>
      </trkpt>
      <trkpt lat="39.816745" lon="16.175547">
        <ele>426.749202</ele>
        <time>2023-12-03T20:00:35.568Z</time>
      </trkpt>
      <trkpt lat="39.816136" lon="16.175580">
        <ele>430.995464</ele>
        <time>2023-12-03T20:01:04.093Z</time>
      </trkpt>
      <trkpt lat="39.815962" lon="16.175450">
        <ele>432.393051</ele>
        <time>2023-12-03T20:01:14.013Z</time>
      </trkpt>
      <trkpt lat="39.815956" lon="16.175255">
        <ele>433.437332</ele>
        <time>2023-12-03T20:01:21.434Z</time>
      </trkpt>
      <trkpt lat="39.816196" lon="16.174806">
        <ele>436.519765</ele>
        <time>2023-12-03T20:01:43.092Z</time>
      </trkpt>
      <trkpt lat="39.817185" lon="16.173376">
        <ele>448.891386</ele>
        <time>2023-12-03T20:02:57.038Z</time>
      </trkpt>
      <trkpt lat="39.817220" lon="16.173071">
        <ele>450.793388</ele>
        <time>2023-12-03T20:03:07.249Z</time>
      </trkpt>
      <trkpt lat="39.817130" lon="16.172837">
        <ele>451.873046</ele>
        <time>2023-12-03T20:03:15.674Z</time>
      </trkpt>
      <trkpt lat="39.816496" lon="16.172310">
        <ele>455.913296</ele>
        <time>2023-12-03T20:03:43.912Z</time>
      </trkpt>
      <trkpt lat="39.815787" lon="16.172076">
        <ele>459.841960</ele>
        <time>2023-12-03T20:04:06.982Z</time>
      </trkpt>
      <trkpt lat="39.814544" lon="16.171764">
        <ele>465.351174</ele>
        <time>2023-12-03T20:04:46.311Z</time>
      </trkpt>
      <trkpt lat="39.814429" lon="16.171667">
        <ele>465.937202</ele>
        <time>2023-12-03T20:04:50.765Z</time>
      </trkpt>
      <trkpt lat="39.814407" lon="16.171579">
        <ele>466.241212</ele>
        <time>2023-12-03T20:04:53.045Z</time>
      </trkpt>
      <trkpt lat="39.814444" lon="16.171498">
        <ele>466.550798</ele>
        <time>2023-12-03T20:04:55.365Z</time>
      </trkpt>
      <trkpt lat="39.814514" lon="16.171446">
        <ele>466.895476</ele>
        <time>2023-12-03T20:04:57.950Z</time>
      </trkpt>
      <trkpt lat="39.814733" lon="16.171355">
        <ele>467.878629</ele>
        <time>2023-12-03T20:05:05.564Z</time>
      </trkpt>
      <trkpt lat="39.816406" lon="16.170809">
        <ele>476.584792</ele>
        <time>2023-12-03T20:06:06.472Z</time>
      </trkpt>
      <trkpt lat="39.816457" lon="16.170740">
        <ele>476.957029</ele>
        <time>2023-12-03T20:06:09.151Z</time>
      </trkpt>
      <trkpt lat="39.816439" lon="16.170639">
        <ele>477.390950</ele>
        <time>2023-12-03T20:06:12.036Z</time>
      </trkpt>
      <trkpt lat="39.816401" lon="16.170607">
        <ele>477.647695</ele>
        <time>2023-12-03T20:06:13.687Z</time>
      </trkpt>
      <trkpt lat="39.816266" lon="16.170609">
        <ele>478.413620</ele>
        <time>2023-12-03T20:06:18.540Z</time>
      </trkpt>
      <trkpt lat="39.815804" lon="16.170501">
        <ele>481.076528</ele>
        <time>2023-12-03T20:06:35.598Z</time>
      </trkpt>
      <trkpt lat="39.815604" lon="16.170398">
        <ele>482.296706</ele>
        <time>2023-12-03T20:06:43.447Z</time>
      </trkpt>
      <trkpt lat="39.814883" lon="16.169884">
        <ele>486.960141</ele>
        <time>2023-12-03T20:07:15.761Z</time>
      </trkpt>
      <trkpt lat="39.814389" lon="16.169748">
        <ele>489.149495</ele>
        <time>2023-12-03T20:07:36.110Z</time>
      </trkpt>
      <trkpt lat="39.814285" lon="16.169697">
        <ele>489.610776</ele>
        <time>2023-12-03T20:07:39.971Z</time>
      </trkpt>
      <trkpt lat="39.813835" lon="16.169285">
        <ele>491.894230</ele>
        <time>2023-12-03T20:07:54.750Z</time>
      </trkpt>
      <trkpt lat="39.813550" lon="16.169061">
        <ele>493.276044</ele>
        <time>2023-12-03T20:08:03.293Z</time>
      </trkpt>
      <trkpt lat="39.813330" lon="16.168996">
        <ele>494.212417</ele>
        <time>2023-12-03T20:08:09.371Z</time>
      </trkpt>
      <trkpt lat="39.813135" lon="16.169096">
        <ele>495.126916</ele>
        <time>2023-12-03T20:08:15.373Z</time>
      </trkpt>
      <trkpt lat="39.812922" lon="16.169316">
        <ele>496.418862</ele>
        <time>2023-12-03T20:08:24.035Z</time>
      </trkpt>
      <trkpt lat="39.812765" lon="16.169427">
        <ele>497.267783</ele>
        <time>2023-12-03T20:08:29.704Z</time>
      </trkpt>
      <trkpt lat="39.812606" lon="16.169451">
        <ele>498.028355</ele>
        <time>2023-12-03T20:08:35.154Z</time>
      </trkpt>
      <trkpt lat="39.812439" lon="16.169369">
        <ele>498.876446</ele>
        <time>2023-12-03T20:08:41.006Z</time>
      </trkpt>
      <trkpt lat="39.812361" lon="16.169286">
        <ele>499.355133</ele>
        <time>2023-12-03T20:08:44.689Z</time>
      </trkpt>
      <trkpt lat="39.812304" lon="16.169152">
        <ele>499.914212</ele>
        <time>2023-12-03T20:08:48.615Z</time>
      </trkpt>
      <trkpt lat="39.812276" lon="16.169012">
        <ele>500.442242</ele>
        <time>2023-12-03T20:08:52.168Z</time>
      </trkpt>
      <trkpt lat="39.812312" lon="16.168651">
        <ele>501.770933</ele>
        <time>2023-12-03T20:09:01.719Z</time>
      </trkpt>
      <trkpt lat="39.812397" lon="16.168242">
        <ele>503.317435</ele>
        <time>2023-12-03T20:09:13.424Z</time>
      </trkpt>
      <trkpt lat="39.812382" lon="16.168146">
        <ele>503.659978</ele>
        <time>2023-12-03T20:09:16.271Z</time>
      </trkpt>
      <trkpt lat="39.812342" lon="16.168046">
        <ele>504.054028</ele>
        <time>2023-12-03T20:09:19.690Z</time>
      </trkpt>
      <trkpt lat="39.811529" lon="16.167124">
        <ele>508.959903</ele>
        <time>2023-12-03T20:10:08.317Z</time>
      </trkpt>
      <trkpt lat="39.811390" lon="16.167108">
        <ele>509.594815</ele>
        <time>2023-12-03T20:10:12.170Z</time>
      </trkpt>
      <trkpt lat="39.810961" lon="16.167284">
        <ele>511.421619</ele>
        <time>2023-12-03T20:10:19.439Z</time>
      </trkpt>
      <trkpt lat="39.810786" lon="16.167420">
        <ele>510.858118</ele>
        <time>2023-12-03T20:10:21.652Z</time>
      </trkpt>
      <trkpt lat="39.810584" lon="16.167735">
        <ele>509.986633</ele>
        <time>2023-12-03T20:10:24.750Z</time>
      </trkpt>
      <trkpt lat="39.810538" lon="16.167981">
        <ele>509.448912</ele>
        <time>2023-12-03T20:10:26.592Z</time>
      </trkpt>
      <trkpt lat="39.810561" lon="16.168542">
        <ele>508.255743</ele>
        <time>2023-12-03T20:10:30.710Z</time>
      </trkpt>
      <trkpt lat="39.810498" lon="16.168771">
        <ele>507.739134</ele>
        <time>2023-12-03T20:10:32.531Z</time>
      </trkpt>
      <trkpt lat="39.810425" lon="16.168843">
        <ele>507.485916</ele>
        <time>2023-12-03T20:10:33.444Z</time>
      </trkpt>
      <trkpt lat="39.810337" lon="16.168882">
        <ele>507.228899</ele>
        <time>2023-12-03T20:10:34.401Z</time>
      </trkpt>
      <trkpt lat="39.810218" lon="16.168887">
        <ele>506.899714</ele>
        <time>2023-12-03T20:10:35.631Z</time>
      </trkpt>
      <trkpt lat="39.809855" lon="16.168823">
        <ele>507.451763</ele>
        <time>2023-12-03T20:10:39.591Z</time>
      </trkpt>
      <trkpt lat="39.809689" lon="16.168762">
        <ele>508.132153</ele>
        <time>2023-12-03T20:10:41.829Z</time>
      </trkpt>
      <trkpt lat="39.809601" lon="16.168679">
        <ele>508.560811</ele>
        <time>2023-12-03T20:10:43.499Z</time>
      </trkpt>
      <trkpt lat="39.809525" lon="16.168540">
        <ele>509.077797</ele>
        <time>2023-12-03T20:10:46.043Z</time>
      </trkpt>
      <trkpt lat="39.809511" lon="16.168346">
        <ele>509.668233</ele>
        <time>2023-12-03T20:10:49.788Z</time>
      </trkpt>
      <trkpt lat="39.809537" lon="16.168211">
        <ele>510.089963</ele>
        <time>2023-12-03T20:10:52.671Z</time>
      </trkpt>
      <trkpt lat="39.809769" lon="16.167653">
        <ele>512.012552</ele>
        <time>2023-12-03T20:11:11.457Z</time>
      </trkpt>
      <trkpt lat="39.809769" lon="16.167653">
        <ele>512.012552</ele>
        <time>2023-12-03T20:11:11.471Z</time>
      </trkpt>
      <trkpt lat="39.809973" lon="16.166938">
        <ele>515.184327</ele>
        <time>2023-12-03T20:11:43.466Z</time>
      </trkpt>
      <trkpt lat="39.810068" lon="16.165856">
        <ele>522.558651</ele>
        <time>2023-12-03T20:12:32.429Z</time>
      </trkpt>
      <trkpt lat="39.810376" lon="16.165118">
        <ele>528.245810</ele>
        <time>2023-12-03T20:13:02.163Z</time>
      </trkpt>
      <trkpt lat="39.810403" lon="16.165001">
        <ele>529.073033</ele>
        <time>2023-12-03T20:13:05.759Z</time>
      </trkpt>
      <trkpt lat="39.810347" lon="16.164686">
        <ele>530.210109</ele>
        <time>2023-12-03T20:13:15.163Z</time>
      </trkpt>
      <trkpt lat="39.810220" lon="16.164431">
        <ele>531.051990</ele>
        <time>2023-12-03T20:13:23.268Z</time>
      </trkpt>
      <trkpt lat="39.810094" lon="16.164241">
        <ele>531.747333</ele>
        <time>2023-12-03T20:13:29.900Z</time>
      </trkpt>
      <trkpt lat="39.809885" lon="16.164160">
        <ele>532.533731</ele>
        <time>2023-12-03T20:13:36.912Z</time>
      </trkpt>
      <trkpt lat="39.809583" lon="16.164164">
        <ele>533.622875</ele>
        <time>2023-12-03T20:13:45.426Z</time>
      </trkpt>
      <trkpt lat="39.809361" lon="16.164160">
        <ele>534.423539</ele>
        <time>2023-12-03T20:13:51.041Z</time>
      </trkpt>
      <trkpt lat="39.809049" lon="16.164172">
        <ele>535.549179</ele>
        <time>2023-12-03T20:13:57.589Z</time>
      </trkpt>
      <trkpt lat="39.808847" lon="16.164179">
        <ele>536.000947</ele>
        <time>2023-12-03T20:14:00.961Z</time>
      </trkpt>
      <trkpt lat="39.808714" lon="16.164223">
        <ele>536.053675</ele>
        <time>2023-12-03T20:14:03.144Z</time>
      </trkpt>
      <trkpt lat="39.808499" lon="16.164330">
        <ele>536.142119</ele>
        <time>2023-12-03T20:14:06.582Z</time>
      </trkpt>
      <trkpt lat="39.807931" lon="16.165004">
        <ele>536.437435</ele>
        <time>2023-12-03T20:14:18.447Z</time>
      </trkpt>
      <trkpt lat="39.807699" lon="16.165278">
        <ele>536.557801</ele>
        <time>2023-12-03T20:14:23.596Z</time>
      </trkpt>
      <trkpt lat="39.807549" lon="16.165370">
        <ele>536.621514</ele>
        <time>2023-12-03T20:14:26.285Z</time>
      </trkpt>
      <trkpt lat="39.805698" lon="16.165794">
        <ele>536.447536</ele>
        <time>2023-12-03T20:14:55.285Z</time>
      </trkpt>
      <trkpt lat="39.804854" lon="16.166058">
        <ele>533.667535</ele>
        <time>2023-12-03T20:15:04.861Z</time>
      </trkpt>
      <trkpt lat="39.804403" lon="16.166292">
        <ele>532.082984</ele>
        <time>2023-12-03T20:15:09.609Z</time>
      </trkpt>
      <trkpt lat="39.804113" lon="16.166357">
        <ele>531.122581</ele>
        <time>2023-12-03T20:15:12.367Z</time>
      </trkpt>
      <trkpt lat="39.803812" lon="16.166345">
        <ele>529.796796</ele>
        <time>2023-12-03T20:15:15.141Z</time>
      </trkpt>
      <trkpt lat="39.803509" lon="16.166292">
        <ele>528.013354</ele>
        <time>2023-12-03T20:15:17.923Z</time>
      </trkpt>
      <trkpt lat="39.803190" lon="16.166155">
        <ele>526.053792</ele>
        <time>2023-12-03T20:15:20.962Z</time>
      </trkpt>
      <trkpt lat="39.803010" lon="16.166188">
        <ele>524.993396</ele>
        <time>2023-12-03T20:15:22.602Z</time>
      </trkpt>
      <trkpt lat="39.802700" lon="16.166377">
        <ele>522.996468</ele>
        <time>2023-12-03T20:15:25.718Z</time>
      </trkpt>
      <trkpt lat="39.802625" lon="16.166402">
        <ele>522.544837</ele>
        <time>2023-12-03T20:15:26.425Z</time>
      </trkpt>
      <trkpt lat="39.802523" lon="16.166386">
        <ele>521.945513</ele>
        <time>2023-12-03T20:15:27.376Z</time>
      </trkpt>
      <trkpt lat="39.802428" lon="16.166336">
        <ele>521.347741</ele>
        <time>2023-12-03T20:15:28.317Z</time>
      </trkpt>
      <trkpt lat="39.801968" lon="16.165890">
        <ele>520.021819</ele>
        <time>2023-12-03T20:15:33.758Z</time>
      </trkpt>
      <trkpt lat="39.801797" lon="16.165492">
        <ele>519.961850</ele>
        <time>2023-12-03T20:15:37.418Z</time>
      </trkpt>
      <trkpt lat="39.801712" lon="16.165364">
        <ele>519.939601</ele>
        <time>2023-12-03T20:15:38.913Z</time>
      </trkpt>
      <trkpt lat="39.801268" lon="16.164922">
        <ele>519.843920</ele>
        <time>2023-12-03T20:15:49.472Z</time>
      </trkpt>
      <trkpt lat="39.801206" lon="16.164834">
        <ele>519.828218</ele>
        <time>2023-12-03T20:15:51.930Z</time>
      </trkpt>
      <trkpt lat="39.801165" lon="16.164739">
        <ele>519.813888</ele>
        <time>2023-12-03T20:15:54.219Z</time>
      </trkpt>
      <trkpt lat="39.801111" lon="16.164223">
        <ele>520.917005</ele>
        <time>2023-12-03T20:16:07.757Z</time>
      </trkpt>
      <trkpt lat="39.801021" lon="16.164067">
        <ele>521.906719</ele>
        <time>2023-12-03T20:16:13.765Z</time>
      </trkpt>
      <trkpt lat="39.800943" lon="16.164036">
        <ele>522.445256</ele>
        <time>2023-12-03T20:16:17.152Z</time>
      </trkpt>
      <trkpt lat="39.799481" lon="16.164089">
        <ele>531.827420</ele>
        <time>2023-12-03T20:17:24.536Z</time>
      </trkpt>
      <trkpt lat="39.799389" lon="16.164105">
        <ele>532.065676</ele>
        <time>2023-12-03T20:17:28.196Z</time>
      </trkpt>
      <trkpt lat="39.799312" lon="16.164188">
        <ele>532.322310</ele>
        <time>2023-12-03T20:17:32.165Z</time>
      </trkpt>
      <trkpt lat="39.799160" lon="16.165113">
        <ele>534.187808</ele>
        <time>2023-12-03T20:17:52.884Z</time>
      </trkpt>
      <trkpt lat="39.799147" lon="16.165712">
        <ele>535.369598</ele>
        <time>2023-12-03T20:18:00.727Z</time>
      </trkpt>
      <trkpt lat="39.799113" lon="16.166053">
        <ele>536.047742</ele>
        <time>2023-12-03T20:18:04.236Z</time>
      </trkpt>
      <trkpt lat="39.798993" lon="16.166510">
        <ele>536.271785</ele>
        <time>2023-12-03T20:18:08.635Z</time>
      </trkpt>
      <trkpt lat="39.798834" lon="16.166667">
        <ele>536.273678</ele>
        <time>2023-12-03T20:18:11.004Z</time>
      </trkpt>
      <trkpt lat="39.798362" lon="16.166944">
        <ele>536.278589</ele>
        <time>2023-12-03T20:18:17.380Z</time>
      </trkpt>
      <trkpt lat="39.798205" lon="16.166992">
        <ele>536.280119</ele>
        <time>2023-12-03T20:18:19.596Z</time>
      </trkpt>
      <trkpt lat="39.798092" lon="16.166978">
        <ele>536.281196</ele>
        <time>2023-12-03T20:18:21.280Z</time>
      </trkpt>
      <trkpt lat="39.797939" lon="16.166904">
        <ele>536.282744</ele>
        <time>2023-12-03T20:18:23.973Z</time>
      </trkpt>
      <trkpt lat="39.797710" lon="16.166621">
        <ele>536.285739</ele>
        <time>2023-12-03T20:18:30.221Z</time>
      </trkpt>
      <trkpt lat="39.797448" lon="16.166363">
        <ele>537.437254</ele>
        <time>2023-12-03T20:18:37.883Z</time>
      </trkpt>
      <trkpt lat="39.797255" lon="16.166235">
        <ele>538.309573</ele>
        <time>2023-12-03T20:18:43.511Z</time>
      </trkpt>
      <trkpt lat="39.796232" lon="16.165906">
        <ele>542.553211</ele>
        <time>2023-12-03T20:19:16.860Z</time>
      </trkpt>
      <trkpt lat="39.796003" lon="16.165892">
        <ele>543.476437</ele>
        <time>2023-12-03T20:19:25.886Z</time>
      </trkpt>
      <trkpt lat="39.795748" lon="16.165926">
        <ele>545.362018</ele>
        <time>2023-12-03T20:19:36.955Z</time>
      </trkpt>
      <trkpt lat="39.795534" lon="16.165854">
        <ele>547.027793</ele>
        <time>2023-12-03T20:19:47.031Z</time>
      </trkpt>
      <trkpt lat="39.795373" lon="16.165614">
        <ele>548.872629</ele>
        <time>2023-12-03T20:19:58.501Z</time>
      </trkpt>
      <trkpt lat="39.795158" lon="16.164939">
        <ele>553.103681</ele>
        <time>2023-12-03T20:20:25.360Z</time>
      </trkpt>
      <trkpt lat="39.795018" lon="16.164613">
        <ele>555.266199</ele>
        <time>2023-12-03T20:20:38.835Z</time>
      </trkpt>
      <trkpt lat="39.794819" lon="16.164418">
        <ele>557.128564</ele>
        <time>2023-12-03T20:20:50.444Z</time>
      </trkpt>
      <trkpt lat="39.794464" lon="16.164197">
        <ele>559.344897</ele>
        <time>2023-12-03T20:21:08.271Z</time>
      </trkpt>
      <trkpt lat="39.794373" lon="16.164182">
        <ele>559.861509</ele>
        <time>2023-12-03T20:21:12.223Z</time>
      </trkpt>
      <trkpt lat="39.794299" lon="16.164216">
        <ele>560.303489</ele>
        <time>2023-12-03T20:21:15.550Z</time>
      </trkpt>
      <trkpt lat="39.794229" lon="16.164327">
        <ele>560.924903</ele>
        <time>2023-12-03T20:21:20.183Z</time>
      </trkpt>
      <trkpt lat="39.794165" lon="16.164665">
        <ele>562.431319</ele>
        <time>2023-12-03T20:21:30.596Z</time>
      </trkpt>
      <trkpt lat="39.794000" lon="16.164866">
        <ele>563.704168</ele>
        <time>2023-12-03T20:21:38.829Z</time>
      </trkpt>
      <trkpt lat="39.793602" lon="16.165218">
        <ele>566.414313</ele>
        <time>2023-12-03T20:21:54.283Z</time>
      </trkpt>
      <trkpt lat="39.793296" lon="16.165644">
        <ele>567.505091</ele>
        <time>2023-12-03T20:22:06.326Z</time>
      </trkpt>
      <trkpt lat="39.793005" lon="16.166118">
        <ele>567.947668</ele>
        <time>2023-12-03T20:22:15.830Z</time>
      </trkpt>
      <trkpt lat="39.792842" lon="16.166210">
        <ele>568.116340</ele>
        <time>2023-12-03T20:22:18.813Z</time>
      </trkpt>
      <trkpt lat="39.792752" lon="16.166181">
        <ele>568.204363</ele>
        <time>2023-12-03T20:22:20.248Z</time>
      </trkpt>
      <trkpt lat="39.792508" lon="16.166010">
        <ele>568.467459</ele>
        <time>2023-12-03T20:22:24.094Z</time>
      </trkpt>
      <trkpt lat="39.792387" lon="16.165958">
        <ele>568.588433</ele>
        <time>2023-12-03T20:22:25.847Z</time>
      </trkpt>
      <trkpt lat="39.792285" lon="16.165971">
        <ele>568.685732</ele>
        <time>2023-12-03T20:22:27.215Z</time>
      </trkpt>
      <trkpt lat="39.792207" lon="16.166011">
        <ele>568.765324</ele>
        <time>2023-12-03T20:22:28.376Z</time>
      </trkpt>
      <trkpt lat="39.792147" lon="16.166134">
        <ele>568.871603</ele>
        <time>2023-12-03T20:22:29.984Z</time>
      </trkpt>
      <trkpt lat="39.792110" lon="16.166677">
        <ele>569.037383</ele>
        <time>2023-12-03T20:22:35.201Z</time>
      </trkpt>
      <trkpt lat="39.792064" lon="16.166809">
        <ele>569.072479</ele>
        <time>2023-12-03T20:22:36.516Z</time>
      </trkpt>
      <trkpt lat="39.791994" lon="16.166950">
        <ele>569.113127</ele>
        <time>2023-12-03T20:22:38.271Z</time>
      </trkpt>
      <trkpt lat="39.791876" lon="16.167089">
        <ele>569.163282</ele>
        <time>2023-12-03T20:22:40.568Z</time>
      </trkpt>
      <trkpt lat="39.791730" lon="16.167148">
        <ele>569.211458</ele>
        <time>2023-12-03T20:22:42.548Z</time>
      </trkpt>
      <trkpt lat="39.791525" lon="16.167136">
        <ele>569.276125</ele>
        <time>2023-12-03T20:22:45.718Z</time>
      </trkpt>
      <trkpt lat="39.791185" lon="16.167063">
        <ele>569.384717</ele>
        <time>2023-12-03T20:22:51.056Z</time>
      </trkpt>
      <trkpt lat="39.791056" lon="16.167029">
        <ele>569.426194</ele>
        <time>2023-12-03T20:22:53.038Z</time>
      </trkpt>
      <trkpt lat="39.790897" lon="16.166899">
        <ele>569.485367</ele>
        <time>2023-12-03T20:22:57.001Z</time>
      </trkpt>
      <trkpt lat="39.790793" lon="16.166745">
        <ele>570.339513</ele>
        <time>2023-12-03T20:23:00.513Z</time>
      </trkpt>
      <trkpt lat="39.790743" lon="16.166530">
        <ele>571.344508</ele>
        <time>2023-12-03T20:23:05.224Z</time>
      </trkpt>
      <trkpt lat="39.790728" lon="16.165567">
        <ele>575.653831</ele>
        <time>2023-12-03T20:23:32.511Z</time>
      </trkpt>
      <trkpt lat="39.790613" lon="16.164949">
        <ele>578.498674</ele>
        <time>2023-12-03T20:23:55.726Z</time>
      </trkpt>
      <trkpt lat="39.790770" lon="16.163360">
        <ele>587.691046</ele>
        <time>2023-12-03T20:24:56.747Z</time>
      </trkpt>
      <trkpt lat="39.790754" lon="16.163238">
        <ele>588.441288</ele>
        <time>2023-12-03T20:25:01.161Z</time>
      </trkpt>
      <trkpt lat="39.790684" lon="16.163157">
        <ele>589.180245</ele>
        <time>2023-12-03T20:25:05.849Z</time>
      </trkpt>
      <trkpt lat="39.790607" lon="16.163148">
        <ele>589.790149</ele>
        <time>2023-12-03T20:25:09.734Z</time>
      </trkpt>
      <trkpt lat="39.790078" lon="16.163433">
        <ele>594.224518</ele>
        <time>2023-12-03T20:25:34.796Z</time>
      </trkpt>
      <trkpt lat="39.789805" lon="16.163592">
        <ele>595.334436</ele>
        <time>2023-12-03T20:25:46.391Z</time>
      </trkpt>
      <trkpt lat="39.789722" lon="16.163604">
        <ele>595.644341</ele>
        <time>2023-12-03T20:25:49.257Z</time>
      </trkpt>
      <trkpt lat="39.789635" lon="16.163586">
        <ele>595.971249</ele>
        <time>2023-12-03T20:25:52.479Z</time>
      </trkpt>
      <trkpt lat="39.789428" lon="16.163415">
        <ele>596.881109</ele>
        <time>2023-12-03T20:25:59.765Z</time>
      </trkpt>
      <trkpt lat="39.789276" lon="16.163429">
        <ele>597.446587</ele>
        <time>2023-12-03T20:26:04.220Z</time>
      </trkpt>
      <trkpt lat="39.789185" lon="16.163495">
        <ele>597.833186</ele>
        <time>2023-12-03T20:26:06.823Z</time>
      </trkpt>
      <trkpt lat="39.788926" lon="16.163956">
        <ele>599.461633</ele>
        <time>2023-12-03T20:26:16.835Z</time>
      </trkpt>
      <trkpt lat="39.788806" lon="16.164074">
        <ele>600.019778</ele>
        <time>2023-12-03T20:26:21.282Z</time>
      </trkpt>
      <trkpt lat="39.788656" lon="16.164184">
        <ele>600.658716</ele>
        <time>2023-12-03T20:26:25.453Z</time>
      </trkpt>
      <trkpt lat="39.787803" lon="16.164679">
        <ele>603.887845</ele>
        <time>2023-12-03T20:26:44.581Z</time>
      </trkpt>
      <trkpt lat="39.787678" lon="16.164684">
        <ele>604.318622</ele>
        <time>2023-12-03T20:26:46.284Z</time>
      </trkpt>
      <trkpt lat="39.787633" lon="16.164678">
        <ele>604.474440</ele>
        <time>2023-12-03T20:26:46.945Z</time>
      </trkpt>
      <trkpt lat="39.787618" lon="16.164594">
        <ele>604.702704</ele>
        <time>2023-12-03T20:26:49.109Z</time>
      </trkpt>
      <trkpt lat="39.787563" lon="16.164507">
        <ele>605.000901</ele>
        <time>2023-12-03T20:26:51.831Z</time>
      </trkpt>
      <trkpt lat="39.787409" lon="16.164338">
        <ele>605.694800</ele>
        <time>2023-12-03T20:26:58.390Z</time>
      </trkpt>
      <trkpt lat="39.787139" lon="16.164201">
        <ele>606.693034</ele>
        <time>2023-12-03T20:27:11.500Z</time>
      </trkpt>
      <trkpt lat="39.787026" lon="16.164191">
        <ele>607.175620</ele>
        <time>2023-12-03T20:27:17.385Z</time>
      </trkpt>
      <trkpt lat="39.786467" lon="16.164322">
        <ele>612.069927</ele>
        <time>2023-12-03T20:27:52.581Z</time>
      </trkpt>
      <trkpt lat="39.786349" lon="16.164311">
        <ele>613.089323</ele>
        <time>2023-12-03T20:28:00.049Z</time>
      </trkpt>
      <trkpt lat="39.786237" lon="16.164258">
        <ele>614.116239</ele>
        <time>2023-12-03T20:28:08.751Z</time>
      </trkpt>
      <trkpt lat="39.786114" lon="16.164139">
        <ele>615.436927</ele>
        <time>2023-12-03T20:28:18.860Z</time>
      </trkpt>
      <trkpt lat="39.785753" lon="16.163512">
        <ele>620.624711</ele>
        <time>2023-12-03T20:28:53.094Z</time>
      </trkpt>
      <trkpt lat="39.785522" lon="16.163210">
        <ele>622.784437</ele>
        <time>2023-12-03T20:29:07.097Z</time>
      </trkpt>
      <trkpt lat="39.785398" lon="16.163131">
        <ele>623.123836</ele>
        <time>2023-12-03T20:29:12.389Z</time>
      </trkpt>
      <trkpt lat="39.785286" lon="16.163127">
        <ele>623.399268</ele>
        <time>2023-12-03T20:29:16.133Z</time>
      </trkpt>
      <trkpt lat="39.785210" lon="16.163198">
        <ele>623.629256</ele>
        <time>2023-12-03T20:29:19.907Z</time>
      </trkpt>
      <trkpt lat="39.785201" lon="16.163350">
        <ele>623.917245</ele>
        <time>2023-12-03T20:29:24.282Z</time>
      </trkpt>
      <trkpt lat="39.785226" lon="16.163454">
        <ele>624.123097</ele>
        <time>2023-12-03T20:29:26.952Z</time>
      </trkpt>
      <trkpt lat="39.785350" lon="16.163737">
        <ele>624.738502</ele>
        <time>2023-12-03T20:29:34.044Z</time>
      </trkpt>
      <trkpt lat="39.785370" lon="16.163867">
        <ele>624.988953</ele>
        <time>2023-12-03T20:29:36.549Z</time>
      </trkpt>
      <trkpt lat="39.785344" lon="16.164113">
        <ele>625.458038</ele>
        <time>2023-12-03T20:29:40.856Z</time>
      </trkpt>
      <trkpt lat="39.785218" lon="16.164576">
        <ele>626.385902</ele>
        <time>2023-12-03T20:29:48.156Z</time>
      </trkpt>
      <trkpt lat="39.785113" lon="16.164838">
        <ele>626.947232</ele>
        <time>2023-12-03T20:29:52.437Z</time>
      </trkpt>
      <trkpt lat="39.785003" lon="16.164948">
        <ele>627.763518</ele>
        <time>2023-12-03T20:29:55.227Z</time>
      </trkpt>
      <trkpt lat="39.784869" lon="16.164997">
        <ele>628.582527</ele>
        <time>2023-12-03T20:29:58.360Z</time>
      </trkpt>
      <trkpt lat="39.784763" lon="16.164967">
        <ele>629.220824</ele>
        <time>2023-12-03T20:30:00.882Z</time>
      </trkpt>
      <trkpt lat="39.784636" lon="16.164832">
        <ele>630.185733</ele>
        <time>2023-12-03T20:30:05.542Z</time>
      </trkpt>
      <trkpt lat="39.784411" lon="16.164442">
        <ele>632.390853</ele>
        <time>2023-12-03T20:30:19.393Z</time>
      </trkpt>
      <trkpt lat="39.784358" lon="16.164271">
        <ele>633.224585</ele>
        <time>2023-12-03T20:30:25.784Z</time>
      </trkpt>
      <trkpt lat="39.784312" lon="16.164043">
        <ele>634.290471</ele>
        <time>2023-12-03T20:30:34.981Z</time>
      </trkpt>
      <trkpt lat="39.784329" lon="16.162715">
        <ele>641.537402</ele>
        <time>2023-12-03T20:31:43.258Z</time>
      </trkpt>
      <trkpt lat="39.784307" lon="16.162625">
        <ele>642.155756</ele>
        <time>2023-12-03T20:31:48.225Z</time>
      </trkpt>
      <trkpt lat="39.784249" lon="16.162581">
        <ele>642.727762</ele>
        <time>2023-12-03T20:31:52.744Z</time>
      </trkpt>
      <trkpt lat="39.784182" lon="16.162602">
        <ele>643.314932</ele>
        <time>2023-12-03T20:31:57.449Z</time>
      </trkpt>
      <trkpt lat="39.783862" lon="16.163064">
        <ele>647.387192</ele>
        <time>2023-12-03T20:32:26.271Z</time>
      </trkpt>
      <trkpt lat="39.783760" lon="16.163151">
        <ele>648.426286</ele>
        <time>2023-12-03T20:32:32.248Z</time>
      </trkpt>
      <trkpt lat="39.783668" lon="16.163171">
        <ele>649.220996</ele>
        <time>2023-12-03T20:32:36.562Z</time>
      </trkpt>
      <trkpt lat="39.783314" lon="16.163043">
        <ele>652.351375</ele>
        <time>2023-12-03T20:32:51.354Z</time>
      </trkpt>
      <trkpt lat="39.783209" lon="16.163034">
        <ele>652.888537</ele>
        <time>2023-12-03T20:32:55.010Z</time>
      </trkpt>
      <trkpt lat="39.783121" lon="16.163072">
        <ele>652.965287</ele>
        <time>2023-12-03T20:32:57.978Z</time>
      </trkpt>
      <trkpt lat="39.783036" lon="16.163251">
        <ele>653.099137</ele>
        <time>2023-12-03T20:33:02.587Z</time>
      </trkpt>
      <trkpt lat="39.782933" lon="16.163850">
        <ele>653.489593</ele>
        <time>2023-12-03T20:33:14.971Z</time>
      </trkpt>
      <trkpt lat="39.782863" lon="16.164038">
        <ele>653.622481</ele>
        <time>2023-12-03T20:33:18.815Z</time>
      </trkpt>
      <trkpt lat="39.782784" lon="16.164182">
        <ele>653.735029</ele>
        <time>2023-12-03T20:33:22.142Z</time>
      </trkpt>
      <trkpt lat="39.782581" lon="16.164385">
        <ele>653.946952</ele>
        <time>2023-12-03T20:33:27.706Z</time>
      </trkpt>
      <trkpt lat="39.782404" lon="16.164373">
        <ele>654.093666</ele>
        <time>2023-12-03T20:33:31.203Z</time>
      </trkpt>
      <trkpt lat="39.782315" lon="16.164300">
        <ele>654.180751</ele>
        <time>2023-12-03T20:33:33.083Z</time>
      </trkpt>
      <trkpt lat="39.781664" lon="16.163479">
        <ele>651.322589</ele>
        <time>2023-12-03T20:33:46.267Z</time>
      </trkpt>
      <trkpt lat="39.781621" lon="16.163434">
        <ele>651.090054</ele>
        <time>2023-12-03T20:33:46.994Z</time>
      </trkpt>
      <trkpt lat="39.781494" lon="16.163297">
        <ele>650.394881</ele>
        <time>2023-12-03T20:33:49.229Z</time>
      </trkpt>
      <trkpt lat="39.781256" lon="16.162856">
        <ele>648.649728</ele>
        <time>2023-12-03T20:33:54.766Z</time>
      </trkpt>
      <trkpt lat="39.781149" lon="16.162726">
        <ele>648.032835</ele>
        <time>2023-12-03T20:33:56.718Z</time>
      </trkpt>
      <trkpt lat="39.781041" lon="16.162696">
        <ele>647.567462</ele>
        <time>2023-12-03T20:33:58.212Z</time>
      </trkpt>
      <trkpt lat="39.780734" lon="16.162690">
        <ele>646.208949</ele>
        <time>2023-12-03T20:34:02.325Z</time>
      </trkpt>
      <trkpt lat="39.780454" lon="16.162631">
        <ele>644.854480</ele>
        <time>2023-12-03T20:34:06.117Z</time>
      </trkpt>
      <trkpt lat="39.780331" lon="16.162534">
        <ele>644.167684</ele>
        <time>2023-12-03T20:34:08.042Z</time>
      </trkpt>
      <trkpt lat="39.780231" lon="16.162378">
        <ele>643.422192</ele>
        <time>2023-12-03T20:34:10.127Z</time>
      </trkpt>
      <trkpt lat="39.780180" lon="16.162105">
        <ele>642.391174</ele>
        <time>2023-12-03T20:34:13.010Z</time>
      </trkpt>
      <trkpt lat="39.780368" lon="16.161034">
        <ele>638.359649</ele>
        <time>2023-12-03T20:34:24.685Z</time>
      </trkpt>
      <trkpt lat="39.780310" lon="16.160584">
        <ele>636.033284</ele>
        <time>2023-12-03T20:34:29.783Z</time>
      </trkpt>
      <trkpt lat="39.780261" lon="16.159753">
        <ele>631.632136</ele>
        <time>2023-12-03T20:34:38.637Z</time>
      </trkpt>
      <trkpt lat="39.780181" lon="16.159446">
        <ele>629.920301</ele>
        <time>2023-12-03T20:34:41.829Z</time>
      </trkpt>
      <trkpt lat="39.780130" lon="16.159334">
        <ele>629.232836</ele>
        <time>2023-12-03T20:34:43.104Z</time>
      </trkpt>
      <trkpt lat="39.779793" lon="16.159335">
        <ele>626.917173</ele>
        <time>2023-12-03T20:34:47.257Z</time>
      </trkpt>
      <trkpt lat="39.778912" lon="16.159344">
        <ele>614.675304</ele>
        <time>2023-12-03T20:34:57.689Z</time>
      </trkpt>
      <trkpt lat="39.778691" lon="16.159258">
        <ele>611.107948</ele>
        <time>2023-12-03T20:35:00.364Z</time>
      </trkpt>
      <trkpt lat="39.778642" lon="16.159350">
        <ele>609.777585</ele>
        <time>2023-12-03T20:35:01.356Z</time>
      </trkpt>
      <trkpt lat="39.778590" lon="16.159690">
        <ele>605.657347</ele>
        <time>2023-12-03T20:35:04.413Z</time>
      </trkpt>
      <trkpt lat="39.778546" lon="16.159735">
        <ele>604.791851</ele>
        <time>2023-12-03T20:35:05.057Z</time>
      </trkpt>
      <trkpt lat="39.778475" lon="16.159760">
        <ele>603.654336</ele>
        <time>2023-12-03T20:35:05.911Z</time>
      </trkpt>
      <trkpt lat="39.778349" lon="16.159736">
        <ele>601.684965</ele>
        <time>2023-12-03T20:35:07.359Z</time>
      </trkpt>
      <trkpt lat="39.778266" lon="16.159677">
        <ele>600.222307</ele>
        <time>2023-12-03T20:35:08.445Z</time>
      </trkpt>
      <trkpt lat="39.778146" lon="16.159486">
        <ele>597.178691</ele>
        <time>2023-12-03T20:35:10.641Z</time>
      </trkpt>
      <trkpt lat="39.778071" lon="16.159494">
        <ele>595.830815</ele>
        <time>2023-12-03T20:35:11.500Z</time>
      </trkpt>
      <trkpt lat="39.778010" lon="16.159554">
        <ele>594.461158</ele>
        <time>2023-12-03T20:35:12.381Z</time>
      </trkpt>
      <trkpt lat="39.777975" lon="16.159620">
        <ele>593.357330</ele>
        <time>2023-12-03T20:35:13.090Z</time>
      </trkpt>
      <trkpt lat="39.777994" lon="16.159843">
        <ele>590.268796</ele>
        <time>2023-12-03T20:35:15.086Z</time>
      </trkpt>
      <trkpt lat="39.778039" lon="16.159956">
        <ele>588.516858</ele>
        <time>2023-12-03T20:35:16.214Z</time>
      </trkpt>
      <trkpt lat="39.778171" lon="16.160156">
        <ele>584.887851</ele>
        <time>2023-12-03T20:35:18.561Z</time>
      </trkpt>
      <trkpt lat="39.778152" lon="16.160243">
        <ele>583.642832</ele>
        <time>2023-12-03T20:35:19.361Z</time>
      </trkpt>
      <trkpt lat="39.778125" lon="16.160252">
        <ele>583.143602</ele>
        <time>2023-12-03T20:35:19.685Z</time>
      </trkpt>
      <trkpt lat="39.777992" lon="16.160114">
        <ele>580.096678</ele>
        <time>2023-12-03T20:35:21.640Z</time>
      </trkpt>
      <trkpt lat="39.777660" lon="16.159996">
        <ele>573.932171</ele>
        <time>2023-12-03T20:35:25.609Z</time>
      </trkpt>
      <trkpt lat="39.777470" lon="16.160028">
        <ele>570.500577</ele>
        <time>2023-12-03T20:35:27.799Z</time>
      </trkpt>
      <trkpt lat="39.777402" lon="16.159987">
        <ele>569.158177</ele>
        <time>2023-12-03T20:35:28.660Z</time>
      </trkpt>
      <trkpt lat="39.777369" lon="16.159914">
        <ele>567.992331</ele>
        <time>2023-12-03T20:35:29.408Z</time>
      </trkpt>
      <trkpt lat="39.777355" lon="16.159717">
        <ele>565.452986</ele>
        <time>2023-12-03T20:35:31.146Z</time>
      </trkpt>
      <trkpt lat="39.777334" lon="16.159691">
        <ele>565.121388</ele>
        <time>2023-12-03T20:35:31.478Z</time>
      </trkpt>
      <trkpt lat="39.777192" lon="16.159689">
        <ele>563.496908</ele>
        <time>2023-12-03T20:35:33.117Z</time>
      </trkpt>
      <trkpt lat="39.777093" lon="16.159739">
        <ele>562.282095</ele>
        <time>2023-12-03T20:35:34.344Z</time>
      </trkpt>
      <trkpt lat="39.777009" lon="16.159741">
        <ele>561.321031</ele>
        <time>2023-12-03T20:35:35.312Z</time>
      </trkpt>
      <trkpt lat="39.776959" lon="16.159714">
        <ele>560.701764</ele>
        <time>2023-12-03T20:35:35.946Z</time>
      </trkpt>
      <trkpt lat="39.776454" lon="16.159600">
        <ele>554.838607</ele>
        <time>2023-12-03T20:35:42.012Z</time>
      </trkpt>
      <trkpt lat="39.776145" lon="16.159491">
        <ele>551.176258</ele>
        <time>2023-12-03T20:35:45.942Z</time>
      </trkpt>
      <trkpt lat="39.776098" lon="16.159589">
        <ele>550.160681</ele>
        <time>2023-12-03T20:35:47.035Z</time>
      </trkpt>
      <trkpt lat="39.776119" lon="16.159773">
        <ele>548.525268</ele>
        <time>2023-12-03T20:35:48.826Z</time>
      </trkpt>
      <trkpt lat="39.776359" lon="16.160173">
        <ele>545.081404</ele>
        <time>2023-12-03T20:35:54.091Z</time>
      </trkpt>
      <trkpt lat="39.776611" lon="16.160512">
        <ele>544.638655</ele>
        <time>2023-12-03T20:35:59.783Z</time>
      </trkpt>
      <trkpt lat="39.776889" lon="16.160801">
        <ele>544.204012</ele>
        <time>2023-12-03T20:36:07.426Z</time>
      </trkpt>
      <trkpt lat="39.777291" lon="16.161088">
        <ele>543.643918</ele>
        <time>2023-12-03T20:36:20.309Z</time>
      </trkpt>
      <trkpt lat="39.777601" lon="16.161465">
        <ele>543.125618</ele>
        <time>2023-12-03T20:36:30.882Z</time>
      </trkpt>
      <trkpt lat="39.777691" lon="16.161725">
        <ele>541.992566</ele>
        <time>2023-12-03T20:36:34.563Z</time>
      </trkpt>
      <trkpt lat="39.777621" lon="16.161855">
        <ele>540.972933</ele>
        <time>2023-12-03T20:36:36.362Z</time>
      </trkpt>
      <trkpt lat="39.777406" lon="16.161926">
        <ele>539.118938</ele>
        <time>2023-12-03T20:36:39.386Z</time>
      </trkpt>
      <trkpt lat="39.776682" lon="16.161718">
        <ele>532.921817</ele>
        <time>2023-12-03T20:36:48.377Z</time>
      </trkpt>
      <trkpt lat="39.776430" lon="16.161717">
        <ele>530.815529</ele>
        <time>2023-12-03T20:36:51.355Z</time>
      </trkpt>
      <trkpt lat="39.776262" lon="16.161764">
        <ele>529.379253</ele>
        <time>2023-12-03T20:36:53.391Z</time>
      </trkpt>
      <trkpt lat="39.775950" lon="16.161767">
        <ele>527.065531</ele>
        <time>2023-12-03T20:36:57.138Z</time>
      </trkpt>
      <trkpt lat="39.775745" lon="16.161620">
        <ele>525.588187</ele>
        <time>2023-12-03T20:36:59.989Z</time>
      </trkpt>
      <trkpt lat="39.775636" lon="16.161545">
        <ele>524.809957</ele>
        <time>2023-12-03T20:37:01.523Z</time>
      </trkpt>
      <trkpt lat="39.775479" lon="16.161544">
        <ele>523.819034</ele>
        <time>2023-12-03T20:37:03.521Z</time>
      </trkpt>
      <trkpt lat="39.775390" lon="16.161589">
        <ele>523.216385</ele>
        <time>2023-12-03T20:37:04.749Z</time>
      </trkpt>
      <trkpt lat="39.775334" lon="16.161692">
        <ele>522.604375</ele>
        <time>2023-12-03T20:37:06.016Z</time>
      </trkpt>
      <trkpt lat="39.775300" lon="16.161822">
        <ele>521.938260</ele>
        <time>2023-12-03T20:37:07.414Z</time>
      </trkpt>
      <trkpt lat="39.775378" lon="16.162324">
        <ele>519.453897</ele>
        <time>2023-12-03T20:37:12.847Z</time>
      </trkpt>
      <trkpt lat="39.775423" lon="16.162441">
        <ele>518.819255</ele>
        <time>2023-12-03T20:37:14.332Z</time>
      </trkpt>
      <trkpt lat="39.775491" lon="16.162505">
        <ele>518.289558</ele>
        <time>2023-12-03T20:37:15.516Z</time>
      </trkpt>
      <trkpt lat="39.775586" lon="16.162545">
        <ele>517.659349</ele>
        <time>2023-12-03T20:37:16.965Z</time>
      </trkpt>
      <trkpt lat="39.775870" lon="16.162581">
        <ele>516.063024</ele>
        <time>2023-12-03T20:37:21.342Z</time>
      </trkpt>
      <trkpt lat="39.776046" lon="16.162700">
        <ele>515.147385</ele>
        <time>2023-12-03T20:37:24.675Z</time>
      </trkpt>
      <trkpt lat="39.776161" lon="16.162952">
        <ele>514.107566</ele>
        <time>2023-12-03T20:37:28.456Z</time>
      </trkpt>
      <trkpt lat="39.776155" lon="16.163022">
        <ele>513.857671</ele>
        <time>2023-12-03T20:37:29.414Z</time>
      </trkpt>
      <trkpt lat="39.776101" lon="16.163086">
        <ele>513.520471</ele>
        <time>2023-12-03T20:37:31.032Z</time>
      </trkpt>
      <trkpt lat="39.776010" lon="16.163108">
        <ele>513.093188</ele>
        <time>2023-12-03T20:37:32.782Z</time>
      </trkpt>
      <trkpt lat="39.775663" lon="16.163048">
        <ele>511.477211</ele>
        <time>2023-12-03T20:37:37.980Z</time>
      </trkpt>
      <trkpt lat="39.775086" lon="16.163168">
        <ele>508.779731</ele>
        <time>2023-12-03T20:37:45.419Z</time>
      </trkpt>
      <trkpt lat="39.774886" lon="16.163061">
        <ele>506.935582</ele>
        <time>2023-12-03T20:37:48.076Z</time>
      </trkpt>
      <trkpt lat="39.774599" lon="16.162857">
        <ele>503.041602</ele>
        <time>2023-12-03T20:37:52.022Z</time>
      </trkpt>
      <trkpt lat="39.774463" lon="16.162864">
        <ele>501.420990</ele>
        <time>2023-12-03T20:37:53.639Z</time>
      </trkpt>
      <trkpt lat="39.774331" lon="16.162920">
        <ele>499.767833</ele>
        <time>2023-12-03T20:37:55.291Z</time>
      </trkpt>
      <trkpt lat="39.774139" lon="16.163107">
        <ele>496.912143</ele>
        <time>2023-12-03T20:37:58.130Z</time>
      </trkpt>
      <trkpt lat="39.774091" lon="16.163224">
        <ele>495.698442</ele>
        <time>2023-12-03T20:37:59.332Z</time>
      </trkpt>
      <trkpt lat="39.773967" lon="16.163523">
        <ele>492.589253</ele>
        <time>2023-12-03T20:38:02.412Z</time>
      </trkpt>
      <trkpt lat="39.773875" lon="16.163596">
        <ele>491.306178</ele>
        <time>2023-12-03T20:38:03.680Z</time>
      </trkpt>
      <trkpt lat="39.773755" lon="16.163570">
        <ele>489.857668</ele>
        <time>2023-12-03T20:38:05.125Z</time>
      </trkpt>
      <trkpt lat="39.773787" lon="16.163429">
        <ele>488.512240</ele>
        <time>2023-12-03T20:38:06.448Z</time>
      </trkpt>
      <trkpt lat="39.773911" lon="16.163195">
        <ele>486.116598</ele>
        <time>2023-12-03T20:38:09.038Z</time>
      </trkpt>
      <trkpt lat="39.773923" lon="16.163039">
        <ele>484.979727</ele>
        <time>2023-12-03T20:38:10.461Z</time>
      </trkpt>
      <trkpt lat="39.773835" lon="16.162977">
        <ele>484.035548</ele>
        <time>2023-12-03T20:38:11.643Z</time>
      </trkpt>
      <trkpt lat="39.773719" lon="16.163034">
        <ele>482.865654</ele>
        <time>2023-12-03T20:38:13.134Z</time>
      </trkpt>
      <trkpt lat="39.773404" lon="16.163429">
        <ele>478.738064</ele>
        <time>2023-12-03T20:38:18.448Z</time>
      </trkpt>
      <trkpt lat="39.773352" lon="16.163585">
        <ele>477.505028</ele>
        <time>2023-12-03T20:38:20.047Z</time>
      </trkpt>
      <trkpt lat="39.773236" lon="16.164646">
        <ele>469.889879</ele>
        <time>2023-12-03T20:38:30.493Z</time>
      </trkpt>
      <trkpt lat="39.773547" lon="16.165114">
        <ele>468.959486</ele>
        <time>2023-12-03T20:38:36.885Z</time>
      </trkpt>
      <trkpt lat="39.773604" lon="16.165395">
        <ele>468.522436</ele>
        <time>2023-12-03T20:38:40.078Z</time>
      </trkpt>
      <trkpt lat="39.773544" lon="16.166606">
        <ele>466.697500</ele>
        <time>2023-12-03T20:38:59.382Z</time>
      </trkpt>
      <trkpt lat="39.773348" lon="16.167209">
        <ele>465.678806</ele>
        <time>2023-12-03T20:39:13.414Z</time>
      </trkpt>
      <trkpt lat="39.773300" lon="16.167438">
        <ele>465.304413</ele>
        <time>2023-12-03T20:39:17.413Z</time>
      </trkpt>
      <trkpt lat="39.773364" lon="16.167646">
        <ele>464.951021</ele>
        <time>2023-12-03T20:39:20.616Z</time>
      </trkpt>
      <trkpt lat="39.773408" lon="16.167932">
        <ele>464.490966</ele>
        <time>2023-12-03T20:39:24.424Z</time>
      </trkpt>
      <trkpt lat="39.773176" lon="16.168395">
        <ele>463.619181</ele>
        <time>2023-12-03T20:39:30.794Z</time>
      </trkpt>
      <trkpt lat="39.772968" lon="16.168577">
        <ele>463.104769</ele>
        <time>2023-12-03T20:39:34.218Z</time>
      </trkpt>
      <trkpt lat="39.772848" lon="16.168603">
        <ele>462.855111</ele>
        <time>2023-12-03T20:39:35.855Z</time>
      </trkpt>
      <trkpt lat="39.772768" lon="16.168452">
        <ele>462.096020</ele>
        <time>2023-12-03T20:39:37.687Z</time>
      </trkpt>
      <trkpt lat="39.772720" lon="16.168156">
        <ele>460.166483</ele>
        <time>2023-12-03T20:39:40.680Z</time>
      </trkpt>
      <trkpt lat="39.772644" lon="16.168026">
        <ele>459.124697</ele>
        <time>2023-12-03T20:39:42.259Z</time>
      </trkpt>
      <trkpt lat="39.772353" lon="16.167937">
        <ele>456.643951</ele>
        <time>2023-12-03T20:39:46.007Z</time>
      </trkpt>
      <trkpt lat="39.772077" lon="16.167953">
        <ele>454.351236</ele>
        <time>2023-12-03T20:39:49.418Z</time>
      </trkpt>
      <trkpt lat="39.771689" lon="16.167735">
        <ele>450.843932</ele>
        <time>2023-12-03T20:39:54.581Z</time>
      </trkpt>
      <trkpt lat="39.771358" lon="16.167755">
        <ele>448.094100</ele>
        <time>2023-12-03T20:39:58.630Z</time>
      </trkpt>
      <trkpt lat="39.771170" lon="16.167865">
        <ele>446.450500</ele>
        <time>2023-12-03T20:40:01.160Z</time>
      </trkpt>
      <trkpt lat="39.770159" lon="16.168899">
        <ele>436.286006</ele>
        <time>2023-12-03T20:40:17.423Z</time>
      </trkpt>
      <trkpt lat="39.769707" lon="16.169035">
        <ele>432.594478</ele>
        <time>2023-12-03T20:40:23.398Z</time>
      </trkpt>
      <trkpt lat="39.769135" lon="16.169066">
        <ele>427.953319</ele>
        <time>2023-12-03T20:40:30.667Z</time>
      </trkpt>
      <trkpt lat="39.768628" lon="16.168894">
        <ele>423.705691</ele>
        <time>2023-12-03T20:40:37.241Z</time>
      </trkpt>
      <trkpt lat="39.768416" lon="16.168905">
        <ele>421.985665</ele>
        <time>2023-12-03T20:40:39.870Z</time>
      </trkpt>
      <trkpt lat="39.767685" lon="16.169196">
        <ele>415.476539</ele>
        <time>2023-12-03T20:40:49.311Z</time>
      </trkpt>
      <trkpt lat="39.766757" lon="16.169300">
        <ele>407.191485</ele>
        <time>2023-12-03T20:41:00.822Z</time>
      </trkpt>
      <trkpt lat="39.766570" lon="16.169409">
        <ele>405.368815</ele>
        <time>2023-12-03T20:41:03.378Z</time>
      </trkpt>
      <trkpt lat="39.766314" lon="16.169783">
        <ele>402.061522</ele>
        <time>2023-12-03T20:41:08.159Z</time>
      </trkpt>
      <trkpt lat="39.765410" lon="16.170121">
        <ele>394.623215</ele>
        <time>2023-12-03T20:41:19.978Z</time>
      </trkpt>
      <trkpt lat="39.765107" lon="16.170366">
        <ele>391.801951</ele>
        <time>2023-12-03T20:41:24.512Z</time>
      </trkpt>
      <trkpt lat="39.764951" lon="16.170652">
        <ele>389.670194</ele>
        <time>2023-12-03T20:41:27.919Z</time>
      </trkpt>
      <trkpt lat="39.764731" lon="16.171744">
        <ele>383.605909</ele>
        <time>2023-12-03T20:41:38.942Z</time>
      </trkpt>
      <trkpt lat="39.764599" lon="16.171995">
        <ele>382.004513</ele>
        <time>2023-12-03T20:41:41.946Z</time>
      </trkpt>
      <trkpt lat="39.764199" lon="16.172568">
        <ele>377.928752</ele>
        <time>2023-12-03T20:41:49.676Z</time>
      </trkpt>
      <trkpt lat="39.764105" lon="16.172806">
        <ele>376.519770</ele>
        <time>2023-12-03T20:41:52.373Z</time>
      </trkpt>
      <trkpt lat="39.764091" lon="16.172986">
        <ele>375.736301</ele>
        <time>2023-12-03T20:41:54.191Z</time>
      </trkpt>
      <trkpt lat="39.764193" lon="16.173432">
        <ele>373.754597</ele>
        <time>2023-12-03T20:41:58.877Z</time>
      </trkpt>
      <trkpt lat="39.764163" lon="16.173581">
        <ele>373.098631</ele>
        <time>2023-12-03T20:42:00.431Z</time>
      </trkpt>
      <trkpt lat="39.763894" lon="16.173361">
        <ele>371.338229</ele>
        <time>2023-12-03T20:42:03.364Z</time>
      </trkpt>
      <trkpt lat="39.763792" lon="16.173154">
        <ele>370.291076</ele>
        <time>2023-12-03T20:42:05.127Z</time>
      </trkpt>
      <trkpt lat="39.763710" lon="16.172860">
        <ele>368.959112</ele>
        <time>2023-12-03T20:42:07.357Z</time>
      </trkpt>
      <trkpt lat="39.763661" lon="16.172186">
        <ele>366.210491</ele>
        <time>2023-12-03T20:42:12.232Z</time>
      </trkpt>
      <trkpt lat="39.763682" lon="16.171965">
        <ele>365.572835</ele>
        <time>2023-12-03T20:42:13.862Z</time>
      </trkpt>
      <trkpt lat="39.763738" lon="16.171737">
        <ele>364.887432</ele>
        <time>2023-12-03T20:42:15.644Z</time>
      </trkpt>
      <trkpt lat="39.763729" lon="16.171558">
        <ele>364.373766</ele>
        <time>2023-12-03T20:42:17.014Z</time>
      </trkpt>
      <trkpt lat="39.763653" lon="16.171431">
        <ele>363.912888</ele>
        <time>2023-12-03T20:42:18.277Z</time>
      </trkpt>
      <trkpt lat="39.762935" lon="16.171061">
        <ele>361.035983</ele>
        <time>2023-12-03T20:42:26.033Z</time>
      </trkpt>
      <trkpt lat="39.762858" lon="16.170972">
        <ele>360.652278</ele>
        <time>2023-12-03T20:42:27.066Z</time>
      </trkpt>
      <trkpt lat="39.762798" lon="16.170804">
        <ele>360.121811</ele>
        <time>2023-12-03T20:42:28.521Z</time>
      </trkpt>
      <trkpt lat="39.762779" lon="16.170575">
        <ele>359.569072</ele>
        <time>2023-12-03T20:42:30.285Z</time>
      </trkpt>
      <trkpt lat="39.762816" lon="16.170268">
        <ele>358.972408</ele>
        <time>2023-12-03T20:42:32.729Z</time>
      </trkpt>
      <trkpt lat="39.763010" lon="16.169067">
        <ele>356.616034</ele>
        <time>2023-12-03T20:42:42.851Z</time>
      </trkpt>
      <trkpt lat="39.763217" lon="16.168409">
        <ele>355.225062</ele>
        <time>2023-12-03T20:42:49.031Z</time>
      </trkpt>
      <trkpt lat="39.763367" lon="16.168129">
        <ele>354.174306</ele>
        <time>2023-12-03T20:42:51.726Z</time>
      </trkpt>
      <trkpt lat="39.763518" lon="16.167986">
        <ele>353.426240</ele>
        <time>2023-12-03T20:42:53.604Z</time>
      </trkpt>
      <trkpt lat="39.763986" lon="16.167808">
        <ele>351.473329</ele>
        <time>2023-12-03T20:42:58.417Z</time>
      </trkpt>
      <trkpt lat="39.764221" lon="16.167591">
        <ele>350.319098</ele>
        <time>2023-12-03T20:43:01.208Z</time>
      </trkpt>
      <trkpt lat="39.764342" lon="16.167344">
        <ele>349.417349</ele>
        <time>2023-12-03T20:43:03.348Z</time>
      </trkpt>
      <trkpt lat="39.764396" lon="16.167025">
        <ele>348.411699</ele>
        <time>2023-12-03T20:43:05.715Z</time>
      </trkpt>
      <trkpt lat="39.764425" lon="16.166651">
        <ele>346.812804</ele>
        <time>2023-12-03T20:43:08.394Z</time>
      </trkpt>
      <trkpt lat="39.764307" lon="16.165575">
        <ele>341.697662</ele>
        <time>2023-12-03T20:43:15.983Z</time>
      </trkpt>
      <trkpt lat="39.764243" lon="16.165371">
        <ele>340.660715</ele>
        <time>2023-12-03T20:43:17.522Z</time>
      </trkpt>
      <trkpt lat="39.764151" lon="16.165236">
        <ele>339.811645</ele>
        <time>2023-12-03T20:43:18.788Z</time>
      </trkpt>
      <trkpt lat="39.764053" lon="16.165212">
        <ele>339.201108</ele>
        <time>2023-12-03T20:43:19.701Z</time>
      </trkpt>
      <trkpt lat="39.763928" lon="16.165248">
        <ele>338.417275</ele>
        <time>2023-12-03T20:43:20.873Z</time>
      </trkpt>
      <trkpt lat="39.763589" lon="16.165476">
        <ele>336.174675</ele>
        <time>2023-12-03T20:43:24.357Z</time>
      </trkpt>
      <trkpt lat="39.763481" lon="16.165621">
        <ele>335.313936</ele>
        <time>2023-12-03T20:43:25.773Z</time>
      </trkpt>
      <trkpt lat="39.763436" lon="16.165809">
        <ele>334.474509</ele>
        <time>2023-12-03T20:43:27.155Z</time>
      </trkpt>
      <trkpt lat="39.763454" lon="16.166398">
        <ele>331.961538</ele>
        <time>2023-12-03T20:43:31.279Z</time>
      </trkpt>
      <trkpt lat="39.763435" lon="16.166524">
        <ele>331.414145</ele>
        <time>2023-12-03T20:43:32.189Z</time>
      </trkpt>
      <trkpt lat="39.763372" lon="16.166614">
        <ele>330.895214</ele>
        <time>2023-12-03T20:43:33.051Z</time>
      </trkpt>
      <trkpt lat="39.763276" lon="16.166662">
        <ele>330.324831</ele>
        <time>2023-12-03T20:43:34.003Z</time>
      </trkpt>
      <trkpt lat="39.762179" lon="16.166514">
        <ele>324.621969</ele>
        <time>2023-12-03T20:43:44.654Z</time>
      </trkpt>
      <trkpt lat="39.762056" lon="16.166550">
        <ele>324.022704</ele>
        <time>2023-12-03T20:43:45.861Z</time>
      </trkpt>
      <trkpt lat="39.761976" lon="16.166631">
        <ele>323.540841</ele>
        <time>2023-12-03T20:43:46.826Z</time>
      </trkpt>
      <trkpt lat="39.761928" lon="16.166776">
        <ele>322.963992</ele>
        <time>2023-12-03T20:43:47.985Z</time>
      </trkpt>
      <trkpt lat="39.761840" lon="16.167223">
        <ele>321.278000</ele>
        <time>2023-12-03T20:43:51.315Z</time>
      </trkpt>
      <trkpt lat="39.761785" lon="16.167372">
        <ele>320.674058</ele>
        <time>2023-12-03T20:43:52.516Z</time>
      </trkpt>
      <trkpt lat="39.761689" lon="16.167483">
        <ele>320.063552</ele>
        <time>2023-12-03T20:43:53.708Z</time>
      </trkpt>
      <trkpt lat="39.761542" lon="16.167552">
        <ele>319.320730</ele>
        <time>2023-12-03T20:43:55.180Z</time>
      </trkpt>
      <trkpt lat="39.760771" lon="16.167643">
        <ele>314.752990</ele>
        <time>2023-12-03T20:44:02.513Z</time>
      </trkpt>
      <trkpt lat="39.760081" lon="16.167611">
        <ele>310.470540</ele>
        <time>2023-12-03T20:44:08.876Z</time>
      </trkpt>
      <trkpt lat="39.759902" lon="16.167650">
        <ele>309.344826</ele>
        <time>2023-12-03T20:44:10.493Z</time>
      </trkpt>
      <trkpt lat="39.759700" lon="16.167764">
        <ele>307.979090</ele>
        <time>2023-12-03T20:44:12.450Z</time>
      </trkpt>
      <trkpt lat="39.759380" lon="16.168084">
        <ele>304.438501</ele>
        <time>2023-12-03T20:44:15.998Z</time>
      </trkpt>
      <trkpt lat="39.759239" lon="16.168153">
        <ele>302.999772</ele>
        <time>2023-12-03T20:44:17.310Z</time>
      </trkpt>
      <trkpt lat="39.759106" lon="16.168150">
        <ele>301.729387</ele>
        <time>2023-12-03T20:44:18.468Z</time>
      </trkpt>
      <trkpt lat="39.758957" lon="16.168084">
        <ele>300.226151</ele>
        <time>2023-12-03T20:44:19.833Z</time>
      </trkpt>
      <trkpt lat="39.758697" lon="16.167792">
        <ele>296.945670</ele>
        <time>2023-12-03T20:44:22.790Z</time>
      </trkpt>
      <trkpt lat="39.758585" lon="16.167730">
        <ele>295.783207</ele>
        <time>2023-12-03T20:44:23.833Z</time>
      </trkpt>
      <trkpt lat="39.758448" lon="16.167728">
        <ele>294.474729</ele>
        <time>2023-12-03T20:44:25.003Z</time>
      </trkpt>
      <trkpt lat="39.758144" lon="16.167871">
        <ele>291.387433</ele>
        <time>2023-12-03T20:44:27.762Z</time>
      </trkpt>
      <trkpt lat="39.757998" lon="16.167904">
        <ele>290.023346</ele>
        <time>2023-12-03T20:44:29.023Z</time>
      </trkpt>
      <trkpt lat="39.757838" lon="16.167891">
        <ele>288.809129</ele>
        <time>2023-12-03T20:44:30.398Z</time>
      </trkpt>
      <trkpt lat="39.757128" lon="16.167703">
        <ele>283.321240</ele>
        <time>2023-12-03T20:44:36.702Z</time>
      </trkpt>
      <trkpt lat="39.756971" lon="16.167702">
        <ele>282.132093</ele>
        <time>2023-12-03T20:44:38.092Z</time>
      </trkpt>
      <trkpt lat="39.756855" lon="16.167769">
        <ele>281.170780</ele>
        <time>2023-12-03T20:44:39.231Z</time>
      </trkpt>
      <trkpt lat="39.756762" lon="16.167928">
        <ele>280.007470</ele>
        <time>2023-12-03T20:44:40.638Z</time>
      </trkpt>
      <trkpt lat="39.756700" lon="16.168142">
        <ele>278.675860</ele>
        <time>2023-12-03T20:44:42.254Z</time>
      </trkpt>
      <trkpt lat="39.756593" lon="16.169646">
        <ele>274.509130</ele>
        <time>2023-12-03T20:44:53.791Z</time>
      </trkpt>
      <trkpt lat="39.756514" lon="16.169910">
        <ele>273.996431</ele>
        <time>2023-12-03T20:44:56.560Z</time>
      </trkpt>
      <trkpt lat="39.756450" lon="16.170002">
        <ele>273.771884</ele>
        <time>2023-12-03T20:44:57.908Z</time>
      </trkpt>
      <trkpt lat="39.756328" lon="16.170077">
        <ele>273.454223</ele>
        <time>2023-12-03T20:45:00.056Z</time>
      </trkpt>
      <trkpt lat="39.755514" lon="16.170320">
        <ele>270.924823</ele>
        <time>2023-12-03T20:45:10.497Z</time>
      </trkpt>
      <trkpt lat="39.755367" lon="16.170406">
        <ele>270.300788</ele>
        <time>2023-12-03T20:45:12.171Z</time>
      </trkpt>
      <trkpt lat="39.755249" lon="16.170543">
        <ele>269.688432</ele>
        <time>2023-12-03T20:45:13.762Z</time>
      </trkpt>
      <trkpt lat="39.755002" lon="16.171008">
        <ele>268.006171</ele>
        <time>2023-12-03T20:45:17.930Z</time>
      </trkpt>
      <trkpt lat="39.754913" lon="16.171101">
        <ele>267.564187</ele>
        <time>2023-12-03T20:45:19.000Z</time>
      </trkpt>
      <trkpt lat="39.754827" lon="16.171111">
        <ele>267.229905</ele>
        <time>2023-12-03T20:45:19.810Z</time>
      </trkpt>
      <trkpt lat="39.754736" lon="16.171080">
        <ele>266.865710</ele>
        <time>2023-12-03T20:45:20.690Z</time>
      </trkpt>
      <trkpt lat="39.754564" lon="16.170861">
        <ele>265.933869</ele>
        <time>2023-12-03T20:45:22.922Z</time>
      </trkpt>
      <trkpt lat="39.754444" lon="16.170803">
        <ele>265.438243</ele>
        <time>2023-12-03T20:45:24.102Z</time>
      </trkpt>
      <trkpt lat="39.754290" lon="16.170791">
        <ele>264.569719</ele>
        <time>2023-12-03T20:45:25.512Z</time>
      </trkpt>
      <trkpt lat="39.754125" lon="16.170823">
        <ele>263.609655</ele>
        <time>2023-12-03T20:45:27.035Z</time>
      </trkpt>
      <trkpt lat="39.753891" lon="16.170902">
        <ele>262.218374</ele>
        <time>2023-12-03T20:45:29.203Z</time>
      </trkpt>
      <trkpt lat="39.753690" lon="16.171027">
        <ele>260.936218</ele>
        <time>2023-12-03T20:45:31.196Z</time>
      </trkpt>
      <trkpt lat="39.752786" lon="16.171759">
        <ele>254.905750</ele>
        <time>2023-12-03T20:45:41.046Z</time>
      </trkpt>
      <trkpt lat="39.752430" lon="16.172095">
        <ele>253.407919</ele>
        <time>2023-12-03T20:45:45.460Z</time>
      </trkpt>
      <trkpt lat="39.752344" lon="16.172232">
        <ele>252.944868</ele>
        <time>2023-12-03T20:45:46.901Z</time>
      </trkpt>
      <trkpt lat="39.752298" lon="16.172706">
        <ele>251.694050</ele>
        <time>2023-12-03T20:45:50.601Z</time>
      </trkpt>
      <trkpt lat="39.752246" lon="16.172905">
        <ele>251.143781</ele>
        <time>2023-12-03T20:45:52.196Z</time>
      </trkpt>
      <trkpt lat="39.752132" lon="16.173080">
        <ele>250.543263</ele>
        <time>2023-12-03T20:45:54.007Z</time>
      </trkpt>
      <trkpt lat="39.751690" lon="16.173418">
        <ele>248.785122</ele>
        <time>2023-12-03T20:45:59.336Z</time>
      </trkpt>
      <trkpt lat="39.751192" lon="16.173606">
        <ele>246.848271</ele>
        <time>2023-12-03T20:46:04.946Z</time>
      </trkpt>
      <trkpt lat="39.751022" lon="16.173696">
        <ele>246.162718</ele>
        <time>2023-12-03T20:46:06.804Z</time>
      </trkpt>
      <trkpt lat="39.750848" lon="16.173846">
        <ele>245.383019</ele>
        <time>2023-12-03T20:46:08.867Z</time>
      </trkpt>
      <trkpt lat="39.750210" lon="16.174590">
        <ele>242.187012</ele>
        <time>2023-12-03T20:46:16.938Z</time>
      </trkpt>
      <trkpt lat="39.750083" lon="16.174806">
        <ele>241.568890</ele>
        <time>2023-12-03T20:46:18.942Z</time>
      </trkpt>
      <trkpt lat="39.749989" lon="16.175095">
        <ele>240.855578</ele>
        <time>2023-12-03T20:46:21.331Z</time>
      </trkpt>
      <trkpt lat="39.749903" lon="16.175234">
        <ele>240.450005</ele>
        <time>2023-12-03T20:46:22.720Z</time>
      </trkpt>
      <trkpt lat="39.749806" lon="16.175356">
        <ele>240.051058</ele>
        <time>2023-12-03T20:46:24.171Z</time>
      </trkpt>
      <trkpt lat="39.749476" lon="16.175602">
        <ele>238.926489</ele>
        <time>2023-12-03T20:46:28.306Z</time>
      </trkpt>
      <trkpt lat="39.749325" lon="16.175793">
        <ele>238.303732</ele>
        <time>2023-12-03T20:46:30.579Z</time>
      </trkpt>
      <trkpt lat="39.748744" lon="16.176967">
        <ele>236.021022</ele>
        <time>2023-12-03T20:46:41.920Z</time>
      </trkpt>
      <trkpt lat="39.748592" lon="16.177182">
        <ele>235.693907</ele>
        <time>2023-12-03T20:46:44.464Z</time>
      </trkpt>
      <trkpt lat="39.748405" lon="16.177355">
        <ele>235.359631</ele>
        <time>2023-12-03T20:46:47.181Z</time>
      </trkpt>
      <trkpt lat="39.748030" lon="16.177528">
        <ele>234.780038</ele>
        <time>2023-12-03T20:46:53.113Z</time>
      </trkpt>
      <trkpt lat="39.747740" lon="16.177724">
        <ele>234.303975</ele>
        <time>2023-12-03T20:46:57.789Z</time>
      </trkpt>
      <trkpt lat="39.747430" lon="16.177983">
        <ele>233.563412</ele>
        <time>2023-12-03T20:47:02.101Z</time>
      </trkpt>
      <trkpt lat="39.746938" lon="16.178551">
        <ele>232.213716</ele>
        <time>2023-12-03T20:47:08.958Z</time>
      </trkpt>
      <trkpt lat="39.746809" lon="16.178699">
        <ele>231.860801</ele>
        <time>2023-12-03T20:47:10.808Z</time>
      </trkpt>
      <trkpt lat="39.746718" lon="16.178746">
        <ele>231.659921</ele>
        <time>2023-12-03T20:47:11.834Z</time>
      </trkpt>
      <trkpt lat="39.746601" lon="16.178748">
        <ele>231.419860</ele>
        <time>2023-12-03T20:47:13.009Z</time>
      </trkpt>
      <trkpt lat="39.746475" lon="16.178688">
        <ele>231.144573</ele>
        <time>2023-12-03T20:47:14.489Z</time>
      </trkpt>
      <trkpt lat="39.746072" lon="16.178381">
        <ele>229.930585</ele>
        <time>2023-12-03T20:47:19.667Z</time>
      </trkpt>
      <trkpt lat="39.745960" lon="16.178324">
        <ele>229.521936</ele>
        <time>2023-12-03T20:47:21.009Z</time>
      </trkpt>
      <trkpt lat="39.745797" lon="16.178304">
        <ele>228.965639</ele>
        <time>2023-12-03T20:47:22.885Z</time>
      </trkpt>
      <trkpt lat="39.745005" lon="16.178483">
        <ele>226.234268</ele>
        <time>2023-12-03T20:47:31.003Z</time>
      </trkpt>
      <trkpt lat="39.744284" lon="16.178856">
        <ele>223.286384</ele>
        <time>2023-12-03T20:47:38.407Z</time>
      </trkpt>
      <trkpt lat="39.744053" lon="16.178926">
        <ele>222.191051</ele>
        <time>2023-12-03T20:47:40.556Z</time>
      </trkpt>
      <trkpt lat="39.743079" lon="16.178932">
        <ele>217.693066</ele>
        <time>2023-12-03T20:47:49.581Z</time>
      </trkpt>
      <trkpt lat="39.742934" lon="16.178898">
        <ele>217.012659</ele>
        <time>2023-12-03T20:47:50.998Z</time>
      </trkpt>
      <trkpt lat="39.742820" lon="16.178820">
        <ele>216.417795</ele>
        <time>2023-12-03T20:47:52.272Z</time>
      </trkpt>
      <trkpt lat="39.742677" lon="16.178626">
        <ele>216.697071</ele>
        <time>2023-12-03T20:47:54.536Z</time>
      </trkpt>
      <trkpt lat="39.742629" lon="16.178470">
        <ele>217.159136</ele>
        <time>2023-12-03T20:47:55.939Z</time>
      </trkpt>
      <trkpt lat="39.742632" lon="16.177793">
        <ele>219.020889</ele>
        <time>2023-12-03T20:48:06.120Z</time>
      </trkpt>
      <trkpt lat="39.742664" lon="16.177559">
        <ele>219.674477</ele>
        <time>2023-12-03T20:48:10.847Z</time>
      </trkpt>
      <trkpt lat="39.742712" lon="16.177421">
        <ele>220.090992</ele>
        <time>2023-12-03T20:48:15.266Z</time>
      </trkpt>
      <trkpt lat="39.742815" lon="16.177165">
        <ele>220.885531</ele>
        <time>2023-12-03T20:48:22.704Z</time>
      </trkpt>
      <trkpt lat="39.743158" lon="16.176485">
        <ele>223.877015</ele>
        <time>2023-12-03T20:48:56.341Z</time>
      </trkpt>
      <trkpt lat="39.743208" lon="16.176292">
        <ele>225.234008</ele>
        <time>2023-12-03T20:49:05.912Z</time>
      </trkpt>
      <trkpt lat="39.743217" lon="16.176140">
        <ele>226.249785</ele>
        <time>2023-12-03T20:49:13.057Z</time>
      </trkpt>
      <trkpt lat="39.743194" lon="16.175967">
        <ele>227.419591</ele>
        <time>2023-12-03T20:49:20.994Z</time>
      </trkpt>
      <trkpt lat="39.742800" lon="16.174936">
        <ele>235.090839</ele>
        <time>2023-12-03T20:50:07.632Z</time>
      </trkpt>
      <trkpt lat="39.742662" lon="16.174483">
        <ele>238.233442</ele>
        <time>2023-12-03T20:50:22.897Z</time>
      </trkpt>
      <trkpt lat="39.742630" lon="16.174211">
        <ele>238.875537</ele>
        <time>2023-12-03T20:50:30.192Z</time>
      </trkpt>
      <trkpt lat="39.742653" lon="16.173831">
        <ele>239.765006</ele>
        <time>2023-12-03T20:50:39.204Z</time>
      </trkpt>
      <trkpt lat="39.742626" lon="16.173553">
        <ele>240.418871</ele>
        <time>2023-12-03T20:50:45.404Z</time>
      </trkpt>
      <trkpt lat="39.742519" lon="16.173318">
        <ele>241.056172</ele>
        <time>2023-12-03T20:50:50.411Z</time>
      </trkpt>
      <trkpt lat="39.742208" lon="16.172379">
        <ele>243.441949</ele>
        <time>2023-12-03T20:51:06.230Z</time>
      </trkpt>
      <trkpt lat="39.742153" lon="16.172120">
        <ele>244.011855</ele>
        <time>2023-12-03T20:51:10.238Z</time>
      </trkpt>
      <trkpt lat="39.742108" lon="16.171674">
        <ele>244.923155</ele>
        <time>2023-12-03T20:51:17.486Z</time>
      </trkpt>
      <trkpt lat="39.742037" lon="16.171394">
        <ele>245.520458</ele>
        <time>2023-12-03T20:51:22.728Z</time>
      </trkpt>
      <trkpt lat="39.741915" lon="16.171172">
        <ele>246.073267</ele>
        <time>2023-12-03T20:51:27.888Z</time>
      </trkpt>
      <trkpt lat="39.741773" lon="16.171022">
        <ele>246.555263</ele>
        <time>2023-12-03T20:51:32.633Z</time>
      </trkpt>
      <trkpt lat="39.741712" lon="16.170894">
        <ele>246.860346</ele>
        <time>2023-12-03T20:51:35.746Z</time>
      </trkpt>
      <trkpt lat="39.741700" lon="16.170731">
        <ele>247.192081</ele>
        <time>2023-12-03T20:51:39.311Z</time>
      </trkpt>
      <trkpt lat="39.741735" lon="16.170429">
        <ele>247.810820</ele>
        <time>2023-12-03T20:51:45.988Z</time>
      </trkpt>
      <trkpt lat="39.741722" lon="16.170141">
        <ele>248.417393</ele>
        <time>2023-12-03T20:51:52.716Z</time>
      </trkpt>
      <trkpt lat="39.741659" lon="16.169873">
        <ele>249.595008</ele>
        <time>2023-12-03T20:51:59.477Z</time>
      </trkpt>
      <trkpt lat="39.741556" lon="16.169630">
        <ele>250.760985</ele>
        <time>2023-12-03T20:52:06.481Z</time>
      </trkpt>
      <trkpt lat="39.741367" lon="16.169352">
        <ele>252.320296</ele>
        <time>2023-12-03T20:52:16.357Z</time>
      </trkpt>
      <trkpt lat="39.741284" lon="16.169184">
        <ele>253.159410</ele>
        <time>2023-12-03T20:52:21.902Z</time>
      </trkpt>
      <trkpt lat="39.741234" lon="16.168947">
        <ele>254.192119</ele>
        <time>2023-12-03T20:52:29.029Z</time>
      </trkpt>
      <trkpt lat="39.741125" lon="16.166317">
        <ele>266.877951</ele>
        <time>2023-12-03T20:53:52.887Z</time>
      </trkpt>
      <trkpt lat="39.741083" lon="16.166248">
        <ele>267.332559</ele>
        <time>2023-12-03T20:53:55.688Z</time>
      </trkpt>
      <trkpt lat="39.741021" lon="16.166225">
        <ele>267.765699</ele>
        <time>2023-12-03T20:53:58.325Z</time>
      </trkpt>
      <trkpt lat="39.740976" lon="16.166295">
        <ele>268.237036</ele>
        <time>2023-12-03T20:54:01.258Z</time>
      </trkpt>
      <trkpt lat="39.740954" lon="16.166469">
        <ele>269.147968</ele>
        <time>2023-12-03T20:54:06.980Z</time>
      </trkpt>
      <trkpt lat="39.740889" lon="16.166671">
        <ele>270.279160</ele>
        <time>2023-12-03T20:54:14.085Z</time>
      </trkpt>
      <trkpt lat="39.740702" lon="16.166946">
        <ele>272.179050</ele>
        <time>2023-12-03T20:54:26.166Z</time>
      </trkpt>
      <trkpt lat="39.740327" lon="16.167337">
        <ele>275.414027</ele>
        <time>2023-12-03T20:54:46.986Z</time>
      </trkpt>
      <trkpt lat="39.738593" lon="16.168785">
        <ele>288.129468</ele>
        <time>2023-12-03T20:56:11.752Z</time>
      </trkpt>
      <trkpt lat="39.738518" lon="16.168934">
        <ele>288.896763</ele>
        <time>2023-12-03T20:56:16.269Z</time>
      </trkpt>
      <trkpt lat="39.738495" lon="16.169119">
        <ele>289.704210</ele>
        <time>2023-12-03T20:56:21.074Z</time>
      </trkpt>
      <trkpt lat="39.738531" lon="16.169307">
        <ele>290.538969</ele>
        <time>2023-12-03T20:56:26.015Z</time>
      </trkpt>
      <trkpt lat="39.738918" lon="16.169948">
        <ele>293.610767</ele>
        <time>2023-12-03T20:56:45.946Z</time>
      </trkpt>
      <trkpt lat="39.738935" lon="16.170064">
        <ele>293.977926</ele>
        <time>2023-12-03T20:56:48.704Z</time>
      </trkpt>
      <trkpt lat="39.738907" lon="16.170145">
        <ele>294.254048</ele>
        <time>2023-12-03T20:56:50.733Z</time>
      </trkpt>
      <trkpt lat="39.738829" lon="16.170209">
        <ele>294.626959</ele>
        <time>2023-12-03T20:56:53.397Z</time>
      </trkpt>
      <trkpt lat="39.738483" lon="16.170244">
        <ele>296.030185</ele>
        <time>2023-12-03T20:57:03.431Z</time>
      </trkpt>
      <trkpt lat="39.738135" lon="16.170349">
        <ele>297.474650</ele>
        <time>2023-12-03T20:57:13.720Z</time>
      </trkpt>
      <trkpt lat="39.737875" lon="16.170491">
        <ele>298.614872</ele>
        <time>2023-12-03T20:57:22.414Z</time>
      </trkpt>
      <trkpt lat="39.737704" lon="16.170508">
        <ele>299.308303</ele>
        <time>2023-12-03T20:57:27.959Z</time>
      </trkpt>
      <trkpt lat="39.737547" lon="16.170487">
        <ele>299.984717</ele>
        <time>2023-12-03T20:57:33.287Z</time>
      </trkpt>
      <trkpt lat="39.735901" lon="16.169960">
        <ele>308.133077</ele>
        <time>2023-12-03T20:58:32.525Z</time>
      </trkpt>
      <trkpt lat="39.735596" lon="16.169864">
        <ele>309.405731</ele>
        <time>2023-12-03T20:58:42.635Z</time>
      </trkpt>
      <trkpt lat="39.735176" lon="16.169738">
        <ele>311.087416</ele>
        <time>2023-12-03T20:58:56.250Z</time>
      </trkpt>
      <trkpt lat="39.734045" lon="16.169505">
        <ele>315.503212</ele>
        <time>2023-12-03T20:59:30.213Z</time>
      </trkpt>
      <trkpt lat="39.733441" lon="16.169378">
        <ele>317.053503</ele>
        <time>2023-12-03T20:59:46.472Z</time>
      </trkpt>
      <trkpt lat="39.733256" lon="16.169387">
        <ele>317.522584</ele>
        <time>2023-12-03T20:59:51.164Z</time>
      </trkpt>
      <trkpt lat="39.733046" lon="16.169443">
        <ele>318.065754</ele>
        <time>2023-12-03T20:59:56.575Z</time>
      </trkpt>
      <trkpt lat="39.731457" lon="16.170210">
        <ele>320.858445</ele>
        <time>2023-12-03T21:00:34.281Z</time>
      </trkpt>
      <trkpt lat="39.730590" lon="16.170604">
        <ele>321.476097</ele>
        <time>2023-12-03T21:00:48.912Z</time>
      </trkpt>
      <trkpt lat="39.730332" lon="16.170811">
        <ele>320.600171</ele>
        <time>2023-12-03T21:00:52.745Z</time>
      </trkpt>
      <trkpt lat="39.730109" lon="16.171046">
        <ele>319.770824</ele>
        <time>2023-12-03T21:00:56.164Z</time>
      </trkpt>
      <trkpt lat="39.727509" lon="16.173767">
        <ele>307.139885</ele>
        <time>2023-12-03T21:01:28.352Z</time>
      </trkpt>
      <trkpt lat="39.727405" lon="16.173840">
        <ele>306.694006</ele>
        <time>2023-12-03T21:01:29.469Z</time>
      </trkpt>
      <trkpt lat="39.727332" lon="16.173841">
        <ele>306.418586</ele>
        <time>2023-12-03T21:01:30.132Z</time>
      </trkpt>
      <trkpt lat="39.727269" lon="16.173801">
        <ele>306.154085</ele>
        <time>2023-12-03T21:01:30.786Z</time>
      </trkpt>
      <trkpt lat="39.727232" lon="16.173696">
        <ele>305.818967</ele>
        <time>2023-12-03T21:01:31.649Z</time>
      </trkpt>
      <trkpt lat="39.727232" lon="16.173577">
        <ele>305.473684</ele>
        <time>2023-12-03T21:01:32.521Z</time>
      </trkpt>
      <trkpt lat="39.727420" lon="16.172461">
        <ele>302.158804</ele>
        <time>2023-12-03T21:01:41.219Z</time>
      </trkpt>
      <trkpt lat="39.727423" lon="16.172275">
        <ele>301.790695</ele>
        <time>2023-12-03T21:01:42.834Z</time>
      </trkpt>
      <trkpt lat="39.727317" lon="16.171623">
        <ele>301.310007</ele>
        <time>2023-12-03T21:01:48.862Z</time>
      </trkpt>
      <trkpt lat="39.727328" lon="16.171414">
        <ele>301.158900</ele>
        <time>2023-12-03T21:01:51.189Z</time>
      </trkpt>
      <trkpt lat="39.727374" lon="16.171233">
        <ele>301.021400</ele>
        <time>2023-12-03T21:01:53.393Z</time>
      </trkpt>
      <trkpt lat="39.727572" lon="16.170994">
        <ele>300.768016</ele>
        <time>2023-12-03T21:01:57.111Z</time>
      </trkpt>
      <trkpt lat="39.727613" lon="16.170783">
        <ele>300.611037</ele>
        <time>2023-12-03T21:01:59.504Z</time>
      </trkpt>
      <trkpt lat="39.727558" lon="16.170502">
        <ele>300.401888</ele>
        <time>2023-12-03T21:02:02.392Z</time>
      </trkpt>
      <trkpt lat="39.727558" lon="16.170323">
        <ele>300.272774</ele>
        <time>2023-12-03T21:02:04.277Z</time>
      </trkpt>
      <trkpt lat="39.727601" lon="16.169965">
        <ele>299.955201</ele>
        <time>2023-12-03T21:02:07.966Z</time>
      </trkpt>
      <trkpt lat="39.727594" lon="16.169727">
        <ele>299.718671</ele>
        <time>2023-12-03T21:02:10.364Z</time>
      </trkpt>
      <trkpt lat="39.727512" lon="16.169257">
        <ele>299.240055</ele>
        <time>2023-12-03T21:02:15.024Z</time>
      </trkpt>
      <trkpt lat="39.727508" lon="16.168979">
        <ele>298.963925</ele>
        <time>2023-12-03T21:02:17.595Z</time>
      </trkpt>
      <trkpt lat="39.727570" lon="16.168583">
        <ele>298.562591</ele>
        <time>2023-12-03T21:02:21.072Z</time>
      </trkpt>
      <trkpt lat="39.727587" lon="16.168003">
        <ele>297.986175</ele>
        <time>2023-12-03T21:02:25.904Z</time>
      </trkpt>
      <trkpt lat="39.727615" lon="16.167762">
        <ele>297.742283</ele>
        <time>2023-12-03T21:02:27.965Z</time>
      </trkpt>
      <trkpt lat="39.727917" lon="16.166676">
        <ele>296.572988</ele>
        <time>2023-12-03T21:02:38.108Z</time>
      </trkpt>
      <trkpt lat="39.728082" lon="16.166265">
        <ele>296.103549</ele>
        <time>2023-12-03T21:02:42.252Z</time>
      </trkpt>
      <trkpt lat="39.728424" lon="16.165673">
        <ele>295.530248</ele>
        <time>2023-12-03T21:02:49.111Z</time>
      </trkpt>
      <trkpt lat="39.728646" lon="16.165341">
        <ele>295.760823</ele>
        <time>2023-12-03T21:02:54.611Z</time>
      </trkpt>
      <trkpt lat="39.728674" lon="16.165198">
        <ele>295.838162</ele>
        <time>2023-12-03T21:02:56.434Z</time>
      </trkpt>
      <trkpt lat="39.728651" lon="16.165060">
        <ele>295.912167</ele>
        <time>2023-12-03T21:02:58.345Z</time>
      </trkpt>
      <trkpt lat="39.728572" lon="16.164943">
        <ele>295.993767</ele>
        <time>2023-12-03T21:03:00.518Z</time>
      </trkpt>
      <trkpt lat="39.727938" lon="16.164528">
        <ele>296.477481</ele>
        <time>2023-12-03T21:03:13.312Z</time>
      </trkpt>
      <trkpt lat="39.727830" lon="16.164486">
        <ele>296.554302</ele>
        <time>2023-12-03T21:03:15.315Z</time>
      </trkpt>
      <trkpt lat="39.727710" lon="16.164489">
        <ele>296.636093</ele>
        <time>2023-12-03T21:03:17.608Z</time>
      </trkpt>
      <trkpt lat="39.727594" lon="16.164524">
        <ele>296.806928</ele>
        <time>2023-12-03T21:03:20.034Z</time>
      </trkpt>
      <trkpt lat="39.727529" lon="16.164584">
        <ele>297.088560</ele>
        <time>2023-12-03T21:03:21.597Z</time>
      </trkpt>
      <trkpt lat="39.726819" lon="16.165289">
        <ele>300.244804</ele>
        <time>2023-12-03T21:03:46.406Z</time>
      </trkpt>
      <trkpt lat="39.726286" lon="16.165930">
        <ele>302.809900</ele>
        <time>2023-12-03T21:04:12.644Z</time>
      </trkpt>
      <trkpt lat="39.726146" lon="16.166013">
        <ele>303.351683</ele>
        <time>2023-12-03T21:04:17.496Z</time>
      </trkpt>
      <trkpt lat="39.726036" lon="16.166041">
        <ele>303.745300</ele>
        <time>2023-12-03T21:04:20.667Z</time>
      </trkpt>
      <trkpt lat="39.725904" lon="16.166020">
        <ele>304.212298</ele>
        <time>2023-12-03T21:04:24.274Z</time>
      </trkpt>
      <trkpt lat="39.725504" lon="16.165787">
        <ele>305.751493</ele>
        <time>2023-12-03T21:04:35.976Z</time>
      </trkpt>
      <trkpt lat="39.725391" lon="16.165769">
        <ele>306.151280</ele>
        <time>2023-12-03T21:04:39.066Z</time>
      </trkpt>
      <trkpt lat="39.725286" lon="16.165825">
        <ele>306.549821</ele>
        <time>2023-12-03T21:04:42.023Z</time>
      </trkpt>
      <trkpt lat="39.725241" lon="16.165935">
        <ele>306.886332</ele>
        <time>2023-12-03T21:04:44.811Z</time>
      </trkpt>
      <trkpt lat="39.725237" lon="16.166089">
        <ele>307.302507</ele>
        <time>2023-12-03T21:04:48.338Z</time>
      </trkpt>
      <trkpt lat="39.725310" lon="16.166569">
        <ele>308.624037</ele>
        <time>2023-12-03T21:04:59.751Z</time>
      </trkpt>
      <trkpt lat="39.725313" lon="16.167029">
        <ele>309.978916</ele>
        <time>2023-12-03T21:05:10.134Z</time>
      </trkpt>
      <trkpt lat="39.725268" lon="16.167162">
        <ele>310.459627</ele>
        <time>2023-12-03T21:05:13.076Z</time>
      </trkpt>
      <trkpt lat="39.725184" lon="16.167248">
        <ele>310.919532</ele>
        <time>2023-12-03T21:05:15.802Z</time>
      </trkpt>
      <trkpt lat="39.725075" lon="16.167279">
        <ele>311.399486</ele>
        <time>2023-12-03T21:05:18.421Z</time>
      </trkpt>
      <trkpt lat="39.724797" lon="16.167180">
        <ele>312.639360</ele>
        <time>2023-12-03T21:05:24.751Z</time>
      </trkpt>
      <trkpt lat="39.724649" lon="16.167168">
        <ele>313.277226</ele>
        <time>2023-12-03T21:05:28.067Z</time>
      </trkpt>
      <trkpt lat="39.724508" lon="16.167205">
        <ele>313.895974</ele>
        <time>2023-12-03T21:05:31.629Z</time>
      </trkpt>
      <trkpt lat="39.724164" lon="16.167395">
        <ele>315.503690</ele>
        <time>2023-12-03T21:05:43.591Z</time>
      </trkpt>
      <trkpt lat="39.724063" lon="16.167535">
        <ele>316.138742</ele>
        <time>2023-12-03T21:05:49.367Z</time>
      </trkpt>
      <trkpt lat="39.724010" lon="16.167683">
        <ele>316.678866</ele>
        <time>2023-12-03T21:05:54.959Z</time>
      </trkpt>
      <trkpt lat="39.723995" lon="16.167895">
        <ele>317.627692</ele>
        <time>2023-12-03T21:06:02.872Z</time>
      </trkpt>
      <trkpt lat="39.723932" lon="16.168011">
        <ele>318.508290</ele>
        <time>2023-12-03T21:06:08.518Z</time>
      </trkpt>
      <trkpt lat="39.723842" lon="16.168090">
        <ele>319.383811</ele>
        <time>2023-12-03T21:06:14.327Z</time>
      </trkpt>
      <trkpt lat="39.723637" lon="16.168119">
        <ele>321.046394</ele>
        <time>2023-12-03T21:06:25.655Z</time>
      </trkpt>
      <trkpt lat="39.723456" lon="16.168100">
        <ele>322.510469</ele>
        <time>2023-12-03T21:06:35.796Z</time>
      </trkpt>
      <trkpt lat="39.722654" lon="16.167878">
        <ele>329.121582</ele>
        <time>2023-12-03T21:07:17.166Z</time>
      </trkpt>
      <trkpt lat="39.722515" lon="16.167867">
        <ele>330.244354</ele>
        <time>2023-12-03T21:07:23.148Z</time>
      </trkpt>
      <trkpt lat="39.722419" lon="16.167910">
        <ele>331.063007</ele>
        <time>2023-12-03T21:07:27.432Z</time>
      </trkpt>
      <trkpt lat="39.722351" lon="16.167996">
        <ele>331.672264</ele>
        <time>2023-12-03T21:07:31.383Z</time>
      </trkpt>
      <trkpt lat="39.722318" lon="16.168123">
        <ele>331.922348</ele>
        <time>2023-12-03T21:07:35.106Z</time>
      </trkpt>
      <trkpt lat="39.722320" lon="16.168254">
        <ele>332.166788</ele>
        <time>2023-12-03T21:07:38.783Z</time>
      </trkpt>
      <trkpt lat="39.722357" lon="16.168377">
        <ele>332.413180</ele>
        <time>2023-12-03T21:07:42.401Z</time>
      </trkpt>
      <trkpt lat="39.722645" lon="16.168731">
        <ele>333.374489</ele>
        <time>2023-12-03T21:07:53.759Z</time>
      </trkpt>
      <trkpt lat="39.723080" lon="16.169371">
        <ele>334.967843</ele>
        <time>2023-12-03T21:08:06.825Z</time>
      </trkpt>
      <trkpt lat="39.723563" lon="16.169944">
        <ele>335.890373</ele>
        <time>2023-12-03T21:08:15.575Z</time>
      </trkpt>
      <trkpt lat="39.723589" lon="16.170133">
        <ele>335.842947</ele>
        <time>2023-12-03T21:08:17.610Z</time>
      </trkpt>
      <trkpt lat="39.723516" lon="16.170274">
        <ele>335.800963</ele>
        <time>2023-12-03T21:08:19.151Z</time>
      </trkpt>
      <trkpt lat="39.723452" lon="16.170311">
        <ele>335.778469</ele>
        <time>2023-12-03T21:08:19.935Z</time>
      </trkpt>
      <trkpt lat="39.722772" lon="16.170542">
        <ele>335.552754</ele>
        <time>2023-12-03T21:08:28.887Z</time>
      </trkpt>
      <trkpt lat="39.722481" lon="16.170696">
        <ele>335.451853</ele>
        <time>2023-12-03T21:08:32.838Z</time>
      </trkpt>
      <trkpt lat="39.722295" lon="16.170976">
        <ele>335.466018</ele>
        <time>2023-12-03T21:08:37.700Z</time>
      </trkpt>
      <trkpt lat="39.722165" lon="16.171271">
        <ele>335.679146</ele>
        <time>2023-12-03T21:08:43.203Z</time>
      </trkpt>
      <trkpt lat="39.721882" lon="16.171522">
        <ele>335.958353</ele>
        <time>2023-12-03T21:08:50.411Z</time>
      </trkpt>
      <trkpt lat="39.721629" lon="16.170883">
        <ele>336.408882</ele>
        <time>2023-12-03T21:09:00.279Z</time>
      </trkpt>
      <trkpt lat="39.721556" lon="16.170673">
        <ele>336.553346</ele>
        <time>2023-12-03T21:09:03.635Z</time>
      </trkpt>
      <trkpt lat="39.721498" lon="16.170392">
        <ele>336.735731</ele>
        <time>2023-12-03T21:09:07.098Z</time>
      </trkpt>
      <trkpt lat="39.721420" lon="16.170163">
        <ele>337.008301</ele>
        <time>2023-12-03T21:09:10.491Z</time>
      </trkpt>
      <trkpt lat="39.721314" lon="16.169987">
        <ele>337.591997</ele>
        <time>2023-12-03T21:09:13.159Z</time>
      </trkpt>
      <trkpt lat="39.721131" lon="16.169769">
        <ele>338.434612</ele>
        <time>2023-12-03T21:09:17.885Z</time>
      </trkpt>
      <trkpt lat="39.720830" lon="16.169432">
        <ele>339.783146</ele>
        <time>2023-12-03T21:09:27.422Z</time>
      </trkpt>
      <trkpt lat="39.720808" lon="16.169406">
        <ele>339.884079</ele>
        <time>2023-12-03T21:09:28.252Z</time>
      </trkpt>
      <trkpt lat="39.720486" lon="16.169071">
        <ele>341.284140</ele>
        <time>2023-12-03T21:09:42.704Z</time>
      </trkpt>
      <trkpt lat="39.720152" lon="16.168946">
        <ele>342.464068</ele>
        <time>2023-12-03T21:09:56.019Z</time>
      </trkpt>
      <trkpt lat="39.719938" lon="16.168903">
        <ele>343.320375</ele>
        <time>2023-12-03T21:10:03.889Z</time>
      </trkpt>
      <trkpt lat="39.719846" lon="16.168854">
        <ele>343.830598</ele>
        <time>2023-12-03T21:10:07.602Z</time>
      </trkpt>
      <trkpt lat="39.719779" lon="16.168797">
        <ele>344.241513</ele>
        <time>2023-12-03T21:10:10.623Z</time>
      </trkpt>
      <trkpt lat="39.719692" lon="16.168658">
        <ele>344.948903</ele>
        <time>2023-12-03T21:10:15.664Z</time>
      </trkpt>
      <trkpt lat="39.719656" lon="16.168521">
        <ele>345.520383</ele>
        <time>2023-12-03T21:10:19.722Z</time>
      </trkpt>
      <trkpt lat="39.719659" lon="16.168412">
        <ele>345.950924</ele>
        <time>2023-12-03T21:10:22.765Z</time>
      </trkpt>
      <trkpt lat="39.719692" lon="16.168311">
        <ele>346.384089</ele>
        <time>2023-12-03T21:10:25.696Z</time>
      </trkpt>
      <trkpt lat="39.719982" lon="16.167797">
        <ele>348.900352</ele>
        <time>2023-12-03T21:10:41.231Z</time>
      </trkpt>
      <trkpt lat="39.720031" lon="16.167598">
        <ele>349.725148</ele>
        <time>2023-12-03T21:10:46.443Z</time>
      </trkpt>
      <trkpt lat="39.720137" lon="16.166852">
        <ele>352.814296</ele>
        <time>2023-12-03T21:11:07.758Z</time>
      </trkpt>
      <trkpt lat="39.720174" lon="16.166412">
        <ele>354.875193</ele>
        <time>2023-12-03T21:11:21.410Z</time>
      </trkpt>
      <trkpt lat="39.720151" lon="16.166288">
        <ele>355.469102</ele>
        <time>2023-12-03T21:11:25.264Z</time>
      </trkpt>
      <trkpt lat="39.720021" lon="16.165983">
        <ele>357.092680</ele>
        <time>2023-12-03T21:11:36.120Z</time>
      </trkpt>
      <trkpt lat="39.720048" lon="16.165353">
        <ele>360.030588</ele>
        <time>2023-12-03T21:11:55.200Z</time>
      </trkpt>
      <trkpt lat="39.720125" lon="16.165093">
        <ele>361.327812</ele>
        <time>2023-12-03T21:12:03.615Z</time>
      </trkpt>
      <trkpt lat="39.720263" lon="16.164907">
        <ele>362.531082</ele>
        <time>2023-12-03T21:12:11.168Z</time>
      </trkpt>
      <trkpt lat="39.721015" lon="16.164464">
        <ele>367.092065</ele>
        <time>2023-12-03T21:12:44.389Z</time>
      </trkpt>
      <trkpt lat="39.721156" lon="16.164349">
        <ele>368.000725</ele>
        <time>2023-12-03T21:12:51.127Z</time>
      </trkpt>
      <trkpt lat="39.721353" lon="16.164109">
        <ele>369.474539</ele>
        <time>2023-12-03T21:13:01.833Z</time>
      </trkpt>
      <trkpt lat="39.721469" lon="16.163813">
        <ele>370.869448</ele>
        <time>2023-12-03T21:13:11.222Z</time>
      </trkpt>
      <trkpt lat="39.721527" lon="16.163666">
        <ele>371.563164</ele>
        <time>2023-12-03T21:13:15.415Z</time>
      </trkpt>
      <trkpt lat="39.721987" lon="16.162479">
        <ele>375.339554</ele>
        <time>2023-12-03T21:13:43.565Z</time>
      </trkpt>
      <trkpt lat="39.722380" lon="16.161448">
        <ele>378.116840</ele>
        <time>2023-12-03T21:14:06.192Z</time>
      </trkpt>
      <trkpt lat="39.722583" lon="16.160919">
        <ele>379.820573</ele>
        <time>2023-12-03T21:14:18.573Z</time>
      </trkpt>
      <trkpt lat="39.722729" lon="16.160534">
        <ele>381.143513</ele>
        <time>2023-12-03T21:14:28.137Z</time>
      </trkpt>
      <trkpt lat="39.723311" lon="16.159062">
        <ele>386.344286</ele>
        <time>2023-12-03T21:15:09.671Z</time>
      </trkpt>
      <trkpt lat="39.723462" lon="16.158671">
        <ele>387.965582</ele>
        <time>2023-12-03T21:15:21.133Z</time>
      </trkpt>
      <trkpt lat="39.723781" lon="16.157867">
        <ele>391.317972</ele>
        <time>2023-12-03T21:15:44.696Z</time>
      </trkpt>
      <trkpt lat="39.723871" lon="16.157708">
        <ele>392.049525</ele>
        <time>2023-12-03T21:15:49.869Z</time>
      </trkpt>
      <trkpt lat="39.724092" lon="16.157435">
        <ele>393.518238</ele>
        <time>2023-12-03T21:16:00.597Z</time>
      </trkpt>
      <trkpt lat="39.724128" lon="16.157344">
        <ele>393.897440</ele>
        <time>2023-12-03T21:16:03.406Z</time>
      </trkpt>
      <trkpt lat="39.724140" lon="16.157204">
        <ele>394.419564</ele>
        <time>2023-12-03T21:16:07.267Z</time>
      </trkpt>
      <trkpt lat="39.724123" lon="16.156745">
        <ele>396.206954</ele>
        <time>2023-12-03T21:16:19.621Z</time>
      </trkpt>
      <trkpt lat="39.724195" lon="16.155992">
        <ele>399.158360</ele>
        <time>2023-12-03T21:16:39.801Z</time>
      </trkpt>
      <trkpt lat="39.724608" lon="16.156118">
        <ele>401.303681</ele>
        <time>2023-12-03T21:16:54.512Z</time>
      </trkpt>
      <trkpt lat="39.724853" lon="16.156247">
        <ele>402.640418</ele>
        <time>2023-12-03T21:17:03.776Z</time>
      </trkpt>
      <trkpt lat="39.725136" lon="16.156486">
        <ele>404.413860</ele>
        <time>2023-12-03T21:17:15.989Z</time>
      </trkpt>
      <trkpt lat="39.725243" lon="16.156492">
        <ele>404.998893</ele>
        <time>2023-12-03T21:17:19.985Z</time>
      </trkpt>
      <trkpt lat="39.725291" lon="16.156453">
        <ele>405.308080</ele>
        <time>2023-12-03T21:17:22.105Z</time>
      </trkpt>
      <trkpt lat="39.725583" lon="16.155256">
        <ele>410.583938</ele>
        <time>2023-12-03T21:17:57.936Z</time>
      </trkpt>
      <trkpt lat="39.725656" lon="16.155100">
        <ele>411.351118</ele>
        <time>2023-12-03T21:18:03.001Z</time>
      </trkpt>
      <trkpt lat="39.725968" lon="16.154680">
        <ele>413.817331</ele>
        <time>2023-12-03T21:18:19.202Z</time>
      </trkpt>
      <trkpt lat="39.726136" lon="16.154360">
        <ele>415.490465</ele>
        <time>2023-12-03T21:18:30.095Z</time>
      </trkpt>
      <trkpt lat="39.726202" lon="16.154160">
        <ele>416.430284</ele>
        <time>2023-12-03T21:18:36.306Z</time>
      </trkpt>
      <trkpt lat="39.726171" lon="16.154115">
        <ele>416.691165</ele>
        <time>2023-12-03T21:18:38.045Z</time>
      </trkpt>
      <trkpt lat="39.726116" lon="16.154108">
        <ele>417.001454</ele>
        <time>2023-12-03T21:18:40.094Z</time>
      </trkpt>
      <trkpt lat="39.726083" lon="16.154134">
        <ele>417.218105</ele>
        <time>2023-12-03T21:18:41.549Z</time>
      </trkpt>
      <trkpt lat="39.725931" lon="16.154413">
        <ele>418.694581</ele>
        <time>2023-12-03T21:18:51.677Z</time>
      </trkpt>
      <trkpt lat="39.725806" lon="16.154459">
        <ele>419.423999</ele>
        <time>2023-12-03T21:18:56.710Z</time>
      </trkpt>
      <trkpt lat="39.725729" lon="16.154454">
        <ele>419.856875</ele>
        <time>2023-12-03T21:18:59.812Z</time>
      </trkpt>
      <trkpt lat="39.725634" lon="16.154373">
        <ele>420.494741</ele>
        <time>2023-12-03T21:19:04.235Z</time>
      </trkpt>
      <trkpt lat="39.725549" lon="16.154251">
        <ele>421.205614</ele>
        <time>2023-12-03T21:19:08.984Z</time>
      </trkpt>
      <trkpt lat="39.725370" lon="16.153910">
        <ele>422.988478</ele>
        <time>2023-12-03T21:19:20.878Z</time>
      </trkpt>
      <trkpt lat="39.724989" lon="16.152708">
        <ele>427.893374</ele>
        <time>2023-12-03T21:19:56.910Z</time>
      </trkpt>
      <trkpt lat="39.724274" lon="16.151918">
        <ele>432.398950</ele>
        <time>2023-12-03T21:20:27.003Z</time>
      </trkpt>
      <trkpt lat="39.724149" lon="16.151639">
        <ele>433.438302</ele>
        <time>2023-12-03T21:20:35.015Z</time>
      </trkpt>
      <trkpt lat="39.723934" lon="16.150639">
        <ele>436.780674</ele>
        <time>2023-12-03T21:21:00.105Z</time>
      </trkpt>
      <trkpt lat="39.723797" lon="16.150391">
        <ele>437.763552</ele>
        <time>2023-12-03T21:21:06.192Z</time>
      </trkpt>
      <trkpt lat="39.723821" lon="16.150159">
        <ele>438.517081</ele>
        <time>2023-12-03T21:21:11.841Z</time>
      </trkpt>
      <trkpt lat="39.724065" lon="16.149849">
        <ele>440.209910</ele>
        <time>2023-12-03T21:21:22.074Z</time>
      </trkpt>
      <trkpt lat="39.724136" lon="16.149725">
        <ele>441.199427</ele>
        <time>2023-12-03T21:21:25.501Z</time>
      </trkpt>
      <trkpt lat="39.724171" lon="16.149586">
        <ele>442.135630</ele>
        <time>2023-12-03T21:21:29.437Z</time>
      </trkpt>
      <trkpt lat="39.724160" lon="16.149378">
        <ele>443.470177</ele>
        <time>2023-12-03T21:21:36.067Z</time>
      </trkpt>
      <trkpt lat="39.724018" lon="16.148779">
        <ele>447.482358</ele>
        <time>2023-12-03T21:21:57.952Z</time>
      </trkpt>
      <trkpt lat="39.723839" lon="16.148260">
        <ele>451.123194</ele>
        <time>2023-12-03T21:22:23.472Z</time>
      </trkpt>
      <trkpt lat="39.723863" lon="16.147973">
        <ele>452.971109</ele>
        <time>2023-12-03T21:22:36.890Z</time>
      </trkpt>
      <trkpt lat="39.724137" lon="16.147578">
        <ele>456.860901</ele>
        <time>2023-12-03T21:23:00.407Z</time>
      </trkpt>
      <trkpt lat="39.724465" lon="16.147346">
        <ele>460.839508</ele>
        <time>2023-12-03T21:23:22.113Z</time>
      </trkpt>
      <trkpt lat="39.724810" lon="16.147407">
        <ele>464.549392</ele>
        <time>2023-12-03T21:23:43.207Z</time>
      </trkpt>
      <trkpt lat="39.725126" lon="16.147508">
        <ele>468.016684</ele>
        <time>2023-12-03T21:24:03.189Z</time>
      </trkpt>
      <trkpt lat="39.725275" lon="16.147400">
        <ele>469.834351</ele>
        <time>2023-12-03T21:24:13.636Z</time>
      </trkpt>
      <trkpt lat="39.725782" lon="16.146524">
        <ele>476.897537</ele>
        <time>2023-12-03T21:24:57.999Z</time>
      </trkpt>
      <trkpt lat="39.726670" lon="16.144664">
        <ele>487.597786</ele>
        <time>2023-12-03T21:25:58.974Z</time>
      </trkpt>
      <trkpt lat="39.726837" lon="16.144509">
        <ele>488.738564</ele>
        <time>2023-12-03T21:26:05.510Z</time>
      </trkpt>
      <trkpt lat="39.726980" lon="16.144517">
        <ele>489.534351</ele>
        <time>2023-12-03T21:26:10.161Z</time>
      </trkpt>
      <trkpt lat="39.727409" lon="16.144718">
        <ele>492.069636</ele>
        <time>2023-12-03T21:26:25.625Z</time>
      </trkpt>
      <trkpt lat="39.727850" lon="16.144726">
        <ele>494.521747</ele>
        <time>2023-12-03T21:26:42.611Z</time>
      </trkpt>
      <trkpt lat="39.728351" lon="16.144951">
        <ele>498.262327</ele>
        <time>2023-12-03T21:27:06.236Z</time>
      </trkpt>
      <trkpt lat="39.728584" lon="16.144960">
        <ele>500.115772</ele>
        <time>2023-12-03T21:27:16.916Z</time>
      </trkpt>
      <trkpt lat="39.728822" lon="16.144873">
        <ele>502.081516</ele>
        <time>2023-12-03T21:27:28.604Z</time>
      </trkpt>
      <trkpt lat="39.729039" lon="16.144707">
        <ele>504.083382</ele>
        <time>2023-12-03T21:27:40.959Z</time>
      </trkpt>
      <trkpt lat="39.729090" lon="16.144613">
        <ele>504.786839</ele>
        <time>2023-12-03T21:27:45.277Z</time>
      </trkpt>
      <trkpt lat="39.729139" lon="16.144443">
        <ele>505.897010</ele>
        <time>2023-12-03T21:27:52.277Z</time>
      </trkpt>
      <trkpt lat="39.729171" lon="16.144270">
        <ele>506.985082</ele>
        <time>2023-12-03T21:27:59.147Z</time>
      </trkpt>
      <trkpt lat="39.729178" lon="16.144048">
        <ele>508.343765</ele>
        <time>2023-12-03T21:28:07.501Z</time>
      </trkpt>
      <trkpt lat="39.729149" lon="16.143912">
        <ele>509.206787</ele>
        <time>2023-12-03T21:28:12.995Z</time>
      </trkpt>
      <trkpt lat="39.728896" lon="16.143392">
        <ele>512.019732</ele>
        <time>2023-12-03T21:28:35.295Z</time>
      </trkpt>
      <trkpt lat="39.728847" lon="16.143224">
        <ele>512.775714</ele>
        <time>2023-12-03T21:28:41.087Z</time>
      </trkpt>
      <trkpt lat="39.728854" lon="16.143116">
        <ele>513.231733</ele>
        <time>2023-12-03T21:28:44.994Z</time>
      </trkpt>
      <trkpt lat="39.729040" lon="16.142733">
        <ele>515.137585</ele>
        <time>2023-12-03T21:28:59.083Z</time>
      </trkpt>
      <trkpt lat="39.729061" lon="16.142604">
        <ele>515.692375</ele>
        <time>2023-12-03T21:29:02.891Z</time>
      </trkpt>
      <trkpt lat="39.729030" lon="16.142499">
        <ele>516.165595</ele>
        <time>2023-12-03T21:29:05.689Z</time>
      </trkpt>
      <trkpt lat="39.728903" lon="16.142338">
        <ele>517.135963</ele>
        <time>2023-12-03T21:29:11.541Z</time>
      </trkpt>
      <trkpt lat="39.728574" lon="16.141989">
        <ele>519.458867</ele>
        <time>2023-12-03T21:29:23.803Z</time>
      </trkpt>
      <trkpt lat="39.728510" lon="16.141805">
        <ele>519.753713</ele>
        <time>2023-12-03T21:29:26.854Z</time>
      </trkpt>
      <trkpt lat="39.728516" lon="16.141735">
        <ele>519.747610</ele>
        <time>2023-12-03T21:29:28.057Z</time>
      </trkpt>
      <trkpt lat="39.728521" lon="16.141665">
        <ele>519.741519</ele>
        <time>2023-12-03T21:29:29.232Z</time>
      </trkpt>
      <trkpt lat="39.728604" lon="16.141502">
        <ele>519.724581</ele>
        <time>2023-12-03T21:29:32.191Z</time>
      </trkpt>
      <trkpt lat="39.728732" lon="16.141378">
        <ele>519.706598</ele>
        <time>2023-12-03T21:29:34.505Z</time>
      </trkpt>
      <trkpt lat="39.729198" lon="16.141162">
        <ele>519.650863</ele>
        <time>2023-12-03T21:29:40.799Z</time>
      </trkpt>
      <trkpt lat="39.729257" lon="16.141003">
        <ele>519.635567</ele>
        <time>2023-12-03T21:29:42.244Z</time>
      </trkpt>
      <trkpt lat="39.729157" lon="16.140703">
        <ele>519.607238</ele>
        <time>2023-12-03T21:29:45.356Z</time>
      </trkpt>
      <trkpt lat="39.728696" lon="16.139650">
        <ele>519.416787</ele>
        <time>2023-12-03T21:29:56.831Z</time>
      </trkpt>
      <trkpt lat="39.728625" lon="16.139364">
        <ele>519.353667</ele>
        <time>2023-12-03T21:29:59.798Z</time>
      </trkpt>
      <trkpt lat="39.728603" lon="16.139120">
        <ele>519.302070</ele>
        <time>2023-12-03T21:30:02.336Z</time>
      </trkpt>
      <trkpt lat="39.728600" lon="16.138232">
        <ele>519.115563</ele>
        <time>2023-12-03T21:30:11.342Z</time>
      </trkpt>
      <trkpt lat="39.728630" lon="16.137976">
        <ele>519.159963</ele>
        <time>2023-12-03T21:30:14.737Z</time>
      </trkpt>
      <trkpt lat="39.728696" lon="16.137768">
        <ele>519.583873</ele>
        <time>2023-12-03T21:30:18.188Z</time>
      </trkpt>
      <trkpt lat="39.729375" lon="16.136186">
        <ele>522.997025</ele>
        <time>2023-12-03T21:30:55.247Z</time>
      </trkpt>
      <trkpt lat="39.729453" lon="16.136062">
        <ele>523.298825</ele>
        <time>2023-12-03T21:30:58.535Z</time>
      </trkpt>
      <trkpt lat="39.729976" lon="16.135488">
        <ele>525.229334</ele>
        <time>2023-12-03T21:31:16.929Z</time>
      </trkpt>
      <trkpt lat="39.730114" lon="16.135370">
        <ele>525.702514</ele>
        <time>2023-12-03T21:31:21.534Z</time>
      </trkpt>
      <trkpt lat="39.730228" lon="16.135308">
        <ele>526.056530</ele>
        <time>2023-12-03T21:31:25.030Z</time>
      </trkpt>
      <trkpt lat="39.730805" lon="16.135169">
        <ele>527.737706</ele>
        <time>2023-12-03T21:31:42.092Z</time>
      </trkpt>
      <trkpt lat="39.731001" lon="16.135081">
        <ele>528.331757</ele>
        <time>2023-12-03T21:31:47.495Z</time>
      </trkpt>
      <trkpt lat="39.731185" lon="16.134989">
        <ele>528.605011</ele>
        <time>2023-12-03T21:31:52.131Z</time>
      </trkpt>
      <trkpt lat="39.732064" lon="16.134403">
        <ele>528.338987</ele>
        <time>2023-12-03T21:32:07.937Z</time>
      </trkpt>
      <trkpt lat="39.732392" lon="16.133868">
        <ele>528.197280</ele>
        <time>2023-12-03T21:32:14.064Z</time>
      </trkpt>
      <trkpt lat="39.732743" lon="16.133353">
        <ele>526.862925</ele>
        <time>2023-12-03T21:32:19.695Z</time>
      </trkpt>
      <trkpt lat="39.732952" lon="16.133047">
        <ele>525.666872</ele>
        <time>2023-12-03T21:32:22.828Z</time>
      </trkpt>
      <trkpt lat="39.733513" lon="16.131613">
        <ele>521.181058</ele>
        <time>2023-12-03T21:32:34.575Z</time>
      </trkpt>
      <trkpt lat="39.733734" lon="16.131032">
        <ele>520.471439</ele>
        <time>2023-12-03T21:32:39.524Z</time>
      </trkpt>
      <trkpt lat="39.734172" lon="16.129882">
        <ele>519.066504</ele>
        <time>2023-12-03T21:32:51.469Z</time>
      </trkpt>
      <trkpt lat="39.734385" lon="16.129279">
        <ele>520.460710</ele>
        <time>2023-12-03T21:33:02.926Z</time>
      </trkpt>
      <trkpt lat="39.734466" lon="16.129025">
        <ele>521.717064</ele>
        <time>2023-12-03T21:33:08.697Z</time>
      </trkpt>
      <trkpt lat="39.734461" lon="16.128972">
        <ele>521.961037</ele>
        <time>2023-12-03T21:33:09.915Z</time>
      </trkpt>
      <trkpt lat="39.734515" lon="16.128943">
        <ele>522.308155</ele>
        <time>2023-12-03T21:33:12.086Z</time>
      </trkpt>
      <trkpt lat="39.734871" lon="16.128473">
        <ele>525.322320</ele>
        <time>2023-12-03T21:33:31.856Z</time>
      </trkpt>
      <trkpt lat="39.735487" lon="16.127971">
        <ele>529.797724</ele>
        <time>2023-12-03T21:34:09.162Z</time>
      </trkpt>
      <trkpt lat="39.735927" lon="16.127755">
        <ele>534.719696</ele>
        <time>2023-12-03T21:34:34.983Z</time>
      </trkpt>
      <trkpt lat="39.735999" lon="16.127675">
        <ele>535.710803</ele>
        <time>2023-12-03T21:34:40.390Z</time>
      </trkpt>
      <trkpt lat="39.736084" lon="16.127501">
        <ele>537.369789</ele>
        <time>2023-12-03T21:34:49.517Z</time>
      </trkpt>
      <trkpt lat="39.736031" lon="16.127405">
        <ele>538.320872</ele>
        <time>2023-12-03T21:34:54.408Z</time>
      </trkpt>
      <trkpt lat="39.736024" lon="16.127343">
        <ele>538.825188</ele>
        <time>2023-12-03T21:34:57.117Z</time>
      </trkpt>
      <trkpt lat="39.736065" lon="16.127229">
        <ele>539.838025</ele>
        <time>2023-12-03T21:35:02.855Z</time>
      </trkpt>
      <trkpt lat="39.737327" lon="16.126134">
        <ele>556.113843</ele>
        <time>2023-12-03T21:36:32.532Z</time>
      </trkpt>
      <trkpt lat="39.737492" lon="16.125959">
        <ele>558.461215</ele>
        <time>2023-12-03T21:36:45.205Z</time>
      </trkpt>
      <trkpt lat="39.737615" lon="16.125666">
        <ele>561.291243</ele>
        <time>2023-12-03T21:37:00.444Z</time>
      </trkpt>
      <trkpt lat="39.737691" lon="16.125364">
        <ele>563.985147</ele>
        <time>2023-12-03T21:37:14.988Z</time>
      </trkpt>
      <trkpt lat="39.737684" lon="16.125245">
        <ele>564.996949</ele>
        <time>2023-12-03T21:37:20.481Z</time>
      </trkpt>
      <trkpt lat="39.737502" lon="16.124722">
        <ele>569.651434</ele>
        <time>2023-12-03T21:37:47.019Z</time>
      </trkpt>
      <trkpt lat="39.737455" lon="16.124483">
        <ele>571.492627</ele>
        <time>2023-12-03T21:37:57.434Z</time>
      </trkpt>
      <trkpt lat="39.737455" lon="16.124339">
        <ele>572.567378</ele>
        <time>2023-12-03T21:38:03.391Z</time>
      </trkpt>
      <trkpt lat="39.737518" lon="16.123892">
        <ele>575.959155</ele>
        <time>2023-12-03T21:38:22.125Z</time>
      </trkpt>
      <trkpt lat="39.737575" lon="16.123694">
        <ele>577.537096</ele>
        <time>2023-12-03T21:38:31.075Z</time>
      </trkpt>
      <trkpt lat="39.737742" lon="16.123294">
        <ele>580.934134</ele>
        <time>2023-12-03T21:38:49.415Z</time>
      </trkpt>
      <trkpt lat="39.737912" lon="16.123030">
        <ele>583.504109</ele>
        <time>2023-12-03T21:39:02.824Z</time>
      </trkpt>
      <trkpt lat="39.737954" lon="16.122920">
        <ele>584.420726</ele>
        <time>2023-12-03T21:39:07.878Z</time>
      </trkpt>
      <trkpt lat="39.737901" lon="16.122878">
        <ele>585.023117</ele>
        <time>2023-12-03T21:39:10.801Z</time>
      </trkpt>
      <trkpt lat="39.737839" lon="16.122777">
        <ele>585.927926</ele>
        <time>2023-12-03T21:39:15.510Z</time>
      </trkpt>
      <trkpt lat="39.737796" lon="16.122678">
        <ele>586.661606</ele>
        <time>2023-12-03T21:39:19.976Z</time>
      </trkpt>
      <trkpt lat="39.737785" lon="16.122592">
        <ele>587.224164</ele>
        <time>2023-12-03T21:39:23.494Z</time>
      </trkpt>
      <trkpt lat="39.737789" lon="16.122495">
        <ele>587.850978</ele>
        <time>2023-12-03T21:39:27.244Z</time>
      </trkpt>
      <trkpt lat="39.737934" lon="16.121841">
        <ele>592.242958</ele>
        <time>2023-12-03T21:39:52.439Z</time>
      </trkpt>
      <trkpt lat="39.737927" lon="16.121496">
        <ele>594.469918</ele>
        <time>2023-12-03T21:40:04.977Z</time>
      </trkpt>
      <trkpt lat="39.737948" lon="16.121141">
        <ele>596.767398</ele>
        <time>2023-12-03T21:40:17.744Z</time>
      </trkpt>
      <trkpt lat="39.738045" lon="16.120183">
        <ele>602.757490</ele>
        <time>2023-12-03T21:40:53.380Z</time>
      </trkpt>
      <trkpt lat="39.738041" lon="16.119882">
        <ele>604.498664</ele>
        <time>2023-12-03T21:41:05.435Z</time>
      </trkpt>
      <trkpt lat="39.737958" lon="16.119058">
        <ele>609.305204</ele>
        <time>2023-12-03T21:41:36.992Z</time>
      </trkpt>
      <trkpt lat="39.737981" lon="16.118849">
        <ele>610.526329</ele>
        <time>2023-12-03T21:41:44.049Z</time>
      </trkpt>
      <trkpt lat="39.738223" lon="16.118008">
        <ele>615.017926</ele>
        <time>2023-12-03T21:42:10.203Z</time>
      </trkpt>
      <trkpt lat="39.738228" lon="16.117652">
        <ele>616.145880</ele>
        <time>2023-12-03T21:42:19.132Z</time>
      </trkpt>
      <trkpt lat="39.737893" lon="16.116742">
        <ele>619.341978</ele>
        <time>2023-12-03T21:42:41.136Z</time>
      </trkpt>
      <trkpt lat="39.737834" lon="16.116384">
        <ele>620.501840</ele>
        <time>2023-12-03T21:42:48.890Z</time>
      </trkpt>
      <trkpt lat="39.737777" lon="16.116259">
        <ele>620.962216</ele>
        <time>2023-12-03T21:42:52.014Z</time>
      </trkpt>
      <trkpt lat="39.737643" lon="16.116115">
        <ele>621.688358</ele>
        <time>2023-12-03T21:42:57.052Z</time>
      </trkpt>
      <trkpt lat="39.737406" lon="16.115922">
        <ele>622.954865</ele>
        <time>2023-12-03T21:43:05.858Z</time>
      </trkpt>
      <trkpt lat="39.737184" lon="16.115675">
        <ele>624.278128</ele>
        <time>2023-12-03T21:43:16.129Z</time>
      </trkpt>
      <trkpt lat="39.737099" lon="16.115516">
        <ele>624.952570</ele>
        <time>2023-12-03T21:43:21.097Z</time>
      </trkpt>
      <trkpt lat="39.737035" lon="16.115326">
        <ele>625.675014</ele>
        <time>2023-12-03T21:43:26.798Z</time>
      </trkpt>
      <trkpt lat="39.737014" lon="16.115104">
        <ele>626.454036</ele>
        <time>2023-12-03T21:43:32.639Z</time>
      </trkpt>
      <trkpt lat="39.737034" lon="16.114920">
        <ele>627.101252</ele>
        <time>2023-12-03T21:43:37.681Z</time>
      </trkpt>
      <trkpt lat="39.737439" lon="16.114118">
        <ele>630.043482</ele>
        <time>2023-12-03T21:44:03.385Z</time>
      </trkpt>
      <trkpt lat="39.737462" lon="16.113971">
        <ele>630.275691</ele>
        <time>2023-12-03T21:44:07.455Z</time>
      </trkpt>
      <trkpt lat="39.737434" lon="16.113796">
        <ele>630.552381</ele>
        <time>2023-12-03T21:44:11.883Z</time>
      </trkpt>
      <trkpt lat="39.736689" lon="16.111363">
        <ele>633.312085</ele>
        <time>2023-12-03T21:44:49.918Z</time>
      </trkpt>
      <trkpt lat="39.736319" lon="16.110936">
        <ele>633.286481</ele>
        <time>2023-12-03T21:44:56.148Z</time>
      </trkpt>
      <trkpt lat="39.736111" lon="16.110812">
        <ele>633.274639</ele>
        <time>2023-12-03T21:44:59.288Z</time>
      </trkpt>
      <trkpt lat="39.735991" lon="16.110557">
        <ele>633.262740</ele>
        <time>2023-12-03T21:45:02.274Z</time>
      </trkpt>
      <trkpt lat="39.735991" lon="16.109472">
        <ele>633.345199</ele>
        <time>2023-12-03T21:45:12.913Z</time>
      </trkpt>
      <trkpt lat="39.735842" lon="16.108898">
        <ele>633.416131</ele>
        <time>2023-12-03T21:45:19.232Z</time>
      </trkpt>
      <trkpt lat="39.735825" lon="16.108619">
        <ele>633.448900</ele>
        <time>2023-12-03T21:45:22.657Z</time>
      </trkpt>
      <trkpt lat="39.735628" lon="16.108402">
        <ele>633.488208</ele>
        <time>2023-12-03T21:45:27.520Z</time>
      </trkpt>
      <trkpt lat="39.735372" lon="16.108201">
        <ele>633.711915</ele>
        <time>2023-12-03T21:45:33.724Z</time>
      </trkpt>
      <trkpt lat="39.735038" lon="16.107643">
        <ele>635.539094</ele>
        <time>2023-12-03T21:45:45.797Z</time>
      </trkpt>
      <trkpt lat="39.734937" lon="16.107395">
        <ele>636.264250</ele>
        <time>2023-12-03T21:45:51.136Z</time>
      </trkpt>
      <trkpt lat="39.735044" lon="16.106217">
        <ele>639.329386</ele>
        <time>2023-12-03T21:46:20.013Z</time>
      </trkpt>
      <trkpt lat="39.735199" lon="16.105837">
        <ele>640.868545</ele>
        <time>2023-12-03T21:46:32.870Z</time>
      </trkpt>
      <trkpt lat="39.735032" lon="16.105023">
        <ele>644.113366</ele>
        <time>2023-12-03T21:46:57.628Z</time>
      </trkpt>
      <trkpt lat="39.735241" lon="16.104395">
        <ele>646.748933</ele>
        <time>2023-12-03T21:47:15.352Z</time>
      </trkpt>
      <trkpt lat="39.735199" lon="16.104194">
        <ele>647.551165</ele>
        <time>2023-12-03T21:47:20.514Z</time>
      </trkpt>
      <trkpt lat="39.735032" lon="16.104078">
        <ele>648.499428</ele>
        <time>2023-12-03T21:47:26.716Z</time>
      </trkpt>
      <trkpt lat="39.734579" lon="16.104016">
        <ele>650.325971</ele>
        <time>2023-12-03T21:47:41.350Z</time>
      </trkpt>
      <trkpt lat="39.734299" lon="16.103861">
        <ele>651.535491</ele>
        <time>2023-12-03T21:47:50.466Z</time>
      </trkpt>
      <trkpt lat="39.734049" lon="16.103551">
        <ele>652.908483</ele>
        <time>2023-12-03T21:48:00.105Z</time>
      </trkpt>
      <trkpt lat="39.733357" lon="16.103504">
        <ele>655.662625</ele>
        <time>2023-12-03T21:48:19.133Z</time>
      </trkpt>
      <trkpt lat="39.732815" lon="16.103357">
        <ele>660.063682</ele>
        <time>2023-12-03T21:48:39.941Z</time>
      </trkpt>
      <trkpt lat="39.732553" lon="16.103132">
        <ele>662.596720</ele>
        <time>2023-12-03T21:48:54.330Z</time>
      </trkpt>
      <trkpt lat="39.732112" lon="16.102598">
        <ele>667.458192</ele>
        <time>2023-12-03T21:49:25.535Z</time>
      </trkpt>
      <trkpt lat="39.731587" lon="16.101040">
        <ele>681.512916</ele>
        <time>2023-12-03T21:50:44.167Z</time>
      </trkpt>
      <trkpt lat="39.731247" lon="16.100536">
        <ele>687.545649</ele>
        <time>2023-12-03T21:51:18.043Z</time>
      </trkpt>
      <trkpt lat="39.730765" lon="16.099932">
        <ele>694.874891</ele>
        <time>2023-12-03T21:52:00.775Z</time>
      </trkpt>
      <trkpt lat="39.730517" lon="16.099181">
        <ele>701.326012</ele>
        <time>2023-12-03T21:52:38.606Z</time>
      </trkpt>
      <trkpt lat="39.730422" lon="16.098975">
        <ele>703.221935</ele>
        <time>2023-12-03T21:52:49.081Z</time>
      </trkpt>
      <trkpt lat="39.730159" lon="16.098630">
        <ele>707.056206</ele>
        <time>2023-12-03T21:53:08.535Z</time>
      </trkpt>
      <trkpt lat="39.730121" lon="16.098513">
        <ele>708.058688</ele>
        <time>2023-12-03T21:53:13.201Z</time>
      </trkpt>
      <trkpt lat="39.730156" lon="16.098157">
        <ele>710.265004</ele>
        <time>2023-12-03T21:53:25.846Z</time>
      </trkpt>
      <trkpt lat="39.730142" lon="16.098025">
        <ele>710.743384</ele>
        <time>2023-12-03T21:53:30.151Z</time>
      </trkpt>
      <trkpt lat="39.730053" lon="16.097834">
        <ele>711.545140</ele>
        <time>2023-12-03T21:53:37.081Z</time>
      </trkpt>
      <trkpt lat="39.729903" lon="16.097609">
        <ele>712.614167</ele>
        <time>2023-12-03T21:53:45.560Z</time>
      </trkpt>
      <trkpt lat="39.729841" lon="16.097537">
        <ele>713.002219</ele>
        <time>2023-12-03T21:53:48.430Z</time>
      </trkpt>
      <trkpt lat="39.729743" lon="16.097510">
        <ele>713.469855</ele>
        <time>2023-12-03T21:53:51.797Z</time>
      </trkpt>
      <trkpt lat="39.728935" lon="16.097439">
        <ele>717.250334</ele>
        <time>2023-12-03T21:54:13.929Z</time>
      </trkpt>
      <trkpt lat="39.728731" lon="16.097390">
        <ele>718.211458</ele>
        <time>2023-12-03T21:54:19.141Z</time>
      </trkpt>
      <trkpt lat="39.727851" lon="16.096989">
        <ele>722.168134</ele>
        <time>2023-12-03T21:54:44.700Z</time>
      </trkpt>
      <trkpt lat="39.727724" lon="16.096909">
        <ele>722.766929</ele>
        <time>2023-12-03T21:54:49.472Z</time>
      </trkpt>
      <trkpt lat="39.727661" lon="16.096849">
        <ele>723.098289</ele>
        <time>2023-12-03T21:54:52.188Z</time>
      </trkpt>
      <trkpt lat="39.727610" lon="16.096748">
        <ele>723.492584</ele>
        <time>2023-12-03T21:54:55.337Z</time>
      </trkpt>
      <trkpt lat="39.727513" lon="16.096301">
        <ele>725.008280</ele>
        <time>2023-12-03T21:55:08.650Z</time>
      </trkpt>
      <trkpt lat="39.727494" lon="16.096078">
        <ele>725.740472</ele>
        <time>2023-12-03T21:55:15.651Z</time>
      </trkpt>
      <trkpt lat="39.727517" lon="16.095889">
        <ele>726.391727</ele>
        <time>2023-12-03T21:55:21.713Z</time>
      </trkpt>
      <trkpt lat="39.727498" lon="16.095654">
        <ele>727.197625</ele>
        <time>2023-12-03T21:55:29.127Z</time>
      </trkpt>
      <trkpt lat="39.727453" lon="16.095525">
        <ele>727.680727</ele>
        <time>2023-12-03T21:55:32.795Z</time>
      </trkpt>
      <trkpt lat="39.727326" lon="16.095340">
        <ele>728.526469</ele>
        <time>2023-12-03T21:55:39.867Z</time>
      </trkpt>
      <trkpt lat="39.727154" lon="16.095183">
        <ele>729.458394</ele>
        <time>2023-12-03T21:55:46.955Z</time>
      </trkpt>
      <trkpt lat="39.726514" lon="16.094816">
        <ele>732.560246</ele>
        <time>2023-12-03T21:56:09.010Z</time>
      </trkpt>
      <trkpt lat="39.726372" lon="16.094747">
        <ele>733.232486</ele>
        <time>2023-12-03T21:56:13.478Z</time>
      </trkpt>
      <trkpt lat="39.726318" lon="16.094749">
        <ele>733.472047</ele>
        <time>2023-12-03T21:56:14.918Z</time>
      </trkpt>
      <trkpt lat="39.726126" lon="16.094885">
        <ele>734.170313</ele>
        <time>2023-12-03T21:56:19.796Z</time>
      </trkpt>
      <trkpt lat="39.725861" lon="16.094934">
        <ele>734.893840</ele>
        <time>2023-12-03T21:56:25.691Z</time>
      </trkpt>
      <trkpt lat="39.725757" lon="16.094893">
        <ele>735.187600</ele>
        <time>2023-12-03T21:56:28.204Z</time>
      </trkpt>
      <trkpt lat="39.725372" lon="16.094482">
        <ele>736.534130</ele>
        <time>2023-12-03T21:56:39.979Z</time>
      </trkpt>
      <trkpt lat="39.724965" lon="16.094468">
        <ele>737.634674</ele>
        <time>2023-12-03T21:56:49.665Z</time>
      </trkpt>
      <trkpt lat="39.724965" lon="16.094468">
        <ele>737.634674</ele>
        <time>2023-12-03T21:56:49.666Z</time>
      </trkpt>
      <trkpt lat="39.724786" lon="16.094305">
        <ele>738.225396</ele>
        <time>2023-12-03T21:56:55.149Z</time>
      </trkpt>
      <trkpt lat="39.724634" lon="16.094002">
        <ele>739.075284</ele>
        <time>2023-12-03T21:57:03.561Z</time>
      </trkpt>
      <trkpt lat="39.724297" lon="16.093594">
        <ele>740.650037</ele>
        <time>2023-12-03T21:57:18.931Z</time>
      </trkpt>
      <trkpt lat="39.724119" lon="16.093185">
        <ele>741.886102</ele>
        <time>2023-12-03T21:57:30.734Z</time>
      </trkpt>
      <trkpt lat="39.724043" lon="16.092963">
        <ele>742.525254</ele>
        <time>2023-12-03T21:57:36.378Z</time>
      </trkpt>
      <trkpt lat="39.723991" lon="16.092687">
        <ele>743.272676</ele>
        <time>2023-12-03T21:57:43.165Z</time>
      </trkpt>
      <trkpt lat="39.724039" lon="16.092221">
        <ele>744.509330</ele>
        <time>2023-12-03T21:57:52.885Z</time>
      </trkpt>
      <trkpt lat="39.724020" lon="16.092105">
        <ele>744.749374</ele>
        <time>2023-12-03T21:57:54.823Z</time>
      </trkpt>
      <trkpt lat="39.723908" lon="16.091928">
        <ele>744.648793</ele>
        <time>2023-12-03T21:57:58.595Z</time>
      </trkpt>
      <trkpt lat="39.723832" lon="16.091861">
        <ele>744.596403</ele>
        <time>2023-12-03T21:58:00.404Z</time>
      </trkpt>
      <trkpt lat="39.723425" lon="16.091656">
        <ele>744.347373</ele>
        <time>2023-12-03T21:58:05.967Z</time>
      </trkpt>
      <trkpt lat="39.723146" lon="16.091452">
        <ele>744.164743</ele>
        <time>2023-12-03T21:58:09.386Z</time>
      </trkpt>
      <trkpt lat="39.722902" lon="16.091110">
        <ele>743.960035</ele>
        <time>2023-12-03T21:58:13.270Z</time>
      </trkpt>
      <trkpt lat="39.722793" lon="16.091041">
        <ele>743.890865</ele>
        <time>2023-12-03T21:58:14.573Z</time>
      </trkpt>
      <trkpt lat="39.722318" lon="16.090956">
        <ele>743.860508</ele>
        <time>2023-12-03T21:58:20.265Z</time>
      </trkpt>
      <trkpt lat="39.721945" lon="16.090792">
        <ele>744.106306</ele>
        <time>2023-12-03T21:58:27.629Z</time>
      </trkpt>
      <trkpt lat="39.721799" lon="16.090681">
        <ele>744.211885</ele>
        <time>2023-12-03T21:58:30.967Z</time>
      </trkpt>
      <trkpt lat="39.721686" lon="16.090507">
        <ele>744.321227</ele>
        <time>2023-12-03T21:58:34.697Z</time>
      </trkpt>
      <trkpt lat="39.721543" lon="16.090228">
        <ele>744.482205</ele>
        <time>2023-12-03T21:58:39.730Z</time>
      </trkpt>
      <trkpt lat="39.721356" lon="16.089777">
        <ele>744.728211</ele>
        <time>2023-12-03T21:58:47.259Z</time>
      </trkpt>
      <trkpt lat="39.721367" lon="16.089540">
        <ele>744.842213</ele>
        <time>2023-12-03T21:58:50.431Z</time>
      </trkpt>
      <trkpt lat="39.721393" lon="16.089469">
        <ele>744.852136</ele>
        <time>2023-12-03T21:58:51.320Z</time>
      </trkpt>
      <trkpt lat="39.721464" lon="16.089339">
        <ele>744.838916</ele>
        <time>2023-12-03T21:58:53.894Z</time>
      </trkpt>
      <trkpt lat="39.721598" lon="16.089199">
        <ele>744.820384</ele>
        <time>2023-12-03T21:58:57.176Z</time>
      </trkpt>
      <trkpt lat="39.721631" lon="16.088989">
        <ele>744.802612</ele>
        <time>2023-12-03T21:59:00.692Z</time>
      </trkpt>
      <trkpt lat="39.721586" lon="16.088855">
        <ele>744.790489</ele>
        <time>2023-12-03T21:59:03.079Z</time>
      </trkpt>
      <trkpt lat="39.721519" lon="16.088797">
        <ele>744.781811</ele>
        <time>2023-12-03T21:59:04.661Z</time>
      </trkpt>
      <trkpt lat="39.721424" lon="16.088774">
        <ele>744.771394</ele>
        <time>2023-12-03T21:59:06.338Z</time>
      </trkpt>
      <trkpt lat="39.721130" lon="16.088799">
        <ele>744.739633</ele>
        <time>2023-12-03T21:59:10.999Z</time>
      </trkpt>
      <trkpt lat="39.721069" lon="16.088782">
        <ele>744.732908</ele>
        <time>2023-12-03T21:59:11.830Z</time>
      </trkpt>
      <trkpt lat="39.721032" lon="16.088739">
        <ele>744.727558</ele>
        <time>2023-12-03T21:59:12.517Z</time>
      </trkpt>
      <trkpt lat="39.720940" lon="16.088363">
        <ele>744.694842</ele>
        <time>2023-12-03T21:59:16.976Z</time>
      </trkpt>
      <trkpt lat="39.720887" lon="16.088318">
        <ele>744.688018</ele>
        <time>2023-12-03T21:59:17.702Z</time>
      </trkpt>
      <trkpt lat="39.720613" lon="16.088307">
        <ele>744.587052</ele>
        <time>2023-12-03T21:59:20.727Z</time>
      </trkpt>
      <trkpt lat="39.720503" lon="16.088258">
        <ele>744.343386</ele>
        <time>2023-12-03T21:59:21.862Z</time>
      </trkpt>
      <trkpt lat="39.719972" lon="16.087654">
        <ele>742.864872</ele>
        <time>2023-12-03T21:59:28.877Z</time>
      </trkpt>
      <trkpt lat="39.719910" lon="16.087481">
        <ele>742.557239</ele>
        <time>2023-12-03T21:59:30.510Z</time>
      </trkpt>
      <trkpt lat="39.719824" lon="16.087366">
        <ele>742.298708</ele>
        <time>2023-12-03T21:59:31.797Z</time>
      </trkpt>
      <trkpt lat="39.719190" lon="16.086896">
        <ele>740.810091</ele>
        <time>2023-12-03T21:59:40.680Z</time>
      </trkpt>
      <trkpt lat="39.718840" lon="16.086489">
        <ele>740.150018</ele>
        <time>2023-12-03T21:59:46.496Z</time>
      </trkpt>
      <trkpt lat="39.718789" lon="16.086349">
        <ele>739.982529</ele>
        <time>2023-12-03T21:59:48.071Z</time>
      </trkpt>
      <trkpt lat="39.718725" lon="16.085937">
        <ele>739.528072</ele>
        <time>2023-12-03T21:59:51.835Z</time>
      </trkpt>
      <trkpt lat="39.718625" lon="16.085723">
        <ele>739.257339</ele>
        <time>2023-12-03T21:59:54.018Z</time>
      </trkpt>
      <trkpt lat="39.718558" lon="16.085662">
        <ele>739.142362</ele>
        <time>2023-12-03T21:59:54.986Z</time>
      </trkpt>
      <trkpt lat="39.718120" lon="16.085520">
        <ele>738.507826</ele>
        <time>2023-12-03T22:00:00.012Z</time>
      </trkpt>
      <trkpt lat="39.717524" lon="16.085199">
        <ele>737.095598</ele>
        <time>2023-12-03T22:00:07.169Z</time>
      </trkpt>
      <trkpt lat="39.717388" lon="16.085055">
        <ele>736.685922</ele>
        <time>2023-12-03T22:00:09.043Z</time>
      </trkpt>
      <trkpt lat="39.717146" lon="16.084934">
        <ele>736.080325</ele>
        <time>2023-12-03T22:00:11.793Z</time>
      </trkpt>
      <trkpt lat="39.717037" lon="16.084918">
        <ele>735.824119</ele>
        <time>2023-12-03T22:00:12.948Z</time>
      </trkpt>
      <trkpt lat="39.716680" lon="16.085079">
        <ele>734.941536</ele>
        <time>2023-12-03T22:00:16.869Z</time>
      </trkpt>
      <trkpt lat="39.716558" lon="16.085081">
        <ele>734.656561</ele>
        <time>2023-12-03T22:00:18.136Z</time>
      </trkpt>
      <trkpt lat="39.716468" lon="16.085055">
        <ele>734.441223</ele>
        <time>2023-12-03T22:00:19.102Z</time>
      </trkpt>
      <trkpt lat="39.715893" lon="16.084619">
        <ele>733.213428</ele>
        <time>2023-12-03T22:00:26.087Z</time>
      </trkpt>
      <trkpt lat="39.715725" lon="16.084574">
        <ele>732.915342</ele>
        <time>2023-12-03T22:00:28.006Z</time>
      </trkpt>
      <trkpt lat="39.715040" lon="16.084642">
        <ele>731.721473</ele>
        <time>2023-12-03T22:00:36.549Z</time>
      </trkpt>
      <trkpt lat="39.714959" lon="16.084607">
        <ele>731.573138</ele>
        <time>2023-12-03T22:00:37.564Z</time>
      </trkpt>
      <trkpt lat="39.714912" lon="16.084486">
        <ele>731.391935</ele>
        <time>2023-12-03T22:00:38.837Z</time>
      </trkpt>
      <trkpt lat="39.714965" lon="16.084186">
        <ele>730.897545</ele>
        <time>2023-12-03T22:00:41.729Z</time>
      </trkpt>
      <trkpt lat="39.715032" lon="16.083998">
        <ele>730.222413</ele>
        <time>2023-12-03T22:00:43.465Z</time>
      </trkpt>
      <trkpt lat="39.715083" lon="16.083931">
        <ele>729.915280</ele>
        <time>2023-12-03T22:00:44.282Z</time>
      </trkpt>
      <trkpt lat="39.715176" lon="16.083856">
        <ele>729.451694</ele>
        <time>2023-12-03T22:00:45.449Z</time>
      </trkpt>
      <trkpt lat="39.715450" lon="16.083748">
        <ele>728.238873</ele>
        <time>2023-12-03T22:00:48.344Z</time>
      </trkpt>
      <trkpt lat="39.715768" lon="16.083469">
        <ele>726.613781</ele>
        <time>2023-12-03T22:00:52.051Z</time>
      </trkpt>
      <trkpt lat="39.716139" lon="16.083206">
        <ele>724.823789</ele>
        <time>2023-12-03T22:00:56.007Z</time>
      </trkpt>
      <trkpt lat="39.716199" lon="16.082989">
        <ele>724.072434</ele>
        <time>2023-12-03T22:00:57.630Z</time>
      </trkpt>
      <trkpt lat="39.716129" lon="16.082659">
        <ele>722.499784</ele>
        <time>2023-12-03T22:01:00.019Z</time>
      </trkpt>
      <trkpt lat="39.716142" lon="16.082536">
        <ele>721.694996</ele>
        <time>2023-12-03T22:01:00.884Z</time>
      </trkpt>
      <trkpt lat="39.716313" lon="16.082147">
        <ele>718.790767</ele>
        <time>2023-12-03T22:01:03.965Z</time>
      </trkpt>
      <trkpt lat="39.716397" lon="16.081801">
        <ele>716.438920</ele>
        <time>2023-12-03T22:01:06.433Z</time>
      </trkpt>
      <trkpt lat="39.716437" lon="16.081136">
        <ele>712.115193</ele>
        <time>2023-12-03T22:01:10.906Z</time>
      </trkpt>
      <trkpt lat="39.716465" lon="16.080943">
        <ele>710.842100</ele>
        <time>2023-12-03T22:01:12.213Z</time>
      </trkpt>
      <trkpt lat="39.716693" lon="16.080303">
        <ele>706.230697</ele>
        <time>2023-12-03T22:01:16.857Z</time>
      </trkpt>
      <trkpt lat="39.716758" lon="16.080232">
        <ele>705.501060</ele>
        <time>2023-12-03T22:01:17.587Z</time>
      </trkpt>
      <trkpt lat="39.716961" lon="16.080098">
        <ele>703.544411</ele>
        <time>2023-12-03T22:01:19.534Z</time>
      </trkpt>
      <trkpt lat="39.717015" lon="16.079976">
        <ele>702.613902</ele>
        <time>2023-12-03T22:01:20.472Z</time>
      </trkpt>
      <trkpt lat="39.716985" lon="16.079822">
        <ele>701.563700</ele>
        <time>2023-12-03T22:01:21.532Z</time>
      </trkpt>
      <trkpt lat="39.716805" lon="16.079383">
        <ele>698.275003</ele>
        <time>2023-12-03T22:01:24.885Z</time>
      </trkpt>
      <trkpt lat="39.716438" lon="16.078983">
        <ele>694.159085</ele>
        <time>2023-12-03T22:01:29.177Z</time>
      </trkpt>
      <trkpt lat="39.716304" lon="16.078932">
        <ele>692.959117</ele>
        <time>2023-12-03T22:01:30.453Z</time>
      </trkpt>
      <trkpt lat="39.716239" lon="16.078969">
        <ele>692.466265</ele>
        <time>2023-12-03T22:01:31.095Z</time>
      </trkpt>
      <trkpt lat="39.716178" lon="16.079034">
        <ele>691.962664</ele>
        <time>2023-12-03T22:01:31.803Z</time>
      </trkpt>
      <trkpt lat="39.716156" lon="16.079110">
        <ele>691.563838</ele>
        <time>2023-12-03T22:01:32.361Z</time>
      </trkpt>
      <trkpt lat="39.716168" lon="16.079191">
        <ele>691.158700</ele>
        <time>2023-12-03T22:01:32.948Z</time>
      </trkpt>
      <trkpt lat="39.716278" lon="16.079461">
        <ele>689.658098</ele>
        <time>2023-12-03T22:01:35.078Z</time>
      </trkpt>
      <trkpt lat="39.716259" lon="16.079612">
        <ele>688.906614</ele>
        <time>2023-12-03T22:01:36.147Z</time>
      </trkpt>
      <trkpt lat="39.716054" lon="16.079770">
        <ele>687.384950</ele>
        <time>2023-12-03T22:01:38.309Z</time>
      </trkpt>
      <trkpt lat="39.715953" lon="16.079894">
        <ele>686.497944</ele>
        <time>2023-12-03T22:01:39.575Z</time>
      </trkpt>
      <trkpt lat="39.715931" lon="16.079960">
        <ele>686.144661</ele>
        <time>2023-12-03T22:01:40.081Z</time>
      </trkpt>
      <trkpt lat="39.715935" lon="16.080310">
        <ele>684.425459</ele>
        <time>2023-12-03T22:01:42.545Z</time>
      </trkpt>
      <trkpt lat="39.715743" lon="16.080849">
        <ele>681.508102</ele>
        <time>2023-12-03T22:01:46.790Z</time>
      </trkpt>
      <trkpt lat="39.715637" lon="16.080912">
        <ele>680.698701</ele>
        <time>2023-12-03T22:01:47.857Z</time>
      </trkpt>
      <trkpt lat="39.715565" lon="16.080866">
        <ele>680.126398</ele>
        <time>2023-12-03T22:01:48.590Z</time>
      </trkpt>
      <trkpt lat="39.715549" lon="16.080755">
        <ele>679.506689</ele>
        <time>2023-12-03T22:01:49.386Z</time>
      </trkpt>
      <trkpt lat="39.715660" lon="16.080247">
        <ele>676.608785</ele>
        <time>2023-12-03T22:01:53.000Z</time>
      </trkpt>
      <trkpt lat="39.715610" lon="16.079720">
        <ele>673.694989</ele>
        <time>2023-12-03T22:01:56.552Z</time>
      </trkpt>
      <trkpt lat="39.715670" lon="16.079543">
        <ele>672.633583</ele>
        <time>2023-12-03T22:01:57.852Z</time>
      </trkpt>
      <trkpt lat="39.715786" lon="16.079429">
        <ele>671.596226</ele>
        <time>2023-12-03T22:01:59.121Z</time>
      </trkpt>
      <trkpt lat="39.715825" lon="16.079359">
        <ele>671.121935</ele>
        <time>2023-12-03T22:01:59.714Z</time>
      </trkpt>
      <trkpt lat="39.715833" lon="16.079286">
        <ele>670.717308</ele>
        <time>2023-12-03T22:02:00.215Z</time>
      </trkpt>
      <trkpt lat="39.715765" lon="16.078910">
        <ele>668.597777</ele>
        <time>2023-12-03T22:02:02.907Z</time>
      </trkpt>
      <trkpt lat="39.715763" lon="16.078798">
        <ele>668.167741</ele>
        <time>2023-12-03T22:02:03.705Z</time>
      </trkpt>
      <trkpt lat="39.715822" lon="16.078384">
        <ele>666.700737</ele>
        <time>2023-12-03T22:02:06.884Z</time>
      </trkpt>
      <trkpt lat="39.715776" lon="16.078045">
        <ele>665.501359</ele>
        <time>2023-12-03T22:02:09.639Z</time>
      </trkpt>
      <trkpt lat="39.715779" lon="16.077864">
        <ele>664.870573</ele>
        <time>2023-12-03T22:02:11.144Z</time>
      </trkpt>
      <trkpt lat="39.715848" lon="16.077771">
        <ele>664.420380</ele>
        <time>2023-12-03T22:02:12.186Z</time>
      </trkpt>
      <trkpt lat="39.715904" lon="16.077747">
        <ele>664.153300</ele>
        <time>2023-12-03T22:02:12.777Z</time>
      </trkpt>
      <trkpt lat="39.715971" lon="16.077763">
        <ele>663.844746</ele>
        <time>2023-12-03T22:02:13.437Z</time>
      </trkpt>
      <trkpt lat="39.716164" lon="16.077893">
        <ele>662.860179</ele>
        <time>2023-12-03T22:02:15.627Z</time>
      </trkpt>
      <trkpt lat="39.716695" lon="16.078367">
        <ele>659.728545</ele>
        <time>2023-12-03T22:02:21.633Z</time>
      </trkpt>
      <trkpt lat="39.716781" lon="16.078345">
        <ele>659.118799</ele>
        <time>2023-12-03T22:02:22.446Z</time>
      </trkpt>
      <trkpt lat="39.716804" lon="16.078302">
        <ele>658.838536</ele>
        <time>2023-12-03T22:02:22.812Z</time>
      </trkpt>
      <trkpt lat="39.716775" lon="16.078199">
        <ele>658.251606</ele>
        <time>2023-12-03T22:02:23.576Z</time>
      </trkpt>
      <trkpt lat="39.716532" lon="16.078082">
        <ele>656.448920</ele>
        <time>2023-12-03T22:02:25.964Z</time>
      </trkpt>
      <trkpt lat="39.716179" lon="16.077693">
        <ele>653.229666</ele>
        <time>2023-12-03T22:02:30.167Z</time>
      </trkpt>
      <trkpt lat="39.716001" lon="16.077455">
        <ele>651.453326</ele>
        <time>2023-12-03T22:02:32.449Z</time>
      </trkpt>
      <trkpt lat="39.715747" lon="16.077276">
        <ele>649.443405</ele>
        <time>2023-12-03T22:02:35.000Z</time>
      </trkpt>
      <trkpt lat="39.715663" lon="16.077253">
        <ele>648.846224</ele>
        <time>2023-12-03T22:02:35.745Z</time>
      </trkpt>
      <trkpt lat="39.715568" lon="16.077265">
        <ele>648.182228</ele>
        <time>2023-12-03T22:02:36.574Z</time>
      </trkpt>
      <trkpt lat="39.715440" lon="16.077375">
        <ele>647.222384</ele>
        <time>2023-12-03T22:02:37.899Z</time>
      </trkpt>
      <trkpt lat="39.715423" lon="16.077457">
        <ele>646.836332</ele>
        <time>2023-12-03T22:02:38.466Z</time>
      </trkpt>
      <trkpt lat="39.715423" lon="16.077982">
        <ele>644.449816</ele>
        <time>2023-12-03T22:02:41.981Z</time>
      </trkpt>
      <trkpt lat="39.715398" lon="16.078151">
        <ele>643.667508</ele>
        <time>2023-12-03T22:02:43.166Z</time>
      </trkpt>
      <trkpt lat="39.715249" lon="16.078564">
        <ele>641.593884</ele>
        <time>2023-12-03T22:02:46.392Z</time>
      </trkpt>
      <trkpt lat="39.715148" lon="16.078685">
        <ele>640.782230</ele>
        <time>2023-12-03T22:02:47.712Z</time>
      </trkpt>
      <trkpt lat="39.714746" lon="16.078969">
        <ele>638.078485</ele>
        <time>2023-12-03T22:02:52.471Z</time>
      </trkpt>
      <trkpt lat="39.714682" lon="16.079052">
        <ele>637.544260</ele>
        <time>2023-12-03T22:02:53.493Z</time>
      </trkpt>
      <trkpt lat="39.714600" lon="16.079264">
        <ele>636.307964</ele>
        <time>2023-12-03T22:02:55.452Z</time>
      </trkpt>
      <trkpt lat="39.714563" lon="16.079298">
        <ele>635.982772</ele>
        <time>2023-12-03T22:02:55.913Z</time>
      </trkpt>
      <trkpt lat="39.714517" lon="16.079304">
        <ele>635.650972</ele>
        <time>2023-12-03T22:02:56.377Z</time>
      </trkpt>
      <trkpt lat="39.714464" lon="16.079249">
        <ele>635.164260</ele>
        <time>2023-12-03T22:02:57.044Z</time>
      </trkpt>
      <trkpt lat="39.714465" lon="16.079150">
        <ele>634.617652</ele>
        <time>2023-12-03T22:02:57.794Z</time>
      </trkpt>
      <trkpt lat="39.714583" lon="16.078857">
        <ele>632.791773</ele>
        <time>2023-12-03T22:03:00.174Z</time>
      </trkpt>
      <trkpt lat="39.714653" lon="16.078777">
        <ele>632.122847</ele>
        <time>2023-12-03T22:03:01.016Z</time>
      </trkpt>
      <trkpt lat="39.715087" lon="16.078450">
        <ele>628.522687</ele>
        <time>2023-12-03T22:03:05.387Z</time>
      </trkpt>
      <trkpt lat="39.715155" lon="16.078332">
        <ele>627.708706</ele>
        <time>2023-12-03T22:03:06.359Z</time>
      </trkpt>
      <trkpt lat="39.715187" lon="16.078183">
        <ele>626.854655</ele>
        <time>2023-12-03T22:03:07.371Z</time>
      </trkpt>
      <trkpt lat="39.715193" lon="16.077986">
        <ele>625.766214</ele>
        <time>2023-12-03T22:03:08.671Z</time>
      </trkpt>
      <trkpt lat="39.715141" lon="16.077438">
        <ele>622.601433</ele>
        <time>2023-12-03T22:03:12.346Z</time>
      </trkpt>
      <trkpt lat="39.714745" lon="16.076887">
        <ele>618.130273</ele>
        <time>2023-12-03T22:03:17.562Z</time>
      </trkpt>
      <trkpt lat="39.714660" lon="16.076708">
        <ele>616.882966</ele>
        <time>2023-12-03T22:03:19.046Z</time>
      </trkpt>
      <trkpt lat="39.714629" lon="16.076522">
        <ele>615.754506</ele>
        <time>2023-12-03T22:03:20.373Z</time>
      </trkpt>
      <trkpt lat="39.714670" lon="16.076246">
        <ele>614.087752</ele>
        <time>2023-12-03T22:03:22.325Z</time>
      </trkpt>
      <trkpt lat="39.714848" lon="16.076007">
        <ele>612.115244</ele>
        <time>2023-12-03T22:03:24.587Z</time>
      </trkpt>
      <trkpt lat="39.714992" lon="16.075922">
        <ele>610.896202</ele>
        <time>2023-12-03T22:03:25.988Z</time>
      </trkpt>
      <trkpt lat="39.715104" lon="16.075889">
        <ele>610.010908</ele>
        <time>2023-12-03T22:03:26.991Z</time>
      </trkpt>
      <trkpt lat="39.715223" lon="16.075906">
        <ele>609.087932</ele>
        <time>2023-12-03T22:03:28.047Z</time>
      </trkpt>
      <trkpt lat="39.715302" lon="16.075975">
        <ele>608.354167</ele>
        <time>2023-12-03T22:03:28.882Z</time>
      </trkpt>
      <trkpt lat="39.715417" lon="16.076144">
        <ele>607.016033</ele>
        <time>2023-12-03T22:03:30.415Z</time>
      </trkpt>
      <trkpt lat="39.715494" lon="16.076155">
        <ele>606.418813</ele>
        <time>2023-12-03T22:03:31.090Z</time>
      </trkpt>
      <trkpt lat="39.715535" lon="16.076046">
        <ele>605.699243</ele>
        <time>2023-12-03T22:03:31.911Z</time>
      </trkpt>
      <trkpt lat="39.715460" lon="16.075841">
        <ele>604.352989</ele>
        <time>2023-12-03T22:03:33.480Z</time>
      </trkpt>
      <trkpt lat="39.715343" lon="16.075712">
        <ele>603.170219</ele>
        <time>2023-12-03T22:03:34.846Z</time>
      </trkpt>
      <trkpt lat="39.714774" lon="16.075482">
        <ele>598.576234</ele>
        <time>2023-12-03T22:03:40.206Z</time>
      </trkpt>
      <trkpt lat="39.714695" lon="16.075385">
        <ele>597.738445</ele>
        <time>2023-12-03T22:03:41.161Z</time>
      </trkpt>
      <trkpt lat="39.714485" lon="16.074911">
        <ele>594.655414</ele>
        <time>2023-12-03T22:03:44.859Z</time>
      </trkpt>
      <trkpt lat="39.714427" lon="16.074870">
        <ele>594.186076</ele>
        <time>2023-12-03T22:03:45.430Z</time>
      </trkpt>
      <trkpt lat="39.714355" lon="16.074892">
        <ele>593.660280</ele>
        <time>2023-12-03T22:03:46.080Z</time>
      </trkpt>
      <trkpt lat="39.714270" lon="16.075026">
        <ele>592.710489</ele>
        <time>2023-12-03T22:03:47.239Z</time>
      </trkpt>
      <trkpt lat="39.714241" lon="16.075686">
        <ele>589.095383</ele>
        <time>2023-12-03T22:03:51.701Z</time>
      </trkpt>
      <trkpt lat="39.714111" lon="16.076112">
        <ele>586.589174</ele>
        <time>2023-12-03T22:03:54.882Z</time>
      </trkpt>
      <trkpt lat="39.714142" lon="16.076568">
        <ele>584.085806</ele>
        <time>2023-12-03T22:03:58.183Z</time>
      </trkpt>
      <trkpt lat="39.714134" lon="16.076635">
        <ele>583.718836</ele>
        <time>2023-12-03T22:03:58.693Z</time>
      </trkpt>
      <trkpt lat="39.714082" lon="16.076729">
        <ele>583.126692</ele>
        <time>2023-12-03T22:03:59.578Z</time>
      </trkpt>
      <trkpt lat="39.713747" lon="16.076928">
        <ele>580.677944</ele>
        <time>2023-12-03T22:04:03.222Z</time>
      </trkpt>
      <trkpt lat="39.713425" lon="16.076950">
        <ele>578.534187</ele>
        <time>2023-12-03T22:04:06.322Z</time>
      </trkpt>
      <trkpt lat="39.713237" lon="16.077060">
        <ele>577.163507</ele>
        <time>2023-12-03T22:04:08.251Z</time>
      </trkpt>
      <trkpt lat="39.713166" lon="16.077009">
        <ele>576.624197</ele>
        <time>2023-12-03T22:04:08.996Z</time>
      </trkpt>
      <trkpt lat="39.713154" lon="16.076915">
        <ele>576.136874</ele>
        <time>2023-12-03T22:04:09.659Z</time>
      </trkpt>
      <trkpt lat="39.713174" lon="16.076864">
        <ele>575.844105</ele>
        <time>2023-12-03T22:04:10.057Z</time>
      </trkpt>
      <trkpt lat="39.713678" lon="16.076396">
        <ele>571.706581</ele>
        <time>2023-12-03T22:04:15.441Z</time>
      </trkpt>
      <trkpt lat="39.713744" lon="16.076300">
        <ele>570.903333</ele>
        <time>2023-12-03T22:04:16.294Z</time>
      </trkpt>
      <trkpt lat="39.713787" lon="16.076147">
        <ele>569.887106</ele>
        <time>2023-12-03T22:04:17.359Z</time>
      </trkpt>
      <trkpt lat="39.713798" lon="16.075495">
        <ele>565.818516</ele>
        <time>2023-12-03T22:04:21.618Z</time>
      </trkpt>
      <trkpt lat="39.713769" lon="16.075313">
        <ele>564.658975</ele>
        <time>2023-12-03T22:04:22.841Z</time>
      </trkpt>
      <trkpt lat="39.713610" lon="16.074709">
        <ele>560.676279</ele>
        <time>2023-12-03T22:04:27.107Z</time>
      </trkpt>
      <trkpt lat="39.713542" lon="16.073824">
        <ele>557.579367</ele>
        <time>2023-12-03T22:04:33.837Z</time>
      </trkpt>
      <trkpt lat="39.713554" lon="16.073682">
        <ele>557.728240</ele>
        <time>2023-12-03T22:04:35.754Z</time>
      </trkpt>
      <trkpt lat="39.713608" lon="16.073476">
        <ele>557.955040</ele>
        <time>2023-12-03T22:04:39.050Z</time>
      </trkpt>
      <trkpt lat="39.713829" lon="16.073191">
        <ele>558.376763</ele>
        <time>2023-12-03T22:04:46.720Z</time>
      </trkpt>
      <trkpt lat="39.713932" lon="16.073116">
        <ele>558.536699</ele>
        <time>2023-12-03T22:04:49.532Z</time>
      </trkpt>
      <trkpt lat="39.714032" lon="16.073097">
        <ele>558.673611</ele>
        <time>2023-12-03T22:04:52.348Z</time>
      </trkpt>
      <trkpt lat="39.714205" lon="16.073183">
        <ele>558.924531</ele>
        <time>2023-12-03T22:04:57.604Z</time>
      </trkpt>
      <trkpt lat="39.714681" lon="16.073797">
        <ele>559.597228</ele>
        <time>2023-12-03T22:05:17.379Z</time>
      </trkpt>
      <trkpt lat="39.714805" lon="16.073894">
        <ele>559.517934</ele>
        <time>2023-12-03T22:05:21.827Z</time>
      </trkpt>
      <trkpt lat="39.714951" lon="16.073932">
        <ele>559.436350</ele>
        <time>2023-12-03T22:05:26.915Z</time>
      </trkpt>
      <trkpt lat="39.715419" lon="16.073872">
        <ele>559.178680</ele>
        <time>2023-12-03T22:05:40.831Z</time>
      </trkpt>
      <trkpt lat="39.715792" lon="16.073902">
        <ele>558.973916</ele>
        <time>2023-12-03T22:05:46.789Z</time>
      </trkpt>
      <trkpt lat="39.715855" lon="16.073872">
        <ele>558.937154</ele>
        <time>2023-12-03T22:05:47.472Z</time>
      </trkpt>
      <trkpt lat="39.715895" lon="16.073809">
        <ele>558.902724</ele>
        <time>2023-12-03T22:05:48.115Z</time>
      </trkpt>
      <trkpt lat="39.715882" lon="16.073708">
        <ele>558.859564</ele>
        <time>2023-12-03T22:05:48.936Z</time>
      </trkpt>
      <trkpt lat="39.715791" lon="16.073663">
        <ele>558.806218</ele>
        <time>2023-12-03T22:05:49.832Z</time>
      </trkpt>
      <trkpt lat="39.715415" lon="16.073658">
        <ele>557.086738</ele>
        <time>2023-12-03T22:05:53.102Z</time>
      </trkpt>
      <trkpt lat="39.715283" lon="16.073599">
        <ele>555.552718</ele>
        <time>2023-12-03T22:05:54.281Z</time>
      </trkpt>
      <trkpt lat="39.715147" lon="16.073501">
        <ele>553.843835</ele>
        <time>2023-12-03T22:05:55.605Z</time>
      </trkpt>
      <trkpt lat="39.714890" lon="16.073241">
        <ele>550.264945</ele>
        <time>2023-12-03T22:05:58.355Z</time>
      </trkpt>
      <trkpt lat="39.714502" lon="16.073152">
        <ele>545.934984</ele>
        <time>2023-12-03T22:06:01.694Z</time>
      </trkpt>
      <trkpt lat="39.714316" lon="16.072944">
        <ele>543.238607</ele>
        <time>2023-12-03T22:06:03.780Z</time>
      </trkpt>
      <trkpt lat="39.714182" lon="16.072838">
        <ele>541.514741</ele>
        <time>2023-12-03T22:06:05.106Z</time>
      </trkpt>
      <trkpt lat="39.714050" lon="16.072757">
        <ele>539.910574</ele>
        <time>2023-12-03T22:06:06.347Z</time>
      </trkpt>
      <trkpt lat="39.713872" lon="16.072699">
        <ele>537.937742</ele>
        <time>2023-12-03T22:06:07.903Z</time>
      </trkpt>
      <trkpt lat="39.713789" lon="16.072738">
        <ele>537.009604</ele>
        <time>2023-12-03T22:06:08.637Z</time>
      </trkpt>
      <trkpt lat="39.712885" lon="16.073627">
        <ele>525.088872</ele>
        <time>2023-12-03T22:06:18.194Z</time>
      </trkpt>
      <trkpt lat="39.712777" lon="16.073687">
        <ele>523.853719</ele>
        <time>2023-12-03T22:06:19.222Z</time>
      </trkpt>
      <trkpt lat="39.712198" lon="16.073835">
        <ele>519.287347</ele>
        <time>2023-12-03T22:06:24.595Z</time>
      </trkpt>
      <trkpt lat="39.711882" lon="16.073977">
        <ele>518.224795</ele>
        <time>2023-12-03T22:06:27.838Z</time>
      </trkpt>
      <trkpt lat="39.711301" lon="16.075207">
        <ele>514.696143</ele>
        <time>2023-12-03T22:06:39.822Z</time>
      </trkpt>
      <trkpt lat="39.711129" lon="16.075477">
        <ele>514.042374</ele>
        <time>2023-12-03T22:06:43.546Z</time>
      </trkpt>
      <trkpt lat="39.710984" lon="16.075527">
        <ele>513.784830</ele>
        <time>2023-12-03T22:06:45.793Z</time>
      </trkpt>
      <trkpt lat="39.710552" lon="16.075541">
        <ele>513.042949</ele>
        <time>2023-12-03T22:06:51.750Z</time>
      </trkpt>
      <trkpt lat="39.709830" lon="16.075464">
        <ele>511.799266</ele>
        <time>2023-12-03T22:06:59.739Z</time>
      </trkpt>
      <trkpt lat="39.709602" lon="16.075588">
        <ele>511.374961</ele>
        <time>2023-12-03T22:07:02.275Z</time>
      </trkpt>
      <trkpt lat="39.709282" lon="16.075409">
        <ele>510.265297</ele>
        <time>2023-12-03T22:07:05.803Z</time>
      </trkpt>
      <trkpt lat="39.709131" lon="16.075211">
        <ele>509.444704</ele>
        <time>2023-12-03T22:07:07.982Z</time>
      </trkpt>
      <trkpt lat="39.709063" lon="16.075179">
        <ele>509.168017</ele>
        <time>2023-12-03T22:07:08.695Z</time>
      </trkpt>
      <trkpt lat="39.708981" lon="16.075177">
        <ele>508.854235</ele>
        <time>2023-12-03T22:07:09.514Z</time>
      </trkpt>
      <trkpt lat="39.708681" lon="16.075364">
        <ele>507.581313</ele>
        <time>2023-12-03T22:07:12.825Z</time>
      </trkpt>
      <trkpt lat="39.708343" lon="16.075373">
        <ele>506.287878</ele>
        <time>2023-12-03T22:07:16.122Z</time>
      </trkpt>
      <trkpt lat="39.707674" lon="16.075506">
        <ele>503.100874</ele>
        <time>2023-12-03T22:07:22.678Z</time>
      </trkpt>
      <trkpt lat="39.707455" lon="16.075509">
        <ele>501.446277</ele>
        <time>2023-12-03T22:07:24.735Z</time>
      </trkpt>
      <trkpt lat="39.707315" lon="16.075492">
        <ele>500.383998</ele>
        <time>2023-12-03T22:07:26.041Z</time>
      </trkpt>
      <trkpt lat="39.706353" lon="16.075114">
        <ele>492.791461</ele>
        <time>2023-12-03T22:07:34.903Z</time>
      </trkpt>
      <trkpt lat="39.706060" lon="16.074846">
        <ele>489.843107</ele>
        <time>2023-12-03T22:07:37.981Z</time>
      </trkpt>
      <trkpt lat="39.705621" lon="16.074109">
        <ele>482.375608</ele>
        <time>2023-12-03T22:07:44.109Z</time>
      </trkpt>
      <trkpt lat="39.705503" lon="16.073956">
        <ele>480.639943</ele>
        <time>2023-12-03T22:07:45.522Z</time>
      </trkpt>
      <trkpt lat="39.705433" lon="16.073886">
        <ele>479.720216</ele>
        <time>2023-12-03T22:07:46.276Z</time>
      </trkpt>
      <trkpt lat="39.705309" lon="16.073886">
        <ele>478.428917</ele>
        <time>2023-12-03T22:07:47.331Z</time>
      </trkpt>
      <trkpt lat="39.705256" lon="16.073927">
        <ele>477.786639</ele>
        <time>2023-12-03T22:07:47.849Z</time>
      </trkpt>
      <trkpt lat="39.705095" lon="16.074311">
        <ele>474.282954</ele>
        <time>2023-12-03T22:07:50.719Z</time>
      </trkpt>
      <trkpt lat="39.704861" lon="16.074551">
        <ele>471.377400</ele>
        <time>2023-12-03T22:07:53.287Z</time>
      </trkpt>
      <trkpt lat="39.704641" lon="16.074854">
        <ele>468.853527</ele>
        <time>2023-12-03T22:07:56.095Z</time>
      </trkpt>
      <trkpt lat="39.704510" lon="16.074889">
        <ele>467.800468</ele>
        <time>2023-12-03T22:07:57.279Z</time>
      </trkpt>
      <trkpt lat="39.703961" lon="16.074841">
        <ele>463.467876</ele>
        <time>2023-12-03T22:08:02.226Z</time>
      </trkpt>
      <trkpt lat="39.703868" lon="16.074884">
        <ele>462.690643</ele>
        <time>2023-12-03T22:08:03.112Z</time>
      </trkpt>
      <trkpt lat="39.703803" lon="16.074971">
        <ele>461.955988</ele>
        <time>2023-12-03T22:08:03.949Z</time>
      </trkpt>
      <trkpt lat="39.703713" lon="16.075413">
        <ele>459.186197</ele>
        <time>2023-12-03T22:08:07.092Z</time>
      </trkpt>
      <trkpt lat="39.703658" lon="16.075484">
        <ele>458.575832</ele>
        <time>2023-12-03T22:08:07.776Z</time>
      </trkpt>
      <trkpt lat="39.703490" lon="16.075502">
        <ele>457.408531</ele>
        <time>2023-12-03T22:08:09.273Z</time>
      </trkpt>
      <trkpt lat="39.703339" lon="16.075476">
        <ele>456.539016</ele>
        <time>2023-12-03T22:08:10.622Z</time>
      </trkpt>
      <trkpt lat="39.702993" lon="16.075326">
        <ele>454.456904</ele>
        <time>2023-12-03T22:08:13.890Z</time>
      </trkpt>
      <trkpt lat="39.702796" lon="16.075338">
        <ele>453.331094</ele>
        <time>2023-12-03T22:08:15.667Z</time>
      </trkpt>
      <trkpt lat="39.702618" lon="16.075412">
        <ele>452.264269</ele>
        <time>2023-12-03T22:08:17.393Z</time>
      </trkpt>
      <trkpt lat="39.702295" lon="16.075802">
        <ele>449.747587</ele>
        <time>2023-12-03T22:08:21.583Z</time>
      </trkpt>
      <trkpt lat="39.702178" lon="16.075828">
        <ele>449.070001</ele>
        <time>2023-12-03T22:08:22.745Z</time>
      </trkpt>
      <trkpt lat="39.702075" lon="16.075758">
        <ele>448.406499</ele>
        <time>2023-12-03T22:08:23.894Z</time>
      </trkpt>
      <trkpt lat="39.701960" lon="16.075619">
        <ele>447.524898</ele>
        <time>2023-12-03T22:08:25.473Z</time>
      </trkpt>
      <trkpt lat="39.701937" lon="16.075483">
        <ele>447.085668</ele>
        <time>2023-12-03T22:08:26.533Z</time>
      </trkpt>
      <trkpt lat="39.701960" lon="16.075388">
        <ele>446.771521</ele>
        <time>2023-12-03T22:08:27.295Z</time>
      </trkpt>
      <trkpt lat="39.702220" lon="16.075026">
        <ele>445.209433</ele>
        <time>2023-12-03T22:08:31.039Z</time>
      </trkpt>
      <trkpt lat="39.702356" lon="16.074911">
        <ele>444.544244</ele>
        <time>2023-12-03T22:08:32.618Z</time>
      </trkpt>
      <trkpt lat="39.702469" lon="16.074865">
        <ele>444.058771</ele>
        <time>2023-12-03T22:08:33.751Z</time>
      </trkpt>
      <trkpt lat="39.703031" lon="16.074827">
        <ele>441.751547</ele>
        <time>2023-12-03T22:08:39.106Z</time>
      </trkpt>
      <trkpt lat="39.703217" lon="16.074700">
        <ele>440.890160</ele>
        <time>2023-12-03T22:08:41.132Z</time>
      </trkpt>
      <trkpt lat="39.703246" lon="16.074624">
        <ele>440.622571</ele>
        <time>2023-12-03T22:08:41.786Z</time>
      </trkpt>
      <trkpt lat="39.703267" lon="16.074526">
        <ele>440.301687</ele>
        <time>2023-12-03T22:08:42.571Z</time>
      </trkpt>
      <trkpt lat="39.703252" lon="16.074366">
        <ele>439.746449</ele>
        <time>2023-12-03T22:08:43.796Z</time>
      </trkpt>
      <trkpt lat="39.702919" lon="16.073715">
        <ele>436.988564</ele>
        <time>2023-12-03T22:08:49.920Z</time>
      </trkpt>
      <trkpt lat="39.702906" lon="16.073592">
        <ele>436.550565</ele>
        <time>2023-12-03T22:08:50.859Z</time>
      </trkpt>
      <trkpt lat="39.702988" lon="16.073092">
        <ele>434.747021</ele>
        <time>2023-12-03T22:08:54.637Z</time>
      </trkpt>
      <trkpt lat="39.703035" lon="16.073011">
        <ele>434.389110</ele>
        <time>2023-12-03T22:08:55.356Z</time>
      </trkpt>
      <trkpt lat="39.703116" lon="16.072966">
        <ele>433.985190</ele>
        <time>2023-12-03T22:08:56.175Z</time>
      </trkpt>
      <trkpt lat="39.703185" lon="16.072967">
        <ele>433.668780</ele>
        <time>2023-12-03T22:08:56.803Z</time>
      </trkpt>
      <trkpt lat="39.703459" lon="16.073213">
        <ele>432.141801</ele>
        <time>2023-12-03T22:08:59.808Z</time>
      </trkpt>
      <trkpt lat="39.703569" lon="16.073239">
        <ele>431.684789</ele>
        <time>2023-12-03T22:09:00.829Z</time>
      </trkpt>
      <trkpt lat="39.704135" lon="16.072971">
        <ele>429.415195</ele>
        <time>2023-12-03T22:09:06.457Z</time>
      </trkpt>
      <trkpt lat="39.704242" lon="16.072857">
        <ele>428.893929</ele>
        <time>2023-12-03T22:09:07.822Z</time>
      </trkpt>
      <trkpt lat="39.704313" lon="16.072723">
        <ele>428.422304</ele>
        <time>2023-12-03T22:09:09.061Z</time>
      </trkpt>
      <trkpt lat="39.704488" lon="16.072167">
        <ele>426.680993</ele>
        <time>2023-12-03T22:09:13.833Z</time>
      </trkpt>
      <trkpt lat="39.704529" lon="16.071237">
        <ele>425.644922</ele>
        <time>2023-12-03T22:09:21.642Z</time>
      </trkpt>
      <trkpt lat="39.704552" lon="16.071118">
        <ele>425.789270</ele>
        <time>2023-12-03T22:09:22.796Z</time>
      </trkpt>
      <trkpt lat="39.704644" lon="16.070976">
        <ele>426.007670</ele>
        <time>2023-12-03T22:09:24.553Z</time>
      </trkpt>
      <trkpt lat="39.704768" lon="16.070884">
        <ele>426.226000</ele>
        <time>2023-12-03T22:09:26.371Z</time>
      </trkpt>
      <trkpt lat="39.704962" lon="16.070858">
        <ele>426.524228</ele>
        <time>2023-12-03T22:09:30.002Z</time>
      </trkpt>
      <trkpt lat="39.705317" lon="16.070868">
        <ele>427.067203</ele>
        <time>2023-12-03T22:09:38.721Z</time>
      </trkpt>
      <trkpt lat="39.705600" lon="16.070791">
        <ele>427.509331</ele>
        <time>2023-12-03T22:09:47.736Z</time>
      </trkpt>
      <trkpt lat="39.706017" lon="16.070516">
        <ele>428.763351</ele>
        <time>2023-12-03T22:10:04.914Z</time>
      </trkpt>
      <trkpt lat="39.706167" lon="16.070486">
        <ele>429.399627</ele>
        <time>2023-12-03T22:10:10.966Z</time>
      </trkpt>
      <trkpt lat="39.706372" lon="16.070495">
        <ele>430.259579</ele>
        <time>2023-12-03T22:10:18.543Z</time>
      </trkpt>
      <trkpt lat="39.706681" lon="16.070553">
        <ele>431.568498</ele>
        <time>2023-12-03T22:10:29.524Z</time>
      </trkpt>
      <trkpt lat="39.706776" lon="16.070522">
        <ele>431.979144</ele>
        <time>2023-12-03T22:10:32.704Z</time>
      </trkpt>
      <trkpt lat="39.706868" lon="16.070439">
        <ele>432.448654</ele>
        <time>2023-12-03T22:10:36.283Z</time>
      </trkpt>
      <trkpt lat="39.706908" lon="16.070230">
        <ele>433.143306</ele>
        <time>2023-12-03T22:10:41.071Z</time>
      </trkpt>
      <trkpt lat="39.706890" lon="16.070093">
        <ele>433.591581</ele>
        <time>2023-12-03T22:10:44.053Z</time>
      </trkpt>
      <trkpt lat="39.706817" lon="16.069978">
        <ele>434.072465</ele>
        <time>2023-12-03T22:10:47.123Z</time>
      </trkpt>
      <trkpt lat="39.706511" lon="16.069813">
        <ele>435.459436</ele>
        <time>2023-12-03T22:10:55.559Z</time>
      </trkpt>
      <trkpt lat="39.705779" lon="16.069793">
        <ele>437.478335</ele>
        <time>2023-12-03T22:11:14.485Z</time>
      </trkpt>
      <trkpt lat="39.705282" lon="16.069643">
        <ele>438.885246</ele>
        <time>2023-12-03T22:11:27.394Z</time>
      </trkpt>
      <trkpt lat="39.705183" lon="16.069570">
        <ele>439.199101</ele>
        <time>2023-12-03T22:11:30.321Z</time>
      </trkpt>
      <trkpt lat="39.705125" lon="16.069447">
        <ele>439.505149</ele>
        <time>2023-12-03T22:11:33.150Z</time>
      </trkpt>
      <trkpt lat="39.705090" lon="16.069262">
        <ele>439.909305</ele>
        <time>2023-12-03T22:11:36.661Z</time>
      </trkpt>
      <trkpt lat="39.705006" lon="16.068502">
        <ele>441.623914</ele>
        <time>2023-12-03T22:11:52.209Z</time>
      </trkpt>
      <trkpt lat="39.704956" lon="16.068393">
        <ele>441.913699</ele>
        <time>2023-12-03T22:11:54.901Z</time>
      </trkpt>
      <trkpt lat="39.704867" lon="16.068318">
        <ele>442.228520</ele>
        <time>2023-12-03T22:11:57.811Z</time>
      </trkpt>
      <trkpt lat="39.704252" lon="16.068310">
        <ele>444.053995</ele>
        <time>2023-12-03T22:12:14.655Z</time>
      </trkpt>
      <trkpt lat="39.704110" lon="16.068226">
        <ele>444.517061</ele>
        <time>2023-12-03T22:12:18.658Z</time>
      </trkpt>
      <trkpt lat="39.703947" lon="16.068001">
        <ele>445.222785</ele>
        <time>2023-12-03T22:12:24.671Z</time>
      </trkpt>
      <trkpt lat="39.703858" lon="16.067921">
        <ele>445.543961</ele>
        <time>2023-12-03T22:12:27.309Z</time>
      </trkpt>
      <trkpt lat="39.703772" lon="16.067882">
        <ele>445.842395</ele>
        <time>2023-12-03T22:12:29.640Z</time>
      </trkpt>
      <trkpt lat="39.703627" lon="16.067880">
        <ele>446.473035</ele>
        <time>2023-12-03T22:12:33.470Z</time>
      </trkpt>
      <trkpt lat="39.702841" lon="16.068044">
        <ele>449.935109</ele>
        <time>2023-12-03T22:12:57.441Z</time>
      </trkpt>
      <trkpt lat="39.702589" lon="16.068060">
        <ele>451.032363</ele>
        <time>2023-12-03T22:13:06.446Z</time>
      </trkpt>
      <trkpt lat="39.702482" lon="16.068039">
        <ele>451.502980</ele>
        <time>2023-12-03T22:13:10.454Z</time>
      </trkpt>
      <trkpt lat="39.702397" lon="16.067988">
        <ele>451.910131</ele>
        <time>2023-12-03T22:13:14.065Z</time>
      </trkpt>
      <trkpt lat="39.702352" lon="16.067923">
        <ele>452.202710</ele>
        <time>2023-12-03T22:13:16.522Z</time>
      </trkpt>
      <trkpt lat="39.702129" lon="16.067462">
        <ele>454.176076</ele>
        <time>2023-12-03T22:13:30.943Z</time>
      </trkpt>
      <trkpt lat="39.702030" lon="16.067301">
        <ele>455.098332</ele>
        <time>2023-12-03T22:13:36.515Z</time>
      </trkpt>
      <trkpt lat="39.701894" lon="16.067162">
        <ele>456.104576</ele>
        <time>2023-12-03T22:13:43.162Z</time>
      </trkpt>
      <trkpt lat="39.701274" lon="16.066851">
        <ele>459.969755</ele>
        <time>2023-12-03T22:14:10.248Z</time>
      </trkpt>
      <trkpt lat="39.701318" lon="16.066719">
        <ele>460.613480</ele>
        <time>2023-12-03T22:14:14.675Z</time>
      </trkpt>
      <trkpt lat="39.701354" lon="16.066612">
        <ele>461.136060</ele>
        <time>2023-12-03T22:14:18.384Z</time>
      </trkpt>
      <trkpt lat="39.701564" lon="16.066302">
        <ele>462.984308</ele>
        <time>2023-12-03T22:14:31.081Z</time>
      </trkpt>
      <trkpt lat="39.701686" lon="16.066185">
        <ele>463.866111</ele>
        <time>2023-12-03T22:14:36.886Z</time>
      </trkpt>
      <trkpt lat="39.701827" lon="16.066092">
        <ele>464.466837</ele>
        <time>2023-12-03T22:14:42.390Z</time>
      </trkpt>
      <trkpt lat="39.702009" lon="16.066001">
        <ele>465.117787</ele>
        <time>2023-12-03T22:14:48.827Z</time>
      </trkpt>
      <trkpt lat="39.702477" lon="16.065967">
        <ele>466.682486</ele>
        <time>2023-12-03T22:15:02.817Z</time>
      </trkpt>
      <trkpt lat="39.702603" lon="16.065894">
        <ele>467.142988</ele>
        <time>2023-12-03T22:15:06.228Z</time>
      </trkpt>
      <trkpt lat="39.703060" lon="16.065399">
        <ele>469.128806</ele>
        <time>2023-12-03T22:15:21.678Z</time>
      </trkpt>
      <trkpt lat="39.703758" lon="16.065000">
        <ele>470.466753</ele>
        <time>2023-12-03T22:15:38.345Z</time>
      </trkpt>
      <trkpt lat="39.703943" lon="16.064821">
        <ele>470.667306</ele>
        <time>2023-12-03T22:15:42.294Z</time>
      </trkpt>
      <trkpt lat="39.704084" lon="16.064260">
        <ele>471.062147</ele>
        <time>2023-12-03T22:15:49.416Z</time>
      </trkpt>
      <trkpt lat="39.704064" lon="16.064113">
        <ele>471.162019</ele>
        <time>2023-12-03T22:15:51.079Z</time>
      </trkpt>
      <trkpt lat="39.703944" lon="16.063843">
        <ele>471.370629</ele>
        <time>2023-12-03T22:15:55.574Z</time>
      </trkpt>
      <trkpt lat="39.703923" lon="16.063710">
        <ele>471.461463</ele>
        <time>2023-12-03T22:15:57.526Z</time>
      </trkpt>
      <trkpt lat="39.703934" lon="16.063646">
        <ele>471.505336</ele>
        <time>2023-12-03T22:15:58.467Z</time>
      </trkpt>
      <trkpt lat="39.704107" lon="16.063437">
        <ele>471.608632</ele>
        <time>2023-12-03T22:16:02.678Z</time>
      </trkpt>
      <trkpt lat="39.704151" lon="16.063332">
        <ele>471.611025</ele>
        <time>2023-12-03T22:16:04.049Z</time>
      </trkpt>
      <trkpt lat="39.704126" lon="16.063161">
        <ele>471.614510</ele>
        <time>2023-12-03T22:16:06.097Z</time>
      </trkpt>
      <trkpt lat="39.703917" lon="16.062671">
        <ele>471.625727</ele>
        <time>2023-12-03T22:16:12.070Z</time>
      </trkpt>
      <trkpt lat="39.703893" lon="16.062522">
        <ele>471.628775</ele>
        <time>2023-12-03T22:16:13.636Z</time>
      </trkpt>
      <trkpt lat="39.703972" lon="16.062320">
        <ele>471.633312</ele>
        <time>2023-12-03T22:16:16.005Z</time>
      </trkpt>
      <trkpt lat="39.704108" lon="16.062179">
        <ele>471.637839</ele>
        <time>2023-12-03T22:16:18.523Z</time>
      </trkpt>
      <trkpt lat="39.704168" lon="16.061974">
        <ele>471.642230</ele>
        <time>2023-12-03T22:16:20.916Z</time>
      </trkpt>
      <trkpt lat="39.704166" lon="16.061810">
        <ele>471.645514</ele>
        <time>2023-12-03T22:16:22.782Z</time>
      </trkpt>
      <trkpt lat="39.704043" lon="16.061571">
        <ele>471.651271</ele>
        <time>2023-12-03T22:16:26.128Z</time>
      </trkpt>
      <trkpt lat="39.704003" lon="16.061242">
        <ele>471.570544</ele>
        <time>2023-12-03T22:16:30.184Z</time>
      </trkpt>
      <trkpt lat="39.703776" lon="16.060653">
        <ele>471.379761</ele>
        <time>2023-12-03T22:16:38.147Z</time>
      </trkpt>
      <trkpt lat="39.703711" lon="16.060306">
        <ele>471.276332</ele>
        <time>2023-12-03T22:16:42.330Z</time>
      </trkpt>
      <trkpt lat="39.703562" lon="16.059122">
        <ele>470.696106</ele>
        <time>2023-12-03T22:16:53.509Z</time>
      </trkpt>
      <trkpt lat="39.703511" lon="16.058890">
        <ele>470.275308</ele>
        <time>2023-12-03T22:16:55.887Z</time>
      </trkpt>
      <trkpt lat="39.703345" lon="16.058539">
        <ele>469.556760</ele>
        <time>2023-12-03T22:16:59.900Z</time>
      </trkpt>
      <trkpt lat="39.703307" lon="16.058413">
        <ele>469.320736</ele>
        <time>2023-12-03T22:17:01.145Z</time>
      </trkpt>
      <trkpt lat="39.703247" lon="16.057910">
        <ele>468.433024</ele>
        <time>2023-12-03T22:17:05.564Z</time>
      </trkpt>
      <trkpt lat="39.703098" lon="16.057605">
        <ele>467.802931</ele>
        <time>2023-12-03T22:17:08.465Z</time>
      </trkpt>
      <trkpt lat="39.702897" lon="16.057275">
        <ele>467.068885</ele>
        <time>2023-12-03T22:17:11.664Z</time>
      </trkpt>
      <trkpt lat="39.702655" lon="16.056996">
        <ele>465.369760</ele>
        <time>2023-12-03T22:17:14.730Z</time>
      </trkpt>
      <trkpt lat="39.702511" lon="16.056995">
        <ele>464.482777</ele>
        <time>2023-12-03T22:17:16.069Z</time>
      </trkpt>
      <trkpt lat="39.702048" lon="16.057297">
        <ele>461.291957</ele>
        <time>2023-12-03T22:17:20.819Z</time>
      </trkpt>
      <trkpt lat="39.701959" lon="16.057318">
        <ele>460.734800</ele>
        <time>2023-12-03T22:17:21.644Z</time>
      </trkpt>
      <trkpt lat="39.701850" lon="16.057320">
        <ele>460.063346</ele>
        <time>2023-12-03T22:17:22.630Z</time>
      </trkpt>
      <trkpt lat="39.701338" lon="16.057129">
        <ele>456.782347</ele>
        <time>2023-12-03T22:17:27.421Z</time>
      </trkpt>
      <trkpt lat="39.700985" lon="16.056932">
        <ele>454.315198</ele>
        <time>2023-12-03T22:17:30.831Z</time>
      </trkpt>
      <trkpt lat="39.700621" lon="16.056647">
        <ele>451.509561</ele>
        <time>2023-12-03T22:17:34.576Z</time>
      </trkpt>
      <trkpt lat="39.700449" lon="16.056130">
        <ele>448.648295</ele>
        <time>2023-12-03T22:17:38.422Z</time>
      </trkpt>
      <trkpt lat="39.700143" lon="16.055208">
        <ele>443.672251</ele>
        <time>2023-12-03T22:17:45.667Z</time>
      </trkpt>
      <trkpt lat="39.699839" lon="16.054920">
        <ele>441.969853</ele>
        <time>2023-12-03T22:17:49.341Z</time>
      </trkpt>
      <trkpt lat="39.699774" lon="16.054803">
        <ele>441.467379</ele>
        <time>2023-12-03T22:17:50.391Z</time>
      </trkpt>
      <trkpt lat="39.699737" lon="16.054630">
        <ele>440.842180</ele>
        <time>2023-12-03T22:17:51.724Z</time>
      </trkpt>
      <trkpt lat="39.699732" lon="16.054038">
        <ele>438.780799</ele>
        <time>2023-12-03T22:17:56.093Z</time>
      </trkpt>
      <trkpt lat="39.699952" lon="16.053573">
        <ele>436.880128</ele>
        <time>2023-12-03T22:18:00.062Z</time>
      </trkpt>
      <trkpt lat="39.699911" lon="16.053139">
        <ele>435.487806</ele>
        <time>2023-12-03T22:18:03.279Z</time>
      </trkpt>
      <trkpt lat="39.699624" lon="16.052681">
        <ele>434.030263</ele>
        <time>2023-12-03T22:18:07.753Z</time>
      </trkpt>
      <trkpt lat="39.699511" lon="16.051783">
        <ele>431.784951</ele>
        <time>2023-12-03T22:18:15.040Z</time>
      </trkpt>
      <trkpt lat="39.699243" lon="16.051139">
        <ele>429.978508</ele>
        <time>2023-12-03T22:18:21.005Z</time>
      </trkpt>
      <trkpt lat="39.699227" lon="16.051017">
        <ele>429.674301</ele>
        <time>2023-12-03T22:18:21.996Z</time>
      </trkpt>
      <trkpt lat="39.699284" lon="16.050893">
        <ele>429.319248</ele>
        <time>2023-12-03T22:18:23.148Z</time>
      </trkpt>
      <trkpt lat="39.699952" lon="16.050744">
        <ele>427.153969</ele>
        <time>2023-12-03T22:18:30.041Z</time>
      </trkpt>
      <trkpt lat="39.700165" lon="16.050643">
        <ele>426.429619</ele>
        <time>2023-12-03T22:18:32.337Z</time>
      </trkpt>
      <trkpt lat="39.700334" lon="16.050496">
        <ele>425.779958</ele>
        <time>2023-12-03T22:18:34.402Z</time>
      </trkpt>
      <trkpt lat="39.700425" lon="16.050321">
        <ele>425.260777</ele>
        <time>2023-12-03T22:18:36.038Z</time>
      </trkpt>
      <trkpt lat="39.700465" lon="16.050160">
        <ele>424.844917</ele>
        <time>2023-12-03T22:18:37.371Z</time>
      </trkpt>
      <trkpt lat="39.700434" lon="16.049884">
        <ele>424.079478</ele>
        <time>2023-12-03T22:18:39.548Z</time>
      </trkpt>
      <trkpt lat="39.700357" lon="16.049682">
        <ele>423.186315</ele>
        <time>2023-12-03T22:18:41.274Z</time>
      </trkpt>
      <trkpt lat="39.700296" lon="16.049593">
        <ele>422.714075</ele>
        <time>2023-12-03T22:18:42.159Z</time>
      </trkpt>
      <trkpt lat="39.700198" lon="16.049571">
        <ele>422.201952</ele>
        <time>2023-12-03T22:18:43.120Z</time>
      </trkpt>
      <trkpt lat="39.699845" lon="16.049737">
        <ele>420.268855</ele>
        <time>2023-12-03T22:18:46.638Z</time>
      </trkpt>
      <trkpt lat="39.699427" lon="16.049799">
        <ele>418.102392</ele>
        <time>2023-12-03T22:18:50.468Z</time>
      </trkpt>
      <trkpt lat="39.699100" lon="16.049574">
        <ele>416.197088</ele>
        <time>2023-12-03T22:18:53.856Z</time>
      </trkpt>
      <trkpt lat="39.698829" lon="16.049171">
        <ele>413.953808</ele>
        <time>2023-12-03T22:18:57.697Z</time>
      </trkpt>
      <trkpt lat="39.698655" lon="16.049034">
        <ele>412.771096</ele>
        <time>2023-12-03T22:18:59.617Z</time>
      </trkpt>
      <trkpt lat="39.698487" lon="16.048956">
        <ele>411.733961</ele>
        <time>2023-12-03T22:19:01.299Z</time>
      </trkpt>
      <trkpt lat="39.698335" lon="16.048959">
        <ele>410.850190</ele>
        <time>2023-12-03T22:19:02.740Z</time>
      </trkpt>
      <trkpt lat="39.698102" lon="16.049189">
        <ele>409.149213</ele>
        <time>2023-12-03T22:19:05.458Z</time>
      </trkpt>
      <trkpt lat="39.697953" lon="16.049215">
        <ele>408.275213</ele>
        <time>2023-12-03T22:19:06.835Z</time>
      </trkpt>
      <trkpt lat="39.697567" lon="16.049031">
        <ele>405.884982</ele>
        <time>2023-12-03T22:19:10.556Z</time>
      </trkpt>
      <trkpt lat="39.697370" lon="16.048977">
        <ele>404.714505</ele>
        <time>2023-12-03T22:19:12.375Z</time>
      </trkpt>
      <trkpt lat="39.697036" lon="16.049101">
        <ele>402.981924</ele>
        <time>2023-12-03T22:19:15.528Z</time>
      </trkpt>
      <trkpt lat="39.696846" lon="16.049496">
        <ele>401.216764</ele>
        <time>2023-12-03T22:19:18.842Z</time>
      </trkpt>
      <trkpt lat="39.696553" lon="16.049744">
        <ele>399.494792</ele>
        <time>2023-12-03T22:19:22.150Z</time>
      </trkpt>
      <trkpt lat="39.696339" lon="16.049690">
        <ele>398.421222</ele>
        <time>2023-12-03T22:19:24.254Z</time>
      </trkpt>
      <trkpt lat="39.696029" lon="16.049752">
        <ele>396.876589</ele>
        <time>2023-12-03T22:19:27.339Z</time>
      </trkpt>
      <trkpt lat="39.695653" lon="16.049969">
        <ele>395.068649</ele>
        <time>2023-12-03T22:19:31.413Z</time>
      </trkpt>
      <trkpt lat="39.694884" lon="16.049947">
        <ele>392.238329</ele>
        <time>2023-12-03T22:19:39.169Z</time>
      </trkpt>
      <trkpt lat="39.694710" lon="16.049986">
        <ele>391.588622</ele>
        <time>2023-12-03T22:19:40.994Z</time>
      </trkpt>
      <trkpt lat="39.694574" lon="16.050065">
        <ele>391.040479</ele>
        <time>2023-12-03T22:19:42.513Z</time>
      </trkpt>
      <trkpt lat="39.694419" lon="16.050282">
        <ele>390.202162</ele>
        <time>2023-12-03T22:19:44.819Z</time>
      </trkpt>
      <trkpt lat="39.694184" lon="16.050768">
        <ele>388.210978</ele>
        <time>2023-12-03T22:19:49.105Z</time>
      </trkpt>
      <trkpt lat="39.694074" lon="16.050942">
        <ele>387.122795</ele>
        <time>2023-12-03T22:19:50.734Z</time>
      </trkpt>
      <trkpt lat="39.693963" lon="16.051031">
        <ele>386.303730</ele>
        <time>2023-12-03T22:19:51.941Z</time>
      </trkpt>
      <trkpt lat="39.692378" lon="16.052049">
        <ele>375.238266</ele>
        <time>2023-12-03T22:20:07.817Z</time>
      </trkpt>
      <trkpt lat="39.690662" lon="16.052756">
        <ele>364.531815</ele>
        <time>2023-12-03T22:20:24.356Z</time>
      </trkpt>
      <trkpt lat="39.690530" lon="16.052782">
        <ele>363.845479</ele>
        <time>2023-12-03T22:20:25.625Z</time>
      </trkpt>
      <trkpt lat="39.690397" lon="16.052748">
        <ele>363.148649</ele>
        <time>2023-12-03T22:20:26.913Z</time>
      </trkpt>
      <trkpt lat="39.689984" lon="16.052357">
        <ele>360.521822</ele>
        <time>2023-12-03T22:20:31.854Z</time>
      </trkpt>
      <trkpt lat="39.689765" lon="16.052199">
        <ele>359.234122</ele>
        <time>2023-12-03T22:20:34.216Z</time>
      </trkpt>
      <trkpt lat="39.689340" lon="16.052005">
        <ele>356.787653</ele>
        <time>2023-12-03T22:20:38.425Z</time>
      </trkpt>
      <trkpt lat="39.689048" lon="16.051326">
        <ele>352.909323</ele>
        <time>2023-12-03T22:20:43.926Z</time>
      </trkpt>
      <trkpt lat="39.688949" lon="16.051210">
        <ele>352.045608</ele>
        <time>2023-12-03T22:20:45.143Z</time>
      </trkpt>
      <trkpt lat="39.688810" lon="16.051177">
        <ele>351.130060</ele>
        <time>2023-12-03T22:20:46.427Z</time>
      </trkpt>
      <trkpt lat="39.688502" lon="16.051272">
        <ele>349.078951</ele>
        <time>2023-12-03T22:20:49.294Z</time>
      </trkpt>
      <trkpt lat="39.688311" lon="16.051274">
        <ele>347.841340</ele>
        <time>2023-12-03T22:20:51.017Z</time>
      </trkpt>
      <trkpt lat="39.687535" lon="16.051077">
        <ele>341.998722</ele>
        <time>2023-12-03T22:20:58.050Z</time>
      </trkpt>
      <trkpt lat="39.687136" lon="16.050889">
        <ele>338.599578</ele>
        <time>2023-12-03T22:21:01.748Z</time>
      </trkpt>
      <trkpt lat="39.687079" lon="16.050868">
        <ele>338.125076</ele>
        <time>2023-12-03T22:21:02.270Z</time>
      </trkpt>
      <trkpt lat="39.686201" lon="16.050547">
        <ele>330.931597</ele>
        <time>2023-12-03T22:21:10.323Z</time>
      </trkpt>
      <trkpt lat="39.685986" lon="16.050537">
        <ele>329.563335</ele>
        <time>2023-12-03T22:21:12.236Z</time>
      </trkpt>
      <trkpt lat="39.685423" lon="16.050667">
        <ele>325.926597</ele>
        <time>2023-12-03T22:21:17.344Z</time>
      </trkpt>
      <trkpt lat="39.685311" lon="16.050667">
        <ele>325.214284</ele>
        <time>2023-12-03T22:21:18.341Z</time>
      </trkpt>
      <trkpt lat="39.685245" lon="16.050634">
        <ele>324.764526</ele>
        <time>2023-12-03T22:21:18.972Z</time>
      </trkpt>
      <trkpt lat="39.685183" lon="16.050561">
        <ele>324.232416</ele>
        <time>2023-12-03T22:21:19.725Z</time>
      </trkpt>
      <trkpt lat="39.685050" lon="16.050011">
        <ele>321.410731</ele>
        <time>2023-12-03T22:21:23.765Z</time>
      </trkpt>
      <trkpt lat="39.684937" lon="16.049814">
        <ele>320.208165</ele>
        <time>2023-12-03T22:21:25.547Z</time>
      </trkpt>
      <trkpt lat="39.684584" lon="16.049569">
        <ele>320.506974</ele>
        <time>2023-12-03T22:21:29.624Z</time>
      </trkpt>
      <trkpt lat="39.684243" lon="16.049495">
        <ele>321.076444</ele>
        <time>2023-12-03T22:21:34.619Z</time>
      </trkpt>
      <trkpt lat="39.684168" lon="16.049439">
        <ele>321.218926</ele>
        <time>2023-12-03T22:21:36.497Z</time>
      </trkpt>
      <trkpt lat="39.683989" lon="16.049085">
        <ele>321.755866</ele>
        <time>2023-12-03T22:21:45.820Z</time>
      </trkpt>
      <trkpt lat="39.683736" lon="16.048918">
        <ele>322.223291</ele>
        <time>2023-12-03T22:21:55.882Z</time>
      </trkpt>
      <trkpt lat="39.683669" lon="16.048821">
        <ele>322.388516</ele>
        <time>2023-12-03T22:21:59.762Z</time>
      </trkpt>
      <trkpt lat="39.683653" lon="16.048723">
        <ele>322.515510</ele>
        <time>2023-12-03T22:22:03.006Z</time>
      </trkpt>
      <trkpt lat="39.683669" lon="16.048619">
        <ele>322.649953</ele>
        <time>2023-12-03T22:22:06.055Z</time>
      </trkpt>
      <trkpt lat="39.683851" lon="16.048280">
        <ele>323.169865</ele>
        <time>2023-12-03T22:22:18.473Z</time>
      </trkpt>
      <trkpt lat="39.683883" lon="16.048133">
        <ele>323.360805</ele>
        <time>2023-12-03T22:22:22.040Z</time>
      </trkpt>
      <trkpt lat="39.683857" lon="16.048041">
        <ele>323.483301</ele>
        <time>2023-12-03T22:22:24.441Z</time>
      </trkpt>
      <trkpt lat="39.683668" lon="16.047863">
        <ele>323.862402</ele>
        <time>2023-12-03T22:22:31.676Z</time>
      </trkpt>
      <trkpt lat="39.683564" lon="16.047843">
        <ele>324.033147</ele>
        <time>2023-12-03T22:22:34.323Z</time>
      </trkpt>
      <trkpt lat="39.683433" lon="16.047886">
        <ele>324.252587</ele>
        <time>2023-12-03T22:22:37.962Z</time>
      </trkpt>
      <trkpt lat="39.683076" lon="16.048157">
        <ele>324.924079</ele>
        <time>2023-12-03T22:22:45.742Z</time>
      </trkpt>
      <trkpt lat="39.682886" lon="16.048517">
        <ele>325.469683</ele>
        <time>2023-12-03T22:22:50.299Z</time>
      </trkpt>
      <trkpt lat="39.682727" lon="16.049145">
        <ele>324.720017</ele>
        <time>2023-12-03T22:22:55.670Z</time>
      </trkpt>
      <trkpt lat="39.682557" lon="16.049420">
        <ele>323.743531</ele>
        <time>2023-12-03T22:22:58.294Z</time>
      </trkpt>
      <trkpt lat="39.682377" lon="16.049539">
        <ele>323.017055</ele>
        <time>2023-12-03T22:23:00.152Z</time>
      </trkpt>
      <trkpt lat="39.682100" lon="16.049542">
        <ele>322.020607</ele>
        <time>2023-12-03T22:23:02.678Z</time>
      </trkpt>
      <trkpt lat="39.681804" lon="16.049389">
        <ele>320.874695</ele>
        <time>2023-12-03T22:23:05.603Z</time>
      </trkpt>
      <trkpt lat="39.681592" lon="16.049332">
        <ele>320.095943</ele>
        <time>2023-12-03T22:23:07.694Z</time>
      </trkpt>
      <trkpt lat="39.681385" lon="16.049380">
        <ele>319.339567</ele>
        <time>2023-12-03T22:23:09.922Z</time>
      </trkpt>
      <trkpt lat="39.681224" lon="16.049379">
        <ele>320.406038</ele>
        <time>2023-12-03T22:23:11.883Z</time>
      </trkpt>
      <trkpt lat="39.681173" lon="16.049373">
        <ele>320.748688</ele>
        <time>2023-12-03T22:23:12.591Z</time>
      </trkpt>
      <trkpt lat="39.681123" lon="16.049329">
        <ele>321.152758</ele>
        <time>2023-12-03T22:23:13.643Z</time>
      </trkpt>
      <trkpt lat="39.680972" lon="16.049106">
        <ele>322.682344</ele>
        <time>2023-12-03T22:23:18.835Z</time>
      </trkpt>
      <trkpt lat="39.680786" lon="16.048933">
        <ele>324.212917</ele>
        <time>2023-12-03T22:23:26.318Z</time>
      </trkpt>
      <trkpt lat="39.680776" lon="16.048862">
        <ele>324.584617</ele>
        <time>2023-12-03T22:23:28.314Z</time>
      </trkpt>
      <trkpt lat="39.680839" lon="16.048797">
        <ele>325.122898</ele>
        <time>2023-12-03T22:23:31.383Z</time>
      </trkpt>
      <trkpt lat="39.680886" lon="16.048800">
        <ele>325.437767</ele>
        <time>2023-12-03T22:23:33.395Z</time>
      </trkpt>
      <trkpt lat="39.680978" lon="16.048873">
        <ele>326.159070</ele>
        <time>2023-12-03T22:23:38.178Z</time>
      </trkpt>
      <trkpt lat="39.681153" lon="16.049146">
        <ele>327.988716</ele>
        <time>2023-12-03T22:23:52.371Z</time>
      </trkpt>
      <trkpt lat="39.681260" lon="16.049223">
        <ele>328.807151</ele>
        <time>2023-12-03T22:23:59.604Z</time>
      </trkpt>
      <trkpt lat="39.681575" lon="16.049106">
        <ele>330.999320</ele>
        <time>2023-12-03T22:24:21.129Z</time>
      </trkpt>
      <trkpt lat="39.681760" lon="16.049110">
        <ele>333.567682</ele>
        <time>2023-12-03T22:24:34.853Z</time>
      </trkpt>
      <trkpt lat="39.682083" lon="16.049229">
        <ele>339.263432</ele>
        <time>2023-12-03T22:25:02.994Z</time>
      </trkpt>
      <trkpt lat="39.682160" lon="16.049215">
        <ele>340.582474</ele>
        <time>2023-12-03T22:25:10.080Z</time>
      </trkpt>
      <trkpt lat="39.682257" lon="16.049129">
        <ele>342.574669</ele>
        <time>2023-12-03T22:25:20.801Z</time>
      </trkpt>
      <trkpt lat="39.682473" lon="16.048546">
        <ele>351.022641</ele>
        <time>2023-12-03T22:26:08.047Z</time>
      </trkpt>
      <trkpt lat="39.682577" lon="16.047446">
        <ele>363.009371</ele>
        <time>2023-12-03T22:27:20.712Z</time>
      </trkpt>
      <trkpt lat="39.682730" lon="16.047135">
        <ele>364.511229</ele>
        <time>2023-12-03T22:27:38.537Z</time>
      </trkpt>
      <trkpt lat="39.682803" lon="16.046925">
        <ele>365.448802</ele>
        <time>2023-12-03T22:27:47.603Z</time>
      </trkpt>
      <trkpt lat="39.682780" lon="16.046803">
        <ele>365.959874</ele>
        <time>2023-12-03T22:27:51.440Z</time>
      </trkpt>
      <trkpt lat="39.682736" lon="16.046775">
        <ele>366.218900</ele>
        <time>2023-12-03T22:27:53.255Z</time>
      </trkpt>
      <trkpt lat="39.682684" lon="16.046785">
        <ele>366.496818</ele>
        <time>2023-12-03T22:27:55.261Z</time>
      </trkpt>
      <trkpt lat="39.682593" lon="16.046890">
        <ele>367.140242</ele>
        <time>2023-12-03T22:27:59.240Z</time>
      </trkpt>
      <trkpt lat="39.682377" lon="16.047290">
        <ele>369.128456</ele>
        <time>2023-12-03T22:28:06.057Z</time>
      </trkpt>
      <trkpt lat="39.682373" lon="16.047839">
        <ele>371.362348</ele>
        <time>2023-12-03T22:28:10.212Z</time>
      </trkpt>
      <trkpt lat="39.682270" lon="16.048089">
        <ele>371.093736</ele>
        <time>2023-12-03T22:28:12.291Z</time>
      </trkpt>
      <trkpt lat="39.682073" lon="16.048309">
        <ele>370.725356</ele>
        <time>2023-12-03T22:28:14.700Z</time>
      </trkpt>
      <trkpt lat="39.681837" lon="16.048346">
        <ele>370.388245</ele>
        <time>2023-12-03T22:28:16.956Z</time>
      </trkpt>
      <trkpt lat="39.681459" lon="16.048252">
        <ele>369.842455</ele>
        <time>2023-12-03T22:28:20.946Z</time>
      </trkpt>
      <trkpt lat="39.681084" lon="16.048159">
        <ele>369.301048</ele>
        <time>2023-12-03T22:28:26.254Z</time>
      </trkpt>
      <trkpt lat="39.680507" lon="16.047686">
        <ele>370.953240</ele>
        <time>2023-12-03T22:28:45.091Z</time>
      </trkpt>
      <trkpt lat="39.680165" lon="16.047338">
        <ele>373.499730</ele>
        <time>2023-12-03T22:29:03.457Z</time>
      </trkpt>
      <trkpt lat="39.680007" lon="16.047335">
        <ele>374.426058</ele>
        <time>2023-12-03T22:29:11.598Z</time>
      </trkpt>
      <trkpt lat="39.678182" lon="16.047544">
        <ele>383.244051</ele>
        <time>2023-12-03T22:30:27.298Z</time>
      </trkpt>
      <trkpt lat="39.677470" lon="16.047084">
        <ele>386.354938</ele>
        <time>2023-12-03T22:30:42.843Z</time>
      </trkpt>
      <trkpt lat="39.677111" lon="16.047116">
        <ele>386.167726</ele>
        <time>2023-12-03T22:30:47.585Z</time>
      </trkpt>
      <trkpt lat="39.677018" lon="16.047057">
        <ele>386.089999</ele>
        <time>2023-12-03T22:30:48.967Z</time>
      </trkpt>
      <trkpt lat="39.676689" lon="16.046645">
        <ele>385.746826</ele>
        <time>2023-12-03T22:30:54.983Z</time>
      </trkpt>
      <trkpt lat="39.676217" lon="16.046548">
        <ele>385.387934</ele>
        <time>2023-12-03T22:31:00.943Z</time>
      </trkpt>
      <trkpt lat="39.675918" lon="16.046321">
        <ele>385.127851</ele>
        <time>2023-12-03T22:31:04.778Z</time>
      </trkpt>
      <trkpt lat="39.675749" lon="16.045997">
        <ele>385.145959</ele>
        <time>2023-12-03T22:31:07.971Z</time>
      </trkpt>
      <trkpt lat="39.675681" lon="16.045777">
        <ele>385.203416</ele>
        <time>2023-12-03T22:31:10.067Z</time>
      </trkpt>
      <trkpt lat="39.675656" lon="16.045291">
        <ele>385.321465</ele>
        <time>2023-12-03T22:31:14.667Z</time>
      </trkpt>
      <trkpt lat="39.675580" lon="16.045100">
        <ele>385.373575</ele>
        <time>2023-12-03T22:31:16.856Z</time>
      </trkpt>
      <trkpt lat="39.675461" lon="16.044949">
        <ele>385.425952</ele>
        <time>2023-12-03T22:31:20.258Z</time>
      </trkpt>
      <trkpt lat="39.675088" lon="16.044863">
        <ele>385.545239</ele>
        <time>2023-12-03T22:31:28.826Z</time>
      </trkpt>
      <trkpt lat="39.674961" lon="16.044668">
        <ele>385.607148</ele>
        <time>2023-12-03T22:31:33.554Z</time>
      </trkpt>
      <trkpt lat="39.674521" lon="16.043311">
        <ele>388.136769</ele>
        <time>2023-12-03T22:32:03.211Z</time>
      </trkpt>
      <trkpt lat="39.673398" lon="16.041453">
        <ele>391.616520</ele>
        <time>2023-12-03T22:32:45.374Z</time>
      </trkpt>
      <trkpt lat="39.673236" lon="16.041302">
        <ele>391.922861</ele>
        <time>2023-12-03T22:32:48.980Z</time>
      </trkpt>
      <trkpt lat="39.672667" lon="16.041075">
        <ele>392.827875</ele>
        <time>2023-12-03T22:32:59.700Z</time>
      </trkpt>
      <trkpt lat="39.672484" lon="16.040924">
        <ele>393.114233</ele>
        <time>2023-12-03T22:33:03.355Z</time>
      </trkpt>
      <trkpt lat="39.672224" lon="16.040409">
        <ele>393.740422</ele>
        <time>2023-12-03T22:33:11.096Z</time>
      </trkpt>
      <trkpt lat="39.671936" lon="16.039981">
        <ele>394.318419</ele>
        <time>2023-12-03T22:33:18.534Z</time>
      </trkpt>
      <trkpt lat="39.671400" lon="16.039217">
        <ele>395.750928</ele>
        <time>2023-12-03T22:33:38.081Z</time>
      </trkpt>
      <trkpt lat="39.670957" lon="16.038735">
        <ele>397.813344</ele>
        <time>2023-12-03T22:33:55.305Z</time>
      </trkpt>
      <trkpt lat="39.670442" lon="16.037644">
        <ele>401.329406</ele>
        <time>2023-12-03T22:34:25.166Z</time>
      </trkpt>
      <trkpt lat="39.670215" lon="16.036837">
        <ele>402.888774</ele>
        <time>2023-12-03T22:34:45.466Z</time>
      </trkpt>
      <trkpt lat="39.670122" lon="16.036665">
        <ele>403.248525</ele>
        <time>2023-12-03T22:34:50.259Z</time>
      </trkpt>
      <trkpt lat="39.669729" lon="16.036402">
        <ele>404.231487</ele>
        <time>2023-12-03T22:35:02.403Z</time>
      </trkpt>
      <trkpt lat="39.668810" lon="16.035155">
        <ele>403.679804</ele>
        <time>2023-12-03T22:35:20.357Z</time>
      </trkpt>
      <trkpt lat="39.668620" lon="16.034863">
        <ele>402.919415</ele>
        <time>2023-12-03T22:35:23.357Z</time>
      </trkpt>
      <trkpt lat="39.668262" lon="16.034140">
        <ele>401.209757</ele>
        <time>2023-12-03T22:35:29.755Z</time>
      </trkpt>
      <trkpt lat="39.668151" lon="16.034015">
        <ele>400.796368</ele>
        <time>2023-12-03T22:35:31.142Z</time>
      </trkpt>
      <trkpt lat="39.668037" lon="16.033932">
        <ele>400.327546</ele>
        <time>2023-12-03T22:35:32.359Z</time>
      </trkpt>
      <trkpt lat="39.667678" lon="16.033831">
        <ele>399.009780</ele>
        <time>2023-12-03T22:35:35.765Z</time>
      </trkpt>
      <trkpt lat="39.667083" lon="16.033237">
        <ele>396.317743</ele>
        <time>2023-12-03T22:35:42.973Z</time>
      </trkpt>
      <trkpt lat="39.666764" lon="16.033049">
        <ele>395.061076</ele>
        <time>2023-12-03T22:35:46.824Z</time>
      </trkpt>
      <trkpt lat="39.666603" lon="16.032844">
        <ele>394.446991</ele>
        <time>2023-12-03T22:35:49.629Z</time>
      </trkpt>
      <trkpt lat="39.666270" lon="16.032077">
        <ele>394.243690</ele>
        <time>2023-12-03T22:35:59.804Z</time>
      </trkpt>
      <trkpt lat="39.666278" lon="16.031853">
        <ele>394.191919</ele>
        <time>2023-12-03T22:36:02.545Z</time>
      </trkpt>
      <trkpt lat="39.666369" lon="16.031633">
        <ele>394.134258</ele>
        <time>2023-12-03T22:36:05.362Z</time>
      </trkpt>
      <trkpt lat="39.666391" lon="16.031524">
        <ele>394.108243</ele>
        <time>2023-12-03T22:36:06.693Z</time>
      </trkpt>
      <trkpt lat="39.666385" lon="16.031372">
        <ele>394.073104</ele>
        <time>2023-12-03T22:36:08.640Z</time>
      </trkpt>
      <trkpt lat="39.666305" lon="16.030919">
        <ele>393.965802</ele>
        <time>2023-12-03T22:36:14.280Z</time>
      </trkpt>
      <trkpt lat="39.666242" lon="16.030736">
        <ele>393.866649</ele>
        <time>2023-12-03T22:36:16.570Z</time>
      </trkpt>
      <trkpt lat="39.666021" lon="16.030472">
        <ele>392.952934</ele>
        <time>2023-12-03T22:36:20.676Z</time>
      </trkpt>
      <trkpt lat="39.665464" lon="16.030132">
        <ele>391.079974</ele>
        <time>2023-12-03T22:36:27.452Z</time>
      </trkpt>
      <trkpt lat="39.665376" lon="16.030037">
        <ele>390.731754</ele>
        <time>2023-12-03T22:36:28.574Z</time>
      </trkpt>
      <trkpt lat="39.665281" lon="16.029784">
        <ele>390.072288</ele>
        <time>2023-12-03T22:36:30.649Z</time>
      </trkpt>
      <trkpt lat="39.665239" lon="16.029556">
        <ele>389.523064</ele>
        <time>2023-12-03T22:36:32.351Z</time>
      </trkpt>
      <trkpt lat="39.665221" lon="16.029190">
        <ele>388.663875</ele>
        <time>2023-12-03T22:36:34.957Z</time>
      </trkpt>
      <trkpt lat="39.665174" lon="16.029093">
        <ele>388.357476</ele>
        <time>2023-12-03T22:36:35.775Z</time>
      </trkpt>
      <trkpt lat="39.665080" lon="16.029024">
        <ele>387.806734</ele>
        <time>2023-12-03T22:36:36.771Z</time>
      </trkpt>
      <trkpt lat="39.665011" lon="16.029014">
        <ele>387.452585</ele>
        <time>2023-12-03T22:36:37.414Z</time>
      </trkpt>
      <trkpt lat="39.664664" lon="16.029128">
        <ele>385.626829</ele>
        <time>2023-12-03T22:36:40.731Z</time>
      </trkpt>
      <trkpt lat="39.664429" lon="16.029053">
        <ele>384.392460</ele>
        <time>2023-12-03T22:36:42.989Z</time>
      </trkpt>
      <trkpt lat="39.664334" lon="16.028993">
        <ele>383.853632</ele>
        <time>2023-12-03T22:36:43.968Z</time>
      </trkpt>
      <trkpt lat="39.663962" lon="16.028600">
        <ele>381.407787</ele>
        <time>2023-12-03T22:36:48.472Z</time>
      </trkpt>
      <trkpt lat="39.663789" lon="16.028474">
        <ele>380.396087</ele>
        <time>2023-12-03T22:36:50.352Z</time>
      </trkpt>
      <trkpt lat="39.663536" lon="16.028360">
        <ele>379.075487</ele>
        <time>2023-12-03T22:36:52.938Z</time>
      </trkpt>
      <trkpt lat="39.663194" lon="16.028283">
        <ele>377.630858</ele>
        <time>2023-12-03T22:36:56.322Z</time>
      </trkpt>
      <trkpt lat="39.663011" lon="16.028178">
        <ele>376.798222</ele>
        <time>2023-12-03T22:36:58.274Z</time>
      </trkpt>
      <trkpt lat="39.662846" lon="16.027950">
        <ele>375.795606</ele>
        <time>2023-12-03T22:37:00.666Z</time>
      </trkpt>
      <trkpt lat="39.662770" lon="16.027746">
        <ele>375.069479</ele>
        <time>2023-12-03T22:37:02.365Z</time>
      </trkpt>
      <trkpt lat="39.662755" lon="16.027593">
        <ele>374.575311</ele>
        <time>2023-12-03T22:37:03.539Z</time>
      </trkpt>
      <trkpt lat="39.662778" lon="16.027414">
        <ele>373.993865</ele>
        <time>2023-12-03T22:37:04.885Z</time>
      </trkpt>
      <trkpt lat="39.662850" lon="16.027227">
        <ele>373.323961</ele>
        <time>2023-12-03T22:37:06.450Z</time>
      </trkpt>
      <trkpt lat="39.662932" lon="16.027005">
        <ele>372.535040</ele>
        <time>2023-12-03T22:37:08.279Z</time>
      </trkpt>
      <trkpt lat="39.662996" lon="16.026769">
        <ele>371.721474</ele>
        <time>2023-12-03T22:37:10.134Z</time>
      </trkpt>
      <trkpt lat="39.663042" lon="16.026152">
        <ele>369.323318</ele>
        <time>2023-12-03T22:37:14.717Z</time>
      </trkpt>
      <trkpt lat="39.663058" lon="16.025947">
        <ele>368.526170</ele>
        <time>2023-12-03T22:37:16.212Z</time>
      </trkpt>
      <trkpt lat="39.663033" lon="16.025867">
        <ele>368.192145</ele>
        <time>2023-12-03T22:37:16.847Z</time>
      </trkpt>
      <trkpt lat="39.662914" lon="16.025748">
        <ele>367.437431</ele>
        <time>2023-12-03T22:37:18.256Z</time>
      </trkpt>
      <trkpt lat="39.662762" lon="16.025779">
        <ele>366.664196</ele>
        <time>2023-12-03T22:37:19.680Z</time>
      </trkpt>
      <trkpt lat="39.662419" lon="16.026105">
        <ele>364.528323</ele>
        <time>2023-12-03T22:37:23.602Z</time>
      </trkpt>
      <trkpt lat="39.661550" lon="16.026838">
        <ele>359.427028</ele>
        <time>2023-12-03T22:37:33.351Z</time>
      </trkpt>
      <trkpt lat="39.661147" lon="16.027178">
        <ele>357.086561</ele>
        <time>2023-12-03T22:37:38.042Z</time>
      </trkpt>
      <trkpt lat="39.660852" lon="16.027428">
        <ele>355.371030</ele>
        <time>2023-12-03T22:37:41.385Z</time>
      </trkpt>
      <trkpt lat="39.660221" lon="16.027961">
        <ele>351.089237</ele>
        <time>2023-12-03T22:37:48.401Z</time>
      </trkpt>
      <trkpt lat="39.660190" lon="16.027965">
        <ele>350.896634</ele>
        <time>2023-12-03T22:37:48.695Z</time>
      </trkpt>
      <trkpt lat="39.659502" lon="16.028063">
        <ele>346.617527</ele>
        <time>2023-12-03T22:37:55.054Z</time>
      </trkpt>
      <trkpt lat="39.659326" lon="16.028114">
        <ele>345.502647</ele>
        <time>2023-12-03T22:37:56.672Z</time>
      </trkpt>
      <trkpt lat="39.659191" lon="16.028253">
        <ele>344.437591</ele>
        <time>2023-12-03T22:37:58.238Z</time>
      </trkpt>
      <trkpt lat="39.659081" lon="16.028564">
        <ele>342.812276</ele>
        <time>2023-12-03T22:38:00.582Z</time>
      </trkpt>
      <trkpt lat="39.658701" lon="16.029217">
        <ele>339.146985</ele>
        <time>2023-12-03T22:38:06.184Z</time>
      </trkpt>
      <trkpt lat="39.658539" lon="16.029574">
        <ele>337.291408</ele>
        <time>2023-12-03T22:38:09.086Z</time>
      </trkpt>
      <trkpt lat="39.658511" lon="16.030300">
        <ele>334.036499</ele>
        <time>2023-12-03T22:38:14.363Z</time>
      </trkpt>
      <trkpt lat="39.658475" lon="16.030448">
        <ele>333.341503</ele>
        <time>2023-12-03T22:38:15.518Z</time>
      </trkpt>
      <trkpt lat="39.657707" lon="16.031183">
        <ele>330.009317</ele>
        <time>2023-12-03T22:38:25.076Z</time>
      </trkpt>
      <trkpt lat="39.657117" lon="16.031718">
        <ele>327.833352</ele>
        <time>2023-12-03T22:38:32.614Z</time>
      </trkpt>
      <trkpt lat="39.656781" lon="16.032076">
        <ele>326.602194</ele>
        <time>2023-12-03T22:38:37.272Z</time>
      </trkpt>
      <trkpt lat="39.656333" lon="16.032667">
        <ele>325.026621</ele>
        <time>2023-12-03T22:38:44.108Z</time>
      </trkpt>
      <trkpt lat="39.655973" lon="16.033170">
        <ele>323.721971</ele>
        <time>2023-12-03T22:38:49.627Z</time>
      </trkpt>
      <trkpt lat="39.654820" lon="16.034898">
        <ele>319.545111</ele>
        <time>2023-12-03T22:39:08.365Z</time>
      </trkpt>
      <trkpt lat="39.654394" lon="16.035427">
        <ele>318.178991</ele>
        <time>2023-12-03T22:39:14.768Z</time>
      </trkpt>
      <trkpt lat="39.653567" lon="16.036278">
        <ele>315.882894</ele>
        <time>2023-12-03T22:39:26.163Z</time>
      </trkpt>
      <trkpt lat="39.652710" lon="16.036880">
        <ele>313.723740</ele>
        <time>2023-12-03T22:39:36.728Z</time>
      </trkpt>
      <trkpt lat="39.652108" lon="16.037190">
        <ele>312.230526</ele>
        <time>2023-12-03T22:39:43.620Z</time>
      </trkpt>
      <trkpt lat="39.651536" lon="16.037403">
        <ele>310.858467</ele>
        <time>2023-12-03T22:39:49.955Z</time>
      </trkpt>
      <trkpt lat="39.650940" lon="16.037439">
        <ele>309.484667</ele>
        <time>2023-12-03T22:39:56.406Z</time>
      </trkpt>
      <trkpt lat="39.650606" lon="16.037518">
        <ele>308.703800</ele>
        <time>2023-12-03T22:40:00.121Z</time>
      </trkpt>
      <trkpt lat="39.648803" lon="16.038250">
        <ele>303.894959</ele>
        <time>2023-12-03T22:40:20.269Z</time>
      </trkpt>
      <trkpt lat="39.648137" lon="16.038700">
        <ele>301.716105</ele>
        <time>2023-12-03T22:40:27.851Z</time>
      </trkpt>
      <trkpt lat="39.647702" lon="16.039052">
        <ele>300.347204</ele>
        <time>2023-12-03T22:40:32.992Z</time>
      </trkpt>
      <trkpt lat="39.647196" lon="16.039648">
        <ele>298.709446</ele>
        <time>2023-12-03T22:40:39.967Z</time>
      </trkpt>
      <trkpt lat="39.647068" lon="16.040322">
        <ele>297.427917</ele>
        <time>2023-12-03T22:40:45.725Z</time>
      </trkpt>
      <trkpt lat="39.646828" lon="16.040856">
        <ele>296.495130</ele>
        <time>2023-12-03T22:40:51.395Z</time>
      </trkpt>
      <trkpt lat="39.646785" lon="16.041141">
        <ele>296.317823</ele>
        <time>2023-12-03T22:40:54.298Z</time>
      </trkpt>
      <trkpt lat="39.646781" lon="16.041690">
        <ele>295.982633</ele>
        <time>2023-12-03T22:41:00.188Z</time>
      </trkpt>
      <trkpt lat="39.646813" lon="16.042328">
        <ele>295.592297</ele>
        <time>2023-12-03T22:41:06.992Z</time>
      </trkpt>
      <trkpt lat="39.646797" lon="16.042494">
        <ele>295.490160</ele>
        <time>2023-12-03T22:41:08.634Z</time>
      </trkpt>
      <trkpt lat="39.646549" lon="16.043225">
        <ele>294.744900</ele>
        <time>2023-12-03T22:41:16.123Z</time>
      </trkpt>
      <trkpt lat="39.646374" lon="16.043634">
        <ele>294.025485</ele>
        <time>2023-12-03T22:41:20.214Z</time>
      </trkpt>
      <trkpt lat="39.645827" lon="16.044510">
        <ele>292.291387</ele>
        <time>2023-12-03T22:41:29.494Z</time>
      </trkpt>
      <trkpt lat="39.645524" lon="16.045153">
        <ele>291.127301</ele>
        <time>2023-12-03T22:41:35.581Z</time>
      </trkpt>
      <trkpt lat="39.645436" lon="16.045432">
        <ele>290.658557</ele>
        <time>2023-12-03T22:41:38.046Z</time>
      </trkpt>
      <trkpt lat="39.645440" lon="16.045780">
        <ele>290.117458</ele>
        <time>2023-12-03T22:41:40.945Z</time>
      </trkpt>
      <trkpt lat="39.645268" lon="16.046997">
        <ele>288.193766</ele>
        <time>2023-12-03T22:41:51.680Z</time>
      </trkpt>
      <trkpt lat="39.645080" lon="16.047837">
        <ele>286.691557</ele>
        <time>2023-12-03T22:41:59.229Z</time>
      </trkpt>
      <trkpt lat="39.644757" lon="16.048998">
        <ele>284.527599</ele>
        <time>2023-12-03T22:42:09.390Z</time>
      </trkpt>
      <trkpt lat="39.644669" lon="16.049734">
        <ele>283.052963</ele>
        <time>2023-12-03T22:42:15.315Z</time>
      </trkpt>
      <trkpt lat="39.644550" lon="16.050237">
        <ele>281.884024</ele>
        <time>2023-12-03T22:42:19.440Z</time>
      </trkpt>
      <trkpt lat="39.644498" lon="16.050755">
        <ele>280.723574</ele>
        <time>2023-12-03T22:42:23.541Z</time>
      </trkpt>
      <trkpt lat="39.644506" lon="16.051320">
        <ele>279.468240</ele>
        <time>2023-12-03T22:42:27.991Z</time>
      </trkpt>
      <trkpt lat="39.644450" lon="16.051942">
        <ele>278.208662</ele>
        <time>2023-12-03T22:42:33.054Z</time>
      </trkpt>
      <trkpt lat="39.644426" lon="16.052813">
        <ele>276.705622</ele>
        <time>2023-12-03T22:42:40.362Z</time>
      </trkpt>
      <trkpt lat="39.644358" lon="16.053346">
        <ele>275.773909</ele>
        <time>2023-12-03T22:42:44.976Z</time>
      </trkpt>
      <trkpt lat="39.644330" lon="16.054461">
        <ele>273.658684</ele>
        <time>2023-12-03T22:42:54.225Z</time>
      </trkpt>
      <trkpt lat="39.644149" lon="16.055027">
        <ele>272.344815</ele>
        <time>2023-12-03T22:42:59.182Z</time>
      </trkpt>
      <trkpt lat="39.643962" lon="16.055440">
        <ele>271.317699</ele>
        <time>2023-12-03T22:43:03.015Z</time>
      </trkpt>
      <trkpt lat="39.643121" lon="16.056458">
        <ele>267.865996</ele>
        <time>2023-12-03T22:43:14.573Z</time>
      </trkpt>
      <trkpt lat="39.642184" lon="16.057734">
        <ele>263.570859</ele>
        <time>2023-12-03T22:43:28.236Z</time>
      </trkpt>
      <trkpt lat="39.641900" lon="16.058169">
        <ele>262.625380</ele>
        <time>2023-12-03T22:43:32.906Z</time>
      </trkpt>
      <trkpt lat="39.641770" lon="16.058464">
        <ele>262.061890</ele>
        <time>2023-12-03T22:43:35.740Z</time>
      </trkpt>
      <trkpt lat="39.641388" lon="16.059888">
        <ele>259.663795</ele>
        <time>2023-12-03T22:43:48.794Z</time>
      </trkpt>
      <trkpt lat="39.640395" lon="16.063103">
        <ele>255.461511</ele>
        <time>2023-12-03T22:44:19.532Z</time>
      </trkpt>
      <trkpt lat="39.640213" lon="16.063568">
        <ele>254.805406</ele>
        <time>2023-12-03T22:44:24.059Z</time>
      </trkpt>
      <trkpt lat="39.637897" lon="16.067964">
        <ele>246.476545</ele>
        <time>2023-12-03T22:45:08.986Z</time>
      </trkpt>
      <trkpt lat="39.631949" lon="16.079345">
        <ele>220.750163</ele>
        <time>2023-12-03T22:47:01.191Z</time>
      </trkpt>
      <trkpt lat="39.631875" lon="16.079610">
        <ele>220.344775</ele>
        <time>2023-12-03T22:47:03.743Z</time>
      </trkpt>
      <trkpt lat="39.631563" lon="16.081122">
        <ele>218.289610</ele>
        <time>2023-12-03T22:47:17.658Z</time>
      </trkpt>
      <trkpt lat="39.631454" lon="16.081432">
        <ele>217.842191</ele>
        <time>2023-12-03T22:47:20.629Z</time>
      </trkpt>
      <trkpt lat="39.631296" lon="16.081749">
        <ele>217.299974</ele>
        <time>2023-12-03T22:47:23.857Z</time>
      </trkpt>
      <trkpt lat="39.629604" lon="16.084153">
        <ele>212.967726</ele>
        <time>2023-12-03T22:47:51.042Z</time>
      </trkpt>
      <trkpt lat="39.629544" lon="16.084337">
        <ele>212.815569</ele>
        <time>2023-12-03T22:47:53.081Z</time>
      </trkpt>
      <trkpt lat="39.629539" lon="16.084462">
        <ele>212.720254</ele>
        <time>2023-12-03T22:47:54.393Z</time>
      </trkpt>
      <trkpt lat="39.629665" lon="16.085065">
        <ele>212.244470</ele>
        <time>2023-12-03T22:48:01.489Z</time>
      </trkpt>
      <trkpt lat="39.629697" lon="16.085382">
        <ele>212.006459</ele>
        <time>2023-12-03T22:48:05.178Z</time>
      </trkpt>
      <trkpt lat="39.629601" lon="16.086389">
        <ele>211.731520</ele>
        <time>2023-12-03T22:48:18.373Z</time>
      </trkpt>
      <trkpt lat="39.628856" lon="16.088468">
        <ele>209.930635</ele>
        <time>2023-12-03T22:48:40.347Z</time>
      </trkpt>
      <trkpt lat="39.628544" lon="16.089152">
        <ele>208.761755</ele>
        <time>2023-12-03T22:48:46.731Z</time>
      </trkpt>
      <trkpt lat="39.628236" lon="16.089599">
        <ele>207.845228</ele>
        <time>2023-12-03T22:48:51.573Z</time>
      </trkpt>
      <trkpt lat="39.628118" lon="16.089829">
        <ele>207.215648</ele>
        <time>2023-12-03T22:48:53.811Z</time>
      </trkpt>
      <trkpt lat="39.628000" lon="16.090129">
        <ele>206.448236</ele>
        <time>2023-12-03T22:48:56.506Z</time>
      </trkpt>
      <trkpt lat="39.627896" lon="16.090500">
        <ele>205.548798</ele>
        <time>2023-12-03T22:48:59.632Z</time>
      </trkpt>
      <trkpt lat="39.627805" lon="16.091678">
        <ele>202.851657</ele>
        <time>2023-12-03T22:49:08.840Z</time>
      </trkpt>
      <trkpt lat="39.627742" lon="16.091878">
        <ele>202.393734</ele>
        <time>2023-12-03T22:49:10.543Z</time>
      </trkpt>
      <trkpt lat="39.627406" lon="16.092549">
        <ele>200.808182</ele>
        <time>2023-12-03T22:49:17.053Z</time>
      </trkpt>
      <trkpt lat="39.627356" lon="16.092832">
        <ele>200.232971</ele>
        <time>2023-12-03T22:49:19.419Z</time>
      </trkpt>
      <trkpt lat="39.627325" lon="16.093321">
        <ele>199.260941</ele>
        <time>2023-12-03T22:49:23.421Z</time>
      </trkpt>
      <trkpt lat="39.627293" lon="16.094569">
        <ele>197.080745</ele>
        <time>2023-12-03T22:49:33.645Z</time>
      </trkpt>
      <trkpt lat="39.627383" lon="16.094793">
        <ele>196.701748</ele>
        <time>2023-12-03T22:49:35.779Z</time>
      </trkpt>
      <trkpt lat="39.628104" lon="16.095935">
        <ele>194.486588</ele>
        <time>2023-12-03T22:49:48.636Z</time>
      </trkpt>
      <trkpt lat="39.628549" lon="16.096818">
        <ele>192.892647</ele>
        <time>2023-12-03T22:49:57.700Z</time>
      </trkpt>
      <trkpt lat="39.628821" lon="16.098096">
        <ele>190.891518</ele>
        <time>2023-12-03T22:50:08.800Z</time>
      </trkpt>
      <trkpt lat="39.628730" lon="16.099191">
        <ele>189.264072</ele>
        <time>2023-12-03T22:50:17.973Z</time>
      </trkpt>
      <trkpt lat="39.628331" lon="16.105515">
        <ele>180.775235</ele>
        <time>2023-12-03T22:51:12.471Z</time>
      </trkpt>
      <trkpt lat="39.627919" lon="16.111256">
        <ele>178.765442</ele>
        <time>2023-12-03T22:52:15.757Z</time>
      </trkpt>
      <trkpt lat="39.627778" lon="16.114000">
        <ele>175.700757</ele>
        <time>2023-12-03T22:52:39.617Z</time>
      </trkpt>
      <trkpt lat="39.627189" lon="16.122705">
        <ele>162.446841</ele>
        <time>2023-12-03T22:53:53.626Z</time>
      </trkpt>
      <trkpt lat="39.626962" lon="16.126000">
        <ele>157.787073</ele>
        <time>2023-12-03T22:54:21.849Z</time>
      </trkpt>
      <trkpt lat="39.626880" lon="16.126760">
        <ele>157.369409</ele>
        <time>2023-12-03T22:54:28.853Z</time>
      </trkpt>
      <trkpt lat="39.626640" lon="16.127431">
        <ele>156.966764</ele>
        <time>2023-12-03T22:54:35.942Z</time>
      </trkpt>
      <trkpt lat="39.626268" lon="16.128132">
        <ele>156.611687</ele>
        <time>2023-12-03T22:54:45.060Z</time>
      </trkpt>
      <trkpt lat="39.625506" lon="16.129103">
        <ele>158.389442</ele>
        <time>2023-12-03T22:55:05.914Z</time>
      </trkpt>
      <trkpt lat="39.623474" lon="16.131912">
        <ele>166.052186</ele>
        <time>2023-12-03T22:56:24.795Z</time>
      </trkpt>
      <trkpt lat="39.623216" lon="16.132395">
        <ele>167.273340</ele>
        <time>2023-12-03T22:56:35.842Z</time>
      </trkpt>
      <trkpt lat="39.622930" lon="16.133202">
        <ele>169.118902</ele>
        <time>2023-12-03T22:56:53.731Z</time>
      </trkpt>
      <trkpt lat="39.622793" lon="16.133804">
        <ele>170.218103</ele>
        <time>2023-12-03T22:57:06.318Z</time>
      </trkpt>
      <trkpt lat="39.622734" lon="16.133762">
        <ele>170.354540</ele>
        <time>2023-12-03T22:57:08.511Z</time>
      </trkpt>
      <trkpt lat="39.622118" lon="16.132438">
        <ele>172.770372</ele>
        <time>2023-12-03T22:57:41.892Z</time>
      </trkpt>
      <trkpt lat="39.621868" lon="16.131690">
        <ele>173.462546</ele>
        <time>2023-12-03T22:57:58.009Z</time>
      </trkpt>
      <trkpt lat="39.621780" lon="16.131525">
        <ele>173.548042</ele>
        <time>2023-12-03T22:58:01.499Z</time>
      </trkpt>
      <trkpt lat="39.620739" lon="16.130027">
        <ele>174.617550</ele>
        <time>2023-12-03T22:58:33.544Z</time>
      </trkpt>
      <trkpt lat="39.620720" lon="16.129864">
        <ele>174.775442</ele>
        <time>2023-12-03T22:58:36.532Z</time>
      </trkpt>
      <trkpt lat="39.620735" lon="16.129791">
        <ele>174.847803</ele>
        <time>2023-12-03T22:58:37.893Z</time>
      </trkpt>
      <trkpt lat="39.621156" lon="16.129223">
        <ele>175.602756</ele>
        <time>2023-12-03T22:58:53.142Z</time>
      </trkpt>
      <trkpt lat="39.621181" lon="16.129056">
        <ele>175.765692</ele>
        <time>2023-12-03T22:58:56.594Z</time>
      </trkpt>
      <trkpt lat="39.621158" lon="16.128976">
        <ele>175.847475</ele>
        <time>2023-12-03T22:58:58.362Z</time>
      </trkpt>
      <trkpt lat="39.620964" lon="16.128716">
        <ele>176.194165</ele>
        <time>2023-12-03T22:59:06.027Z</time>
      </trkpt>
      <trkpt lat="39.620371" lon="16.127771">
        <ele>178.011366</ele>
        <time>2023-12-03T22:59:33.308Z</time>
      </trkpt>
      <trkpt lat="39.620158" lon="16.127316">
        <ele>178.895363</ele>
        <time>2023-12-03T22:59:45.196Z</time>
      </trkpt>
      <trkpt lat="39.619030" lon="16.125628">
        <ele>182.734990</ele>
        <time>2023-12-03T23:00:35.145Z</time>
      </trkpt>
      <trkpt lat="39.618941" lon="16.125274">
        <ele>183.388765</ele>
        <time>2023-12-03T23:00:43.730Z</time>
      </trkpt>
      <trkpt lat="39.618685" lon="16.124547">
        <ele>184.781465</ele>
        <time>2023-12-03T23:01:02.492Z</time>
      </trkpt>
      <trkpt lat="39.617522" lon="16.122662">
        <ele>188.980369</ele>
        <time>2023-12-03T23:01:56.111Z</time>
      </trkpt>
      <trkpt lat="39.617173" lon="16.121782">
        <ele>190.997102</ele>
        <time>2023-12-03T23:02:17.536Z</time>
      </trkpt>
      <trkpt lat="39.616983" lon="16.121570">
        <ele>191.659797</ele>
        <time>2023-12-03T23:02:25.242Z</time>
      </trkpt>
      <trkpt lat="39.616411" lon="16.121222">
        <ele>193.410696</ele>
        <time>2023-12-03T23:02:46.448Z</time>
      </trkpt>
      <trkpt lat="39.616229" lon="16.121154">
        <ele>194.177231</ele>
        <time>2023-12-03T23:02:53.347Z</time>
      </trkpt>
      <trkpt lat="39.616018" lon="16.121117">
        <ele>195.038994</ele>
        <time>2023-12-03T23:03:01.168Z</time>
      </trkpt>
      <trkpt lat="39.615665" lon="16.121077">
        <ele>196.473167</ele>
        <time>2023-12-03T23:03:14.687Z</time>
      </trkpt>
      <trkpt lat="39.615363" lon="16.121101">
        <ele>197.697777</ele>
        <time>2023-12-03T23:03:26.626Z</time>
      </trkpt>
      <trkpt lat="39.615256" lon="16.121130">
        <ele>198.140190</ele>
        <time>2023-12-03T23:03:30.925Z</time>
      </trkpt>
      <trkpt lat="39.615022" lon="16.121393">
        <ele>199.392951</ele>
        <time>2023-12-03T23:03:42.736Z</time>
      </trkpt>
      <trkpt lat="39.614925" lon="16.121466">
        <ele>199.846757</ele>
        <time>2023-12-03T23:03:46.901Z</time>
      </trkpt>
      <trkpt lat="39.614790" lon="16.121495">
        <ele>200.400590</ele>
        <time>2023-12-03T23:03:51.905Z</time>
      </trkpt>
      <trkpt lat="39.613997" lon="16.121264">
        <ele>201.497712</ele>
        <time>2023-12-03T23:04:16.579Z</time>
      </trkpt>
      <trkpt lat="39.613501" lon="16.121020">
        <ele>202.187573</ele>
        <time>2023-12-03T23:04:28.062Z</time>
      </trkpt>
      <trkpt lat="39.612706" lon="16.120535">
        <ele>203.070180</ele>
        <time>2023-12-03T23:04:44.203Z</time>
      </trkpt>
      <trkpt lat="39.612561" lon="16.120484">
        <ele>203.169959</ele>
        <time>2023-12-03T23:04:46.968Z</time>
      </trkpt>
      <trkpt lat="39.612131" lon="16.120465">
        <ele>203.455724</ele>
        <time>2023-12-03T23:04:55.551Z</time>
      </trkpt>
      <trkpt lat="39.611853" lon="16.120410">
        <ele>203.642499</ele>
        <time>2023-12-03T23:05:02.031Z</time>
      </trkpt>
      <trkpt lat="39.611739" lon="16.120323">
        <ele>203.730332</ele>
        <time>2023-12-03T23:05:05.304Z</time>
      </trkpt>
      <trkpt lat="39.610950" lon="16.119482">
        <ele>205.963492</ele>
        <time>2023-12-03T23:05:36.825Z</time>
      </trkpt>
      <trkpt lat="39.609424" lon="16.119003">
        <ele>210.258671</ele>
        <time>2023-12-03T23:06:31.211Z</time>
      </trkpt>
      <trkpt lat="39.609176" lon="16.119025">
        <ele>210.630304</ele>
        <time>2023-12-03T23:06:38.605Z</time>
      </trkpt>
      <trkpt lat="39.608936" lon="16.119186">
        <ele>211.034197</ele>
        <time>2023-12-03T23:06:46.099Z</time>
      </trkpt>
      <trkpt lat="39.608627" lon="16.119138">
        <ele>211.499458</ele>
        <time>2023-12-03T23:06:53.849Z</time>
      </trkpt>
      <trkpt lat="39.608272" lon="16.118731">
        <ele>212.207580</ele>
        <time>2023-12-03T23:07:03.686Z</time>
      </trkpt>
      <trkpt lat="39.608093" lon="16.118574">
        <ele>212.315051</ele>
        <time>2023-12-03T23:07:07.525Z</time>
      </trkpt>
      <trkpt lat="39.607622" lon="16.118810">
        <ele>212.138784</ele>
        <time>2023-12-03T23:07:16.007Z</time>
      </trkpt>
      <trkpt lat="39.606539" lon="16.119690">
        <ele>212.046649</ele>
        <time>2023-12-03T23:07:40.161Z</time>
      </trkpt>
      <trkpt lat="39.606258" lon="16.120033">
        <ele>213.266400</ele>
        <time>2023-12-03T23:07:49.512Z</time>
      </trkpt>
      <trkpt lat="39.606093" lon="16.120344">
        <ele>214.186335</ele>
        <time>2023-12-03T23:07:57.500Z</time>
      </trkpt>
      <trkpt lat="39.605919" lon="16.120484">
        <ele>214.833682</ele>
        <time>2023-12-03T23:08:03.699Z</time>
      </trkpt>
      <trkpt lat="39.603903" lon="16.120634">
        <ele>225.707374</ele>
        <time>2023-12-03T23:09:30.255Z</time>
      </trkpt>
      <trkpt lat="39.603398" lon="16.120913">
        <ele>229.490894</ele>
        <time>2023-12-03T23:10:00.995Z</time>
      </trkpt>
      <trkpt lat="39.602630" lon="16.121632">
        <ele>237.322055</ele>
        <time>2023-12-03T23:10:56.446Z</time>
      </trkpt>
      <trkpt lat="39.601902" lon="16.121782">
        <ele>243.470840</ele>
        <time>2023-12-03T23:11:35.871Z</time>
      </trkpt>
      <trkpt lat="39.601852" lon="16.121975">
        <ele>244.779530</ele>
        <time>2023-12-03T23:11:43.326Z</time>
      </trkpt>
      <trkpt lat="39.602390" lon="16.122469">
        <ele>247.211423</ele>
        <time>2023-12-03T23:12:10.674Z</time>
      </trkpt>
      <trkpt lat="39.602415" lon="16.123220">
        <ele>249.329587</ele>
        <time>2023-12-03T23:12:29.454Z</time>
      </trkpt>
      <trkpt lat="39.602299" lon="16.123542">
        <ele>250.331208</ele>
        <time>2023-12-03T23:12:36.851Z</time>
      </trkpt>
      <trkpt lat="39.600311" lon="16.125744">
        <ele>253.383637</ele>
        <time>2023-12-03T23:13:42.699Z</time>
      </trkpt>
      <trkpt lat="39.600179" lon="16.125211">
        <ele>253.139441</ele>
        <time>2023-12-03T23:13:51.117Z</time>
      </trkpt>
      <trkpt lat="39.599807" lon="16.124921">
        <ele>252.893786</ele>
        <time>2023-12-03T23:13:58.314Z</time>
      </trkpt>
      <trkpt lat="39.599472" lon="16.124893">
        <ele>252.703754</ele>
        <time>2023-12-03T23:14:03.502Z</time>
      </trkpt>
      <trkpt lat="39.598868" lon="16.125280">
        <ele>251.696623</ele>
        <time>2023-12-03T23:14:13.806Z</time>
      </trkpt>
      <trkpt lat="39.598600" lon="16.125243">
        <ele>251.262808</ele>
        <time>2023-12-03T23:14:17.931Z</time>
      </trkpt>
      <trkpt lat="39.598253" lon="16.124868">
        <ele>250.535973</ele>
        <time>2023-12-03T23:14:24.805Z</time>
      </trkpt>
      <trkpt lat="39.598000" lon="16.124400">
        <ele>249.826914</ele>
        <time>2023-12-03T23:14:31.790Z</time>
      </trkpt>
      <trkpt lat="39.597422" lon="16.122629">
        <ele>254.352701</ele>
        <time>2023-12-03T23:15:16.914Z</time>
      </trkpt>
      <trkpt lat="39.597372" lon="16.121696">
        <ele>257.820738</ele>
        <time>2023-12-03T23:15:52.439Z</time>
      </trkpt>
      <trkpt lat="39.597372" lon="16.121246">
        <ele>260.037791</ele>
        <time>2023-12-03T23:16:10.051Z</time>
      </trkpt>
      <trkpt lat="39.597529" lon="16.120709">
        <ele>262.867513</ele>
        <time>2023-12-03T23:16:31.524Z</time>
      </trkpt>
      <trkpt lat="39.597529" lon="16.120709">
        <ele>262.867513</ele>
        <time>2023-12-03T23:16:31.525Z</time>
      </trkpt>
      <trkpt lat="39.597802" lon="16.120087">
        <ele>266.394230</ele>
        <time>2023-12-03T23:16:56.614Z</time>
      </trkpt>
      <trkpt lat="39.597918" lon="16.119829">
        <ele>267.416428</ele>
        <time>2023-12-03T23:17:06.335Z</time>
      </trkpt>
      <trkpt lat="39.597343" lon="16.118141">
        <ele>271.911864</ele>
        <time>2023-12-03T23:17:53.129Z</time>
      </trkpt>
      <trkpt lat="39.597186" lon="16.117572">
        <ele>273.133197</ele>
        <time>2023-12-03T23:18:03.169Z</time>
      </trkpt>
      <trkpt lat="39.596372" lon="16.116536">
        <ele>275.484141</ele>
        <time>2023-12-03T23:18:33.208Z</time>
      </trkpt>
      <trkpt lat="39.596272" lon="16.116321">
        <ele>275.883164</ele>
        <time>2023-12-03T23:18:39.113Z</time>
      </trkpt>
      <trkpt lat="39.596223" lon="16.115656">
        <ele>277.850944</ele>
        <time>2023-12-03T23:18:56.318Z</time>
      </trkpt>
      <trkpt lat="39.595938" lon="16.114471">
        <ele>282.942711</ele>
        <time>2023-12-03T23:19:37.074Z</time>
      </trkpt>
      <trkpt lat="39.595682" lon="16.113817">
        <ele>285.949151</ele>
        <time>2023-12-03T23:20:05.273Z</time>
      </trkpt>
      <trkpt lat="39.595087" lon="16.112830">
        <ele>288.987140</ele>
        <time>2023-12-03T23:20:44.683Z</time>
      </trkpt>
      <trkpt lat="39.594834" lon="16.112523">
        <ele>290.076851</ele>
        <time>2023-12-03T23:20:53.797Z</time>
      </trkpt>
      <trkpt lat="39.594470" lon="16.112523">
        <ele>291.222029</ele>
        <time>2023-12-03T23:21:01.864Z</time>
      </trkpt>
      <trkpt lat="39.594189" lon="16.112695">
        <ele>291.668357</ele>
        <time>2023-12-03T23:21:07.522Z</time>
      </trkpt>
      <trkpt lat="39.594007" lon="16.113017">
        <ele>291.772344</ele>
        <time>2023-12-03T23:21:12.562Z</time>
      </trkpt>
      <trkpt lat="39.593767" lon="16.113081">
        <ele>291.855141</ele>
        <time>2023-12-03T23:21:16.331Z</time>
      </trkpt>
      <trkpt lat="39.593483" lon="16.112969">
        <ele>291.955446</ele>
        <time>2023-12-03T23:21:21.068Z</time>
      </trkpt>
      <trkpt lat="39.593180" lon="16.112738">
        <ele>292.074201</ele>
        <time>2023-12-03T23:21:27.220Z</time>
      </trkpt>
      <trkpt lat="39.593139" lon="16.112223">
        <ele>292.209022</ele>
        <time>2023-12-03T23:21:38.300Z</time>
      </trkpt>
      <trkpt lat="39.592689" lon="16.112154">
        <ele>296.541642</ele>
        <time>2023-12-03T23:21:59.268Z</time>
      </trkpt>
      <trkpt lat="39.592490" lon="16.111778">
        <ele>299.972431</ele>
        <time>2023-12-03T23:22:20.665Z</time>
      </trkpt>
      <trkpt lat="39.592593" lon="16.111311">
        <ele>303.625932</ele>
        <time>2023-12-03T23:22:45.995Z</time>
      </trkpt>
      <trkpt lat="39.592684" lon="16.110635">
        <ele>308.787343</ele>
        <time>2023-12-03T23:23:23.683Z</time>
      </trkpt>
      <trkpt lat="39.592883" lon="16.110302">
        <ele>312.337778</ele>
        <time>2023-12-03T23:23:47.116Z</time>
      </trkpt>
      <trkpt lat="39.592990" lon="16.109991">
        <ele>315.345250</ele>
        <time>2023-12-03T23:24:06.098Z</time>
      </trkpt>
      <trkpt lat="39.592932" lon="16.109572">
        <ele>319.104316</ele>
        <time>2023-12-03T23:24:29.928Z</time>
      </trkpt>
      <trkpt lat="39.592999" lon="16.109283">
        <ele>321.769226</ele>
        <time>2023-12-03T23:24:46.215Z</time>
      </trkpt>
      <trkpt lat="39.593114" lon="16.109047">
        <ele>324.234843</ele>
        <time>2023-12-03T23:25:00.445Z</time>
      </trkpt>
      <trkpt lat="39.593371" lon="16.108832">
        <ele>327.738695</ele>
        <time>2023-12-03T23:25:18.912Z</time>
      </trkpt>
      <trkpt lat="39.593849" lon="16.108607">
        <ele>331.880848</ele>
        <time>2023-12-03T23:25:47.029Z</time>
      </trkpt>
      <trkpt lat="39.593906" lon="16.108497">
        <ele>332.432689</ele>
        <time>2023-12-03T23:25:52.430Z</time>
      </trkpt>
      <trkpt lat="39.593956" lon="16.107912">
        <ele>334.882990</ele>
        <time>2023-12-03T23:26:14.881Z</time>
      </trkpt>
      <trkpt lat="39.594357" lon="16.106894">
        <ele>339.642542</ele>
        <time>2023-12-03T23:26:46.593Z</time>
      </trkpt>
      <trkpt lat="39.594363" lon="16.106799">
        <ele>340.039353</ele>
        <time>2023-12-03T23:26:48.369Z</time>
      </trkpt>
      <trkpt lat="39.594323" lon="16.106682">
        <ele>340.069898</ele>
        <time>2023-12-03T23:26:50.612Z</time>
      </trkpt>
      <trkpt lat="39.594233" lon="16.106576">
        <ele>340.034776</ele>
        <time>2023-12-03T23:26:53.337Z</time>
      </trkpt>
      <trkpt lat="39.594143" lon="16.106470">
        <ele>339.999653</ele>
        <time>2023-12-03T23:26:55.622Z</time>
      </trkpt>
      <trkpt lat="39.593917" lon="16.106382">
        <ele>339.931467</ele>
        <time>2023-12-03T23:27:00.275Z</time>
      </trkpt>
      <trkpt lat="39.593703" lon="16.106367">
        <ele>339.869535</ele>
        <time>2023-12-03T23:27:03.958Z</time>
      </trkpt>
      <trkpt lat="39.593370" lon="16.106272">
        <ele>339.771006</ele>
        <time>2023-12-03T23:27:09.723Z</time>
      </trkpt>
      <trkpt lat="39.593082" lon="16.105987">
        <ele>339.666343</ele>
        <time>2023-12-03T23:27:15.626Z</time>
      </trkpt>
      <trkpt lat="39.592816" lon="16.105981">
        <ele>339.589462</ele>
        <time>2023-12-03T23:27:19.887Z</time>
      </trkpt>
      <trkpt lat="39.592275" lon="16.104880">
        <ele>341.115569</ele>
        <time>2023-12-03T23:27:40.640Z</time>
      </trkpt>
      <trkpt lat="39.591275" lon="16.103549">
        <ele>344.484120</ele>
        <time>2023-12-03T23:28:31.399Z</time>
      </trkpt>
      <trkpt lat="39.590700" lon="16.103028">
        <ele>346.874287</ele>
        <time>2023-12-03T23:28:55.424Z</time>
      </trkpt>
      <trkpt lat="39.590072" lon="16.102567">
        <ele>349.005503</ele>
        <time>2023-12-03T23:29:18.649Z</time>
      </trkpt>
      <trkpt lat="39.589610" lon="16.101948">
        <ele>350.262566</ele>
        <time>2023-12-03T23:29:37.844Z</time>
      </trkpt>
      <trkpt lat="39.588995" lon="16.101327">
        <ele>351.737679</ele>
        <time>2023-12-03T23:29:58.595Z</time>
      </trkpt>
      <trkpt lat="39.588806" lon="16.101124">
        <ele>351.911747</ele>
        <time>2023-12-03T23:30:04.668Z</time>
      </trkpt>
      <trkpt lat="39.588652" lon="16.101177">
        <ele>351.778616</ele>
        <time>2023-12-03T23:30:08.473Z</time>
      </trkpt>
      <trkpt lat="39.588688" lon="16.101571">
        <ele>351.523125</ele>
        <time>2023-12-03T23:30:13.609Z</time>
      </trkpt>
      <trkpt lat="39.588715" lon="16.102304">
        <ele>351.050576</ele>
        <time>2023-12-03T23:30:21.176Z</time>
      </trkpt>
      <trkpt lat="39.588812" lon="16.103424">
        <ele>349.367480</ele>
        <time>2023-12-03T23:30:30.407Z</time>
      </trkpt>
      <trkpt lat="39.588788" lon="16.103750">
        <ele>347.989011</ele>
        <time>2023-12-03T23:30:32.874Z</time>
      </trkpt>
      <trkpt lat="39.588670" lon="16.104386">
        <ele>345.235422</ele>
        <time>2023-12-03T23:30:37.607Z</time>
      </trkpt>
      <trkpt lat="39.588628" lon="16.104865">
        <ele>343.206169</ele>
        <time>2023-12-03T23:30:40.969Z</time>
      </trkpt>
      <trkpt lat="39.588628" lon="16.105719">
        <ele>339.481647</ele>
        <time>2023-12-03T23:30:46.835Z</time>
      </trkpt>
      <trkpt lat="39.588643" lon="16.106916">
        <ele>333.826577</ele>
        <time>2023-12-03T23:30:55.028Z</time>
      </trkpt>
      <trkpt lat="39.588573" lon="16.108841">
        <ele>329.704973</ele>
        <time>2023-12-03T23:31:09.596Z</time>
      </trkpt>
      <trkpt lat="39.588543" lon="16.109261">
        <ele>329.727860</ele>
        <time>2023-12-03T23:31:16.804Z</time>
      </trkpt>
      <trkpt lat="39.588461" lon="16.109670">
        <ele>329.750791</ele>
        <time>2023-12-03T23:31:25.878Z</time>
      </trkpt>
      <trkpt lat="39.588470" lon="16.110066">
        <ele>329.772287</ele>
        <time>2023-12-03T23:31:35.623Z</time>
      </trkpt>
      <trkpt lat="39.588725" lon="16.111437">
        <ele>333.679968</ele>
        <time>2023-12-03T23:32:12.100Z</time>
      </trkpt>
      <trkpt lat="39.588718" lon="16.111838">
        <ele>334.831953</ele>
        <time>2023-12-03T23:32:21.877Z</time>
      </trkpt>
      <trkpt lat="39.588643" lon="16.112058">
        <ele>335.522867</ele>
        <time>2023-12-03T23:32:27.498Z</time>
      </trkpt>
      <trkpt lat="39.588028" lon="16.113366">
        <ele>336.138550</ele>
        <time>2023-12-03T23:32:50.669Z</time>
      </trkpt>
      <trkpt lat="39.587761" lon="16.114199">
        <ele>335.883035</ele>
        <time>2023-12-03T23:32:58.039Z</time>
      </trkpt>
      <trkpt lat="39.587692" lon="16.114415">
        <ele>335.813485</ele>
        <time>2023-12-03T23:32:59.949Z</time>
      </trkpt>
      <trkpt lat="39.587598" lon="16.114556">
        <ele>335.378593</ele>
        <time>2023-12-03T23:33:01.495Z</time>
      </trkpt>
      <trkpt lat="39.587462" lon="16.114639">
        <ele>334.923684</ele>
        <time>2023-12-03T23:33:03.106Z</time>
      </trkpt>
      <trkpt lat="39.587060" lon="16.114674">
        <ele>333.704153</ele>
        <time>2023-12-03T23:33:07.474Z</time>
      </trkpt>
      <trkpt lat="39.586929" lon="16.114741">
        <ele>333.277946</ele>
        <time>2023-12-03T23:33:08.975Z</time>
      </trkpt>
      <trkpt lat="39.586860" lon="16.114843">
        <ele>332.961353</ele>
        <time>2023-12-03T23:33:10.066Z</time>
      </trkpt>
      <trkpt lat="39.586805" lon="16.115051">
        <ele>332.448391</ele>
        <time>2023-12-03T23:33:11.809Z</time>
      </trkpt>
      <trkpt lat="39.586699" lon="16.115707">
        <ele>330.884881</ele>
        <time>2023-12-03T23:33:16.935Z</time>
      </trkpt>
      <trkpt lat="39.586618" lon="16.115943">
        <ele>330.202136</ele>
        <time>2023-12-03T23:33:18.876Z</time>
      </trkpt>
      <trkpt lat="39.586506" lon="16.116132">
        <ele>329.155356</ele>
        <time>2023-12-03T23:33:20.678Z</time>
      </trkpt>
      <trkpt lat="39.586327" lon="16.116297">
        <ele>327.904439</ele>
        <time>2023-12-03T23:33:22.837Z</time>
      </trkpt>
      <trkpt lat="39.585043" lon="16.117141">
        <ele>319.691885</ele>
        <time>2023-12-03T23:33:35.985Z</time>
      </trkpt>
      <trkpt lat="39.584928" lon="16.117188">
        <ele>318.984874</ele>
        <time>2023-12-03T23:33:37.042Z</time>
      </trkpt>
      <trkpt lat="39.584692" lon="16.117180">
        <ele>317.600514</ele>
        <time>2023-12-03T23:33:39.136Z</time>
      </trkpt>
      <trkpt lat="39.584371" lon="16.117259">
        <ele>315.684634</ele>
        <time>2023-12-03T23:33:42.045Z</time>
      </trkpt>
      <trkpt lat="39.584205" lon="16.117424">
        <ele>314.458434</ele>
        <time>2023-12-03T23:33:43.924Z</time>
      </trkpt>
      <trkpt lat="39.583984" lon="16.117864">
        <ele>312.084938</ele>
        <time>2023-12-03T23:33:47.662Z</time>
      </trkpt>
      <trkpt lat="39.584020" lon="16.118249">
        <ele>310.332257</ele>
        <time>2023-12-03T23:33:50.530Z</time>
      </trkpt>
      <trkpt lat="39.584138" lon="16.118755">
        <ele>309.243161</ele>
        <time>2023-12-03T23:33:54.672Z</time>
      </trkpt>
      <trkpt lat="39.584175" lon="16.119129">
        <ele>308.893498</ele>
        <time>2023-12-03T23:33:57.964Z</time>
      </trkpt>
      <trkpt lat="39.584147" lon="16.119455">
        <ele>308.589321</ele>
        <time>2023-12-03T23:34:01.188Z</time>
      </trkpt>
      <trkpt lat="39.584011" lon="16.119973">
        <ele>308.081862</ele>
        <time>2023-12-03T23:34:07.523Z</time>
      </trkpt>
      <trkpt lat="39.583811" lon="16.120268">
        <ele>307.717519</ele>
        <time>2023-12-03T23:34:12.398Z</time>
      </trkpt>
      <trkpt lat="39.583696" lon="16.120382">
        <ele>307.543386</ele>
        <time>2023-12-03T23:34:14.652Z</time>
      </trkpt>
      <trkpt lat="39.583384" lon="16.120464">
        <ele>306.581290</ele>
        <time>2023-12-03T23:34:19.195Z</time>
      </trkpt>
      <trkpt lat="39.582979" lon="16.120362">
        <ele>304.954313</ele>
        <time>2023-12-03T23:34:23.949Z</time>
      </trkpt>
      <trkpt lat="39.582821" lon="16.120448">
        <ele>304.278615</ele>
        <time>2023-12-03T23:34:25.680Z</time>
      </trkpt>
      <trkpt lat="39.582225" lon="16.121368">
        <ele>300.625769</ele>
        <time>2023-12-03T23:34:34.221Z</time>
      </trkpt>
      <trkpt lat="39.582116" lon="16.121450">
        <ele>300.024472</ele>
        <time>2023-12-03T23:34:35.346Z</time>
      </trkpt>
      <trkpt lat="39.581940" lon="16.121529">
        <ele>298.891757</ele>
        <time>2023-12-03T23:34:37.007Z</time>
      </trkpt>
      <trkpt lat="39.581798" lon="16.121548">
        <ele>298.023502</ele>
        <time>2023-12-03T23:34:38.291Z</time>
      </trkpt>
      <trkpt lat="39.581722" lon="16.121647">
        <ele>297.368489</ele>
        <time>2023-12-03T23:34:39.251Z</time>
      </trkpt>
      <trkpt lat="39.581641" lon="16.122000">
        <ele>295.641962</ele>
        <time>2023-12-03T23:34:41.831Z</time>
      </trkpt>
      <trkpt lat="39.581637" lon="16.122256">
        <ele>294.441673</ele>
        <time>2023-12-03T23:34:43.635Z</time>
      </trkpt>
      <trkpt lat="39.581501" lon="16.122825">
        <ele>291.649068</ele>
        <time>2023-12-03T23:34:47.896Z</time>
      </trkpt>
      <trkpt lat="39.581468" lon="16.123065">
        <ele>290.506261</ele>
        <time>2023-12-03T23:34:49.631Z</time>
      </trkpt>
      <trkpt lat="39.581525" lon="16.123513">
        <ele>288.518339</ele>
        <time>2023-12-03T23:34:52.880Z</time>
      </trkpt>
      <trkpt lat="39.581616" lon="16.123764">
        <ele>287.400130</ele>
        <time>2023-12-03T23:34:54.873Z</time>
      </trkpt>
      <trkpt lat="39.581662" lon="16.124000">
        <ele>286.418800</ele>
        <time>2023-12-03T23:34:56.618Z</time>
      </trkpt>
      <trkpt lat="39.581653" lon="16.124282">
        <ele>285.281010</ele>
        <time>2023-12-03T23:34:58.660Z</time>
      </trkpt>
      <trkpt lat="39.581595" lon="16.124526">
        <ele>284.251662</ele>
        <time>2023-12-03T23:35:00.501Z</time>
      </trkpt>
      <trkpt lat="39.581480" lon="16.124738">
        <ele>283.206575</ele>
        <time>2023-12-03T23:35:02.371Z</time>
      </trkpt>
      <trkpt lat="39.581323" lon="16.124891">
        <ele>282.179550</ele>
        <time>2023-12-03T23:35:04.232Z</time>
      </trkpt>
      <trkpt lat="39.581077" lon="16.124990">
        <ele>280.832366</ele>
        <time>2023-12-03T23:35:06.657Z</time>
      </trkpt>
      <trkpt lat="39.580781" lon="16.125001">
        <ele>279.311137</ele>
        <time>2023-12-03T23:35:09.470Z</time>
      </trkpt>
      <trkpt lat="39.580542" lon="16.125103">
        <ele>278.047843</ele>
        <time>2023-12-03T23:35:11.837Z</time>
      </trkpt>
      <trkpt lat="39.580439" lon="16.125225">
        <ele>277.347576</ele>
        <time>2023-12-03T23:35:13.144Z</time>
      </trkpt>
      <trkpt lat="39.580302" lon="16.125465">
        <ele>276.191797</ele>
        <time>2023-12-03T23:35:15.269Z</time>
      </trkpt>
      <trkpt lat="39.580330" lon="16.125697">
        <ele>275.283035</ele>
        <time>2023-12-03T23:35:16.941Z</time>
      </trkpt>
      <trkpt lat="39.580417" lon="16.125771">
        <ele>274.760699</ele>
        <time>2023-12-03T23:35:17.909Z</time>
      </trkpt>
      <trkpt lat="39.580545" lon="16.125803">
        <ele>274.106177</ele>
        <time>2023-12-03T23:35:19.102Z</time>
      </trkpt>
      <trkpt lat="39.580814" lon="16.125756">
        <ele>272.743311</ele>
        <time>2023-12-03T23:35:21.631Z</time>
      </trkpt>
      <trkpt lat="39.581102" lon="16.125791">
        <ele>271.290906</ele>
        <time>2023-12-03T23:35:24.388Z</time>
      </trkpt>
      <trkpt lat="39.581302" lon="16.125893">
        <ele>270.467588</ele>
        <time>2023-12-03T23:35:26.493Z</time>
      </trkpt>
      <trkpt lat="39.581477" lon="16.126082">
        <ele>269.724337</ele>
        <time>2023-12-03T23:35:28.792Z</time>
      </trkpt>
      <trkpt lat="39.581525" lon="16.126333">
        <ele>269.073712</ele>
        <time>2023-12-03T23:35:30.872Z</time>
      </trkpt>
      <trkpt lat="39.581383" lon="16.127044">
        <ele>267.225864</ele>
        <time>2023-12-03T23:35:36.813Z</time>
      </trkpt>
      <trkpt lat="39.581229" lon="16.127657">
        <ele>265.603785</ele>
        <time>2023-12-03T23:35:41.930Z</time>
      </trkpt>
      <trkpt lat="39.580738" lon="16.129904">
        <ele>258.609343</ele>
        <time>2023-12-03T23:35:59.753Z</time>
      </trkpt>
      <trkpt lat="39.580542" lon="16.130512">
        <ele>255.697802</ele>
        <time>2023-12-03T23:36:04.483Z</time>
      </trkpt>
      <trkpt lat="39.580345" lon="16.130925">
        <ele>253.240210</ele>
        <time>2023-12-03T23:36:07.899Z</time>
      </trkpt>
      <trkpt lat="39.580208" lon="16.131377">
        <ele>250.782617</ele>
        <time>2023-12-03T23:36:11.279Z</time>
      </trkpt>
      <trkpt lat="39.580118" lon="16.131773">
        <ele>248.693575</ele>
        <time>2023-12-03T23:36:14.136Z</time>
      </trkpt>
      <trkpt lat="39.580066" lon="16.132194">
        <ele>246.536151</ele>
        <time>2023-12-03T23:36:17.048Z</time>
      </trkpt>
      <trkpt lat="39.579994" lon="16.132414">
        <ele>245.130088</ele>
        <time>2023-12-03T23:36:18.678Z</time>
      </trkpt>
      <trkpt lat="39.579779" lon="16.132755">
        <ele>242.376503</ele>
        <time>2023-12-03T23:36:21.668Z</time>
      </trkpt>
      <trkpt lat="39.579373" lon="16.133019">
        <ele>238.693785</ele>
        <time>2023-12-03T23:36:25.638Z</time>
      </trkpt>
      <trkpt lat="39.579188" lon="16.133270">
        <ele>236.523118</ele>
        <time>2023-12-03T23:36:27.984Z</time>
      </trkpt>
      <trkpt lat="39.579079" lon="16.133604">
        <ele>234.256125</ele>
        <time>2023-12-03T23:36:30.441Z</time>
      </trkpt>
      <trkpt lat="39.578925" lon="16.134943">
        <ele>226.857476</ele>
        <time>2023-12-03T23:36:39.750Z</time>
      </trkpt>
      <trkpt lat="39.578852" lon="16.135297">
        <ele>224.988124</ele>
        <time>2023-12-03T23:36:42.290Z</time>
      </trkpt>
      <trkpt lat="39.578780" lon="16.135352">
        <ele>224.435128</ele>
        <time>2023-12-03T23:36:43.049Z</time>
      </trkpt>
      <trkpt lat="39.578710" lon="16.135376">
        <ele>223.955927</ele>
        <time>2023-12-03T23:36:43.701Z</time>
      </trkpt>
      <trkpt lat="39.578592" lon="16.135305">
        <ele>223.095042</ele>
        <time>2023-12-03T23:36:44.878Z</time>
      </trkpt>
      <trkpt lat="39.578504" lon="16.135160">
        <ele>222.153578</ele>
        <time>2023-12-03T23:36:46.169Z</time>
      </trkpt>
      <trkpt lat="39.578238" lon="16.134449">
        <ele>218.666939</ele>
        <time>2023-12-03T23:36:51.854Z</time>
      </trkpt>
      <trkpt lat="39.577895" lon="16.133899">
        <ele>216.326272</ele>
        <time>2023-12-03T23:36:57.137Z</time>
      </trkpt>
      <trkpt lat="39.577808" lon="16.133859">
        <ele>215.930077</ele>
        <time>2023-12-03T23:36:58.053Z</time>
      </trkpt>
      <trkpt lat="39.577693" lon="16.133867">
        <ele>215.435739</ele>
        <time>2023-12-03T23:36:59.182Z</time>
      </trkpt>
      <trkpt lat="39.577635" lon="16.133950">
        <ele>215.065082</ele>
        <time>2023-12-03T23:37:00.021Z</time>
      </trkpt>
      <trkpt lat="39.577686" lon="16.134209">
        <ele>214.180676</ele>
        <time>2023-12-03T23:37:02.062Z</time>
      </trkpt>
      <trkpt lat="39.577868" lon="16.134574">
        <ele>212.742431</ele>
        <time>2023-12-03T23:37:05.351Z</time>
      </trkpt>
      <trkpt lat="39.577956" lon="16.134826">
        <ele>211.840008</ele>
        <time>2023-12-03T23:37:07.425Z</time>
      </trkpt>
      <trkpt lat="39.577986" lon="16.135069">
        <ele>211.109640</ele>
        <time>2023-12-03T23:37:09.290Z</time>
      </trkpt>
      <trkpt lat="39.577962" lon="16.135478">
        <ele>209.892297</ele>
        <time>2023-12-03T23:37:12.392Z</time>
      </trkpt>
      <trkpt lat="39.577889" lon="16.136016">
        <ele>208.271067</ele>
        <time>2023-12-03T23:37:16.537Z</time>
      </trkpt>
      <trkpt lat="39.577902" lon="16.136660">
        <ele>206.359146</ele>
        <time>2023-12-03T23:37:21.416Z</time>
      </trkpt>
      <trkpt lat="39.577941" lon="16.137179">
        <ele>204.868398</ele>
        <time>2023-12-03T23:37:25.356Z</time>
      </trkpt>
      <trkpt lat="39.577932" lon="16.137406">
        <ele>204.372175</ele>
        <time>2023-12-03T23:37:27.096Z</time>
      </trkpt>
      <trkpt lat="39.577756" lon="16.137791">
        <ele>203.394957</ele>
        <time>2023-12-03T23:37:30.524Z</time>
      </trkpt>
      <trkpt lat="39.577653" lon="16.137896">
        <ele>203.023934</ele>
        <time>2023-12-03T23:37:31.829Z</time>
      </trkpt>
      <trkpt lat="39.577320" lon="16.138235">
        <ele>201.825040</ele>
        <time>2023-12-03T23:37:36.152Z</time>
      </trkpt>
      <trkpt lat="39.575667" lon="16.140325">
        <ele>197.694138</ele>
        <time>2023-12-03T23:38:02.012Z</time>
      </trkpt>
      <trkpt lat="39.575115" lon="16.140870">
        <ele>198.097827</ele>
        <time>2023-12-03T23:38:13.855Z</time>
      </trkpt>
      <trkpt lat="39.574744" lon="16.141218">
        <ele>198.628970</ele>
        <time>2023-12-03T23:38:23.073Z</time>
      </trkpt>
      <trkpt lat="39.574488" lon="16.141490">
        <ele>199.012868</ele>
        <time>2023-12-03T23:38:30.661Z</time>
      </trkpt>
      <trkpt lat="39.574268" lon="16.141695">
        <ele>199.327120</ele>
        <time>2023-12-03T23:38:37.489Z</time>
      </trkpt>
      <trkpt lat="39.572984" lon="16.142940">
        <ele>200.666218</ele>
        <time>2023-12-03T23:39:10.512Z</time>
      </trkpt>
      <trkpt lat="39.573548" lon="16.143938">
        <ele>199.990106</ele>
        <time>2023-12-03T23:39:21.845Z</time>
      </trkpt>
      <trkpt lat="39.573823" lon="16.144432">
        <ele>199.149671</ele>
        <time>2023-12-03T23:39:26.883Z</time>
      </trkpt>
      <trkpt lat="39.575049" lon="16.146640">
        <ele>195.011216</ele>
        <time>2023-12-03T23:39:49.492Z</time>
      </trkpt>
      <trkpt lat="39.576188" lon="16.148690">
        <ele>191.569784</ele>
        <time>2023-12-03T23:40:11.531Z</time>
      </trkpt>
      <trkpt lat="39.576732" lon="16.149572">
        <ele>190.251858</ele>
        <time>2023-12-03T23:40:21.465Z</time>
      </trkpt>
      <trkpt lat="39.576770" lon="16.149678">
        <ele>190.123679</ele>
        <time>2023-12-03T23:40:22.518Z</time>
      </trkpt>
      <trkpt lat="39.576775" lon="16.149792">
        <ele>189.998483</ele>
        <time>2023-12-03T23:40:23.558Z</time>
      </trkpt>
      <trkpt lat="39.576745" lon="16.149903">
        <ele>189.869513</ele>
        <time>2023-12-03T23:40:24.627Z</time>
      </trkpt>
      <trkpt lat="39.576630" lon="16.150118">
        <ele>189.582576</ele>
        <time>2023-12-03T23:40:26.968Z</time>
      </trkpt>
      <trkpt lat="39.575887" lon="16.150915">
        <ele>188.187935</ele>
        <time>2023-12-03T23:40:38.283Z</time>
      </trkpt>
      <trkpt lat="39.575833" lon="16.151015">
        <ele>188.041891</ele>
        <time>2023-12-03T23:40:39.398Z</time>
      </trkpt>
      <trkpt lat="39.575808" lon="16.151127">
        <ele>187.902422</ele>
        <time>2023-12-03T23:40:40.487Z</time>
      </trkpt>
      <trkpt lat="39.575810" lon="16.151248">
        <ele>187.757659</ele>
        <time>2023-12-03T23:40:41.636Z</time>
      </trkpt>
      <trkpt lat="39.575837" lon="16.151378">
        <ele>187.596618</ele>
        <time>2023-12-03T23:40:42.914Z</time>
      </trkpt>
      <trkpt lat="39.577635" lon="16.156392">
        <ele>181.171042</ele>
        <time>2023-12-03T23:41:31.327Z</time>
      </trkpt>
      <trkpt lat="39.578727" lon="16.160197">
        <ele>179.156359</ele>
        <time>2023-12-03T23:42:09.747Z</time>
      </trkpt>
      <trkpt lat="39.578798" lon="16.160547">
        <ele>179.347852</ele>
        <time>2023-12-03T23:42:14.948Z</time>
      </trkpt>
      <trkpt lat="39.578997" lon="16.162494">
        <ele>181.233952</ele>
        <time>2023-12-03T23:42:51.494Z</time>
      </trkpt>
      <trkpt lat="39.579055" lon="16.162950">
        <ele>181.879595</ele>
        <time>2023-12-03T23:43:00.339Z</time>
      </trkpt>
      <trkpt lat="39.579195" lon="16.163408">
        <ele>182.567896</ele>
        <time>2023-12-03T23:43:09.154Z</time>
      </trkpt>
      <trkpt lat="39.580725" lon="16.166965">
        <ele>182.669171</ele>
        <time>2023-12-03T23:43:56.843Z</time>
      </trkpt>
      <trkpt lat="39.580870" lon="16.167443">
        <ele>182.349329</ele>
        <time>2023-12-03T23:44:01.627Z</time>
      </trkpt>
      <trkpt lat="39.581318" lon="16.169208">
        <ele>178.568093</ele>
        <time>2023-12-03T23:44:16.568Z</time>
      </trkpt>
      <trkpt lat="39.581863" lon="16.170645">
        <ele>174.623643</ele>
        <time>2023-12-03T23:44:28.469Z</time>
      </trkpt>
      <trkpt lat="39.581958" lon="16.170962">
        <ele>173.820519</ele>
        <time>2023-12-03T23:44:31.039Z</time>
      </trkpt>
      <trkpt lat="39.582057" lon="16.171733">
        <ele>171.974876</ele>
        <time>2023-12-03T23:44:37.205Z</time>
      </trkpt>
      <trkpt lat="39.582140" lon="16.172020">
        <ele>171.251050</ele>
        <time>2023-12-03T23:44:39.868Z</time>
      </trkpt>
      <trkpt lat="39.582200" lon="16.172152">
        <ele>170.889191</ele>
        <time>2023-12-03T23:44:41.169Z</time>
      </trkpt>
      <trkpt lat="39.582365" lon="16.172398">
        <ele>170.492821</ele>
        <time>2023-12-03T23:44:44.161Z</time>
      </trkpt>
      <trkpt lat="39.582586" lon="16.172650">
        <ele>170.249191</ele>
        <time>2023-12-03T23:44:47.813Z</time>
      </trkpt>
      <trkpt lat="39.582743" lon="16.172828">
        <ele>170.076545</ele>
        <time>2023-12-03T23:44:50.435Z</time>
      </trkpt>
      <trkpt lat="39.582836" lon="16.172986">
        <ele>169.949665</ele>
        <time>2023-12-03T23:44:52.657Z</time>
      </trkpt>
      <trkpt lat="39.583002" lon="16.173377">
        <ele>169.664774</ele>
        <time>2023-12-03T23:44:57.500Z</time>
      </trkpt>
      <trkpt lat="39.583257" lon="16.174007">
        <ele>169.210634</ele>
        <time>2023-12-03T23:45:05.022Z</time>
      </trkpt>
      <trkpt lat="39.583582" lon="16.174563">
        <ele>168.072100</ele>
        <time>2023-12-03T23:45:11.414Z</time>
      </trkpt>
      <trkpt lat="39.583643" lon="16.174718">
        <ele>167.756554</ele>
        <time>2023-12-03T23:45:12.865Z</time>
      </trkpt>
      <trkpt lat="39.583885" lon="16.175555">
        <ele>166.135735</ele>
        <time>2023-12-03T23:45:19.943Z</time>
      </trkpt>
      <trkpt lat="39.584237" lon="16.176597">
        <ele>164.155486</ele>
        <time>2023-12-03T23:45:28.857Z</time>
      </trkpt>
      <trkpt lat="39.584295" lon="16.176947">
        <ele>163.570339</ele>
        <time>2023-12-03T23:45:31.700Z</time>
      </trkpt>
      <trkpt lat="39.584320" lon="16.177653">
        <ele>162.415173</ele>
        <time>2023-12-03T23:45:37.457Z</time>
      </trkpt>
      <trkpt lat="39.584403" lon="16.177982">
        <ele>161.849348</ele>
        <time>2023-12-03T23:45:40.408Z</time>
      </trkpt>
      <trkpt lat="39.584788" lon="16.178968">
        <ele>161.206326</ele>
        <time>2023-12-03T23:45:51.701Z</time>
      </trkpt>
      <trkpt lat="39.585072" lon="16.180032">
        <ele>161.399345</ele>
        <time>2023-12-03T23:46:08.753Z</time>
      </trkpt>
      <trkpt lat="39.585125" lon="16.180380">
        <ele>161.460152</ele>
        <time>2023-12-03T23:46:13.483Z</time>
      </trkpt>
      <trkpt lat="39.585110" lon="16.180728">
        <ele>161.188128</ele>
        <time>2023-12-03T23:46:17.378Z</time>
      </trkpt>
      <trkpt lat="39.585050" lon="16.181258">
        <ele>160.008564</ele>
        <time>2023-12-03T23:46:22.426Z</time>
      </trkpt>
      <trkpt lat="39.585067" lon="16.181603">
        <ele>159.247335</ele>
        <time>2023-12-03T23:46:25.343Z</time>
      </trkpt>
      <trkpt lat="39.585143" lon="16.182128">
        <ele>158.071088</ele>
        <time>2023-12-03T23:46:29.554Z</time>
      </trkpt>
      <trkpt lat="39.585235" lon="16.182473">
        <ele>157.267220</ele>
        <time>2023-12-03T23:46:32.276Z</time>
      </trkpt>
      <trkpt lat="39.585652" lon="16.183452">
        <ele>153.624783</ele>
        <time>2023-12-03T23:46:40.210Z</time>
      </trkpt>
      <trkpt lat="39.585747" lon="16.183768">
        <ele>152.310603</ele>
        <time>2023-12-03T23:46:42.586Z</time>
      </trkpt>
      <trkpt lat="39.585842" lon="16.184200">
        <ele>150.570041</ele>
        <time>2023-12-03T23:46:45.758Z</time>
      </trkpt>
      <trkpt lat="39.585865" lon="16.184418">
        <ele>149.717537</ele>
        <time>2023-12-03T23:46:47.336Z</time>
      </trkpt>
      <trkpt lat="39.585835" lon="16.184694">
        <ele>148.637610</ele>
        <time>2023-12-03T23:46:49.362Z</time>
      </trkpt>
      <trkpt lat="39.585801" lon="16.184886">
        <ele>147.874333</ele>
        <time>2023-12-03T23:46:50.824Z</time>
      </trkpt>
      <trkpt lat="39.585546" lon="16.186449">
        <ele>146.926116</ele>
        <time>2023-12-03T23:47:04.812Z</time>
      </trkpt>
      <trkpt lat="39.585502" lon="16.186606">
        <ele>146.881466</ele>
        <time>2023-12-03T23:47:07.287Z</time>
      </trkpt>
      <trkpt lat="39.585220" lon="16.187087">
        <ele>146.719940</ele>
        <time>2023-12-03T23:47:18.029Z</time>
      </trkpt>
      <trkpt lat="39.584783" lon="16.187710">
        <ele>149.272271</ele>
        <time>2023-12-03T23:47:36.879Z</time>
      </trkpt>
      <trkpt lat="39.584572" lon="16.187933">
        <ele>150.515690</ele>
        <time>2023-12-03T23:47:46.148Z</time>
      </trkpt>
      <trkpt lat="39.584457" lon="16.188007">
        <ele>151.102204</ele>
        <time>2023-12-03T23:47:50.673Z</time>
      </trkpt>
      <trkpt lat="39.584222" lon="16.188078">
        <ele>152.204670</ele>
        <time>2023-12-03T23:47:59.497Z</time>
      </trkpt>
      <trkpt lat="39.583115" lon="16.188152">
        <ele>157.747925</ele>
        <time>2023-12-03T23:48:40.750Z</time>
      </trkpt>
      <trkpt lat="39.582122" lon="16.188065">
        <ele>163.217296</ele>
        <time>2023-12-03T23:49:17.277Z</time>
      </trkpt>
      <trkpt lat="39.581872" lon="16.188013">
        <ele>164.608691</ele>
        <time>2023-12-03T23:49:26.511Z</time>
      </trkpt>
      <trkpt lat="39.581570" lon="16.187893">
        <ele>166.386554</ele>
        <time>2023-12-03T23:49:38.123Z</time>
      </trkpt>
      <trkpt lat="39.581485" lon="16.187903">
        <ele>166.868330</ele>
        <time>2023-12-03T23:49:41.272Z</time>
      </trkpt>
      <trkpt lat="39.581413" lon="16.187948">
        <ele>167.319451</ele>
        <time>2023-12-03T23:49:44.274Z</time>
      </trkpt>
      <trkpt lat="39.581358" lon="16.188023">
        <ele>167.769845</ele>
        <time>2023-12-03T23:49:47.184Z</time>
      </trkpt>
      <trkpt lat="39.581327" lon="16.188118">
        <ele>168.218667</ele>
        <time>2023-12-03T23:49:50.067Z</time>
      </trkpt>
      <trkpt lat="39.581322" lon="16.188225">
        <ele>168.685033</ele>
        <time>2023-12-03T23:49:53.091Z</time>
      </trkpt>
      <trkpt lat="39.581390" lon="16.188897">
        <ele>171.633704</ele>
        <time>2023-12-03T23:50:12.769Z</time>
      </trkpt>
      <trkpt lat="39.581385" lon="16.190412">
        <ele>177.778011</ele>
        <time>2023-12-03T23:50:56.953Z</time>
      </trkpt>
      <trkpt lat="39.581312" lon="16.190843">
        <ele>179.436188</ele>
        <time>2023-12-03T23:51:08.954Z</time>
      </trkpt>
      <trkpt lat="39.581155" lon="16.191218">
        <ele>181.039775</ele>
        <time>2023-12-03T23:51:19.807Z</time>
      </trkpt>
      <trkpt lat="39.581015" lon="16.191423">
        <ele>182.068987</ele>
        <time>2023-12-03T23:51:26.626Z</time>
      </trkpt>
      <trkpt lat="39.580652" lon="16.191768">
        <ele>184.005784</ele>
        <time>2023-12-03T23:51:40.808Z</time>
      </trkpt>
      <trkpt lat="39.580031" lon="16.192205">
        <ele>185.832885</ele>
        <time>2023-12-03T23:52:01.693Z</time>
      </trkpt>
      <trkpt lat="39.579312" lon="16.192732">
        <ele>187.968637</ele>
        <time>2023-12-03T23:52:20.089Z</time>
      </trkpt>
      <trkpt lat="39.578922" lon="16.193171">
        <ele>188.551925</ele>
        <time>2023-12-03T23:52:29.548Z</time>
      </trkpt>
      <trkpt lat="39.578345" lon="16.194077">
        <ele>189.013841</ele>
        <time>2023-12-03T23:52:44.185Z</time>
      </trkpt>
      <trkpt lat="39.577922" lon="16.194622">
        <ele>189.355931</ele>
        <time>2023-12-03T23:52:53.182Z</time>
      </trkpt>
      <trkpt lat="39.577852" lon="16.194865">
        <ele>189.574130</ele>
        <time>2023-12-03T23:52:56.195Z</time>
      </trkpt>
      <trkpt lat="39.577857" lon="16.194993">
        <ele>189.681931</ele>
        <time>2023-12-03T23:52:57.827Z</time>
      </trkpt>
      <trkpt lat="39.577923" lon="16.195232">
        <ele>189.895470</ele>
        <time>2023-12-03T23:53:01.359Z</time>
      </trkpt>
      <trkpt lat="39.578080" lon="16.195593">
        <ele>190.244114</ele>
        <time>2023-12-03T23:53:07.557Z</time>
      </trkpt>
      <trkpt lat="39.578337" lon="16.196055">
        <ele>190.723344</ele>
        <time>2023-12-03T23:53:16.753Z</time>
      </trkpt>
      <trkpt lat="39.578370" lon="16.196178">
        <ele>190.832889</ele>
        <time>2023-12-03T23:53:18.798Z</time>
      </trkpt>
      <trkpt lat="39.578390" lon="16.196894">
        <ele>191.229556</ele>
        <time>2023-12-03T23:53:30.735Z</time>
      </trkpt>
      <trkpt lat="39.578438" lon="16.197347">
        <ele>191.193453</ele>
        <time>2023-12-03T23:53:38.054Z</time>
      </trkpt>
      <trkpt lat="39.578577" lon="16.197943">
        <ele>191.144289</ele>
        <time>2023-12-03T23:53:47.104Z</time>
      </trkpt>
      <trkpt lat="39.578623" lon="16.198498">
        <ele>191.100217</ele>
        <time>2023-12-03T23:53:53.445Z</time>
      </trkpt>
      <trkpt lat="39.578653" lon="16.198607">
        <ele>191.091079</ele>
        <time>2023-12-03T23:53:54.500Z</time>
      </trkpt>
      <trkpt lat="39.578770" lon="16.198765">
        <ele>191.073780</ele>
        <time>2023-12-03T23:53:56.386Z</time>
      </trkpt>
      <trkpt lat="39.579027" lon="16.198952">
        <ele>189.700284</ele>
        <time>2023-12-03T23:53:59.362Z</time>
      </trkpt>
      <trkpt lat="39.579188" lon="16.199133">
        <ele>188.166271</ele>
        <time>2023-12-03T23:54:01.401Z</time>
      </trkpt>
      <trkpt lat="39.579380" lon="16.199477">
        <ele>185.809038</ele>
        <time>2023-12-03T23:54:04.379Z</time>
      </trkpt>
      <trkpt lat="39.579445" lon="16.199745">
        <ele>184.249732</ele>
        <time>2023-12-03T23:54:06.298Z</time>
      </trkpt>
      <trkpt lat="39.579467" lon="16.200477">
        <ele>180.184045</ele>
        <time>2023-12-03T23:54:11.194Z</time>
      </trkpt>
      <trkpt lat="39.579593" lon="16.201264">
        <ele>175.133014</ele>
        <time>2023-12-03T23:54:16.507Z</time>
      </trkpt>
      <trkpt lat="39.579640" lon="16.201555">
        <ele>173.075274</ele>
        <time>2023-12-03T23:54:18.482Z</time>
      </trkpt>
      <trkpt lat="39.579682" lon="16.202155">
        <ele>168.905619</ele>
        <time>2023-12-03T23:54:22.514Z</time>
      </trkpt>
      <trkpt lat="39.579720" lon="16.202288">
        <ele>167.923923</ele>
        <time>2023-12-03T23:54:23.478Z</time>
      </trkpt>
      <trkpt lat="39.579993" lon="16.202912">
        <ele>162.958010</ele>
        <time>2023-12-03T23:54:28.317Z</time>
      </trkpt>
      <trkpt lat="39.580062" lon="16.203005">
        <ele>162.064604</ele>
        <time>2023-12-03T23:54:29.196Z</time>
      </trkpt>
      <trkpt lat="39.580145" lon="16.203063">
        <ele>161.515679</ele>
        <time>2023-12-03T23:54:30.034Z</time>
      </trkpt>
      <trkpt lat="39.580447" lon="16.203130">
        <ele>159.867907</ele>
        <time>2023-12-03T23:54:32.785Z</time>
      </trkpt>
      <trkpt lat="39.580550" lon="16.203183">
        <ele>159.271985</ele>
        <time>2023-12-03T23:54:33.803Z</time>
      </trkpt>
      <trkpt lat="39.580725" lon="16.203322">
        <ele>158.168455</ele>
        <time>2023-12-03T23:54:35.723Z</time>
      </trkpt>
      <trkpt lat="39.580788" lon="16.203413">
        <ele>157.661422</ele>
        <time>2023-12-03T23:54:36.633Z</time>
      </trkpt>
      <trkpt lat="39.580817" lon="16.203643">
        <ele>156.695380</ele>
        <time>2023-12-03T23:54:38.364Z</time>
      </trkpt>
      <trkpt lat="39.580578" lon="16.204035">
        <ele>154.623569</ele>
        <time>2023-12-03T23:54:42.161Z</time>
      </trkpt>
      <trkpt lat="39.580537" lon="16.204147">
        <ele>154.109613</ele>
        <time>2023-12-03T23:54:43.123Z</time>
      </trkpt>
      <trkpt lat="39.580550" lon="16.204412">
        <ele>153.008940</ele>
        <time>2023-12-03T23:54:45.084Z</time>
      </trkpt>
      <trkpt lat="39.580693" lon="16.204817">
        <ele>151.388080</ele>
        <time>2023-12-03T23:54:48.313Z</time>
      </trkpt>
      <trkpt lat="39.580762" lon="16.204923">
        <ele>150.928400</ele>
        <time>2023-12-03T23:54:49.316Z</time>
      </trkpt>
      <trkpt lat="39.580848" lon="16.205002">
        <ele>150.475445</ele>
        <time>2023-12-03T23:54:50.300Z</time>
      </trkpt>
      <trkpt lat="39.581230" lon="16.205148">
        <ele>148.763609</ele>
        <time>2023-12-03T23:54:54.026Z</time>
      </trkpt>
      <trkpt lat="39.581297" lon="16.205225">
        <ele>148.378867</ele>
        <time>2023-12-03T23:54:54.867Z</time>
      </trkpt>
      <trkpt lat="39.581335" lon="16.205328">
        <ele>148.000542</ele>
        <time>2023-12-03T23:54:55.733Z</time>
      </trkpt>
      <trkpt lat="39.581338" lon="16.205448">
        <ele>147.602768</ele>
        <time>2023-12-03T23:54:56.640Z</time>
      </trkpt>
      <trkpt lat="39.581278" lon="16.205840">
        <ele>146.278693</ele>
        <time>2023-12-03T23:54:59.737Z</time>
      </trkpt>
      <trkpt lat="39.581305" lon="16.205965">
        <ele>145.848607</ele>
        <time>2023-12-03T23:55:00.777Z</time>
      </trkpt>
      <trkpt lat="39.581362" lon="16.206067">
        <ele>145.431195</ele>
        <time>2023-12-03T23:55:01.765Z</time>
      </trkpt>
      <trkpt lat="39.581545" lon="16.206200">
        <ele>144.525443</ele>
        <time>2023-12-03T23:55:03.895Z</time>
      </trkpt>
      <trkpt lat="39.582043" lon="16.206370">
        <ele>141.955870</ele>
        <time>2023-12-03T23:55:08.910Z</time>
      </trkpt>
      <trkpt lat="39.582148" lon="16.206438">
        <ele>141.370283</ele>
        <time>2023-12-03T23:55:10.023Z</time>
      </trkpt>
      <trkpt lat="39.582307" lon="16.206623">
        <ele>140.304594</ele>
        <time>2023-12-03T23:55:12.022Z</time>
      </trkpt>
      <trkpt lat="39.582350" lon="16.206730">
        <ele>139.840509</ele>
        <time>2023-12-03T23:55:12.890Z</time>
      </trkpt>
      <trkpt lat="39.582362" lon="16.206843">
        <ele>139.401825</ele>
        <time>2023-12-03T23:55:13.710Z</time>
      </trkpt>
      <trkpt lat="39.582303" lon="16.207055">
        <ele>138.534984</ele>
        <time>2023-12-03T23:55:15.325Z</time>
      </trkpt>
      <trkpt lat="39.582100" lon="16.207330">
        <ele>137.070532</ele>
        <time>2023-12-03T23:55:18.058Z</time>
      </trkpt>
      <trkpt lat="39.581887" lon="16.207730">
        <ele>135.086682</ele>
        <time>2023-12-03T23:55:21.536Z</time>
      </trkpt>
      <trkpt lat="39.581698" lon="16.208632">
        <ele>130.410433</ele>
        <time>2023-12-03T23:55:28.034Z</time>
      </trkpt>
      <trkpt lat="39.581687" lon="16.208782">
        <ele>129.656634</ele>
        <time>2023-12-03T23:55:29.072Z</time>
      </trkpt>
      <trkpt lat="39.581700" lon="16.208943">
        <ele>128.846786</ele>
        <time>2023-12-03T23:55:30.188Z</time>
      </trkpt>
      <trkpt lat="39.581938" lon="16.210195">
        <ele>122.754487</ele>
        <time>2023-12-03T23:55:39.186Z</time>
      </trkpt>
      <trkpt lat="39.582083" lon="16.211115">
        <ele>119.173657</ele>
        <time>2023-12-03T23:55:45.993Z</time>
      </trkpt>
      <trkpt lat="39.582388" lon="16.212158">
        <ele>114.943168</ele>
        <time>2023-12-03T23:55:54.303Z</time>
      </trkpt>
      <trkpt lat="39.582452" lon="16.212515">
        <ele>113.926652</ele>
        <time>2023-12-03T23:55:57.079Z</time>
      </trkpt>
      <trkpt lat="39.582445" lon="16.212878">
        <ele>112.919613</ele>
        <time>2023-12-03T23:55:59.860Z</time>
      </trkpt>
      <trkpt lat="39.582315" lon="16.213785">
        <ele>110.361058</ele>
        <time>2023-12-03T23:56:07.021Z</time>
      </trkpt>
      <trkpt lat="39.582237" lon="16.214652">
        <ele>107.886465</ele>
        <time>2023-12-03T23:56:13.754Z</time>
      </trkpt>
      <trkpt lat="39.582153" lon="16.214948">
        <ele>106.932360</ele>
        <time>2023-12-03T23:56:16.154Z</time>
      </trkpt>
      <trkpt lat="39.581870" lon="16.215670">
        <ele>104.482245</ele>
        <time>2023-12-03T23:56:22.225Z</time>
      </trkpt>
      <trkpt lat="39.581725" lon="16.216268">
        <ele>102.586002</ele>
        <time>2023-12-03T23:56:26.906Z</time>
      </trkpt>
      <trkpt lat="39.581420" lon="16.216755">
        <ele>100.743989</ele>
        <time>2023-12-03T23:56:31.628Z</time>
      </trkpt>
      <trkpt lat="39.581220" lon="16.217188">
        <ele>99.325988</ele>
        <time>2023-12-03T23:56:35.480Z</time>
      </trkpt>
      <trkpt lat="39.580932" lon="16.217927">
        <ele>96.999833</ele>
        <time>2023-12-03T23:56:41.832Z</time>
      </trkpt>
      <trkpt lat="39.580898" lon="16.218067">
        <ele>96.587508</ele>
        <time>2023-12-03T23:56:42.955Z</time>
      </trkpt>
      <trkpt lat="39.580888" lon="16.218205">
        <ele>96.198153</ele>
        <time>2023-12-03T23:56:44.027Z</time>
      </trkpt>
      <trkpt lat="39.580942" lon="16.218605">
        <ele>95.057436</ele>
        <time>2023-12-03T23:56:47.151Z</time>
      </trkpt>
      <trkpt lat="39.580940" lon="16.218758">
        <ele>94.661671</ele>
        <time>2023-12-03T23:56:48.338Z</time>
      </trkpt>
      <trkpt lat="39.580847" lon="16.219237">
        <ele>93.436475</ele>
        <time>2023-12-03T23:56:52.168Z</time>
      </trkpt>
      <trkpt lat="39.580783" lon="16.220238">
        <ele>90.945135</ele>
        <time>2023-12-03T23:57:00.049Z</time>
      </trkpt>
      <trkpt lat="39.580733" lon="16.220677">
        <ele>89.844443</ele>
        <time>2023-12-03T23:57:03.543Z</time>
      </trkpt>
      <trkpt lat="39.580615" lon="16.221295">
        <ele>88.253794</ele>
        <time>2023-12-03T23:57:08.503Z</time>
      </trkpt>
      <trkpt lat="39.580587" lon="16.221682">
        <ele>87.276908</ele>
        <time>2023-12-03T23:57:11.503Z</time>
      </trkpt>
      <trkpt lat="39.580658" lon="16.222687">
        <ele>84.740553</ele>
        <time>2023-12-03T23:57:19.341Z</time>
      </trkpt>
      <trkpt lat="39.580638" lon="16.222828">
        <ele>84.380240</ele>
        <time>2023-12-03T23:57:20.473Z</time>
      </trkpt>
      <trkpt lat="39.580595" lon="16.222953">
        <ele>84.036219</ele>
        <time>2023-12-03T23:57:21.550Z</time>
      </trkpt>
      <trkpt lat="39.580348" lon="16.223400">
        <ele>82.634127</ele>
        <time>2023-12-03T23:57:25.876Z</time>
      </trkpt>
      <trkpt lat="39.580045" lon="16.224715">
        <ele>79.073039</ele>
        <time>2023-12-03T23:57:36.528Z</time>
      </trkpt>
      <trkpt lat="39.579780" lon="16.225605">
        <ele>76.672763</ele>
        <time>2023-12-03T23:57:43.803Z</time>
      </trkpt>
      <trkpt lat="39.579585" lon="16.226880">
        <ele>73.714116</ele>
        <time>2023-12-03T23:57:53.908Z</time>
      </trkpt>
      <trkpt lat="39.579557" lon="16.227267">
        <ele>72.829380</ele>
        <time>2023-12-03T23:57:57.044Z</time>
      </trkpt>
      <trkpt lat="39.579597" lon="16.227838">
        <ele>71.777869</ele>
        <time>2023-12-03T23:58:01.829Z</time>
      </trkpt>
      <trkpt lat="39.579668" lon="16.228200">
        <ele>71.503283</ele>
        <time>2023-12-03T23:58:05.058Z</time>
      </trkpt>
      <trkpt lat="39.580177" lon="16.229693">
        <ele>70.303213</ele>
        <time>2023-12-03T23:58:21.285Z</time>
      </trkpt>
      <trkpt lat="39.580310" lon="16.230013">
        <ele>70.133689</ele>
        <time>2023-12-03T23:58:25.411Z</time>
      </trkpt>
      <trkpt lat="39.580690" lon="16.230748">
        <ele>69.914519</ele>
        <time>2023-12-03T23:58:35.273Z</time>
      </trkpt>
      <trkpt lat="39.580752" lon="16.230895">
        <ele>69.873022</ele>
        <time>2023-12-03T23:58:37.088Z</time>
      </trkpt>
      <trkpt lat="39.580785" lon="16.231053">
        <ele>69.832484</ele>
        <time>2023-12-03T23:58:38.804Z</time>
      </trkpt>
      <trkpt lat="39.580765" lon="16.231373">
        <ele>69.752981</ele>
        <time>2023-12-03T23:58:42.188Z</time>
      </trkpt>
      <trkpt lat="39.580488" lon="16.232132">
        <ele>69.504907</ele>
        <time>2023-12-03T23:58:50.779Z</time>
      </trkpt>
      <trkpt lat="39.580462" lon="16.232477">
        <ele>69.362069</ele>
        <time>2023-12-03T23:58:54.223Z</time>
      </trkpt>
      <trkpt lat="39.580512" lon="16.232840">
        <ele>69.210122</ele>
        <time>2023-12-03T23:58:57.837Z</time>
      </trkpt>
      <trkpt lat="39.580702" lon="16.233580">
        <ele>68.888725</ele>
        <time>2023-12-03T23:59:05.522Z</time>
      </trkpt>
      <trkpt lat="39.580933" lon="16.234740">
        <ele>68.480956</ele>
        <time>2023-12-03T23:59:18.453Z</time>
      </trkpt>
      <trkpt lat="39.581022" lon="16.235050">
        <ele>68.391719</ele>
        <time>2023-12-03T23:59:22.224Z</time>
      </trkpt>
      <trkpt lat="39.581308" lon="16.235670">
        <ele>68.196806</ele>
        <time>2023-12-03T23:59:30.098Z</time>
      </trkpt>
      <trkpt lat="39.581340" lon="16.235795">
        <ele>68.161275</ele>
        <time>2023-12-03T23:59:31.471Z</time>
      </trkpt>
      <trkpt lat="39.581342" lon="16.235920">
        <ele>68.127549</ele>
        <time>2023-12-03T23:59:32.767Z</time>
      </trkpt>
      <trkpt lat="39.581277" lon="16.236152">
        <ele>68.060960</ele>
        <time>2023-12-03T23:59:35.271Z</time>
      </trkpt>
      <trkpt lat="39.580955" lon="16.236693">
        <ele>67.445002</ele>
        <time>2023-12-03T23:59:41.941Z</time>
      </trkpt>
      <trkpt lat="39.580802" lon="16.237090">
        <ele>66.950057</ele>
        <time>2023-12-03T23:59:46.037Z</time>
      </trkpt>
      <trkpt lat="39.579981" lon="16.240682">
        <ele>62.427887</ele>
        <time>2023-12-04T00:00:18.040Z</time>
      </trkpt>
      <trkpt lat="39.579422" lon="16.240399">
        <ele>62.518886</ele>
        <time>2023-12-04T00:00:26.591Z</time>
      </trkpt>
      <trkpt lat="39.578483" lon="16.240124">
        <ele>62.664872</ele>
        <time>2023-12-04T00:00:42.978Z</time>
      </trkpt>
      <trkpt lat="39.578235" lon="16.240159">
        <ele>62.721278</ele>
        <time>2023-12-04T00:00:47.838Z</time>
      </trkpt>
      <trkpt lat="39.577783" lon="16.240862">
        <ele>63.160692</ele>
        <time>2023-12-04T00:01:01.290Z</time>
      </trkpt>
      <trkpt lat="39.577613" lon="16.240923">
        <ele>63.270531</ele>
        <time>2023-12-04T00:01:04.341Z</time>
      </trkpt>
      <trkpt lat="39.577473" lon="16.240922">
        <ele>63.357716</ele>
        <time>2023-12-04T00:01:06.892Z</time>
      </trkpt>
      <trkpt lat="39.577347" lon="16.240887">
        <ele>63.437958</ele>
        <time>2023-12-04T00:01:09.171Z</time>
      </trkpt>
      <trkpt lat="39.575890" lon="16.240058">
        <ele>63.981693</ele>
        <time>2023-12-04T00:01:33.503Z</time>
      </trkpt>
      <trkpt lat="39.575316" lon="16.239538">
        <ele>64.099175</ele>
        <time>2023-12-04T00:01:44.236Z</time>
      </trkpt>
      <trkpt lat="39.574731" lon="16.238776">
        <ele>64.654731</ele>
        <time>2023-12-04T00:01:57.914Z</time>
      </trkpt>
      <trkpt lat="39.573519" lon="16.237981">
        <ele>65.760750</ele>
        <time>2023-12-04T00:02:23.157Z</time>
      </trkpt>
      <trkpt lat="39.572693" lon="16.237583">
        <ele>66.697783</ele>
        <time>2023-12-04T00:02:40.886Z</time>
      </trkpt>
      <trkpt lat="39.572500" lon="16.237435">
        <ele>66.936202</ele>
        <time>2023-12-04T00:02:45.334Z</time>
      </trkpt>
      <trkpt lat="39.572250" lon="16.237093">
        <ele>67.322564</ele>
        <time>2023-12-04T00:02:52.243Z</time>
      </trkpt>
      <trkpt lat="39.572150" lon="16.236877">
        <ele>67.375039</ele>
        <time>2023-12-04T00:02:55.675Z</time>
      </trkpt>
      <trkpt lat="39.571950" lon="16.236532">
        <ele>67.353853</ele>
        <time>2023-12-04T00:03:01.195Z</time>
      </trkpt>
      <trkpt lat="39.571680" lon="16.236265">
        <ele>67.332238</ele>
        <time>2023-12-04T00:03:06.427Z</time>
      </trkpt>
      <trkpt lat="39.571487" lon="16.236125">
        <ele>67.318159</ele>
        <time>2023-12-04T00:03:09.610Z</time>
      </trkpt>
      <trkpt lat="39.571322" lon="16.236054">
        <ele>67.307091</ele>
        <time>2023-12-04T00:03:12.016Z</time>
      </trkpt>
      <trkpt lat="39.571126" lon="16.236060">
        <ele>67.294609</ele>
        <time>2023-12-04T00:03:14.674Z</time>
      </trkpt>
      <trkpt lat="39.570538" lon="16.236218">
        <ele>67.060904</ele>
        <time>2023-12-04T00:03:22.290Z</time>
      </trkpt>
      <trkpt lat="39.568906" lon="16.236333">
        <ele>65.399713</ele>
        <time>2023-12-04T00:03:41.750Z</time>
      </trkpt>
      <trkpt lat="39.568554" lon="16.236323">
        <ele>65.280980</ele>
        <time>2023-12-04T00:03:46.205Z</time>
      </trkpt>
      <trkpt lat="39.564980" lon="16.235513">
        <ele>64.681327</ele>
        <time>2023-12-04T00:04:38.194Z</time>
      </trkpt>
      <trkpt lat="39.562458" lon="16.234908">
        <ele>65.599199</ele>
        <time>2023-12-04T00:05:19.839Z</time>
      </trkpt>
      <trkpt lat="39.560996" lon="16.234155">
        <ele>66.707497</ele>
        <time>2023-12-04T00:05:48.202Z</time>
      </trkpt>
      <trkpt lat="39.557979" lon="16.232602">
        <ele>69.223161</ele>
        <time>2023-12-04T00:06:47.311Z</time>
      </trkpt>
      <trkpt lat="39.554027" lon="16.230614">
        <ele>71.504981</ele>
        <time>2023-12-04T00:07:58.677Z</time>
      </trkpt>
      <trkpt lat="39.552570" lon="16.229836">
        <ele>72.191130</ele>
        <time>2023-12-04T00:08:24.972Z</time>
      </trkpt>
      <trkpt lat="39.551983" lon="16.229522">
        <ele>72.446023</ele>
        <time>2023-12-04T00:08:35.495Z</time>
      </trkpt>
      <trkpt lat="39.545630" lon="16.226312">
        <ele>73.714614</ele>
        <time>2023-12-04T00:10:21.245Z</time>
      </trkpt>
      <trkpt lat="39.544770" lon="16.225828">
        <ele>73.905017</ele>
        <time>2023-12-04T00:10:35.926Z</time>
      </trkpt>
      <trkpt lat="39.542997" lon="16.224908">
        <ele>74.555318</ele>
        <time>2023-12-04T00:11:05.969Z</time>
      </trkpt>
      <trkpt lat="39.542090" lon="16.224436">
        <ele>75.184474</ele>
        <time>2023-12-04T00:11:23.520Z</time>
      </trkpt>
      <trkpt lat="39.541573" lon="16.224164">
        <ele>75.492606</ele>
        <time>2023-12-04T00:11:34.078Z</time>
      </trkpt>
      <trkpt lat="39.540790" lon="16.223764">
        <ele>75.877133</ele>
        <time>2023-12-04T00:11:48.362Z</time>
      </trkpt>
      <trkpt lat="39.540706" lon="16.223729">
        <ele>75.917446</ele>
        <time>2023-12-04T00:11:49.865Z</time>
      </trkpt>
      <trkpt lat="39.540568" lon="16.223720">
        <ele>75.980580</ele>
        <time>2023-12-04T00:11:52.261Z</time>
      </trkpt>
      <trkpt lat="39.540286" lon="16.223792">
        <ele>76.111904</ele>
        <time>2023-12-04T00:11:56.810Z</time>
      </trkpt>
      <trkpt lat="39.540097" lon="16.223756">
        <ele>76.174035</ele>
        <time>2023-12-04T00:11:59.603Z</time>
      </trkpt>
      <trkpt lat="39.539638" lon="16.223441">
        <ele>75.787807</ele>
        <time>2023-12-04T00:12:06.825Z</time>
      </trkpt>
      <trkpt lat="39.539073" lon="16.223111">
        <ele>75.326946</ele>
        <time>2023-12-04T00:12:14.433Z</time>
      </trkpt>
      <trkpt lat="39.538452" lon="16.222880">
        <ele>74.846304</ele>
        <time>2023-12-04T00:12:22.088Z</time>
      </trkpt>
      <trkpt lat="39.538380" lon="16.223318">
        <ele>74.581787</ele>
        <time>2023-12-04T00:12:26.313Z</time>
      </trkpt>
      <trkpt lat="39.538309" lon="16.224293">
        <ele>74.003341</ele>
        <time>2023-12-04T00:12:35.783Z</time>
      </trkpt>
      <trkpt lat="39.538202" lon="16.225367">
        <ele>73.461418</ele>
        <time>2023-12-04T00:12:46.525Z</time>
      </trkpt>
      <trkpt lat="39.537321" lon="16.234098">
        <ele>72.851337</ele>
        <time>2023-12-04T00:14:25.896Z</time>
      </trkpt>
      <trkpt lat="39.537133" lon="16.235923">
        <ele>72.981728</ele>
        <time>2023-12-04T00:14:45.792Z</time>
      </trkpt>
      <trkpt lat="39.536875" lon="16.238481">
        <ele>73.982842</ele>
        <time>2023-12-04T00:15:20.754Z</time>
      </trkpt>
      <trkpt lat="39.536811" lon="16.239310">
        <ele>74.431656</ele>
        <time>2023-12-04T00:15:32.240Z</time>
      </trkpt>
      <trkpt lat="39.536628" lon="16.240932">
        <ele>75.373671</ele>
        <time>2023-12-04T00:15:54.356Z</time>
      </trkpt>
      <trkpt lat="39.536609" lon="16.240998">
        <ele>75.414155</ele>
        <time>2023-12-04T00:15:55.330Z</time>
      </trkpt>
      <trkpt lat="39.536553" lon="16.241191">
        <ele>75.532654</ele>
        <time>2023-12-04T00:15:58.136Z</time>
      </trkpt>
      <trkpt lat="39.535612" lon="16.243688">
        <ele>77.925035</ele>
        <time>2023-12-04T00:16:39.219Z</time>
      </trkpt>
      <trkpt lat="39.535508" lon="16.243969">
        <ele>78.290125</ele>
        <time>2023-12-04T00:16:44.158Z</time>
      </trkpt>
      <trkpt lat="39.535375" lon="16.244244">
        <ele>78.670347</ele>
        <time>2023-12-04T00:16:49.492Z</time>
      </trkpt>
      <trkpt lat="39.535300" lon="16.244346">
        <ele>78.835425</ele>
        <time>2023-12-04T00:16:51.871Z</time>
      </trkpt>
      <trkpt lat="39.534967" lon="16.244627">
        <ele>79.438866</ele>
        <time>2023-12-04T00:17:00.394Z</time>
      </trkpt>
      <trkpt lat="39.534454" lon="16.244933">
        <ele>80.296512</ele>
        <time>2023-12-04T00:17:12.082Z</time>
      </trkpt>
      <trkpt lat="39.534222" lon="16.244976">
        <ele>80.741482</ele>
        <time>2023-12-04T00:17:17.190Z</time>
      </trkpt>
      <trkpt lat="39.533991" lon="16.244940">
        <ele>81.190636</ele>
        <time>2023-12-04T00:17:22.307Z</time>
      </trkpt>
      <trkpt lat="39.533872" lon="16.244922">
        <ele>81.421923</ele>
        <time>2023-12-04T00:17:25.163Z</time>
      </trkpt>
      <trkpt lat="39.532971" lon="16.244782">
        <ele>83.173744</ele>
        <time>2023-12-04T00:17:46.956Z</time>
      </trkpt>
      <trkpt lat="39.532121" lon="16.244619">
        <ele>84.609077</ele>
        <time>2023-12-04T00:18:04.994Z</time>
      </trkpt>
      <trkpt lat="39.532003" lon="16.244575">
        <ele>84.794998</ele>
        <time>2023-12-04T00:18:07.213Z</time>
      </trkpt>
      <trkpt lat="39.531448" lon="16.244058">
        <ele>85.829808</ele>
        <time>2023-12-04T00:18:21.083Z</time>
      </trkpt>
      <trkpt lat="39.531055" lon="16.243828">
        <ele>86.482713</ele>
        <time>2023-12-04T00:18:29.976Z</time>
      </trkpt>
      <trkpt lat="39.530737" lon="16.243748">
        <ele>87.263328</ele>
        <time>2023-12-04T00:18:36.467Z</time>
      </trkpt>
      <trkpt lat="39.528467" lon="16.244185">
        <ele>94.066930</ele>
        <time>2023-12-04T00:19:36.068Z</time>
      </trkpt>
      <trkpt lat="39.528122" lon="16.244297">
        <ele>95.444002</ele>
        <time>2023-12-04T00:19:47.923Z</time>
      </trkpt>
      <trkpt lat="39.527967" lon="16.244405">
        <ele>96.125339</ele>
        <time>2023-12-04T00:19:54.026Z</time>
      </trkpt>
      <trkpt lat="39.526446" lon="16.245695">
        <ele>103.803259</ele>
        <time>2023-12-04T00:20:55.933Z</time>
      </trkpt>
      <trkpt lat="39.525978" lon="16.246057">
        <ele>105.901703</ele>
        <time>2023-12-04T00:21:11.617Z</time>
      </trkpt>
      <trkpt lat="39.525850" lon="16.246092">
        <ele>106.087302</ele>
        <time>2023-12-04T00:21:15.124Z</time>
      </trkpt>
      <trkpt lat="39.525674" lon="16.246119">
        <ele>106.338750</ele>
        <time>2023-12-04T00:21:19.757Z</time>
      </trkpt>
      <trkpt lat="39.525273" lon="16.246073">
        <ele>106.909904</ele>
        <time>2023-12-04T00:21:29.545Z</time>
      </trkpt>
      <trkpt lat="39.521230" lon="16.245413">
        <ele>112.037246</ele>
        <time>2023-12-04T00:22:45.523Z</time>
      </trkpt>
      <trkpt lat="39.519738" lon="16.245195">
        <ele>113.316817</ele>
        <time>2023-12-04T00:23:12.528Z</time>
      </trkpt>
      <trkpt lat="39.519258" lon="16.245129">
        <ele>113.713985</ele>
        <time>2023-12-04T00:23:21.447Z</time>
      </trkpt>
      <trkpt lat="39.517282" lon="16.245352">
        <ele>115.354715</ele>
        <time>2023-12-04T00:23:57.625Z</time>
      </trkpt>
      <trkpt lat="39.515561" lon="16.245555">
        <ele>116.852632</ele>
        <time>2023-12-04T00:24:27.990Z</time>
      </trkpt>
      <trkpt lat="39.515447" lon="16.245628">
        <ele>116.963306</ele>
        <time>2023-12-04T00:24:30.482Z</time>
      </trkpt>
      <trkpt lat="39.515253" lon="16.245869">
        <ele>117.356258</ele>
        <time>2023-12-04T00:24:35.920Z</time>
      </trkpt>
      <trkpt lat="39.514117" lon="16.247661">
        <ele>120.492796</ele>
        <time>2023-12-04T00:25:16.466Z</time>
      </trkpt>
      <trkpt lat="39.512852" lon="16.249670">
        <ele>123.558033</ele>
        <time>2023-12-04T00:25:58.805Z</time>
      </trkpt>
      <trkpt lat="39.512488" lon="16.250171">
        <ele>124.133758</ele>
        <time>2023-12-04T00:26:08.765Z</time>
      </trkpt>
      <trkpt lat="39.512304" lon="16.250314">
        <ele>124.366397</ele>
        <time>2023-12-04T00:26:12.722Z</time>
      </trkpt>
      <trkpt lat="39.512132" lon="16.250367">
        <ele>124.558105</ele>
        <time>2023-12-04T00:26:15.932Z</time>
      </trkpt>
      <trkpt lat="39.511927" lon="16.250362">
        <ele>124.780440</ele>
        <time>2023-12-04T00:26:19.624Z</time>
      </trkpt>
      <trkpt lat="39.511803" lon="16.250359">
        <ele>124.914925</ele>
        <time>2023-12-04T00:26:21.834Z</time>
      </trkpt>
      <trkpt lat="39.510239" lon="16.250154">
        <ele>126.875050</ele>
        <time>2023-12-04T00:26:51.829Z</time>
      </trkpt>
      <trkpt lat="39.509907" lon="16.250150">
        <ele>127.295889</ele>
        <time>2023-12-04T00:26:59.025Z</time>
      </trkpt>
      <trkpt lat="39.509539" lon="16.250249">
        <ele>128.063740</ele>
        <time>2023-12-04T00:27:07.583Z</time>
      </trkpt>
      <trkpt lat="39.507646" lon="16.251003">
        <ele>132.712888</ele>
        <time>2023-12-04T00:27:55.512Z</time>
      </trkpt>
      <trkpt lat="39.507440" lon="16.251109">
        <ele>133.316480</ele>
        <time>2023-12-04T00:28:01.085Z</time>
      </trkpt>
      <trkpt lat="39.507180" lon="16.251291">
        <ele>134.121202</ele>
        <time>2023-12-04T00:28:08.813Z</time>
      </trkpt>
      <trkpt lat="39.506780" lon="16.251628">
        <ele>135.420431</ele>
        <time>2023-12-04T00:28:21.537Z</time>
      </trkpt>
      <trkpt lat="39.506678" lon="16.251788">
        <ele>135.856527</ele>
        <time>2023-12-04T00:28:25.784Z</time>
      </trkpt>
      <trkpt lat="39.506284" lon="16.252775">
        <ele>138.542971</ele>
        <time>2023-12-04T00:28:48.796Z</time>
      </trkpt>
      <trkpt lat="39.506180" lon="16.252968">
        <ele>139.128921</ele>
        <time>2023-12-04T00:28:54.014Z</time>
      </trkpt>
      <trkpt lat="39.505317" lon="16.254159">
        <ele>143.255873</ele>
        <time>2023-12-04T00:29:29.736Z</time>
      </trkpt>
      <trkpt lat="39.505205" lon="16.254358">
        <ele>143.902313</ele>
        <time>2023-12-04T00:29:34.916Z</time>
      </trkpt>
      <trkpt lat="39.505132" lon="16.254560">
        <ele>144.487716</ele>
        <time>2023-12-04T00:29:39.670Z</time>
      </trkpt>
      <trkpt lat="39.505086" lon="16.254772">
        <ele>145.065677</ele>
        <time>2023-12-04T00:29:44.324Z</time>
      </trkpt>
      <trkpt lat="39.505009" lon="16.256423">
        <ele>149.620769</ele>
        <time>2023-12-04T00:30:21.205Z</time>
      </trkpt>
      <trkpt lat="39.504946" lon="16.257769">
        <ele>153.792409</ele>
        <time>2023-12-04T00:30:53.683Z</time>
      </trkpt>
      <trkpt lat="39.504870" lon="16.258260">
        <ele>155.341631</ele>
        <time>2023-12-04T00:31:06.125Z</time>
      </trkpt>
      <trkpt lat="39.504428" lon="16.260364">
        <ele>162.074211</ele>
        <time>2023-12-04T00:31:58.576Z</time>
      </trkpt>
      <trkpt lat="39.504035" lon="16.261749">
        <ele>166.274224</ele>
        <time>2023-12-04T00:32:31.908Z</time>
      </trkpt>
      <trkpt lat="39.503952" lon="16.262137">
        <ele>167.407047</ele>
        <time>2023-12-04T00:32:40.752Z</time>
      </trkpt>
      <trkpt lat="39.503650" lon="16.264267">
        <ele>173.643119</ele>
        <time>2023-12-04T00:33:29.812Z</time>
      </trkpt>
      <trkpt lat="39.503467" lon="16.265595">
        <ele>177.361669</ele>
        <time>2023-12-04T00:34:02.222Z</time>
      </trkpt>
      <trkpt lat="39.503370" lon="16.266240">
        <ele>179.032030</ele>
        <time>2023-12-04T00:34:16.865Z</time>
      </trkpt>
      <trkpt lat="39.503268" lon="16.266694">
        <ele>180.233970</ele>
        <time>2023-12-04T00:34:26.717Z</time>
      </trkpt>
      <trkpt lat="39.503121" lon="16.266984">
        <ele>181.115957</ele>
        <time>2023-12-04T00:34:33.723Z</time>
      </trkpt>
      <trkpt lat="39.502389" lon="16.267861">
        <ele>183.437550</ele>
        <time>2023-12-04T00:34:58.132Z</time>
      </trkpt>
      <trkpt lat="39.502340" lon="16.267961">
        <ele>183.623834</ele>
        <time>2023-12-04T00:35:00.208Z</time>
      </trkpt>
      <trkpt lat="39.502301" lon="16.268116">
        <ele>183.880211</ele>
        <time>2023-12-04T00:35:02.973Z</time>
      </trkpt>
      <trkpt lat="39.502227" lon="16.268766">
        <ele>184.913434</ele>
        <time>2023-12-04T00:35:13.883Z</time>
      </trkpt>
      <trkpt lat="39.502170" lon="16.269263">
        <ele>185.685785</ele>
        <time>2023-12-04T00:35:22.200Z</time>
      </trkpt>
      <trkpt lat="39.502095" lon="16.269854">
        <ele>186.523939</ele>
        <time>2023-12-04T00:35:31.942Z</time>
      </trkpt>
      <trkpt lat="39.502089" lon="16.269905">
        <ele>186.596133</ele>
        <time>2023-12-04T00:35:32.844Z</time>
      </trkpt>
      <trkpt lat="39.501970" lon="16.270971">
        <ele>188.103422</ele>
        <time>2023-12-04T00:35:51.571Z</time>
      </trkpt>
      <trkpt lat="39.501873" lon="16.271122">
        <ele>188.378377</ele>
        <time>2023-12-04T00:35:54.948Z</time>
      </trkpt>
      <trkpt lat="39.501773" lon="16.271210">
        <ele>188.597598</ele>
        <time>2023-12-04T00:35:57.747Z</time>
      </trkpt>
      <trkpt lat="39.501734" lon="16.271215">
        <ele>188.668675</ele>
        <time>2023-12-04T00:35:58.572Z</time>
      </trkpt>
      <trkpt lat="39.501672" lon="16.271273">
        <ele>188.807331</ele>
        <time>2023-12-04T00:36:00.221Z</time>
      </trkpt>
      <trkpt lat="39.501659" lon="16.271411">
        <ele>189.000569</ele>
        <time>2023-12-04T00:36:02.613Z</time>
      </trkpt>
      <trkpt lat="39.501700" lon="16.271479">
        <ele>189.120521</ele>
        <time>2023-12-04T00:36:04.200Z</time>
      </trkpt>
      <trkpt lat="39.501704" lon="16.271650">
        <ele>189.358313</ele>
        <time>2023-12-04T00:36:07.130Z</time>
      </trkpt>
      <trkpt lat="39.501228" lon="16.272681">
        <ele>191.028307</ele>
        <time>2023-12-04T00:36:27.891Z</time>
      </trkpt>
      <trkpt lat="39.501081" lon="16.273032">
        <ele>191.583417</ele>
        <time>2023-12-04T00:36:34.764Z</time>
      </trkpt>
      <trkpt lat="39.500513" lon="16.274276">
        <ele>192.547951</ele>
        <time>2023-12-04T00:36:58.055Z</time>
      </trkpt>
      <trkpt lat="39.500338" lon="16.274669">
        <ele>192.753167</ele>
        <time>2023-12-04T00:37:03.758Z</time>
      </trkpt>
      <trkpt lat="39.499943" lon="16.275535">
        <ele>193.102704</ele>
        <time>2023-12-04T00:37:13.897Z</time>
      </trkpt>
      <trkpt lat="39.499747" lon="16.275990">
        <ele>193.112056</ele>
        <time>2023-12-04T00:37:18.749Z</time>
      </trkpt>
      <trkpt lat="39.499702" lon="16.276162">
        <ele>193.115315</ele>
        <time>2023-12-04T00:37:20.704Z</time>
      </trkpt>
      <trkpt lat="39.499636" lon="16.276212">
        <ele>193.117093</ele>
        <time>2023-12-04T00:37:21.676Z</time>
      </trkpt>
      <trkpt lat="39.499626" lon="16.276279">
        <ele>193.118318</ele>
        <time>2023-12-04T00:37:22.391Z</time>
      </trkpt>
      <trkpt lat="39.499651" lon="16.276338">
        <ele>193.119526</ele>
        <time>2023-12-04T00:37:23.170Z</time>
      </trkpt>
      <trkpt lat="39.499617" lon="16.276426">
        <ele>193.121292</ele>
        <time>2023-12-04T00:37:24.380Z</time>
      </trkpt>
      <trkpt lat="39.499585" lon="16.276652">
        <ele>193.125416</ele>
        <time>2023-12-04T00:37:27.319Z</time>
      </trkpt>
      <trkpt lat="39.499604" lon="16.276829">
        <ele>193.128623</ele>
        <time>2023-12-04T00:37:29.817Z</time>
      </trkpt>
      <trkpt lat="39.499715" lon="16.277394">
        <ele>193.139086</ele>
        <time>2023-12-04T00:37:37.397Z</time>
      </trkpt>
      <trkpt lat="39.499511" lon="16.277529">
        <ele>193.711732</ele>
        <time>2023-12-04T00:37:40.939Z</time>
      </trkpt>
      <trkpt lat="39.498935" lon="16.277692">
        <ele>195.562847</ele>
        <time>2023-12-04T00:37:54.125Z</time>
      </trkpt>
      <trkpt lat="39.498782" lon="16.277711">
        <ele>196.045431</ele>
        <time>2023-12-04T00:37:58.384Z</time>
      </trkpt>
      <trkpt lat="39.498708" lon="16.277704">
        <ele>196.278391</ele>
        <time>2023-12-04T00:38:00.823Z</time>
      </trkpt>
      <trkpt lat="39.498434" lon="16.277586">
        <ele>197.184943</ele>
        <time>2023-12-04T00:38:09.838Z</time>
      </trkpt>
      <trkpt lat="39.498326" lon="16.277514">
        <ele>197.566275</ele>
        <time>2023-12-04T00:38:14.052Z</time>
      </trkpt>
      <trkpt lat="39.498215" lon="16.277393">
        <ele>198.021689</ele>
        <time>2023-12-04T00:38:18.595Z</time>
      </trkpt>
      <trkpt lat="39.497750" lon="16.277619">
        <ele>200.478154</ele>
        <time>2023-12-04T00:38:37.141Z</time>
      </trkpt>
      <trkpt lat="39.497134" lon="16.278103">
        <ele>205.297337</ele>
        <time>2023-12-04T00:39:02.792Z</time>
      </trkpt>
      <trkpt lat="39.496760" lon="16.278411">
        <ele>208.261785</ele>
        <time>2023-12-04T00:39:21.694Z</time>
      </trkpt>
      <trkpt lat="39.496006" lon="16.279082">
        <ele>215.366298</ele>
        <time>2023-12-04T00:40:10.584Z</time>
      </trkpt>
      <trkpt lat="39.495927" lon="16.279407">
        <ele>217.612198</ele>
        <time>2023-12-04T00:40:24.293Z</time>
      </trkpt>
      <trkpt lat="39.495863" lon="16.279877">
        <ele>220.757921</ele>
        <time>2023-12-04T00:40:42.777Z</time>
      </trkpt>
      <trkpt lat="39.495834" lon="16.280209">
        <ele>222.960173</ele>
        <time>2023-12-04T00:40:54.741Z</time>
      </trkpt>
      <trkpt lat="39.495853" lon="16.280608">
        <ele>225.595064</ele>
        <time>2023-12-04T00:41:08.595Z</time>
      </trkpt>
      <trkpt lat="39.495831" lon="16.280924">
        <ele>227.284332</ele>
        <time>2023-12-04T00:41:19.629Z</time>
      </trkpt>
      <trkpt lat="39.495843" lon="16.281010">
        <ele>227.706318</ele>
        <time>2023-12-04T00:41:22.445Z</time>
      </trkpt>
      <trkpt lat="39.495888" lon="16.281045">
        <ele>228.034716</ele>
        <time>2023-12-04T00:41:24.474Z</time>
      </trkpt>
      <trkpt lat="39.495972" lon="16.281032">
        <ele>228.564057</ele>
        <time>2023-12-04T00:41:27.906Z</time>
      </trkpt>
      <trkpt lat="39.496449" lon="16.280614">
        <ele>232.167108</ele>
        <time>2023-12-04T00:41:52.583Z</time>
      </trkpt>
      <trkpt lat="39.496548" lon="16.280576">
        <ele>232.813175</ele>
        <time>2023-12-04T00:41:56.117Z</time>
      </trkpt>
      <trkpt lat="39.496772" lon="16.280557">
        <ele>234.217792</ele>
        <time>2023-12-04T00:42:05.435Z</time>
      </trkpt>
      <trkpt lat="39.496861" lon="16.280506">
        <ele>234.826700</ele>
        <time>2023-12-04T00:42:08.478Z</time>
      </trkpt>
      <trkpt lat="39.496925" lon="16.280400">
        <ele>235.476565</ele>
        <time>2023-12-04T00:42:12.106Z</time>
      </trkpt>
      <trkpt lat="39.496969" lon="16.280206">
        <ele>236.452905</ele>
        <time>2023-12-04T00:42:18.040Z</time>
      </trkpt>
      <trkpt lat="39.497004" lon="16.280138">
        <ele>236.847576</ele>
        <time>2023-12-04T00:42:19.814Z</time>
      </trkpt>
      <trkpt lat="39.497058" lon="16.280113">
        <ele>237.206380</ele>
        <time>2023-12-04T00:42:21.285Z</time>
      </trkpt>
      <trkpt lat="39.497405" lon="16.280193">
        <ele>239.642739</ele>
        <time>2023-12-04T00:42:32.924Z</time>
      </trkpt>
      <trkpt lat="39.497514" lon="16.280253">
        <ele>240.470468</ele>
        <time>2023-12-04T00:42:37.334Z</time>
      </trkpt>
      <trkpt lat="39.497588" lon="16.280419">
        <ele>241.504436</ele>
        <time>2023-12-04T00:42:43.246Z</time>
      </trkpt>
      <trkpt lat="39.497590" lon="16.280978">
        <ele>244.519386</ele>
        <time>2023-12-04T00:43:01.490Z</time>
      </trkpt>
      <trkpt lat="39.497566" lon="16.281138">
        <ele>245.398486</ele>
        <time>2023-12-04T00:43:07.392Z</time>
      </trkpt>
      <trkpt lat="39.497440" lon="16.281381">
        <ele>246.977490</ele>
        <time>2023-12-04T00:43:18.644Z</time>
      </trkpt>
      <trkpt lat="39.497162" lon="16.281703">
        <ele>249.583556</ele>
        <time>2023-12-04T00:43:37.247Z</time>
      </trkpt>
      <trkpt lat="39.496817" lon="16.282361">
        <ele>254.513831</ele>
        <time>2023-12-04T00:44:07.024Z</time>
      </trkpt>
      <trkpt lat="39.496627" lon="16.282639">
        <ele>256.848249</ele>
        <time>2023-12-04T00:44:20.276Z</time>
      </trkpt>
      <trkpt lat="39.496491" lon="16.282983">
        <ele>259.277959</ele>
        <time>2023-12-04T00:44:34.168Z</time>
      </trkpt>
      <trkpt lat="39.496385" lon="16.283143">
        <ele>260.603562</ele>
        <time>2023-12-04T00:44:41.661Z</time>
      </trkpt>
      <trkpt lat="39.495666" lon="16.283782">
        <ele>267.405916</ele>
        <time>2023-12-04T00:45:23.032Z</time>
      </trkpt>
      <trkpt lat="39.495388" lon="16.284091">
        <ele>270.095654</ele>
        <time>2023-12-04T00:45:40.160Z</time>
      </trkpt>
      <trkpt lat="39.495346" lon="16.284213">
        <ele>270.852728</ele>
        <time>2023-12-04T00:45:44.747Z</time>
      </trkpt>
      <trkpt lat="39.495321" lon="16.284465">
        <ele>272.292602</ele>
        <time>2023-12-04T00:45:53.153Z</time>
      </trkpt>
      <trkpt lat="39.495341" lon="16.285030">
        <ele>275.497906</ele>
        <time>2023-12-04T00:46:11.671Z</time>
      </trkpt>
      <trkpt lat="39.495306" lon="16.285174">
        <ele>276.353497</ele>
        <time>2023-12-04T00:46:16.508Z</time>
      </trkpt>
      <trkpt lat="39.495205" lon="16.285346">
        <ele>277.578370</ele>
        <time>2023-12-04T00:46:23.357Z</time>
      </trkpt>
      <trkpt lat="39.494823" lon="16.285697">
        <ele>280.650873</ele>
        <time>2023-12-04T00:46:42.537Z</time>
      </trkpt>
      <trkpt lat="39.494587" lon="16.286001">
        <ele>282.810014</ele>
        <time>2023-12-04T00:46:55.856Z</time>
      </trkpt>
      <trkpt lat="39.494185" lon="16.286339">
        <ele>285.919368</ele>
        <time>2023-12-04T00:47:14.603Z</time>
      </trkpt>
      <trkpt lat="39.494069" lon="16.286473">
        <ele>286.927688</ele>
        <time>2023-12-04T00:47:20.797Z</time>
      </trkpt>
      <trkpt lat="39.493998" lon="16.286627">
        <ele>287.825930</ele>
        <time>2023-12-04T00:47:26.275Z</time>
      </trkpt>
      <trkpt lat="39.493902" lon="16.287227">
        <ele>291.249595</ele>
        <time>2023-12-04T00:47:45.954Z</time>
      </trkpt>
      <trkpt lat="39.493823" lon="16.287485">
        <ele>293.004534</ele>
        <time>2023-12-04T00:47:55.584Z</time>
      </trkpt>
      <trkpt lat="39.493604" lon="16.287974">
        <ele>296.579208</ele>
        <time>2023-12-04T00:48:16.633Z</time>
      </trkpt>
      <trkpt lat="39.493473" lon="16.288204">
        <ele>298.386594</ele>
        <time>2023-12-04T00:48:27.723Z</time>
      </trkpt>
      <trkpt lat="39.493143" lon="16.288622">
        <ele>302.167434</ele>
        <time>2023-12-04T00:48:51.569Z</time>
      </trkpt>
      <trkpt lat="39.492804" lon="16.289169">
        <ele>306.917376</ele>
        <time>2023-12-04T00:49:17.865Z</time>
      </trkpt>
      <trkpt lat="39.492677" lon="16.289366">
        <ele>308.759676</ele>
        <time>2023-12-04T00:49:27.555Z</time>
      </trkpt>
      <trkpt lat="39.492330" lon="16.290161">
        <ele>315.314817</ele>
        <time>2023-12-04T00:50:03.248Z</time>
      </trkpt>
      <trkpt lat="39.492162" lon="16.290490">
        <ele>318.146190</ele>
        <time>2023-12-04T00:50:19.642Z</time>
      </trkpt>
      <trkpt lat="39.492125" lon="16.290608">
        <ele>319.060321</ele>
        <time>2023-12-04T00:50:24.988Z</time>
      </trkpt>
      <trkpt lat="39.492137" lon="16.290774">
        <ele>320.256928</ele>
        <time>2023-12-04T00:50:31.667Z</time>
      </trkpt>
      <trkpt lat="39.492236" lon="16.290931">
        <ele>321.822129</ele>
        <time>2023-12-04T00:50:40.647Z</time>
      </trkpt>
      <trkpt lat="39.492411" lon="16.291113">
        <ele>324.233973</ele>
        <time>2023-12-04T00:50:53.095Z</time>
      </trkpt>
      <trkpt lat="39.492650" lon="16.291445">
        <ele>327.999941</ele>
        <time>2023-12-04T00:51:15.360Z</time>
      </trkpt>
      <trkpt lat="39.492776" lon="16.291665">
        <ele>330.272393</ele>
        <time>2023-12-04T00:51:28.671Z</time>
      </trkpt>
      <trkpt lat="39.492867" lon="16.292010">
        <ele>333.296561</ele>
        <time>2023-12-04T00:51:45.592Z</time>
      </trkpt>
      <trkpt lat="39.492921" lon="16.292112">
        <ele>334.322559</ele>
        <time>2023-12-04T00:51:51.269Z</time>
      </trkpt>
      <trkpt lat="39.492998" lon="16.292170">
        <ele>335.279849</ele>
        <time>2023-12-04T00:51:56.531Z</time>
      </trkpt>
      <trkpt lat="39.493106" lon="16.292182">
        <ele>336.444933</ele>
        <time>2023-12-04T00:52:02.842Z</time>
      </trkpt>
      <trkpt lat="39.493342" lon="16.291978">
        <ele>339.494125</ele>
        <time>2023-12-04T00:52:19.956Z</time>
      </trkpt>
      <trkpt lat="39.493463" lon="16.291953">
        <ele>340.566384</ele>
        <time>2023-12-04T00:52:26.758Z</time>
      </trkpt>
      <trkpt lat="39.493552" lon="16.291972">
        <ele>341.034755</ele>
        <time>2023-12-04T00:52:31.532Z</time>
      </trkpt>
      <trkpt lat="39.493663" lon="16.292058">
        <ele>341.706297</ele>
        <time>2023-12-04T00:52:38.456Z</time>
      </trkpt>
      <trkpt lat="39.493796" lon="16.292096">
        <ele>342.413499</ele>
        <time>2023-12-04T00:52:44.881Z</time>
      </trkpt>
      <trkpt lat="39.494533" lon="16.292010">
        <ele>346.255927</ele>
        <time>2023-12-04T00:53:11.362Z</time>
      </trkpt>
      <trkpt lat="39.494749" lon="16.291968">
        <ele>347.390084</ele>
        <time>2023-12-04T00:53:17.614Z</time>
      </trkpt>
      <trkpt lat="39.494946" lon="16.292003">
        <ele>348.422595</ele>
        <time>2023-12-04T00:53:22.272Z</time>
      </trkpt>
      <trkpt lat="39.495413" lon="16.292108">
        <ele>350.129786</ele>
        <time>2023-12-04T00:53:31.167Z</time>
      </trkpt>
      <trkpt lat="39.495463" lon="16.292145">
        <ele>350.241920</ele>
        <time>2023-12-04T00:53:32.051Z</time>
      </trkpt>
      <trkpt lat="39.495619" lon="16.292451">
        <ele>350.793086</ele>
        <time>2023-12-04T00:53:37.054Z</time>
      </trkpt>
      <trkpt lat="39.495627" lon="16.292624">
        <ele>351.053545</ele>
        <time>2023-12-04T00:53:39.528Z</time>
      </trkpt>
      <trkpt lat="39.495596" lon="16.292667">
        <ele>351.141981</ele>
        <time>2023-12-04T00:53:40.611Z</time>
      </trkpt>
      <trkpt lat="39.495553" lon="16.292680">
        <ele>351.227973</ele>
        <time>2023-12-04T00:53:41.693Z</time>
      </trkpt>
      <trkpt lat="39.495262" lon="16.292470">
        <ele>351.876650</ele>
        <time>2023-12-04T00:53:48.984Z</time>
      </trkpt>
      <trkpt lat="39.495099" lon="16.292393">
        <ele>352.214530</ele>
        <time>2023-12-04T00:53:53.087Z</time>
      </trkpt>
      <trkpt lat="39.494841" lon="16.292361">
        <ele>352.719285</ele>
        <time>2023-12-04T00:53:59.552Z</time>
      </trkpt>
      <trkpt lat="39.494360" lon="16.292431">
        <ele>354.329551</ele>
        <time>2023-12-04T00:54:11.884Z</time>
      </trkpt>
      <trkpt lat="39.494106" lon="16.292499">
        <ele>355.534663</ele>
        <time>2023-12-04T00:54:19.942Z</time>
      </trkpt>
      <trkpt lat="39.493828" lon="16.292626">
        <ele>356.904284</ele>
        <time>2023-12-04T00:54:29.655Z</time>
      </trkpt>
      <trkpt lat="39.493616" lon="16.292773">
        <ele>358.021478</ele>
        <time>2023-12-04T00:54:37.530Z</time>
      </trkpt>
      <trkpt lat="39.493451" lon="16.292945">
        <ele>359.005408</ele>
        <time>2023-12-04T00:54:44.746Z</time>
      </trkpt>
      <trkpt lat="39.493335" lon="16.293028">
        <ele>359.621098</ele>
        <time>2023-12-04T00:54:49.563Z</time>
      </trkpt>
      <trkpt lat="39.493228" lon="16.293169">
        <ele>360.330168</ele>
        <time>2023-12-04T00:54:55.240Z</time>
      </trkpt>
      <trkpt lat="39.493200" lon="16.293348">
        <ele>360.985050</ele>
        <time>2023-12-04T00:55:00.671Z</time>
      </trkpt>
      <trkpt lat="39.493212" lon="16.293555">
        <ele>361.852472</ele>
        <time>2023-12-04T00:55:07.496Z</time>
      </trkpt>
      <trkpt lat="39.493232" lon="16.293721">
        <ele>362.841256</ele>
        <time>2023-12-04T00:55:12.760Z</time>
      </trkpt>
      <trkpt lat="39.493340" lon="16.294175">
        <ele>365.637221</ele>
        <time>2023-12-04T00:55:28.064Z</time>
      </trkpt>
      <trkpt lat="39.493372" lon="16.294743">
        <ele>368.988927</ele>
        <time>2023-12-04T00:55:47.261Z</time>
      </trkpt>
      <trkpt lat="39.493416" lon="16.294861">
        <ele>369.760205</ele>
        <time>2023-12-04T00:55:51.883Z</time>
      </trkpt>
      <trkpt lat="39.493530" lon="16.295027">
        <ele>371.067983</ele>
        <time>2023-12-04T00:55:59.533Z</time>
      </trkpt>
      <trkpt lat="39.493572" lon="16.295145">
        <ele>371.832747</ele>
        <time>2023-12-04T00:56:04.406Z</time>
      </trkpt>
      <trkpt lat="39.493527" lon="16.295446">
        <ele>373.637132</ele>
        <time>2023-12-04T00:56:15.795Z</time>
      </trkpt>
      <trkpt lat="39.493535" lon="16.295749">
        <ele>375.464559</ele>
        <time>2023-12-04T00:56:28.114Z</time>
      </trkpt>
      <trkpt lat="39.493485" lon="16.295851">
        <ele>376.359617</ele>
        <time>2023-12-04T00:56:33.006Z</time>
      </trkpt>
      <trkpt lat="39.493268" lon="16.296062">
        <ele>378.963630</ele>
        <time>2023-12-04T00:56:47.871Z</time>
      </trkpt>
      <trkpt lat="39.493209" lon="16.296091">
        <ele>379.569305</ele>
        <time>2023-12-04T00:56:51.298Z</time>
      </trkpt>
      <trkpt lat="39.493039" lon="16.295979">
        <ele>381.399811</ele>
        <time>2023-12-04T00:57:01.803Z</time>
      </trkpt>
      <trkpt lat="39.492868" lon="16.295998">
        <ele>383.047158</ele>
        <time>2023-12-04T00:57:11.292Z</time>
      </trkpt>
      <trkpt lat="39.492554" lon="16.296368">
        <ele>387.120809</ele>
        <time>2023-12-04T00:57:34.727Z</time>
      </trkpt>
      <trkpt lat="39.492483" lon="16.296956">
        <ele>391.529205</ele>
        <time>2023-12-04T00:57:58.941Z</time>
      </trkpt>
      <trkpt lat="39.492495" lon="16.297371">
        <ele>394.017942</ele>
        <time>2023-12-04T00:58:15.813Z</time>
      </trkpt>
      <trkpt lat="39.492539" lon="16.297454">
        <ele>394.553871</ele>
        <time>2023-12-04T00:58:19.882Z</time>
      </trkpt>
      <trkpt lat="39.492616" lon="16.297492">
        <ele>395.122120</ele>
        <time>2023-12-04T00:58:24.037Z</time>
      </trkpt>
      <trkpt lat="39.492763" lon="16.297480">
        <ele>396.137936</ele>
        <time>2023-12-04T00:58:31.373Z</time>
      </trkpt>
      <trkpt lat="39.492860" lon="16.297511">
        <ele>396.826955</ele>
        <time>2023-12-04T00:58:36.317Z</time>
      </trkpt>
      <trkpt lat="39.492919" lon="16.297585">
        <ele>397.393241</ele>
        <time>2023-12-04T00:58:40.208Z</time>
      </trkpt>
      <trkpt lat="39.492933" lon="16.297690">
        <ele>397.960347</ele>
        <time>2023-12-04T00:58:44.077Z</time>
      </trkpt>
      <trkpt lat="39.492798" lon="16.298343">
        <ele>401.558273</ele>
        <time>2023-12-04T00:59:05.917Z</time>
      </trkpt>
      <trkpt lat="39.492793" lon="16.298640">
        <ele>403.139334</ele>
        <time>2023-12-04T00:59:13.932Z</time>
      </trkpt>
      <trkpt lat="39.492852" lon="16.298800">
        <ele>404.083103</ele>
        <time>2023-12-04T00:59:18.238Z</time>
      </trkpt>
      <trkpt lat="39.492936" lon="16.298886">
        <ele>404.821415</ele>
        <time>2023-12-04T00:59:21.424Z</time>
      </trkpt>
      <trkpt lat="39.493054" lon="16.298915">
        <ele>405.278790</ele>
        <time>2023-12-04T00:59:25.000Z</time>
      </trkpt>
      <trkpt lat="39.493162" lon="16.298896">
        <ele>405.646718</ele>
        <time>2023-12-04T00:59:28.010Z</time>
      </trkpt>
      <trkpt lat="39.493394" lon="16.298742">
        <ele>406.526672</ele>
        <time>2023-12-04T00:59:35.024Z</time>
      </trkpt>
      <trkpt lat="39.493461" lon="16.298736">
        <ele>406.753389</ele>
        <time>2023-12-04T00:59:36.704Z</time>
      </trkpt>
      <trkpt lat="39.493552" lon="16.298784">
        <ele>407.085059</ele>
        <time>2023-12-04T00:59:39.020Z</time>
      </trkpt>
      <trkpt lat="39.493606" lon="16.298841">
        <ele>407.320175</ele>
        <time>2023-12-04T00:59:40.778Z</time>
      </trkpt>
      <trkpt lat="39.493643" lon="16.298956">
        <ele>407.644753</ele>
        <time>2023-12-04T00:59:43.242Z</time>
      </trkpt>
      <trkpt lat="39.493668" lon="16.299231">
        <ele>408.366101</ele>
        <time>2023-12-04T00:59:48.658Z</time>
      </trkpt>
      <trkpt lat="39.493677" lon="16.299448">
        <ele>408.932217</ele>
        <time>2023-12-04T00:59:53.588Z</time>
      </trkpt>
      <trkpt lat="39.493648" lon="16.299601">
        <ele>409.342640</ele>
        <time>2023-12-04T00:59:57.087Z</time>
      </trkpt>
      <trkpt lat="39.493574" lon="16.299662">
        <ele>409.638707</ele>
        <time>2023-12-04T00:59:59.425Z</time>
      </trkpt>
      <trkpt lat="39.493431" lon="16.299684">
        <ele>410.124834</ele>
        <time>2023-12-04T01:00:03.530Z</time>
      </trkpt>
      <trkpt lat="39.493234" lon="16.299659">
        <ele>410.793043</ele>
        <time>2023-12-04T01:00:09.207Z</time>
      </trkpt>
      <trkpt lat="39.492697" lon="16.299263">
        <ele>413.351726</ele>
        <time>2023-12-04T01:00:27.468Z</time>
      </trkpt>
      <trkpt lat="39.492342" lon="16.299004">
        <ele>415.072255</ele>
        <time>2023-12-04T01:00:40.012Z</time>
      </trkpt>
      <trkpt lat="39.491977" lon="16.298790">
        <ele>416.764165</ele>
        <time>2023-12-04T01:00:54.354Z</time>
      </trkpt>
      <trkpt lat="39.491827" lon="16.298793">
        <ele>417.397722</ele>
        <time>2023-12-04T01:01:00.164Z</time>
      </trkpt>
      <trkpt lat="39.491503" lon="16.298882">
        <ele>418.644129</ele>
        <time>2023-12-04T01:01:12.814Z</time>
      </trkpt>
      <trkpt lat="39.491200" lon="16.298904">
        <ele>418.975579</ele>
        <time>2023-12-04T01:01:21.883Z</time>
      </trkpt>
      <trkpt lat="39.491059" lon="16.299038">
        <ele>419.166554</ele>
        <time>2023-12-04T01:01:25.434Z</time>
      </trkpt>
      <trkpt lat="39.490778" lon="16.299712">
        <ele>419.812243</ele>
        <time>2023-12-04T01:01:33.442Z</time>
      </trkpt>
      <trkpt lat="39.490705" lon="16.300220">
        <ele>420.247778</ele>
        <time>2023-12-04T01:01:38.449Z</time>
      </trkpt>
      <trkpt lat="39.490631" lon="16.300647">
        <ele>420.543394</ele>
        <time>2023-12-04T01:01:43.659Z</time>
      </trkpt>
      <trkpt lat="39.490682" lon="16.301082">
        <ele>420.470413</ele>
        <time>2023-12-04T01:01:49.867Z</time>
      </trkpt>
      <trkpt lat="39.490659" lon="16.301126">
        <ele>420.461598</ele>
        <time>2023-12-04T01:01:50.444Z</time>
      </trkpt>
      <trkpt lat="39.490984" lon="16.302022">
        <ele>420.297382</ele>
        <time>2023-12-04T01:02:00.596Z</time>
      </trkpt>
      <trkpt lat="39.491142" lon="16.302413">
        <ele>420.224175</ele>
        <time>2023-12-04T01:02:04.453Z</time>
      </trkpt>
      <trkpt lat="39.491320" lon="16.302771">
        <ele>420.341212</ele>
        <time>2023-12-04T01:02:08.917Z</time>
      </trkpt>
      <trkpt lat="39.491717" lon="16.303394">
        <ele>421.849314</ele>
        <time>2023-12-04T01:02:22.402Z</time>
      </trkpt>
      <trkpt lat="39.491799" lon="16.303516">
        <ele>422.151300</ele>
        <time>2023-12-04T01:02:25.226Z</time>
      </trkpt>
      <trkpt lat="39.492119" lon="16.303978">
        <ele>423.310067</ele>
        <time>2023-12-04T01:02:35.667Z</time>
      </trkpt>
      <trkpt lat="39.492287" lon="16.304138">
        <ele>423.814361</ele>
        <time>2023-12-04T01:02:41.839Z</time>
      </trkpt>
      <trkpt lat="39.492549" lon="16.304315">
        <ele>424.548997</ele>
        <time>2023-12-04T01:02:52.218Z</time>
      </trkpt>
      <trkpt lat="39.493214" lon="16.304986">
        <ele>430.781476</ele>
        <time>2023-12-04T01:03:26.103Z</time>
      </trkpt>
      <trkpt lat="39.493343" lon="16.305058">
        <ele>431.820119</ele>
        <time>2023-12-04T01:03:32.607Z</time>
      </trkpt>
      <trkpt lat="39.493574" lon="16.305043">
        <ele>433.530447</ele>
        <time>2023-12-04T01:03:43.491Z</time>
      </trkpt>
      <trkpt lat="39.493792" lon="16.304913">
        <ele>435.305003</ele>
        <time>2023-12-04T01:03:55.440Z</time>
      </trkpt>
      <trkpt lat="39.493893" lon="16.304786">
        <ele>436.345692</ele>
        <time>2023-12-04T01:04:02.266Z</time>
      </trkpt>
      <trkpt lat="39.493961" lon="16.304625">
        <ele>437.393038</ele>
        <time>2023-12-04T01:04:09.484Z</time>
      </trkpt>
      <trkpt lat="39.494018" lon="16.304353">
        <ele>439.274856</ele>
        <time>2023-12-04T01:04:21.304Z</time>
      </trkpt>
      <trkpt lat="39.494079" lon="16.304197">
        <ele>440.503777</ele>
        <time>2023-12-04T01:04:28.930Z</time>
      </trkpt>
      <trkpt lat="39.494187" lon="16.304008">
        <ele>442.156371</ele>
        <time>2023-12-04T01:04:39.986Z</time>
      </trkpt>
      <trkpt lat="39.494811" lon="16.303109">
        <ele>450.653150</ele>
        <time>2023-12-04T01:05:30.252Z</time>
      </trkpt>
      <trkpt lat="39.495231" lon="16.302961">
        <ele>454.637714</ele>
        <time>2023-12-04T01:05:48.159Z</time>
      </trkpt>
      <trkpt lat="39.495382" lon="16.302998">
        <ele>456.107837</ele>
        <time>2023-12-04T01:05:54.962Z</time>
      </trkpt>
      <trkpt lat="39.495436" lon="16.303049">
        <ele>456.747059</ele>
        <time>2023-12-04T01:05:57.982Z</time>
      </trkpt>
      <trkpt lat="39.495464" lon="16.303141">
        <ele>457.477130</ele>
        <time>2023-12-04T01:06:01.311Z</time>
      </trkpt>
      <trkpt lat="39.495450" lon="16.303232">
        <ele>458.162126</ele>
        <time>2023-12-04T01:06:04.484Z</time>
      </trkpt>
      <trkpt lat="39.495390" lon="16.303342">
        <ele>459.156540</ele>
        <time>2023-12-04T01:06:09.561Z</time>
      </trkpt>
      <trkpt lat="39.495148" lon="16.303538">
        <ele>461.886572</ele>
        <time>2023-12-04T01:06:23.821Z</time>
      </trkpt>
      <trkpt lat="39.494945" lon="16.303749">
        <ele>464.376055</ele>
        <time>2023-12-04T01:06:38.201Z</time>
      </trkpt>
      <trkpt lat="39.494856" lon="16.303960">
        <ele>466.151206</ele>
        <time>2023-12-04T01:06:48.918Z</time>
      </trkpt>
      <trkpt lat="39.494830" lon="16.304338">
        <ele>468.952745</ele>
        <time>2023-12-04T01:07:05.912Z</time>
      </trkpt>
      <trkpt lat="39.494840" lon="16.304613">
        <ele>470.985107</ele>
        <time>2023-12-04T01:07:18.932Z</time>
      </trkpt>
      <trkpt lat="39.494896" lon="16.304788">
        <ele>472.703405</ele>
        <time>2023-12-04T01:07:26.859Z</time>
      </trkpt>
      <trkpt lat="39.495511" lon="16.305529">
        <ele>483.361202</ele>
        <time>2023-12-04T01:08:19.807Z</time>
      </trkpt>
      <trkpt lat="39.495581" lon="16.305706">
        <ele>485.309080</ele>
        <time>2023-12-04T01:08:30.701Z</time>
      </trkpt>
      <trkpt lat="39.495593" lon="16.305825">
        <ele>486.484438</ele>
        <time>2023-12-04T01:08:37.223Z</time>
      </trkpt>
      <trkpt lat="39.495540" lon="16.306368">
        <ele>491.844784</ele>
        <time>2023-12-04T01:09:07.748Z</time>
      </trkpt>
      <trkpt lat="39.495567" lon="16.306751">
        <ele>495.576788</ele>
        <time>2023-12-04T01:09:28.574Z</time>
      </trkpt>
      <trkpt lat="39.495682" lon="16.307136">
        <ele>499.518529</ele>
        <time>2023-12-04T01:09:49.932Z</time>
      </trkpt>
      <trkpt lat="39.496083" lon="16.307749">
        <ele>507.191435</ele>
        <time>2023-12-04T01:10:29.714Z</time>
      </trkpt>
      <trkpt lat="39.496162" lon="16.307919">
        <ele>509.086173</ele>
        <time>2023-12-04T01:10:39.507Z</time>
      </trkpt>
      <trkpt lat="39.496166" lon="16.308055">
        <ele>510.385627</ele>
        <time>2023-12-04T01:10:45.940Z</time>
      </trkpt>
      <trkpt lat="39.496129" lon="16.308153">
        <ele>511.427310</ele>
        <time>2023-12-04T01:10:51.079Z</time>
      </trkpt>
      <trkpt lat="39.495823" lon="16.308577">
        <ele>516.897026</ele>
        <time>2023-12-04T01:11:18.467Z</time>
      </trkpt>
      <trkpt lat="39.495759" lon="16.308716">
        <ele>518.208382</ele>
        <time>2023-12-04T01:11:25.981Z</time>
      </trkpt>
      <trkpt lat="39.495751" lon="16.308891">
        <ele>519.628658</ele>
        <time>2023-12-04T01:11:34.154Z</time>
      </trkpt>
      <trkpt lat="39.495843" lon="16.309879">
        <ele>527.691160</ele>
        <time>2023-12-04T01:12:20.976Z</time>
      </trkpt>
      <trkpt lat="39.495890" lon="16.310080">
        <ele>529.392711</ele>
        <time>2023-12-04T01:12:30.721Z</time>
      </trkpt>
      <trkpt lat="39.495960" lon="16.310255">
        <ele>530.989653</ele>
        <time>2023-12-04T01:12:39.776Z</time>
      </trkpt>
      <trkpt lat="39.496546" lon="16.311412">
        <ele>537.149905</ele>
        <time>2023-12-04T01:13:29.895Z</time>
      </trkpt>
      <trkpt lat="39.496603" lon="16.311649">
        <ele>537.673712</ele>
        <time>2023-12-04T01:13:35.051Z</time>
      </trkpt>
      <trkpt lat="39.496536" lon="16.311929">
        <ele>538.292278</ele>
        <time>2023-12-04T01:13:39.908Z</time>
      </trkpt>
      <trkpt lat="39.496404" lon="16.312289">
        <ele>539.133289</ele>
        <time>2023-12-04T01:13:43.781Z</time>
      </trkpt>
      <trkpt lat="39.496220" lon="16.312601">
        <ele>539.961872</ele>
        <time>2023-12-04T01:13:47.089Z</time>
      </trkpt>
      <trkpt lat="39.496182" lon="16.312724">
        <ele>540.241436</ele>
        <time>2023-12-04T01:13:48.147Z</time>
      </trkpt>
      <trkpt lat="39.496180" lon="16.312868">
        <ele>540.167051</ele>
        <time>2023-12-04T01:13:49.278Z</time>
      </trkpt>
      <trkpt lat="39.496311" lon="16.313715">
        <ele>539.300216</ele>
        <time>2023-12-04T01:13:55.980Z</time>
      </trkpt>
      <trkpt lat="39.496387" lon="16.314157">
        <ele>538.845810</ele>
        <time>2023-12-04T01:13:59.622Z</time>
      </trkpt>
      <trkpt lat="39.496462" lon="16.314831">
        <ele>538.162483</ele>
        <time>2023-12-04T01:14:06.006Z</time>
      </trkpt>
      <trkpt lat="39.496663" lon="16.315413">
        <ele>540.521566</ele>
        <time>2023-12-04T01:14:17.573Z</time>
      </trkpt>
      <trkpt lat="39.496734" lon="16.316421">
        <ele>546.632673</ele>
        <time>2023-12-04T01:14:53.025Z</time>
      </trkpt>
      <trkpt lat="39.496790" lon="16.316712">
        <ele>548.443395</ele>
        <time>2023-12-04T01:15:06.300Z</time>
      </trkpt>
      <trkpt lat="39.496913" lon="16.316997">
        <ele>550.414914</ele>
        <time>2023-12-04T01:15:21.951Z</time>
      </trkpt>
      <trkpt lat="39.497046" lon="16.317216">
        <ele>552.152024</ele>
        <time>2023-12-04T01:15:35.783Z</time>
      </trkpt>
      <trkpt lat="39.497562" lon="16.317872">
        <ele>561.930524</ele>
        <time>2023-12-04T01:16:25.589Z</time>
      </trkpt>
      <trkpt lat="39.497788" lon="16.318309">
        <ele>567.422027</ele>
        <time>2023-12-04T01:16:54.714Z</time>
      </trkpt>
      <trkpt lat="39.497975" lon="16.318556">
        <ele>571.034150</ele>
        <time>2023-12-04T01:17:13.821Z</time>
      </trkpt>
      <trkpt lat="39.498221" lon="16.318767">
        <ele>575.024879</ele>
        <time>2023-12-04T01:17:34.635Z</time>
      </trkpt>
      <trkpt lat="39.498282" lon="16.318852">
        <ele>576.236587</ele>
        <time>2023-12-04T01:17:40.894Z</time>
      </trkpt>
      <trkpt lat="39.498401" lon="16.319238">
        <ele>580.190067</ele>
        <time>2023-12-04T01:18:03.066Z</time>
      </trkpt>
      <trkpt lat="39.498485" lon="16.319405">
        <ele>582.080925</ele>
        <time>2023-12-04T01:18:13.656Z</time>
      </trkpt>
      <trkpt lat="39.498620" lon="16.319467">
        <ele>583.841509</ele>
        <time>2023-12-04T01:18:23.402Z</time>
      </trkpt>
      <trkpt lat="39.499033" lon="16.319495">
        <ele>588.925175</ele>
        <time>2023-12-04T01:18:51.625Z</time>
      </trkpt>
      <trkpt lat="39.499241" lon="16.319554">
        <ele>591.542503</ele>
        <time>2023-12-04T01:19:05.461Z</time>
      </trkpt>
      <trkpt lat="39.499317" lon="16.319634">
        <ele>592.746061</ele>
        <time>2023-12-04T01:19:11.590Z</time>
      </trkpt>
      <trkpt lat="39.499364" lon="16.319786">
        <ele>594.299251</ele>
        <time>2023-12-04T01:19:19.177Z</time>
      </trkpt>
      <trkpt lat="39.499356" lon="16.320028">
        <ele>596.596759</ele>
        <time>2023-12-04T01:19:29.602Z</time>
      </trkpt>
      <trkpt lat="39.499378" lon="16.320200">
        <ele>598.250463</ele>
        <time>2023-12-04T01:19:36.768Z</time>
      </trkpt>
      <trkpt lat="39.499440" lon="16.320359">
        <ele>599.517939</ele>
        <time>2023-12-04T01:19:44.046Z</time>
      </trkpt>
      <trkpt lat="39.499521" lon="16.320493">
        <ele>600.670655</ele>
        <time>2023-12-04T01:19:50.677Z</time>
      </trkpt>
      <trkpt lat="39.499710" lon="16.320671">
        <ele>602.721062</ele>
        <time>2023-12-04T01:20:02.832Z</time>
      </trkpt>
      <trkpt lat="39.499747" lon="16.320758">
        <ele>603.393771</ele>
        <time>2023-12-04T01:20:06.744Z</time>
      </trkpt>
      <trkpt lat="39.499765" lon="16.320915">
        <ele>604.468622</ele>
        <time>2023-12-04T01:20:13.155Z</time>
      </trkpt>
      <trkpt lat="39.499739" lon="16.321088">
        <ele>605.662165</ele>
        <time>2023-12-04T01:20:20.350Z</time>
      </trkpt>
      <trkpt lat="39.499664" lon="16.321209">
        <ele>606.713183</ele>
        <time>2023-12-04T01:20:26.546Z</time>
      </trkpt>
      <trkpt lat="39.499398" lon="16.321332">
        <ele>609.191762</ele>
        <time>2023-12-04T01:20:41.768Z</time>
      </trkpt>
      <trkpt lat="39.499277" lon="16.321422">
        <ele>610.416136</ele>
        <time>2023-12-04T01:20:48.740Z</time>
      </trkpt>
      <trkpt lat="39.499198" lon="16.321630">
        <ele>611.986072</ele>
        <time>2023-12-04T01:20:57.992Z</time>
      </trkpt>
      <trkpt lat="39.499229" lon="16.321787">
        <ele>613.083516</ele>
        <time>2023-12-04T01:21:03.753Z</time>
      </trkpt>
      <trkpt lat="39.499406" lon="16.322075">
        <ele>614.703747</ele>
        <time>2023-12-04T01:21:15.985Z</time>
      </trkpt>
      <trkpt lat="39.499654" lon="16.322893">
        <ele>616.742133</ele>
        <time>2023-12-04T01:21:36.283Z</time>
      </trkpt>
      <trkpt lat="39.499690" lon="16.323104">
        <ele>617.243328</ele>
        <time>2023-12-04T01:21:39.011Z</time>
      </trkpt>
      <trkpt lat="39.499666" lon="16.323246">
        <ele>617.580477</ele>
        <time>2023-12-04T01:21:41.309Z</time>
      </trkpt>
      <trkpt lat="39.499553" lon="16.323452">
        <ele>618.166679</ele>
        <time>2023-12-04T01:21:44.912Z</time>
      </trkpt>
      <trkpt lat="39.499469" lon="16.323529">
        <ele>618.475937</ele>
        <time>2023-12-04T01:21:46.919Z</time>
      </trkpt>
      <trkpt lat="39.499366" lon="16.323552">
        <ele>618.790090</ele>
        <time>2023-12-04T01:21:49.143Z</time>
      </trkpt>
      <trkpt lat="39.499166" lon="16.323467">
        <ele>619.422737</ele>
        <time>2023-12-04T01:21:53.296Z</time>
      </trkpt>
      <trkpt lat="39.499035" lon="16.323475">
        <ele>619.754905</ele>
        <time>2023-12-04T01:21:55.934Z</time>
      </trkpt>
      <trkpt lat="39.498930" lon="16.323526">
        <ele>619.962690</ele>
        <time>2023-12-04T01:21:58.162Z</time>
      </trkpt>
      <trkpt lat="39.498802" lon="16.323660">
        <ele>620.267598</ele>
        <time>2023-12-04T01:22:01.104Z</time>
      </trkpt>
      <trkpt lat="39.498723" lon="16.323820">
        <ele>620.539203</ele>
        <time>2023-12-04T01:22:03.954Z</time>
      </trkpt>
      <trkpt lat="39.498695" lon="16.324002">
        <ele>620.804560</ele>
        <time>2023-12-04T01:22:06.367Z</time>
      </trkpt>
      <trkpt lat="39.498705" lon="16.324131">
        <ele>620.989942</ele>
        <time>2023-12-04T01:22:07.985Z</time>
      </trkpt>
      <trkpt lat="39.498751" lon="16.324252">
        <ele>621.182813</ele>
        <time>2023-12-04T01:22:09.971Z</time>
      </trkpt>
      <trkpt lat="39.498907" lon="16.324520">
        <ele>621.662821</ele>
        <time>2023-12-04T01:22:14.671Z</time>
      </trkpt>
      <trkpt lat="39.499657" lon="16.326027">
        <ele>625.565447</ele>
        <time>2023-12-04T01:22:52.418Z</time>
      </trkpt>
      <trkpt lat="39.499745" lon="16.326336">
        <ele>626.545279</ele>
        <time>2023-12-04T01:23:02.594Z</time>
      </trkpt>
      <trkpt lat="39.500008" lon="16.328979">
        <ele>635.192961</ele>
        <time>2023-12-04T01:24:04.230Z</time>
      </trkpt>
      <trkpt lat="39.500031" lon="16.329211">
        <ele>635.998908</ele>
        <time>2023-12-04T01:24:09.654Z</time>
      </trkpt>
      <trkpt lat="39.500087" lon="16.329476">
        <ele>636.945610</ele>
        <time>2023-12-04T01:24:16.880Z</time>
      </trkpt>
      <trkpt lat="39.500500" lon="16.330535">
        <ele>643.919538</ele>
        <time>2023-12-04T01:24:55.279Z</time>
      </trkpt>
      <trkpt lat="39.500612" lon="16.330888">
        <ele>646.466651</ele>
        <time>2023-12-04T01:25:10.248Z</time>
      </trkpt>
      <trkpt lat="39.500755" lon="16.331780">
        <ele>652.546502</ele>
        <time>2023-12-04T01:25:50.282Z</time>
      </trkpt>
      <trkpt lat="39.500803" lon="16.332143">
        <ele>655.052067</ele>
        <time>2023-12-04T01:26:07.044Z</time>
      </trkpt>
      <trkpt lat="39.500772" lon="16.332460">
        <ele>657.252662</ele>
        <time>2023-12-04T01:26:21.593Z</time>
      </trkpt>
      <trkpt lat="39.500565" lon="16.333329">
        <ele>663.516032</ele>
        <time>2023-12-04T01:26:59.211Z</time>
      </trkpt>
      <trkpt lat="39.500549" lon="16.333744">
        <ele>666.377651</ele>
        <time>2023-12-04T01:27:14.119Z</time>
      </trkpt>
      <trkpt lat="39.500589" lon="16.334190">
        <ele>669.469875</ele>
        <time>2023-12-04T01:27:28.897Z</time>
      </trkpt>
      <trkpt lat="39.500619" lon="16.334436">
        <ele>670.311570</ele>
        <time>2023-12-04T01:27:36.611Z</time>
      </trkpt>
      <trkpt lat="39.500657" lon="16.334795">
        <ele>671.463087</ele>
        <time>2023-12-04T01:27:47.099Z</time>
      </trkpt>
      <trkpt lat="39.500707" lon="16.335036">
        <ele>672.256138</ele>
        <time>2023-12-04T01:27:53.810Z</time>
      </trkpt>
      <trkpt lat="39.500739" lon="16.335190">
        <ele>672.762954</ele>
        <time>2023-12-04T01:27:58.034Z</time>
      </trkpt>
      <trkpt lat="39.500978" lon="16.335869">
        <ele>675.134577</ele>
        <time>2023-12-04T01:28:14.088Z</time>
      </trkpt>
      <trkpt lat="39.501035" lon="16.336191">
        <ele>676.184407</ele>
        <time>2023-12-04T01:28:19.899Z</time>
      </trkpt>
      <trkpt lat="39.501048" lon="16.336951">
        <ele>677.937646</ele>
        <time>2023-12-04T01:28:33.105Z</time>
      </trkpt>
      <trkpt lat="39.501095" lon="16.337121">
        <ele>678.278194</ele>
        <time>2023-12-04T01:28:36.428Z</time>
      </trkpt>
      <trkpt lat="39.501377" lon="16.337450">
        <ele>679.205528</ele>
        <time>2023-12-04T01:28:47.001Z</time>
      </trkpt>
      <trkpt lat="39.501441" lon="16.337584">
        <ele>679.502720</ele>
        <time>2023-12-04T01:28:50.248Z</time>
      </trkpt>
      <trkpt lat="39.501484" lon="16.337850">
        <ele>680.015237</ele>
        <time>2023-12-04T01:28:56.298Z</time>
      </trkpt>
      <trkpt lat="39.501516" lon="16.338546">
        <ele>681.330091</ele>
        <time>2023-12-04T01:29:09.291Z</time>
      </trkpt>
      <trkpt lat="39.501441" lon="16.338824">
        <ele>681.716076</ele>
        <time>2023-12-04T01:29:13.850Z</time>
      </trkpt>
      <trkpt lat="39.501421" lon="16.339050">
        <ele>682.005027</ele>
        <time>2023-12-04T01:29:16.716Z</time>
      </trkpt>
      <trkpt lat="39.501454" lon="16.339243">
        <ele>682.256126</ele>
        <time>2023-12-04T01:29:19.621Z</time>
      </trkpt>
      <trkpt lat="39.501667" lon="16.339745">
        <ele>682.983823</ele>
        <time>2023-12-04T01:29:28.191Z</time>
      </trkpt>
      <trkpt lat="39.501688" lon="16.339922">
        <ele>683.211293</ele>
        <time>2023-12-04T01:29:31.385Z</time>
      </trkpt>
      <trkpt lat="39.501566" lon="16.340480">
        <ele>683.947978</ele>
        <time>2023-12-04T01:29:42.516Z</time>
      </trkpt>
      <trkpt lat="39.501448" lon="16.340806">
        <ele>684.341180</ele>
        <time>2023-12-04T01:29:49.236Z</time>
      </trkpt>
      <trkpt lat="39.501273" lon="16.340979">
        <ele>684.404957</ele>
        <time>2023-12-04T01:29:54.255Z</time>
      </trkpt>
      <trkpt lat="39.500176" lon="16.341448">
        <ele>684.739674</ele>
        <time>2023-12-04T01:30:11.023Z</time>
      </trkpt>
      <trkpt lat="39.499799" lon="16.341739">
        <ele>684.800419</ele>
        <time>2023-12-04T01:30:17.035Z</time>
      </trkpt>
      <trkpt lat="39.499513" lon="16.342101">
        <ele>684.493079</ele>
        <time>2023-12-04T01:30:22.228Z</time>
      </trkpt>
      <trkpt lat="39.499296" lon="16.342406">
        <ele>684.246977</ele>
        <time>2023-12-04T01:30:25.960Z</time>
      </trkpt>
      <trkpt lat="39.499189" lon="16.342672">
        <ele>684.069027</ele>
        <time>2023-12-04T01:30:28.516Z</time>
      </trkpt>
      <trkpt lat="39.499021" lon="16.344218">
        <ele>685.730550</ele>
        <time>2023-12-04T01:30:43.819Z</time>
      </trkpt>
      <trkpt lat="39.499094" lon="16.344545">
        <ele>687.146311</ele>
        <time>2023-12-04T01:30:50.455Z</time>
      </trkpt>
      <trkpt lat="39.499214" lon="16.344822">
        <ele>688.467492</ele>
        <time>2023-12-04T01:30:58.843Z</time>
      </trkpt>
      <trkpt lat="39.499265" lon="16.345008">
        <ele>689.288449</ele>
        <time>2023-12-04T01:31:04.912Z</time>
      </trkpt>
      <trkpt lat="39.499265" lon="16.345178">
        <ele>689.995475</ele>
        <time>2023-12-04T01:31:10.645Z</time>
      </trkpt>
      <trkpt lat="39.499192" lon="16.345538">
        <ele>691.543543</ele>
        <time>2023-12-04T01:31:25.682Z</time>
      </trkpt>
      <trkpt lat="39.499186" lon="16.345698">
        <ele>692.209765</ele>
        <time>2023-12-04T01:31:32.798Z</time>
      </trkpt>
      <trkpt lat="39.499243" lon="16.345917">
        <ele>693.177007</ele>
        <time>2023-12-04T01:31:44.334Z</time>
      </trkpt>
      <trkpt lat="39.499341" lon="16.346107">
        <ele>694.660319</ele>
        <time>2023-12-04T01:31:55.598Z</time>
      </trkpt>
      <trkpt lat="39.499428" lon="16.346382">
        <ele>696.589373</ele>
        <time>2023-12-04T01:32:09.939Z</time>
      </trkpt>
      <trkpt lat="39.499430" lon="16.347023">
        <ele>700.749761</ele>
        <time>2023-12-04T01:32:38.100Z</time>
      </trkpt>
      <trkpt lat="39.499406" lon="16.347149">
        <ele>701.592100</ele>
        <time>2023-12-04T01:32:43.072Z</time>
      </trkpt>
      <trkpt lat="39.499329" lon="16.347282">
        <ele>702.671283</ele>
        <time>2023-12-04T01:32:49.398Z</time>
      </trkpt>
      <trkpt lat="39.499140" lon="16.347394">
        <ele>704.419333</ele>
        <time>2023-12-04T01:32:59.049Z</time>
      </trkpt>
      <trkpt lat="39.498956" lon="16.347502">
        <ele>706.118351</ele>
        <time>2023-12-04T01:33:07.888Z</time>
      </trkpt>
      <trkpt lat="39.498855" lon="16.347531">
        <ele>706.988493</ele>
        <time>2023-12-04T01:33:11.682Z</time>
      </trkpt>
      <trkpt lat="39.498723" lon="16.347492">
        <ele>708.127272</ele>
        <time>2023-12-04T01:33:16.230Z</time>
      </trkpt>
      <trkpt lat="39.498377" lon="16.347251">
        <ele>707.784364</ele>
        <time>2023-12-04T01:33:26.023Z</time>
      </trkpt>
      <trkpt lat="39.498167" lon="16.347139">
        <ele>707.477474</ele>
        <time>2023-12-04T01:33:29.666Z</time>
      </trkpt>
      <trkpt lat="39.498043" lon="16.347109">
        <ele>707.307004</ele>
        <time>2023-12-04T01:33:31.186Z</time>
      </trkpt>
      <trkpt lat="39.497940" lon="16.347120">
        <ele>707.167337</ele>
        <time>2023-12-04T01:33:32.465Z</time>
      </trkpt>
      <trkpt lat="39.497476" lon="16.347459">
        <ele>706.447497</ele>
        <time>2023-12-04T01:33:37.571Z</time>
      </trkpt>
      <trkpt lat="39.497215" lon="16.347695">
        <ele>706.017407</ele>
        <time>2023-12-04T01:33:40.502Z</time>
      </trkpt>
      <trkpt lat="39.497139" lon="16.347855">
        <ele>705.829209</ele>
        <time>2023-12-04T01:33:41.869Z</time>
      </trkpt>
      <trkpt lat="39.497132" lon="16.348071">
        <ele>705.650856</ele>
        <time>2023-12-04T01:33:43.508Z</time>
      </trkpt>
      <trkpt lat="39.497221" lon="16.349209">
        <ele>704.707215</ele>
        <time>2023-12-04T01:33:53.354Z</time>
      </trkpt>
      <trkpt lat="39.497252" lon="16.349398">
        <ele>704.547810</ele>
        <time>2023-12-04T01:33:55.332Z</time>
      </trkpt>
      <trkpt lat="39.497490" lon="16.349845">
        <ele>704.099778</ele>
        <time>2023-12-04T01:34:03.487Z</time>
      </trkpt>
      <trkpt lat="39.497541" lon="16.349998">
        <ele>703.962283</ele>
        <time>2023-12-04T01:34:06.888Z</time>
      </trkpt>
      <trkpt lat="39.497580" lon="16.351551">
        <ele>706.827698</ele>
        <time>2023-12-04T01:34:35.621Z</time>
      </trkpt>
      <trkpt lat="39.497611" lon="16.352843">
        <ele>710.194661</ele>
        <time>2023-12-04T01:35:01.605Z</time>
      </trkpt>
      <trkpt lat="39.498175" lon="16.354375">
        <ele>716.617564</ele>
        <time>2023-12-04T01:35:49.463Z</time>
      </trkpt>
      <trkpt lat="39.498212" lon="16.354731">
        <ele>717.921359</ele>
        <time>2023-12-04T01:36:00.938Z</time>
      </trkpt>
      <trkpt lat="39.498091" lon="16.355557">
        <ele>720.879531</ele>
        <time>2023-12-04T01:36:26.105Z</time>
      </trkpt>
      <trkpt lat="39.497993" lon="16.355968">
        <ele>722.393095</ele>
        <time>2023-12-04T01:36:37.196Z</time>
      </trkpt>
      <trkpt lat="39.497602" lon="16.356934">
        <ele>725.646420</ele>
        <time>2023-12-04T01:37:00.600Z</time>
      </trkpt>
      <trkpt lat="39.497454" lon="16.357322">
        <ele>726.113437</ele>
        <time>2023-12-04T01:37:07.498Z</time>
      </trkpt>
      <trkpt lat="39.497364" lon="16.357813">
        <ele>726.657979</ele>
        <time>2023-12-04T01:37:13.760Z</time>
      </trkpt>
      <trkpt lat="39.497297" lon="16.358373">
        <ele>727.269452</ele>
        <time>2023-12-04T01:37:20.611Z</time>
      </trkpt>
      <trkpt lat="39.497243" lon="16.359272">
        <ele>728.699893</ele>
        <time>2023-12-04T01:37:34.230Z</time>
      </trkpt>
      <trkpt lat="39.497257" lon="16.359719">
        <ele>729.832935</ele>
        <time>2023-12-04T01:37:44.253Z</time>
      </trkpt>
      <trkpt lat="39.497413" lon="16.360605">
        <ele>732.134564</ele>
        <time>2023-12-04T01:38:07.229Z</time>
      </trkpt>
      <trkpt lat="39.497485" lon="16.361036">
        <ele>733.251435</ele>
        <time>2023-12-04T01:38:17.505Z</time>
      </trkpt>
      <trkpt lat="39.497521" lon="16.361451">
        <ele>733.855595</ele>
        <time>2023-12-04T01:38:26.453Z</time>
      </trkpt>
      <trkpt lat="39.497487" lon="16.361826">
        <ele>733.949400</ele>
        <time>2023-12-04T01:38:34.110Z</time>
      </trkpt>
      <trkpt lat="39.497353" lon="16.362213">
        <ele>734.054780</ele>
        <time>2023-12-04T01:38:41.172Z</time>
      </trkpt>
      <trkpt lat="39.496494" lon="16.363336">
        <ele>733.713338</ele>
        <time>2023-12-04T01:38:55.814Z</time>
      </trkpt>
      <trkpt lat="39.496384" lon="16.363539">
        <ele>733.048287</ele>
        <time>2023-12-04T01:38:57.706Z</time>
      </trkpt>
      <trkpt lat="39.496325" lon="16.363754">
        <ele>732.436484</ele>
        <time>2023-12-04T01:38:59.413Z</time>
      </trkpt>
      <trkpt lat="39.496311" lon="16.363972">
        <ele>731.849982</ele>
        <time>2023-12-04T01:39:01.037Z</time>
      </trkpt>
      <trkpt lat="39.496317" lon="16.364198">
        <ele>731.243692</ele>
        <time>2023-12-04T01:39:02.760Z</time>
      </trkpt>
      <trkpt lat="39.496387" lon="16.364358">
        <ele>730.750566</ele>
        <time>2023-12-04T01:39:04.095Z</time>
      </trkpt>
      <trkpt lat="39.496470" lon="16.364449">
        <ele>730.372824</ele>
        <time>2023-12-04T01:39:05.122Z</time>
      </trkpt>
      <trkpt lat="39.496791" lon="16.364689">
        <ele>729.085216</ele>
        <time>2023-12-04T01:39:08.602Z</time>
      </trkpt>
      <trkpt lat="39.496901" lon="16.364827">
        <ele>728.553275</ele>
        <time>2023-12-04T01:39:10.080Z</time>
      </trkpt>
      <trkpt lat="39.497260" lon="16.365475">
        <ele>728.209896</ele>
        <time>2023-12-04T01:39:16.599Z</time>
      </trkpt>
      <trkpt lat="39.497270" lon="16.365550">
        <ele>728.218648</ele>
        <time>2023-12-04T01:39:17.742Z</time>
      </trkpt>
      <trkpt lat="39.497224" lon="16.365762">
        <ele>728.243971</ele>
        <time>2023-12-04T01:39:20.611Z</time>
      </trkpt>
      <trkpt lat="39.497103" lon="16.366020">
        <ele>728.278689</ele>
        <time>2023-12-04T01:39:26.064Z</time>
      </trkpt>
      <trkpt lat="39.497052" lon="16.366282">
        <ele>728.309761</ele>
        <time>2023-12-04T01:39:31.274Z</time>
      </trkpt>
      <trkpt lat="39.497058" lon="16.366606">
        <ele>728.347029</ele>
        <time>2023-12-04T01:39:37.490Z</time>
      </trkpt>
      <trkpt lat="39.497109" lon="16.366828">
        <ele>728.373664</ele>
        <time>2023-12-04T01:39:41.559Z</time>
      </trkpt>
      <trkpt lat="39.497291" lon="16.367054">
        <ele>728.364028</ele>
        <time>2023-12-04T01:39:46.330Z</time>
      </trkpt>
      <trkpt lat="39.497611" lon="16.367366">
        <ele>728.028934</ele>
        <time>2023-12-04T01:39:52.755Z</time>
      </trkpt>
      <trkpt lat="39.497690" lon="16.367490">
        <ele>727.925103</ele>
        <time>2023-12-04T01:39:54.670Z</time>
      </trkpt>
      <trkpt lat="39.497675" lon="16.367731">
        <ele>727.768982</ele>
        <time>2023-12-04T01:39:57.354Z</time>
      </trkpt>
      <trkpt lat="39.497622" lon="16.367829">
        <ele>727.691709</ele>
        <time>2023-12-04T01:39:58.912Z</time>
      </trkpt>
      <trkpt lat="39.497524" lon="16.367894">
        <ele>727.599587</ele>
        <time>2023-12-04T01:40:00.831Z</time>
      </trkpt>
      <trkpt lat="39.496575" lon="16.368112">
        <ele>726.240776</ele>
        <time>2023-12-04T01:40:11.714Z</time>
      </trkpt>
      <trkpt lat="39.496415" lon="16.368207">
        <ele>725.325524</ele>
        <time>2023-12-04T01:40:13.380Z</time>
      </trkpt>
      <trkpt lat="39.496095" lon="16.368745">
        <ele>722.599595</ele>
        <time>2023-12-04T01:40:18.133Z</time>
      </trkpt>
      <trkpt lat="39.495875" lon="16.369170">
        <ele>720.545859</ele>
        <time>2023-12-04T01:40:21.711Z</time>
      </trkpt>
      <trkpt lat="39.495670" lon="16.369673">
        <ele>718.263064</ele>
        <time>2023-12-04T01:40:25.775Z</time>
      </trkpt>
      <trkpt lat="39.495539" lon="16.370141">
        <ele>716.418053</ele>
        <time>2023-12-04T01:40:29.427Z</time>
      </trkpt>
      <trkpt lat="39.495425" lon="16.370708">
        <ele>714.347447</ele>
        <time>2023-12-04T01:40:33.746Z</time>
      </trkpt>
      <trkpt lat="39.495382" lon="16.371168">
        <ele>712.709976</ele>
        <time>2023-12-04T01:40:37.146Z</time>
      </trkpt>
      <trkpt lat="39.495354" lon="16.371894">
        <ele>710.141170</ele>
        <time>2023-12-04T01:40:42.497Z</time>
      </trkpt>
      <trkpt lat="39.495275" lon="16.372278">
        <ele>709.145131</ele>
        <time>2023-12-04T01:40:45.494Z</time>
      </trkpt>
      <trkpt lat="39.494930" lon="16.372824">
        <ele>708.432999</ele>
        <time>2023-12-04T01:40:50.995Z</time>
      </trkpt>
      <trkpt lat="39.494871" lon="16.373027">
        <ele>708.214096</ele>
        <time>2023-12-04T01:40:52.770Z</time>
      </trkpt>
      <trkpt lat="39.494857" lon="16.373206">
        <ele>708.032535</ele>
        <time>2023-12-04T01:40:54.323Z</time>
      </trkpt>
      <trkpt lat="39.494891" lon="16.373388">
        <ele>707.843567</ele>
        <time>2023-12-04T01:40:56.072Z</time>
      </trkpt>
      <trkpt lat="39.494893" lon="16.373500">
        <ele>707.730513</ele>
        <time>2023-12-04T01:40:57.177Z</time>
      </trkpt>
      <trkpt lat="39.494868" lon="16.373610">
        <ele>707.614794</ele>
        <time>2023-12-04T01:40:58.405Z</time>
      </trkpt>
      <trkpt lat="39.494391" lon="16.374803">
        <ele>706.984090</ele>
        <time>2023-12-04T01:41:21.544Z</time>
      </trkpt>
      <trkpt lat="39.494096" lon="16.375709">
        <ele>707.023708</ele>
        <time>2023-12-04T01:41:35.765Z</time>
      </trkpt>
      <trkpt lat="39.493978" lon="16.375869">
        <ele>707.032625</ele>
        <time>2023-12-04T01:41:37.773Z</time>
      </trkpt>
      <trkpt lat="39.493796" lon="16.376051">
        <ele>707.044627</ele>
        <time>2023-12-04T01:41:40.311Z</time>
      </trkpt>
      <trkpt lat="39.493602" lon="16.376189">
        <ele>706.436303</ele>
        <time>2023-12-04T01:41:42.568Z</time>
      </trkpt>
      <trkpt lat="39.493220" lon="16.376295">
        <ele>704.359169</ele>
        <time>2023-12-04T01:41:46.392Z</time>
      </trkpt>
      <trkpt lat="39.492968" lon="16.376408">
        <ele>702.941334</ele>
        <time>2023-12-04T01:41:48.884Z</time>
      </trkpt>
      <trkpt lat="39.492661" lon="16.376771">
        <ele>700.731609</ele>
        <time>2023-12-04T01:41:52.669Z</time>
      </trkpt>
      <trkpt lat="39.492287" lon="16.377032">
        <ele>698.473019</ele>
        <time>2023-12-04T01:41:56.452Z</time>
      </trkpt>
      <trkpt lat="39.492020" lon="16.377362">
        <ele>696.636141</ele>
        <time>2023-12-04T01:41:59.768Z</time>
      </trkpt>
      <trkpt lat="39.491953" lon="16.377585">
        <ele>695.779997</ele>
        <time>2023-12-04T01:42:01.462Z</time>
      </trkpt>
      <trkpt lat="39.491937" lon="16.377696">
        <ele>695.376012</ele>
        <time>2023-12-04T01:42:02.281Z</time>
      </trkpt>
      <trkpt lat="39.491969" lon="16.377876">
        <ele>694.715171</ele>
        <time>2023-12-04T01:42:03.652Z</time>
      </trkpt>
      <trkpt lat="39.492231" lon="16.378485">
        <ele>692.220706</ele>
        <time>2023-12-04T01:42:08.861Z</time>
      </trkpt>
      <trkpt lat="39.492300" lon="16.378644">
        <ele>691.568092</ele>
        <time>2023-12-04T01:42:10.259Z</time>
      </trkpt>
      <trkpt lat="39.492382" lon="16.378793">
        <ele>690.913363</ele>
        <time>2023-12-04T01:42:11.671Z</time>
      </trkpt>
      <trkpt lat="39.492577" lon="16.379044">
        <ele>689.639156</ele>
        <time>2023-12-04T01:42:14.471Z</time>
      </trkpt>
      <trkpt lat="39.492879" lon="16.379293">
        <ele>687.843497</ele>
        <time>2023-12-04T01:42:18.135Z</time>
      </trkpt>
      <trkpt lat="39.492908" lon="16.379356">
        <ele>687.550465</ele>
        <time>2023-12-04T01:42:18.693Z</time>
      </trkpt>
      <trkpt lat="39.492912" lon="16.379471">
        <ele>687.090619</ele>
        <time>2023-12-04T01:42:19.539Z</time>
      </trkpt>
      <trkpt lat="39.492585" lon="16.379519">
        <ele>685.387125</ele>
        <time>2023-12-04T01:42:22.699Z</time>
      </trkpt>
      <trkpt lat="39.492202" lon="16.379459">
        <ele>683.390146</ele>
        <time>2023-12-04T01:42:26.303Z</time>
      </trkpt>
      <trkpt lat="39.491731" lon="16.379233">
        <ele>680.790302</ele>
        <time>2023-12-04T01:42:30.890Z</time>
      </trkpt>
      <trkpt lat="39.491672" lon="16.379133">
        <ele>680.287463</ele>
        <time>2023-12-04T01:42:31.758Z</time>
      </trkpt>
      <trkpt lat="39.490664" lon="16.378069">
        <ele>672.471772</ele>
        <time>2023-12-04T01:42:43.466Z</time>
      </trkpt>
      <trkpt lat="39.490517" lon="16.377965">
        <ele>671.454925</ele>
        <time>2023-12-04T01:42:44.995Z</time>
      </trkpt>
      <trkpt lat="39.490339" lon="16.378019">
        <ele>670.345005</ele>
        <time>2023-12-04T01:42:46.692Z</time>
      </trkpt>
      <trkpt lat="39.490277" lon="16.378099">
        <ele>669.813784</ele>
        <time>2023-12-04T01:42:47.505Z</time>
      </trkpt>
      <trkpt lat="39.490186" lon="16.378292">
        <ele>668.920866</ele>
        <time>2023-12-04T01:42:49.160Z</time>
      </trkpt>
      <trkpt lat="39.490020" lon="16.379108">
        <ele>668.995517</ele>
        <time>2023-12-04T01:42:55.782Z</time>
      </trkpt>
      <trkpt lat="39.489938" lon="16.379483">
        <ele>669.029996</ele>
        <time>2023-12-04T01:42:59.364Z</time>
      </trkpt>
      <trkpt lat="39.489797" lon="16.379896">
        <ele>669.069946</ele>
        <time>2023-12-04T01:43:06.942Z</time>
      </trkpt>
      <trkpt lat="39.489669" lon="16.380047">
        <ele>669.089788</ele>
        <time>2023-12-04T01:43:12.748Z</time>
      </trkpt>
      <trkpt lat="39.489455" lon="16.380234">
        <ele>669.119374</ele>
        <time>2023-12-04T01:43:21.970Z</time>
      </trkpt>
      <trkpt lat="39.489031" lon="16.380614">
        <ele>672.546888</ele>
        <time>2023-12-04T01:43:40.722Z</time>
      </trkpt>
      <trkpt lat="39.488963" lon="16.380551">
        <ele>673.148475</ele>
        <time>2023-12-04T01:43:44.104Z</time>
      </trkpt>
      <trkpt lat="39.488935" lon="16.380556">
        <ele>673.351883</ele>
        <time>2023-12-04T01:43:45.342Z</time>
      </trkpt>
      <trkpt lat="39.488847" lon="16.380625">
        <ele>674.092100</ele>
        <time>2023-12-04T01:43:50.177Z</time>
      </trkpt>
      <trkpt lat="39.488836" lon="16.380678">
        <ele>674.396917</ele>
        <time>2023-12-04T01:43:52.235Z</time>
      </trkpt>
      <trkpt lat="39.488836" lon="16.380734">
        <ele>674.707937</ele>
        <time>2023-12-04T01:43:54.076Z</time>
      </trkpt>
      <trkpt lat="39.488805" lon="16.381010">
        <ele>676.256970</ele>
        <time>2023-12-04T01:44:04.690Z</time>
      </trkpt>
      <trkpt lat="39.488752" lon="16.381325">
        <ele>678.047554</ele>
        <time>2023-12-04T01:44:16.531Z</time>
      </trkpt>
      <trkpt lat="39.488755" lon="16.381486">
        <ele>678.941998</ele>
        <time>2023-12-04T01:44:22.910Z</time>
      </trkpt>
      <trkpt lat="39.488791" lon="16.381596">
        <ele>679.605593</ele>
        <time>2023-12-04T01:44:27.759Z</time>
      </trkpt>
      <trkpt lat="39.488868" lon="16.381705">
        <ele>680.426292</ele>
        <time>2023-12-04T01:44:32.666Z</time>
      </trkpt>
      <trkpt lat="39.489110" lon="16.381991">
        <ele>682.595713</ele>
        <time>2023-12-04T01:44:48.437Z</time>
      </trkpt>
      <trkpt lat="39.489092" lon="16.382373">
        <ele>684.163557</ele>
        <time>2023-12-04T01:45:02.813Z</time>
      </trkpt>
      <trkpt lat="39.489092" lon="16.382373">
        <ele>684.163557</ele>
        <time>2023-12-04T01:45:02.813Z</time>
      </trkpt>
      <trkpt lat="39.489140" lon="16.382628">
        <ele>685.238833</ele>
        <time>2023-12-04T01:45:11.236Z</time>
      </trkpt>
      <trkpt lat="39.489145" lon="16.382789">
        <ele>685.898931</ele>
        <time>2023-12-04T01:45:16.887Z</time>
      </trkpt>
      <trkpt lat="39.489236" lon="16.382932">
        <ele>686.658229</ele>
        <time>2023-12-04T01:45:21.358Z</time>
      </trkpt>
      <trkpt lat="39.489322" lon="16.383067">
        <ele>687.375355</ele>
        <time>2023-12-04T01:45:26.739Z</time>
      </trkpt>
      <trkpt lat="39.489460" lon="16.383284">
        <ele>688.527268</ele>
        <time>2023-12-04T01:45:32.486Z</time>
      </trkpt>
      <trkpt lat="39.489602" lon="16.383468">
        <ele>689.593277</ele>
        <time>2023-12-04T01:45:38.373Z</time>
      </trkpt>
      <trkpt lat="39.489934" lon="16.383843">
        <ele>691.796103</ele>
        <time>2023-12-04T01:45:50.081Z</time>
      </trkpt>
      <trkpt lat="39.490183" lon="16.384092">
        <ele>692.750632</ele>
        <time>2023-12-04T01:45:58.427Z</time>
      </trkpt>
      <trkpt lat="39.490274" lon="16.384208">
        <ele>693.138031</ele>
        <time>2023-12-04T01:46:01.025Z</time>
      </trkpt>
      <trkpt lat="39.490308" lon="16.384295">
        <ele>693.366426</ele>
        <time>2023-12-04T01:46:02.958Z</time>
      </trkpt>
      <trkpt lat="39.490356" lon="16.384419">
        <ele>693.691328</ele>
        <time>2023-12-04T01:46:06.044Z</time>
      </trkpt>
      <trkpt lat="39.490536" lon="16.384724">
        <ele>694.590587</ele>
        <time>2023-12-04T01:46:12.382Z</time>
      </trkpt>
      <trkpt lat="39.490586" lon="16.384869">
        <ele>694.962543</ele>
        <time>2023-12-04T01:46:14.887Z</time>
      </trkpt>
      <trkpt lat="39.490626" lon="16.385113">
        <ele>695.546754</ele>
        <time>2023-12-04T01:46:18.217Z</time>
      </trkpt>
      <trkpt lat="39.490563" lon="16.385424">
        <ele>696.299807</ele>
        <time>2023-12-04T01:46:23.781Z</time>
      </trkpt>
      <trkpt lat="39.490398" lon="16.385796">
        <ele>697.711484</ele>
        <time>2023-12-04T01:46:35.155Z</time>
      </trkpt>
      <trkpt lat="39.490297" lon="16.386035">
        <ele>699.476336</ele>
        <time>2023-12-04T01:46:45.275Z</time>
      </trkpt>
      <trkpt lat="39.490290" lon="16.386158">
        <ele>700.275150</ele>
        <time>2023-12-04T01:46:49.358Z</time>
      </trkpt>
      <trkpt lat="39.490411" lon="16.386614">
        <ele>703.398294</ele>
        <time>2023-12-04T01:47:08.125Z</time>
      </trkpt>
      <trkpt lat="39.490397" lon="16.386720">
        <ele>704.094819</ele>
        <time>2023-12-04T01:47:12.573Z</time>
      </trkpt>
      <trkpt lat="39.490223" lon="16.387021">
        <ele>706.530628</ele>
        <time>2023-12-04T01:47:28.802Z</time>
      </trkpt>
      <trkpt lat="39.489841" lon="16.387522">
        <ele>711.092172</ele>
        <time>2023-12-04T01:47:58.695Z</time>
      </trkpt>
      <trkpt lat="39.489776" lon="16.387643">
        <ele>712.047044</ele>
        <time>2023-12-04T01:48:03.857Z</time>
      </trkpt>
      <trkpt lat="39.489745" lon="16.387820">
        <ele>713.271125</ele>
        <time>2023-12-04T01:48:10.127Z</time>
      </trkpt>
      <trkpt lat="39.489809" lon="16.388351">
        <ele>716.912430</ele>
        <time>2023-12-04T01:48:30.602Z</time>
      </trkpt>
      <trkpt lat="39.489876" lon="16.388610">
        <ele>718.763197</ele>
        <time>2023-12-04T01:48:42.096Z</time>
      </trkpt>
      <trkpt lat="39.489917" lon="16.389296">
        <ele>723.424975</ele>
        <time>2023-12-04T01:49:13.229Z</time>
      </trkpt>
      <trkpt lat="39.489816" lon="16.389923">
        <ele>727.764650</ele>
        <time>2023-12-04T01:49:34.917Z</time>
      </trkpt>
      <trkpt lat="39.489751" lon="16.390048">
        <ele>728.451833</ele>
        <time>2023-12-04T01:49:38.934Z</time>
      </trkpt>
      <trkpt lat="39.489688" lon="16.390078">
        <ele>728.802639</ele>
        <time>2023-12-04T01:49:41.777Z</time>
      </trkpt>
      <trkpt lat="39.489639" lon="16.389987">
        <ele>729.250209</ele>
        <time>2023-12-04T01:49:45.649Z</time>
      </trkpt>
      <trkpt lat="39.489725" lon="16.389596">
        <ele>730.890139</ele>
        <time>2023-12-04T01:49:56.404Z</time>
      </trkpt>
      <trkpt lat="39.489754" lon="16.389320">
        <ele>732.013675</ele>
        <time>2023-12-04T01:50:03.762Z</time>
      </trkpt>
      <trkpt lat="39.489726" lon="16.389138">
        <ele>732.762229</ele>
        <time>2023-12-04T01:50:09.405Z</time>
      </trkpt>
      <trkpt lat="39.489636" lon="16.388892">
        <ele>733.860341</ele>
        <time>2023-12-04T01:50:16.902Z</time>
      </trkpt>
      <trkpt lat="39.489512" lon="16.388384">
        <ele>736.009450</ele>
        <time>2023-12-04T01:50:28.601Z</time>
      </trkpt>
      <trkpt lat="39.489347" lon="16.387936">
        <ele>737.804463</ele>
        <time>2023-12-04T01:50:41.491Z</time>
      </trkpt>
      <trkpt lat="39.489227" lon="16.387741">
        <ele>738.489941</ele>
        <time>2023-12-04T01:50:47.728Z</time>
      </trkpt>
      <trkpt lat="39.488931" lon="16.387380">
        <ele>739.937597</ele>
        <time>2023-12-04T01:51:02.482Z</time>
      </trkpt>
      <trkpt lat="39.488918" lon="16.387298">
        <ele>740.167677</ele>
        <time>2023-12-04T01:51:04.911Z</time>
      </trkpt>
      <trkpt lat="39.489064" lon="16.386978">
        <ele>741.189388</ele>
        <time>2023-12-04T01:51:13.159Z</time>
      </trkpt>
      <trkpt lat="39.489075" lon="16.386892">
        <ele>741.428981</ele>
        <time>2023-12-04T01:51:15.252Z</time>
      </trkpt>
      <trkpt lat="39.489047" lon="16.386809">
        <ele>741.677946</ele>
        <time>2023-12-04T01:51:17.086Z</time>
      </trkpt>
      <trkpt lat="39.488925" lon="16.386715">
        <ele>742.183441</ele>
        <time>2023-12-04T01:51:20.388Z</time>
      </trkpt>
      <trkpt lat="39.488705" lon="16.386650">
        <ele>742.987049</ele>
        <time>2023-12-04T01:51:25.575Z</time>
      </trkpt>
      <trkpt lat="39.488120" lon="16.386645">
        <ele>745.481544</ele>
        <time>2023-12-04T01:51:38.560Z</time>
      </trkpt>
      <trkpt lat="39.488036" lon="16.386587">
        <ele>745.927401</ele>
        <time>2023-12-04T01:51:40.657Z</time>
      </trkpt>
      <trkpt lat="39.487996" lon="16.386559">
        <ele>746.140365</ele>
        <time>2023-12-04T01:51:41.526Z</time>
      </trkpt>
      <trkpt lat="39.487933" lon="16.386395">
        <ele>746.802630</ele>
        <time>2023-12-04T01:51:45.026Z</time>
      </trkpt>
      <trkpt lat="39.487931" lon="16.386275">
        <ele>747.236545</ele>
        <time>2023-12-04T01:51:47.243Z</time>
      </trkpt>
      <trkpt lat="39.488013" lon="16.385915">
        <ele>748.593486</ele>
        <time>2023-12-04T01:51:58.223Z</time>
      </trkpt>
      <trkpt lat="39.487945" lon="16.385707">
        <ele>749.410113</ele>
        <time>2023-12-04T01:52:05.069Z</time>
      </trkpt>
      <trkpt lat="39.487832" lon="16.385490">
        <ele>750.356470</ele>
        <time>2023-12-04T01:52:14.070Z</time>
      </trkpt>
      <trkpt lat="39.487712" lon="16.385344">
        <ele>751.127540</ele>
        <time>2023-12-04T01:52:21.355Z</time>
      </trkpt>
      <trkpt lat="39.487662" lon="16.385316">
        <ele>751.382691</ele>
        <time>2023-12-04T01:52:23.540Z</time>
      </trkpt>
      <trkpt lat="39.487595" lon="16.385344">
        <ele>751.712456</ele>
        <time>2023-12-04T01:52:26.783Z</time>
      </trkpt>
      <trkpt lat="39.487568" lon="16.385386">
        <ele>751.910067</ele>
        <time>2023-12-04T01:52:28.956Z</time>
      </trkpt>
      <trkpt lat="39.487591" lon="16.385487">
        <ele>752.360833</ele>
        <time>2023-12-04T01:52:32.601Z</time>
      </trkpt>
      <trkpt lat="39.487707" lon="16.385634">
        <ele>753.660752</ele>
        <time>2023-12-04T01:52:39.127Z</time>
      </trkpt>
      <trkpt lat="39.487766" lon="16.385838">
        <ele>755.007749</ele>
        <time>2023-12-04T01:52:45.646Z</time>
      </trkpt>
      <trkpt lat="39.487766" lon="16.385948">
        <ele>755.687882</ele>
        <time>2023-12-04T01:52:48.880Z</time>
      </trkpt>
      <trkpt lat="39.487716" lon="16.386125">
        <ele>756.853285</ele>
        <time>2023-12-04T01:52:54.644Z</time>
      </trkpt>
      <trkpt lat="39.487580" lon="16.386359">
        <ele>758.664497</ele>
        <time>2023-12-04T01:53:04.545Z</time>
      </trkpt>
      <trkpt lat="39.487549" lon="16.386405">
        <ele>759.042091</ele>
        <time>2023-12-04T01:53:06.599Z</time>
      </trkpt>
      <trkpt lat="39.486956" lon="16.386754">
        <ele>764.260064</ele>
        <time>2023-12-04T01:53:39.472Z</time>
      </trkpt>
      <trkpt lat="39.486961" lon="16.386883">
        <ele>765.058688</ele>
        <time>2023-12-04T01:53:44.553Z</time>
      </trkpt>
      <trkpt lat="39.487005" lon="16.386975">
        <ele>765.727902</ele>
        <time>2023-12-04T01:53:48.833Z</time>
      </trkpt>
      <trkpt lat="39.487234" lon="16.387106">
        <ele>767.285621</ele>
        <time>2023-12-04T01:54:03.069Z</time>
      </trkpt>
      <trkpt lat="39.487672" lon="16.387293">
        <ele>769.517918</ele>
        <time>2023-12-04T01:54:27.117Z</time>
      </trkpt>
      <trkpt lat="39.487823" lon="16.387415">
        <ele>770.379296</ele>
        <time>2023-12-04T01:54:34.406Z</time>
      </trkpt>
      <trkpt lat="39.487929" lon="16.387601">
        <ele>771.243061</ele>
        <time>2023-12-04T01:54:40.398Z</time>
      </trkpt>
      <trkpt lat="39.487942" lon="16.387791">
        <ele>771.955637</ele>
        <time>2023-12-04T01:54:44.572Z</time>
      </trkpt>
      <trkpt lat="39.487914" lon="16.388599">
        <ele>774.977166</ele>
        <time>2023-12-04T01:54:57.603Z</time>
      </trkpt>
      <trkpt lat="39.487930" lon="16.388674">
        <ele>775.267855</ele>
        <time>2023-12-04T01:54:58.460Z</time>
      </trkpt>
      <trkpt lat="39.488030" lon="16.388792">
        <ele>775.283162</ele>
        <time>2023-12-04T01:55:00.348Z</time>
      </trkpt>
      <trkpt lat="39.488141" lon="16.388849">
        <ele>775.259270</ele>
        <time>2023-12-04T01:55:02.094Z</time>
      </trkpt>
      <trkpt lat="39.488488" lon="16.388736">
        <ele>775.187677</ele>
        <time>2023-12-04T01:55:06.327Z</time>
      </trkpt>
      <trkpt lat="39.488561" lon="16.388758">
        <ele>775.172680</ele>
        <time>2023-12-04T01:55:07.143Z</time>
      </trkpt>
      <trkpt lat="39.488621" lon="16.388837">
        <ele>775.155563</ele>
        <time>2023-12-04T01:55:08.014Z</time>
      </trkpt>
      <trkpt lat="39.488791" lon="16.389402">
        <ele>775.061916</ele>
        <time>2023-12-04T01:55:13.191Z</time>
      </trkpt>
      <trkpt lat="39.488742" lon="16.389595">
        <ele>775.030540</ele>
        <time>2023-12-04T01:55:15.633Z</time>
      </trkpt>
      <trkpt lat="39.488460" lon="16.390032">
        <ele>775.070705</ele>
        <time>2023-12-04T01:55:23.353Z</time>
      </trkpt>
      <trkpt lat="39.488184" lon="16.390489">
        <ele>776.874422</ele>
        <time>2023-12-04T01:55:35.315Z</time>
      </trkpt>
      <trkpt lat="39.488001" lon="16.390603">
        <ele>777.692213</ele>
        <time>2023-12-04T01:55:42.698Z</time>
      </trkpt>
      <trkpt lat="39.487851" lon="16.390484">
        <ele>778.400581</ele>
        <time>2023-12-04T01:55:47.620Z</time>
      </trkpt>
      <trkpt lat="39.487809" lon="16.390341">
        <ele>778.876165</ele>
        <time>2023-12-04T01:55:51.720Z</time>
      </trkpt>
      <trkpt lat="39.487657" lon="16.390110">
        <ele>779.819729</ele>
        <time>2023-12-04T01:55:58.564Z</time>
      </trkpt>
      <trkpt lat="39.487552" lon="16.390048">
        <ele>780.284459</ele>
        <time>2023-12-04T01:56:02.799Z</time>
      </trkpt>
      <trkpt lat="39.487423" lon="16.390025">
        <ele>780.808905</ele>
        <time>2023-12-04T01:56:07.573Z</time>
      </trkpt>
      <trkpt lat="39.487001" lon="16.389995">
        <ele>782.419401</ele>
        <time>2023-12-04T01:56:23.590Z</time>
      </trkpt>
      <trkpt lat="39.486903" lon="16.390117">
        <ele>782.809133</ele>
        <time>2023-12-04T01:56:29.244Z</time>
      </trkpt>
      <trkpt lat="39.486845" lon="16.390325">
        <ele>783.298615</ele>
        <time>2023-12-04T01:56:36.769Z</time>
      </trkpt>
      <trkpt lat="39.486887" lon="16.390721">
        <ele>784.183297</ele>
        <time>2023-12-04T01:56:47.303Z</time>
      </trkpt>
      <trkpt lat="39.486847" lon="16.390876">
        <ele>784.545020</ele>
        <time>2023-12-04T01:56:50.816Z</time>
      </trkpt>
      <trkpt lat="39.486761" lon="16.390940">
        <ele>784.829430</ele>
        <time>2023-12-04T01:56:53.108Z</time>
      </trkpt>
      <trkpt lat="39.486630" lon="16.390916">
        <ele>785.208842</ele>
        <time>2023-12-04T01:56:55.845Z</time>
      </trkpt>
      <trkpt lat="39.486266" lon="16.390615">
        <ele>786.447170</ele>
        <time>2023-12-04T01:57:02.457Z</time>
      </trkpt>
      <trkpt lat="39.486184" lon="16.390669">
        <ele>786.710954</ele>
        <time>2023-12-04T01:57:03.913Z</time>
      </trkpt>
      <trkpt lat="39.486136" lon="16.390802">
        <ele>787.035914</ele>
        <time>2023-12-04T01:57:06.067Z</time>
      </trkpt>
      <trkpt lat="39.486073" lon="16.391338">
        <ele>788.267932</ele>
        <time>2023-12-04T01:57:12.374Z</time>
      </trkpt>
      <trkpt lat="39.486015" lon="16.391497">
        <ele>788.671255</ele>
        <time>2023-12-04T01:57:15.213Z</time>
      </trkpt>
      <trkpt lat="39.485906" lon="16.391537">
        <ele>789.007890</ele>
        <time>2023-12-04T01:57:18.387Z</time>
      </trkpt>
      <trkpt lat="39.485614" lon="16.391518">
        <ele>789.876667</ele>
        <time>2023-12-04T01:57:25.870Z</time>
      </trkpt>
      <trkpt lat="39.485483" lon="16.391427">
        <ele>790.318352</ele>
        <time>2023-12-04T01:57:30.619Z</time>
      </trkpt>
      <trkpt lat="39.485368" lon="16.391215">
        <ele>790.912626</ele>
        <time>2023-12-04T01:57:36.898Z</time>
      </trkpt>
      <trkpt lat="39.485279" lon="16.391151">
        <ele>791.215091</ele>
        <time>2023-12-04T01:57:40.865Z</time>
      </trkpt>
      <trkpt lat="39.485200" lon="16.391181">
        <ele>791.459716</ele>
        <time>2023-12-04T01:57:43.073Z</time>
      </trkpt>
      <trkpt lat="39.484921" lon="16.391465">
        <ele>792.514018</ele>
        <time>2023-12-04T01:57:54.581Z</time>
      </trkpt>
      <trkpt lat="39.484673" lon="16.391534">
        <ele>793.149321</ele>
        <time>2023-12-04T01:58:03.036Z</time>
      </trkpt>
      <trkpt lat="39.484417" lon="16.391465">
        <ele>793.765515</ele>
        <time>2023-12-04T01:58:11.046Z</time>
      </trkpt>
      <trkpt lat="39.484290" lon="16.391340">
        <ele>794.141359</ele>
        <time>2023-12-04T01:58:16.374Z</time>
      </trkpt>
      <trkpt lat="39.484190" lon="16.391300">
        <ele>794.387989</ele>
        <time>2023-12-04T01:58:19.404Z</time>
      </trkpt>
      <trkpt lat="39.484069" lon="16.391356">
        <ele>794.690778</ele>
        <time>2023-12-04T01:58:23.426Z</time>
      </trkpt>
      <trkpt lat="39.483916" lon="16.391526">
        <ele>795.165753</ele>
        <time>2023-12-04T01:58:28.341Z</time>
      </trkpt>
      <trkpt lat="39.483796" lon="16.391706">
        <ele>795.598361</ele>
        <time>2023-12-04T01:58:32.216Z</time>
      </trkpt>
      <trkpt lat="39.483787" lon="16.391817">
        <ele>795.801360</ele>
        <time>2023-12-04T01:58:33.833Z</time>
      </trkpt>
      <trkpt lat="39.484148" lon="16.392341">
        <ele>796.877668</ele>
        <time>2023-12-04T01:58:43.364Z</time>
      </trkpt>
      <trkpt lat="39.484196" lon="16.392505">
        <ele>796.753337</ele>
        <time>2023-12-04T01:58:45.009Z</time>
      </trkpt>
      <trkpt lat="39.484096" lon="16.392648">
        <ele>796.616549</ele>
        <time>2023-12-04T01:58:46.671Z</time>
      </trkpt>
      <trkpt lat="39.483909" lon="16.392773">
        <ele>796.423288</ele>
        <time>2023-12-04T01:58:48.885Z</time>
      </trkpt>
      <trkpt lat="39.483653" lon="16.392859">
        <ele>796.180390</ele>
        <time>2023-12-04T01:58:51.643Z</time>
      </trkpt>
      <trkpt lat="39.483283" lon="16.392920">
        <ele>795.837822</ele>
        <time>2023-12-04T01:58:55.977Z</time>
      </trkpt>
      <trkpt lat="39.483004" lon="16.393019">
        <ele>795.572137</ele>
        <time>2023-12-04T01:58:59.516Z</time>
      </trkpt>
      <trkpt lat="39.482949" lon="16.393082">
        <ele>795.504712</ele>
        <time>2023-12-04T01:59:00.580Z</time>
      </trkpt>
      <trkpt lat="39.482868" lon="16.393239">
        <ele>795.370843</ele>
        <time>2023-12-04T01:59:02.604Z</time>
      </trkpt>
      <trkpt lat="39.482797" lon="16.393473">
        <ele>795.453848</ele>
        <time>2023-12-04T01:59:05.593Z</time>
      </trkpt>
      <trkpt lat="39.482802" lon="16.393811">
        <ele>795.913574</ele>
        <time>2023-12-04T01:59:09.983Z</time>
      </trkpt>
      <trkpt lat="39.482873" lon="16.394356">
        <ele>796.665195</ele>
        <time>2023-12-04T01:59:18.429Z</time>
      </trkpt>
      <trkpt lat="39.482843" lon="16.394564">
        <ele>796.952947</ele>
        <time>2023-12-04T01:59:21.790Z</time>
      </trkpt>
      <trkpt lat="39.482793" lon="16.394696">
        <ele>797.152905</ele>
        <time>2023-12-04T01:59:23.697Z</time>
      </trkpt>
      <trkpt lat="39.481910" lon="16.395795">
        <ele>801.145652</ele>
        <time>2023-12-04T01:59:57.501Z</time>
      </trkpt>
      <trkpt lat="39.481544" lon="16.396467">
        <ele>804.653900</ele>
        <time>2023-12-04T02:00:19.842Z</time>
      </trkpt>
      <trkpt lat="39.481258" lon="16.397076">
        <ele>807.694688</ele>
        <time>2023-12-04T02:00:43.657Z</time>
      </trkpt>
      <trkpt lat="39.481223" lon="16.397418">
        <ele>809.660996</ele>
        <time>2023-12-04T02:00:56.480Z</time>
      </trkpt>
      <trkpt lat="39.481316" lon="16.397670">
        <ele>811.613232</ele>
        <time>2023-12-04T02:01:07.064Z</time>
      </trkpt>
      <trkpt lat="39.481442" lon="16.397821">
        <ele>813.167441</ele>
        <time>2023-12-04T02:01:15.934Z</time>
      </trkpt>
      <trkpt lat="39.482378" lon="16.398177">
        <ele>822.000794</ele>
        <time>2023-12-04T02:02:06.734Z</time>
      </trkpt>
      <trkpt lat="39.482462" lon="16.398271">
        <ele>823.005870</ele>
        <time>2023-12-04T02:02:12.490Z</time>
      </trkpt>
      <trkpt lat="39.482636" lon="16.398599">
        <ele>825.588165</ele>
        <time>2023-12-04T02:02:29.024Z</time>
      </trkpt>
      <trkpt lat="39.482857" lon="16.398877">
        <ele>827.875959</ele>
        <time>2023-12-04T02:02:46.204Z</time>
      </trkpt>
      <trkpt lat="39.482885" lon="16.398989">
        <ele>828.550841</ele>
        <time>2023-12-04T02:02:51.108Z</time>
      </trkpt>
      <trkpt lat="39.482856" lon="16.399096">
        <ele>829.200938</ele>
        <time>2023-12-04T02:02:55.942Z</time>
      </trkpt>
      <trkpt lat="39.482772" lon="16.399156">
        <ele>829.913361</ele>
        <time>2023-12-04T02:03:01.327Z</time>
      </trkpt>
      <trkpt lat="39.481872" lon="16.399467">
        <ele>836.831602</ele>
        <time>2023-12-04T02:03:42.329Z</time>
      </trkpt>
      <trkpt lat="39.481772" lon="16.399501">
        <ele>837.599482</ele>
        <time>2023-12-04T02:03:45.774Z</time>
      </trkpt>
      <trkpt lat="39.481457" lon="16.399610">
        <ele>838.349463</ele>
        <time>2023-12-04T02:03:53.778Z</time>
      </trkpt>
      <trkpt lat="39.481274" lon="16.399602">
        <ele>838.563243</ele>
        <time>2023-12-04T02:03:57.570Z</time>
      </trkpt>
      <trkpt lat="39.480725" lon="16.399338">
        <ele>839.246946</ele>
        <time>2023-12-04T02:04:05.379Z</time>
      </trkpt>
      <trkpt lat="39.480403" lon="16.399219">
        <ele>839.637888</ele>
        <time>2023-12-04T02:04:10.744Z</time>
      </trkpt>
      <trkpt lat="39.480236" lon="16.399224">
        <ele>839.832918</ele>
        <time>2023-12-04T02:04:13.558Z</time>
      </trkpt>
      <trkpt lat="39.480088" lon="16.399294">
        <ele>840.016868</ele>
        <time>2023-12-04T02:04:16.030Z</time>
      </trkpt>
      <trkpt lat="39.479945" lon="16.399501">
        <ele>840.800761</ele>
        <time>2023-12-04T02:04:19.359Z</time>
      </trkpt>
      <trkpt lat="39.479877" lon="16.399727">
        <ele>841.919607</ele>
        <time>2023-12-04T02:04:22.353Z</time>
      </trkpt>
      <trkpt lat="39.479864" lon="16.399968">
        <ele>843.033947</ele>
        <time>2023-12-04T02:04:26.279Z</time>
      </trkpt>
      <trkpt lat="39.479942" lon="16.400063">
        <ele>843.673704</ele>
        <time>2023-12-04T02:04:28.593Z</time>
      </trkpt>
      <trkpt lat="39.480146" lon="16.400173">
        <ele>844.994178</ele>
        <time>2023-12-04T02:04:35.541Z</time>
      </trkpt>
      <trkpt lat="39.480257" lon="16.400267">
        <ele>845.786646</ele>
        <time>2023-12-04T02:04:39.753Z</time>
      </trkpt>
      <trkpt lat="39.480325" lon="16.400398">
        <ele>846.514825</ele>
        <time>2023-12-04T02:04:44.781Z</time>
      </trkpt>
      <trkpt lat="39.480387" lon="16.400599">
        <ele>847.513239</ele>
        <time>2023-12-04T02:04:51.902Z</time>
      </trkpt>
      <trkpt lat="39.480695" lon="16.402089">
        <ele>858.069843</ele>
        <time>2023-12-04T02:06:07.118Z</time>
      </trkpt>
      <trkpt lat="39.480899" lon="16.402849">
        <ele>865.195150</ele>
        <time>2023-12-04T02:06:44.932Z</time>
      </trkpt>
      <trkpt lat="39.480926" lon="16.402882">
        <ele>865.621001</ele>
        <time>2023-12-04T02:06:47.214Z</time>
      </trkpt>
      <trkpt lat="39.481030" lon="16.402947">
        <ele>866.945756</ele>
        <time>2023-12-04T02:06:54.542Z</time>
      </trkpt>
      <trkpt lat="39.481173" lon="16.402976">
        <ele>868.606353</ele>
        <time>2023-12-04T02:07:03.353Z</time>
      </trkpt>
      <trkpt lat="39.481300" lon="16.402917">
        <ele>870.154244</ele>
        <time>2023-12-04T02:07:11.404Z</time>
      </trkpt>
      <trkpt lat="39.481424" lon="16.402724">
        <ele>872.153140</ele>
        <time>2023-12-04T02:07:23.025Z</time>
      </trkpt>
      <trkpt lat="39.481504" lon="16.402642">
        <ele>873.016134</ele>
        <time>2023-12-04T02:07:28.598Z</time>
      </trkpt>
      <trkpt lat="39.481637" lon="16.402682">
        <ele>874.171240</ele>
        <time>2023-12-04T02:07:36.603Z</time>
      </trkpt>
      <trkpt lat="39.481836" lon="16.402943">
        <ele>876.566827</ele>
        <time>2023-12-04T02:07:51.835Z</time>
      </trkpt>
      <trkpt lat="39.481895" lon="16.403122">
        <ele>877.837763</ele>
        <time>2023-12-04T02:07:59.926Z</time>
      </trkpt>
      <trkpt lat="39.481907" lon="16.403180">
        <ele>878.229856</ele>
        <time>2023-12-04T02:08:02.413Z</time>
      </trkpt>
      <trkpt lat="39.481863" lon="16.403601">
        <ele>881.003947</ele>
        <time>2023-12-04T02:08:18.313Z</time>
      </trkpt>
      <trkpt lat="39.481912" lon="16.403673">
        <ele>881.630745</ele>
        <time>2023-12-04T02:08:21.643Z</time>
      </trkpt>
      <trkpt lat="39.482159" lon="16.403710">
        <ele>883.734302</ele>
        <time>2023-12-04T02:08:31.465Z</time>
      </trkpt>
      <trkpt lat="39.482216" lon="16.403747">
        <ele>884.273662</ele>
        <time>2023-12-04T02:08:34.180Z</time>
      </trkpt>
      <trkpt lat="39.482457" lon="16.404102">
        <ele>887.072924</ele>
        <time>2023-12-04T02:08:48.366Z</time>
      </trkpt>
      <trkpt lat="39.482589" lon="16.404219">
        <ele>887.799969</ele>
        <time>2023-12-04T02:08:54.427Z</time>
      </trkpt>
      <trkpt lat="39.482923" lon="16.404301">
        <ele>889.345328</ele>
        <time>2023-12-04T02:09:07.679Z</time>
      </trkpt>
      <trkpt lat="39.483062" lon="16.404427">
        <ele>890.116508</ele>
        <time>2023-12-04T02:09:13.421Z</time>
      </trkpt>
      <trkpt lat="39.483120" lon="16.404634">
        <ele>890.889168</ele>
        <time>2023-12-04T02:09:19.442Z</time>
      </trkpt>
      <trkpt lat="39.483155" lon="16.404761">
        <ele>891.362315</ele>
        <time>2023-12-04T02:09:22.374Z</time>
      </trkpt>
      <trkpt lat="39.483185" lon="16.405525">
        <ele>894.046354</ele>
        <time>2023-12-04T02:09:40.387Z</time>
      </trkpt>
      <trkpt lat="39.483159" lon="16.405623">
        <ele>894.409944</ele>
        <time>2023-12-04T02:09:42.456Z</time>
      </trkpt>
      <trkpt lat="39.483109" lon="16.405672">
        <ele>894.694936</ele>
        <time>2023-12-04T02:09:43.888Z</time>
      </trkpt>
      <trkpt lat="39.483026" lon="16.405694">
        <ele>894.981364</ele>
        <time>2023-12-04T02:09:45.994Z</time>
      </trkpt>
      <trkpt lat="39.482613" lon="16.405721">
        <ele>895.736350</ele>
        <time>2023-12-04T02:09:56.497Z</time>
      </trkpt>
      <trkpt lat="39.482173" lon="16.405789">
        <ele>896.545366</ele>
        <time>2023-12-04T02:10:07.322Z</time>
      </trkpt>
      <trkpt lat="39.482022" lon="16.405846">
        <ele>896.832514</ele>
        <time>2023-12-04T02:10:11.470Z</time>
      </trkpt>
      <trkpt lat="39.481951" lon="16.406010">
        <ele>897.097486</ele>
        <time>2023-12-04T02:10:14.416Z</time>
      </trkpt>
      <trkpt lat="39.481983" lon="16.406249">
        <ele>897.439302</ele>
        <time>2023-12-04T02:10:18.777Z</time>
      </trkpt>
      <trkpt lat="39.482048" lon="16.406364">
        <ele>897.640159</ele>
        <time>2023-12-04T02:10:20.591Z</time>
      </trkpt>
      <trkpt lat="39.482351" lon="16.406622">
        <ele>898.019651</ele>
        <time>2023-12-04T02:10:26.208Z</time>
      </trkpt>
      <trkpt lat="39.482398" lon="16.406704">
        <ele>897.769507</ele>
        <time>2023-12-04T02:10:27.357Z</time>
      </trkpt>
      <trkpt lat="39.482424" lon="16.406795">
        <ele>897.531862</ele>
        <time>2023-12-04T02:10:28.605Z</time>
      </trkpt>
      <trkpt lat="39.482386" lon="16.407136">
        <ele>896.688069</ele>
        <time>2023-12-04T02:10:31.922Z</time>
      </trkpt>
      <trkpt lat="39.482433" lon="16.407245">
        <ele>896.382287</ele>
        <time>2023-12-04T02:10:33.183Z</time>
      </trkpt>
      <trkpt lat="39.482506" lon="16.407352">
        <ele>896.032535</ele>
        <time>2023-12-04T02:10:34.519Z</time>
      </trkpt>
      <trkpt lat="39.482789" lon="16.407544">
        <ele>895.018882</ele>
        <time>2023-12-04T02:10:37.947Z</time>
      </trkpt>
      <trkpt lat="39.482837" lon="16.407621">
        <ele>894.776479</ele>
        <time>2023-12-04T02:10:38.739Z</time>
      </trkpt>
      <trkpt lat="39.482953" lon="16.407995">
        <ele>893.789342</ele>
        <time>2023-12-04T02:10:41.796Z</time>
      </trkpt>
      <trkpt lat="39.482929" lon="16.408170">
        <ele>893.354045</ele>
        <time>2023-12-04T02:10:43.060Z</time>
      </trkpt>
      <trkpt lat="39.482851" lon="16.408305">
        <ele>892.941045</ele>
        <time>2023-12-04T02:10:44.247Z</time>
      </trkpt>
      <trkpt lat="39.482760" lon="16.408375">
        <ele>892.605236</ele>
        <time>2023-12-04T02:10:45.200Z</time>
      </trkpt>
      <trkpt lat="39.482631" lon="16.408401">
        <ele>891.964158</ele>
        <time>2023-12-04T02:10:46.342Z</time>
      </trkpt>
      <trkpt lat="39.482471" lon="16.408357">
        <ele>891.053632</ele>
        <time>2023-12-04T02:10:47.774Z</time>
      </trkpt>
      <trkpt lat="39.482367" lon="16.408359">
        <ele>890.474623</ele>
        <time>2023-12-04T02:10:48.681Z</time>
      </trkpt>
      <trkpt lat="39.482278" lon="16.408401">
        <ele>889.947339</ele>
        <time>2023-12-04T02:10:49.489Z</time>
      </trkpt>
      <trkpt lat="39.482062" lon="16.408655">
        <ele>888.323511</ele>
        <time>2023-12-04T02:10:51.983Z</time>
      </trkpt>
      <trkpt lat="39.481993" lon="16.408694">
        <ele>887.904444</ele>
        <time>2023-12-04T02:10:52.630Z</time>
      </trkpt>
      <trkpt lat="39.481769" lon="16.408714">
        <ele>886.654528</ele>
        <time>2023-12-04T02:10:54.570Z</time>
      </trkpt>
      <trkpt lat="39.481621" lon="16.408844">
        <ele>885.659154</ele>
        <time>2023-12-04T02:10:56.178Z</time>
      </trkpt>
      <trkpt lat="39.481489" lon="16.409363">
        <ele>883.311268</ele>
        <time>2023-12-04T02:11:00.722Z</time>
      </trkpt>
      <trkpt lat="39.481300" lon="16.409798">
        <ele>884.532206</ele>
        <time>2023-12-04T02:11:09.851Z</time>
      </trkpt>
      <trkpt lat="39.481296" lon="16.409991">
        <ele>885.829832</ele>
        <time>2023-12-04T02:11:14.856Z</time>
      </trkpt>
      <trkpt lat="39.481333" lon="16.410339">
        <ele>888.190836</ele>
        <time>2023-12-04T02:11:25.415Z</time>
      </trkpt>
      <trkpt lat="39.481397" lon="16.410642">
        <ele>890.302185</ele>
        <time>2023-12-04T02:11:36.376Z</time>
      </trkpt>
      <trkpt lat="39.481517" lon="16.410788">
        <ele>891.735642</ele>
        <time>2023-12-04T02:11:45.876Z</time>
      </trkpt>
      <trkpt lat="39.481794" lon="16.410806">
        <ele>894.150758</ele>
        <time>2023-12-04T02:12:03.417Z</time>
      </trkpt>
      <trkpt lat="39.481978" lon="16.410850">
        <ele>895.780071</ele>
        <time>2023-12-04T02:12:16.541Z</time>
      </trkpt>
      <trkpt lat="39.482130" lon="16.410984">
        <ele>897.381010</ele>
        <time>2023-12-04T02:12:30.208Z</time>
      </trkpt>
      <trkpt lat="39.482209" lon="16.411119">
        <ele>898.590316</ele>
        <time>2023-12-04T02:12:40.249Z</time>
      </trkpt>
      <trkpt lat="39.482299" lon="16.411428">
        <ele>901.224794</ele>
        <time>2023-12-04T02:13:00.933Z</time>
      </trkpt>
      <trkpt lat="39.482524" lon="16.411928">
        <ele>905.841541</ele>
        <time>2023-12-04T02:13:36.674Z</time>
      </trkpt>
      <trkpt lat="39.482656" lon="16.412150">
        <ele>908.076918</ele>
        <time>2023-12-04T02:13:51.082Z</time>
      </trkpt>
      <trkpt lat="39.482829" lon="16.412340">
        <ele>910.420785</ele>
        <time>2023-12-04T02:14:02.634Z</time>
      </trkpt>
      <trkpt lat="39.483395" lon="16.412614">
        <ele>916.665341</ele>
        <time>2023-12-04T02:14:22.986Z</time>
      </trkpt>
      <trkpt lat="39.483575" lon="16.412792">
        <ele>917.003989</ele>
        <time>2023-12-04T02:14:28.088Z</time>
      </trkpt>
      <trkpt lat="39.483641" lon="16.413016">
        <ele>917.234048</ele>
        <time>2023-12-04T02:14:32.165Z</time>
      </trkpt>
      <trkpt lat="39.483657" lon="16.413220">
        <ele>917.430797</ele>
        <time>2023-12-04T02:14:35.288Z</time>
      </trkpt>
      <trkpt lat="39.483595" lon="16.413408">
        <ele>917.626962</ele>
        <time>2023-12-04T02:14:38.450Z</time>
      </trkpt>
      <trkpt lat="39.483362" lon="16.413717">
        <ele>918.041465</ele>
        <time>2023-12-04T02:14:45.013Z</time>
      </trkpt>
      <trkpt lat="39.483293" lon="16.413917">
        <ele>918.251667</ele>
        <time>2023-12-04T02:14:48.079Z</time>
      </trkpt>
      <trkpt lat="39.483217" lon="16.414298">
        <ele>918.629255</ele>
        <time>2023-12-04T02:14:53.663Z</time>
      </trkpt>
      <trkpt lat="39.483036" lon="16.414419">
        <ele>918.882461</ele>
        <time>2023-12-04T02:14:56.939Z</time>
      </trkpt>
      <trkpt lat="39.482598" lon="16.414574">
        <ele>917.346113</ele>
        <time>2023-12-04T02:15:02.449Z</time>
      </trkpt>
      <trkpt lat="39.482504" lon="16.414641">
        <ele>916.896417</ele>
        <time>2023-12-04T02:15:03.575Z</time>
      </trkpt>
      <trkpt lat="39.482462" lon="16.414737">
        <ele>916.539416</ele>
        <time>2023-12-04T02:15:04.458Z</time>
      </trkpt>
      <trkpt lat="39.482465" lon="16.414934">
        <ele>915.901966</ele>
        <time>2023-12-04T02:15:05.916Z</time>
      </trkpt>
      <trkpt lat="39.482755" lon="16.415570">
        <ele>913.512170</ele>
        <time>2023-12-04T02:15:11.110Z</time>
      </trkpt>
      <trkpt lat="39.482797" lon="16.415806">
        <ele>912.728643</ele>
        <time>2023-12-04T02:15:12.813Z</time>
      </trkpt>
      <trkpt lat="39.482778" lon="16.415907">
        <ele>912.392328</ele>
        <time>2023-12-04T02:15:13.534Z</time>
      </trkpt>
      <trkpt lat="39.482622" lon="16.416263">
        <ele>911.247234</ele>
        <time>2023-12-04T02:15:16.467Z</time>
      </trkpt>
      <trkpt lat="39.482655" lon="16.416555">
        <ele>910.769000</ele>
        <time>2023-12-04T02:15:18.651Z</time>
      </trkpt>
      <trkpt lat="39.482727" lon="16.416816">
        <ele>910.319844</ele>
        <time>2023-12-04T02:15:20.605Z</time>
      </trkpt>
      <trkpt lat="39.482945" lon="16.417084">
        <ele>909.688883</ele>
        <time>2023-12-04T02:15:23.447Z</time>
      </trkpt>
      <trkpt lat="39.483303" lon="16.417157">
        <ele>908.927975</ele>
        <time>2023-12-04T02:15:27.130Z</time>
      </trkpt>
      <trkpt lat="39.483933" lon="16.417122">
        <ele>907.789307</ele>
        <time>2023-12-04T02:15:38.728Z</time>
      </trkpt>
      <trkpt lat="39.484004" lon="16.417180">
        <ele>908.311699</ele>
        <time>2023-12-04T02:15:40.520Z</time>
      </trkpt>
      <trkpt lat="39.484070" lon="16.417311">
        <ele>909.063177</ele>
        <time>2023-12-04T02:15:45.271Z</time>
      </trkpt>
      <trkpt lat="39.484266" lon="16.418093">
        <ele>913.012695</ele>
        <time>2023-12-04T02:16:16.407Z</time>
      </trkpt>
      <trkpt lat="39.484333" lon="16.418235">
        <ele>913.812170</ele>
        <time>2023-12-04T02:16:23.130Z</time>
      </trkpt>
      <trkpt lat="39.484443" lon="16.418327">
        <ele>914.627041</ele>
        <time>2023-12-04T02:16:30.019Z</time>
      </trkpt>
      <trkpt lat="39.484514" lon="16.418306">
        <ele>915.080304</ele>
        <time>2023-12-04T02:16:33.487Z</time>
      </trkpt>
      <trkpt lat="39.484624" lon="16.418160">
        <ele>916.060387</ele>
        <time>2023-12-04T02:16:40.897Z</time>
      </trkpt>
      <trkpt lat="39.484714" lon="16.417980">
        <ele>917.090614</ele>
        <time>2023-12-04T02:16:48.053Z</time>
      </trkpt>
      <trkpt lat="39.484966" lon="16.417738">
        <ele>918.812413</ele>
        <time>2023-12-04T02:16:59.781Z</time>
      </trkpt>
      <trkpt lat="39.485040" lon="16.417704">
        <ele>918.731114</ele>
        <time>2023-12-04T02:17:02.358Z</time>
      </trkpt>
      <trkpt lat="39.485108" lon="16.417730">
        <ele>918.657701</ele>
        <time>2023-12-04T02:17:04.572Z</time>
      </trkpt>
      <trkpt lat="39.485169" lon="16.417813">
        <ele>918.566109</ele>
        <time>2023-12-04T02:17:07.284Z</time>
      </trkpt>
      <trkpt lat="39.485204" lon="16.417926">
        <ele>918.468803</ele>
        <time>2023-12-04T02:17:09.647Z</time>
      </trkpt>
      <trkpt lat="39.485164" lon="16.418391">
        <ele>918.094895</ele>
        <time>2023-12-04T02:17:16.464Z</time>
      </trkpt>
      <trkpt lat="39.485137" lon="16.418578">
        <ele>917.942860</ele>
        <time>2023-12-04T02:17:18.254Z</time>
      </trkpt>
      <trkpt lat="39.485081" lon="16.418745">
        <ele>917.797349</ele>
        <time>2023-12-04T02:17:19.851Z</time>
      </trkpt>
      <trkpt lat="39.485140" lon="16.419636">
        <ele>917.082685</ele>
        <time>2023-12-04T02:17:26.451Z</time>
      </trkpt>
      <trkpt lat="39.485075" lon="16.419870">
        <ele>916.797886</ele>
        <time>2023-12-04T02:17:28.178Z</time>
      </trkpt>
      <trkpt lat="39.484988" lon="16.420045">
        <ele>916.486822</ele>
        <time>2023-12-04T02:17:29.636Z</time>
      </trkpt>
      <trkpt lat="39.484804" lon="16.420133">
        <ele>916.107068</ele>
        <time>2023-12-04T02:17:31.378Z</time>
      </trkpt>
      <trkpt lat="39.484717" lon="16.420267">
        <ele>915.845398</ele>
        <time>2023-12-04T02:17:32.616Z</time>
      </trkpt>
      <trkpt lat="39.484721" lon="16.420392">
        <ele>915.658445</ele>
        <time>2023-12-04T02:17:33.555Z</time>
      </trkpt>
      <trkpt lat="39.484862" lon="16.420789">
        <ele>915.005392</ele>
        <time>2023-12-04T02:17:37.253Z</time>
      </trkpt>
      <trkpt lat="39.484917" lon="16.421028">
        <ele>914.632708</ele>
        <time>2023-12-04T02:17:39.794Z</time>
      </trkpt>
      <trkpt lat="39.484921" lon="16.421717">
        <ele>913.603083</ele>
        <time>2023-12-04T02:17:49.877Z</time>
      </trkpt>
      <trkpt lat="39.484962" lon="16.421822">
        <ele>913.788452</ele>
        <time>2023-12-04T02:17:51.682Z</time>
      </trkpt>
      <trkpt lat="39.485104" lon="16.421997">
        <ele>915.283635</ele>
        <time>2023-12-04T02:17:57.509Z</time>
      </trkpt>
      <trkpt lat="39.485211" lon="16.422064">
        <ele>916.190320</ele>
        <time>2023-12-04T02:18:01.025Z</time>
      </trkpt>
      <trkpt lat="39.485254" lon="16.422062">
        <ele>916.518598</ele>
        <time>2023-12-04T02:18:02.290Z</time>
      </trkpt>
      <trkpt lat="39.485363" lon="16.422023">
        <ele>917.381335</ele>
        <time>2023-12-04T02:18:06.749Z</time>
      </trkpt>
      <trkpt lat="39.485498" lon="16.421934">
        <ele>918.536971</ele>
        <time>2023-12-04T02:18:12.607Z</time>
      </trkpt>
      <trkpt lat="39.485769" lon="16.421667">
        <ele>921.134402</ele>
        <time>2023-12-04T02:18:28.588Z</time>
      </trkpt>
      <trkpt lat="39.485859" lon="16.421341">
        <ele>923.173099</ele>
        <time>2023-12-04T02:18:43.396Z</time>
      </trkpt>
      <trkpt lat="39.485908" lon="16.421245">
        <ele>923.850812</ele>
        <time>2023-12-04T02:18:48.674Z</time>
      </trkpt>
      <trkpt lat="39.486120" lon="16.420952">
        <ele>926.215694</ele>
        <time>2023-12-04T02:19:08.119Z</time>
      </trkpt>
      <trkpt lat="39.486243" lon="16.420860">
        <ele>927.307101</ele>
        <time>2023-12-04T02:19:17.450Z</time>
      </trkpt>
      <trkpt lat="39.486366" lon="16.420844">
        <ele>928.347358</ele>
        <time>2023-12-04T02:19:25.837Z</time>
      </trkpt>
      <trkpt lat="39.486559" lon="16.420910">
        <ele>930.027079</ele>
        <time>2023-12-04T02:19:37.662Z</time>
      </trkpt>
      <trkpt lat="39.486729" lon="16.421017">
        <ele>931.617493</ele>
        <time>2023-12-04T02:19:47.104Z</time>
      </trkpt>
      <trkpt lat="39.486795" lon="16.421094">
        <ele>932.364849</ele>
        <time>2023-12-04T02:19:51.598Z</time>
      </trkpt>
      <trkpt lat="39.486865" lon="16.421253">
        <ele>933.553674</ele>
        <time>2023-12-04T02:19:58.158Z</time>
      </trkpt>
      <trkpt lat="39.486891" lon="16.421425">
        <ele>934.691954</ele>
        <time>2023-12-04T02:20:04.371Z</time>
      </trkpt>
      <trkpt lat="39.486762" lon="16.421922">
        <ele>938.097378</ele>
        <time>2023-12-04T02:20:22.890Z</time>
      </trkpt>
      <trkpt lat="39.486778" lon="16.422098">
        <ele>939.248315</ele>
        <time>2023-12-04T02:20:28.903Z</time>
      </trkpt>
      <trkpt lat="39.486765" lon="16.422244">
        <ele>940.202804</ele>
        <time>2023-12-04T02:20:33.744Z</time>
      </trkpt>
      <trkpt lat="39.486626" lon="16.422620">
        <ele>942.555328</ele>
        <time>2023-12-04T02:20:47.452Z</time>
      </trkpt>
      <trkpt lat="39.486623" lon="16.422721">
        <ele>942.789222</ele>
        <time>2023-12-04T02:20:50.571Z</time>
      </trkpt>
      <trkpt lat="39.486733" lon="16.422846">
        <ele>943.227917</ele>
        <time>2023-12-04T02:20:56.235Z</time>
      </trkpt>
      <trkpt lat="39.487039" lon="16.423034">
        <ele>944.243336</ele>
        <time>2023-12-04T02:21:07.482Z</time>
      </trkpt>
      <trkpt lat="39.487097" lon="16.423113">
        <ele>944.495651</ele>
        <time>2023-12-04T02:21:09.791Z</time>
      </trkpt>
      <trkpt lat="39.487200" lon="16.423519">
        <ele>945.484614</ele>
        <time>2023-12-04T02:21:17.548Z</time>
      </trkpt>
      <trkpt lat="39.487200" lon="16.423519">
        <ele>945.484614</ele>
        <time>2023-12-04T02:21:17.548Z</time>
      </trkpt>
      <trkpt lat="39.487297" lon="16.424188">
        <ele>947.059797</ele>
        <time>2023-12-04T02:21:28.147Z</time>
      </trkpt>
      <trkpt lat="39.487349" lon="16.424401">
        <ele>947.576761</ele>
        <time>2023-12-04T02:21:31.327Z</time>
      </trkpt>
      <trkpt lat="39.487575" lon="16.424693">
        <ele>948.039505</ele>
        <time>2023-12-04T02:21:36.495Z</time>
      </trkpt>
      <trkpt lat="39.487623" lon="16.424827">
        <ele>948.165296</ele>
        <time>2023-12-04T02:21:38.343Z</time>
      </trkpt>
      <trkpt lat="39.487616" lon="16.425057">
        <ele>948.361290</ele>
        <time>2023-12-04T02:21:40.727Z</time>
      </trkpt>
      <trkpt lat="39.487578" lon="16.425174">
        <ele>948.469377</ele>
        <time>2023-12-04T02:21:42.152Z</time>
      </trkpt>
      <trkpt lat="39.487452" lon="16.425437">
        <ele>948.732959</ele>
        <time>2023-12-04T02:21:45.082Z</time>
      </trkpt>
      <trkpt lat="39.487323" lon="16.425563">
        <ele>948.911194</ele>
        <time>2023-12-04T02:21:47.391Z</time>
      </trkpt>
      <trkpt lat="39.487246" lon="16.425605">
        <ele>949.003369</ele>
        <time>2023-12-04T02:21:48.647Z</time>
      </trkpt>
      <trkpt lat="39.487113" lon="16.425609">
        <ele>949.150148</ele>
        <time>2023-12-04T02:21:50.683Z</time>
      </trkpt>
      <trkpt lat="39.486755" lon="16.425446">
        <ele>949.568808</ele>
        <time>2023-12-04T02:21:59.351Z</time>
      </trkpt>
      <trkpt lat="39.486471" lon="16.425366">
        <ele>950.628048</ele>
        <time>2023-12-04T02:22:07.666Z</time>
      </trkpt>
      <trkpt lat="39.486374" lon="16.425391">
        <ele>951.263106</ele>
        <time>2023-12-04T02:22:11.007Z</time>
      </trkpt>
      <trkpt lat="39.486236" lon="16.425508">
        <ele>952.322071</ele>
        <time>2023-12-04T02:22:17.081Z</time>
      </trkpt>
      <trkpt lat="39.486208" lon="16.425559">
        <ele>952.632239</ele>
        <time>2023-12-04T02:22:18.835Z</time>
      </trkpt>
      <trkpt lat="39.486181" lon="16.425609">
        <ele>952.934656</ele>
        <time>2023-12-04T02:22:20.572Z</time>
      </trkpt>
      <trkpt lat="39.486188" lon="16.425742">
        <ele>953.595299</ele>
        <time>2023-12-04T02:22:24.881Z</time>
      </trkpt>
      <trkpt lat="39.486185" lon="16.425930">
        <ele>954.527176</ele>
        <time>2023-12-04T02:22:30.737Z</time>
      </trkpt>
      <trkpt lat="39.486261" lon="16.426266">
        <ele>956.262340</ele>
        <time>2023-12-04T02:22:41.802Z</time>
      </trkpt>
      <trkpt lat="39.486368" lon="16.426587">
        <ele>957.995160</ele>
        <time>2023-12-04T02:22:53.229Z</time>
      </trkpt>
      <trkpt lat="39.486498" lon="16.426814">
        <ele>959.395988</ele>
        <time>2023-12-04T02:23:02.976Z</time>
      </trkpt>
      <trkpt lat="39.486981" lon="16.427169">
        <ele>963.434371</ele>
        <time>2023-12-04T02:23:31.211Z</time>
      </trkpt>
      <trkpt lat="39.487126" lon="16.427441">
        <ele>965.534691</ele>
        <time>2023-12-04T02:23:45.572Z</time>
      </trkpt>
      <trkpt lat="39.487168" lon="16.427633">
        <ele>966.802606</ele>
        <time>2023-12-04T02:23:54.234Z</time>
      </trkpt>
      <trkpt lat="39.487160" lon="16.427781">
        <ele>967.745218</ele>
        <time>2023-12-04T02:24:00.526Z</time>
      </trkpt>
      <trkpt lat="39.487130" lon="16.427870">
        <ele>968.362255</ele>
        <time>2023-12-04T02:24:04.381Z</time>
      </trkpt>
      <trkpt lat="39.487042" lon="16.427934">
        <ele>969.193013</ele>
        <time>2023-12-04T02:24:09.535Z</time>
      </trkpt>
      <trkpt lat="39.486932" lon="16.427939">
        <ele>970.099126</ele>
        <time>2023-12-04T02:24:15.217Z</time>
      </trkpt>
      <trkpt lat="39.486749" lon="16.427896">
        <ele>971.630212</ele>
        <time>2023-12-04T02:24:23.628Z</time>
      </trkpt>
      <trkpt lat="39.486700" lon="16.427890">
        <ele>972.035394</ele>
        <time>2023-12-04T02:24:25.842Z</time>
      </trkpt>
      <trkpt lat="39.486593" lon="16.427939">
        <ele>972.969649</ele>
        <time>2023-12-04T02:24:31.056Z</time>
      </trkpt>
      <trkpt lat="39.486517" lon="16.428043">
        <ele>973.879623</ele>
        <time>2023-12-04T02:24:35.576Z</time>
      </trkpt>
      <trkpt lat="39.486471" lon="16.428161">
        <ele>974.719548</ele>
        <time>2023-12-04T02:24:39.595Z</time>
      </trkpt>
      <trkpt lat="39.486406" lon="16.428378">
        <ele>976.174387</ele>
        <time>2023-12-04T02:24:46.788Z</time>
      </trkpt>
      <trkpt lat="39.486402" lon="16.428477">
        <ele>976.660931</ele>
        <time>2023-12-04T02:24:49.369Z</time>
      </trkpt>
      <trkpt lat="39.486452" lon="16.428576">
        <ele>977.241598</ele>
        <time>2023-12-04T02:24:52.426Z</time>
      </trkpt>
      <trkpt lat="39.486829" lon="16.429050">
        <ele>980.582155</ele>
        <time>2023-12-04T02:25:13.051Z</time>
      </trkpt>
      <trkpt lat="39.487065" lon="16.429464">
        <ele>983.108152</ele>
        <time>2023-12-04T02:25:30.023Z</time>
      </trkpt>
      <trkpt lat="39.487221" lon="16.429864">
        <ele>985.307691</ele>
        <time>2023-12-04T02:25:44.769Z</time>
      </trkpt>
      <trkpt lat="39.487229" lon="16.430062">
        <ele>986.280766</ele>
        <time>2023-12-04T02:25:50.983Z</time>
      </trkpt>
      <trkpt lat="39.487214" lon="16.430160">
        <ele>986.771098</ele>
        <time>2023-12-04T02:25:54.136Z</time>
      </trkpt>
      <trkpt lat="39.487141" lon="16.430308">
        <ele>987.592972</ele>
        <time>2023-12-04T02:25:59.345Z</time>
      </trkpt>
      <trkpt lat="39.486764" lon="16.430684">
        <ele>989.433911</ele>
        <time>2023-12-04T02:26:17.016Z</time>
      </trkpt>
      <trkpt lat="39.486658" lon="16.430743">
        <ele>989.880329</ele>
        <time>2023-12-04T02:26:20.898Z</time>
      </trkpt>
      <trkpt lat="39.486395" lon="16.430822">
        <ele>990.925014</ele>
        <time>2023-12-04T02:26:29.415Z</time>
      </trkpt>
      <trkpt lat="39.486311" lon="16.430886">
        <ele>991.302087</ele>
        <time>2023-12-04T02:26:32.240Z</time>
      </trkpt>
      <trkpt lat="39.486143" lon="16.431301">
        <ele>992.701609</ele>
        <time>2023-12-04T02:26:42.129Z</time>
      </trkpt>
      <trkpt lat="39.486094" lon="16.431523">
        <ele>993.391181</ele>
        <time>2023-12-04T02:26:46.867Z</time>
      </trkpt>
      <trkpt lat="39.486277" lon="16.431982">
        <ele>994.514949</ele>
        <time>2023-12-04T02:26:56.072Z</time>
      </trkpt>
      <trkpt lat="39.486414" lon="16.432431">
        <ele>994.594337</ele>
        <time>2023-12-04T02:27:03.504Z</time>
      </trkpt>
      <trkpt lat="39.486433" lon="16.432698">
        <ele>994.638425</ele>
        <time>2023-12-04T02:27:06.605Z</time>
      </trkpt>
      <trkpt lat="39.486384" lon="16.433062">
        <ele>994.699181</ele>
        <time>2023-12-04T02:27:10.540Z</time>
      </trkpt>
      <trkpt lat="39.486353" lon="16.433186">
        <ele>994.720613</ele>
        <time>2023-12-04T02:27:11.754Z</time>
      </trkpt>
      <trkpt lat="39.486288" lon="16.433300">
        <ele>994.743918</ele>
        <time>2023-12-04T02:27:13.229Z</time>
      </trkpt>
      <trkpt lat="39.486240" lon="16.433341">
        <ele>994.756166</ele>
        <time>2023-12-04T02:27:13.898Z</time>
      </trkpt>
      <trkpt lat="39.486175" lon="16.433349">
        <ele>994.770077</ele>
        <time>2023-12-04T02:27:14.623Z</time>
      </trkpt>
      <trkpt lat="39.486097" lon="16.433335">
        <ele>994.786854</ele>
        <time>2023-12-04T02:27:15.483Z</time>
      </trkpt>
      <trkpt lat="39.486044" lon="16.433275">
        <ele>994.801848</ele>
        <time>2023-12-04T02:27:16.309Z</time>
      </trkpt>
      <trkpt lat="39.485995" lon="16.433152">
        <ele>994.824608</ele>
        <time>2023-12-04T02:27:17.703Z</time>
      </trkpt>
      <trkpt lat="39.485968" lon="16.432708">
        <ele>995.152400</ele>
        <time>2023-12-04T02:27:21.888Z</time>
      </trkpt>
      <trkpt lat="39.485918" lon="16.432584">
        <ele>995.418290</ele>
        <time>2023-12-04T02:27:23.379Z</time>
      </trkpt>
      <trkpt lat="39.485854" lon="16.432505">
        <ele>995.635959</ele>
        <time>2023-12-04T02:27:24.593Z</time>
      </trkpt>
      <trkpt lat="39.485275" lon="16.432145">
        <ele>997.217413</ele>
        <time>2023-12-04T02:27:39.152Z</time>
      </trkpt>
      <trkpt lat="39.485195" lon="16.432160">
        <ele>997.416465</ele>
        <time>2023-12-04T02:27:41.432Z</time>
      </trkpt>
      <trkpt lat="39.485046" lon="16.432327">
        <ele>997.901606</ele>
        <time>2023-12-04T02:27:47.725Z</time>
      </trkpt>
      <trkpt lat="39.484974" lon="16.432372">
        <ele>998.098456</ele>
        <time>2023-12-04T02:27:50.606Z</time>
      </trkpt>
      <trkpt lat="39.484871" lon="16.432372">
        <ele>998.352094</ele>
        <time>2023-12-04T02:27:54.161Z</time>
      </trkpt>
      <trkpt lat="39.484730" lon="16.432219">
        <ele>998.804988</ele>
        <time>2023-12-04T02:28:00.154Z</time>
      </trkpt>
      <trkpt lat="39.484661" lon="16.431720">
        <ele>1000.234417</ele>
        <time>2023-12-04T02:28:12.562Z</time>
      </trkpt>
      <trkpt lat="39.484326" lon="16.430778">
        <ele>1004.178560</ele>
        <time>2023-12-04T02:28:38.820Z</time>
      </trkpt>
      <trkpt lat="39.484204" lon="16.430565">
        <ele>1005.187221</ele>
        <time>2023-12-04T02:28:46.017Z</time>
      </trkpt>
      <trkpt lat="39.484078" lon="16.430432">
        <ele>1005.987975</ele>
        <time>2023-12-04T02:28:52.012Z</time>
      </trkpt>
      <trkpt lat="39.483972" lon="16.430358">
        <ele>1006.581234</ele>
        <time>2023-12-04T02:28:56.580Z</time>
      </trkpt>
      <trkpt lat="39.483796" lon="16.430363">
        <ele>1007.448611</ele>
        <time>2023-12-04T02:29:03.014Z</time>
      </trkpt>
      <trkpt lat="39.482006" lon="16.431034">
        <ele>1018.197634</ele>
        <time>2023-12-04T02:30:13.426Z</time>
      </trkpt>
      <trkpt lat="39.481724" lon="16.431187">
        <ele>1019.735344</ele>
        <time>2023-12-04T02:30:26.199Z</time>
      </trkpt>
      <trkpt lat="39.481240" lon="16.431572">
        <ele>1022.427134</ele>
        <time>2023-12-04T02:30:49.267Z</time>
      </trkpt>
      <trkpt lat="39.481175" lon="16.431730">
        <ele>1023.082099</ele>
        <time>2023-12-04T02:30:54.288Z</time>
      </trkpt>
      <trkpt lat="39.481088" lon="16.432283">
        <ele>1025.146655</ele>
        <time>2023-12-04T02:31:08.211Z</time>
      </trkpt>
      <trkpt lat="39.480890" lon="16.432851">
        <ele>1027.070793</ele>
        <time>2023-12-04T02:31:21.447Z</time>
      </trkpt>
      <trkpt lat="39.480851" lon="16.433043">
        <ele>1026.689659</ele>
        <time>2023-12-04T02:31:25.235Z</time>
      </trkpt>
      <trkpt lat="39.480851" lon="16.433142">
        <ele>1026.499608</ele>
        <time>2023-12-04T02:31:27.000Z</time>
      </trkpt>
      <trkpt lat="39.480885" lon="16.433193">
        <ele>1026.370238</ele>
        <time>2023-12-04T02:31:27.981Z</time>
      </trkpt>
      <trkpt lat="39.481015" lon="16.433310">
        <ele>1025.976545</ele>
        <time>2023-12-04T02:31:30.831Z</time>
      </trkpt>
      <trkpt lat="39.481396" lon="16.433463">
        <ele>1024.984450</ele>
        <time>2023-12-04T02:31:36.122Z</time>
      </trkpt>
      <trkpt lat="39.481640" lon="16.433606">
        <ele>1024.318374</ele>
        <time>2023-12-04T02:31:38.877Z</time>
      </trkpt>
      <trkpt lat="39.481941" lon="16.433902">
        <ele>1023.378506</ele>
        <time>2023-12-04T02:31:42.394Z</time>
      </trkpt>
      <trkpt lat="39.482097" lon="16.434159">
        <ele>1022.750854</ele>
        <time>2023-12-04T02:31:44.625Z</time>
      </trkpt>
      <trkpt lat="39.482154" lon="16.434277">
        <ele>1021.799290</ele>
        <time>2023-12-04T02:31:45.564Z</time>
      </trkpt>
      <trkpt lat="39.482185" lon="16.434440">
        <ele>1020.542698</ele>
        <time>2023-12-04T02:31:46.688Z</time>
      </trkpt>
      <trkpt lat="39.482364" lon="16.434820">
        <ele>1017.210405</ele>
        <time>2023-12-04T02:31:49.659Z</time>
      </trkpt>
      <trkpt lat="39.482482" lon="16.435141">
        <ele>1014.549040</ele>
        <time>2023-12-04T02:31:52.021Z</time>
      </trkpt>
      <trkpt lat="39.482501" lon="16.435669">
        <ele>1010.592548</ele>
        <time>2023-12-04T02:31:55.526Z</time>
      </trkpt>
      <trkpt lat="39.482528" lon="16.435847">
        <ele>1009.234691</ele>
        <time>2023-12-04T02:31:56.718Z</time>
      </trkpt>
      <trkpt lat="39.482730" lon="16.436193">
        <ele>1005.987340</ele>
        <time>2023-12-04T02:31:59.572Z</time>
      </trkpt>
      <trkpt lat="39.482752" lon="16.436306">
        <ele>1005.160076</ele>
        <time>2023-12-04T02:32:00.345Z</time>
      </trkpt>
      <trkpt lat="39.482741" lon="16.436370">
        <ele>1004.806543</ele>
        <time>2023-12-04T02:32:00.780Z</time>
      </trkpt>
      <trkpt lat="39.482692" lon="16.436444">
        <ele>1004.280827</ele>
        <time>2023-12-04T02:32:01.427Z</time>
      </trkpt>
      <trkpt lat="39.482585" lon="16.436484">
        <ele>1003.502838</ele>
        <time>2023-12-04T02:32:02.379Z</time>
      </trkpt>
      <trkpt lat="39.482383" lon="16.436375">
        <ele>1001.974183</ele>
        <time>2023-12-04T02:32:04.260Z</time>
      </trkpt>
      <trkpt lat="39.482257" lon="16.436350">
        <ele>1001.083691</ele>
        <time>2023-12-04T02:32:05.362Z</time>
      </trkpt>
      <trkpt lat="39.482173" lon="16.436375">
        <ele>1000.481588</ele>
        <time>2023-12-04T02:32:06.112Z</time>
      </trkpt>
      <trkpt lat="39.481987" lon="16.436504">
        <ele>999.007747</ele>
        <time>2023-12-04T02:32:07.980Z</time>
      </trkpt>
      <trkpt lat="39.481876" lon="16.436508">
        <ele>998.232007</ele>
        <time>2023-12-04T02:32:08.970Z</time>
      </trkpt>
      <trkpt lat="39.481682" lon="16.436365">
        <ele>996.672750</ele>
        <time>2023-12-04T02:32:11.029Z</time>
      </trkpt>
      <trkpt lat="39.481442" lon="16.436370">
        <ele>994.995905</ele>
        <time>2023-12-04T02:32:13.314Z</time>
      </trkpt>
      <trkpt lat="39.481442" lon="16.436370">
        <ele>994.995905</ele>
        <time>2023-12-04T02:32:13.315Z</time>
      </trkpt>
      <trkpt lat="39.481353" lon="16.436400">
        <ele>994.353457</ele>
        <time>2023-12-04T02:32:14.220Z</time>
      </trkpt>
      <trkpt lat="39.481311" lon="16.436499">
        <ele>993.744328</ele>
        <time>2023-12-04T02:32:15.093Z</time>
      </trkpt>
      <trkpt lat="39.481282" lon="16.436671">
        <ele>992.795037</ele>
        <time>2023-12-04T02:32:16.487Z</time>
      </trkpt>
      <trkpt lat="39.481209" lon="16.436815">
        <ele>992.823824</ele>
        <time>2023-12-04T02:32:17.875Z</time>
      </trkpt>
      <trkpt lat="39.481095" lon="16.436849">
        <ele>992.933061</ele>
        <time>2023-12-04T02:32:19.157Z</time>
      </trkpt>
      <trkpt lat="39.481011" lon="16.436824">
        <ele>993.013544</ele>
        <time>2023-12-04T02:32:20.100Z</time>
      </trkpt>
      <trkpt lat="39.480733" lon="16.436612">
        <ele>993.314771</ele>
        <time>2023-12-04T02:32:23.725Z</time>
      </trkpt>
      <trkpt lat="39.480596" lon="16.436415">
        <ele>993.505890</ele>
        <time>2023-12-04T02:32:26.161Z</time>
      </trkpt>
      <trkpt lat="39.480569" lon="16.436281">
        <ele>993.605707</ele>
        <time>2023-12-04T02:32:27.428Z</time>
      </trkpt>
      <trkpt lat="39.480413" lon="16.436143">
        <ele>993.782097</ele>
        <time>2023-12-04T02:32:31.324Z</time>
      </trkpt>
      <trkpt lat="39.480207" lon="16.436247">
        <ele>993.988549</ele>
        <time>2023-12-04T02:32:36.989Z</time>
      </trkpt>
      <trkpt lat="39.480093" lon="16.436257">
        <ele>994.095246</ele>
        <time>2023-12-04T02:32:40.667Z</time>
      </trkpt>
      <trkpt lat="39.479773" lon="16.436173">
        <ele>994.493550</ele>
        <time>2023-12-04T02:32:52.312Z</time>
      </trkpt>
      <trkpt lat="39.479645" lon="16.436190">
        <ele>995.775900</ele>
        <time>2023-12-04T02:32:57.898Z</time>
      </trkpt>
      <trkpt lat="39.479536" lon="16.436300">
        <ele>997.152873</ele>
        <time>2023-12-04T02:33:03.767Z</time>
      </trkpt>
      <trkpt lat="39.479419" lon="16.436481">
        <ele>998.968968</ele>
        <time>2023-12-04T02:33:12.705Z</time>
      </trkpt>
      <trkpt lat="39.479388" lon="16.436639">
        <ele>1000.223019</ele>
        <time>2023-12-04T02:33:18.968Z</time>
      </trkpt>
      <trkpt lat="39.479401" lon="16.436813">
        <ele>1001.567751</ele>
        <time>2023-12-04T02:33:26.139Z</time>
      </trkpt>
      <trkpt lat="39.479532" lon="16.437076">
        <ele>1003.975533</ele>
        <time>2023-12-04T02:33:39.877Z</time>
      </trkpt>
      <trkpt lat="39.479995" lon="16.437810">
        <ele>1011.267402</ele>
        <time>2023-12-04T02:34:26.586Z</time>
      </trkpt>
      <trkpt lat="39.480058" lon="16.438014">
        <ele>1012.922576</ele>
        <time>2023-12-04T02:34:38.067Z</time>
      </trkpt>
      <trkpt lat="39.480058" lon="16.438288">
        <ele>1014.915268</ele>
        <time>2023-12-04T02:34:51.909Z</time>
      </trkpt>
      <trkpt lat="39.479788" lon="16.438842">
        <ele>1019.680262</ele>
        <time>2023-12-04T02:35:23.832Z</time>
      </trkpt>
      <trkpt lat="39.479734" lon="16.439099">
        <ele>1021.617345</ele>
        <time>2023-12-04T02:35:34.940Z</time>
      </trkpt>
      <trkpt lat="39.479824" lon="16.439308">
        <ele>1023.357879</ele>
        <time>2023-12-04T02:35:44.699Z</time>
      </trkpt>
      <trkpt lat="39.480094" lon="16.439495">
        <ele>1026.242605</ele>
        <time>2023-12-04T02:35:59.129Z</time>
      </trkpt>
      <trkpt lat="39.480297" lon="16.439699">
        <ele>1028.663277</ele>
        <time>2023-12-04T02:36:09.417Z</time>
      </trkpt>
      <trkpt lat="39.480738" lon="16.439868">
        <ele>1030.602705</ele>
        <time>2023-12-04T02:36:23.714Z</time>
      </trkpt>
      <trkpt lat="39.480832" lon="16.439985">
        <ele>1031.043335</ele>
        <time>2023-12-04T02:36:26.511Z</time>
      </trkpt>
      <trkpt lat="39.480904" lon="16.440154">
        <ele>1031.546984</ele>
        <time>2023-12-04T02:36:29.434Z</time>
      </trkpt>
      <trkpt lat="39.480922" lon="16.440323">
        <ele>1031.992099</ele>
        <time>2023-12-04T02:36:32.201Z</time>
      </trkpt>
      <trkpt lat="39.480792" lon="16.440644">
        <ele>1032.937907</ele>
        <time>2023-12-04T02:36:37.790Z</time>
      </trkpt>
      <trkpt lat="39.480747" lon="16.440883">
        <ele>1033.579767</ele>
        <time>2023-12-04T02:36:42.134Z</time>
      </trkpt>
      <trkpt lat="39.480778" lon="16.441011">
        <ele>1033.929786</ele>
        <time>2023-12-04T02:36:45.006Z</time>
      </trkpt>
      <trkpt lat="39.481003" lon="16.441337">
        <ele>1035.070814</ele>
        <time>2023-12-04T02:36:55.540Z</time>
      </trkpt>
      <trkpt lat="39.481053" lon="16.441506">
        <ele>1035.637125</ele>
        <time>2023-12-04T02:37:00.343Z</time>
      </trkpt>
      <trkpt lat="39.481039" lon="16.441623">
        <ele>1036.091708</ele>
        <time>2023-12-04T02:37:03.352Z</time>
      </trkpt>
      <trkpt lat="39.480922" lon="16.441774">
        <ele>1036.913204</ele>
        <time>2023-12-04T02:37:09.123Z</time>
      </trkpt>
      <trkpt lat="39.480720" lon="16.441944">
        <ele>1038.111424</ele>
        <time>2023-12-04T02:37:17.281Z</time>
      </trkpt>
      <trkpt lat="39.480540" lon="16.442165">
        <ele>1039.345010</ele>
        <time>2023-12-04T02:37:25.765Z</time>
      </trkpt>
      <trkpt lat="39.480225" lon="16.442118">
        <ele>1040.922319</ele>
        <time>2023-12-04T02:37:36.574Z</time>
      </trkpt>
      <trkpt lat="39.480112" lon="16.442159">
        <ele>1041.506058</ele>
        <time>2023-12-04T02:37:40.502Z</time>
      </trkpt>
      <trkpt lat="39.480018" lon="16.442235">
        <ele>1042.057236</ele>
        <time>2023-12-04T02:37:44.527Z</time>
      </trkpt>
      <trkpt lat="39.479910" lon="16.442392">
        <ele>1042.864701</ele>
        <time>2023-12-04T02:37:50.725Z</time>
      </trkpt>
      <trkpt lat="39.479874" lon="16.442532">
        <ele>1043.431279</ele>
        <time>2023-12-04T02:37:54.826Z</time>
      </trkpt>
      <trkpt lat="39.479892" lon="16.442841">
        <ele>1044.589892</ele>
        <time>2023-12-04T02:38:04.180Z</time>
      </trkpt>
      <trkpt lat="39.479845" lon="16.443046">
        <ele>1045.333492</ele>
        <time>2023-12-04T02:38:10.452Z</time>
      </trkpt>
      <trkpt lat="39.479691" lon="16.443342">
        <ele>1046.574722</ele>
        <time>2023-12-04T02:38:21.006Z</time>
      </trkpt>
      <trkpt lat="39.479558" lon="16.443397">
        <ele>1047.203665</ele>
        <time>2023-12-04T02:38:26.016Z</time>
      </trkpt>
      <trkpt lat="39.479351" lon="16.443417">
        <ele>1048.138786</ele>
        <time>2023-12-04T02:38:33.335Z</time>
      </trkpt>
      <trkpt lat="39.479260" lon="16.443479">
        <ele>1048.601969</ele>
        <time>2023-12-04T02:38:36.737Z</time>
      </trkpt>
      <trkpt lat="39.479048" lon="16.443734">
        <ele>1049.905174</ele>
        <time>2023-12-04T02:38:46.023Z</time>
      </trkpt>
      <trkpt lat="39.478872" lon="16.444140">
        <ele>1051.524334</ele>
        <time>2023-12-04T02:38:56.371Z</time>
      </trkpt>
      <trkpt lat="39.478644" lon="16.444388">
        <ele>1052.881779</ele>
        <time>2023-12-04T02:39:04.322Z</time>
      </trkpt>
      <trkpt lat="39.478463" lon="16.444498">
        <ele>1053.813559</ele>
        <time>2023-12-04T02:39:09.481Z</time>
      </trkpt>
      <trkpt lat="39.478160" lon="16.444478">
        <ele>1055.227569</ele>
        <time>2023-12-04T02:39:16.879Z</time>
      </trkpt>
      <trkpt lat="39.477889" lon="16.444416">
        <ele>1056.510149</ele>
        <time>2023-12-04T02:39:23.705Z</time>
      </trkpt>
      <trkpt lat="39.477794" lon="16.444457">
        <ele>1056.976832</ele>
        <time>2023-12-04T02:39:26.567Z</time>
      </trkpt>
      <trkpt lat="39.477443" lon="16.445145">
        <ele>1059.943637</ele>
        <time>2023-12-04T02:39:50.118Z</time>
      </trkpt>
      <trkpt lat="39.477193" lon="16.445311">
        <ele>1061.751298</ele>
        <time>2023-12-04T02:40:03.997Z</time>
      </trkpt>
      <trkpt lat="39.477060" lon="16.445359">
        <ele>1063.067857</ele>
        <time>2023-12-04T02:40:11.053Z</time>
      </trkpt>
      <trkpt lat="39.476741" lon="16.445386">
        <ele>1066.116279</ele>
        <time>2023-12-04T02:40:27.311Z</time>
      </trkpt>
      <trkpt lat="39.476444" lon="16.445559">
        <ele>1069.221526</ele>
        <time>2023-12-04T02:40:43.807Z</time>
      </trkpt>
      <trkpt lat="39.475811" lon="16.445552">
        <ele>1075.257941</ele>
        <time>2023-12-04T02:41:18.760Z</time>
      </trkpt>
      <trkpt lat="39.475668" lon="16.445593">
        <ele>1076.654564</ele>
        <time>2023-12-04T02:41:27.336Z</time>
      </trkpt>
      <trkpt lat="39.475487" lon="16.445786">
        <ele>1078.778901</ele>
        <time>2023-12-04T02:41:42.084Z</time>
      </trkpt>
      <trkpt lat="39.475301" lon="16.446082">
        <ele>1081.263858</ele>
        <time>2023-12-04T02:42:00.338Z</time>
      </trkpt>
      <trkpt lat="39.475184" lon="16.446461">
        <ele>1083.921385</ele>
        <time>2023-12-04T02:42:18.779Z</time>
      </trkpt>
      <trkpt lat="39.475041" lon="16.446688">
        <ele>1085.828991</ele>
        <time>2023-12-04T02:42:30.592Z</time>
      </trkpt>
      <trkpt lat="39.474903" lon="16.446756">
        <ele>1087.074305</ele>
        <time>2023-12-04T02:42:37.522Z</time>
      </trkpt>
      <trkpt lat="39.474759" lon="16.446784">
        <ele>1088.302477</ele>
        <time>2023-12-04T02:42:43.896Z</time>
      </trkpt>
      <trkpt lat="39.474674" lon="16.446736">
        <ele>1089.084560</ele>
        <time>2023-12-04T02:42:47.813Z</time>
      </trkpt>
      <trkpt lat="39.474026" lon="16.446144">
        <ele>1094.217006</ele>
        <time>2023-12-04T02:43:15.684Z</time>
      </trkpt>
      <trkpt lat="39.473882" lon="16.446082">
        <ele>1094.752316</ele>
        <time>2023-12-04T02:43:20.418Z</time>
      </trkpt>
      <trkpt lat="39.473755" lon="16.446102">
        <ele>1095.203632</ele>
        <time>2023-12-04T02:43:24.679Z</time>
      </trkpt>
      <trkpt lat="39.473649" lon="16.446154">
        <ele>1095.603481</ele>
        <time>2023-12-04T02:43:28.202Z</time>
      </trkpt>
      <trkpt lat="39.473574" lon="16.446226">
        <ele>1095.932786</ele>
        <time>2023-12-04T02:43:30.981Z</time>
      </trkpt>
      <trkpt lat="39.472240" lon="16.448216">
        <ele>1102.466420</ele>
        <time>2023-12-04T02:44:21.961Z</time>
      </trkpt>
      <trkpt lat="39.472123" lon="16.448354">
        <ele>1102.926629</ele>
        <time>2023-12-04T02:44:25.573Z</time>
      </trkpt>
      <trkpt lat="39.472043" lon="16.448388">
        <ele>1103.171509</ele>
        <time>2023-12-04T02:44:27.459Z</time>
      </trkpt>
      <trkpt lat="39.471916" lon="16.448368">
        <ele>1103.543604</ele>
        <time>2023-12-04T02:44:30.860Z</time>
      </trkpt>
      <trkpt lat="39.471842" lon="16.448325">
        <ele>1103.779492</ele>
        <time>2023-12-04T02:44:32.969Z</time>
      </trkpt>
      <trkpt lat="39.471799" lon="16.448313">
        <ele>1103.907425</ele>
        <time>2023-12-04T02:44:34.181Z</time>
      </trkpt>
      <trkpt lat="39.471719" lon="16.448209">
        <ele>1104.237061</ele>
        <time>2023-12-04T02:44:37.136Z</time>
      </trkpt>
      <trkpt lat="39.471588" lon="16.447799">
        <ele>1105.865620</ele>
        <time>2023-12-04T02:44:47.742Z</time>
      </trkpt>
      <trkpt lat="39.471517" lon="16.447690">
        <ele>1106.548538</ele>
        <time>2023-12-04T02:44:51.653Z</time>
      </trkpt>
      <trkpt lat="39.471359" lon="16.447586">
        <ele>1107.647875</ele>
        <time>2023-12-04T02:44:58.107Z</time>
      </trkpt>
      <trkpt lat="39.471182" lon="16.447582">
        <ele>1108.745976</ele>
        <time>2023-12-04T02:45:04.938Z</time>
      </trkpt>
      <trkpt lat="39.471122" lon="16.447628">
        <ele>1109.178452</ele>
        <time>2023-12-04T02:45:07.703Z</time>
      </trkpt>
      <trkpt lat="39.471095" lon="16.448071">
        <ele>1111.306309</ele>
        <time>2023-12-04T02:45:22.162Z</time>
      </trkpt>
      <trkpt lat="39.471057" lon="16.448176">
        <ele>1111.861602</ele>
        <time>2023-12-04T02:45:26.276Z</time>
      </trkpt>
      <trkpt lat="39.470973" lon="16.448315">
        <ele>1112.706884</ele>
        <time>2023-12-04T02:45:31.992Z</time>
      </trkpt>
      <trkpt lat="39.470844" lon="16.448438">
        <ele>1113.700460</ele>
        <time>2023-12-04T02:45:39.031Z</time>
      </trkpt>
      <trkpt lat="39.470687" lon="16.448562">
        <ele>1114.841066</ele>
        <time>2023-12-04T02:45:47.245Z</time>
      </trkpt>
      <trkpt lat="39.470516" lon="16.448650">
        <ele>1116.013273</ele>
        <time>2023-12-04T02:45:55.653Z</time>
      </trkpt>
      <trkpt lat="39.470299" lon="16.448715">
        <ele>1117.678473</ele>
        <time>2023-12-04T02:46:05.909Z</time>
      </trkpt>
      <trkpt lat="39.469777" lon="16.448798">
        <ele>1121.610477</ele>
        <time>2023-12-04T02:46:29.657Z</time>
      </trkpt>
      <trkpt lat="39.469693" lon="16.448744">
        <ele>1122.311581</ele>
        <time>2023-12-04T02:46:34.214Z</time>
      </trkpt>
      <trkpt lat="39.469521" lon="16.448339">
        <ele>1124.979439</ele>
        <time>2023-12-04T02:46:51.014Z</time>
      </trkpt>
      <trkpt lat="39.469316" lon="16.447984">
        <ele>1127.538169</ele>
        <time>2023-12-04T02:47:06.934Z</time>
      </trkpt>
      <trkpt lat="39.469175" lon="16.447673">
        <ele>1129.554980</ele>
        <time>2023-12-04T02:47:18.712Z</time>
      </trkpt>
      <trkpt lat="39.469014" lon="16.447574">
        <ele>1130.633546</ele>
        <time>2023-12-04T02:47:25.889Z</time>
      </trkpt>
      <trkpt lat="39.468919" lon="16.447609">
        <ele>1131.231281</ele>
        <time>2023-12-04T02:47:29.610Z</time>
      </trkpt>
      <trkpt lat="39.468816" lon="16.447698">
        <ele>1131.980584</ele>
        <time>2023-12-04T02:47:34.291Z</time>
      </trkpt>
      <trkpt lat="39.468688" lon="16.447892">
        <ele>1133.172875</ele>
        <time>2023-12-04T02:47:41.199Z</time>
      </trkpt>
      <trkpt lat="39.468405" lon="16.448206">
        <ele>1135.427956</ele>
        <time>2023-12-04T02:47:54.445Z</time>
      </trkpt>
      <trkpt lat="39.468355" lon="16.448369">
        <ele>1136.247401</ele>
        <time>2023-12-04T02:47:59.404Z</time>
      </trkpt>
      <trkpt lat="39.468374" lon="16.448537">
        <ele>1137.040667</ele>
        <time>2023-12-04T02:48:04.612Z</time>
      </trkpt>
      <trkpt lat="39.468675" lon="16.449055">
        <ele>1140.069703</ele>
        <time>2023-12-04T02:48:26.068Z</time>
      </trkpt>
      <trkpt lat="39.468748" lon="16.449233">
        <ele>1140.651329</ele>
        <time>2023-12-04T02:48:32.479Z</time>
      </trkpt>
      <trkpt lat="39.468759" lon="16.449406">
        <ele>1141.117366</ele>
        <time>2023-12-04T02:48:38.053Z</time>
      </trkpt>
      <trkpt lat="39.468710" lon="16.449642">
        <ele>1141.773488</ele>
        <time>2023-12-04T02:48:45.132Z</time>
      </trkpt>
      <trkpt lat="39.468374" lon="16.450773">
        <ele>1145.027056</ele>
        <time>2023-12-04T02:49:11.105Z</time>
      </trkpt>
      <trkpt lat="39.468403" lon="16.452097">
        <ele>1146.241930</ele>
        <time>2023-12-04T02:49:28.850Z</time>
      </trkpt>
      <trkpt lat="39.468368" lon="16.452176">
        <ele>1146.221772</ele>
        <time>2023-12-04T02:49:29.844Z</time>
      </trkpt>
      <trkpt lat="39.468311" lon="16.452226">
        <ele>1146.202037</ele>
        <time>2023-12-04T02:49:30.702Z</time>
      </trkpt>
      <trkpt lat="39.468067" lon="16.452329">
        <ele>1146.128468</ele>
        <time>2023-12-04T02:49:33.972Z</time>
      </trkpt>
      <trkpt lat="39.467949" lon="16.452507">
        <ele>1146.076544</ele>
        <time>2023-12-04T02:49:36.092Z</time>
      </trkpt>
      <trkpt lat="39.467896" lon="16.452714">
        <ele>1146.028280</ele>
        <time>2023-12-04T02:49:38.084Z</time>
      </trkpt>
      <trkpt lat="39.467915" lon="16.453090">
        <ele>1145.944890</ele>
        <time>2023-12-04T02:49:41.637Z</time>
      </trkpt>
      <trkpt lat="39.467877" lon="16.453243">
        <ele>1145.909321</ele>
        <time>2023-12-04T02:49:43.162Z</time>
      </trkpt>
      <trkpt lat="39.467808" lon="16.453341">
        <ele>1145.825777</ele>
        <time>2023-12-04T02:49:44.424Z</time>
      </trkpt>
      <trkpt lat="39.467656" lon="16.453405">
        <ele>1145.679131</ele>
        <time>2023-12-04T02:49:46.426Z</time>
      </trkpt>
      <trkpt lat="39.467564" lon="16.453391">
        <ele>1145.594138</ele>
        <time>2023-12-04T02:49:47.564Z</time>
      </trkpt>
      <trkpt lat="39.467076" lon="16.453124">
        <ele>1145.108086</ele>
        <time>2023-12-04T02:49:54.147Z</time>
      </trkpt>
      <trkpt lat="39.466997" lon="16.453154">
        <ele>1145.032551</ele>
        <time>2023-12-04T02:49:55.205Z</time>
      </trkpt>
      <trkpt lat="39.466718" lon="16.453509">
        <ele>1144.673720</ele>
        <time>2023-12-04T02:50:00.102Z</time>
      </trkpt>
      <trkpt lat="39.466638" lon="16.453573">
        <ele>1144.587448</ele>
        <time>2023-12-04T02:50:01.272Z</time>
      </trkpt>
      <trkpt lat="39.466074" lon="16.453598">
        <ele>1143.797754</ele>
        <time>2023-12-04T02:50:08.462Z</time>
      </trkpt>
      <trkpt lat="39.465987" lon="16.453667">
        <ele>1143.566314</ele>
        <time>2023-12-04T02:50:09.721Z</time>
      </trkpt>
      <trkpt lat="39.465720" lon="16.454027">
        <ele>1142.691952</ele>
        <time>2023-12-04T02:50:14.165Z</time>
      </trkpt>
      <trkpt lat="39.465636" lon="16.454096">
        <ele>1142.466289</ele>
        <time>2023-12-04T02:50:15.246Z</time>
      </trkpt>
      <trkpt lat="39.465400" lon="16.454171">
        <ele>1141.914986</ele>
        <time>2023-12-04T02:50:17.822Z</time>
      </trkpt>
      <trkpt lat="39.465346" lon="16.454240">
        <ele>1141.742897</ele>
        <time>2023-12-04T02:50:18.601Z</time>
      </trkpt>
      <trkpt lat="39.465289" lon="16.454383">
        <ele>1141.461019</ele>
        <time>2023-12-04T02:50:19.867Z</time>
      </trkpt>
      <trkpt lat="39.465243" lon="16.454664">
        <ele>1140.957906</ele>
        <time>2023-12-04T02:50:22.103Z</time>
      </trkpt>
      <trkpt lat="39.465243" lon="16.454827">
        <ele>1140.672413</ele>
        <time>2023-12-04T02:50:23.364Z</time>
      </trkpt>
      <trkpt lat="39.465308" lon="16.455197">
        <ele>1139.900562</ele>
        <time>2023-12-04T02:50:26.295Z</time>
      </trkpt>
      <trkpt lat="39.465324" lon="16.455538">
        <ele>1138.915310</ele>
        <time>2023-12-04T02:50:28.932Z</time>
      </trkpt>
      <trkpt lat="39.465289" lon="16.455755">
        <ele>1138.275973</ele>
        <time>2023-12-04T02:50:30.655Z</time>
      </trkpt>
      <trkpt lat="39.465232" lon="16.455923">
        <ele>1137.746738</ele>
        <time>2023-12-04T02:50:32.069Z</time>
      </trkpt>
      <trkpt lat="39.465164" lon="16.456071">
        <ele>1137.250035</ele>
        <time>2023-12-04T02:50:33.419Z</time>
      </trkpt>
      <trkpt lat="39.464996" lon="16.456269">
        <ele>1136.401536</ele>
        <time>2023-12-04T02:50:35.687Z</time>
      </trkpt>
      <trkpt lat="39.464874" lon="16.456318">
        <ele>1135.924376</ele>
        <time>2023-12-04T02:50:36.967Z</time>
      </trkpt>
      <trkpt lat="39.464649" lon="16.456313">
        <ele>1135.083724</ele>
        <time>2023-12-04T02:50:39.184Z</time>
      </trkpt>
      <trkpt lat="39.463712" lon="16.455982">
        <ele>1130.922342</ele>
        <time>2023-12-04T02:50:48.510Z</time>
      </trkpt>
      <trkpt lat="39.463544" lon="16.455997">
        <ele>1130.125451</ele>
        <time>2023-12-04T02:50:50.088Z</time>
      </trkpt>
      <trkpt lat="39.463369" lon="16.456180">
        <ele>1129.061128</ele>
        <time>2023-12-04T02:50:52.200Z</time>
      </trkpt>
      <trkpt lat="39.463327" lon="16.456288">
        <ele>1128.619331</ele>
        <time>2023-12-04T02:50:53.082Z</time>
      </trkpt>
      <trkpt lat="39.463327" lon="16.456555">
        <ele>1127.643877</ele>
        <time>2023-12-04T02:50:55.027Z</time>
      </trkpt>
      <trkpt lat="39.463426" lon="16.457078">
        <ele>1125.676563</ele>
        <time>2023-12-04T02:50:58.927Z</time>
      </trkpt>
      <trkpt lat="39.463407" lon="16.457340">
        <ele>1124.782909</ele>
        <time>2023-12-04T02:51:00.863Z</time>
      </trkpt>
      <trkpt lat="39.463315" lon="16.457507">
        <ele>1124.256267</ele>
        <time>2023-12-04T02:51:02.376Z</time>
      </trkpt>
      <trkpt lat="39.462980" lon="16.457735">
        <ele>1122.997983</ele>
        <time>2023-12-04T02:51:06.094Z</time>
      </trkpt>
      <trkpt lat="39.462267" lon="16.457749">
        <ele>1120.626977</ele>
        <time>2023-12-04T02:51:13.397Z</time>
      </trkpt>
      <trkpt lat="39.462153" lon="16.457675">
        <ele>1120.202989</ele>
        <time>2023-12-04T02:51:14.763Z</time>
      </trkpt>
      <trkpt lat="39.462027" lon="16.457498">
        <ele>1119.584950</ele>
        <time>2023-12-04T02:51:16.674Z</time>
      </trkpt>
      <trkpt lat="39.461867" lon="16.457335">
        <ele>1118.922656</ele>
        <time>2023-12-04T02:51:18.843Z</time>
      </trkpt>
      <trkpt lat="39.461726" lon="16.457300">
        <ele>1118.573008</ele>
        <time>2023-12-04T02:51:20.333Z</time>
      </trkpt>
      <trkpt lat="39.461558" lon="16.457369">
        <ele>1118.143775</ele>
        <time>2023-12-04T02:51:22.221Z</time>
      </trkpt>
      <trkpt lat="39.461467" lon="16.457493">
        <ele>1117.822092</ele>
        <time>2023-12-04T02:51:23.642Z</time>
      </trkpt>
      <trkpt lat="39.461326" lon="16.457818">
        <ele>1117.121121</ele>
        <time>2023-12-04T02:51:26.767Z</time>
      </trkpt>
      <trkpt lat="39.460949" lon="16.458835">
        <ele>1114.999848</ele>
        <time>2023-12-04T02:51:36.180Z</time>
      </trkpt>
      <trkpt lat="39.460689" lon="16.459245">
        <ele>1113.962896</ele>
        <time>2023-12-04T02:51:40.323Z</time>
      </trkpt>
      <trkpt lat="39.459127" lon="16.461274">
        <ele>1109.012043</ele>
        <time>2023-12-04T02:52:03.585Z</time>
      </trkpt>
      <trkpt lat="39.458967" lon="16.461387">
        <ele>1108.762455</ele>
        <time>2023-12-04T02:52:05.772Z</time>
      </trkpt>
      <trkpt lat="39.458631" lon="16.461496">
        <ele>1108.288069</ele>
        <time>2023-12-04T02:52:10.157Z</time>
      </trkpt>
      <trkpt lat="39.457816" lon="16.461600">
        <ele>1107.384592</ele>
        <time>2023-12-04T02:52:21.016Z</time>
      </trkpt>
      <trkpt lat="39.457713" lon="16.461649">
        <ele>1107.353659</ele>
        <time>2023-12-04T02:52:22.631Z</time>
      </trkpt>
      <trkpt lat="39.457576" lon="16.461787">
        <ele>1107.304732</ele>
        <time>2023-12-04T02:52:24.915Z</time>
      </trkpt>
      <trkpt lat="39.457457" lon="16.461970">
        <ele>1107.252655</ele>
        <time>2023-12-04T02:52:27.702Z</time>
      </trkpt>
      <trkpt lat="39.456451" lon="16.464394">
        <ele>1107.118107</ele>
        <time>2023-12-04T02:52:57.342Z</time>
      </trkpt>
      <trkpt lat="39.455712" lon="16.465425">
        <ele>1107.942980</ele>
        <time>2023-12-04T02:53:15.856Z</time>
      </trkpt>
      <trkpt lat="39.455430" lon="16.465865">
        <ele>1109.000580</ele>
        <time>2023-12-04T02:53:25.300Z</time>
      </trkpt>
      <trkpt lat="39.455068" lon="16.467015">
        <ele>1111.297472</ele>
        <time>2023-12-04T02:53:50.775Z</time>
      </trkpt>
      <trkpt lat="39.454736" lon="16.467780">
        <ele>1113.875993</ele>
        <time>2023-12-04T02:54:12.733Z</time>
      </trkpt>
      <trkpt lat="39.454252" lon="16.468723">
        <ele>1117.457666</ele>
        <time>2023-12-04T02:54:41.511Z</time>
      </trkpt>
      <trkpt lat="39.453254" lon="16.470959">
        <ele>1123.791788</ele>
        <time>2023-12-04T02:55:38.284Z</time>
      </trkpt>
      <trkpt lat="39.452202" lon="16.472800">
        <ele>1125.205842</ele>
        <time>2023-12-04T02:56:08.892Z</time>
      </trkpt>
      <trkpt lat="39.451694" lon="16.474107">
        <ele>1124.090828</ele>
        <time>2023-12-04T02:56:23.047Z</time>
      </trkpt>
      <trkpt lat="39.451582" lon="16.474382">
        <ele>1123.774669</ele>
        <time>2023-12-04T02:56:25.725Z</time>
      </trkpt>
      <trkpt lat="39.451504" lon="16.474592">
        <ele>1123.537700</ele>
        <time>2023-12-04T02:56:27.775Z</time>
      </trkpt>
      <trkpt lat="39.451219" lon="16.475255">
        <ele>1122.670471</ele>
        <time>2023-12-04T02:56:34.132Z</time>
      </trkpt>
      <trkpt lat="39.451086" lon="16.475490">
        <ele>1122.220348</ele>
        <time>2023-12-04T02:56:36.545Z</time>
      </trkpt>
      <trkpt lat="39.450782" lon="16.475944">
        <ele>1121.291984</ele>
        <time>2023-12-04T02:56:41.387Z</time>
      </trkpt>
      <trkpt lat="39.449115" lon="16.477986">
        <ele>1118.635483</ele>
        <time>2023-12-04T02:57:07.317Z</time>
      </trkpt>
      <trkpt lat="39.448741" lon="16.478518">
        <ele>1118.681033</ele>
        <time>2023-12-04T02:57:19.344Z</time>
      </trkpt>
      <trkpt lat="39.448480" lon="16.478965">
        <ele>1120.279877</ele>
        <time>2023-12-04T02:57:30.769Z</time>
      </trkpt>
      <trkpt lat="39.447248" lon="16.481462">
        <ele>1129.267799</ele>
        <time>2023-12-04T02:58:45.440Z</time>
      </trkpt>
      <trkpt lat="39.446865" lon="16.482004">
        <ele>1131.665571</ele>
        <time>2023-12-04T02:59:03.124Z</time>
      </trkpt>
      <trkpt lat="39.445177" lon="16.483648">
        <ele>1139.737004</ele>
        <time>2023-12-04T03:00:06.480Z</time>
      </trkpt>
      <trkpt lat="39.444925" lon="16.483817">
        <ele>1140.751131</ele>
        <time>2023-12-04T03:00:14.623Z</time>
      </trkpt>
      <trkpt lat="39.444785" lon="16.483817">
        <ele>1141.251424</ele>
        <time>2023-12-04T03:00:18.646Z</time>
      </trkpt>
      <trkpt lat="39.444704" lon="16.483782">
        <ele>1141.556569</ele>
        <time>2023-12-04T03:00:21.140Z</time>
      </trkpt>
      <trkpt lat="39.444268" lon="16.483403">
        <ele>1143.433118</ele>
        <time>2023-12-04T03:00:36.495Z</time>
      </trkpt>
      <trkpt lat="39.444164" lon="16.483339">
        <ele>1143.844596</ele>
        <time>2023-12-04T03:00:39.832Z</time>
      </trkpt>
      <trkpt lat="39.444061" lon="16.483310">
        <ele>1144.221269</ele>
        <time>2023-12-04T03:00:42.923Z</time>
      </trkpt>
      <trkpt lat="39.443989" lon="16.483322">
        <ele>1144.480685</ele>
        <time>2023-12-04T03:00:44.994Z</time>
      </trkpt>
      <trkpt lat="39.443867" lon="16.483450">
        <ele>1145.041794</ele>
        <time>2023-12-04T03:00:49.506Z</time>
      </trkpt>
      <trkpt lat="39.443849" lon="16.483672">
        <ele>1145.657803</ele>
        <time>2023-12-04T03:00:54.446Z</time>
      </trkpt>
      <trkpt lat="39.443863" lon="16.483794">
        <ele>1145.984389</ele>
        <time>2023-12-04T03:00:57.171Z</time>
      </trkpt>
      <trkpt lat="39.443953" lon="16.484173">
        <ele>1146.971911</ele>
        <time>2023-12-04T03:01:05.884Z</time>
      </trkpt>
      <trkpt lat="39.443989" lon="16.484505">
        <ele>1147.806870</ele>
        <time>2023-12-04T03:01:13.433Z</time>
      </trkpt>
      <trkpt lat="39.443484" lon="16.486272">
        <ele>1152.113500</ele>
        <time>2023-12-04T03:01:54.046Z</time>
      </trkpt>
      <trkpt lat="39.443075" lon="16.487578">
        <ele>1154.014868</ele>
        <time>2023-12-04T03:02:16.387Z</time>
      </trkpt>
      <trkpt lat="39.442962" lon="16.487805">
        <ele>1154.379241</ele>
        <time>2023-12-04T03:02:19.856Z</time>
      </trkpt>
      <trkpt lat="39.441805" lon="16.488843">
        <ele>1157.635488</ele>
        <time>2023-12-04T03:02:48.818Z</time>
      </trkpt>
      <trkpt lat="39.441125" lon="16.489700">
        <ele>1160.315702</ele>
        <time>2023-12-04T03:03:18.944Z</time>
      </trkpt>
      <trkpt lat="39.440472" lon="16.490382">
        <ele>1163.344298</ele>
        <time>2023-12-04T03:03:47.487Z</time>
      </trkpt>
      <trkpt lat="39.440310" lon="16.490492">
        <ele>1164.004655</ele>
        <time>2023-12-04T03:03:52.908Z</time>
      </trkpt>
      <trkpt lat="39.440144" lon="16.490481">
        <ele>1164.604705</ele>
        <time>2023-12-04T03:03:57.397Z</time>
      </trkpt>
      <trkpt lat="39.439910" lon="16.490364">
        <ele>1165.510244</ele>
        <time>2023-12-04T03:04:03.117Z</time>
      </trkpt>
      <trkpt lat="39.439518" lon="16.490084">
        <ele>1165.493596</ele>
        <time>2023-12-04T03:04:11.282Z</time>
      </trkpt>
      <trkpt lat="39.439459" lon="16.489997">
        <ele>1165.455975</ele>
        <time>2023-12-04T03:04:12.540Z</time>
      </trkpt>
      <trkpt lat="39.439392" lon="16.489711">
        <ele>1165.358865</ele>
        <time>2023-12-04T03:04:15.697Z</time>
      </trkpt>
      <trkpt lat="39.439261" lon="16.489501">
        <ele>1165.271151</ele>
        <time>2023-12-04T03:04:18.316Z</time>
      </trkpt>
      <trkpt lat="39.438751" lon="16.489089">
        <ele>1165.018244</ele>
        <time>2023-12-04T03:04:25.449Z</time>
      </trkpt>
      <trkpt lat="39.438657" lon="16.489055">
        <ele>1164.977181</ele>
        <time>2023-12-04T03:04:26.556Z</time>
      </trkpt>
      <trkpt lat="39.438512" lon="16.489074">
        <ele>1164.915864</ele>
        <time>2023-12-04T03:04:28.215Z</time>
      </trkpt>
      <trkpt lat="39.438419" lon="16.489186">
        <ele>1164.806071</ele>
        <time>2023-12-04T03:04:29.582Z</time>
      </trkpt>
      <trkpt lat="39.438389" lon="16.489279">
        <ele>1164.732181</ele>
        <time>2023-12-04T03:04:30.444Z</time>
      </trkpt>
      <trkpt lat="39.438459" lon="16.489548">
        <ele>1164.524073</ele>
        <time>2023-12-04T03:04:32.815Z</time>
      </trkpt>
      <trkpt lat="39.438549" lon="16.489692">
        <ele>1164.388262</ele>
        <time>2023-12-04T03:04:34.352Z</time>
      </trkpt>
      <trkpt lat="39.438549" lon="16.489692">
        <ele>1164.388262</ele>
        <time>2023-12-04T03:04:34.353Z</time>
      </trkpt>
      <trkpt lat="39.438765" lon="16.490240">
        <ele>1163.937205</ele>
        <time>2023-12-04T03:04:39.672Z</time>
      </trkpt>
      <trkpt lat="39.438854" lon="16.491152">
        <ele>1163.263270</ele>
        <time>2023-12-04T03:04:49.632Z</time>
      </trkpt>
      <trkpt lat="39.438957" lon="16.491495">
        <ele>1163.484759</ele>
        <time>2023-12-04T03:04:54.867Z</time>
      </trkpt>
      <trkpt lat="39.439035" lon="16.491629">
        <ele>1163.654557</ele>
        <time>2023-12-04T03:04:57.409Z</time>
      </trkpt>
      <trkpt lat="39.439587" lon="16.492239">
        <ele>1164.605410</ele>
        <time>2023-12-04T03:05:11.778Z</time>
      </trkpt>
      <trkpt lat="39.439913" lon="16.492561">
        <ele>1165.142641</ele>
        <time>2023-12-04T03:05:20.599Z</time>
      </trkpt>
      <trkpt lat="39.440142" lon="16.492732">
        <ele>1165.489008</ele>
        <time>2023-12-04T03:05:26.499Z</time>
      </trkpt>
      <trkpt lat="39.440310" lon="16.492937">
        <ele>1165.869526</ele>
        <time>2023-12-04T03:05:32.025Z</time>
      </trkpt>
      <trkpt lat="39.440471" lon="16.493309">
        <ele>1166.444397</ele>
        <time>2023-12-04T03:05:39.752Z</time>
      </trkpt>
      <trkpt lat="39.440533" lon="16.493589">
        <ele>1166.837072</ele>
        <time>2023-12-04T03:05:44.865Z</time>
      </trkpt>
      <trkpt lat="39.440545" lon="16.493886">
        <ele>1167.238003</ele>
        <time>2023-12-04T03:05:50.170Z</time>
      </trkpt>
      <trkpt lat="39.440520" lon="16.494032">
        <ele>1167.439604</ele>
        <time>2023-12-04T03:05:52.783Z</time>
      </trkpt>
      <trkpt lat="39.440425" lon="16.494274">
        <ele>1167.805571</ele>
        <time>2023-12-04T03:05:57.276Z</time>
      </trkpt>
      <trkpt lat="39.440136" lon="16.495368">
        <ele>1169.224950</ele>
        <time>2023-12-04T03:06:15.064Z</time>
      </trkpt>
      <trkpt lat="39.440090" lon="16.495541">
        <ele>1169.420162</ele>
        <time>2023-12-04T03:06:17.727Z</time>
      </trkpt>
      <trkpt lat="39.440081" lon="16.495725">
        <ele>1169.616870</ele>
        <time>2023-12-04T03:06:20.614Z</time>
      </trkpt>
      <trkpt lat="39.440104" lon="16.496507">
        <ele>1170.451811</ele>
        <time>2023-12-04T03:06:32.403Z</time>
      </trkpt>
      <trkpt lat="39.439916" lon="16.497191">
        <ele>1171.301154</ele>
        <time>2023-12-04T03:06:43.518Z</time>
      </trkpt>
      <trkpt lat="39.439955" lon="16.497380">
        <ele>1171.853890</ele>
        <time>2023-12-04T03:06:46.700Z</time>
      </trkpt>
      <trkpt lat="39.440120" lon="16.497688">
        <ele>1172.912986</ele>
        <time>2023-12-04T03:06:53.957Z</time>
      </trkpt>
      <trkpt lat="39.440140" lon="16.497883">
        <ele>1173.468778</ele>
        <time>2023-12-04T03:06:58.094Z</time>
      </trkpt>
      <trkpt lat="39.440099" lon="16.497979">
        <ele>1173.778729</ele>
        <time>2023-12-04T03:07:00.561Z</time>
      </trkpt>
      <trkpt lat="39.439812" lon="16.498183">
        <ele>1174.976513</ele>
        <time>2023-12-04T03:07:10.674Z</time>
      </trkpt>
      <trkpt lat="39.439696" lon="16.498438">
        <ele>1175.812692</ele>
        <time>2023-12-04T03:07:18.230Z</time>
      </trkpt>
      <trkpt lat="39.439673" lon="16.498707">
        <ele>1176.577374</ele>
        <time>2023-12-04T03:07:25.205Z</time>
      </trkpt>
      <trkpt lat="39.439684" lon="16.498854">
        <ele>1176.994657</ele>
        <time>2023-12-04T03:07:29.077Z</time>
      </trkpt>
      <trkpt lat="39.439728" lon="16.499001">
        <ele>1177.440097</ele>
        <time>2023-12-04T03:07:33.267Z</time>
      </trkpt>
      <trkpt lat="39.440121" lon="16.499419">
        <ele>1180.504403</ele>
        <time>2023-12-04T03:07:51.290Z</time>
      </trkpt>
      <trkpt lat="39.440166" lon="16.499483">
        <ele>1180.940160</ele>
        <time>2023-12-04T03:07:53.777Z</time>
      </trkpt>
      <trkpt lat="39.440197" lon="16.499641">
        <ele>1181.760902</ele>
        <time>2023-12-04T03:07:58.579Z</time>
      </trkpt>
      <trkpt lat="39.440159" lon="16.499734">
        <ele>1182.290619</ele>
        <time>2023-12-04T03:08:01.766Z</time>
      </trkpt>
      <trkpt lat="39.439995" lon="16.499937">
        <ele>1183.769673</ele>
        <time>2023-12-04T03:08:10.850Z</time>
      </trkpt>
      <trkpt lat="39.439961" lon="16.500026">
        <ele>1184.269581</ele>
        <time>2023-12-04T03:08:14.062Z</time>
      </trkpt>
      <trkpt lat="39.439995" lon="16.500539">
        <ele>1186.861850</ele>
        <time>2023-12-04T03:08:31.710Z</time>
      </trkpt>
      <trkpt lat="39.439934" lon="16.501097">
        <ele>1189.725907</ele>
        <time>2023-12-04T03:08:51.899Z</time>
      </trkpt>
      <trkpt lat="39.440052" lon="16.501536">
        <ele>1192.360741</ele>
        <time>2023-12-04T03:09:08.649Z</time>
      </trkpt>
      <trkpt lat="39.440044" lon="16.501675">
        <ele>1193.150831</ele>
        <time>2023-12-04T03:09:13.621Z</time>
      </trkpt>
      <trkpt lat="39.439938" lon="16.502232">
        <ele>1196.402568</ele>
        <time>2023-12-04T03:09:33.763Z</time>
      </trkpt>
      <trkpt lat="39.439938" lon="16.502430">
        <ele>1197.524910</ele>
        <time>2023-12-04T03:09:40.688Z</time>
      </trkpt>
      <trkpt lat="39.440041" lon="16.502672">
        <ele>1199.091185</ele>
        <time>2023-12-04T03:09:50.313Z</time>
      </trkpt>
      <trkpt lat="39.440170" lon="16.502879">
        <ele>1200.598910</ele>
        <time>2023-12-04T03:09:59.388Z</time>
      </trkpt>
      <trkpt lat="39.440189" lon="16.503042">
        <ele>1201.533320</ele>
        <time>2023-12-04T03:10:04.833Z</time>
      </trkpt>
      <trkpt lat="39.440075" lon="16.503397">
        <ele>1202.975964</ele>
        <time>2023-12-04T03:10:17.092Z</time>
      </trkpt>
      <trkpt lat="39.439850" lon="16.503935">
        <ele>1203.949464</ele>
        <time>2023-12-04T03:10:34.521Z</time>
      </trkpt>
      <trkpt lat="39.439747" lon="16.504019">
        <ele>1204.200258</ele>
        <time>2023-12-04T03:10:38.453Z</time>
      </trkpt>
      <trkpt lat="39.439541" lon="16.504024">
        <ele>1204.624755</ele>
        <time>2023-12-04T03:10:44.400Z</time>
      </trkpt>
      <trkpt lat="39.439469" lon="16.504054">
        <ele>1204.780589</ele>
        <time>2023-12-04T03:10:46.280Z</time>
      </trkpt>
      <trkpt lat="39.439337" lon="16.504176">
        <ele>1205.114723</ele>
        <time>2023-12-04T03:10:49.390Z</time>
      </trkpt>
      <trkpt lat="39.439295" lon="16.504362">
        <ele>1205.423071</ele>
        <time>2023-12-04T03:10:51.641Z</time>
      </trkpt>
      <trkpt lat="39.439247" lon="16.504955">
        <ele>1206.371803</ele>
        <time>2023-12-04T03:10:56.659Z</time>
      </trkpt>
      <trkpt lat="39.439203" lon="16.505033">
        <ele>1206.060000</ele>
        <time>2023-12-04T03:10:57.399Z</time>
      </trkpt>
      <trkpt lat="39.438780" lon="16.505500">
        <ele>1203.143760</ele>
        <time>2023-12-04T03:11:02.675Z</time>
      </trkpt>
      <trkpt lat="39.438712" lon="16.505650">
        <ele>1202.439056</ele>
        <time>2023-12-04T03:11:03.902Z</time>
      </trkpt>
      <trkpt lat="39.438711" lon="16.506024">
        <ele>1200.923747</ele>
        <time>2023-12-04T03:11:06.530Z</time>
      </trkpt>
      <trkpt lat="39.438733" lon="16.506176">
        <ele>1200.297182</ele>
        <time>2023-12-04T03:11:07.615Z</time>
      </trkpt>
      <trkpt lat="39.438854" lon="16.506534">
        <ele>1198.713889</ele>
        <time>2023-12-04T03:11:10.357Z</time>
      </trkpt>
      <trkpt lat="39.438886" lon="16.506697">
        <ele>1198.032477</ele>
        <time>2023-12-04T03:11:11.529Z</time>
      </trkpt>
      <trkpt lat="39.438884" lon="16.507259">
        <ele>1196.252195</ele>
        <time>2023-12-04T03:11:15.526Z</time>
      </trkpt>
      <trkpt lat="39.438979" lon="16.507585">
        <ele>1195.423459</ele>
        <time>2023-12-04T03:11:18.013Z</time>
      </trkpt>
      <trkpt lat="39.439184" lon="16.507949">
        <ele>1194.351957</ele>
        <time>2023-12-04T03:11:21.390Z</time>
      </trkpt>
      <trkpt lat="39.439288" lon="16.508066">
        <ele>1193.927666</ele>
        <time>2023-12-04T03:11:22.854Z</time>
      </trkpt>
      <trkpt lat="39.439693" lon="16.508183">
        <ele>1192.649725</ele>
        <time>2023-12-04T03:11:27.685Z</time>
      </trkpt>
      <trkpt lat="39.439840" lon="16.508257">
        <ele>1192.164002</ele>
        <time>2023-12-04T03:11:29.742Z</time>
      </trkpt>
      <trkpt lat="39.439922" lon="16.508385">
        <ele>1191.768456</ele>
        <time>2023-12-04T03:11:31.495Z</time>
      </trkpt>
      <trkpt lat="39.440095" lon="16.509089">
        <ele>1190.973020</ele>
        <time>2023-12-04T03:11:39.258Z</time>
      </trkpt>
      <trkpt lat="39.440232" lon="16.509300">
        <ele>1190.765277</ele>
        <time>2023-12-04T03:11:42.060Z</time>
      </trkpt>
      <trkpt lat="39.440308" lon="16.509400">
        <ele>1190.659545</ele>
        <time>2023-12-04T03:11:43.392Z</time>
      </trkpt>
      <trkpt lat="39.440373" lon="16.509567">
        <ele>1190.518612</ele>
        <time>2023-12-04T03:11:45.175Z</time>
      </trkpt>
      <trkpt lat="39.440357" lon="16.509729">
        <ele>1190.395533</ele>
        <time>2023-12-04T03:11:46.845Z</time>
      </trkpt>
      <trkpt lat="39.440242" lon="16.509892">
        <ele>1190.229153</ele>
        <time>2023-12-04T03:11:48.922Z</time>
      </trkpt>
      <trkpt lat="39.440138" lon="16.509963">
        <ele>1190.114426</ele>
        <time>2023-12-04T03:11:50.294Z</time>
      </trkpt>
      <trkpt lat="39.439805" lon="16.510052">
        <ele>1189.782630</ele>
        <time>2023-12-04T03:11:54.061Z</time>
      </trkpt>
      <trkpt lat="39.439608" lon="16.510202">
        <ele>1189.719102</ele>
        <time>2023-12-04T03:11:56.655Z</time>
      </trkpt>
      <trkpt lat="39.439383" lon="16.510547">
        <ele>1189.899129</ele>
        <time>2023-12-04T03:12:00.740Z</time>
      </trkpt>
      <trkpt lat="39.439216" lon="16.511138">
        <ele>1190.150026</ele>
        <time>2023-12-04T03:12:06.853Z</time>
      </trkpt>
      <trkpt lat="39.439106" lon="16.511217">
        <ele>1190.214961</ele>
        <time>2023-12-04T03:12:08.465Z</time>
      </trkpt>
      <trkpt lat="39.438879" lon="16.511196">
        <ele>1190.332443</ele>
        <time>2023-12-04T03:12:12.031Z</time>
      </trkpt>
      <trkpt lat="39.438730" lon="16.511226">
        <ele>1190.410286</ele>
        <time>2023-12-04T03:12:15.096Z</time>
      </trkpt>
      <trkpt lat="39.438642" lon="16.511359">
        <ele>1190.480110</ele>
        <time>2023-12-04T03:12:18.366Z</time>
      </trkpt>
      <trkpt lat="39.438628" lon="16.511559">
        <ele>1190.560174</ele>
        <time>2023-12-04T03:12:22.685Z</time>
      </trkpt>
      <trkpt lat="39.438657" lon="16.511694">
        <ele>1190.894803</ele>
        <time>2023-12-04T03:12:25.945Z</time>
      </trkpt>
      <trkpt lat="39.438889" lon="16.512350">
        <ele>1194.579340</ele>
        <time>2023-12-04T03:12:47.206Z</time>
      </trkpt>
      <trkpt lat="39.438939" lon="16.512756">
        <ele>1196.678852</ele>
        <time>2023-12-04T03:13:01.155Z</time>
      </trkpt>
      <trkpt lat="39.438947" lon="16.513035">
        <ele>1198.104601</ele>
        <time>2023-12-04T03:13:11.287Z</time>
      </trkpt>
      <trkpt lat="39.438930" lon="16.513200">
        <ele>1198.954670</ele>
        <time>2023-12-04T03:13:17.673Z</time>
      </trkpt>
      <trkpt lat="39.438803" lon="16.514025">
        <ele>1202.942682</ele>
        <time>2023-12-04T03:13:48.504Z</time>
      </trkpt>
      <trkpt lat="39.438808" lon="16.514591">
        <ele>1204.669842</ele>
        <time>2023-12-04T03:14:07.659Z</time>
      </trkpt>
      <trkpt lat="39.438713" lon="16.515119">
        <ele>1206.324085</ele>
        <time>2023-12-04T03:14:23.887Z</time>
      </trkpt>
      <trkpt lat="39.437948" lon="16.518548">
        <ele>1209.927518</ele>
        <time>2023-12-04T03:15:08.697Z</time>
      </trkpt>
      <trkpt lat="39.437882" lon="16.518875">
        <ele>1209.692112</ele>
        <time>2023-12-04T03:15:11.912Z</time>
      </trkpt>
      <trkpt lat="39.437881" lon="16.518971">
        <ele>1209.625242</ele>
        <time>2023-12-04T03:15:12.803Z</time>
      </trkpt>
      <trkpt lat="39.437926" lon="16.519378">
        <ele>1209.338874</ele>
        <time>2023-12-04T03:15:16.718Z</time>
      </trkpt>
      <trkpt lat="39.438164" lon="16.520591">
        <ele>1208.467179</ele>
        <time>2023-12-04T03:15:28.219Z</time>
      </trkpt>
      <trkpt lat="39.438221" lon="16.520749">
        <ele>1208.416001</ele>
        <time>2023-12-04T03:15:29.773Z</time>
      </trkpt>
      <trkpt lat="39.438347" lon="16.520912">
        <ele>1208.400759</ele>
        <time>2023-12-04T03:15:31.789Z</time>
      </trkpt>
      <trkpt lat="39.438530" lon="16.521055">
        <ele>1208.382468</ele>
        <time>2023-12-04T03:15:34.327Z</time>
      </trkpt>
      <trkpt lat="39.438629" lon="16.521178">
        <ele>1208.370726</ele>
        <time>2023-12-04T03:15:36.038Z</time>
      </trkpt>
      <trkpt lat="39.438660" lon="16.521346">
        <ele>1208.359311</ele>
        <time>2023-12-04T03:15:37.835Z</time>
      </trkpt>
      <trkpt lat="39.438587" lon="16.521864">
        <ele>1208.324510</ele>
        <time>2023-12-04T03:15:43.938Z</time>
      </trkpt>
      <trkpt lat="39.438584" lon="16.522096">
        <ele>1208.309175</ele>
        <time>2023-12-04T03:15:46.910Z</time>
      </trkpt>
      <trkpt lat="39.438721" lon="16.522595">
        <ele>1208.274174</ele>
        <time>2023-12-04T03:15:54.599Z</time>
      </trkpt>
      <trkpt lat="39.438831" lon="16.522788">
        <ele>1208.499105</ele>
        <time>2023-12-04T03:15:58.331Z</time>
      </trkpt>
      <trkpt lat="39.438972" lon="16.522901">
        <ele>1208.791970</ele>
        <time>2023-12-04T03:16:01.569Z</time>
      </trkpt>
      <trkpt lat="39.439106" lon="16.522921">
        <ele>1209.030199</ele>
        <time>2023-12-04T03:16:04.387Z</time>
      </trkpt>
      <trkpt lat="39.439220" lon="16.522862">
        <ele>1209.247026</ele>
        <time>2023-12-04T03:16:06.880Z</time>
      </trkpt>
      <trkpt lat="39.439403" lon="16.522640">
        <ele>1209.689915</ele>
        <time>2023-12-04T03:16:12.208Z</time>
      </trkpt>
      <trkpt lat="39.439781" lon="16.522284">
        <ele>1210.515429</ele>
        <time>2023-12-04T03:16:22.805Z</time>
      </trkpt>
      <trkpt lat="39.439998" lon="16.522181">
        <ele>1210.923619</ele>
        <time>2023-12-04T03:16:28.396Z</time>
      </trkpt>
      <trkpt lat="39.440246" lon="16.522156">
        <ele>1211.362946</ele>
        <time>2023-12-04T03:16:34.544Z</time>
      </trkpt>
      <trkpt lat="39.440600" lon="16.522181">
        <ele>1211.950405</ele>
        <time>2023-12-04T03:16:43.126Z</time>
      </trkpt>
      <trkpt lat="39.440783" lon="16.522314">
        <ele>1212.294634</ele>
        <time>2023-12-04T03:16:47.944Z</time>
      </trkpt>
      <trkpt lat="39.440837" lon="16.522413">
        <ele>1212.448172</ele>
        <time>2023-12-04T03:16:50.032Z</time>
      </trkpt>
      <trkpt lat="39.440883" lon="16.522521">
        <ele>1212.604413</ele>
        <time>2023-12-04T03:16:52.119Z</time>
      </trkpt>
      <trkpt lat="39.440883" lon="16.522649">
        <ele>1212.766562</ele>
        <time>2023-12-04T03:16:54.241Z</time>
      </trkpt>
      <trkpt lat="39.440409" lon="16.523896">
        <ele>1214.455663</ele>
        <time>2023-12-04T03:17:15.882Z</time>
      </trkpt>
      <trkpt lat="39.439994" lon="16.524908">
        <ele>1215.112929</ele>
        <time>2023-12-04T03:17:32.296Z</time>
      </trkpt>
      <trkpt lat="39.439117" lon="16.525845">
        <ele>1216.179862</ele>
        <time>2023-12-04T03:17:50.909Z</time>
      </trkpt>
      <trkpt lat="39.438994" lon="16.525989">
        <ele>1216.424750</ele>
        <time>2023-12-04T03:17:53.806Z</time>
      </trkpt>
      <trkpt lat="39.438925" lon="16.526127">
        <ele>1216.612251</ele>
        <time>2023-12-04T03:17:56.028Z</time>
      </trkpt>
      <trkpt lat="39.438760" lon="16.526602">
        <ele>1217.206289</ele>
        <time>2023-12-04T03:18:03.464Z</time>
      </trkpt>
      <trkpt lat="39.438505" lon="16.527483">
        <ele>1218.279364</ele>
        <time>2023-12-04T03:18:20.223Z</time>
      </trkpt>
      <trkpt lat="39.438399" lon="16.528275">
        <ele>1220.064819</ele>
        <time>2023-12-04T03:18:37.607Z</time>
      </trkpt>
      <trkpt lat="39.438335" lon="16.528481">
        <ele>1220.590512</ele>
        <time>2023-12-04T03:18:42.957Z</time>
      </trkpt>
      <trkpt lat="39.438032" lon="16.528929">
        <ele>1222.000388</ele>
        <time>2023-12-04T03:18:56.862Z</time>
      </trkpt>
      <trkpt lat="39.437272" lon="16.529817">
        <ele>1223.887377</ele>
        <time>2023-12-04T03:19:23.131Z</time>
      </trkpt>
      <trkpt lat="39.436846" lon="16.530636">
        <ele>1223.858923</ele>
        <time>2023-12-04T03:19:35.267Z</time>
      </trkpt>
      <trkpt lat="39.436713" lon="16.530836">
        <ele>1223.851318</ele>
        <time>2023-12-04T03:19:37.640Z</time>
      </trkpt>
      <trkpt lat="39.436639" lon="16.530891">
        <ele>1223.848134</ele>
        <time>2023-12-04T03:19:38.612Z</time>
      </trkpt>
      <trkpt lat="39.436495" lon="16.530919">
        <ele>1223.842701</ele>
        <time>2023-12-04T03:19:40.177Z</time>
      </trkpt>
      <trkpt lat="39.436281" lon="16.530918">
        <ele>1223.808352</ele>
        <time>2023-12-04T03:19:42.423Z</time>
      </trkpt>
      <trkpt lat="39.436168" lon="16.531031">
        <ele>1223.567353</ele>
        <time>2023-12-04T03:19:43.861Z</time>
      </trkpt>
      <trkpt lat="39.436139" lon="16.531574">
        <ele>1222.857788</ele>
        <time>2023-12-04T03:19:48.083Z</time>
      </trkpt>
      <trkpt lat="39.436110" lon="16.531716">
        <ele>1222.666309</ele>
        <time>2023-12-04T03:19:49.269Z</time>
      </trkpt>
      <trkpt lat="39.436055" lon="16.531829">
        <ele>1222.492185</ele>
        <time>2023-12-04T03:19:50.342Z</time>
      </trkpt>
      <trkpt lat="39.435849" lon="16.531904">
        <ele>1222.130988</ele>
        <time>2023-12-04T03:19:52.726Z</time>
      </trkpt>
      <trkpt lat="39.435761" lon="16.531967">
        <ele>1221.961258</ele>
        <time>2023-12-04T03:19:53.836Z</time>
      </trkpt>
      <trkpt lat="39.435723" lon="16.532080">
        <ele>1221.800588</ele>
        <time>2023-12-04T03:19:54.930Z</time>
      </trkpt>
      <trkpt lat="39.435642" lon="16.532611">
        <ele>1221.094979</ele>
        <time>2023-12-04T03:20:00.187Z</time>
      </trkpt>
      <trkpt lat="39.435600" lon="16.532746">
        <ele>1220.905245</ele>
        <time>2023-12-04T03:20:01.781Z</time>
      </trkpt>
      <trkpt lat="39.435519" lon="16.532916">
        <ele>1220.947163</ele>
        <time>2023-12-04T03:20:03.927Z</time>
      </trkpt>
      <trkpt lat="39.435439" lon="16.533004">
        <ele>1221.116688</ele>
        <time>2023-12-04T03:20:05.725Z</time>
      </trkpt>
      <trkpt lat="39.435345" lon="16.533025">
        <ele>1221.270735</ele>
        <time>2023-12-04T03:20:07.344Z</time>
      </trkpt>
      <trkpt lat="39.435200" lon="16.532954">
        <ele>1221.521087</ele>
        <time>2023-12-04T03:20:09.887Z</time>
      </trkpt>
      <trkpt lat="39.435135" lon="16.532837">
        <ele>1221.700851</ele>
        <time>2023-12-04T03:20:12.063Z</time>
      </trkpt>
      <trkpt lat="39.434913" lon="16.531858">
        <ele>1222.973490</ele>
        <time>2023-12-04T03:20:30.233Z</time>
      </trkpt>
      <trkpt lat="39.434770" lon="16.531683">
        <ele>1223.291257</ele>
        <time>2023-12-04T03:20:35.202Z</time>
      </trkpt>
      <trkpt lat="39.434625" lon="16.531687">
        <ele>1223.525476</ele>
        <time>2023-12-04T03:20:39.282Z</time>
      </trkpt>
      <trkpt lat="39.433901" lon="16.532017">
        <ele>1225.069784</ele>
        <time>2023-12-04T03:20:59.141Z</time>
      </trkpt>
      <trkpt lat="39.433831" lon="16.532047">
        <ele>1225.223066</ele>
        <time>2023-12-04T03:21:00.885Z</time>
      </trkpt>
      <trkpt lat="39.433657" lon="16.532047">
        <ele>1225.584779</ele>
        <time>2023-12-04T03:21:04.930Z</time>
      </trkpt>
      <trkpt lat="39.433017" lon="16.531980">
        <ele>1226.919560</ele>
        <time>2023-12-04T03:21:19.101Z</time>
      </trkpt>
      <trkpt lat="39.431820" lon="16.532068">
        <ele>1228.091143</ele>
        <time>2023-12-04T03:21:43.063Z</time>
      </trkpt>
      <trkpt lat="39.431368" lon="16.532339">
        <ele>1228.431985</ele>
        <time>2023-12-04T03:21:51.053Z</time>
      </trkpt>
      <trkpt lat="39.430935" lon="16.532655">
        <ele>1228.606393</ele>
        <time>2023-12-04T03:21:57.738Z</time>
      </trkpt>
      <trkpt lat="39.430065" lon="16.533249">
        <ele>1228.144537</ele>
        <time>2023-12-04T03:22:10.680Z</time>
      </trkpt>
      <trkpt lat="39.429750" lon="16.533480">
        <ele>1227.974541</ele>
        <time>2023-12-04T03:22:15.254Z</time>
      </trkpt>
      <trkpt lat="39.429691" lon="16.533570">
        <ele>1227.931726</ele>
        <time>2023-12-04T03:22:16.443Z</time>
      </trkpt>
      <trkpt lat="39.429607" lon="16.533721">
        <ele>1227.864232</ele>
        <time>2023-12-04T03:22:18.242Z</time>
      </trkpt>
      <trkpt lat="39.429324" lon="16.534287">
        <ele>1228.473101</ele>
        <time>2023-12-04T03:22:25.300Z</time>
      </trkpt>
      <trkpt lat="39.429040" lon="16.534676">
        <ele>1229.069624</ele>
        <time>2023-12-04T03:22:32.858Z</time>
      </trkpt>
      <trkpt lat="39.428255" lon="16.535361">
        <ele>1230.449236</ele>
        <time>2023-12-04T03:22:56.427Z</time>
      </trkpt>
      <trkpt lat="39.426967" lon="16.536682">
        <ele>1235.744947</ele>
        <time>2023-12-04T03:23:43.754Z</time>
      </trkpt>
      <trkpt lat="39.426118" lon="16.537418">
        <ele>1238.108217</ele>
        <time>2023-12-04T03:24:09.499Z</time>
      </trkpt>
      <trkpt lat="39.425986" lon="16.537602">
        <ele>1238.527030</ele>
        <time>2023-12-04T03:24:13.580Z</time>
      </trkpt>
      <trkpt lat="39.425908" lon="16.537773">
        <ele>1238.858242</ele>
        <time>2023-12-04T03:24:17.412Z</time>
      </trkpt>
      <trkpt lat="39.425834" lon="16.537982">
        <ele>1239.241692</ele>
        <time>2023-12-04T03:24:20.907Z</time>
      </trkpt>
      <trkpt lat="39.425792" lon="16.538208">
        <ele>1239.629377</ele>
        <time>2023-12-04T03:24:25.080Z</time>
      </trkpt>
      <trkpt lat="39.425721" lon="16.538642">
        <ele>1240.249074</ele>
        <time>2023-12-04T03:24:32.007Z</time>
      </trkpt>
      <trkpt lat="39.425482" lon="16.539039">
        <ele>1240.707386</ele>
        <time>2023-12-04T03:24:39.538Z</time>
      </trkpt>
      <trkpt lat="39.424552" lon="16.540051">
        <ele>1242.139511</ele>
        <time>2023-12-04T03:25:03.800Z</time>
      </trkpt>
      <trkpt lat="39.424049" lon="16.540699">
        <ele>1242.346016</ele>
        <time>2023-12-04T03:25:15.211Z</time>
      </trkpt>
      <trkpt lat="39.423791" lon="16.540872">
        <ele>1242.401291</ele>
        <time>2023-12-04T03:25:19.850Z</time>
      </trkpt>
      <trkpt lat="39.423628" lon="16.540907">
        <ele>1242.432724</ele>
        <time>2023-12-04T03:25:22.533Z</time>
      </trkpt>
      <trkpt lat="39.423365" lon="16.540811">
        <ele>1242.484707</ele>
        <time>2023-12-04T03:25:27.098Z</time>
      </trkpt>
      <trkpt lat="39.423100" lon="16.540618">
        <ele>1242.542551</ele>
        <time>2023-12-04T03:25:31.964Z</time>
      </trkpt>
      <trkpt lat="39.422946" lon="16.540634">
        <ele>1242.547182</ele>
        <time>2023-12-04T03:25:34.128Z</time>
      </trkpt>
      <trkpt lat="39.422850" lon="16.540697">
        <ele>1242.466093</ele>
        <time>2023-12-04T03:25:35.472Z</time>
      </trkpt>
      <trkpt lat="39.422764" lon="16.540833">
        <ele>1242.363806</ele>
        <time>2023-12-04T03:25:37.185Z</time>
      </trkpt>
      <trkpt lat="39.422534" lon="16.541738">
        <ele>1241.809335</ele>
        <time>2023-12-04T03:25:45.274Z</time>
      </trkpt>
      <trkpt lat="39.422429" lon="16.541894">
        <ele>1241.688916</ele>
        <time>2023-12-04T03:25:47.037Z</time>
      </trkpt>
      <trkpt lat="39.422320" lon="16.541987">
        <ele>1241.590564</ele>
        <time>2023-12-04T03:25:48.575Z</time>
      </trkpt>
      <trkpt lat="39.422196" lon="16.542028">
        <ele>1241.494143</ele>
        <time>2023-12-04T03:25:50.123Z</time>
      </trkpt>
      <trkpt lat="39.421538" lon="16.542089">
        <ele>1242.412676</ele>
        <time>2023-12-04T03:26:01.511Z</time>
      </trkpt>
      <trkpt lat="39.421077" lon="16.542244">
        <ele>1244.419499</ele>
        <time>2023-12-04T03:26:13.821Z</time>
      </trkpt>
      <trkpt lat="39.420739" lon="16.542439">
        <ele>1245.978658</ele>
        <time>2023-12-04T03:26:25.661Z</time>
      </trkpt>
      <trkpt lat="39.420692" lon="16.542566">
        <ele>1246.437012</ele>
        <time>2023-12-04T03:26:29.706Z</time>
      </trkpt>
      <trkpt lat="39.420746" lon="16.542755">
        <ele>1247.092908</ele>
        <time>2023-12-04T03:26:35.649Z</time>
      </trkpt>
      <trkpt lat="39.420901" lon="16.543099">
        <ele>1248.389122</ele>
        <time>2023-12-04T03:26:48.738Z</time>
      </trkpt>
      <trkpt lat="39.421156" lon="16.543476">
        <ele>1250.878547</ele>
        <time>2023-12-04T03:27:07.441Z</time>
      </trkpt>
      <trkpt lat="39.421196" lon="16.543617">
        <ele>1251.708704</ele>
        <time>2023-12-04T03:27:13.089Z</time>
      </trkpt>
      <trkpt lat="39.421188" lon="16.543709">
        <ele>1252.220376</ele>
        <time>2023-12-04T03:27:16.856Z</time>
      </trkpt>
      <trkpt lat="39.421149" lon="16.543775">
        <ele>1252.679621</ele>
        <time>2023-12-04T03:27:20.241Z</time>
      </trkpt>
      <trkpt lat="39.421092" lon="16.543790">
        <ele>1253.095762</ele>
        <time>2023-12-04T03:27:23.294Z</time>
      </trkpt>
      <trkpt lat="39.420906" lon="16.543680">
        <ele>1254.558771</ele>
        <time>2023-12-04T03:27:33.837Z</time>
      </trkpt>
      <trkpt lat="39.420735" lon="16.543534">
        <ele>1256.024311</ele>
        <time>2023-12-04T03:27:44.232Z</time>
      </trkpt>
      <trkpt lat="39.420276" lon="16.543415">
        <ele>1259.373383</ele>
        <time>2023-12-04T03:28:05.566Z</time>
      </trkpt>
      <trkpt lat="39.419987" lon="16.543189">
        <ele>1261.666155</ele>
        <time>2023-12-04T03:28:17.751Z</time>
      </trkpt>
      <trkpt lat="39.419656" lon="16.543026">
        <ele>1261.816301</ele>
        <time>2023-12-04T03:28:27.102Z</time>
      </trkpt>
      <trkpt lat="39.419066" lon="16.542807">
        <ele>1262.076524</ele>
        <time>2023-12-04T03:28:36.283Z</time>
      </trkpt>
      <trkpt lat="39.418739" lon="16.542648">
        <ele>1262.224620</ele>
        <time>2023-12-04T03:28:40.238Z</time>
      </trkpt>
      <trkpt lat="39.418581" lon="16.542534">
        <ele>1262.301311</ele>
        <time>2023-12-04T03:28:42.217Z</time>
      </trkpt>
      <trkpt lat="39.418380" lon="16.542296">
        <ele>1262.416803</ele>
        <time>2023-12-04T03:28:45.232Z</time>
      </trkpt>
      <trkpt lat="39.418162" lon="16.542128">
        <ele>1262.336648</ele>
        <time>2023-12-04T03:28:48.125Z</time>
      </trkpt>
      <trkpt lat="39.417705" lon="16.541889">
        <ele>1262.166168</ele>
        <time>2023-12-04T03:28:54.086Z</time>
      </trkpt>
      <trkpt lat="39.417423" lon="16.541799">
        <ele>1262.065709</ele>
        <time>2023-12-04T03:28:58.002Z</time>
      </trkpt>
      <trkpt lat="39.417201" lon="16.541843">
        <ele>1261.988029</ele>
        <time>2023-12-04T03:29:01.452Z</time>
      </trkpt>
      <trkpt lat="39.416205" lon="16.542466">
        <ele>1261.434515</ele>
        <time>2023-12-04T03:29:21.839Z</time>
      </trkpt>
      <trkpt lat="39.415725" lon="16.542697">
        <ele>1261.100910</ele>
        <time>2023-12-04T03:29:30.209Z</time>
      </trkpt>
      <trkpt lat="39.414896" lon="16.542945">
        <ele>1259.998745</ele>
        <time>2023-12-04T03:29:39.631Z</time>
      </trkpt>
      <trkpt lat="39.414707" lon="16.542960">
        <ele>1259.036185</ele>
        <time>2023-12-04T03:29:41.512Z</time>
      </trkpt>
      <trkpt lat="39.414460" lon="16.542920">
        <ele>1257.770805</ele>
        <time>2023-12-04T03:29:43.873Z</time>
      </trkpt>
      <trkpt lat="39.413419" lon="16.542741">
        <ele>1252.432534</ele>
        <time>2023-12-04T03:29:53.544Z</time>
      </trkpt>
      <trkpt lat="39.413180" lon="16.542726">
        <ele>1251.217133</ele>
        <time>2023-12-04T03:29:55.707Z</time>
      </trkpt>
      <trkpt lat="39.412972" lon="16.542766">
        <ele>1250.151981</ele>
        <time>2023-12-04T03:29:57.604Z</time>
      </trkpt>
      <trkpt lat="39.412813" lon="16.542797">
        <ele>1249.337509</ele>
        <time>2023-12-04T03:29:59.054Z</time>
      </trkpt>
      <trkpt lat="39.411883" lon="16.543006">
        <ele>1244.556281</ele>
        <time>2023-12-04T03:30:07.738Z</time>
      </trkpt>
      <trkpt lat="39.411266" lon="16.543332">
        <ele>1242.382369</ele>
        <time>2023-12-04T03:30:14.617Z</time>
      </trkpt>
      <trkpt lat="39.411005" lon="16.543539">
        <ele>1242.394162</ele>
        <time>2023-12-04T03:30:18.617Z</time>
      </trkpt>
      <trkpt lat="39.410779" lon="16.543853">
        <ele>1242.406936</ele>
        <time>2023-12-04T03:30:24.193Z</time>
      </trkpt>
      <trkpt lat="39.410460" lon="16.544437">
        <ele>1242.428225</ele>
        <time>2023-12-04T03:30:35.126Z</time>
      </trkpt>
      <trkpt lat="39.410349" lon="16.544539">
        <ele>1242.433469</ele>
        <time>2023-12-04T03:30:37.610Z</time>
      </trkpt>
      <trkpt lat="39.410245" lon="16.544593">
        <ele>1242.437786</ele>
        <time>2023-12-04T03:30:39.897Z</time>
      </trkpt>
      <trkpt lat="39.410119" lon="16.544624">
        <ele>1242.439354</ele>
        <time>2023-12-04T03:30:42.772Z</time>
      </trkpt>
      <trkpt lat="39.409967" lon="16.544595">
        <ele>1242.297505</ele>
        <time>2023-12-04T03:30:45.825Z</time>
      </trkpt>
      <trkpt lat="39.409803" lon="16.544505">
        <ele>1242.133045</ele>
        <time>2023-12-04T03:30:49.967Z</time>
      </trkpt>
      <trkpt lat="39.409561" lon="16.544194">
        <ele>1241.818192</ele>
        <time>2023-12-04T03:30:57.206Z</time>
      </trkpt>
      <trkpt lat="39.409234" lon="16.543953">
        <ele>1241.470777</ele>
        <time>2023-12-04T03:31:03.619Z</time>
      </trkpt>
      <trkpt lat="39.408963" lon="16.543807">
        <ele>1241.199769</ele>
        <time>2023-12-04T03:31:07.008Z</time>
      </trkpt>
      <trkpt lat="39.408106" lon="16.543468">
        <ele>1238.152624</ele>
        <time>2023-12-04T03:31:15.489Z</time>
      </trkpt>
      <trkpt lat="39.407914" lon="16.543347">
        <ele>1236.886939</ele>
        <time>2023-12-04T03:31:17.433Z</time>
      </trkpt>
      <trkpt lat="39.407111" lon="16.542675">
        <ele>1231.219457</ele>
        <time>2023-12-04T03:31:26.188Z</time>
      </trkpt>
      <trkpt lat="39.406944" lon="16.542600">
        <ele>1230.171781</ele>
        <time>2023-12-04T03:31:27.811Z</time>
      </trkpt>
      <trkpt lat="39.406771" lon="16.542576">
        <ele>1228.597017</ele>
        <time>2023-12-04T03:31:29.354Z</time>
      </trkpt>
      <trkpt lat="39.406368" lon="16.542597">
        <ele>1224.882349</ele>
        <time>2023-12-04T03:31:32.901Z</time>
      </trkpt>
      <trkpt lat="39.406250" lon="16.542563">
        <ele>1223.768952</ele>
        <time>2023-12-04T03:31:33.971Z</time>
      </trkpt>
      <trkpt lat="39.405964" lon="16.542366">
        <ele>1220.785037</ele>
        <time>2023-12-04T03:31:36.792Z</time>
      </trkpt>
      <trkpt lat="39.405630" lon="16.542057">
        <ele>1217.003743</ele>
        <time>2023-12-04T03:31:40.358Z</time>
      </trkpt>
      <trkpt lat="39.404330" lon="16.541096">
        <ele>1201.788246</ele>
        <time>2023-12-04T03:31:53.011Z</time>
      </trkpt>
      <trkpt lat="39.404155" lon="16.541008">
        <ele>1199.820495</ele>
        <time>2023-12-04T03:31:54.605Z</time>
      </trkpt>
      <trkpt lat="39.403969" lon="16.541003">
        <ele>1197.870623</ele>
        <time>2023-12-04T03:31:56.203Z</time>
      </trkpt>
      <trkpt lat="39.403563" lon="16.541050">
        <ele>1194.620632</ele>
        <time>2023-12-04T03:31:59.804Z</time>
      </trkpt>
      <trkpt lat="39.403390" lon="16.541111">
        <ele>1194.477863</ele>
        <time>2023-12-04T03:32:01.460Z</time>
      </trkpt>
      <trkpt lat="39.403234" lon="16.541220">
        <ele>1194.336704</ele>
        <time>2023-12-04T03:32:03.165Z</time>
      </trkpt>
      <trkpt lat="39.403166" lon="16.541400">
        <ele>1194.213432</ele>
        <time>2023-12-04T03:32:04.750Z</time>
      </trkpt>
      <trkpt lat="39.403149" lon="16.541546">
        <ele>1194.122592</ele>
        <time>2023-12-04T03:32:05.979Z</time>
      </trkpt>
      <trkpt lat="39.403078" lon="16.542819">
        <ele>1193.337346</ele>
        <time>2023-12-04T03:32:27.955Z</time>
      </trkpt>
      <trkpt lat="39.403027" lon="16.542987">
        <ele>1193.340303</ele>
        <time>2023-12-04T03:32:32.876Z</time>
      </trkpt>
      <trkpt lat="39.402943" lon="16.543145">
        <ele>1193.513182</ele>
        <time>2023-12-04T03:32:38.492Z</time>
      </trkpt>
      <trkpt lat="39.402665" lon="16.543429">
        <ele>1193.926358</ele>
        <time>2023-12-04T03:32:51.308Z</time>
      </trkpt>
      <trkpt lat="39.402394" lon="16.543581">
        <ele>1194.270916</ele>
        <time>2023-12-04T03:33:00.503Z</time>
      </trkpt>
      <trkpt lat="39.402190" lon="16.543643">
        <ele>1194.515373</ele>
        <time>2023-12-04T03:33:05.290Z</time>
      </trkpt>
      <trkpt lat="39.401953" lon="16.543621">
        <ele>1194.792562</ele>
        <time>2023-12-04T03:33:09.329Z</time>
      </trkpt>
      <trkpt lat="39.401449" lon="16.543374">
        <ele>1195.134068</ele>
        <time>2023-12-04T03:33:15.063Z</time>
      </trkpt>
      <trkpt lat="39.401135" lon="16.542962">
        <ele>1192.686756</ele>
        <time>2023-12-04T03:33:19.201Z</time>
      </trkpt>
      <trkpt lat="39.400265" lon="16.542011">
        <ele>1186.453910</ele>
        <time>2023-12-04T03:33:29.522Z</time>
      </trkpt>
      <trkpt lat="39.400041" lon="16.541870">
        <ele>1185.275497</ele>
        <time>2023-12-04T03:33:31.843Z</time>
      </trkpt>
      <trkpt lat="39.399946" lon="16.541860">
        <ele>1184.974982</ele>
        <time>2023-12-04T03:33:32.742Z</time>
      </trkpt>
      <trkpt lat="39.399797" lon="16.541936">
        <ele>1184.470024</ele>
        <time>2023-12-04T03:33:34.259Z</time>
      </trkpt>
      <trkpt lat="39.399494" lon="16.542651">
        <ele>1182.483256</ele>
        <time>2023-12-04T03:33:40.396Z</time>
      </trkpt>
      <trkpt lat="39.399368" lon="16.542787">
        <ele>1181.965943</ele>
        <time>2023-12-04T03:33:42.072Z</time>
      </trkpt>
      <trkpt lat="39.399246" lon="16.542802">
        <ele>1181.579556</ele>
        <time>2023-12-04T03:33:43.323Z</time>
      </trkpt>
      <trkpt lat="39.399131" lon="16.542790">
        <ele>1181.215794</ele>
        <time>2023-12-04T03:33:44.579Z</time>
      </trkpt>
      <trkpt lat="39.399070" lon="16.542728">
        <ele>1180.971238</ele>
        <time>2023-12-04T03:33:45.436Z</time>
      </trkpt>
      <trkpt lat="39.398964" lon="16.542375">
        <ele>1180.048537</ele>
        <time>2023-12-04T03:33:49.027Z</time>
      </trkpt>
      <trkpt lat="39.398853" lon="16.542124">
        <ele>1180.067568</ele>
        <time>2023-12-04T03:33:52.093Z</time>
      </trkpt>
      <trkpt lat="39.398684" lon="16.541957">
        <ele>1180.344974</ele>
        <time>2023-12-04T03:33:56.013Z</time>
      </trkpt>
      <trkpt lat="39.398533" lon="16.541860">
        <ele>1180.564905</ele>
        <time>2023-12-04T03:33:59.359Z</time>
      </trkpt>
      <trkpt lat="39.398345" lon="16.541814">
        <ele>1180.814515</ele>
        <time>2023-12-04T03:34:03.899Z</time>
      </trkpt>
      <trkpt lat="39.398112" lon="16.541828">
        <ele>1181.118814</ele>
        <time>2023-12-04T03:34:09.742Z</time>
      </trkpt>
      <trkpt lat="39.397956" lon="16.541904">
        <ele>1181.336277</ele>
        <time>2023-12-04T03:34:13.903Z</time>
      </trkpt>
      <trkpt lat="39.397678" lon="16.542386">
        <ele>1181.942624</ele>
        <time>2023-12-04T03:34:24.653Z</time>
      </trkpt>
      <trkpt lat="39.397645" lon="16.542559">
        <ele>1182.122268</ele>
        <time>2023-12-04T03:34:27.446Z</time>
      </trkpt>
      <trkpt lat="39.397715" lon="16.543152">
        <ele>1182.324014</ele>
        <time>2023-12-04T03:34:36.275Z</time>
      </trkpt>
      <trkpt lat="39.397670" lon="16.543308">
        <ele>1182.362955</ele>
        <time>2023-12-04T03:34:38.529Z</time>
      </trkpt>
      <trkpt lat="39.397593" lon="16.543425">
        <ele>1182.398894</ele>
        <time>2023-12-04T03:34:40.860Z</time>
      </trkpt>
      <trkpt lat="39.397464" lon="16.543511">
        <ele>1182.442809</ele>
        <time>2023-12-04T03:34:43.714Z</time>
      </trkpt>
      <trkpt lat="39.397318" lon="16.543552">
        <ele>1182.488021</ele>
        <time>2023-12-04T03:34:46.765Z</time>
      </trkpt>
      <trkpt lat="39.397160" lon="16.543463">
        <ele>1182.540170</ele>
        <time>2023-12-04T03:34:50.392Z</time>
      </trkpt>
      <trkpt lat="39.396610" lon="16.542751">
        <ele>1182.329677</ele>
        <time>2023-12-04T03:35:01.163Z</time>
      </trkpt>
      <trkpt lat="39.396532" lon="16.542709">
        <ele>1181.962038</ele>
        <time>2023-12-04T03:35:02.018Z</time>
      </trkpt>
      <trkpt lat="39.396388" lon="16.542751">
        <ele>1181.319686</ele>
        <time>2023-12-04T03:35:03.495Z</time>
      </trkpt>
      <trkpt lat="39.396252" lon="16.542853">
        <ele>1180.635651</ele>
        <time>2023-12-04T03:35:04.987Z</time>
      </trkpt>
      <trkpt lat="39.395955" lon="16.543237">
        <ele>1178.808660</ele>
        <time>2023-12-04T03:35:08.866Z</time>
      </trkpt>
      <trkpt lat="39.395780" lon="16.543352">
        <ele>1177.954559</ele>
        <time>2023-12-04T03:35:10.667Z</time>
      </trkpt>
      <trkpt lat="39.395611" lon="16.543410">
        <ele>1177.193711</ele>
        <time>2023-12-04T03:35:12.285Z</time>
      </trkpt>
      <trkpt lat="39.395355" lon="16.543376">
        <ele>1176.073845</ele>
        <time>2023-12-04T03:35:14.690Z</time>
      </trkpt>
      <trkpt lat="39.394801" lon="16.543230">
        <ele>1173.937345</ele>
        <time>2023-12-04T03:35:20.105Z</time>
      </trkpt>
      <trkpt lat="39.394556" lon="16.543228">
        <ele>1173.135492</ele>
        <time>2023-12-04T03:35:22.463Z</time>
      </trkpt>
      <trkpt lat="39.394325" lon="16.543259">
        <ele>1172.375420</ele>
        <time>2023-12-04T03:35:24.706Z</time>
      </trkpt>
      <trkpt lat="39.393392" lon="16.543639">
        <ele>1169.174210</ele>
        <time>2023-12-04T03:35:34.558Z</time>
      </trkpt>
      <trkpt lat="39.393178" lon="16.543797">
        <ele>1169.979049</ele>
        <time>2023-12-04T03:35:37.906Z</time>
      </trkpt>
      <trkpt lat="39.393044" lon="16.543965">
        <ele>1170.847558</ele>
        <time>2023-12-04T03:35:41.393Z</time>
      </trkpt>
      <trkpt lat="39.392930" lon="16.544211">
        <ele>1171.879411</ele>
        <time>2023-12-04T03:35:47.009Z</time>
      </trkpt>
      <trkpt lat="39.392862" lon="16.544498">
        <ele>1172.959280</ele>
        <time>2023-12-04T03:35:54.148Z</time>
      </trkpt>
      <trkpt lat="39.392851" lon="16.544875">
        <ele>1174.316444</ele>
        <time>2023-12-04T03:36:05.294Z</time>
      </trkpt>
      <trkpt lat="39.392905" lon="16.545240">
        <ele>1175.653316</ele>
        <time>2023-12-04T03:36:18.024Z</time>
      </trkpt>
      <trkpt lat="39.392994" lon="16.545461">
        <ele>1176.549795</ele>
        <time>2023-12-04T03:36:27.476Z</time>
      </trkpt>
      <trkpt lat="39.393106" lon="16.545646">
        <ele>1177.395194</ele>
        <time>2023-12-04T03:36:36.837Z</time>
      </trkpt>
      <trkpt lat="39.393471" lon="16.546070">
        <ele>1182.447878</ele>
        <time>2023-12-04T03:37:04.841Z</time>
      </trkpt>
      <trkpt lat="39.393620" lon="16.546208">
        <ele>1184.340042</ele>
        <time>2023-12-04T03:37:16.000Z</time>
      </trkpt>
      <trkpt lat="39.393774" lon="16.546298">
        <ele>1186.084993</ele>
        <time>2023-12-04T03:37:26.554Z</time>
      </trkpt>
      <trkpt lat="39.394064" lon="16.546387">
        <ele>1189.162751</ele>
        <time>2023-12-04T03:37:44.848Z</time>
      </trkpt>
      <trkpt lat="39.394174" lon="16.546464">
        <ele>1190.454221</ele>
        <time>2023-12-04T03:37:52.221Z</time>
      </trkpt>
      <trkpt lat="39.394214" lon="16.546522">
        <ele>1191.074588</ele>
        <time>2023-12-04T03:37:55.874Z</time>
      </trkpt>
      <trkpt lat="39.394712" lon="16.547425">
        <ele>1198.402768</ele>
        <time>2023-12-04T03:38:41.558Z</time>
      </trkpt>
      <trkpt lat="39.394719" lon="16.547633">
        <ele>1199.422607</ele>
        <time>2023-12-04T03:38:48.840Z</time>
      </trkpt>
      <trkpt lat="39.394670" lon="16.547856">
        <ele>1200.558255</ele>
        <time>2023-12-04T03:38:56.823Z</time>
      </trkpt>
      <trkpt lat="39.394588" lon="16.548057">
        <ele>1201.671612</ele>
        <time>2023-12-04T03:39:04.072Z</time>
      </trkpt>
      <trkpt lat="39.394471" lon="16.548220">
        <ele>1202.761342</ele>
        <time>2023-12-04T03:39:11.171Z</time>
      </trkpt>
      <trkpt lat="39.394344" lon="16.548279">
        <ele>1203.616653</ele>
        <time>2023-12-04T03:39:16.253Z</time>
      </trkpt>
      <trkpt lat="39.393991" lon="16.548318">
        <ele>1205.862323</ele>
        <time>2023-12-04T03:39:28.623Z</time>
      </trkpt>
      <trkpt lat="39.393915" lon="16.548357">
        <ele>1206.380555</ele>
        <time>2023-12-04T03:39:31.220Z</time>
      </trkpt>
      <trkpt lat="39.393507" lon="16.548719">
        <ele>1206.845419</ele>
        <time>2023-12-04T03:39:43.278Z</time>
      </trkpt>
      <trkpt lat="39.393348" lon="16.548725">
        <ele>1206.593084</ele>
        <time>2023-12-04T03:39:45.768Z</time>
      </trkpt>
      <trkpt lat="39.393189" lon="16.548643">
        <ele>1206.321562</ele>
        <time>2023-12-04T03:39:48.460Z</time>
      </trkpt>
      <trkpt lat="39.392928" lon="16.548299">
        <ele>1205.730568</ele>
        <time>2023-12-04T03:39:52.890Z</time>
      </trkpt>
      <trkpt lat="39.392723" lon="16.548109">
        <ele>1205.330555</ele>
        <time>2023-12-04T03:39:55.504Z</time>
      </trkpt>
      <trkpt lat="39.392623" lon="16.548026">
        <ele>1205.142092</ele>
        <time>2023-12-04T03:39:56.703Z</time>
      </trkpt>
      <trkpt lat="39.392249" lon="16.547861">
        <ele>1204.456830</ele>
        <time>2023-12-04T03:40:00.457Z</time>
      </trkpt>
      <trkpt lat="39.391997" lon="16.547798">
        <ele>1201.984562</ele>
        <time>2023-12-04T03:40:02.786Z</time>
      </trkpt>
      <trkpt lat="39.391161" lon="16.547813">
        <ele>1193.931057</ele>
        <time>2023-12-04T03:40:09.967Z</time>
      </trkpt>
      <trkpt lat="39.390600" lon="16.547603">
        <ele>1188.305665</ele>
        <time>2023-12-04T03:40:14.965Z</time>
      </trkpt>
      <trkpt lat="39.390133" lon="16.547465">
        <ele>1183.098377</ele>
        <time>2023-12-04T03:40:18.997Z</time>
      </trkpt>
      <trkpt lat="39.389919" lon="16.547500">
        <ele>1180.669530</ele>
        <time>2023-12-04T03:40:20.811Z</time>
      </trkpt>
      <trkpt lat="39.389811" lon="16.547570">
        <ele>1179.309392</ele>
        <time>2023-12-04T03:40:21.835Z</time>
      </trkpt>
      <trkpt lat="39.389732" lon="16.547664">
        <ele>1178.100895</ele>
        <time>2023-12-04T03:40:22.732Z</time>
      </trkpt>
      <trkpt lat="39.389533" lon="16.548074">
        <ele>1173.887636</ele>
        <time>2023-12-04T03:40:25.894Z</time>
      </trkpt>
      <trkpt lat="39.389368" lon="16.548259">
        <ele>1171.429219</ele>
        <time>2023-12-04T03:40:27.768Z</time>
      </trkpt>
      <trkpt lat="39.389072" lon="16.548249">
        <ele>1168.095076</ele>
        <time>2023-12-04T03:40:30.295Z</time>
      </trkpt>
      <trkpt lat="39.389010" lon="16.548249">
        <ele>1167.396947</ele>
        <time>2023-12-04T03:40:30.844Z</time>
      </trkpt>
      <trkpt lat="39.388887" lon="16.548292">
        <ele>1166.530650</ele>
        <time>2023-12-04T03:40:31.939Z</time>
      </trkpt>
      <trkpt lat="39.388772" lon="16.548392">
        <ele>1165.869677</ele>
        <time>2023-12-04T03:40:33.159Z</time>
      </trkpt>
      <trkpt lat="39.388368" lon="16.549024">
        <ele>1162.845840</ele>
        <time>2023-12-04T03:40:38.827Z</time>
      </trkpt>
      <trkpt lat="39.388272" lon="16.549574">
        <ele>1160.766992</ele>
        <time>2023-12-04T03:40:42.777Z</time>
      </trkpt>
      <trkpt lat="39.388306" lon="16.550774">
        <ele>1159.879833</ele>
        <time>2023-12-04T03:41:03.172Z</time>
      </trkpt>
      <trkpt lat="39.388239" lon="16.550870">
        <ele>1160.235233</ele>
        <time>2023-12-04T03:41:06.716Z</time>
      </trkpt>
      <trkpt lat="39.388141" lon="16.550900">
        <ele>1160.593251</ele>
        <time>2023-12-04T03:41:09.862Z</time>
      </trkpt>
      <trkpt lat="39.387198" lon="16.550767">
        <ele>1163.965560</ele>
        <time>2023-12-04T03:41:42.121Z</time>
      </trkpt>
      <trkpt lat="39.387053" lon="16.550659">
        <ele>1164.560360</ele>
        <time>2023-12-04T03:41:47.395Z</time>
      </trkpt>
      <trkpt lat="39.386820" lon="16.550316">
        <ele>1165.173119</ele>
        <time>2023-12-04T03:41:57.724Z</time>
      </trkpt>
      <trkpt lat="39.386720" lon="16.550100">
        <ele>1165.442992</ele>
        <time>2023-12-04T03:42:03.374Z</time>
      </trkpt>
      <trkpt lat="39.386633" lon="16.549570">
        <ele>1166.023734</ele>
        <time>2023-12-04T03:42:14.963Z</time>
      </trkpt>
      <trkpt lat="39.386436" lon="16.548742">
        <ele>1166.952312</ele>
        <time>2023-12-04T03:42:25.304Z</time>
      </trkpt>
      <trkpt lat="39.386409" lon="16.548162">
        <ele>1166.898010</ele>
        <time>2023-12-04T03:42:29.999Z</time>
      </trkpt>
      <trkpt lat="39.386333" lon="16.547919">
        <ele>1166.581136</ele>
        <time>2023-12-04T03:42:32.100Z</time>
      </trkpt>
      <trkpt lat="39.386165" lon="16.547708">
        <ele>1166.214953</ele>
        <time>2023-12-04T03:42:34.576Z</time>
      </trkpt>
      <trkpt lat="39.385258" lon="16.547337">
        <ele>1164.727211</ele>
        <time>2023-12-04T03:42:45.643Z</time>
      </trkpt>
      <trkpt lat="39.382761" lon="16.546524">
        <ele>1162.412738</ele>
        <time>2023-12-04T03:43:18.256Z</time>
      </trkpt>
      <trkpt lat="39.382023" lon="16.546284">
        <ele>1161.727762</ele>
        <time>2023-12-04T03:43:27.159Z</time>
      </trkpt>
      <trkpt lat="39.381201" lon="16.546300">
        <ele>1161.878960</ele>
        <time>2023-12-04T03:43:37.434Z</time>
      </trkpt>
      <trkpt lat="39.380421" lon="16.546356">
        <ele>1163.010690</ele>
        <time>2023-12-04T03:43:53.584Z</time>
      </trkpt>
      <trkpt lat="39.380164" lon="16.546439">
        <ele>1163.394433</ele>
        <time>2023-12-04T03:44:00.931Z</time>
      </trkpt>
      <trkpt lat="39.379754" lon="16.546808">
        <ele>1164.166175</ele>
        <time>2023-12-04T03:44:14.245Z</time>
      </trkpt>
      <trkpt lat="39.379570" lon="16.546890">
        <ele>1164.522345</ele>
        <time>2023-12-04T03:44:19.541Z</time>
      </trkpt>
      <trkpt lat="39.379256" lon="16.546836">
        <ele>1165.102072</ele>
        <time>2023-12-04T03:44:27.787Z</time>
      </trkpt>
      <trkpt lat="39.379026" lon="16.546673">
        <ele>1165.582030</ele>
        <time>2023-12-04T03:44:34.420Z</time>
      </trkpt>
      <trkpt lat="39.378967" lon="16.546466">
        <ele>1165.894138</ele>
        <time>2023-12-04T03:44:38.801Z</time>
      </trkpt>
      <trkpt lat="39.379281" lon="16.544889">
        <ele>1166.361241</ele>
        <time>2023-12-04T03:45:00.629Z</time>
      </trkpt>
      <trkpt lat="39.379268" lon="16.544689">
        <ele>1166.108156</ele>
        <time>2023-12-04T03:45:02.294Z</time>
      </trkpt>
      <trkpt lat="39.379190" lon="16.544373">
        <ele>1165.689864</ele>
        <time>2023-12-04T03:45:04.839Z</time>
      </trkpt>
      <trkpt lat="39.379121" lon="16.544242">
        <ele>1165.489970</ele>
        <time>2023-12-04T03:45:06.053Z</time>
      </trkpt>
      <trkpt lat="39.378913" lon="16.544004">
        <ele>1165.036973</ele>
        <time>2023-12-04T03:45:08.903Z</time>
      </trkpt>
      <trkpt lat="39.378478" lon="16.543580">
        <ele>1164.224884</ele>
        <time>2023-12-04T03:45:14.716Z</time>
      </trkpt>
      <trkpt lat="39.377976" lon="16.543457">
        <ele>1163.833312</ele>
        <time>2023-12-04T03:45:20.672Z</time>
      </trkpt>
      <trkpt lat="39.377823" lon="16.543471">
        <ele>1163.715760</ele>
        <time>2023-12-04T03:45:22.530Z</time>
      </trkpt>
      <trkpt lat="39.377635" lon="16.543661">
        <ele>1163.532923</ele>
        <time>2023-12-04T03:45:25.726Z</time>
      </trkpt>
      <trkpt lat="39.377560" lon="16.543754">
        <ele>1163.453303</ele>
        <time>2023-12-04T03:45:27.108Z</time>
      </trkpt>
      <trkpt lat="39.377417" lon="16.543867">
        <ele>1163.324880</ele>
        <time>2023-12-04T03:45:29.586Z</time>
      </trkpt>
      <trkpt lat="39.377186" lon="16.543978">
        <ele>1163.136024</ele>
        <time>2023-12-04T03:45:33.202Z</time>
      </trkpt>
      <trkpt lat="39.376943" lon="16.543989">
        <ele>1162.949675</ele>
        <time>2023-12-04T03:45:36.911Z</time>
      </trkpt>
      <trkpt lat="39.376829" lon="16.543941">
        <ele>1162.903762</ele>
        <time>2023-12-04T03:45:38.834Z</time>
      </trkpt>
      <trkpt lat="39.376734" lon="16.543845">
        <ele>1162.886779</ele>
        <time>2023-12-04T03:45:40.842Z</time>
      </trkpt>
      <trkpt lat="39.376642" lon="16.543558">
        <ele>1162.852943</ele>
        <time>2023-12-04T03:45:44.701Z</time>
      </trkpt>
      <trkpt lat="39.376518" lon="16.542994">
        <ele>1162.789086</ele>
        <time>2023-12-04T03:45:51.825Z</time>
      </trkpt>
      <trkpt lat="39.376341" lon="16.542725">
        <ele>1162.750615</ele>
        <time>2023-12-04T03:45:55.656Z</time>
      </trkpt>
      <trkpt lat="39.376293" lon="16.542600">
        <ele>1162.735415</ele>
        <time>2023-12-04T03:45:57.159Z</time>
      </trkpt>
      <trkpt lat="39.376320" lon="16.542103">
        <ele>1162.681157</ele>
        <time>2023-12-04T03:46:02.316Z</time>
      </trkpt>
      <trkpt lat="39.376266" lon="16.541808">
        <ele>1162.586185</ele>
        <time>2023-12-04T03:46:05.296Z</time>
      </trkpt>
      <trkpt lat="39.376173" lon="16.541559">
        <ele>1162.407665</ele>
        <time>2023-12-04T03:46:07.897Z</time>
      </trkpt>
      <trkpt lat="39.376122" lon="16.541316">
        <ele>1162.245119</ele>
        <time>2023-12-04T03:46:10.281Z</time>
      </trkpt>
      <trkpt lat="39.376120" lon="16.540863">
        <ele>1161.952683</ele>
        <time>2023-12-04T03:46:14.481Z</time>
      </trkpt>
      <trkpt lat="39.376271" lon="16.540345">
        <ele>1161.595304</ele>
        <time>2023-12-04T03:46:19.692Z</time>
      </trkpt>
      <trkpt lat="39.376642" lon="16.539067">
        <ele>1160.668388</ele>
        <time>2023-12-04T03:46:33.601Z</time>
      </trkpt>
      <trkpt lat="39.376667" lon="16.538916">
        <ele>1160.558464</ele>
        <time>2023-12-04T03:46:35.090Z</time>
      </trkpt>
      <trkpt lat="39.376675" lon="16.537489">
        <ele>1159.542659</ele>
        <time>2023-12-04T03:46:48.128Z</time>
      </trkpt>
      <trkpt lat="39.376648" lon="16.537237">
        <ele>1159.549121</ele>
        <time>2023-12-04T03:46:50.539Z</time>
      </trkpt>
      <trkpt lat="39.376582" lon="16.537069">
        <ele>1159.593731</ele>
        <time>2023-12-04T03:46:52.364Z</time>
      </trkpt>
      <trkpt lat="39.376387" lon="16.536753">
        <ele>1159.689447</ele>
        <time>2023-12-04T03:46:56.645Z</time>
      </trkpt>
      <trkpt lat="39.376337" lon="16.536602">
        <ele>1159.728333</ele>
        <time>2023-12-04T03:46:58.628Z</time>
      </trkpt>
      <trkpt lat="39.376325" lon="16.536435">
        <ele>1159.768036</ele>
        <time>2023-12-04T03:47:00.645Z</time>
      </trkpt>
      <trkpt lat="39.376346" lon="16.536255">
        <ele>1159.811128</ele>
        <time>2023-12-04T03:47:02.955Z</time>
      </trkpt>
      <trkpt lat="39.376561" lon="16.535675">
        <ele>1159.963396</ele>
        <time>2023-12-04T03:47:11.978Z</time>
      </trkpt>
      <trkpt lat="39.376601" lon="16.535467">
        <ele>1160.014134</ele>
        <time>2023-12-04T03:47:15.263Z</time>
      </trkpt>
      <trkpt lat="39.376605" lon="16.535232">
        <ele>1160.170181</ele>
        <time>2023-12-04T03:47:19.044Z</time>
      </trkpt>
      <trkpt lat="39.376536" lon="16.534841">
        <ele>1160.837564</ele>
        <time>2023-12-04T03:47:25.947Z</time>
      </trkpt>
      <trkpt lat="39.376266" lon="16.533735">
        <ele>1162.767607</ele>
        <time>2023-12-04T03:47:47.162Z</time>
      </trkpt>
      <trkpt lat="39.376214" lon="16.533595">
        <ele>1163.026073</ele>
        <time>2023-12-04T03:47:50.082Z</time>
      </trkpt>
      <trkpt lat="39.375265" lon="16.532268">
        <ele>1166.390019</ele>
        <time>2023-12-04T03:48:25.484Z</time>
      </trkpt>
      <trkpt lat="39.375120" lon="16.532115">
        <ele>1166.860753</ele>
        <time>2023-12-04T03:48:30.134Z</time>
      </trkpt>
      <trkpt lat="39.375007" lon="16.532043">
        <ele>1167.177639</ele>
        <time>2023-12-04T03:48:33.246Z</time>
      </trkpt>
      <trkpt lat="39.374659" lon="16.531925">
        <ele>1168.082683</ele>
        <time>2023-12-04T03:48:42.014Z</time>
      </trkpt>
      <trkpt lat="39.374587" lon="16.531862">
        <ele>1168.301357</ele>
        <time>2023-12-04T03:48:44.188Z</time>
      </trkpt>
      <trkpt lat="39.374528" lon="16.531764">
        <ele>1168.516651</ele>
        <time>2023-12-04T03:48:46.508Z</time>
      </trkpt>
      <trkpt lat="39.374428" lon="16.531287">
        <ele>1169.206088</ele>
        <time>2023-12-04T03:48:55.858Z</time>
      </trkpt>
      <trkpt lat="39.374370" lon="16.531136">
        <ele>1169.441299</ele>
        <time>2023-12-04T03:48:59.082Z</time>
      </trkpt>
      <trkpt lat="39.374263" lon="16.530970">
        <ele>1169.742806</ele>
        <time>2023-12-04T03:49:03.230Z</time>
      </trkpt>
      <trkpt lat="39.373921" lon="16.530612">
        <ele>1170.536718</ele>
        <time>2023-12-04T03:49:13.895Z</time>
      </trkpt>
      <trkpt lat="39.372622" lon="16.529992">
        <ele>1173.431580</ele>
        <time>2023-12-04T03:49:38.577Z</time>
      </trkpt>
      <trkpt lat="39.372368" lon="16.529895">
        <ele>1174.050872</ele>
        <time>2023-12-04T03:49:45.228Z</time>
      </trkpt>
      <trkpt lat="39.372249" lon="16.529766">
        <ele>1174.413929</ele>
        <time>2023-12-04T03:49:49.786Z</time>
      </trkpt>
      <trkpt lat="39.372204" lon="16.529617">
        <ele>1174.703098</ele>
        <time>2023-12-04T03:49:52.945Z</time>
      </trkpt>
      <trkpt lat="39.372109" lon="16.528947">
        <ele>1175.915977</ele>
        <time>2023-12-04T03:50:10.495Z</time>
      </trkpt>
      <trkpt lat="39.372041" lon="16.528712">
        <ele>1176.113590</ele>
        <time>2023-12-04T03:50:16.359Z</time>
      </trkpt>
      <trkpt lat="39.371407" lon="16.527650">
        <ele>1177.170329</ele>
        <time>2023-12-04T03:50:40.630Z</time>
      </trkpt>
      <trkpt lat="39.371369" lon="16.527520">
        <ele>1177.279785</ele>
        <time>2023-12-04T03:50:42.216Z</time>
      </trkpt>
      <trkpt lat="39.371353" lon="16.526990">
        <ele>1177.697505</ele>
        <time>2023-12-04T03:50:47.071Z</time>
      </trkpt>
      <trkpt lat="39.371310" lon="16.526722">
        <ele>1176.705277</ele>
        <time>2023-12-04T03:50:49.216Z</time>
      </trkpt>
      <trkpt lat="39.371226" lon="16.526433">
        <ele>1175.307432</ele>
        <time>2023-12-04T03:50:51.479Z</time>
      </trkpt>
      <trkpt lat="39.370913" lon="16.525880">
        <ele>1172.204445</ele>
        <time>2023-12-04T03:50:56.272Z</time>
      </trkpt>
      <trkpt lat="39.370728" lon="16.525613">
        <ele>1170.581135</ele>
        <time>2023-12-04T03:50:58.694Z</time>
      </trkpt>
      <trkpt lat="39.370306" lon="16.525271">
        <ele>1167.664702</ele>
        <time>2023-12-04T03:51:03.088Z</time>
      </trkpt>
      <trkpt lat="39.370138" lon="16.525081">
        <ele>1167.010204</ele>
        <time>2023-12-04T03:51:05.104Z</time>
      </trkpt>
      <trkpt lat="39.369683" lon="16.524352">
        <ele>1166.053095</ele>
        <time>2023-12-04T03:51:12.308Z</time>
      </trkpt>
      <trkpt lat="39.369621" lon="16.524147">
        <ele>1165.828225</ele>
        <time>2023-12-04T03:51:14.647Z</time>
      </trkpt>
      <trkpt lat="39.369611" lon="16.523987">
        <ele>1165.664246</ele>
        <time>2023-12-04T03:51:16.585Z</time>
      </trkpt>
      <trkpt lat="39.369613" lon="16.523830">
        <ele>1165.503843</ele>
        <time>2023-12-04T03:51:18.846Z</time>
      </trkpt>
      <trkpt lat="39.369695" lon="16.523345">
        <ele>1164.996689</ele>
        <time>2023-12-04T03:51:28.504Z</time>
      </trkpt>
      <trkpt lat="39.369686" lon="16.523096">
        <ele>1165.057245</ele>
        <time>2023-12-04T03:51:34.263Z</time>
      </trkpt>
      <trkpt lat="39.369660" lon="16.522990">
        <ele>1165.382870</ele>
        <time>2023-12-04T03:51:36.865Z</time>
      </trkpt>
      <trkpt lat="39.369584" lon="16.522809">
        <ele>1165.985983</ele>
        <time>2023-12-04T03:51:42.056Z</time>
      </trkpt>
      <trkpt lat="39.368921" lon="16.521769">
        <ele>1169.933064</ele>
        <time>2023-12-04T03:52:16.591Z</time>
      </trkpt>
      <trkpt lat="39.368725" lon="16.521454">
        <ele>1171.117066</ele>
        <time>2023-12-04T03:52:25.656Z</time>
      </trkpt>
      <trkpt lat="39.368503" lon="16.520921">
        <ele>1171.859664</ele>
        <time>2023-12-04T03:52:37.528Z</time>
      </trkpt>
      <trkpt lat="39.368405" lon="16.520346">
        <ele>1172.167067</ele>
        <time>2023-12-04T03:52:47.056Z</time>
      </trkpt>
      <trkpt lat="39.368362" lon="16.518096">
        <ele>1171.510417</ele>
        <time>2023-12-04T03:53:09.660Z</time>
      </trkpt>
      <trkpt lat="39.368388" lon="16.517802">
        <ele>1171.088944</ele>
        <time>2023-12-04T03:53:12.190Z</time>
      </trkpt>
      <trkpt lat="39.368466" lon="16.517469">
        <ele>1170.593364</ele>
        <time>2023-12-04T03:53:15.109Z</time>
      </trkpt>
      <trkpt lat="39.369058" lon="16.515124">
        <ele>1164.859576</ele>
        <time>2023-12-04T03:53:34.421Z</time>
      </trkpt>
      <trkpt lat="39.369106" lon="16.515001">
        <ele>1164.486017</ele>
        <time>2023-12-04T03:53:35.466Z</time>
      </trkpt>
      <trkpt lat="39.369417" lon="16.514468">
        <ele>1162.422520</ele>
        <time>2023-12-04T03:53:40.481Z</time>
      </trkpt>
      <trkpt lat="39.369955" lon="16.513592">
        <ele>1158.002937</ele>
        <time>2023-12-04T03:53:48.692Z</time>
      </trkpt>
      <trkpt lat="39.370012" lon="16.513415">
        <ele>1157.245493</ele>
        <time>2023-12-04T03:53:50.067Z</time>
      </trkpt>
      <trkpt lat="39.370052" lon="16.513199">
        <ele>1156.368087</ele>
        <time>2023-12-04T03:53:51.665Z</time>
      </trkpt>
      <trkpt lat="39.370163" lon="16.511506">
        <ele>1149.356348</ele>
        <time>2023-12-04T03:54:03.688Z</time>
      </trkpt>
      <trkpt lat="39.370224" lon="16.510576">
        <ele>1145.417063</ele>
        <time>2023-12-04T03:54:10.318Z</time>
      </trkpt>
      <trkpt lat="39.370362" lon="16.509082">
        <ele>1143.442414</ele>
        <time>2023-12-04T03:54:22.204Z</time>
      </trkpt>
      <trkpt lat="39.370619" lon="16.505339">
        <ele>1146.750563</ele>
        <time>2023-12-04T03:55:29.001Z</time>
      </trkpt>
      <trkpt lat="39.370562" lon="16.504962">
        <ele>1147.146914</ele>
        <time>2023-12-04T03:55:36.225Z</time>
      </trkpt>
      <trkpt lat="39.370521" lon="16.504823">
        <ele>1147.300416</ele>
        <time>2023-12-04T03:55:38.980Z</time>
      </trkpt>
      <trkpt lat="39.366160" lon="16.494861">
        <ele>1158.775644</ele>
        <time>2023-12-04T03:58:34.348Z</time>
      </trkpt>
      <trkpt lat="39.366141" lon="16.494817">
        <ele>1158.816138</ele>
        <time>2023-12-04T03:58:35.035Z</time>
      </trkpt>
      <trkpt lat="39.364873" lon="16.491921">
        <ele>1161.767196</ele>
        <time>2023-12-04T03:59:23.044Z</time>
      </trkpt>
      <trkpt lat="39.364851" lon="16.491870">
        <ele>1161.823495</ele>
        <time>2023-12-04T03:59:24.038Z</time>
      </trkpt>
      <trkpt lat="39.364587" lon="16.491267">
        <ele>1162.572234</ele>
        <time>2023-12-04T03:59:35.953Z</time>
      </trkpt>
      <trkpt lat="39.364377" lon="16.490811">
        <ele>1163.369042</ele>
        <time>2023-12-04T03:59:45.448Z</time>
      </trkpt>
      <trkpt lat="39.364219" lon="16.490506">
        <ele>1163.920202</ele>
        <time>2023-12-04T03:59:52.076Z</time>
      </trkpt>
      <trkpt lat="39.363401" lon="16.489490">
        <ele>1165.995379</ele>
        <time>2023-12-04T04:00:18.500Z</time>
      </trkpt>
      <trkpt lat="39.363034" lon="16.489033">
        <ele>1166.541004</ele>
        <time>2023-12-04T04:00:28.454Z</time>
      </trkpt>
      <trkpt lat="39.362896" lon="16.488821">
        <ele>1166.770488</ele>
        <time>2023-12-04T04:00:32.437Z</time>
      </trkpt>
      <trkpt lat="39.362308" lon="16.487781">
        <ele>1167.820678</ele>
        <time>2023-12-04T04:00:49.985Z</time>
      </trkpt>
      <trkpt lat="39.361991" lon="16.487216">
        <ele>1168.264205</ele>
        <time>2023-12-04T04:00:59.479Z</time>
      </trkpt>
      <trkpt lat="39.361599" lon="16.486591">
        <ele>1168.775523</ele>
        <time>2023-12-04T04:01:10.942Z</time>
      </trkpt>
      <trkpt lat="39.361438" lon="16.486366">
        <ele>1168.970304</ele>
        <time>2023-12-04T04:01:15.510Z</time>
      </trkpt>
      <trkpt lat="39.360996" lon="16.485798">
        <ele>1169.434839</ele>
        <time>2023-12-04T04:01:26.843Z</time>
      </trkpt>
      <trkpt lat="39.360283" lon="16.485033">
        <ele>1170.044653</ele>
        <time>2023-12-04T04:01:42.991Z</time>
      </trkpt>
      <trkpt lat="39.360372" lon="16.485430">
        <ele>1170.255028</ele>
        <time>2023-12-04T04:02:09.122Z</time>
      </trkpt>
      <trkpt lat="39.360308" lon="16.485734">
        <ele>1170.415383</ele>
        <time>2023-12-04T04:02:28.975Z</time>
      </trkpt>
      <trkpt lat="39.360162" lon="16.485858">
        <ele>1170.485488</ele>
        <time>2023-12-04T04:02:43.235Z</time>
      </trkpt>
      <trkpt lat="39.358593" lon="16.486547">
        <ele>1171.104052</ele>
        <time>2023-12-04T04:04:56.773Z</time>
      </trkpt>
      <trkpt lat="39.356811" lon="16.487330">
        <ele>1172.424513</ele>
        <time>2023-12-04T04:07:31.118Z</time>
      </trkpt>
      <trkpt lat="39.356436" lon="16.487305">
        <ele>1172.868676</ele>
        <time>2023-12-04T04:08:02.585Z</time>
      </trkpt>
      <trkpt lat="39.356277" lon="16.487248">
        <ele>1173.063842</ele>
        <time>2023-12-04T04:08:16.513Z</time>
      </trkpt>
      <trkpt lat="39.354719" lon="16.487638">
        <ele>1174.942151</ele>
        <time>2023-12-04T04:10:31.114Z</time>
      </trkpt>
      <trkpt lat="39.354605" lon="16.487667">
        <ele>1175.079910</ele>
        <time>2023-12-04T04:10:40.972Z</time>
      </trkpt>
      <trkpt lat="39.354223" lon="16.487642">
        <ele>1175.533423</ele>
        <time>2023-12-04T04:11:13.252Z</time>
      </trkpt>
      <trkpt lat="39.353295" lon="16.487289">
        <ele>1176.676612</ele>
        <time>2023-12-04T04:12:34.364Z</time>
      </trkpt>
      <trkpt lat="39.352735" lon="16.486988">
        <ele>1177.371489</ele>
        <time>2023-12-04T04:13:24.856Z</time>
      </trkpt>
      <trkpt lat="39.350828" lon="16.485965">
        <ele>1180.035588</ele>
        <time>2023-12-04T04:16:19.026Z</time>
      </trkpt>
      <trkpt lat="39.349941" lon="16.484866">
        <ele>1182.046783</ele>
        <time>2023-12-04T04:18:04.651Z</time>
      </trkpt>
      <trkpt lat="39.349077" lon="16.482942">
        <ele>1185.864795</ele>
        <time>2023-12-04T04:20:35.618Z</time>
      </trkpt>
      <trkpt lat="39.348004" lon="16.484992">
        <ele>1192.406584</ele>
        <time>2023-12-04T04:21:40.346Z</time>
      </trkpt>
      <trkpt lat="39.347919" lon="16.485097">
        <ele>1192.938115</ele>
        <time>2023-12-04T04:21:44.633Z</time>
      </trkpt>
      <trkpt lat="39.347803" lon="16.485102">
        <ele>1193.462927</ele>
        <time>2023-12-04T04:21:48.428Z</time>
      </trkpt>
      <trkpt lat="39.347519" lon="16.484994">
        <ele>1194.801477</ele>
        <time>2023-12-04T04:21:58.267Z</time>
      </trkpt>
      <trkpt lat="39.347268" lon="16.484826">
        <ele>1196.079452</ele>
        <time>2023-12-04T04:22:08.328Z</time>
      </trkpt>
      <trkpt lat="39.346499" lon="16.483924">
        <ele>1203.488299</ele>
        <time>2023-12-04T04:22:56.027Z</time>
      </trkpt>
      <trkpt lat="39.346225" lon="16.483787">
        <ele>1206.459689</ele>
        <time>2023-12-04T04:23:12.494Z</time>
      </trkpt>
      <trkpt lat="39.346128" lon="16.483861">
        <ele>1207.598833</ele>
        <time>2023-12-04T04:23:19.786Z</time>
      </trkpt>
      <trkpt lat="39.345702" lon="16.483829">
        <ele>1211.914958</ele>
        <time>2023-12-04T04:23:46.646Z</time>
      </trkpt>
      <trkpt lat="39.345622" lon="16.483845">
        <ele>1212.733755</ele>
        <time>2023-12-04T04:23:52.321Z</time>
      </trkpt>
      <trkpt lat="39.345542" lon="16.483902">
        <ele>1213.657636</ele>
        <time>2023-12-04T04:23:58.517Z</time>
      </trkpt>
      <trkpt lat="39.345397" lon="16.484071">
        <ele>1215.632099</ele>
        <time>2023-12-04T04:24:13.007Z</time>
      </trkpt>
      <trkpt lat="39.345360" lon="16.484176">
        <ele>1216.534664</ele>
        <time>2023-12-04T04:24:19.768Z</time>
      </trkpt>
      <trkpt lat="39.345368" lon="16.484230">
        <ele>1217.021247</ele>
        <time>2023-12-04T04:24:22.943Z</time>
      </trkpt>
      <trkpt lat="39.345487" lon="16.484427">
        <ele>1219.551022</ele>
        <time>2023-12-04T04:24:38.343Z</time>
      </trkpt>
      <trkpt lat="39.345831" lon="16.484886">
        <ele>1226.019575</ele>
        <time>2023-12-04T04:25:19.733Z</time>
      </trkpt>
      <trkpt lat="39.346151" lon="16.485400">
        <ele>1232.697422</ele>
        <time>2023-12-04T04:25:59.905Z</time>
      </trkpt>
      <trkpt lat="39.346481" lon="16.486000">
        <ele>1240.148476</ele>
        <time>2023-12-04T04:26:37.740Z</time>
      </trkpt>
      <trkpt lat="39.346609" lon="16.486339">
        <ele>1242.200572</ele>
        <time>2023-12-04T04:26:53.628Z</time>
      </trkpt>
      <trkpt lat="39.346626" lon="16.486434">
        <ele>1242.710839</ele>
        <time>2023-12-04T04:26:57.531Z</time>
      </trkpt>
      <trkpt lat="39.346571" lon="16.486480">
        <ele>1243.154076</ele>
        <time>2023-12-04T04:27:00.786Z</time>
      </trkpt>
      <trkpt lat="39.346243" lon="16.486084">
        <ele>1246.190607</ele>
        <time>2023-12-04T04:27:21.235Z</time>
      </trkpt>
      <trkpt lat="39.345772" lon="16.485683">
        <ele>1250.006564</ele>
        <time>2023-12-04T04:27:44.654Z</time>
      </trkpt>
      <trkpt lat="39.345455" lon="16.485653">
        <ele>1252.157387</ele>
        <time>2023-12-04T04:27:57.464Z</time>
      </trkpt>
      <trkpt lat="39.345152" lon="16.485689">
        <ele>1254.174756</ele>
        <time>2023-12-04T04:28:09.986Z</time>
      </trkpt>
      <trkpt lat="39.345076" lon="16.485752">
        <ele>1254.770986</ele>
        <time>2023-12-04T04:28:13.838Z</time>
      </trkpt>
      <trkpt lat="39.344991" lon="16.486001">
        <ele>1256.161163</ele>
        <time>2023-12-04T04:28:23.275Z</time>
      </trkpt>
      <trkpt lat="39.344790" lon="16.486352">
        <ele>1258.391923</ele>
        <time>2023-12-04T04:28:39.222Z</time>
      </trkpt>
      <trkpt lat="39.344753" lon="16.486548">
        <ele>1259.422405</ele>
        <time>2023-12-04T04:28:46.967Z</time>
      </trkpt>
      <trkpt lat="39.344675" lon="16.487463">
        <ele>1264.124164</ele>
        <time>2023-12-04T04:29:23.740Z</time>
      </trkpt>
      <trkpt lat="39.344632" lon="16.487588">
        <ele>1264.579366</ele>
        <time>2023-12-04T04:29:29.128Z</time>
      </trkpt>
      <trkpt lat="39.344563" lon="16.487679">
        <ele>1264.887629</ele>
        <time>2023-12-04T04:29:33.674Z</time>
      </trkpt>
      <trkpt lat="39.344039" lon="16.487651">
        <ele>1266.527965</ele>
        <time>2023-12-04T04:29:55.409Z</time>
      </trkpt>
      <trkpt lat="39.343951" lon="16.487625">
        <ele>1266.810300</ele>
        <time>2023-12-04T04:29:58.658Z</time>
      </trkpt>
      <trkpt lat="39.343708" lon="16.487230">
        <ele>1268.031179</ele>
        <time>2023-12-04T04:30:10.413Z</time>
      </trkpt>
      <trkpt lat="39.343554" lon="16.486829">
        <ele>1269.114157</ele>
        <time>2023-12-04T04:30:18.606Z</time>
      </trkpt>
      <trkpt lat="39.343516" lon="16.486515">
        <ele>1269.882925</ele>
        <time>2023-12-04T04:30:23.483Z</time>
      </trkpt>
      <trkpt lat="39.343553" lon="16.486276">
        <ele>1269.895613</ele>
        <time>2023-12-04T04:30:26.806Z</time>
      </trkpt>
      <trkpt lat="39.343534" lon="16.486158">
        <ele>1269.841482</ele>
        <time>2023-12-04T04:30:28.460Z</time>
      </trkpt>
      <trkpt lat="39.343424" lon="16.485839">
        <ele>1269.684619</ele>
        <time>2023-12-04T04:30:32.980Z</time>
      </trkpt>
      <trkpt lat="39.343203" lon="16.485479">
        <ele>1269.478193</ele>
        <time>2023-12-04T04:30:38.758Z</time>
      </trkpt>
      <trkpt lat="39.342894" lon="16.485379">
        <ele>1269.293213</ele>
        <time>2023-12-04T04:30:44.004Z</time>
      </trkpt>
      <trkpt lat="39.342523" lon="16.485142">
        <ele>1269.052905</ele>
        <time>2023-12-04T04:30:51.333Z</time>
      </trkpt>
      <trkpt lat="39.341565" lon="16.485217">
        <ele>1270.569656</ele>
        <time>2023-12-04T04:31:15.626Z</time>
      </trkpt>
      <trkpt lat="39.341454" lon="16.485261">
        <ele>1270.815860</ele>
        <time>2023-12-04T04:31:19.114Z</time>
      </trkpt>
      <trkpt lat="39.341366" lon="16.485334">
        <ele>1271.037580</ele>
        <time>2023-12-04T04:31:22.376Z</time>
      </trkpt>
      <trkpt lat="39.340515" lon="16.486310">
        <ele>1274.054067</ele>
        <time>2023-12-04T04:31:59.528Z</time>
      </trkpt>
      <trkpt lat="39.340320" lon="16.486560">
        <ele>1275.143288</ele>
        <time>2023-12-04T04:32:09.218Z</time>
      </trkpt>
      <trkpt lat="39.340156" lon="16.486836">
        <ele>1276.211000</ele>
        <time>2023-12-04T04:32:19.087Z</time>
      </trkpt>
      <trkpt lat="39.340120" lon="16.486939">
        <ele>1276.557737</ele>
        <time>2023-12-04T04:32:22.394Z</time>
      </trkpt>
      <trkpt lat="39.340015" lon="16.487398">
        <ele>1278.026098</ele>
        <time>2023-12-04T04:32:36.502Z</time>
      </trkpt>
      <trkpt lat="39.339814" lon="16.487976">
        <ele>1279.965110</ele>
        <time>2023-12-04T04:32:55.001Z</time>
      </trkpt>
      <trkpt lat="39.339568" lon="16.489056">
        <ele>1283.199417</ele>
        <time>2023-12-04T04:33:27.511Z</time>
      </trkpt>
      <trkpt lat="39.339049" lon="16.492507">
        <ele>1292.455742</ele>
        <time>2023-12-04T04:34:56.764Z</time>
      </trkpt>
      <trkpt lat="39.339252" lon="16.494545">
        <ele>1298.501135</ele>
        <time>2023-12-04T04:35:53.112Z</time>
      </trkpt>
      <trkpt lat="39.339242" lon="16.495271">
        <ele>1300.871881</ele>
        <time>2023-12-04T04:36:13.961Z</time>
      </trkpt>
      <trkpt lat="39.338825" lon="16.495903">
        <ele>1303.728888</ele>
        <time>2023-12-04T04:36:37.783Z</time>
      </trkpt>
      <trkpt lat="39.338154" lon="16.497676">
        <ele>1311.811284</ele>
        <time>2023-12-04T04:37:38.326Z</time>
      </trkpt>
      <trkpt lat="39.337800" lon="16.498277">
        <ele>1315.437486</ele>
        <time>2023-12-04T04:38:04.397Z</time>
      </trkpt>
      <trkpt lat="39.337635" lon="16.498494">
        <ele>1316.898184</ele>
        <time>2023-12-04T04:38:15.714Z</time>
      </trkpt>
      <trkpt lat="39.336510" lon="16.499096">
        <ele>1327.764895</ele>
        <time>2023-12-04T04:39:22.999Z</time>
      </trkpt>
      <trkpt lat="39.335636" lon="16.499515">
        <ele>1336.675475</ele>
        <time>2023-12-04T04:40:22.795Z</time>
      </trkpt>
      <trkpt lat="39.335485" lon="16.499409">
        <ele>1338.257055</ele>
        <time>2023-12-04T04:40:33.691Z</time>
      </trkpt>
      <trkpt lat="39.335346" lon="16.499210">
        <ele>1340.166050</ele>
        <time>2023-12-04T04:40:47.009Z</time>
      </trkpt>
      <trkpt lat="39.335033" lon="16.498855">
        <ele>1343.998610</ele>
        <time>2023-12-04T04:41:12.523Z</time>
      </trkpt>
      <trkpt lat="39.334862" lon="16.498585">
        <ele>1346.483085</ele>
        <time>2023-12-04T04:41:28.113Z</time>
      </trkpt>
      <trkpt lat="39.334534" lon="16.498285">
        <ele>1350.181362</ele>
        <time>2023-12-04T04:41:49.602Z</time>
      </trkpt>
      <trkpt lat="39.334424" lon="16.498016">
        <ele>1352.279554</ele>
        <time>2023-12-04T04:42:01.157Z</time>
      </trkpt>
      <trkpt lat="39.334216" lon="16.497826">
        <ele>1353.095930</ele>
        <time>2023-12-04T04:42:12.776Z</time>
      </trkpt>
      <trkpt lat="39.333745" lon="16.497787">
        <ele>1354.608829</ele>
        <time>2023-12-04T04:42:31.267Z</time>
      </trkpt>
      <trkpt lat="39.333347" lon="16.497890">
        <ele>1355.909939</ele>
        <time>2023-12-04T04:42:43.858Z</time>
      </trkpt>
      <trkpt lat="39.333029" lon="16.498420">
        <ele>1357.573037</ele>
        <time>2023-12-04T04:42:56.549Z</time>
      </trkpt>
      <trkpt lat="39.332729" lon="16.498696">
        <ele>1357.554166</ele>
        <time>2023-12-04T04:43:03.917Z</time>
      </trkpt>
      <trkpt lat="39.332570" lon="16.498609">
        <ele>1357.216270</ele>
        <time>2023-12-04T04:43:07.053Z</time>
      </trkpt>
      <trkpt lat="39.332230" lon="16.498165">
        <ele>1356.270491</ele>
        <time>2023-12-04T04:43:15.089Z</time>
      </trkpt>
      <trkpt lat="39.332042" lon="16.497828">
        <ele>1355.641511</ele>
        <time>2023-12-04T04:43:19.955Z</time>
      </trkpt>
      <trkpt lat="39.331857" lon="16.497721">
        <ele>1355.244872</ele>
        <time>2023-12-04T04:43:22.938Z</time>
      </trkpt>
      <trkpt lat="39.331680" lon="16.498029">
        <ele>1354.664030</ele>
        <time>2023-12-04T04:43:27.186Z</time>
      </trkpt>
      <trkpt lat="39.331608" lon="16.498107">
        <ele>1354.470373</ele>
        <time>2023-12-04T04:43:28.510Z</time>
      </trkpt>
      <trkpt lat="39.330800" lon="16.497781">
        <ele>1350.895888</ele>
        <time>2023-12-04T04:43:36.672Z</time>
      </trkpt>
      <trkpt lat="39.329631" lon="16.497232">
        <ele>1346.756841</ele>
        <time>2023-12-04T04:43:48.592Z</time>
      </trkpt>
      <trkpt lat="39.329545" lon="16.497192">
        <ele>1346.714779</ele>
        <time>2023-12-04T04:43:49.504Z</time>
      </trkpt>
      <trkpt lat="39.329363" lon="16.497106">
        <ele>1346.625602</ele>
        <time>2023-12-04T04:43:51.479Z</time>
      </trkpt>
      <trkpt lat="39.329164" lon="16.497028">
        <ele>1346.529904</ele>
        <time>2023-12-04T04:43:53.670Z</time>
      </trkpt>
      <trkpt lat="39.328996" lon="16.496959">
        <ele>1346.448781</ele>
        <time>2023-12-04T04:43:55.833Z</time>
      </trkpt>
      <trkpt lat="39.328559" lon="16.496673">
        <ele>1346.223369</ele>
        <time>2023-12-04T04:44:05.768Z</time>
      </trkpt>
      <trkpt lat="39.328500" lon="16.496685">
        <ele>1346.195882</ele>
        <time>2023-12-04T04:44:07.494Z</time>
      </trkpt>
      <trkpt lat="39.328415" lon="16.496767">
        <ele>1346.147074</ele>
        <time>2023-12-04T04:44:11.096Z</time>
      </trkpt>
      <trkpt lat="39.328395" lon="16.496991">
        <ele>1346.066804</ele>
        <time>2023-12-04T04:44:16.415Z</time>
      </trkpt>
      <trkpt lat="39.328332" lon="16.497117">
        <ele>1346.406703</ele>
        <time>2023-12-04T04:44:20.010Z</time>
      </trkpt>
      <trkpt lat="39.328078" lon="16.497342">
        <ele>1347.339786</ele>
        <time>2023-12-04T04:44:29.181Z</time>
      </trkpt>
      <trkpt lat="39.327737" lon="16.497609">
        <ele>1348.547912</ele>
        <time>2023-12-04T04:44:41.142Z</time>
      </trkpt>
      <trkpt lat="39.327616" lon="16.497703">
        <ele>1348.975703</ele>
        <time>2023-12-04T04:44:45.622Z</time>
      </trkpt>
      <trkpt lat="39.327390" lon="16.497878">
        <ele>1349.774032</ele>
        <time>2023-12-04T04:44:52.975Z</time>
      </trkpt>
      <trkpt lat="39.327301" lon="16.497998">
        <ele>1350.163734</ele>
        <time>2023-12-04T04:44:57.313Z</time>
      </trkpt>
      <trkpt lat="39.327289" lon="16.498197">
        <ele>1350.631631</ele>
        <time>2023-12-04T04:45:01.795Z</time>
      </trkpt>
      <trkpt lat="39.327329" lon="16.498684">
        <ele>1351.564399</ele>
        <time>2023-12-04T04:45:13.261Z</time>
      </trkpt>
      <trkpt lat="39.327081" lon="16.500010">
        <ele>1352.152915</ele>
        <time>2023-12-04T04:45:35.516Z</time>
      </trkpt>
      <trkpt lat="39.326855" lon="16.500548">
        <ele>1352.417022</ele>
        <time>2023-12-04T04:45:43.717Z</time>
      </trkpt>
      <trkpt lat="39.326343" lon="16.501061">
        <ele>1353.411500</ele>
        <time>2023-12-04T04:46:00.109Z</time>
      </trkpt>
      <trkpt lat="39.326283" lon="16.501121">
        <ele>1353.557098</ele>
        <time>2023-12-04T04:46:02.026Z</time>
      </trkpt>
      <trkpt lat="39.325390" lon="16.501650">
        <ele>1355.442501</ele>
        <time>2023-12-04T04:46:31.684Z</time>
      </trkpt>
      <trkpt lat="39.324387" lon="16.502902">
        <ele>1357.849977</ele>
        <time>2023-12-04T04:47:13.471Z</time>
      </trkpt>
      <trkpt lat="39.324140" lon="16.503117">
        <ele>1358.350013</ele>
        <time>2023-12-04T04:47:19.311Z</time>
      </trkpt>
      <trkpt lat="39.323944" lon="16.503233">
        <ele>1358.711998</ele>
        <time>2023-12-04T04:47:23.438Z</time>
      </trkpt>
      <trkpt lat="39.323570" lon="16.503325">
        <ele>1359.414281</ele>
        <time>2023-12-04T04:47:31.801Z</time>
      </trkpt>
      <trkpt lat="39.322477" lon="16.503620">
        <ele>1361.617530</ele>
        <time>2023-12-04T04:48:04.614Z</time>
      </trkpt>
      <trkpt lat="39.321351" lon="16.503881">
        <ele>1363.675291</ele>
        <time>2023-12-04T04:48:39.592Z</time>
      </trkpt>
      <trkpt lat="39.321174" lon="16.503942">
        <ele>1363.982691</ele>
        <time>2023-12-04T04:48:45.057Z</time>
      </trkpt>
      <trkpt lat="39.321058" lon="16.504033">
        <ele>1364.210393</ele>
        <time>2023-12-04T04:48:48.852Z</time>
      </trkpt>
      <trkpt lat="39.320902" lon="16.504210">
        <ele>1364.558718</ele>
        <time>2023-12-04T04:48:54.968Z</time>
      </trkpt>
      <trkpt lat="39.320746" lon="16.504476">
        <ele>1364.992051</ele>
        <time>2023-12-04T04:49:01.726Z</time>
      </trkpt>
      <trkpt lat="39.320659" lon="16.504756">
        <ele>1365.383770</ele>
        <time>2023-12-04T04:49:07.257Z</time>
      </trkpt>
      <trkpt lat="39.320402" lon="16.505960">
        <ele>1364.436994</ele>
        <time>2023-12-04T04:49:24.181Z</time>
      </trkpt>
      <trkpt lat="39.320144" lon="16.507293">
        <ele>1362.934082</ele>
        <time>2023-12-04T04:49:40.852Z</time>
      </trkpt>
      <trkpt lat="39.320132" lon="16.507590">
        <ele>1362.417721</ele>
        <time>2023-12-04T04:49:44.397Z</time>
      </trkpt>
      <trkpt lat="39.320223" lon="16.508026">
        <ele>1361.633662</ele>
        <time>2023-12-04T04:49:49.827Z</time>
      </trkpt>
      <trkpt lat="39.320244" lon="16.508241">
        <ele>1361.257411</ele>
        <time>2023-12-04T04:49:52.463Z</time>
      </trkpt>
      <trkpt lat="39.319770" lon="16.510121">
        <ele>1357.918475</ele>
        <time>2023-12-04T04:50:15.976Z</time>
      </trkpt>
      <trkpt lat="39.319751" lon="16.510937">
        <ele>1356.599459</ele>
        <time>2023-12-04T04:50:25.734Z</time>
      </trkpt>
      <trkpt lat="39.319508" lon="16.521113">
        <ele>1344.226608</ele>
        <time>2023-12-04T04:52:34.106Z</time>
      </trkpt>
      <trkpt lat="39.318896" lon="16.522346">
        <ele>1344.282604</ele>
        <time>2023-12-04T04:52:58.589Z</time>
      </trkpt>
      <trkpt lat="39.317340" lon="16.525877">
        <ele>1344.642317</ele>
        <time>2023-12-04T04:54:06.970Z</time>
      </trkpt>
      <trkpt lat="39.316836" lon="16.526959">
        <ele>1344.215812</ele>
        <time>2023-12-04T04:54:23.681Z</time>
      </trkpt>
      <trkpt lat="39.316572" lon="16.528618">
        <ele>1343.575375</ele>
        <time>2023-12-04T04:54:46.386Z</time>
      </trkpt>
      <trkpt lat="39.316084" lon="16.531533">
        <ele>1344.979755</ele>
        <time>2023-12-04T04:55:39.328Z</time>
      </trkpt>
      <trkpt lat="39.316209" lon="16.531852">
        <ele>1345.886152</ele>
        <time>2023-12-04T04:55:47.414Z</time>
      </trkpt>
      <trkpt lat="39.316947" lon="16.532920">
        <ele>1349.538973</ele>
        <time>2023-12-04T04:56:25.544Z</time>
      </trkpt>
      <trkpt lat="39.316993" lon="16.533157">
        <ele>1350.162265</ele>
        <time>2023-12-04T04:56:32.573Z</time>
      </trkpt>
      <trkpt lat="39.316966" lon="16.534076">
        <ele>1353.590120</ele>
        <time>2023-12-04T04:56:59.201Z</time>
      </trkpt>
      <trkpt lat="39.317058" lon="16.534234">
        <ele>1354.436557</ele>
        <time>2023-12-04T04:57:05.549Z</time>
      </trkpt>
      <trkpt lat="39.317268" lon="16.534433">
        <ele>1355.877197</ele>
        <time>2023-12-04T04:57:17.362Z</time>
      </trkpt>
      <trkpt lat="39.317612" lon="16.535371">
        <ele>1360.320387</ele>
        <time>2023-12-04T04:57:53.962Z</time>
      </trkpt>
      <trkpt lat="39.317612" lon="16.535613">
        <ele>1361.390013</ele>
        <time>2023-12-04T04:58:02.202Z</time>
      </trkpt>
      <trkpt lat="39.317560" lon="16.535663">
        <ele>1361.773184</ele>
        <time>2023-12-04T04:58:05.217Z</time>
      </trkpt>
      <trkpt lat="39.317265" lon="16.535955">
        <ele>1363.969942</ele>
        <time>2023-12-04T04:58:21.041Z</time>
      </trkpt>
      <trkpt lat="39.317259" lon="16.536136">
        <ele>1364.798595</ele>
        <time>2023-12-04T04:58:26.692Z</time>
      </trkpt>
      <trkpt lat="39.317512" lon="16.536539">
        <ele>1367.172455</ele>
        <time>2023-12-04T04:58:43.831Z</time>
      </trkpt>
      <trkpt lat="39.317546" lon="16.536714">
        <ele>1367.997755</ele>
        <time>2023-12-04T04:58:50.047Z</time>
      </trkpt>
      <trkpt lat="39.317571" lon="16.537215">
        <ele>1370.294078</ele>
        <time>2023-12-04T04:59:07.722Z</time>
      </trkpt>
      <trkpt lat="39.317611" lon="16.537301">
        <ele>1370.753055</ele>
        <time>2023-12-04T04:59:11.133Z</time>
      </trkpt>
      <trkpt lat="39.317662" lon="16.537361">
        <ele>1371.160772</ele>
        <time>2023-12-04T04:59:14.248Z</time>
      </trkpt>
      <trkpt lat="39.317973" lon="16.537526">
        <ele>1372.839251</ele>
        <time>2023-12-04T04:59:29.886Z</time>
      </trkpt>
      <trkpt lat="39.318039" lon="16.537630">
        <ele>1373.339304</ele>
        <time>2023-12-04T04:59:34.579Z</time>
      </trkpt>
      <trkpt lat="39.318064" lon="16.537783">
        <ele>1373.920626</ele>
        <time>2023-12-04T04:59:39.626Z</time>
      </trkpt>
      <trkpt lat="39.318035" lon="16.537914">
        <ele>1374.427161</ele>
        <time>2023-12-04T04:59:43.976Z</time>
      </trkpt>
      <trkpt lat="39.317541" lon="16.538752">
        <ele>1378.343737</ele>
        <time>2023-12-04T05:00:14.484Z</time>
      </trkpt>
      <trkpt lat="39.317424" lon="16.538914">
        <ele>1379.167608</ele>
        <time>2023-12-04T05:00:20.532Z</time>
      </trkpt>
      <trkpt lat="39.317386" lon="16.539047">
        <ele>1379.694678</ele>
        <time>2023-12-04T05:00:24.503Z</time>
      </trkpt>
      <trkpt lat="39.317403" lon="16.539171">
        <ele>1380.154594</ele>
        <time>2023-12-04T05:00:28.087Z</time>
      </trkpt>
      <trkpt lat="39.317472" lon="16.539262">
        <ele>1380.453786</ele>
        <time>2023-12-04T05:00:31.582Z</time>
      </trkpt>
      <trkpt lat="39.317552" lon="16.539297">
        <ele>1380.710125</ele>
        <time>2023-12-04T05:00:34.414Z</time>
      </trkpt>
      <trkpt lat="39.318076" lon="16.539205">
        <ele>1382.315124</ele>
        <time>2023-12-04T05:00:53.103Z</time>
      </trkpt>
      <trkpt lat="39.318191" lon="16.539262">
        <ele>1382.688942</ele>
        <time>2023-12-04T05:00:57.221Z</time>
      </trkpt>
      <trkpt lat="39.318247" lon="16.539326">
        <ele>1382.915815</ele>
        <time>2023-12-04T05:00:59.596Z</time>
      </trkpt>
      <trkpt lat="39.318285" lon="16.539434">
        <ele>1383.194402</ele>
        <time>2023-12-04T05:01:02.611Z</time>
      </trkpt>
      <trkpt lat="39.318269" lon="16.540696">
        <ele>1386.355298</ele>
        <time>2023-12-04T05:01:30.387Z</time>
      </trkpt>
      <trkpt lat="39.318162" lon="16.540969">
        <ele>1387.327649</ele>
        <time>2023-12-04T05:01:37.506Z</time>
      </trkpt>
      <trkpt lat="39.317501" lon="16.541865">
        <ele>1391.261315</ele>
        <time>2023-12-04T05:02:13.444Z</time>
      </trkpt>
      <trkpt lat="39.317422" lon="16.541922">
        <ele>1391.632882</ele>
        <time>2023-12-04T05:02:17.160Z</time>
      </trkpt>
      <trkpt lat="39.317336" lon="16.541944">
        <ele>1391.992925</ele>
        <time>2023-12-04T05:02:20.748Z</time>
      </trkpt>
      <trkpt lat="39.316981" lon="16.541826">
        <ele>1393.685190</ele>
        <time>2023-12-04T05:02:36.316Z</time>
      </trkpt>
      <trkpt lat="39.316839" lon="16.541882">
        <ele>1394.517484</ele>
        <time>2023-12-04T05:02:42.818Z</time>
      </trkpt>
      <trkpt lat="39.316610" lon="16.542279">
        <ele>1396.665261</ele>
        <time>2023-12-04T05:02:59.970Z</time>
      </trkpt>
      <trkpt lat="39.316134" lon="16.542634">
        <ele>1399.746108</ele>
        <time>2023-12-04T05:03:25.193Z</time>
      </trkpt>
      <trkpt lat="39.315838" lon="16.543010">
        <ele>1402.072722</ele>
        <time>2023-12-04T05:03:43.470Z</time>
      </trkpt>
      <trkpt lat="39.315679" lon="16.543144">
        <ele>1403.096683</ele>
        <time>2023-12-04T05:03:51.059Z</time>
      </trkpt>
      <trkpt lat="39.315212" lon="16.543173">
        <ele>1404.149684</ele>
        <time>2023-12-04T05:04:07.331Z</time>
      </trkpt>
      <trkpt lat="39.315142" lon="16.543251">
        <ele>1404.357838</ele>
        <time>2023-12-04T05:04:10.125Z</time>
      </trkpt>
      <trkpt lat="39.315117" lon="16.543364">
        <ele>1404.562631</ele>
        <time>2023-12-04T05:04:12.770Z</time>
      </trkpt>
      <trkpt lat="39.315127" lon="16.543468">
        <ele>1404.745243</ele>
        <time>2023-12-04T05:04:15.097Z</time>
      </trkpt>
      <trkpt lat="39.315175" lon="16.543549">
        <ele>1404.923029</ele>
        <time>2023-12-04T05:04:17.338Z</time>
      </trkpt>
      <trkpt lat="39.315251" lon="16.543606">
        <ele>1405.120927</ele>
        <time>2023-12-04T05:04:19.744Z</time>
      </trkpt>
      <trkpt lat="39.315651" lon="16.543612">
        <ele>1406.021877</ele>
        <time>2023-12-04T05:04:29.970Z</time>
      </trkpt>
      <trkpt lat="39.316364" lon="16.543438">
        <ele>1407.273487</ele>
        <time>2023-12-04T05:04:47.167Z</time>
      </trkpt>
      <trkpt lat="39.316526" lon="16.543463">
        <ele>1407.378364</ele>
        <time>2023-12-04T05:04:50.702Z</time>
      </trkpt>
      <trkpt lat="39.316626" lon="16.543582">
        <ele>1407.465742</ele>
        <time>2023-12-04T05:04:53.489Z</time>
      </trkpt>
      <trkpt lat="39.316654" lon="16.543760">
        <ele>1407.556077</ele>
        <time>2023-12-04T05:04:56.276Z</time>
      </trkpt>
      <trkpt lat="39.316640" lon="16.544078">
        <ele>1407.714483</ele>
        <time>2023-12-04T05:05:01.543Z</time>
      </trkpt>
      <trkpt lat="39.316553" lon="16.544322">
        <ele>1407.848099</ele>
        <time>2023-12-04T05:05:06.004Z</time>
      </trkpt>
      <trkpt lat="39.316306" lon="16.544794">
        <ele>1408.131495</ele>
        <time>2023-12-04T05:05:15.972Z</time>
      </trkpt>
      <trkpt lat="39.316198" lon="16.545143">
        <ele>1408.391100</ele>
        <time>2023-12-04T05:05:22.977Z</time>
      </trkpt>
      <trkpt lat="39.316170" lon="16.545343">
        <ele>1408.668984</ele>
        <time>2023-12-04T05:05:26.076Z</time>
      </trkpt>
      <trkpt lat="39.316158" lon="16.545448">
        <ele>1408.814100</ele>
        <time>2023-12-04T05:05:27.747Z</time>
      </trkpt>
      <trkpt lat="39.316070" lon="16.545624">
        <ele>1409.100609</ele>
        <time>2023-12-04T05:05:31.365Z</time>
      </trkpt>
      <trkpt lat="39.315984" lon="16.545702">
        <ele>1409.286271</ele>
        <time>2023-12-04T05:05:33.506Z</time>
      </trkpt>
      <trkpt lat="39.315902" lon="16.545720">
        <ele>1409.433256</ele>
        <time>2023-12-04T05:05:35.280Z</time>
      </trkpt>
      <trkpt lat="39.315799" lon="16.545693">
        <ele>1409.618984</ele>
        <time>2023-12-04T05:05:37.650Z</time>
      </trkpt>
      <trkpt lat="39.315280" lon="16.545088">
        <ele>1410.854066</ele>
        <time>2023-12-04T05:05:52.991Z</time>
      </trkpt>
      <trkpt lat="39.314479" lon="16.544458">
        <ele>1413.244486</ele>
        <time>2023-12-04T05:06:16.450Z</time>
      </trkpt>
      <trkpt lat="39.314130" lon="16.544206">
        <ele>1414.441790</ele>
        <time>2023-12-04T05:06:27.259Z</time>
      </trkpt>
      <trkpt lat="39.314005" lon="16.544091">
        <ele>1414.901319</ele>
        <time>2023-12-04T05:06:31.543Z</time>
      </trkpt>
      <trkpt lat="39.313951" lon="16.544037">
        <ele>1415.105803</ele>
        <time>2023-12-04T05:06:33.485Z</time>
      </trkpt>
      <trkpt lat="39.313561" lon="16.543718">
        <ele>1416.488099</ele>
        <time>2023-12-04T05:06:46.309Z</time>
      </trkpt>
      <trkpt lat="39.313129" lon="16.543169">
        <ele>1418.587224</ele>
        <time>2023-12-04T05:07:03.863Z</time>
      </trkpt>
      <trkpt lat="39.312674" lon="16.542319">
        <ele>1421.449194</ele>
        <time>2023-12-04T05:07:27.477Z</time>
      </trkpt>
      <trkpt lat="39.311201" lon="16.539875">
        <ele>1429.445244</ele>
        <time>2023-12-04T05:08:37.954Z</time>
      </trkpt>
      <trkpt lat="39.311042" lon="16.539740">
        <ele>1429.566103</ele>
        <time>2023-12-04T05:08:42.266Z</time>
      </trkpt>
      <trkpt lat="39.310247" lon="16.539340">
        <ele>1430.108085</ele>
        <time>2023-12-04T05:08:56.947Z</time>
      </trkpt>
      <trkpt lat="39.309948" lon="16.539155">
        <ele>1430.318684</ele>
        <time>2023-12-04T05:09:01.343Z</time>
      </trkpt>
      <trkpt lat="39.309203" lon="16.538277">
        <ele>1430.615132</ele>
        <time>2023-12-04T05:09:13.808Z</time>
      </trkpt>
      <trkpt lat="39.308999" lon="16.537989">
        <ele>1430.652227</ele>
        <time>2023-12-04T05:09:17.583Z</time>
      </trkpt>
      <trkpt lat="39.308814" lon="16.537799">
        <ele>1430.681240</ele>
        <time>2023-12-04T05:09:20.710Z</time>
      </trkpt>
      <trkpt lat="39.305224" lon="16.534963">
        <ele>1437.752574</ele>
        <time>2023-12-04T05:10:54.469Z</time>
      </trkpt>
      <trkpt lat="39.304427" lon="16.534280">
        <ele>1440.992460</ele>
        <time>2023-12-04T05:11:21.480Z</time>
      </trkpt>
      <trkpt lat="39.301207" lon="16.531480">
        <ele>1454.260097</ele>
        <time>2023-12-04T05:13:18.846Z</time>
      </trkpt>
      <trkpt lat="39.301021" lon="16.531388">
        <ele>1454.818287</ele>
        <time>2023-12-04T05:13:23.122Z</time>
      </trkpt>
      <trkpt lat="39.300843" lon="16.531362">
        <ele>1455.320350</ele>
        <time>2023-12-04T05:13:26.792Z</time>
      </trkpt>
      <trkpt lat="39.299689" lon="16.531368">
        <ele>1455.015168</ele>
        <time>2023-12-04T05:13:42.599Z</time>
      </trkpt>
      <trkpt lat="39.299498" lon="16.531323">
        <ele>1454.868761</ele>
        <time>2023-12-04T05:13:44.749Z</time>
      </trkpt>
      <trkpt lat="39.298225" lon="16.530797">
        <ele>1454.337098</ele>
        <time>2023-12-04T05:13:59.922Z</time>
      </trkpt>
      <trkpt lat="39.298113" lon="16.530725">
        <ele>1454.324686</ele>
        <time>2023-12-04T05:14:01.456Z</time>
      </trkpt>
      <trkpt lat="39.298015" lon="16.530616">
        <ele>1454.311855</ele>
        <time>2023-12-04T05:14:03.079Z</time>
      </trkpt>
      <trkpt lat="39.297870" lon="16.530279">
        <ele>1454.282247</ele>
        <time>2023-12-04T05:14:07.055Z</time>
      </trkpt>
      <trkpt lat="39.297290" lon="16.527443">
        <ele>1459.568887</ele>
        <time>2023-12-04T05:15:03.479Z</time>
      </trkpt>
      <trkpt lat="39.297174" lon="16.526937">
        <ele>1462.371939</ele>
        <time>2023-12-04T05:15:20.202Z</time>
      </trkpt>
      <trkpt lat="39.297052" lon="16.526629">
        <ele>1464.343612</ele>
        <time>2023-12-04T05:15:32.244Z</time>
      </trkpt>
      <trkpt lat="39.296906" lon="16.526433">
        <ele>1465.893857</ele>
        <time>2023-12-04T05:15:41.869Z</time>
      </trkpt>
      <trkpt lat="39.295824" lon="16.525941">
        <ele>1474.345559</ele>
        <time>2023-12-04T05:16:38.812Z</time>
      </trkpt>
      <trkpt lat="39.294116" lon="16.525655">
        <ele>1486.994476</ele>
        <time>2023-12-04T05:17:54.530Z</time>
      </trkpt>
      <trkpt lat="39.293921" lon="16.525691">
        <ele>1488.303879</ele>
        <time>2023-12-04T05:18:01.821Z</time>
      </trkpt>
      <trkpt lat="39.293724" lon="16.525793">
        <ele>1489.714633</ele>
        <time>2023-12-04T05:18:10.012Z</time>
      </trkpt>
      <trkpt lat="39.293298" lon="16.526067">
        <ele>1492.877851</ele>
        <time>2023-12-04T05:18:28.601Z</time>
      </trkpt>
      <trkpt lat="39.292893" lon="16.526381">
        <ele>1496.017490</ele>
        <time>2023-12-04T05:18:47.898Z</time>
      </trkpt>
      <trkpt lat="39.292689" lon="16.526751">
        <ele>1498.398545</ele>
        <time>2023-12-04T05:19:02.699Z</time>
      </trkpt>
      <trkpt lat="39.292627" lon="16.527048">
        <ele>1500.462582</ele>
        <time>2023-12-04T05:19:13.362Z</time>
      </trkpt>
      <trkpt lat="39.292863" lon="16.528695">
        <ele>1511.701450</ele>
        <time>2023-12-04T05:20:18.968Z</time>
      </trkpt>
      <trkpt lat="39.292854" lon="16.528856">
        <ele>1512.784541</ele>
        <time>2023-12-04T05:20:25.672Z</time>
      </trkpt>
      <trkpt lat="39.292719" lon="16.529216">
        <ele>1515.505434</ele>
        <time>2023-12-04T05:20:42.197Z</time>
      </trkpt>
      <trkpt lat="39.292576" lon="16.529418">
        <ele>1517.382864</ele>
        <time>2023-12-04T05:20:53.516Z</time>
      </trkpt>
      <trkpt lat="39.292343" lon="16.529585">
        <ele>1519.743906</ele>
        <time>2023-12-04T05:21:07.661Z</time>
      </trkpt>
      <trkpt lat="39.291229" lon="16.529889">
        <ele>1529.817862</ele>
        <time>2023-12-04T05:22:04.347Z</time>
      </trkpt>
      <trkpt lat="39.291041" lon="16.529977">
        <ele>1531.291819</ele>
        <time>2023-12-04T05:22:13.459Z</time>
      </trkpt>
      <trkpt lat="39.290855" lon="16.530139">
        <ele>1532.945309</ele>
        <time>2023-12-04T05:22:23.497Z</time>
      </trkpt>
      <trkpt lat="39.289502" lon="16.531913">
        <ele>1546.804122</ele>
        <time>2023-12-04T05:23:46.932Z</time>
      </trkpt>
      <trkpt lat="39.289223" lon="16.532139">
        <ele>1549.026717</ele>
        <time>2023-12-04T05:24:01.280Z</time>
      </trkpt>
      <trkpt lat="39.288725" lon="16.532412">
        <ele>1552.678008</ele>
        <time>2023-12-04T05:24:24.377Z</time>
      </trkpt>
      <trkpt lat="39.288575" lon="16.532522">
        <ele>1553.842144</ele>
        <time>2023-12-04T05:24:31.470Z</time>
      </trkpt>
      <trkpt lat="39.288399" lon="16.532805">
        <ele>1555.544822</ele>
        <time>2023-12-04T05:24:43.171Z</time>
      </trkpt>
      <trkpt lat="39.287553" lon="16.535590">
        <ele>1563.504539</ele>
        <time>2023-12-04T05:25:56.712Z</time>
      </trkpt>
      <trkpt lat="39.287393" lon="16.535921">
        <ele>1563.584714</ele>
        <time>2023-12-04T05:26:01.535Z</time>
      </trkpt>
      <trkpt lat="39.287072" lon="16.536341">
        <ele>1563.705981</ele>
        <time>2023-12-04T05:26:07.085Z</time>
      </trkpt>
      <trkpt lat="39.286985" lon="16.536489">
        <ele>1563.744162</ele>
        <time>2023-12-04T05:26:08.617Z</time>
      </trkpt>
      <trkpt lat="39.286896" lon="16.536677">
        <ele>1563.789438</ele>
        <time>2023-12-04T05:26:10.381Z</time>
      </trkpt>
      <trkpt lat="39.286374" lon="16.538111">
        <ele>1559.797887</ele>
        <time>2023-12-04T05:26:22.123Z</time>
      </trkpt>
      <trkpt lat="39.286277" lon="16.538251">
        <ele>1559.269164</ele>
        <time>2023-12-04T05:26:23.568Z</time>
      </trkpt>
      <trkpt lat="39.286161" lon="16.538364">
        <ele>1558.741007</ele>
        <time>2023-12-04T05:26:24.991Z</time>
      </trkpt>
      <trkpt lat="39.286024" lon="16.538431">
        <ele>1558.208453</ele>
        <time>2023-12-04T05:26:26.450Z</time>
      </trkpt>
      <trkpt lat="39.285703" lon="16.538459">
        <ele>1557.295657</ele>
        <time>2023-12-04T05:26:29.792Z</time>
      </trkpt>
      <trkpt lat="39.285411" lon="16.538314">
        <ele>1557.358294</ele>
        <time>2023-12-04T05:26:33.273Z</time>
      </trkpt>
      <trkpt lat="39.285089" lon="16.538012">
        <ele>1557.437966</ele>
        <time>2023-12-04T05:26:38.572Z</time>
      </trkpt>
      <trkpt lat="39.284257" lon="16.537231">
        <ele>1557.654146</ele>
        <time>2023-12-04T05:27:01.095Z</time>
      </trkpt>
      <trkpt lat="39.281284" lon="16.534154">
        <ele>1562.491931</ele>
        <time>2023-12-04T05:28:21.058Z</time>
      </trkpt>
      <trkpt lat="39.281050" lon="16.533984">
        <ele>1562.023099</ele>
        <time>2023-12-04T05:28:24.212Z</time>
      </trkpt>
      <trkpt lat="39.280757" lon="16.533906">
        <ele>1561.500663</ele>
        <time>2023-12-04T05:28:27.558Z</time>
      </trkpt>
      <trkpt lat="39.280617" lon="16.533936">
        <ele>1561.252831</ele>
        <time>2023-12-04T05:28:29.106Z</time>
      </trkpt>
      <trkpt lat="39.279963" lon="16.534223">
        <ele>1560.046613</ele>
        <time>2023-12-04T05:28:36.259Z</time>
      </trkpt>
      <trkpt lat="39.278831" lon="16.534719">
        <ele>1555.911290</ele>
        <time>2023-12-04T05:28:48.158Z</time>
      </trkpt>
      <trkpt lat="39.277195" lon="16.535587">
        <ele>1548.967419</ele>
        <time>2023-12-04T05:29:05.335Z</time>
      </trkpt>
      <trkpt lat="39.276022" lon="16.536503">
        <ele>1542.735984</ele>
        <time>2023-12-04T05:29:18.758Z</time>
      </trkpt>
      <trkpt lat="39.275761" lon="16.536600">
        <ele>1541.308056</ele>
        <time>2023-12-04T05:29:21.351Z</time>
      </trkpt>
      <trkpt lat="39.275260" lon="16.536677">
        <ele>1538.655358</ele>
        <time>2023-12-04T05:29:26.034Z</time>
      </trkpt>
      <trkpt lat="39.275058" lon="16.536768">
        <ele>1537.530568</ele>
        <time>2023-12-04T05:29:27.999Z</time>
      </trkpt>
      <trkpt lat="39.274833" lon="16.537032">
        <ele>1535.796466</ele>
        <time>2023-12-04T05:29:30.762Z</time>
      </trkpt>
      <trkpt lat="39.274169" lon="16.538193">
        <ele>1527.097321</ele>
        <time>2023-12-04T05:29:40.675Z</time>
      </trkpt>
      <trkpt lat="39.273981" lon="16.538416">
        <ele>1525.110329</ele>
        <time>2023-12-04T05:29:42.897Z</time>
      </trkpt>
      <trkpt lat="39.273785" lon="16.538496">
        <ele>1523.510125</ele>
        <time>2023-12-04T05:29:44.673Z</time>
      </trkpt>
      <trkpt lat="39.273586" lon="16.538462">
        <ele>1522.006354</ele>
        <time>2023-12-04T05:29:46.419Z</time>
      </trkpt>
      <trkpt lat="39.273381" lon="16.538370">
        <ele>1520.691728</ele>
        <time>2023-12-04T05:29:48.308Z</time>
      </trkpt>
      <trkpt lat="39.272122" lon="16.537449">
        <ele>1511.927103</ele>
        <time>2023-12-04T05:30:01.668Z</time>
      </trkpt>
      <trkpt lat="39.271860" lon="16.537112">
        <ele>1510.093412</ele>
        <time>2023-12-04T05:30:05.417Z</time>
      </trkpt>
      <trkpt lat="39.271755" lon="16.536745">
        <ele>1508.715637</ele>
        <time>2023-12-04T05:30:08.479Z</time>
      </trkpt>
      <trkpt lat="39.271711" lon="16.536407">
        <ele>1507.508703</ele>
        <time>2023-12-04T05:30:11.101Z</time>
      </trkpt>
      <trkpt lat="39.271576" lon="16.536204">
        <ele>1506.566323</ele>
        <time>2023-12-04T05:30:13.117Z</time>
      </trkpt>
      <trkpt lat="39.271262" lon="16.536030">
        <ele>1505.012158</ele>
        <time>2023-12-04T05:30:16.405Z</time>
      </trkpt>
      <trkpt lat="39.270978" lon="16.536137">
        <ele>1503.666504</ele>
        <time>2023-12-04T05:30:19.198Z</time>
      </trkpt>
      <trkpt lat="39.270739" lon="16.536436">
        <ele>1501.492357</ele>
        <time>2023-12-04T05:30:22.255Z</time>
      </trkpt>
      <trkpt lat="39.270082" lon="16.537382">
        <ele>1494.008713</ele>
        <time>2023-12-04T05:30:30.994Z</time>
      </trkpt>
      <trkpt lat="39.269850" lon="16.537546">
        <ele>1491.997076</ele>
        <time>2023-12-04T05:30:33.302Z</time>
      </trkpt>
      <trkpt lat="39.269484" lon="16.537556">
        <ele>1489.238090</ele>
        <time>2023-12-04T05:30:36.490Z</time>
      </trkpt>
      <trkpt lat="39.269118" lon="16.537353">
        <ele>1486.527750</ele>
        <time>2023-12-04T05:30:39.961Z</time>
      </trkpt>
      <trkpt lat="39.268258" lon="16.536494">
        <ele>1479.130332</ele>
        <time>2023-12-04T05:30:49.720Z</time>
      </trkpt>
      <trkpt lat="39.268101" lon="16.536233">
        <ele>1477.389136</ele>
        <time>2023-12-04T05:30:52.174Z</time>
      </trkpt>
      <trkpt lat="39.267964" lon="16.535795">
        <ele>1476.249473</ele>
        <time>2023-12-04T05:30:55.851Z</time>
      </trkpt>
      <trkpt lat="39.267991" lon="16.535422">
        <ele>1475.425652</ele>
        <time>2023-12-04T05:30:58.875Z</time>
      </trkpt>
      <trkpt lat="39.268120" lon="16.535051">
        <ele>1474.531302</ele>
        <time>2023-12-04T05:31:02.286Z</time>
      </trkpt>
      <trkpt lat="39.268290" lon="16.534741">
        <ele>1473.695909</ele>
        <time>2023-12-04T05:31:05.559Z</time>
      </trkpt>
      <trkpt lat="39.268384" lon="16.534380">
        <ele>1472.858360</ele>
        <time>2023-12-04T05:31:08.830Z</time>
      </trkpt>
      <trkpt lat="39.268384" lon="16.534052">
        <ele>1472.137078</ele>
        <time>2023-12-04T05:31:11.570Z</time>
      </trkpt>
      <trkpt lat="39.268342" lon="16.533824">
        <ele>1471.354748</ele>
        <time>2023-12-04T05:31:13.511Z</time>
      </trkpt>
      <trkpt lat="39.268215" lon="16.533390">
        <ele>1469.773366</ele>
        <time>2023-12-04T05:31:17.130Z</time>
      </trkpt>
      <trkpt lat="39.268049" lon="16.533058">
        <ele>1468.426300</ele>
        <time>2023-12-04T05:31:20.088Z</time>
      </trkpt>
      <trkpt lat="39.267954" lon="16.532962">
        <ele>1467.895274</ele>
        <time>2023-12-04T05:31:21.221Z</time>
      </trkpt>
      <trkpt lat="39.267821" lon="16.532925">
        <ele>1467.296312</ele>
        <time>2023-12-04T05:31:22.496Z</time>
      </trkpt>
      <trkpt lat="39.267279" lon="16.532954">
        <ele>1464.908100</ele>
        <time>2023-12-04T05:31:27.500Z</time>
      </trkpt>
      <trkpt lat="39.267143" lon="16.532900">
        <ele>1464.281706</ele>
        <time>2023-12-04T05:31:28.803Z</time>
      </trkpt>
      <trkpt lat="39.267024" lon="16.532812">
        <ele>1463.789056</ele>
        <time>2023-12-04T05:31:30.080Z</time>
      </trkpt>
      <trkpt lat="39.266918" lon="16.532693">
        <ele>1463.305232</ele>
        <time>2023-12-04T05:31:31.373Z</time>
      </trkpt>
      <trkpt lat="39.266480" lon="16.531803">
        <ele>1460.492478</ele>
        <time>2023-12-04T05:31:39.208Z</time>
      </trkpt>
      <trkpt lat="39.266375" lon="16.530963">
        <ele>1458.223047</ele>
        <time>2023-12-04T05:31:46.517Z</time>
      </trkpt>
      <trkpt lat="39.266218" lon="16.530654">
        <ele>1457.968526</ele>
        <time>2023-12-04T05:31:50.381Z</time>
      </trkpt>
      <trkpt lat="39.266124" lon="16.530513">
        <ele>1457.952954</ele>
        <time>2023-12-04T05:31:52.332Z</time>
      </trkpt>
      <trkpt lat="39.266012" lon="16.530403">
        <ele>1457.937746</ele>
        <time>2023-12-04T05:31:54.430Z</time>
      </trkpt>
      <trkpt lat="39.265642" lon="16.530137">
        <ele>1457.891974</ele>
        <time>2023-12-04T05:32:00.983Z</time>
      </trkpt>
      <trkpt lat="39.265473" lon="16.530060">
        <ele>1457.872604</ele>
        <time>2023-12-04T05:32:03.998Z</time>
      </trkpt>
      <trkpt lat="39.265306" lon="16.530036">
        <ele>1457.854441</ele>
        <time>2023-12-04T05:32:06.769Z</time>
      </trkpt>
      <trkpt lat="39.265097" lon="16.530065">
        <ele>1457.831720</ele>
        <time>2023-12-04T05:32:10.406Z</time>
      </trkpt>
      <trkpt lat="39.264335" lon="16.530403">
        <ele>1457.337820</ele>
        <time>2023-12-04T05:32:22.611Z</time>
      </trkpt>
      <trkpt lat="39.264043" lon="16.530471">
        <ele>1457.060331</ele>
        <time>2023-12-04T05:32:26.459Z</time>
      </trkpt>
      <trkpt lat="39.263685" lon="16.530374">
        <ele>1456.718233</ele>
        <time>2023-12-04T05:32:30.833Z</time>
      </trkpt>
      <trkpt lat="39.262347" lon="16.530480">
        <ele>1454.203926</ele>
        <time>2023-12-04T05:32:45.866Z</time>
      </trkpt>
      <trkpt lat="39.260282" lon="16.529425">
        <ele>1446.897765</ele>
        <time>2023-12-04T05:33:08.138Z</time>
      </trkpt>
      <trkpt lat="39.259462" lon="16.529005">
        <ele>1443.348632</ele>
        <time>2023-12-04T05:33:16.593Z</time>
      </trkpt>
      <trkpt lat="39.259237" lon="16.529029">
        <ele>1442.290360</ele>
        <time>2023-12-04T05:33:18.749Z</time>
      </trkpt>
      <trkpt lat="39.259040" lon="16.529183">
        <ele>1441.210944</ele>
        <time>2023-12-04T05:33:20.949Z</time>
      </trkpt>
      <trkpt lat="39.258890" lon="16.529420">
        <ele>1440.099953</ele>
        <time>2023-12-04T05:33:23.196Z</time>
      </trkpt>
      <trkpt lat="39.258662" lon="16.530540">
        <ele>1435.896780</ele>
        <time>2023-12-04T05:33:31.715Z</time>
      </trkpt>
      <trkpt lat="39.258453" lon="16.532075">
        <ele>1429.729656</ele>
        <time>2023-12-04T05:33:43.151Z</time>
      </trkpt>
      <trkpt lat="39.258508" lon="16.532411">
        <ele>1428.370060</ele>
        <time>2023-12-04T05:33:45.638Z</time>
      </trkpt>
      <trkpt lat="39.258644" lon="16.532745">
        <ele>1426.876094</ele>
        <time>2023-12-04T05:33:48.348Z</time>
      </trkpt>
      <trkpt lat="39.259028" lon="16.533357">
        <ele>1423.146147</ele>
        <time>2023-12-04T05:33:53.952Z</time>
      </trkpt>
      <trkpt lat="39.259679" lon="16.534032">
        <ele>1417.980562</ele>
        <time>2023-12-04T05:34:01.544Z</time>
      </trkpt>
      <trkpt lat="39.259783" lon="16.534370">
        <ele>1416.238064</ele>
        <time>2023-12-04T05:34:04.093Z</time>
      </trkpt>
      <trkpt lat="39.259813" lon="16.534669">
        <ele>1414.839876</ele>
        <time>2023-12-04T05:34:06.211Z</time>
      </trkpt>
      <trkpt lat="39.259537" lon="16.536190">
        <ele>1407.820788</ele>
        <time>2023-12-04T05:34:17.263Z</time>
      </trkpt>
      <trkpt lat="39.259434" lon="16.537336">
        <ele>1404.021375</ele>
        <time>2023-12-04T05:34:25.701Z</time>
      </trkpt>
      <trkpt lat="39.259477" lon="16.538415">
        <ele>1401.894686</ele>
        <time>2023-12-04T05:34:34.481Z</time>
      </trkpt>
      <trkpt lat="39.259402" lon="16.538820">
        <ele>1401.075010</ele>
        <time>2023-12-04T05:34:38.426Z</time>
      </trkpt>
      <trkpt lat="39.259245" lon="16.539129">
        <ele>1400.531845</ele>
        <time>2023-12-04T05:34:42.417Z</time>
      </trkpt>
      <trkpt lat="39.258087" lon="16.540789">
        <ele>1400.616998</ele>
        <time>2023-12-04T05:35:11.880Z</time>
      </trkpt>
      <trkpt lat="39.257780" lon="16.541050">
        <ele>1399.753590</ele>
        <time>2023-12-04T05:35:16.492Z</time>
      </trkpt>
      <trkpt lat="39.255928" lon="16.541931">
        <ele>1395.003743</ele>
        <time>2023-12-04T05:35:36.575Z</time>
      </trkpt>
      <trkpt lat="39.255752" lon="16.542101">
        <ele>1394.441662</ele>
        <time>2023-12-04T05:35:38.868Z</time>
      </trkpt>
      <trkpt lat="39.255635" lon="16.542295">
        <ele>1393.954704</ele>
        <time>2023-12-04T05:35:40.877Z</time>
      </trkpt>
      <trkpt lat="39.255550" lon="16.542552">
        <ele>1393.401282</ele>
        <time>2023-12-04T05:35:43.215Z</time>
      </trkpt>
      <trkpt lat="39.255514" lon="16.542743">
        <ele>1393.011998</ele>
        <time>2023-12-04T05:35:44.854Z</time>
      </trkpt>
      <trkpt lat="39.255503" lon="16.543323">
        <ele>1391.863070</ele>
        <time>2023-12-04T05:35:49.773Z</time>
      </trkpt>
      <trkpt lat="39.255478" lon="16.543482">
        <ele>1391.386249</ele>
        <time>2023-12-04T05:35:51.153Z</time>
      </trkpt>
      <trkpt lat="39.255408" lon="16.543720">
        <ele>1390.575536</ele>
        <time>2023-12-04T05:35:53.296Z</time>
      </trkpt>
      <trkpt lat="39.255321" lon="16.543888">
        <ele>1389.931947</ele>
        <time>2023-12-04T05:35:55.016Z</time>
      </trkpt>
      <trkpt lat="39.255107" lon="16.544072">
        <ele>1388.874679</ele>
        <time>2023-12-04T05:35:57.747Z</time>
      </trkpt>
      <trkpt lat="39.254975" lon="16.544124">
        <ele>1388.307145</ele>
        <time>2023-12-04T05:35:59.168Z</time>
      </trkpt>
      <trkpt lat="39.254749" lon="16.544142">
        <ele>1387.375971</ele>
        <time>2023-12-04T05:36:01.421Z</time>
      </trkpt>
      <trkpt lat="39.254617" lon="16.544107">
        <ele>1386.821808</ele>
        <time>2023-12-04T05:36:02.734Z</time>
      </trkpt>
      <trkpt lat="39.253890" lon="16.543689">
        <ele>1382.798630</ele>
        <time>2023-12-04T05:36:09.989Z</time>
      </trkpt>
      <trkpt lat="39.252944" lon="16.543145">
        <ele>1374.787026</ele>
        <time>2023-12-04T05:36:19.036Z</time>
      </trkpt>
      <trkpt lat="39.252778" lon="16.543111">
        <ele>1373.486704</ele>
        <time>2023-12-04T05:36:20.515Z</time>
      </trkpt>
      <trkpt lat="39.252624" lon="16.543140">
        <ele>1372.282674</ele>
        <time>2023-12-04T05:36:21.897Z</time>
      </trkpt>
      <trkpt lat="39.252362" lon="16.543269">
        <ele>1370.228763</ele>
        <time>2023-12-04T05:36:24.403Z</time>
      </trkpt>
      <trkpt lat="39.252226" lon="16.543373">
        <ele>1369.385169</ele>
        <time>2023-12-04T05:36:25.839Z</time>
      </trkpt>
      <trkpt lat="39.252125" lon="16.543568">
        <ele>1368.415561</ele>
        <time>2023-12-04T05:36:27.520Z</time>
      </trkpt>
      <trkpt lat="39.252052" lon="16.543911">
        <ele>1366.945359</ele>
        <time>2023-12-04T05:36:30.060Z</time>
      </trkpt>
      <trkpt lat="39.252014" lon="16.544802">
        <ele>1363.257231</ele>
        <time>2023-12-04T05:36:36.618Z</time>
      </trkpt>
      <trkpt lat="39.252050" lon="16.545414">
        <ele>1360.730673</ele>
        <time>2023-12-04T05:36:41.335Z</time>
      </trkpt>
      <trkpt lat="39.252246" lon="16.548756">
        <ele>1349.934935</ele>
        <time>2023-12-04T05:37:05.677Z</time>
      </trkpt>
      <trkpt lat="39.252239" lon="16.549024">
        <ele>1349.447837</ele>
        <time>2023-12-04T05:37:07.810Z</time>
      </trkpt>
      <trkpt lat="39.252169" lon="16.549295">
        <ele>1348.928902</ele>
        <time>2023-12-04T05:37:10.865Z</time>
      </trkpt>
      <trkpt lat="39.252083" lon="16.549484">
        <ele>1348.530699</ele>
        <time>2023-12-04T05:37:13.671Z</time>
      </trkpt>
      <trkpt lat="39.251939" lon="16.549660">
        <ele>1348.065603</ele>
        <time>2023-12-04T05:37:17.808Z</time>
      </trkpt>
      <trkpt lat="39.251801" lon="16.549766">
        <ele>1347.688949</ele>
        <time>2023-12-04T05:37:20.954Z</time>
      </trkpt>
      <trkpt lat="39.251664" lon="16.549819">
        <ele>1347.689469</ele>
        <time>2023-12-04T05:37:23.841Z</time>
      </trkpt>
      <trkpt lat="39.251411" lon="16.549845">
        <ele>1347.752809</ele>
        <time>2023-12-04T05:37:29.025Z</time>
      </trkpt>
      <trkpt lat="39.251141" lon="16.549807">
        <ele>1347.820591</ele>
        <time>2023-12-04T05:37:34.616Z</time>
      </trkpt>
      <trkpt lat="39.250824" lon="16.549698">
        <ele>1347.902460</ele>
        <time>2023-12-04T05:37:40.969Z</time>
      </trkpt>
      <trkpt lat="39.250775" lon="16.550109">
        <ele>1347.982825</ele>
        <time>2023-12-04T05:37:46.369Z</time>
      </trkpt>
      <trkpt lat="39.250779" lon="16.550242">
        <ele>1348.008548</ele>
        <time>2023-12-04T05:37:47.666Z</time>
      </trkpt>
      <trkpt lat="39.250807" lon="16.550491">
        <ele>1348.057174</ele>
        <time>2023-12-04T05:37:50.531Z</time>
      </trkpt>
      <trkpt lat="39.250977" lon="16.551234">
        <ele>1346.050919</ele>
        <time>2023-12-04T05:37:57.285Z</time>
      </trkpt>
      <trkpt lat="39.250998" lon="16.551405">
        <ele>1345.369157</ele>
        <time>2023-12-04T05:37:58.650Z</time>
      </trkpt>
      <trkpt lat="39.250999" lon="16.552607">
        <ele>1340.636036</ele>
        <time>2023-12-04T05:38:07.035Z</time>
      </trkpt>
      <trkpt lat="39.251109" lon="16.553468">
        <ele>1337.374819</ele>
        <time>2023-12-04T05:38:13.102Z</time>
      </trkpt>
      <trkpt lat="39.251166" lon="16.555492">
        <ele>1330.367169</ele>
        <time>2023-12-04T05:38:28.415Z</time>
      </trkpt>
      <trkpt lat="39.251329" lon="16.557490">
        <ele>1325.588088</ele>
        <time>2023-12-04T05:38:44.849Z</time>
      </trkpt>
      <trkpt lat="39.251361" lon="16.557669">
        <ele>1325.097596</ele>
        <time>2023-12-04T05:38:46.247Z</time>
      </trkpt>
      <trkpt lat="39.251440" lon="16.557854">
        <ele>1324.022122</ele>
        <time>2023-12-04T05:38:47.845Z</time>
      </trkpt>
      <trkpt lat="39.251570" lon="16.557967">
        <ele>1322.991951</ele>
        <time>2023-12-04T05:38:49.343Z</time>
      </trkpt>
      <trkpt lat="39.252093" lon="16.558094">
        <ele>1319.493558</ele>
        <time>2023-12-04T05:38:54.307Z</time>
      </trkpt>
      <trkpt lat="39.252189" lon="16.558145">
        <ele>1318.811150</ele>
        <time>2023-12-04T05:38:55.257Z</time>
      </trkpt>
      <trkpt lat="39.252279" lon="16.558240">
        <ele>1318.047001</ele>
        <time>2023-12-04T05:38:56.310Z</time>
      </trkpt>
      <trkpt lat="39.252355" lon="16.558498">
        <ele>1316.641810</ele>
        <time>2023-12-04T05:38:58.207Z</time>
      </trkpt>
      <trkpt lat="39.252465" lon="16.560071">
        <ele>1307.751350</ele>
        <time>2023-12-04T05:39:08.786Z</time>
      </trkpt>
      <trkpt lat="39.252658" lon="16.560886">
        <ele>1302.639772</ele>
        <time>2023-12-04T05:39:14.611Z</time>
      </trkpt>
      <trkpt lat="39.252775" lon="16.561157">
        <ele>1300.778851</ele>
        <time>2023-12-04T05:39:16.792Z</time>
      </trkpt>
      <trkpt lat="39.253410" lon="16.561526">
        <ele>1298.493297</ele>
        <time>2023-12-04T05:39:23.509Z</time>
      </trkpt>
      <trkpt lat="39.253513" lon="16.561551">
        <ele>1298.303310</ele>
        <time>2023-12-04T05:39:24.620Z</time>
      </trkpt>
      <trkpt lat="39.253808" lon="16.561488">
        <ele>1297.761272</ele>
        <time>2023-12-04T05:39:27.757Z</time>
      </trkpt>
      <trkpt lat="39.254575" lon="16.561148">
        <ele>1296.291224</ele>
        <time>2023-12-04T05:39:40.198Z</time>
      </trkpt>
      <trkpt lat="39.254677" lon="16.561116">
        <ele>1296.163898</ele>
        <time>2023-12-04T05:39:42.373Z</time>
      </trkpt>
      <trkpt lat="39.254749" lon="16.561135">
        <ele>1296.133707</ele>
        <time>2023-12-04T05:39:43.981Z</time>
      </trkpt>
      <trkpt lat="39.254893" lon="16.561251">
        <ele>1296.063982</ele>
        <time>2023-12-04T05:39:48.053Z</time>
      </trkpt>
      <trkpt lat="39.254945" lon="16.561358">
        <ele>1296.023794</ele>
        <time>2023-12-04T05:39:50.322Z</time>
      </trkpt>
      <trkpt lat="39.255009" lon="16.561596">
        <ele>1295.943646</ele>
        <time>2023-12-04T05:39:54.919Z</time>
      </trkpt>
      <trkpt lat="39.255028" lon="16.561771">
        <ele>1295.887431</ele>
        <time>2023-12-04T05:39:57.710Z</time>
      </trkpt>
      <trkpt lat="39.255017" lon="16.561943">
        <ele>1295.832528</ele>
        <time>2023-12-04T05:40:00.207Z</time>
      </trkpt>
      <trkpt lat="39.254958" lon="16.562046">
        <ele>1295.791771</ele>
        <time>2023-12-04T05:40:01.772Z</time>
      </trkpt>
      <trkpt lat="39.254883" lon="16.562116">
        <ele>1295.753754</ele>
        <time>2023-12-04T05:40:03.022Z</time>
      </trkpt>
      <trkpt lat="39.254550" lon="16.562173">
        <ele>1295.615751</ele>
        <time>2023-12-04T05:40:07.070Z</time>
      </trkpt>
      <trkpt lat="39.254438" lon="16.562270">
        <ele>1295.560349</ele>
        <time>2023-12-04T05:40:08.523Z</time>
      </trkpt>
      <trkpt lat="39.254362" lon="16.562486">
        <ele>1295.484874</ele>
        <time>2023-12-04T05:40:10.393Z</time>
      </trkpt>
      <trkpt lat="39.254275" lon="16.562645">
        <ele>1295.211638</ele>
        <time>2023-12-04T05:40:11.900Z</time>
      </trkpt>
      <trkpt lat="39.254127" lon="16.562781">
        <ele>1294.366849</ele>
        <time>2023-12-04T05:40:13.672Z</time>
      </trkpt>
      <trkpt lat="39.253935" lon="16.562861">
        <ele>1293.428567</ele>
        <time>2023-12-04T05:40:15.676Z</time>
      </trkpt>
      <trkpt lat="39.253403" lon="16.562933">
        <ele>1290.940791</ele>
        <time>2023-12-04T05:40:20.850Z</time>
      </trkpt>
      <trkpt lat="39.252984" lon="16.563122">
        <ele>1288.876650</ele>
        <time>2023-12-04T05:40:25.011Z</time>
      </trkpt>
      <trkpt lat="39.252676" lon="16.563118">
        <ele>1287.444130</ele>
        <time>2023-12-04T05:40:27.835Z</time>
      </trkpt>
      <trkpt lat="39.252587" lon="16.563187">
        <ele>1286.941948</ele>
        <time>2023-12-04T05:40:28.783Z</time>
      </trkpt>
      <trkpt lat="39.252535" lon="16.563286">
        <ele>1286.439663</ele>
        <time>2023-12-04T05:40:29.622Z</time>
      </trkpt>
      <trkpt lat="39.252414" lon="16.563860">
        <ele>1283.941840</ele>
        <time>2023-12-04T05:40:33.799Z</time>
      </trkpt>
      <trkpt lat="39.252137" lon="16.565453">
        <ele>1277.126725</ele>
        <time>2023-12-04T05:40:45.665Z</time>
      </trkpt>
      <trkpt lat="39.252174" lon="16.566382">
        <ele>1273.877251</ele>
        <time>2023-12-04T05:40:52.659Z</time>
      </trkpt>
      <trkpt lat="39.252131" lon="16.566596">
        <ele>1273.104949</ele>
        <time>2023-12-04T05:40:54.320Z</time>
      </trkpt>
      <trkpt lat="39.251938" lon="16.567007">
        <ele>1271.425886</ele>
        <time>2023-12-04T05:40:57.899Z</time>
      </trkpt>
      <trkpt lat="39.251890" lon="16.567171">
        <ele>1270.813444</ele>
        <time>2023-12-04T05:40:59.191Z</time>
      </trkpt>
      <trkpt lat="39.251891" lon="16.567379">
        <ele>1270.086842</ele>
        <time>2023-12-04T05:41:00.721Z</time>
      </trkpt>
      <trkpt lat="39.251979" lon="16.567623">
        <ele>1269.154315</ele>
        <time>2023-12-04T05:41:02.700Z</time>
      </trkpt>
      <trkpt lat="39.251848" lon="16.568255">
        <ele>1267.139512</ele>
        <time>2023-12-04T05:41:07.496Z</time>
      </trkpt>
      <trkpt lat="39.251717" lon="16.568596">
        <ele>1265.967255</ele>
        <time>2023-12-04T05:41:10.332Z</time>
      </trkpt>
      <trkpt lat="39.251342" lon="16.569066">
        <ele>1263.889032</ele>
        <time>2023-12-04T05:41:15.468Z</time>
      </trkpt>
      <trkpt lat="39.250994" lon="16.569705">
        <ele>1261.913810</ele>
        <time>2023-12-04T05:41:21.566Z</time>
      </trkpt>
      <trkpt lat="39.250982" lon="16.569841">
        <ele>1261.807567</ele>
        <time>2023-12-04T05:41:22.660Z</time>
      </trkpt>
      <trkpt lat="39.251019" lon="16.569947">
        <ele>1261.717321</ele>
        <time>2023-12-04T05:41:23.607Z</time>
      </trkpt>
      <trkpt lat="39.251120" lon="16.570055">
        <ele>1261.585887</ele>
        <time>2023-12-04T05:41:24.987Z</time>
      </trkpt>
      <trkpt lat="39.251263" lon="16.570105">
        <ele>1261.437395</ele>
        <time>2023-12-04T05:41:26.614Z</time>
      </trkpt>
      <trkpt lat="39.251858" lon="16.570152">
        <ele>1260.839906</ele>
        <time>2023-12-04T05:41:33.962Z</time>
      </trkpt>
      <trkpt lat="39.251941" lon="16.570212">
        <ele>1260.744566</ele>
        <time>2023-12-04T05:41:35.504Z</time>
      </trkpt>
      <trkpt lat="39.251999" lon="16.570309">
        <ele>1260.649447</ele>
        <time>2023-12-04T05:41:37.069Z</time>
      </trkpt>
      <trkpt lat="39.252195" lon="16.570889">
        <ele>1260.348735</ele>
        <time>2023-12-04T05:41:46.187Z</time>
      </trkpt>
      <trkpt lat="39.252435" lon="16.571328">
        <ele>1260.743759</ele>
        <time>2023-12-04T05:41:54.667Z</time>
      </trkpt>
      <trkpt lat="39.252513" lon="16.572914">
        <ele>1261.911961</ele>
        <time>2023-12-04T05:42:18.060Z</time>
      </trkpt>
      <trkpt lat="39.252597" lon="16.573669">
        <ele>1261.879554</ele>
        <time>2023-12-04T05:42:27.646Z</time>
      </trkpt>
      <trkpt lat="39.252640" lon="16.574356">
        <ele>1261.796007</ele>
        <time>2023-12-04T05:42:35.675Z</time>
      </trkpt>
      <trkpt lat="39.252726" lon="16.574629">
        <ele>1261.760282</ele>
        <time>2023-12-04T05:42:38.850Z</time>
      </trkpt>
      <trkpt lat="39.252868" lon="16.574912">
        <ele>1261.719407</ele>
        <time>2023-12-04T05:42:42.262Z</time>
      </trkpt>
      <trkpt lat="39.253124" lon="16.575092">
        <ele>1261.548373</ele>
        <time>2023-12-04T05:42:45.938Z</time>
      </trkpt>
      <trkpt lat="39.253854" lon="16.575307">
        <ele>1259.634580</ele>
        <time>2023-12-04T05:42:54.486Z</time>
      </trkpt>
      <trkpt lat="39.254562" lon="16.575810">
        <ele>1257.569159</ele>
        <time>2023-12-04T05:43:02.670Z</time>
      </trkpt>
      <trkpt lat="39.254731" lon="16.575958">
        <ele>1257.019191</ele>
        <time>2023-12-04T05:43:04.633Z</time>
      </trkpt>
      <trkpt lat="39.254838" lon="16.576120">
        <ele>1256.281511</ele>
        <time>2023-12-04T05:43:06.247Z</time>
      </trkpt>
      <trkpt lat="39.255273" lon="16.577162">
        <ele>1252.180348</ele>
        <time>2023-12-04T05:43:15.009Z</time>
      </trkpt>
      <trkpt lat="39.255498" lon="16.577562">
        <ele>1250.467532</ele>
        <time>2023-12-04T05:43:18.678Z</time>
      </trkpt>
      <trkpt lat="39.256060" lon="16.578256">
        <ele>1247.012560</ele>
        <time>2023-12-04T05:43:26.058Z</time>
      </trkpt>
      <trkpt lat="39.256322" lon="16.578441">
        <ele>1245.692210</ele>
        <time>2023-12-04T05:43:28.868Z</time>
      </trkpt>
      <trkpt lat="39.256731" lon="16.578499">
        <ele>1243.872849</ele>
        <time>2023-12-04T05:43:32.788Z</time>
      </trkpt>
      <trkpt lat="39.256973" lon="16.578517">
        <ele>1242.801015</ele>
        <time>2023-12-04T05:43:35.161Z</time>
      </trkpt>
      <trkpt lat="39.257713" lon="16.578751">
        <ele>1240.146058</ele>
        <time>2023-12-04T05:43:42.674Z</time>
      </trkpt>
      <trkpt lat="39.257997" lon="16.579106">
        <ele>1239.153547</ele>
        <time>2023-12-04T05:43:46.654Z</time>
      </trkpt>
      <trkpt lat="39.258764" lon="16.580223">
        <ele>1236.515259</ele>
        <time>2023-12-04T05:43:59.397Z</time>
      </trkpt>
      <trkpt lat="39.258883" lon="16.580520">
        <ele>1236.407999</ele>
        <time>2023-12-04T05:44:02.900Z</time>
      </trkpt>
      <trkpt lat="39.258943" lon="16.580833">
        <ele>1236.304574</ele>
        <time>2023-12-04T05:44:06.785Z</time>
      </trkpt>
      <trkpt lat="39.258933" lon="16.581166">
        <ele>1236.197685</ele>
        <time>2023-12-04T05:44:10.737Z</time>
      </trkpt>
      <trkpt lat="39.258801" lon="16.581653">
        <ele>1236.032188</ele>
        <time>2023-12-04T05:44:16.593Z</time>
      </trkpt>
      <trkpt lat="39.258732" lon="16.582074">
        <ele>1235.894161</ele>
        <time>2023-12-04T05:44:21.373Z</time>
      </trkpt>
      <trkpt lat="39.258755" lon="16.582243">
        <ele>1235.839124</ele>
        <time>2023-12-04T05:44:23.194Z</time>
      </trkpt>
      <trkpt lat="39.259026" lon="16.582859">
        <ele>1235.587984</ele>
        <time>2023-12-04T05:44:30.698Z</time>
      </trkpt>
      <trkpt lat="39.259098" lon="16.583158">
        <ele>1235.476153</ele>
        <time>2023-12-04T05:44:33.749Z</time>
      </trkpt>
      <trkpt lat="39.259167" lon="16.583828">
        <ele>1235.234760</ele>
        <time>2023-12-04T05:44:40.243Z</time>
      </trkpt>
      <trkpt lat="39.259130" lon="16.584328">
        <ele>1235.055375</ele>
        <time>2023-12-04T05:44:45.024Z</time>
      </trkpt>
      <trkpt lat="39.259158" lon="16.584604">
        <ele>1235.227385</ele>
        <time>2023-12-04T05:44:47.721Z</time>
      </trkpt>
      <trkpt lat="39.259352" lon="16.585338">
        <ele>1236.989572</ele>
        <time>2023-12-04T05:44:59.287Z</time>
      </trkpt>
      <trkpt lat="39.259729" lon="16.585758">
        <ele>1238.450549</ele>
        <time>2023-12-04T05:45:12.614Z</time>
      </trkpt>
      <trkpt lat="39.260060" lon="16.585926">
        <ele>1239.494145</ele>
        <time>2023-12-04T05:45:24.268Z</time>
      </trkpt>
      <trkpt lat="39.259822" lon="16.587389">
        <ele>1247.250818</ele>
        <time>2023-12-04T05:46:12.622Z</time>
      </trkpt>
      <trkpt lat="39.259929" lon="16.588479">
        <ele>1253.901563</ele>
        <time>2023-12-04T05:46:56.410Z</time>
      </trkpt>
      <trkpt lat="39.259702" lon="16.590392">
        <ele>1266.862509</ele>
        <time>2023-12-04T05:48:14.300Z</time>
      </trkpt>
      <trkpt lat="39.259468" lon="16.591655">
        <ele>1272.290702</ele>
        <time>2023-12-04T05:48:57.385Z</time>
      </trkpt>
      <trkpt lat="39.259461" lon="16.593193">
        <ele>1276.337151</ele>
        <time>2023-12-04T05:49:26.638Z</time>
      </trkpt>
      <trkpt lat="39.259184" lon="16.594154">
        <ele>1274.590611</ele>
        <time>2023-12-04T05:49:34.695Z</time>
      </trkpt>
      <trkpt lat="39.259021" lon="16.594959">
        <ele>1273.173400</ele>
        <time>2023-12-04T05:49:41.049Z</time>
      </trkpt>
      <trkpt lat="39.258823" lon="16.595353">
        <ele>1272.597733</ele>
        <time>2023-12-04T05:49:44.724Z</time>
      </trkpt>
      <trkpt lat="39.257788" lon="16.595637">
        <ele>1275.448517</ele>
        <time>2023-12-04T05:50:02.749Z</time>
      </trkpt>
      <trkpt lat="39.257196" lon="16.595726">
        <ele>1277.054279</ele>
        <time>2023-12-04T05:50:26.953Z</time>
      </trkpt>
      <trkpt lat="39.257002" lon="16.595756">
        <ele>1278.103135</ele>
        <time>2023-12-04T05:50:36.575Z</time>
      </trkpt>
      <trkpt lat="39.256548" lon="16.595664">
        <ele>1281.824446</ele>
        <time>2023-12-04T05:51:00.182Z</time>
      </trkpt>
      <trkpt lat="39.256080" lon="16.596598">
        <ele>1288.800025</ele>
        <time>2023-12-04T05:51:44.526Z</time>
      </trkpt>
      <trkpt lat="39.255952" lon="16.596936">
        <ele>1291.159241</ele>
        <time>2023-12-04T05:51:58.048Z</time>
      </trkpt>
      <trkpt lat="39.256027" lon="16.597660">
        <ele>1293.364306</ele>
        <time>2023-12-04T05:52:19.178Z</time>
      </trkpt>
      <trkpt lat="39.256064" lon="16.598251">
        <ele>1294.791230</ele>
        <time>2023-12-04T05:52:32.136Z</time>
      </trkpt>
      <trkpt lat="39.256036" lon="16.598665">
        <ele>1295.791344</ele>
        <time>2023-12-04T05:52:39.654Z</time>
      </trkpt>
      <trkpt lat="39.255988" lon="16.599115">
        <ele>1296.884528</ele>
        <time>2023-12-04T05:52:46.495Z</time>
      </trkpt>
      <trkpt lat="39.255789" lon="16.600149">
        <ele>1297.524583</ele>
        <time>2023-12-04T05:52:57.833Z</time>
      </trkpt>
      <trkpt lat="39.255180" lon="16.601156">
        <ele>1297.601731</ele>
        <time>2023-12-04T05:53:10.237Z</time>
      </trkpt>
      <trkpt lat="39.254967" lon="16.602154">
        <ele>1299.526475</ele>
        <time>2023-12-04T05:53:29.666Z</time>
      </trkpt>
      <trkpt lat="39.254756" lon="16.602294">
        <ele>1300.249131</ele>
        <time>2023-12-04T05:53:37.021Z</time>
      </trkpt>
      <trkpt lat="39.254534" lon="16.602305">
        <ele>1300.925920</ele>
        <time>2023-12-04T05:53:43.535Z</time>
      </trkpt>
      <trkpt lat="39.253899" lon="16.602258">
        <ele>1302.863531</ele>
        <time>2023-12-04T05:54:00.480Z</time>
      </trkpt>
      <trkpt lat="39.253765" lon="16.602274">
        <ele>1303.466840</ele>
        <time>2023-12-04T05:54:04.911Z</time>
      </trkpt>
      <trkpt lat="39.253650" lon="16.602351">
        <ele>1304.288070</ele>
        <time>2023-12-04T05:54:09.027Z</time>
      </trkpt>
      <trkpt lat="39.253504" lon="16.602535">
        <ele>1305.581375</ele>
        <time>2023-12-04T05:54:16.644Z</time>
      </trkpt>
      <trkpt lat="39.253275" lon="16.602892">
        <ele>1307.857155</ele>
        <time>2023-12-04T05:54:33.625Z</time>
      </trkpt>
      <trkpt lat="39.253200" lon="16.603516">
        <ele>1310.957155</ele>
        <time>2023-12-04T05:54:58.512Z</time>
      </trkpt>
      <trkpt lat="39.253119" lon="16.603740">
        <ele>1312.170801</ele>
        <time>2023-12-04T05:55:07.990Z</time>
      </trkpt>
      <trkpt lat="39.252599" lon="16.604244">
        <ele>1316.790875</ele>
        <time>2023-12-04T05:55:38.005Z</time>
      </trkpt>
      <trkpt lat="39.252284" lon="16.604475">
        <ele>1319.724760</ele>
        <time>2023-12-04T05:55:55.661Z</time>
      </trkpt>
      <trkpt lat="39.252169" lon="16.604627">
        <ele>1321.057535</ele>
        <time>2023-12-04T05:56:04.475Z</time>
      </trkpt>
      <trkpt lat="39.252086" lon="16.605315">
        <ele>1325.424531</ele>
        <time>2023-12-04T05:56:36.424Z</time>
      </trkpt>
      <trkpt lat="39.252072" lon="16.605643">
        <ele>1327.484781</ele>
        <time>2023-12-04T05:56:50.949Z</time>
      </trkpt>
      <trkpt lat="39.252019" lon="16.605982">
        <ele>1329.408788</ele>
        <time>2023-12-04T05:57:05.532Z</time>
      </trkpt>
      <trkpt lat="39.251949" lon="16.606224">
        <ele>1330.354910</ele>
        <time>2023-12-04T05:57:15.672Z</time>
      </trkpt>
      <trkpt lat="39.251840" lon="16.606812">
        <ele>1332.569266</ele>
        <time>2023-12-04T05:57:36.307Z</time>
      </trkpt>
      <trkpt lat="39.251873" lon="16.607201">
        <ele>1334.002476</ele>
        <time>2023-12-04T05:57:48.233Z</time>
      </trkpt>
      <trkpt lat="39.252370" lon="16.608463">
        <ele>1337.052212</ele>
        <time>2023-12-04T05:58:21.901Z</time>
      </trkpt>
      <trkpt lat="39.252443" lon="16.608939">
        <ele>1336.481003</ele>
        <time>2023-12-04T05:58:28.516Z</time>
      </trkpt>
      <trkpt lat="39.252440" lon="16.609253">
        <ele>1336.111348</ele>
        <time>2023-12-04T05:58:32.253Z</time>
      </trkpt>
      <trkpt lat="39.252130" lon="16.610334">
        <ele>1334.581159</ele>
        <time>2023-12-04T05:58:45.247Z</time>
      </trkpt>
      <trkpt lat="39.252111" lon="16.610489">
        <ele>1334.011219</ele>
        <time>2023-12-04T05:58:46.959Z</time>
      </trkpt>
      <trkpt lat="39.252116" lon="16.610947">
        <ele>1332.347685</ele>
        <time>2023-12-04T05:58:51.769Z</time>
      </trkpt>
      <trkpt lat="39.252055" lon="16.611110">
        <ele>1331.690193</ele>
        <time>2023-12-04T05:58:53.594Z</time>
      </trkpt>
      <trkpt lat="39.251938" lon="16.611297">
        <ele>1330.817065</ele>
        <time>2023-12-04T05:58:55.988Z</time>
      </trkpt>
      <trkpt lat="39.251650" lon="16.611658">
        <ele>1328.934668</ele>
        <time>2023-12-04T05:59:01.282Z</time>
      </trkpt>
      <trkpt lat="39.251413" lon="16.611856">
        <ele>1327.610801</ele>
        <time>2023-12-04T05:59:05.170Z</time>
      </trkpt>
      <trkpt lat="39.251223" lon="16.612116">
        <ele>1326.373556</ele>
        <time>2023-12-04T05:59:09.112Z</time>
      </trkpt>
      <trkpt lat="39.250978" lon="16.612519">
        <ele>1325.785734</ele>
        <time>2023-12-04T05:59:14.925Z</time>
      </trkpt>
      <trkpt lat="39.250863" lon="16.612586">
        <ele>1325.598817</ele>
        <time>2023-12-04T05:59:16.240Z</time>
      </trkpt>
      <trkpt lat="39.250712" lon="16.612588">
        <ele>1325.375088</ele>
        <time>2023-12-04T05:59:17.960Z</time>
      </trkpt>
      <trkpt lat="39.250093" lon="16.612248">
        <ele>1324.378485</ele>
        <time>2023-12-04T05:59:25.637Z</time>
      </trkpt>
      <trkpt lat="39.249753" lon="16.612109">
        <ele>1323.850110</ele>
        <time>2023-12-04T05:59:30.713Z</time>
      </trkpt>
      <trkpt lat="39.249112" lon="16.612234">
        <ele>1323.971734</ele>
        <time>2023-12-04T05:59:46.084Z</time>
      </trkpt>
      <trkpt lat="39.248840" lon="16.612146">
        <ele>1324.086842</ele>
        <time>2023-12-04T05:59:51.380Z</time>
      </trkpt>
      <trkpt lat="39.248460" lon="16.611780">
        <ele>1324.281445</ele>
        <time>2023-12-04T05:59:57.670Z</time>
      </trkpt>
      <trkpt lat="39.248222" lon="16.611377">
        <ele>1324.442560</ele>
        <time>2023-12-04T06:00:02.416Z</time>
      </trkpt>
      <trkpt lat="39.248001" lon="16.611223">
        <ele>1324.611553</ele>
        <time>2023-12-04T06:00:05.780Z</time>
      </trkpt>
      <trkpt lat="39.247422" lon="16.611318">
        <ele>1325.075652</ele>
        <time>2023-12-04T06:00:17.879Z</time>
      </trkpt>
      <trkpt lat="39.247246" lon="16.611318">
        <ele>1325.215600</ele>
        <time>2023-12-04T06:00:21.898Z</time>
      </trkpt>
      <trkpt lat="39.247156" lon="16.611165">
        <ele>1325.333914</ele>
        <time>2023-12-04T06:00:25.145Z</time>
      </trkpt>
      <trkpt lat="39.247122" lon="16.610967">
        <ele>1325.458802</ele>
        <time>2023-12-04T06:00:28.441Z</time>
      </trkpt>
      <trkpt lat="39.247252" lon="16.610528">
        <ele>1325.748224</ele>
        <time>2023-12-04T06:00:35.141Z</time>
      </trkpt>
      <trkpt lat="39.247275" lon="16.610308">
        <ele>1325.884927</ele>
        <time>2023-12-04T06:00:37.587Z</time>
      </trkpt>
      <trkpt lat="39.247246" lon="16.609964">
        <ele>1325.937716</ele>
        <time>2023-12-04T06:00:41.380Z</time>
      </trkpt>
      <trkpt lat="39.247297" lon="16.609693">
        <ele>1325.966438</ele>
        <time>2023-12-04T06:00:44.494Z</time>
      </trkpt>
      <trkpt lat="39.247417" lon="16.609416">
        <ele>1325.999125</ele>
        <time>2023-12-04T06:00:48.456Z</time>
      </trkpt>
      <trkpt lat="39.247439" lon="16.609217">
        <ele>1326.019828</ele>
        <time>2023-12-04T06:00:51.192Z</time>
      </trkpt>
      <trkpt lat="39.247427" lon="16.609084">
        <ele>1326.033617</ele>
        <time>2023-12-04T06:00:53.084Z</time>
      </trkpt>
      <trkpt lat="39.247301" lon="16.608769">
        <ele>1326.070130</ele>
        <time>2023-12-04T06:00:58.096Z</time>
      </trkpt>
      <trkpt lat="39.247169" lon="16.608474">
        <ele>1326.105218</ele>
        <time>2023-12-04T06:01:02.669Z</time>
      </trkpt>
      <trkpt lat="39.247030" lon="16.608380">
        <ele>1326.126085</ele>
        <time>2023-12-04T06:01:04.905Z</time>
      </trkpt>
      <trkpt lat="39.246780" lon="16.608354">
        <ele>1326.057645</ele>
        <time>2023-12-04T06:01:08.087Z</time>
      </trkpt>
      <trkpt lat="39.246662" lon="16.608248">
        <ele>1325.944576</ele>
        <time>2023-12-04T06:01:09.698Z</time>
      </trkpt>
      <trkpt lat="39.246565" lon="16.607717">
        <ele>1325.612236</ele>
        <time>2023-12-04T06:01:14.436Z</time>
      </trkpt>
      <trkpt lat="39.246302" lon="16.607146">
        <ele>1325.207535</ele>
        <time>2023-12-04T06:01:20.268Z</time>
      </trkpt>
      <trkpt lat="39.246162" lon="16.606970">
        <ele>1325.053842</ele>
        <time>2023-12-04T06:01:22.660Z</time>
      </trkpt>
      <trkpt lat="39.246038" lon="16.606983">
        <ele>1324.955984</ele>
        <time>2023-12-04T06:01:24.451Z</time>
      </trkpt>
      <trkpt lat="39.245826" lon="16.607234">
        <ele>1324.730603</ele>
        <time>2023-12-04T06:01:28.868Z</time>
      </trkpt>
      <trkpt lat="39.245629" lon="16.607262">
        <ele>1325.309425</ele>
        <time>2023-12-04T06:01:32.546Z</time>
      </trkpt>
      <trkpt lat="39.245426" lon="16.606976">
        <ele>1326.186887</ele>
        <time>2023-12-04T06:01:38.097Z</time>
      </trkpt>
      <trkpt lat="39.245333" lon="16.606759">
        <ele>1326.747839</ele>
        <time>2023-12-04T06:01:42.032Z</time>
      </trkpt>
      <trkpt lat="39.245244" lon="16.606728">
        <ele>1327.017058</ele>
        <time>2023-12-04T06:01:44.103Z</time>
      </trkpt>
      <trkpt lat="39.245079" lon="16.606739">
        <ele>1327.499590</ele>
        <time>2023-12-04T06:01:47.899Z</time>
      </trkpt>
      <trkpt lat="39.244795" lon="16.606800">
        <ele>1328.340421</ele>
        <time>2023-12-04T06:01:55.672Z</time>
      </trkpt>
      <trkpt lat="39.244686" lon="16.606755">
        <ele>1328.674636</ele>
        <time>2023-12-04T06:01:59.125Z</time>
      </trkpt>
      <trkpt lat="39.244184" lon="16.606254">
        <ele>1331.510522</ele>
        <time>2023-12-04T06:02:22.839Z</time>
      </trkpt>
      <trkpt lat="39.243895" lon="16.605826">
        <ele>1335.112501</ele>
        <time>2023-12-04T06:02:43.039Z</time>
      </trkpt>
      <trkpt lat="39.243589" lon="16.604918">
        <ele>1341.393994</ele>
        <time>2023-12-04T06:03:22.326Z</time>
      </trkpt>
      <trkpt lat="39.243484" lon="16.604460">
        <ele>1344.423897</ele>
        <time>2023-12-04T06:03:41.788Z</time>
      </trkpt>
      <trkpt lat="39.243456" lon="16.603724">
        <ele>1349.627041</ele>
        <time>2023-12-04T06:04:11.433Z</time>
      </trkpt>
      <trkpt lat="39.243507" lon="16.603343">
        <ele>1352.375592</ele>
        <time>2023-12-04T06:04:26.433Z</time>
      </trkpt>
      <trkpt lat="39.243648" lon="16.602777">
        <ele>1356.602109</ele>
        <time>2023-12-04T06:04:49.289Z</time>
      </trkpt>
      <trkpt lat="39.243691" lon="16.602421">
        <ele>1359.163373</ele>
        <time>2023-12-04T06:05:03.936Z</time>
      </trkpt>
      <trkpt lat="39.243657" lon="16.602297">
        <ele>1360.098457</ele>
        <time>2023-12-04T06:05:09.121Z</time>
      </trkpt>
      <trkpt lat="39.243538" lon="16.602209">
        <ele>1361.370065</ele>
        <time>2023-12-04T06:05:16.468Z</time>
      </trkpt>
      <trkpt lat="39.243343" lon="16.602192">
        <ele>1363.338132</ele>
        <time>2023-12-04T06:05:26.834Z</time>
      </trkpt>
      <trkpt lat="39.242996" lon="16.601945">
        <ele>1367.328111</ele>
        <time>2023-12-04T06:05:48.304Z</time>
      </trkpt>
      <trkpt lat="39.242857" lon="16.601927">
        <ele>1368.734824</ele>
        <time>2023-12-04T06:05:56.346Z</time>
      </trkpt>
      <trkpt lat="39.242640" lon="16.601997">
        <ele>1370.987115</ele>
        <time>2023-12-04T06:06:09.143Z</time>
      </trkpt>
      <trkpt lat="39.242520" lon="16.602090">
        <ele>1372.396437</ele>
        <time>2023-12-04T06:06:17.566Z</time>
      </trkpt>
      <trkpt lat="39.242395" lon="16.602260">
        <ele>1374.224573</ele>
        <time>2023-12-04T06:06:28.414Z</time>
      </trkpt>
      <trkpt lat="39.242298" lon="16.602450">
        <ele>1375.999312</ele>
        <time>2023-12-04T06:06:39.119Z</time>
      </trkpt>
      <trkpt lat="39.242271" lon="16.602806">
        <ele>1378.788959</ele>
        <time>2023-12-04T06:06:55.101Z</time>
      </trkpt>
      <trkpt lat="39.242500" lon="16.603490">
        <ele>1381.850622</ele>
        <time>2023-12-04T06:07:24.085Z</time>
      </trkpt>
      <trkpt lat="39.242460" lon="16.603641">
        <ele>1382.445081</ele>
        <time>2023-12-04T06:07:28.875Z</time>
      </trkpt>
      <trkpt lat="39.242270" lon="16.604116">
        <ele>1384.436488</ele>
        <time>2023-12-04T06:07:41.900Z</time>
      </trkpt>
      <trkpt lat="39.242262" lon="16.604328">
        <ele>1385.227116</ele>
        <time>2023-12-04T06:07:46.380Z</time>
      </trkpt>
      <trkpt lat="39.242483" lon="16.605314">
        <ele>1388.092815</ele>
        <time>2023-12-04T06:08:01.705Z</time>
      </trkpt>
      <trkpt lat="39.242630" lon="16.605856">
        <ele>1388.305361</ele>
        <time>2023-12-04T06:08:09.181Z</time>
      </trkpt>
      <trkpt lat="39.242562" lon="16.606712">
        <ele>1388.623840</ele>
        <time>2023-12-04T06:08:18.251Z</time>
      </trkpt>
      <trkpt lat="39.242375" lon="16.607501">
        <ele>1389.016420</ele>
        <time>2023-12-04T06:08:29.481Z</time>
      </trkpt>
      <trkpt lat="39.242732" lon="16.609649">
        <ele>1390.629586</ele>
        <time>2023-12-04T06:09:03.796Z</time>
      </trkpt>
      <trkpt lat="39.242783" lon="16.610974">
        <ele>1390.836704</ele>
        <time>2023-12-04T06:09:17.089Z</time>
      </trkpt>
      <trkpt lat="39.242692" lon="16.611853">
        <ele>1390.975157</ele>
        <time>2023-12-04T06:09:29.232Z</time>
      </trkpt>
      <trkpt lat="39.242454" lon="16.612556">
        <ele>1390.064903</ele>
        <time>2023-12-04T06:09:40.771Z</time>
      </trkpt>
      <trkpt lat="39.242108" lon="16.613010">
        <ele>1389.296238</ele>
        <time>2023-12-04T06:09:47.260Z</time>
      </trkpt>
      <trkpt lat="39.241961" lon="16.613354">
        <ele>1388.822100</ele>
        <time>2023-12-04T06:09:50.459Z</time>
      </trkpt>
      <trkpt lat="39.241938" lon="16.613808">
        <ele>1388.273043</ele>
        <time>2023-12-04T06:09:53.855Z</time>
      </trkpt>
      <trkpt lat="39.241884" lon="16.614018">
        <ele>1387.477083</ele>
        <time>2023-12-04T06:09:55.444Z</time>
      </trkpt>
      <trkpt lat="39.241774" lon="16.614269">
        <ele>1386.035150</ele>
        <time>2023-12-04T06:09:57.504Z</time>
      </trkpt>
      <trkpt lat="39.241727" lon="16.614487">
        <ele>1384.903750</ele>
        <time>2023-12-04T06:09:59.112Z</time>
      </trkpt>
      <trkpt lat="39.241728" lon="16.614652">
        <ele>1384.078757</ele>
        <time>2023-12-04T06:10:00.270Z</time>
      </trkpt>
      <trkpt lat="39.241898" lon="16.615441">
        <ele>1379.984105</ele>
        <time>2023-12-04T06:10:05.921Z</time>
      </trkpt>
      <trkpt lat="39.241869" lon="16.615630">
        <ele>1379.020778</ele>
        <time>2023-12-04T06:10:07.228Z</time>
      </trkpt>
      <trkpt lat="39.241706" lon="16.615983">
        <ele>1376.965966</ele>
        <time>2023-12-04T06:10:10.027Z</time>
      </trkpt>
      <trkpt lat="39.241138" lon="16.616466">
        <ele>1376.982453</ele>
        <time>2023-12-04T06:10:16.387Z</time>
      </trkpt>
      <trkpt lat="39.240991" lon="16.616627">
        <ele>1377.113394</ele>
        <time>2023-12-04T06:10:19.049Z</time>
      </trkpt>
      <trkpt lat="39.240968" lon="16.617096">
        <ele>1377.360628</ele>
        <time>2023-12-04T06:10:28.872Z</time>
      </trkpt>
      <trkpt lat="39.240707" lon="16.617477">
        <ele>1377.628230</ele>
        <time>2023-12-04T06:10:44.023Z</time>
      </trkpt>
      <trkpt lat="39.240282" lon="16.617755">
        <ele>1379.253854</ele>
        <time>2023-12-04T06:11:04.137Z</time>
      </trkpt>
      <trkpt lat="39.239897" lon="16.618187">
        <ele>1382.298486</ele>
        <time>2023-12-04T06:11:26.016Z</time>
      </trkpt>
      <trkpt lat="39.239760" lon="16.618451">
        <ele>1383.767607</ele>
        <time>2023-12-04T06:11:36.596Z</time>
      </trkpt>
      <trkpt lat="39.239772" lon="16.618693">
        <ele>1384.888677</ele>
        <time>2023-12-04T06:11:44.736Z</time>
      </trkpt>
      <trkpt lat="39.240050" lon="16.618839">
        <ele>1386.680090</ele>
        <time>2023-12-04T06:11:57.806Z</time>
      </trkpt>
      <trkpt lat="39.240339" lon="16.619249">
        <ele>1388.504273</ele>
        <time>2023-12-04T06:12:12.544Z</time>
      </trkpt>
      <trkpt lat="39.240753" lon="16.620208">
        <ele>1388.387847</ele>
        <time>2023-12-04T06:12:25.373Z</time>
      </trkpt>
      <trkpt lat="39.241178" lon="16.620787">
        <ele>1388.303254</ele>
        <time>2023-12-04T06:12:31.920Z</time>
      </trkpt>
      <trkpt lat="39.241615" lon="16.621504">
        <ele>1387.144413</ele>
        <time>2023-12-04T06:12:39.623Z</time>
      </trkpt>
      <trkpt lat="39.241842" lon="16.621988">
        <ele>1386.148188</ele>
        <time>2023-12-04T06:12:44.233Z</time>
      </trkpt>
      <trkpt lat="39.241961" lon="16.622896">
        <ele>1384.526796</ele>
        <time>2023-12-04T06:12:51.812Z</time>
      </trkpt>
      <trkpt lat="39.241978" lon="16.624177">
        <ele>1383.047782</ele>
        <time>2023-12-04T06:13:02.807Z</time>
      </trkpt>
      <trkpt lat="39.241847" lon="16.624887">
        <ele>1382.284045</ele>
        <time>2023-12-04T06:13:08.982Z</time>
      </trkpt>
      <trkpt lat="39.241518" lon="16.625788">
        <ele>1382.763448</ele>
        <time>2023-12-04T06:13:20.616Z</time>
      </trkpt>
      <trkpt lat="39.241087" lon="16.626469">
        <ele>1384.568582</ele>
        <time>2023-12-04T06:13:39.945Z</time>
      </trkpt>
      <trkpt lat="39.240492" lon="16.626901">
        <ele>1386.377660</ele>
        <time>2023-12-04T06:14:01.251Z</time>
      </trkpt>
      <trkpt lat="39.239953" lon="16.627070">
        <ele>1386.831814</ele>
        <time>2023-12-04T06:14:17.928Z</time>
      </trkpt>
      <trkpt lat="39.239917" lon="16.627242">
        <ele>1386.917220</ele>
        <time>2023-12-04T06:14:21.703Z</time>
      </trkpt>
      <trkpt lat="39.239887" lon="16.628670">
        <ele>1387.601983</ele>
        <time>2023-12-04T06:14:38.363Z</time>
      </trkpt>
      <trkpt lat="39.240168" lon="16.629645">
        <ele>1383.231262</ele>
        <time>2023-12-04T06:14:45.824Z</time>
      </trkpt>
      <trkpt lat="39.240200" lon="16.629866">
        <ele>1382.210840</ele>
        <time>2023-12-04T06:14:47.403Z</time>
      </trkpt>
      <trkpt lat="39.240347" lon="16.630943">
        <ele>1377.247382</ele>
        <time>2023-12-04T06:14:54.982Z</time>
      </trkpt>
      <trkpt lat="39.240359" lon="16.631104">
        <ele>1376.504761</ele>
        <time>2023-12-04T06:14:56.097Z</time>
      </trkpt>
      <trkpt lat="39.240344" lon="16.631346">
        <ele>1375.386761</ele>
        <time>2023-12-04T06:14:57.777Z</time>
      </trkpt>
      <trkpt lat="39.240172" lon="16.631963">
        <ele>1372.366954</ele>
        <time>2023-12-04T06:15:02.389Z</time>
      </trkpt>
      <trkpt lat="39.240077" lon="16.632182">
        <ele>1371.211018</ele>
        <time>2023-12-04T06:15:04.169Z</time>
      </trkpt>
      <trkpt lat="39.239959" lon="16.632362">
        <ele>1370.125023</ele>
        <time>2023-12-04T06:15:05.861Z</time>
      </trkpt>
      <trkpt lat="39.239616" lon="16.632756">
        <ele>1367.395276</ele>
        <time>2023-12-04T06:15:10.135Z</time>
      </trkpt>
      <trkpt lat="39.238585" lon="16.634064">
        <ele>1361.901043</ele>
        <time>2023-12-04T06:15:24.153Z</time>
      </trkpt>
      <trkpt lat="39.238072" lon="16.634639">
        <ele>1359.980407</ele>
        <time>2023-12-04T06:15:31.687Z</time>
      </trkpt>
      <trkpt lat="39.237579" lon="16.635285">
        <ele>1359.590020</ele>
        <time>2023-12-04T06:15:39.886Z</time>
      </trkpt>
      <trkpt lat="39.236232" lon="16.637191">
        <ele>1358.697302</ele>
        <time>2023-12-04T06:16:13.199Z</time>
      </trkpt>
      <trkpt lat="39.236074" lon="16.637281">
        <ele>1358.636797</ele>
        <time>2023-12-04T06:16:15.926Z</time>
      </trkpt>
      <trkpt lat="39.235474" lon="16.637368">
        <ele>1358.248176</ele>
        <time>2023-12-04T06:16:23.245Z</time>
      </trkpt>
      <trkpt lat="39.235411" lon="16.637400">
        <ele>1357.916200</ele>
        <time>2023-12-04T06:16:23.956Z</time>
      </trkpt>
      <trkpt lat="39.235332" lon="16.637489">
        <ele>1357.402066</ele>
        <time>2023-12-04T06:16:25.041Z</time>
      </trkpt>
      <trkpt lat="39.235296" lon="16.637631">
        <ele>1356.834577</ele>
        <time>2023-12-04T06:16:26.235Z</time>
      </trkpt>
      <trkpt lat="39.235235" lon="16.638649">
        <ele>1352.956532</ele>
        <time>2023-12-04T06:16:33.771Z</time>
      </trkpt>
      <trkpt lat="39.235194" lon="16.638960">
        <ele>1351.758327</ele>
        <time>2023-12-04T06:16:35.981Z</time>
      </trkpt>
      <trkpt lat="39.235113" lon="16.639128">
        <ele>1351.006718</ele>
        <time>2023-12-04T06:16:37.362Z</time>
      </trkpt>
      <trkpt lat="39.235024" lon="16.639219">
        <ele>1350.450009</ele>
        <time>2023-12-04T06:16:38.377Z</time>
      </trkpt>
      <trkpt lat="39.234876" lon="16.639314">
        <ele>1349.639524</ele>
        <time>2023-12-04T06:16:39.850Z</time>
      </trkpt>
      <trkpt lat="39.234674" lon="16.639390">
        <ele>1348.444452</ele>
        <time>2023-12-04T06:16:41.715Z</time>
      </trkpt>
      <trkpt lat="39.234440" lon="16.639431">
        <ele>1347.099448</ele>
        <time>2023-12-04T06:16:43.833Z</time>
      </trkpt>
      <trkpt lat="39.234238" lon="16.639425">
        <ele>1345.948619</ele>
        <time>2023-12-04T06:16:45.639Z</time>
      </trkpt>
      <trkpt lat="39.234048" lon="16.639388">
        <ele>1344.854201</ele>
        <time>2023-12-04T06:16:47.383Z</time>
      </trkpt>
      <trkpt lat="39.233924" lon="16.639293">
        <ele>1344.032945</ele>
        <time>2023-12-04T06:16:48.685Z</time>
      </trkpt>
      <trkpt lat="39.233357" lon="16.638317">
        <ele>1339.448595</ele>
        <time>2023-12-04T06:16:57.619Z</time>
      </trkpt>
      <trkpt lat="39.233005" lon="16.638068">
        <ele>1339.682407</ele>
        <time>2023-12-04T06:17:02.256Z</time>
      </trkpt>
      <trkpt lat="39.232761" lon="16.638054">
        <ele>1339.824683</ele>
        <time>2023-12-04T06:17:06.508Z</time>
      </trkpt>
      <trkpt lat="39.232506" lon="16.638325">
        <ele>1340.017083</ele>
        <time>2023-12-04T06:17:14.034Z</time>
      </trkpt>
      <trkpt lat="39.232268" lon="16.638303">
        <ele>1340.156079</ele>
        <time>2023-12-04T06:17:20.876Z</time>
      </trkpt>
      <trkpt lat="39.232058" lon="16.637951">
        <ele>1340.356557</ele>
        <time>2023-12-04T06:17:31.119Z</time>
      </trkpt>
      <trkpt lat="39.232058" lon="16.637087">
        <ele>1340.277556</ele>
        <time>2023-12-04T06:17:47.251Z</time>
      </trkpt>
      <trkpt lat="39.232018" lon="16.636941">
        <ele>1340.246347</ele>
        <time>2023-12-04T06:17:49.701Z</time>
      </trkpt>
      <trkpt lat="39.231848" lon="16.636758">
        <ele>1340.188759</ele>
        <time>2023-12-04T06:17:53.677Z</time>
      </trkpt>
      <trkpt lat="39.231678" lon="16.636772">
        <ele>1340.144439</ele>
        <time>2023-12-04T06:17:56.483Z</time>
      </trkpt>
      <trkpt lat="39.231547" lon="16.636919">
        <ele>1340.099281</ele>
        <time>2023-12-04T06:17:58.730Z</time>
      </trkpt>
      <trkpt lat="39.231406" lon="16.637841">
        <ele>1338.954465</ele>
        <time>2023-12-04T06:18:06.241Z</time>
      </trkpt>
      <trkpt lat="39.231315" lon="16.638786">
        <ele>1334.638982</ele>
        <time>2023-12-04T06:18:12.830Z</time>
      </trkpt>
      <trkpt lat="39.231031" lon="16.639160">
        <ele>1332.265519</ele>
        <time>2023-12-04T06:18:16.358Z</time>
      </trkpt>
      <trkpt lat="39.230861" lon="16.639657">
        <ele>1329.803397</ele>
        <time>2023-12-04T06:18:20.217Z</time>
      </trkpt>
      <trkpt lat="39.230657" lon="16.640587">
        <ele>1329.494913</ele>
        <time>2023-12-04T06:18:28.497Z</time>
      </trkpt>
      <trkpt lat="39.229806" lon="16.641422">
        <ele>1329.593939</ele>
        <time>2023-12-04T06:18:50.059Z</time>
      </trkpt>
      <trkpt lat="39.229710" lon="16.641627">
        <ele>1330.198600</ele>
        <time>2023-12-04T06:18:55.670Z</time>
      </trkpt>
      <trkpt lat="39.229710" lon="16.641847">
        <ele>1330.924662</ele>
        <time>2023-12-04T06:19:01.436Z</time>
      </trkpt>
      <trkpt lat="39.230005" lon="16.642667">
        <ele>1333.908512</ele>
        <time>2023-12-04T06:19:31.808Z</time>
      </trkpt>
      <trkpt lat="39.230033" lon="16.643019">
        <ele>1335.076316</ele>
        <time>2023-12-04T06:19:42.292Z</time>
      </trkpt>
      <trkpt lat="39.229959" lon="16.643341">
        <ele>1336.184786</ele>
        <time>2023-12-04T06:19:49.413Z</time>
      </trkpt>
      <trkpt lat="39.229528" lon="16.643597">
        <ele>1337.164039</ele>
        <time>2023-12-04T06:19:58.754Z</time>
      </trkpt>
      <trkpt lat="39.229301" lon="16.643795">
        <ele>1337.043940</ele>
        <time>2023-12-04T06:20:02.332Z</time>
      </trkpt>
      <trkpt lat="39.229261" lon="16.643971">
        <ele>1336.981654</ele>
        <time>2023-12-04T06:20:04.560Z</time>
      </trkpt>
      <trkpt lat="39.229330" lon="16.644307">
        <ele>1336.863613</ele>
        <time>2023-12-04T06:20:08.076Z</time>
      </trkpt>
      <trkpt lat="39.229494" lon="16.644445">
        <ele>1336.777793</ele>
        <time>2023-12-04T06:20:10.572Z</time>
      </trkpt>
      <trkpt lat="39.229700" lon="16.644445">
        <ele>1336.687485</ele>
        <time>2023-12-04T06:20:13.807Z</time>
      </trkpt>
      <trkpt lat="39.230362" lon="16.644146">
        <ele>1336.279333</ele>
        <time>2023-12-04T06:20:21.785Z</time>
      </trkpt>
      <trkpt lat="39.230493" lon="16.644123">
        <ele>1336.158445</ele>
        <time>2023-12-04T06:20:23.070Z</time>
      </trkpt>
      <trkpt lat="39.230643" lon="16.644170">
        <ele>1336.017305</ele>
        <time>2023-12-04T06:20:24.560Z</time>
      </trkpt>
      <trkpt lat="39.230821" lon="16.644344">
        <ele>1335.813149</ele>
        <time>2023-12-04T06:20:26.684Z</time>
      </trkpt>
      <trkpt lat="39.230924" lon="16.644908">
        <ele>1335.402722</ele>
        <time>2023-12-04T06:20:31.557Z</time>
      </trkpt>
      <trkpt lat="39.231145" lon="16.645684">
        <ele>1334.861971</ele>
        <time>2023-12-04T06:20:45.374Z</time>
      </trkpt>
      <trkpt lat="39.231145" lon="16.646241">
        <ele>1336.078600</ele>
        <time>2023-12-04T06:20:57.726Z</time>
      </trkpt>
      <trkpt lat="39.231065" lon="16.646629">
        <ele>1336.955601</ele>
        <time>2023-12-04T06:21:06.318Z</time>
      </trkpt>
      <trkpt lat="39.230759" lon="16.646980">
        <ele>1338.109871</ele>
        <time>2023-12-04T06:21:17.292Z</time>
      </trkpt>
      <trkpt lat="39.230697" lon="16.647105">
        <ele>1338.434082</ele>
        <time>2023-12-04T06:21:20.536Z</time>
      </trkpt>
      <trkpt lat="39.230731" lon="16.647361">
        <ele>1339.001414</ele>
        <time>2023-12-04T06:21:25.693Z</time>
      </trkpt>
      <trkpt lat="39.230804" lon="16.647544">
        <ele>1339.451025</ele>
        <time>2023-12-04T06:21:30.091Z</time>
      </trkpt>
      <trkpt lat="39.231440" lon="16.647632">
        <ele>1340.408968</ele>
        <time>2023-12-04T06:21:47.126Z</time>
      </trkpt>
      <trkpt lat="39.232058" lon="16.648174">
        <ele>1341.200480</ele>
        <time>2023-12-04T06:22:02.002Z</time>
      </trkpt>
      <trkpt lat="39.232557" lon="16.649023">
        <ele>1341.399009</ele>
        <time>2023-12-04T06:22:12.452Z</time>
      </trkpt>
      <trkpt lat="39.232977" lon="16.649792">
        <ele>1340.234425</ele>
        <time>2023-12-04T06:22:21.040Z</time>
      </trkpt>
      <trkpt lat="39.233351" lon="16.650202">
        <ele>1339.450442</ele>
        <time>2023-12-04T06:22:26.623Z</time>
      </trkpt>
      <trkpt lat="39.233578" lon="16.650532">
        <ele>1338.861611</ele>
        <time>2023-12-04T06:22:30.234Z</time>
      </trkpt>
      <trkpt lat="39.233652" lon="16.650730">
        <ele>1338.165457</ele>
        <time>2023-12-04T06:22:31.954Z</time>
      </trkpt>
      <trkpt lat="39.233652" lon="16.651183">
        <ele>1336.730993</ele>
        <time>2023-12-04T06:22:35.497Z</time>
      </trkpt>
      <trkpt lat="39.233850" lon="16.651886">
        <ele>1334.362286</ele>
        <time>2023-12-04T06:22:41.258Z</time>
      </trkpt>
      <trkpt lat="39.234457" lon="16.653446">
        <ele>1328.051852</ele>
        <time>2023-12-04T06:22:53.825Z</time>
      </trkpt>
      <trkpt lat="39.234584" lon="16.653605">
        <ele>1327.122442</ele>
        <time>2023-12-04T06:22:55.419Z</time>
      </trkpt>
      <trkpt lat="39.234730" lon="16.653621">
        <ele>1326.352652</ele>
        <time>2023-12-04T06:22:56.764Z</time>
      </trkpt>
      <trkpt lat="39.235127" lon="16.653446">
        <ele>1324.148735</ele>
        <time>2023-12-04T06:23:00.678Z</time>
      </trkpt>
      <trkpt lat="39.235354" lon="16.653541">
        <ele>1322.895067</ele>
        <time>2023-12-04T06:23:02.947Z</time>
      </trkpt>
      <trkpt lat="39.235569" lon="16.653724">
        <ele>1322.001017</ele>
        <time>2023-12-04T06:23:05.426Z</time>
      </trkpt>
      <trkpt lat="39.235802" lon="16.654032">
        <ele>1321.619088</ele>
        <time>2023-12-04T06:23:08.695Z</time>
      </trkpt>
      <trkpt lat="39.235892" lon="16.654252">
        <ele>1321.398375</ele>
        <time>2023-12-04T06:23:10.653Z</time>
      </trkpt>
      <trkpt lat="39.235777" lon="16.654730">
        <ele>1320.954351</ele>
        <time>2023-12-04T06:23:15.073Z</time>
      </trkpt>
      <trkpt lat="39.235872" lon="16.654996">
        <ele>1320.694503</ele>
        <time>2023-12-04T06:23:18.869Z</time>
      </trkpt>
      <trkpt lat="39.236216" lon="16.655050">
        <ele>1320.297610</ele>
        <time>2023-12-04T06:23:26.072Z</time>
      </trkpt>
      <trkpt lat="39.236692" lon="16.654881">
        <ele>1320.241526</ele>
        <time>2023-12-04T06:23:38.008Z</time>
      </trkpt>
      <trkpt lat="39.236874" lon="16.654955">
        <ele>1320.353562</ele>
        <time>2023-12-04T06:23:42.582Z</time>
      </trkpt>
      <trkpt lat="39.237146" lon="16.655401">
        <ele>1320.611719</ele>
        <time>2023-12-04T06:23:52.482Z</time>
      </trkpt>
      <trkpt lat="39.237390" lon="16.657452">
        <ele>1319.505806</ele>
        <time>2023-12-04T06:24:12.542Z</time>
      </trkpt>
      <trkpt lat="39.237463" lon="16.658250">
        <ele>1318.131053</ele>
        <time>2023-12-04T06:24:19.088Z</time>
      </trkpt>
      <trkpt lat="39.237339" lon="16.659033">
        <ele>1316.300487</ele>
        <time>2023-12-04T06:24:25.298Z</time>
      </trkpt>
      <trkpt lat="39.237015" lon="16.659341">
        <ele>1314.351297</ele>
        <time>2023-12-04T06:24:29.127Z</time>
      </trkpt>
      <trkpt lat="39.236874" lon="16.659605">
        <ele>1313.148020</ele>
        <time>2023-12-04T06:24:31.469Z</time>
      </trkpt>
      <trkpt lat="39.236851" lon="16.659839">
        <ele>1312.262949</ele>
        <time>2023-12-04T06:24:33.197Z</time>
      </trkpt>
      <trkpt lat="39.237100" lon="16.660827">
        <ele>1308.331290</ele>
        <time>2023-12-04T06:24:40.785Z</time>
      </trkpt>
      <trkpt lat="39.237129" lon="16.661047">
        <ele>1307.119349</ele>
        <time>2023-12-04T06:24:42.379Z</time>
      </trkpt>
      <trkpt lat="39.236840" lon="16.662029">
        <ele>1301.414357</ele>
        <time>2023-12-04T06:24:49.658Z</time>
      </trkpt>
      <trkpt lat="39.236550" lon="16.662753">
        <ele>1296.987820</ele>
        <time>2023-12-04T06:24:55.205Z</time>
      </trkpt>
      <trkpt lat="39.235717" lon="16.664591">
        <ele>1287.897878</ele>
        <time>2023-12-04T06:25:10.201Z</time>
      </trkpt>
      <trkpt lat="39.235144" lon="16.665075">
        <ele>1286.320218</ele>
        <time>2023-12-04T06:25:18.245Z</time>
      </trkpt>
      <trkpt lat="39.234911" lon="16.665185">
        <ele>1286.390223</ele>
        <time>2023-12-04T06:25:22.441Z</time>
      </trkpt>
      <trkpt lat="39.234803" lon="16.665111">
        <ele>1286.424725</ele>
        <time>2023-12-04T06:25:24.428Z</time>
      </trkpt>
      <trkpt lat="39.234593" lon="16.664818">
        <ele>1286.511975</ele>
        <time>2023-12-04T06:25:30.148Z</time>
      </trkpt>
      <trkpt lat="39.234497" lon="16.664752">
        <ele>1286.542665</ele>
        <time>2023-12-04T06:25:32.305Z</time>
      </trkpt>
      <trkpt lat="39.234389" lon="16.664775">
        <ele>1286.573552</ele>
        <time>2023-12-04T06:25:34.602Z</time>
      </trkpt>
      <trkpt lat="39.233890" lon="16.665192">
        <ele>1286.925173</ele>
        <time>2023-12-04T06:25:46.549Z</time>
      </trkpt>
      <trkpt lat="39.233828" lon="16.665338">
        <ele>1287.334998</ele>
        <time>2023-12-04T06:25:49.575Z</time>
      </trkpt>
      <trkpt lat="39.233813" lon="16.665479">
        <ele>1287.685311</ele>
        <time>2023-12-04T06:25:52.066Z</time>
      </trkpt>
      <trkpt lat="39.233832" lon="16.665599">
        <ele>1287.986784</ele>
        <time>2023-12-04T06:25:54.231Z</time>
      </trkpt>
      <trkpt lat="39.234038" lon="16.665851">
        <ele>1288.888587</ele>
        <time>2023-12-04T06:26:01.096Z</time>
      </trkpt>
      <trkpt lat="39.234106" lon="16.665997">
        <ele>1289.307911</ele>
        <time>2023-12-04T06:26:04.376Z</time>
      </trkpt>
      <trkpt lat="39.234060" lon="16.666920">
        <ele>1291.584454</ele>
        <time>2023-12-04T06:26:24.796Z</time>
      </trkpt>
      <trkpt lat="39.233731" lon="16.667293">
        <ele>1293.453916</ele>
        <time>2023-12-04T06:26:39.611Z</time>
      </trkpt>
      <trkpt lat="39.233567" lon="16.667389">
        <ele>1294.535711</ele>
        <time>2023-12-04T06:26:46.458Z</time>
      </trkpt>
      <trkpt lat="39.232432" lon="16.667293">
        <ele>1301.368986</ele>
        <time>2023-12-04T06:27:34.555Z</time>
      </trkpt>
      <trkpt lat="39.232342" lon="16.667396">
        <ele>1302.091533</ele>
        <time>2023-12-04T06:27:39.548Z</time>
      </trkpt>
      <trkpt lat="39.232313" lon="16.667652">
        <ele>1303.257562</ele>
        <time>2023-12-04T06:27:47.663Z</time>
      </trkpt>
      <trkpt lat="39.232529" lon="16.668370">
        <ele>1304.173327</ele>
        <time>2023-12-04T06:28:07.868Z</time>
      </trkpt>
      <trkpt lat="39.232518" lon="16.668641">
        <ele>1304.495965</ele>
        <time>2023-12-04T06:28:13.081Z</time>
      </trkpt>
      <trkpt lat="39.232217" lon="16.670230">
        <ele>1305.252612</ele>
        <time>2023-12-04T06:28:28.786Z</time>
      </trkpt>
      <trkpt lat="39.231553" lon="16.672354">
        <ele>1300.393713</ele>
        <time>2023-12-04T06:28:46.839Z</time>
      </trkpt>
      <trkpt lat="39.231338" lon="16.672786">
        <ele>1299.104405</ele>
        <time>2023-12-04T06:28:50.902Z</time>
      </trkpt>
      <trkpt lat="39.230765" lon="16.673496">
        <ele>1296.529879</ele>
        <time>2023-12-04T06:28:58.998Z</time>
      </trkpt>
      <trkpt lat="39.230092" lon="16.674464">
        <ele>1292.121974</ele>
        <time>2023-12-04T06:29:08.958Z</time>
      </trkpt>
      <trkpt lat="39.229631" lon="16.674872">
        <ele>1289.343391</ele>
        <time>2023-12-04T06:29:14.176Z</time>
      </trkpt>
      <trkpt lat="39.229565" lon="16.674985">
        <ele>1288.798415</ele>
        <time>2023-12-04T06:29:15.192Z</time>
      </trkpt>
      <trkpt lat="39.229438" lon="16.675301">
        <ele>1287.427523</ele>
        <time>2023-12-04T06:29:17.721Z</time>
      </trkpt>
      <trkpt lat="39.229353" lon="16.675393">
        <ele>1286.876102</ele>
        <time>2023-12-04T06:29:18.734Z</time>
      </trkpt>
      <trkpt lat="39.229191" lon="16.675503">
        <ele>1285.929549</ele>
        <time>2023-12-04T06:29:20.401Z</time>
      </trkpt>
      <trkpt lat="39.228950" lon="16.675847">
        <ele>1284.011660</ele>
        <time>2023-12-04T06:29:23.666Z</time>
      </trkpt>
      <trkpt lat="39.228871" lon="16.675926">
        <ele>1283.478234</ele>
        <time>2023-12-04T06:29:24.581Z</time>
      </trkpt>
      <trkpt lat="39.228451" lon="16.676211">
        <ele>1280.945402</ele>
        <time>2023-12-04T06:29:28.915Z</time>
      </trkpt>
      <trkpt lat="39.228281" lon="16.676254">
        <ele>1280.020682</ele>
        <time>2023-12-04T06:29:30.512Z</time>
      </trkpt>
      <trkpt lat="39.227617" lon="16.676151">
        <ele>1276.866780</ele>
        <time>2023-12-04T06:29:36.887Z</time>
      </trkpt>
      <trkpt lat="39.227435" lon="16.676015">
        <ele>1276.882367</ele>
        <time>2023-12-04T06:29:39.048Z</time>
      </trkpt>
      <trkpt lat="39.227259" lon="16.675151">
        <ele>1276.933663</ele>
        <time>2023-12-04T06:29:48.194Z</time>
      </trkpt>
      <trkpt lat="39.227141" lon="16.674235">
        <ele>1276.986980</ele>
        <time>2023-12-04T06:30:05.424Z</time>
      </trkpt>
      <trkpt lat="39.227119" lon="16.673711">
        <ele>1277.760200</ele>
        <time>2023-12-04T06:30:16.331Z</time>
      </trkpt>
      <trkpt lat="39.227129" lon="16.673174">
        <ele>1278.800202</ele>
        <time>2023-12-04T06:30:27.102Z</time>
      </trkpt>
      <trkpt lat="39.227089" lon="16.672910">
        <ele>1279.321026</ele>
        <time>2023-12-04T06:30:32.416Z</time>
      </trkpt>
      <trkpt lat="39.226913" lon="16.672672">
        <ele>1279.958081</ele>
        <time>2023-12-04T06:30:38.875Z</time>
      </trkpt>
      <trkpt lat="39.226736" lon="16.672629">
        <ele>1280.408237</ele>
        <time>2023-12-04T06:30:43.281Z</time>
      </trkpt>
      <trkpt lat="39.226373" lon="16.672797">
        <ele>1281.372056</ele>
        <time>2023-12-04T06:30:52.673Z</time>
      </trkpt>
      <trkpt lat="39.225908" lon="16.672799">
        <ele>1282.382046</ele>
        <time>2023-12-04T06:31:03.100Z</time>
      </trkpt>
      <trkpt lat="39.225800" lon="16.672753">
        <ele>1282.624861</ele>
        <time>2023-12-04T06:31:05.523Z</time>
      </trkpt>
      <trkpt lat="39.225694" lon="16.672668">
        <ele>1282.891290</ele>
        <time>2023-12-04T06:31:08.134Z</time>
      </trkpt>
      <trkpt lat="39.225386" lon="16.671756">
        <ele>1284.536816</ele>
        <time>2023-12-04T06:31:24.816Z</time>
      </trkpt>
      <trkpt lat="39.225341" lon="16.671536">
        <ele>1284.913159</ele>
        <time>2023-12-04T06:31:29.218Z</time>
      </trkpt>
      <trkpt lat="39.225330" lon="16.670517">
        <ele>1287.582232</ele>
        <time>2023-12-04T06:31:51.127Z</time>
      </trkpt>
      <trkpt lat="39.225245" lon="16.670303">
        <ele>1288.288373</ele>
        <time>2023-12-04T06:31:56.485Z</time>
      </trkpt>
      <trkpt lat="39.224818" lon="16.670072">
        <ele>1290.043238</ele>
        <time>2023-12-04T06:32:10.197Z</time>
      </trkpt>
      <trkpt lat="39.224714" lon="16.670145">
        <ele>1290.491944</ele>
        <time>2023-12-04T06:32:13.994Z</time>
      </trkpt>
      <trkpt lat="39.224530" lon="16.670398">
        <ele>1291.510902</ele>
        <time>2023-12-04T06:32:23.150Z</time>
      </trkpt>
      <trkpt lat="39.223834" lon="16.671123">
        <ele>1296.027965</ele>
        <time>2023-12-04T06:32:53.653Z</time>
      </trkpt>
      <trkpt lat="39.223703" lon="16.671175">
        <ele>1296.760128</ele>
        <time>2023-12-04T06:32:58.258Z</time>
      </trkpt>
      <trkpt lat="39.223061" lon="16.671123">
        <ele>1300.196537</ele>
        <time>2023-12-04T06:33:20.510Z</time>
      </trkpt>
      <trkpt lat="39.222976" lon="16.671197">
        <ele>1300.744242</ele>
        <time>2023-12-04T06:33:24.554Z</time>
      </trkpt>
      <trkpt lat="39.222823" lon="16.671804">
        <ele>1303.294764</ele>
        <time>2023-12-04T06:33:46.456Z</time>
      </trkpt>
      <trkpt lat="39.222670" lon="16.672009">
        <ele>1304.406915</ele>
        <time>2023-12-04T06:33:56.909Z</time>
      </trkpt>
      <trkpt lat="39.222545" lon="16.672068">
        <ele>1305.078142</ele>
        <time>2023-12-04T06:34:03.048Z</time>
      </trkpt>
      <trkpt lat="39.222330" lon="16.672009">
        <ele>1306.186671</ele>
        <time>2023-12-04T06:34:12.416Z</time>
      </trkpt>
      <trkpt lat="39.222000" lon="16.671982">
        <ele>1307.854282</ele>
        <time>2023-12-04T06:34:24.388Z</time>
      </trkpt>
      <trkpt lat="39.221611" lon="16.672179">
        <ele>1309.961687</ele>
        <time>2023-12-04T06:34:36.119Z</time>
      </trkpt>
      <trkpt lat="39.221496" lon="16.672310">
        <ele>1310.735205</ele>
        <time>2023-12-04T06:34:39.927Z</time>
      </trkpt>
      <trkpt lat="39.221388" lon="16.672485">
        <ele>1310.446597</ele>
        <time>2023-12-04T06:34:43.581Z</time>
      </trkpt>
      <trkpt lat="39.221331" lon="16.672793">
        <ele>1309.844424</ele>
        <time>2023-12-04T06:34:48.556Z</time>
      </trkpt>
      <trkpt lat="39.221410" lon="16.674836">
        <ele>1305.726940</ele>
        <time>2023-12-04T06:35:04.156Z</time>
      </trkpt>
      <trkpt lat="39.221370" lon="16.674977">
        <ele>1305.299363</ele>
        <time>2023-12-04T06:35:05.186Z</time>
      </trkpt>
      <trkpt lat="39.221288" lon="16.675073">
        <ele>1304.892458</ele>
        <time>2023-12-04T06:35:06.163Z</time>
      </trkpt>
      <trkpt lat="39.221201" lon="16.675108">
        <ele>1304.557506</ele>
        <time>2023-12-04T06:35:06.970Z</time>
      </trkpt>
      <trkpt lat="39.219999" lon="16.674974">
        <ele>1300.122940</ele>
        <time>2023-12-04T06:35:18.656Z</time>
      </trkpt>
      <trkpt lat="39.219797" lon="16.675022">
        <ele>1300.149415</ele>
        <time>2023-12-04T06:35:21.025Z</time>
      </trkpt>
      <trkpt lat="39.218438" lon="16.675349">
        <ele>1304.234931</ele>
        <time>2023-12-04T06:36:02.179Z</time>
      </trkpt>
      <trkpt lat="39.218137" lon="16.676557">
        <ele>1307.262815</ele>
        <time>2023-12-04T06:36:37.717Z</time>
      </trkpt>
      <trkpt lat="39.218103" lon="16.676769">
        <ele>1307.788511</ele>
        <time>2023-12-04T06:36:42.745Z</time>
      </trkpt>
      <trkpt lat="39.218166" lon="16.677165">
        <ele>1308.770148</ele>
        <time>2023-12-04T06:36:51.323Z</time>
      </trkpt>
      <trkpt lat="39.218778" lon="16.677948">
        <ele>1310.729979</ele>
        <time>2023-12-04T06:37:08.866Z</time>
      </trkpt>
      <trkpt lat="39.218824" lon="16.678490">
        <ele>1310.685419</ele>
        <time>2023-12-04T06:37:13.885Z</time>
      </trkpt>
      <trkpt lat="39.218846" lon="16.679332">
        <ele>1310.616566</ele>
        <time>2023-12-04T06:37:21.202Z</time>
      </trkpt>
      <trkpt lat="39.218824" lon="16.679911">
        <ele>1310.569190</ele>
        <time>2023-12-04T06:37:27.268Z</time>
      </trkpt>
      <trkpt lat="39.218671" lon="16.680474">
        <ele>1311.933703</ele>
        <time>2023-12-04T06:37:39.667Z</time>
      </trkpt>
      <trkpt lat="39.218568" lon="16.680965">
        <ele>1313.229297</ele>
        <time>2023-12-04T06:37:51.888Z</time>
      </trkpt>
      <trkpt lat="39.218620" lon="16.681280">
        <ele>1314.049603</ele>
        <time>2023-12-04T06:37:59.199Z</time>
      </trkpt>
      <trkpt lat="39.218886" lon="16.681601">
        <ele>1315.246743</ele>
        <time>2023-12-04T06:38:10.333Z</time>
      </trkpt>
      <trkpt lat="39.218644" lon="16.681804">
        <ele>1316.195569</ele>
        <time>2023-12-04T06:38:19.312Z</time>
      </trkpt>
      <trkpt lat="39.218497" lon="16.681897">
        <ele>1316.852765</ele>
        <time>2023-12-04T06:38:24.332Z</time>
      </trkpt>
      <trkpt lat="39.218372" lon="16.681937">
        <ele>1317.472710</ele>
        <time>2023-12-04T06:38:28.323Z</time>
      </trkpt>
      <trkpt lat="39.218290" lon="16.681935">
        <ele>1317.867514</ele>
        <time>2023-12-04T06:38:30.633Z</time>
      </trkpt>
      <trkpt lat="39.218212" lon="16.681889">
        <ele>1318.280328</ele>
        <time>2023-12-04T06:38:33.315Z</time>
      </trkpt>
      <trkpt lat="39.218145" lon="16.681783">
        <ele>1318.790529</ele>
        <time>2023-12-04T06:38:37.116Z</time>
      </trkpt>
      <trkpt lat="39.218099" lon="16.681630">
        <ele>1319.402600</ele>
        <time>2023-12-04T06:38:41.184Z</time>
      </trkpt>
      <trkpt lat="39.218109" lon="16.681480">
        <ele>1319.964090</ele>
        <time>2023-12-04T06:38:44.942Z</time>
      </trkpt>
      <trkpt lat="39.218152" lon="16.681365">
        <ele>1320.440319</ele>
        <time>2023-12-04T06:38:48.893Z</time>
      </trkpt>
      <trkpt lat="39.218289" lon="16.681135">
        <ele>1321.522316</ele>
        <time>2023-12-04T06:38:56.631Z</time>
      </trkpt>
      <trkpt lat="39.218302" lon="16.680995">
        <ele>1322.048180</ele>
        <time>2023-12-04T06:39:01.168Z</time>
      </trkpt>
      <trkpt lat="39.218228" lon="16.680646">
        <ele>1323.397633</ele>
        <time>2023-12-04T06:39:11.377Z</time>
      </trkpt>
      <trkpt lat="39.218208" lon="16.680393">
        <ele>1324.346090</ele>
        <time>2023-12-04T06:39:18.038Z</time>
      </trkpt>
      <trkpt lat="39.218238" lon="16.680249">
        <ele>1324.902213</ele>
        <time>2023-12-04T06:39:21.635Z</time>
      </trkpt>
      <trkpt lat="39.218421" lon="16.680017">
        <ele>1326.220017</ele>
        <time>2023-12-04T06:39:30.188Z</time>
      </trkpt>
      <trkpt lat="39.218452" lon="16.679908">
        <ele>1326.688965</ele>
        <time>2023-12-04T06:39:33.202Z</time>
      </trkpt>
      <trkpt lat="39.218312" lon="16.678593">
        <ele>1332.049829</ele>
        <time>2023-12-04T06:40:11.384Z</time>
      </trkpt>
      <trkpt lat="39.218259" lon="16.678437">
        <ele>1332.737793</ele>
        <time>2023-12-04T06:40:16.644Z</time>
      </trkpt>
      <trkpt lat="39.218198" lon="16.678353">
        <ele>1333.202782</ele>
        <time>2023-12-04T06:40:19.985Z</time>
      </trkpt>
      <trkpt lat="39.217951" lon="16.678163">
        <ele>1334.638723</ele>
        <time>2023-12-04T06:40:30.337Z</time>
      </trkpt>
      <trkpt lat="39.217843" lon="16.678037">
        <ele>1335.145422</ele>
        <time>2023-12-04T06:40:35.114Z</time>
      </trkpt>
      <trkpt lat="39.217804" lon="16.677853">
        <ele>1335.659823</ele>
        <time>2023-12-04T06:40:39.922Z</time>
      </trkpt>
      <trkpt lat="39.217789" lon="16.677449">
        <ele>1336.750487</ele>
        <time>2023-12-04T06:40:48.698Z</time>
      </trkpt>
      <trkpt lat="39.217754" lon="16.677340">
        <ele>1337.068657</ele>
        <time>2023-12-04T06:40:51.066Z</time>
      </trkpt>
      <trkpt lat="39.217533" lon="16.677000">
        <ele>1338.265430</ele>
        <time>2023-12-04T06:40:59.380Z</time>
      </trkpt>
      <trkpt lat="39.216941" lon="16.675777">
        <ele>1343.296787</ele>
        <time>2023-12-04T06:41:29.556Z</time>
      </trkpt>
      <trkpt lat="39.216723" lon="16.675676">
        <ele>1344.769666</ele>
        <time>2023-12-04T06:41:37.728Z</time>
      </trkpt>
      <trkpt lat="39.216347" lon="16.675712">
        <ele>1347.167247</ele>
        <time>2023-12-04T06:41:52.927Z</time>
      </trkpt>
      <trkpt lat="39.216250" lon="16.675752">
        <ele>1347.814794</ele>
        <time>2023-12-04T06:41:57.450Z</time>
      </trkpt>
      <trkpt lat="39.216160" lon="16.675858">
        <ele>1348.589572</ele>
        <time>2023-12-04T06:42:03.046Z</time>
      </trkpt>
      <trkpt lat="39.215739" lon="16.676584">
        <ele>1353.431600</ele>
        <time>2023-12-04T06:42:37.232Z</time>
      </trkpt>
      <trkpt lat="39.215599" lon="16.676694">
        <ele>1354.934253</ele>
        <time>2023-12-04T06:42:45.830Z</time>
      </trkpt>
      <trkpt lat="39.215375" lon="16.676736">
        <ele>1357.009464</ele>
        <time>2023-12-04T06:42:58.537Z</time>
      </trkpt>
      <trkpt lat="39.215209" lon="16.676641">
        <ele>1358.674263</ele>
        <time>2023-12-04T06:43:08.706Z</time>
      </trkpt>
      <trkpt lat="39.215129" lon="16.676460">
        <ele>1360.154443</ele>
        <time>2023-12-04T06:43:17.972Z</time>
      </trkpt>
      <trkpt lat="39.215008" lon="16.675950">
        <ele>1363.943144</ele>
        <time>2023-12-04T06:43:40.636Z</time>
      </trkpt>
      <trkpt lat="39.214974" lon="16.675602">
        <ele>1366.434652</ele>
        <time>2023-12-04T06:43:54.380Z</time>
      </trkpt>
      <trkpt lat="39.215014" lon="16.675251">
        <ele>1368.865533</ele>
        <time>2023-12-04T06:44:07.388Z</time>
      </trkpt>
      <trkpt lat="39.214973" lon="16.675016">
        <ele>1369.976750</ele>
        <time>2023-12-04T06:44:15.720Z</time>
      </trkpt>
      <trkpt lat="39.214762" lon="16.674408">
        <ele>1373.050010</ele>
        <time>2023-12-04T06:44:37.408Z</time>
      </trkpt>
      <trkpt lat="39.214580" lon="16.673449">
        <ele>1377.604748</ele>
        <time>2023-12-04T06:45:06.802Z</time>
      </trkpt>
      <trkpt lat="39.214117" lon="16.672640">
        <ele>1379.386405</ele>
        <time>2023-12-04T06:45:29.476Z</time>
      </trkpt>
      <trkpt lat="39.213967" lon="16.672186">
        <ele>1379.367842</ele>
        <time>2023-12-04T06:45:36.155Z</time>
      </trkpt>
      <trkpt lat="39.213956" lon="16.672004">
        <ele>1379.360976</ele>
        <time>2023-12-04T06:45:37.980Z</time>
      </trkpt>
      <trkpt lat="39.214059" lon="16.671723">
        <ele>1379.349284</ele>
        <time>2023-12-04T06:45:40.683Z</time>
      </trkpt>
      <trkpt lat="39.214064" lon="16.671564">
        <ele>1379.343299</ele>
        <time>2023-12-04T06:45:41.996Z</time>
      </trkpt>
      <trkpt lat="39.213960" lon="16.671201">
        <ele>1379.328743</ele>
        <time>2023-12-04T06:45:45.078Z</time>
      </trkpt>
      <trkpt lat="39.213895" lon="16.671115">
        <ele>1379.324224</ele>
        <time>2023-12-04T06:45:46.028Z</time>
      </trkpt>
      <trkpt lat="39.213606" lon="16.670911">
        <ele>1377.570203</ele>
        <time>2023-12-04T06:45:49.333Z</time>
      </trkpt>
      <trkpt lat="39.213279" lon="16.670106">
        <ele>1373.283629</ele>
        <time>2023-12-04T06:45:56.032Z</time>
      </trkpt>
      <trkpt lat="39.213186" lon="16.669996">
        <ele>1372.515796</ele>
        <time>2023-12-04T06:45:57.170Z</time>
      </trkpt>
      <trkpt lat="39.213075" lon="16.669987">
        <ele>1371.838822</ele>
        <time>2023-12-04T06:45:58.159Z</time>
      </trkpt>
      <trkpt lat="39.212950" lon="16.670061">
        <ele>1371.001743</ele>
        <time>2023-12-04T06:45:59.374Z</time>
      </trkpt>
      <trkpt lat="39.212717" lon="16.670374">
        <ele>1368.954693</ele>
        <time>2023-12-04T06:46:02.294Z</time>
      </trkpt>
      <trkpt lat="39.212605" lon="16.670460">
        <ele>1368.092917</ele>
        <time>2023-12-04T06:46:03.414Z</time>
      </trkpt>
      <trkpt lat="39.212424" lon="16.670530">
        <ele>1366.572237</ele>
        <time>2023-12-04T06:46:05.049Z</time>
      </trkpt>
      <trkpt lat="39.212323" lon="16.670529">
        <ele>1365.759364</ele>
        <time>2023-12-04T06:46:05.921Z</time>
      </trkpt>
      <trkpt lat="39.212218" lon="16.670452">
        <ele>1364.787442</ele>
        <time>2023-12-04T06:46:06.978Z</time>
      </trkpt>
      <trkpt lat="39.211723" lon="16.669619">
        <ele>1358.241341</ele>
        <time>2023-12-04T06:46:14.133Z</time>
      </trkpt>
      <trkpt lat="39.211597" lon="16.669534">
        <ele>1357.097125</ele>
        <time>2023-12-04T06:46:15.397Z</time>
      </trkpt>
      <trkpt lat="39.211514" lon="16.669548">
        <ele>1356.423460</ele>
        <time>2023-12-04T06:46:16.135Z</time>
      </trkpt>
      <trkpt lat="39.211417" lon="16.669609">
        <ele>1355.555063</ele>
        <time>2023-12-04T06:46:17.074Z</time>
      </trkpt>
      <trkpt lat="39.210343" lon="16.670888">
        <ele>1346.945550</ele>
        <time>2023-12-04T06:46:30.590Z</time>
      </trkpt>
      <trkpt lat="39.209581" lon="16.671672">
        <ele>1340.757754</ele>
        <time>2023-12-04T06:46:40.004Z</time>
      </trkpt>
      <trkpt lat="39.209423" lon="16.671721">
        <ele>1339.559886</ele>
        <time>2023-12-04T06:46:41.480Z</time>
      </trkpt>
      <trkpt lat="39.208635" lon="16.671688">
        <ele>1333.748011</ele>
        <time>2023-12-04T06:46:48.404Z</time>
      </trkpt>
      <trkpt lat="39.208342" lon="16.671855">
        <ele>1331.386873</ele>
        <time>2023-12-04T06:46:51.159Z</time>
      </trkpt>
      <trkpt lat="39.207438" lon="16.672592">
        <ele>1322.095631</ele>
        <time>2023-12-04T06:47:00.525Z</time>
      </trkpt>
      <trkpt lat="39.207311" lon="16.672778">
        <ele>1320.401466</ele>
        <time>2023-12-04T06:47:02.225Z</time>
      </trkpt>
      <trkpt lat="39.207236" lon="16.673054">
        <ele>1318.402715</ele>
        <time>2023-12-04T06:47:04.196Z</time>
      </trkpt>
      <trkpt lat="39.207249" lon="16.673309">
        <ele>1316.656325</ele>
        <time>2023-12-04T06:47:05.927Z</time>
      </trkpt>
      <trkpt lat="39.207345" lon="16.673632">
        <ele>1314.294504</ele>
        <time>2023-12-04T06:47:08.253Z</time>
      </trkpt>
      <trkpt lat="39.207380" lon="16.673770">
        <ele>1313.306571</ele>
        <time>2023-12-04T06:47:09.224Z</time>
      </trkpt>
      <trkpt lat="39.207380" lon="16.673882">
        <ele>1312.544552</ele>
        <time>2023-12-04T06:47:09.975Z</time>
      </trkpt>
      <trkpt lat="39.207328" lon="16.674092">
        <ele>1311.044583</ele>
        <time>2023-12-04T06:47:11.455Z</time>
      </trkpt>
      <trkpt lat="39.207242" lon="16.674236">
        <ele>1309.807606</ele>
        <time>2023-12-04T06:47:12.679Z</time>
      </trkpt>
      <trkpt lat="39.207155" lon="16.674301">
        <ele>1308.924918</ele>
        <time>2023-12-04T06:47:13.552Z</time>
      </trkpt>
      <trkpt lat="39.206659" lon="16.674467">
        <ele>1304.425687</ele>
        <time>2023-12-04T06:47:18.069Z</time>
      </trkpt>
      <trkpt lat="39.206526" lon="16.674593">
        <ele>1302.976988</ele>
        <time>2023-12-04T06:47:19.526Z</time>
      </trkpt>
      <trkpt lat="39.206154" lon="16.675143">
        <ele>1298.326776</ele>
        <time>2023-12-04T06:47:24.416Z</time>
      </trkpt>
      <trkpt lat="39.206075" lon="16.676640">
        <ele>1291.311513</ele>
        <time>2023-12-04T06:47:34.783Z</time>
      </trkpt>
      <trkpt lat="39.206085" lon="16.676822">
        <ele>1290.458456</ele>
        <time>2023-12-04T06:47:36.224Z</time>
      </trkpt>
      <trkpt lat="39.206101" lon="16.676953">
        <ele>1289.838419</ele>
        <time>2023-12-04T06:47:37.271Z</time>
      </trkpt>
      <trkpt lat="39.206168" lon="16.677061">
        <ele>1289.191588</ele>
        <time>2023-12-04T06:47:38.396Z</time>
      </trkpt>
      <trkpt lat="39.206276" lon="16.677131">
        <ele>1288.462379</ele>
        <time>2023-12-04T06:47:39.773Z</time>
      </trkpt>
      <trkpt lat="39.206704" lon="16.677109">
        <ele>1288.712033</ele>
        <time>2023-12-04T06:47:44.648Z</time>
      </trkpt>
      <trkpt lat="39.207002" lon="16.677275">
        <ele>1289.174654</ele>
        <time>2023-12-04T06:47:48.917Z</time>
      </trkpt>
      <trkpt lat="39.207114" lon="16.677375">
        <ele>1289.368769</ele>
        <time>2023-12-04T06:47:51.333Z</time>
      </trkpt>
      <trkpt lat="39.207787" lon="16.678300">
        <ele>1290.778101</ele>
        <time>2023-12-04T06:48:20.323Z</time>
      </trkpt>
      <trkpt lat="39.207860" lon="16.678627">
        <ele>1291.237266</ele>
        <time>2023-12-04T06:48:29.948Z</time>
      </trkpt>
      <trkpt lat="39.208001" lon="16.678949">
        <ele>1291.736314</ele>
        <time>2023-12-04T06:48:39.655Z</time>
      </trkpt>
      <trkpt lat="39.208001" lon="16.679113">
        <ele>1291.957597</ele>
        <time>2023-12-04T06:48:43.078Z</time>
      </trkpt>
      <trkpt lat="39.207697" lon="16.680127">
        <ele>1293.424618</ele>
        <time>2023-12-04T06:48:57.266Z</time>
      </trkpt>
      <trkpt lat="39.207638" lon="16.680266">
        <ele>1293.638466</ele>
        <time>2023-12-04T06:48:58.811Z</time>
      </trkpt>
      <trkpt lat="39.207503" lon="16.680363">
        <ele>1293.897708</ele>
        <time>2023-12-04T06:49:00.712Z</time>
      </trkpt>
      <trkpt lat="39.207239" lon="16.680403">
        <ele>1294.250766</ele>
        <time>2023-12-04T06:49:03.842Z</time>
      </trkpt>
      <trkpt lat="39.206491" lon="16.680630">
        <ele>1295.271373</ele>
        <time>2023-12-04T06:49:15.116Z</time>
      </trkpt>
      <trkpt lat="39.206360" lon="16.680577">
        <ele>1295.453720</ele>
        <time>2023-12-04T06:49:18.109Z</time>
      </trkpt>
      <trkpt lat="39.206109" lon="16.680411">
        <ele>1295.828331</ele>
        <time>2023-12-04T06:49:23.529Z</time>
      </trkpt>
      <trkpt lat="39.205896" lon="16.680234">
        <ele>1296.164819</ele>
        <time>2023-12-04T06:49:31.073Z</time>
      </trkpt>
      <trkpt lat="39.205813" lon="16.680125">
        <ele>1296.680877</ele>
        <time>2023-12-04T06:49:34.062Z</time>
      </trkpt>
      <trkpt lat="39.205703" lon="16.679908">
        <ele>1298.377557</ele>
        <time>2023-12-04T06:49:41.968Z</time>
      </trkpt>
      <trkpt lat="39.205663" lon="16.679520">
        <ele>1300.938651</ele>
        <time>2023-12-04T06:49:56.030Z</time>
      </trkpt>
      <trkpt lat="39.205626" lon="16.679424">
        <ele>1301.640199</ele>
        <time>2023-12-04T06:50:00.419Z</time>
      </trkpt>
      <trkpt lat="39.205565" lon="16.679359">
        <ele>1302.308176</ele>
        <time>2023-12-04T06:50:04.440Z</time>
      </trkpt>
      <trkpt lat="39.205322" lon="16.679215">
        <ele>1304.566056</ele>
        <time>2023-12-04T06:50:21.204Z</time>
      </trkpt>
      <trkpt lat="39.204836" lon="16.678930">
        <ele>1309.073665</ele>
        <time>2023-12-04T06:50:53.233Z</time>
      </trkpt>
      <trkpt lat="39.204314" lon="16.678410">
        <ele>1311.287532</ele>
        <time>2023-12-04T06:51:26.292Z</time>
      </trkpt>
      <trkpt lat="39.204176" lon="16.678236">
        <ele>1311.208417</ele>
        <time>2023-12-04T06:51:31.981Z</time>
      </trkpt>
      <trkpt lat="39.204121" lon="16.678110">
        <ele>1311.162464</ele>
        <time>2023-12-04T06:51:34.603Z</time>
      </trkpt>
      <trkpt lat="39.204143" lon="16.677670">
        <ele>1311.022361</ele>
        <time>2023-12-04T06:51:38.836Z</time>
      </trkpt>
      <trkpt lat="39.204114" lon="16.677407">
        <ele>1310.937950</ele>
        <time>2023-12-04T06:51:40.831Z</time>
      </trkpt>
      <trkpt lat="39.203969" lon="16.676913">
        <ele>1310.770094</ele>
        <time>2023-12-04T06:51:44.513Z</time>
      </trkpt>
      <trkpt lat="39.203751" lon="16.676398">
        <ele>1308.721550</ele>
        <time>2023-12-04T06:51:48.487Z</time>
      </trkpt>
      <trkpt lat="39.203653" lon="16.676232">
        <ele>1307.640679</ele>
        <time>2023-12-04T06:51:49.892Z</time>
      </trkpt>
      <trkpt lat="39.203514" lon="16.676103">
        <ele>1306.496310</ele>
        <time>2023-12-04T06:51:51.386Z</time>
      </trkpt>
      <trkpt lat="39.203323" lon="16.676033">
        <ele>1305.169193</ele>
        <time>2023-12-04T06:51:53.123Z</time>
      </trkpt>
      <trkpt lat="39.203181" lon="16.676039">
        <ele>1304.219566</ele>
        <time>2023-12-04T06:51:54.373Z</time>
      </trkpt>
      <trkpt lat="39.202995" lon="16.676087">
        <ele>1302.951740</ele>
        <time>2023-12-04T06:51:56.073Z</time>
      </trkpt>
      <trkpt lat="39.202826" lon="16.676178">
        <ele>1301.727765</ele>
        <time>2023-12-04T06:51:57.736Z</time>
      </trkpt>
      <trkpt lat="39.202670" lon="16.676318">
        <ele>1300.457718</ele>
        <time>2023-12-04T06:51:59.476Z</time>
      </trkpt>
      <trkpt lat="39.202055" lon="16.677053">
        <ele>1298.267729</ele>
        <time>2023-12-04T06:52:08.157Z</time>
      </trkpt>
      <trkpt lat="39.201141" lon="16.678442">
        <ele>1297.280924</ele>
        <time>2023-12-04T06:52:33.657Z</time>
      </trkpt>
      <trkpt lat="39.201001" lon="16.678608">
        <ele>1297.181562</ele>
        <time>2023-12-04T06:52:36.385Z</time>
      </trkpt>
      <trkpt lat="39.200933" lon="16.678651">
        <ele>1297.141987</ele>
        <time>2023-12-04T06:52:37.367Z</time>
      </trkpt>
      <trkpt lat="39.200797" lon="16.678619">
        <ele>1297.069739</ele>
        <time>2023-12-04T06:52:39.111Z</time>
      </trkpt>
      <trkpt lat="39.200676" lon="16.678469">
        <ele>1296.982051</ele>
        <time>2023-12-04T06:52:41.227Z</time>
      </trkpt>
      <trkpt lat="39.200288" lon="16.677815">
        <ele>1296.648478</ele>
        <time>2023-12-04T06:52:48.980Z</time>
      </trkpt>
      <trkpt lat="39.200122" lon="16.677573">
        <ele>1296.517589</ele>
        <time>2023-12-04T06:52:52.042Z</time>
      </trkpt>
      <trkpt lat="39.200064" lon="16.677509">
        <ele>1296.477706</ele>
        <time>2023-12-04T06:52:52.977Z</time>
      </trkpt>
      <trkpt lat="39.200001" lon="16.677487">
        <ele>1296.443597</ele>
        <time>2023-12-04T06:52:53.770Z</time>
      </trkpt>
      <trkpt lat="39.199927" lon="16.677503">
        <ele>1296.550434</ele>
        <time>2023-12-04T06:52:54.716Z</time>
      </trkpt>
      <trkpt lat="39.199877" lon="16.677552">
        <ele>1296.659177</ele>
        <time>2023-12-04T06:52:55.461Z</time>
      </trkpt>
      <trkpt lat="39.199731" lon="16.677793">
        <ele>1297.069764</ele>
        <time>2023-12-04T06:52:58.486Z</time>
      </trkpt>
      <trkpt lat="39.199324" lon="16.678104">
        <ele>1297.889017</ele>
        <time>2023-12-04T06:53:05.898Z</time>
      </trkpt>
      <trkpt lat="39.198800" lon="16.678839">
        <ele>1299.229523</ele>
        <time>2023-12-04T06:53:26.375Z</time>
      </trkpt>
      <trkpt lat="39.198684" lon="16.678952">
        <ele>1299.481259</ele>
        <time>2023-12-04T06:53:31.095Z</time>
      </trkpt>
      <trkpt lat="39.198594" lon="16.678995">
        <ele>1299.810402</ele>
        <time>2023-12-04T06:53:34.341Z</time>
      </trkpt>
      <trkpt lat="39.198492" lon="16.678957">
        <ele>1300.313091</ele>
        <time>2023-12-04T06:53:37.944Z</time>
      </trkpt>
      <trkpt lat="39.198388" lon="16.678855">
        <ele>1300.931619</ele>
        <time>2023-12-04T06:53:42.529Z</time>
      </trkpt>
      <trkpt lat="39.198347" lon="16.678769">
        <ele>1301.302120</ele>
        <time>2023-12-04T06:53:45.357Z</time>
      </trkpt>
      <trkpt lat="39.198336" lon="16.678625">
        <ele>1301.833075</ele>
        <time>2023-12-04T06:53:49.236Z</time>
      </trkpt>
      <trkpt lat="39.198359" lon="16.678303">
        <ele>1303.019631</ele>
        <time>2023-12-04T06:53:58.152Z</time>
      </trkpt>
      <trkpt lat="39.198344" lon="16.678179">
        <ele>1303.480147</ele>
        <time>2023-12-04T06:54:01.553Z</time>
      </trkpt>
      <trkpt lat="39.198182" lon="16.677922">
        <ele>1304.695755</ele>
        <time>2023-12-04T06:54:10.675Z</time>
      </trkpt>
      <trkpt lat="39.198153" lon="16.677820">
        <ele>1305.094428</ele>
        <time>2023-12-04T06:54:13.664Z</time>
      </trkpt>
      <trkpt lat="39.198156" lon="16.677723">
        <ele>1305.450645</ele>
        <time>2023-12-04T06:54:16.243Z</time>
      </trkpt>
      <trkpt lat="39.198186" lon="16.677627">
        <ele>1305.830470</ele>
        <time>2023-12-04T06:54:19.088Z</time>
      </trkpt>
      <trkpt lat="39.198344" lon="16.677294">
        <ele>1307.263215</ele>
        <time>2023-12-04T06:54:29.623Z</time>
      </trkpt>
      <trkpt lat="39.198402" lon="16.677085">
        <ele>1308.074730</ele>
        <time>2023-12-04T06:54:35.619Z</time>
      </trkpt>
      <trkpt lat="39.198401" lon="16.676967">
        <ele>1308.337301</ele>
        <time>2023-12-04T06:54:38.663Z</time>
      </trkpt>
      <trkpt lat="39.198368" lon="16.676849">
        <ele>1308.616430</ele>
        <time>2023-12-04T06:54:41.771Z</time>
      </trkpt>
      <trkpt lat="39.198290" lon="16.676747">
        <ele>1308.935276</ele>
        <time>2023-12-04T06:54:45.369Z</time>
      </trkpt>
      <trkpt lat="39.198053" lon="16.676672">
        <ele>1309.635908</ele>
        <time>2023-12-04T06:54:52.764Z</time>
      </trkpt>
      <trkpt lat="39.197989" lon="16.676618">
        <ele>1309.855459</ele>
        <time>2023-12-04T06:54:54.910Z</time>
      </trkpt>
      <trkpt lat="39.197765" lon="16.676296">
        <ele>1310.818249</ele>
        <time>2023-12-04T06:55:04.084Z</time>
      </trkpt>
      <trkpt lat="39.197657" lon="16.676205">
        <ele>1311.188589</ele>
        <time>2023-12-04T06:55:07.549Z</time>
      </trkpt>
      <trkpt lat="39.197179" lon="16.676248">
        <ele>1312.564340</ele>
        <time>2023-12-04T06:55:19.419Z</time>
      </trkpt>
      <trkpt lat="39.197025" lon="16.676168">
        <ele>1313.040987</ele>
        <time>2023-12-04T06:55:23.217Z</time>
      </trkpt>
      <trkpt lat="39.196888" lon="16.675948">
        <ele>1313.091445</ele>
        <time>2023-12-04T06:55:27.033Z</time>
      </trkpt>
      <trkpt lat="39.196423" lon="16.674699">
        <ele>1312.079074</ele>
        <time>2023-12-04T06:55:39.902Z</time>
      </trkpt>
      <trkpt lat="39.196348" lon="16.674544">
        <ele>1311.945568</ele>
        <time>2023-12-04T06:55:41.468Z</time>
      </trkpt>
      <trkpt lat="39.196431" lon="16.674364">
        <ele>1311.792539</ele>
        <time>2023-12-04T06:55:43.170Z</time>
      </trkpt>
      <trkpt lat="39.196706" lon="16.673577">
        <ele>1311.219398</ele>
        <time>2023-12-04T06:55:50.530Z</time>
      </trkpt>
      <trkpt lat="39.196874" lon="16.672821">
        <ele>1310.732647</ele>
        <time>2023-12-04T06:55:57.845Z</time>
      </trkpt>
      <trkpt lat="39.197274" lon="16.670774">
        <ele>1310.984480</ele>
        <time>2023-12-04T06:56:23.027Z</time>
      </trkpt>
      <trkpt lat="39.197409" lon="16.670470">
        <ele>1311.267519</ele>
        <time>2023-12-04T06:56:29.132Z</time>
      </trkpt>
      <trkpt lat="39.197902" lon="16.669777">
        <ele>1312.028683</ele>
        <time>2023-12-04T06:56:45.977Z</time>
      </trkpt>
      <trkpt lat="39.197976" lon="16.669613">
        <ele>1312.185748</ele>
        <time>2023-12-04T06:56:49.211Z</time>
      </trkpt>
      <trkpt lat="39.198082" lon="16.669273">
        <ele>1312.489066</ele>
        <time>2023-12-04T06:56:54.869Z</time>
      </trkpt>
      <trkpt lat="39.198078" lon="16.669085">
        <ele>1312.644722</ele>
        <time>2023-12-04T06:56:57.578Z</time>
      </trkpt>
      <trkpt lat="39.198053" lon="16.668879">
        <ele>1312.817295</ele>
        <time>2023-12-04T06:57:00.276Z</time>
      </trkpt>
      <trkpt lat="39.197895" lon="16.668200">
        <ele>1313.404055</ele>
        <time>2023-12-04T06:57:10.447Z</time>
      </trkpt>
      <trkpt lat="39.197794" lon="16.667834">
        <ele>1313.725607</ele>
        <time>2023-12-04T06:57:16.349Z</time>
      </trkpt>
      <trkpt lat="39.197739" lon="16.667686">
        <ele>1313.861454</ele>
        <time>2023-12-04T06:57:18.997Z</time>
      </trkpt>
      <trkpt lat="39.197658" lon="16.667558">
        <ele>1313.672025</ele>
        <time>2023-12-04T06:57:21.509Z</time>
      </trkpt>
      <trkpt lat="39.197339" lon="16.667203">
        <ele>1312.659120</ele>
        <time>2023-12-04T06:57:27.986Z</time>
      </trkpt>
      <trkpt lat="39.197146" lon="16.667035">
        <ele>1312.099323</ele>
        <time>2023-12-04T06:57:30.637Z</time>
      </trkpt>
      <trkpt lat="39.196993" lon="16.666939">
        <ele>1311.690240</ele>
        <time>2023-12-04T06:57:32.426Z</time>
      </trkpt>
      <trkpt lat="39.196168" lon="16.666890">
        <ele>1309.704396</ele>
        <time>2023-12-04T06:57:40.410Z</time>
      </trkpt>
      <trkpt lat="39.196087" lon="16.666825">
        <ele>1309.445995</ele>
        <time>2023-12-04T06:57:41.296Z</time>
      </trkpt>
      <trkpt lat="39.196056" lon="16.666709">
        <ele>1309.149551</ele>
        <time>2023-12-04T06:57:42.193Z</time>
      </trkpt>
      <trkpt lat="39.196081" lon="16.666588">
        <ele>1308.847012</ele>
        <time>2023-12-04T06:57:43.115Z</time>
      </trkpt>
      <trkpt lat="39.196338" lon="16.666348">
        <ele>1307.858038</ele>
        <time>2023-12-04T06:57:46.099Z</time>
      </trkpt>
      <trkpt lat="39.196588" lon="16.665964">
        <ele>1306.646411</ele>
        <time>2023-12-04T06:57:49.860Z</time>
      </trkpt>
      <trkpt lat="39.196743" lon="16.665879">
        <ele>1306.121389</ele>
        <time>2023-12-04T06:57:51.540Z</time>
      </trkpt>
      <trkpt lat="39.197088" lon="16.665925">
        <ele>1305.040162</ele>
        <time>2023-12-04T06:57:55.162Z</time>
      </trkpt>
      <trkpt lat="39.197254" lon="16.665800">
        <ele>1304.441005</ele>
        <time>2023-12-04T06:57:57.341Z</time>
      </trkpt>
      <trkpt lat="39.197298" lon="16.665720">
        <ele>1304.204006</ele>
        <time>2023-12-04T06:57:58.233Z</time>
      </trkpt>
      <trkpt lat="39.197325" lon="16.665459">
        <ele>1304.243070</ele>
        <time>2023-12-04T06:58:01.012Z</time>
      </trkpt>
      <trkpt lat="39.197384" lon="16.665242">
        <ele>1304.629892</ele>
        <time>2023-12-04T06:58:04.026Z</time>
      </trkpt>
      <trkpt lat="39.197689" lon="16.665001">
        <ele>1305.406149</ele>
        <time>2023-12-04T06:58:12.151Z</time>
      </trkpt>
      <trkpt lat="39.197756" lon="16.664842">
        <ele>1305.710577</ele>
        <time>2023-12-04T06:58:15.765Z</time>
      </trkpt>
      <trkpt lat="39.197809" lon="16.664459">
        <ele>1306.364996</ele>
        <time>2023-12-04T06:58:24.127Z</time>
      </trkpt>
      <trkpt lat="39.197919" lon="16.664183">
        <ele>1306.887041</ele>
        <time>2023-12-04T06:58:31.128Z</time>
      </trkpt>
      <trkpt lat="39.197979" lon="16.663136">
        <ele>1308.350706</ele>
        <time>2023-12-04T06:58:55.458Z</time>
      </trkpt>
      <trkpt lat="39.197969" lon="16.662213">
        <ele>1309.304101</ele>
        <time>2023-12-04T06:59:12.615Z</time>
      </trkpt>
      <trkpt lat="39.197875" lon="16.661650">
        <ele>1309.898927</ele>
        <time>2023-12-04T06:59:18.722Z</time>
      </trkpt>
      <trkpt lat="39.197821" lon="16.661531">
        <ele>1310.041354</ele>
        <time>2023-12-04T06:59:19.995Z</time>
      </trkpt>
      <trkpt lat="39.197671" lon="16.661199">
        <ele>1310.160240</ele>
        <time>2023-12-04T06:59:23.413Z</time>
      </trkpt>
      <trkpt lat="39.197533" lon="16.660804">
        <ele>1309.881370</ele>
        <time>2023-12-04T06:59:27.170Z</time>
      </trkpt>
      <trkpt lat="39.197546" lon="16.660540">
        <ele>1309.711112</ele>
        <time>2023-12-04T06:59:29.543Z</time>
      </trkpt>
      <trkpt lat="39.197737" lon="16.660125">
        <ele>1309.400457</ele>
        <time>2023-12-04T06:59:34.134Z</time>
      </trkpt>
      <trkpt lat="39.197992" lon="16.659896">
        <ele>1309.142438</ele>
        <time>2023-12-04T06:59:38.325Z</time>
      </trkpt>
      <trkpt lat="39.198114" lon="16.659627">
        <ele>1308.941836</ele>
        <time>2023-12-04T06:59:41.654Z</time>
      </trkpt>
      <trkpt lat="39.198112" lon="16.658764">
        <ele>1309.294426</ele>
        <time>2023-12-04T06:59:50.604Z</time>
      </trkpt>
      <trkpt lat="39.198222" lon="16.658455">
        <ele>1309.589347</ele>
        <time>2023-12-04T06:59:55.328Z</time>
      </trkpt>
      <trkpt lat="39.198271" lon="16.658140">
        <ele>1309.867997</ele>
        <time>2023-12-04T07:00:00.653Z</time>
      </trkpt>
      <trkpt lat="39.198254" lon="16.657749">
        <ele>1310.207647</ele>
        <time>2023-12-04T07:00:08.078Z</time>
      </trkpt>
      <trkpt lat="39.198211" lon="16.657464">
        <ele>1310.459470</ele>
        <time>2023-12-04T07:00:13.937Z</time>
      </trkpt>
      <trkpt lat="39.198351" lon="16.657084">
        <ele>1310.769854</ele>
        <time>2023-12-04T07:00:21.732Z</time>
      </trkpt>
      <trkpt lat="39.198390" lon="16.656764">
        <ele>1310.650093</ele>
        <time>2023-12-04T07:00:26.960Z</time>
      </trkpt>
      <trkpt lat="39.198305" lon="16.656387">
        <ele>1310.504934</ele>
        <time>2023-12-04T07:00:32.142Z</time>
      </trkpt>
      <trkpt lat="39.198052" lon="16.655740">
        <ele>1310.237005</ele>
        <time>2023-12-04T07:00:39.144Z</time>
      </trkpt>
      <trkpt lat="39.197841" lon="16.655289">
        <ele>1310.042236</ele>
        <time>2023-12-04T07:00:43.758Z</time>
      </trkpt>
      <trkpt lat="39.197707" lon="16.655058">
        <ele>1309.935556</ele>
        <time>2023-12-04T07:00:46.197Z</time>
      </trkpt>
      <trkpt lat="39.197041" lon="16.654465">
        <ele>1307.969198</ele>
        <time>2023-12-04T07:00:54.755Z</time>
      </trkpt>
      <trkpt lat="39.196595" lon="16.654355">
        <ele>1306.848237</ele>
        <time>2023-12-04T07:00:59.439Z</time>
      </trkpt>
      <trkpt lat="39.196252" lon="16.654405">
        <ele>1305.996096</ele>
        <time>2023-12-04T07:01:03.186Z</time>
      </trkpt>
      <trkpt lat="39.194541" lon="16.653611">
        <ele>1301.099606</ele>
        <time>2023-12-04T07:01:22.436Z</time>
      </trkpt>
      <trkpt lat="39.194409" lon="16.653535">
        <ele>1300.706220</ele>
        <time>2023-12-04T07:01:23.858Z</time>
      </trkpt>
      <trkpt lat="39.194315" lon="16.653418">
        <ele>1300.414990</ele>
        <time>2023-12-04T07:01:25.127Z</time>
      </trkpt>
      <trkpt lat="39.194307" lon="16.653354">
        <ele>1300.314549</ele>
        <time>2023-12-04T07:01:25.613Z</time>
      </trkpt>
      <trkpt lat="39.194296" lon="16.653269">
        <ele>1300.181029</ele>
        <time>2023-12-04T07:01:26.289Z</time>
      </trkpt>
      <trkpt lat="39.194340" lon="16.653093">
        <ele>1299.894503</ele>
        <time>2023-12-04T07:01:27.685Z</time>
      </trkpt>
      <trkpt lat="39.194424" lon="16.652949">
        <ele>1299.615257</ele>
        <time>2023-12-04T07:01:29.046Z</time>
      </trkpt>
      <trkpt lat="39.194518" lon="16.652877">
        <ele>1299.396718</ele>
        <time>2023-12-04T07:01:30.143Z</time>
      </trkpt>
      <trkpt lat="39.194767" lon="16.652805">
        <ele>1298.886578</ele>
        <time>2023-12-04T07:01:32.686Z</time>
      </trkpt>
      <trkpt lat="39.195413" lon="16.652617">
        <ele>1297.562673</ele>
        <time>2023-12-04T07:01:39.771Z</time>
      </trkpt>
      <trkpt lat="39.195654" lon="16.652489">
        <ele>1297.041653</ele>
        <time>2023-12-04T07:01:43.401Z</time>
      </trkpt>
      <trkpt lat="39.195802" lon="16.652216">
        <ele>1297.640791</ele>
        <time>2023-12-04T07:01:49.433Z</time>
      </trkpt>
      <trkpt lat="39.195806" lon="16.651813">
        <ele>1298.493566</ele>
        <time>2023-12-04T07:01:59.720Z</time>
      </trkpt>
      <trkpt lat="39.195645" lon="16.650184">
        <ele>1301.904018</ele>
        <time>2023-12-04T07:02:37.189Z</time>
      </trkpt>
      <trkpt lat="39.195551" lon="16.650037">
        <ele>1301.880088</ele>
        <time>2023-12-04T07:02:40.202Z</time>
      </trkpt>
      <trkpt lat="39.195259" lon="16.649727">
        <ele>1301.818823</ele>
        <time>2023-12-04T07:02:47.058Z</time>
      </trkpt>
      <trkpt lat="39.195241" lon="16.649470">
        <ele>1301.786422</ele>
        <time>2023-12-04T07:02:50.119Z</time>
      </trkpt>
      <trkpt lat="39.195273" lon="16.649413">
        <ele>1301.777584</ele>
        <time>2023-12-04T07:02:50.942Z</time>
      </trkpt>
      <trkpt lat="39.195405" lon="16.649310">
        <ele>1301.752591</ele>
        <time>2023-12-04T07:02:53.215Z</time>
      </trkpt>
      <trkpt lat="39.195934" lon="16.649032">
        <ele>1301.660047</ele>
        <time>2023-12-04T07:03:00.132Z</time>
      </trkpt>
      <trkpt lat="39.196112" lon="16.648875">
        <ele>1301.625114</ele>
        <time>2023-12-04T07:03:02.360Z</time>
      </trkpt>
      <trkpt lat="39.196168" lon="16.648394">
        <ele>1301.676126</ele>
        <time>2023-12-04T07:03:06.256Z</time>
      </trkpt>
      <trkpt lat="39.196109" lon="16.648174">
        <ele>1301.709706</ele>
        <time>2023-12-04T07:03:08.179Z</time>
      </trkpt>
      <trkpt lat="39.195892" lon="16.647888">
        <ele>1301.767440</ele>
        <time>2023-12-04T07:03:11.775Z</time>
      </trkpt>
      <trkpt lat="39.195873" lon="16.647778">
        <ele>1301.783696</ele>
        <time>2023-12-04T07:03:13.002Z</time>
      </trkpt>
      <trkpt lat="39.195886" lon="16.647675">
        <ele>1301.798749</ele>
        <time>2023-12-04T07:03:14.214Z</time>
      </trkpt>
      <trkpt lat="39.195914" lon="16.647575">
        <ele>1301.814086</ele>
        <time>2023-12-04T07:03:15.786Z</time>
      </trkpt>
      <trkpt lat="39.196392" lon="16.647195">
        <ele>1301.918584</ele>
        <time>2023-12-04T07:03:30.153Z</time>
      </trkpt>
      <trkpt lat="39.196590" lon="16.646663">
        <ele>1302.531388</ele>
        <time>2023-12-04T07:03:42.452Z</time>
      </trkpt>
      <trkpt lat="39.196772" lon="16.646075">
        <ele>1303.536559</ele>
        <time>2023-12-04T07:03:53.084Z</time>
      </trkpt>
      <trkpt lat="39.196938" lon="16.645385">
        <ele>1304.683526</ele>
        <time>2023-12-04T07:04:04.531Z</time>
      </trkpt>
      <trkpt lat="39.196913" lon="16.644997">
        <ele>1305.301614</ele>
        <time>2023-12-04T07:04:11.688Z</time>
      </trkpt>
      <trkpt lat="39.196958" lon="16.644716">
        <ele>1305.715872</ele>
        <time>2023-12-04T07:04:17.206Z</time>
      </trkpt>
      <trkpt lat="39.197061" lon="16.644542">
        <ele>1305.945578</ele>
        <time>2023-12-04T07:04:21.563Z</time>
      </trkpt>
      <trkpt lat="39.197380" lon="16.644328">
        <ele>1306.432293</ele>
        <time>2023-12-04T07:04:29.987Z</time>
      </trkpt>
      <trkpt lat="39.197485" lon="16.644067">
        <ele>1306.740805</ele>
        <time>2023-12-04T07:04:34.583Z</time>
      </trkpt>
      <trkpt lat="39.197553" lon="16.643740">
        <ele>1307.095999</ele>
        <time>2023-12-04T07:04:39.563Z</time>
      </trkpt>
      <trkpt lat="39.197521" lon="16.643404">
        <ele>1307.451150</ele>
        <time>2023-12-04T07:04:44.022Z</time>
      </trkpt>
      <trkpt lat="39.197757" lon="16.643013">
        <ele>1307.971084</ele>
        <time>2023-12-04T07:04:50.716Z</time>
      </trkpt>
      <trkpt lat="39.197874" lon="16.642585">
        <ele>1307.944143</ele>
        <time>2023-12-04T07:04:57.238Z</time>
      </trkpt>
      <trkpt lat="39.197858" lon="16.642121">
        <ele>1307.780957</ele>
        <time>2023-12-04T07:05:03.935Z</time>
      </trkpt>
      <trkpt lat="39.198209" lon="16.641386">
        <ele>1307.477624</ele>
        <time>2023-12-04T07:05:13.397Z</time>
      </trkpt>
      <trkpt lat="39.198397" lon="16.640853">
        <ele>1307.271873</ele>
        <time>2023-12-04T07:05:18.359Z</time>
      </trkpt>
      <trkpt lat="39.198422" lon="16.640285">
        <ele>1306.308673</ele>
        <time>2023-12-04T07:05:22.959Z</time>
      </trkpt>
      <trkpt lat="39.198341" lon="16.639002">
        <ele>1303.969088</ele>
        <time>2023-12-04T07:05:33.336Z</time>
      </trkpt>
      <trkpt lat="39.198370" lon="16.637418">
        <ele>1302.824179</ele>
        <time>2023-12-04T07:05:47.215Z</time>
      </trkpt>
      <trkpt lat="39.198413" lon="16.636963">
        <ele>1302.733308</ele>
        <time>2023-12-04T07:05:52.143Z</time>
      </trkpt>
      <trkpt lat="39.198848" lon="16.636419">
        <ele>1302.578342</ele>
        <time>2023-12-04T07:06:03.322Z</time>
      </trkpt>
      <trkpt lat="39.198967" lon="16.636194">
        <ele>1303.340568</ele>
        <time>2023-12-04T07:06:08.301Z</time>
      </trkpt>
      <trkpt lat="39.198984" lon="16.635757">
        <ele>1304.612412</ele>
        <time>2023-12-04T07:06:17.999Z</time>
      </trkpt>
      <trkpt lat="39.199065" lon="16.635024">
        <ele>1306.764604</ele>
        <time>2023-12-04T07:06:37.035Z</time>
      </trkpt>
      <trkpt lat="39.199018" lon="16.634748">
        <ele>1307.586004</ele>
        <time>2023-12-04T07:06:44.321Z</time>
      </trkpt>
      <trkpt lat="39.198876" lon="16.634460">
        <ele>1308.578218</ele>
        <time>2023-12-04T07:06:53.120Z</time>
      </trkpt>
      <trkpt lat="39.198696" lon="16.634238">
        <ele>1309.436221</ele>
        <time>2023-12-04T07:07:01.301Z</time>
      </trkpt>
      <trkpt lat="39.198414" lon="16.634138">
        <ele>1310.093071</ele>
        <time>2023-12-04T07:07:10.733Z</time>
      </trkpt>
      <trkpt lat="39.198265" lon="16.633989">
        <ele>1310.516453</ele>
        <time>2023-12-04T07:07:16.593Z</time>
      </trkpt>
      <trkpt lat="39.198155" lon="16.633620">
        <ele>1311.204600</ele>
        <time>2023-12-04T07:07:25.623Z</time>
      </trkpt>
      <trkpt lat="39.198232" lon="16.633310">
        <ele>1311.771213</ele>
        <time>2023-12-04T07:07:32.386Z</time>
      </trkpt>
      <trkpt lat="39.198236" lon="16.633017">
        <ele>1312.281277</ele>
        <time>2023-12-04T07:07:37.349Z</time>
      </trkpt>
      <trkpt lat="39.198064" lon="16.632694">
        <ele>1312.963412</ele>
        <time>2023-12-04T07:07:42.418Z</time>
      </trkpt>
      <trkpt lat="39.197788" lon="16.632291">
        <ele>1313.028582</ele>
        <time>2023-12-04T07:07:47.232Z</time>
      </trkpt>
      <trkpt lat="39.197725" lon="16.632084">
        <ele>1312.787743</ele>
        <time>2023-12-04T07:07:49.072Z</time>
      </trkpt>
      <trkpt lat="39.197757" lon="16.631590">
        <ele>1312.250900</ele>
        <time>2023-12-04T07:07:53.059Z</time>
      </trkpt>
      <trkpt lat="39.197672" lon="16.630987">
        <ele>1311.587166</ele>
        <time>2023-12-04T07:07:58.065Z</time>
      </trkpt>
      <trkpt lat="39.197638" lon="16.630486">
        <ele>1311.042531</ele>
        <time>2023-12-04T07:08:02.663Z</time>
      </trkpt>
      <trkpt lat="39.197649" lon="16.630262">
        <ele>1310.919738</ele>
        <time>2023-12-04T07:08:05.125Z</time>
      </trkpt>
      <trkpt lat="39.197542" lon="16.629427">
        <ele>1312.220366</ele>
        <time>2023-12-04T07:08:18.455Z</time>
      </trkpt>
      <trkpt lat="39.197576" lon="16.629253">
        <ele>1312.496134</ele>
        <time>2023-12-04T07:08:21.778Z</time>
      </trkpt>
      <trkpt lat="39.197822" lon="16.628889">
        <ele>1313.238345</ele>
        <time>2023-12-04T07:08:31.740Z</time>
      </trkpt>
      <trkpt lat="39.197922" lon="16.628076">
        <ele>1314.459501</ele>
        <time>2023-12-04T07:08:50.458Z</time>
      </trkpt>
      <trkpt lat="39.197865" lon="16.627851">
        <ele>1314.640820</ele>
        <time>2023-12-04T07:08:56.276Z</time>
      </trkpt>
      <trkpt lat="39.197057" lon="16.625541">
        <ele>1315.992164</ele>
        <time>2023-12-04T07:09:28.893Z</time>
      </trkpt>
      <trkpt lat="39.196874" lon="16.624711">
        <ele>1315.649255</ele>
        <time>2023-12-04T07:09:36.390Z</time>
      </trkpt>
      <trkpt lat="39.196726" lon="16.624278">
        <ele>1315.461199</ele>
        <time>2023-12-04T07:09:40.791Z</time>
      </trkpt>
      <trkpt lat="39.196633" lon="16.623819">
        <ele>1315.272673</ele>
        <time>2023-12-04T07:09:45.484Z</time>
      </trkpt>
      <trkpt lat="39.195886" lon="16.621670">
        <ele>1318.108122</ele>
        <time>2023-12-04T07:10:24.835Z</time>
      </trkpt>
      <trkpt lat="39.195626" lon="16.621316">
        <ele>1318.865886</ele>
        <time>2023-12-04T07:10:35.216Z</time>
      </trkpt>
      <trkpt lat="39.195365" lon="16.621123">
        <ele>1319.468971</ele>
        <time>2023-12-04T07:10:43.905Z</time>
      </trkpt>
      <trkpt lat="39.195210" lon="16.620940">
        <ele>1319.890164</ele>
        <time>2023-12-04T07:10:49.481Z</time>
      </trkpt>
      <trkpt lat="39.195134" lon="16.620662">
        <ele>1320.348181</ele>
        <time>2023-12-04T07:10:55.620Z</time>
      </trkpt>
      <trkpt lat="39.195233" lon="16.620180">
        <ele>1321.122924</ele>
        <time>2023-12-04T07:11:04.268Z</time>
      </trkpt>
      <trkpt lat="39.195170" lon="16.619931">
        <ele>1321.529892</ele>
        <time>2023-12-04T07:11:07.760Z</time>
      </trkpt>
      <trkpt lat="39.194981" lon="16.619453">
        <ele>1320.692654</ele>
        <time>2023-12-04T07:11:13.487Z</time>
      </trkpt>
      <trkpt lat="39.194893" lon="16.618733">
        <ele>1319.114459</ele>
        <time>2023-12-04T07:11:19.804Z</time>
      </trkpt>
      <trkpt lat="39.194938" lon="16.618431">
        <ele>1318.448599</ele>
        <time>2023-12-04T07:11:22.218Z</time>
      </trkpt>
      <trkpt lat="39.194954" lon="16.618059">
        <ele>1317.641913</ele>
        <time>2023-12-04T07:11:25.006Z</time>
      </trkpt>
      <trkpt lat="39.194905" lon="16.617857">
        <ele>1317.183624</ele>
        <time>2023-12-04T07:11:26.530Z</time>
      </trkpt>
      <trkpt lat="39.193894" lon="16.616544">
        <ele>1309.910343</ele>
        <time>2023-12-04T07:11:39.581Z</time>
      </trkpt>
      <trkpt lat="39.193691" lon="16.616386">
        <ele>1308.623651</ele>
        <time>2023-12-04T07:11:41.836Z</time>
      </trkpt>
      <trkpt lat="39.192877" lon="16.616190">
        <ele>1305.489109</ele>
        <time>2023-12-04T07:11:50.052Z</time>
      </trkpt>
      <trkpt lat="39.192342" lon="16.615861">
        <ele>1303.863392</ele>
        <time>2023-12-04T07:11:56.498Z</time>
      </trkpt>
      <trkpt lat="39.191074" lon="16.615732">
        <ele>1300.391012</ele>
        <time>2023-12-04T07:12:10.115Z</time>
      </trkpt>
      <trkpt lat="39.190759" lon="16.615603">
        <ele>1299.494078</ele>
        <time>2023-12-04T07:12:13.612Z</time>
      </trkpt>
      <trkpt lat="39.190350" lon="16.615313">
        <ele>1298.227488</ele>
        <time>2023-12-04T07:12:18.553Z</time>
      </trkpt>
      <trkpt lat="39.190159" lon="16.615102">
        <ele>1297.545068</ele>
        <time>2023-12-04T07:12:21.133Z</time>
      </trkpt>
      <trkpt lat="39.190026" lon="16.614819">
        <ele>1296.866452</ele>
        <time>2023-12-04T07:12:23.686Z</time>
      </trkpt>
      <trkpt lat="39.189913" lon="16.614455">
        <ele>1296.109224</ele>
        <time>2023-12-04T07:12:26.664Z</time>
      </trkpt>
      <trkpt lat="39.189824" lon="16.614065">
        <ele>1295.324108</ele>
        <time>2023-12-04T07:12:29.736Z</time>
      </trkpt>
      <trkpt lat="39.189896" lon="16.613835">
        <ele>1294.845083</ele>
        <time>2023-12-04T07:12:31.607Z</time>
      </trkpt>
      <trkpt lat="39.190106" lon="16.613691">
        <ele>1294.252535</ele>
        <time>2023-12-04T07:12:33.983Z</time>
      </trkpt>
      <trkpt lat="39.190755" lon="16.613433">
        <ele>1292.606169</ele>
        <time>2023-12-04T07:12:41.895Z</time>
      </trkpt>
      <trkpt lat="39.191017" lon="16.613519">
        <ele>1293.386471</ele>
        <time>2023-12-04T07:12:46.994Z</time>
      </trkpt>
      <trkpt lat="39.191247" lon="16.613544">
        <ele>1294.052674</ele>
        <time>2023-12-04T07:12:51.761Z</time>
      </trkpt>
      <trkpt lat="39.191368" lon="16.613462">
        <ele>1294.447161</ele>
        <time>2023-12-04T07:12:54.777Z</time>
      </trkpt>
      <trkpt lat="39.191428" lon="16.613314">
        <ele>1294.820795</ele>
        <time>2023-12-04T07:12:57.953Z</time>
      </trkpt>
      <trkpt lat="39.191428" lon="16.613120">
        <ele>1295.254774</ele>
        <time>2023-12-04T07:13:01.844Z</time>
      </trkpt>
      <trkpt lat="39.191331" lon="16.612872">
        <ele>1295.876194</ele>
        <time>2023-12-04T07:13:08.232Z</time>
      </trkpt>
      <trkpt lat="39.190766" lon="16.612353">
        <ele>1297.919598</ele>
        <time>2023-12-04T07:13:32.171Z</time>
      </trkpt>
      <trkpt lat="39.190282" lon="16.611628">
        <ele>1300.907958</ele>
        <time>2023-12-04T07:14:01.204Z</time>
      </trkpt>
      <trkpt lat="39.189595" lon="16.611032">
        <ele>1304.243823</ele>
        <time>2023-12-04T07:14:25.684Z</time>
      </trkpt>
      <trkpt lat="39.189250" lon="16.610797">
        <ele>1304.900532</ele>
        <time>2023-12-04T07:14:33.404Z</time>
      </trkpt>
      <trkpt lat="39.189188" lon="16.610709">
        <ele>1304.844387</ele>
        <time>2023-12-04T07:14:34.978Z</time>
      </trkpt>
      <trkpt lat="39.189167" lon="16.610475">
        <ele>1304.733177</ele>
        <time>2023-12-04T07:14:38.071Z</time>
      </trkpt>
      <trkpt lat="39.189235" lon="16.610118">
        <ele>1304.559620</ele>
        <time>2023-12-04T07:14:41.698Z</time>
      </trkpt>
      <trkpt lat="39.189377" lon="16.609818">
        <ele>1304.393666</ele>
        <time>2023-12-04T07:14:44.920Z</time>
      </trkpt>
      <trkpt lat="39.189367" lon="16.609495">
        <ele>1304.241055</ele>
        <time>2023-12-04T07:14:47.750Z</time>
      </trkpt>
      <trkpt lat="39.189322" lon="16.609158">
        <ele>1304.079612</ele>
        <time>2023-12-04T07:14:50.592Z</time>
      </trkpt>
      <trkpt lat="39.189347" lon="16.608677">
        <ele>1303.844279</ele>
        <time>2023-12-04T07:14:54.597Z</time>
      </trkpt>
      <trkpt lat="39.189621" lon="16.607246">
        <ele>1303.074724</ele>
        <time>2023-12-04T07:15:08.227Z</time>
      </trkpt>
      <trkpt lat="39.189680" lon="16.605886">
        <ele>1303.773511</ele>
        <time>2023-12-04T07:15:27.577Z</time>
      </trkpt>
      <trkpt lat="39.189629" lon="16.604623">
        <ele>1305.773132</ele>
        <time>2023-12-04T07:15:53.208Z</time>
      </trkpt>
      <trkpt lat="39.189458" lon="16.603680">
        <ele>1306.487203</ele>
        <time>2023-12-04T07:16:11.482Z</time>
      </trkpt>
      <trkpt lat="39.189269" lon="16.603099">
        <ele>1306.600128</ele>
        <time>2023-12-04T07:16:20.115Z</time>
      </trkpt>
      <trkpt lat="39.188957" lon="16.602616">
        <ele>1306.712812</ele>
        <time>2023-12-04T07:16:26.206Z</time>
      </trkpt>
      <trkpt lat="39.188749" lon="16.602181">
        <ele>1306.756893</ele>
        <time>2023-12-04T07:16:30.728Z</time>
      </trkpt>
      <trkpt lat="39.188673" lon="16.601463">
        <ele>1305.818647</ele>
        <time>2023-12-04T07:16:36.927Z</time>
      </trkpt>
      <trkpt lat="39.188650" lon="16.601109">
        <ele>1305.358704</ele>
        <time>2023-12-04T07:16:39.867Z</time>
      </trkpt>
      <trkpt lat="39.188800" lon="16.600640">
        <ele>1304.701807</ele>
        <time>2023-12-04T07:16:44.049Z</time>
      </trkpt>
      <trkpt lat="39.188820" lon="16.600242">
        <ele>1304.185422</ele>
        <time>2023-12-04T07:16:47.409Z</time>
      </trkpt>
      <trkpt lat="39.188779" lon="16.599832">
        <ele>1303.982479</ele>
        <time>2023-12-04T07:16:51.249Z</time>
      </trkpt>
      <trkpt lat="39.188714" lon="16.599563">
        <ele>1304.460296</ele>
        <time>2023-12-04T07:16:54.564Z</time>
      </trkpt>
      <trkpt lat="39.188732" lon="16.599450">
        <ele>1304.655923</ele>
        <time>2023-12-04T07:16:56.183Z</time>
      </trkpt>
      <trkpt lat="39.188816" lon="16.599274">
        <ele>1305.006426</ele>
        <time>2023-12-04T07:16:59.251Z</time>
      </trkpt>
      <trkpt lat="39.188980" lon="16.599145">
        <ele>1305.426666</ele>
        <time>2023-12-04T07:17:04.003Z</time>
      </trkpt>
      <trkpt lat="39.189079" lon="16.599000">
        <ele>1305.754349</ele>
        <time>2023-12-04T07:17:07.715Z</time>
      </trkpt>
      <trkpt lat="39.189130" lon="16.598834">
        <ele>1306.057154</ele>
        <time>2023-12-04T07:17:11.619Z</time>
      </trkpt>
      <trkpt lat="39.189075" lon="16.598556">
        <ele>1306.543692</ele>
        <time>2023-12-04T07:17:18.031Z</time>
      </trkpt>
      <trkpt lat="39.188867" lon="16.598256">
        <ele>1307.226265</ele>
        <time>2023-12-04T07:17:27.516Z</time>
      </trkpt>
      <trkpt lat="39.188579" lon="16.597911">
        <ele>1308.080358</ele>
        <time>2023-12-04T07:17:39.736Z</time>
      </trkpt>
      <trkpt lat="39.188234" lon="16.597794">
        <ele>1308.848260</ele>
        <time>2023-12-04T07:17:50.763Z</time>
      </trkpt>
      <trkpt lat="39.187526" lon="16.597779">
        <ele>1310.372563</ele>
        <time>2023-12-04T07:18:10.688Z</time>
      </trkpt>
      <trkpt lat="39.187057" lon="16.597621">
        <ele>1311.416021</ele>
        <time>2023-12-04T07:18:18.679Z</time>
      </trkpt>
      <trkpt lat="39.186309" lon="16.597252">
        <ele>1310.741554</ele>
        <time>2023-12-04T07:18:27.239Z</time>
      </trkpt>
      <trkpt lat="39.185690" lon="16.596768">
        <ele>1309.871065</ele>
        <time>2023-12-04T07:18:35.463Z</time>
      </trkpt>
      <trkpt lat="39.185556" lon="16.596705">
        <ele>1309.699542</ele>
        <time>2023-12-04T07:18:37.202Z</time>
      </trkpt>
      <trkpt lat="39.185421" lon="16.596680">
        <ele>1309.535520</ele>
        <time>2023-12-04T07:18:39.042Z</time>
      </trkpt>
      <trkpt lat="39.185278" lon="16.596717">
        <ele>1309.508219</ele>
        <time>2023-12-04T07:18:41.294Z</time>
      </trkpt>
      <trkpt lat="39.184816" lon="16.597110">
        <ele>1310.107331</ele>
        <time>2023-12-04T07:18:50.664Z</time>
      </trkpt>
      <trkpt lat="39.184634" lon="16.597178">
        <ele>1310.312466</ele>
        <time>2023-12-04T07:18:54.488Z</time>
      </trkpt>
      <trkpt lat="39.184362" lon="16.597126">
        <ele>1310.610157</ele>
        <time>2023-12-04T07:19:00.757Z</time>
      </trkpt>
      <trkpt lat="39.184182" lon="16.597025">
        <ele>1310.822664</ele>
        <time>2023-12-04T07:19:05.790Z</time>
      </trkpt>
      <trkpt lat="39.184033" lon="16.596861">
        <ele>1311.034706</ele>
        <time>2023-12-04T07:19:11.066Z</time>
      </trkpt>
      <trkpt lat="39.183971" lon="16.596711">
        <ele>1311.177360</ele>
        <time>2023-12-04T07:19:14.514Z</time>
      </trkpt>
      <trkpt lat="39.183858" lon="16.596546">
        <ele>1311.362126</ele>
        <time>2023-12-04T07:19:18.544Z</time>
      </trkpt>
      <trkpt lat="39.183611" lon="16.596439">
        <ele>1310.717153</ele>
        <time>2023-12-04T07:19:23.031Z</time>
      </trkpt>
      <trkpt lat="39.182809" lon="16.596317">
        <ele>1308.460683</ele>
        <time>2023-12-04T07:19:31.980Z</time>
      </trkpt>
      <trkpt lat="39.182616" lon="16.596248">
        <ele>1307.901079</ele>
        <time>2023-12-04T07:19:33.909Z</time>
      </trkpt>
      <trkpt lat="39.182561" lon="16.596229">
        <ele>1307.741984</ele>
        <time>2023-12-04T07:19:34.447Z</time>
      </trkpt>
      <trkpt lat="39.182196" lon="16.595905">
        <ele>1306.503997</ele>
        <time>2023-12-04T07:19:38.515Z</time>
      </trkpt>
      <trkpt lat="39.181423" lon="16.595588">
        <ele>1302.314882</ele>
        <time>2023-12-04T07:19:45.867Z</time>
      </trkpt>
      <trkpt lat="39.181278" lon="16.595371">
        <ele>1301.132096</ele>
        <time>2023-12-04T07:19:47.870Z</time>
      </trkpt>
      <trkpt lat="39.181238" lon="16.595114">
        <ele>1300.049909</ele>
        <time>2023-12-04T07:19:49.725Z</time>
      </trkpt>
      <trkpt lat="39.181469" lon="16.594084">
        <ele>1296.822185</ele>
        <time>2023-12-04T07:19:57.715Z</time>
      </trkpt>
      <trkpt lat="39.181808" lon="16.592559">
        <ele>1297.060986</ele>
        <time>2023-12-04T07:20:17.297Z</time>
      </trkpt>
      <trkpt lat="39.181825" lon="16.592275">
        <ele>1297.103862</ele>
        <time>2023-12-04T07:20:23.211Z</time>
      </trkpt>
      <trkpt lat="39.181789" lon="16.591726">
        <ele>1298.199018</ele>
        <time>2023-12-04T07:20:36.525Z</time>
      </trkpt>
      <trkpt lat="39.181813" lon="16.591515">
        <ele>1298.796084</ele>
        <time>2023-12-04T07:20:42.292Z</time>
      </trkpt>
      <trkpt lat="39.182407" lon="16.589736">
        <ele>1304.427398</ele>
        <time>2023-12-04T07:21:27.220Z</time>
      </trkpt>
      <trkpt lat="39.182772" lon="16.589309">
        <ele>1306.831447</ele>
        <time>2023-12-04T07:21:39.599Z</time>
      </trkpt>
      <trkpt lat="39.182995" lon="16.589176">
        <ele>1308.030134</ele>
        <time>2023-12-04T07:21:47.532Z</time>
      </trkpt>
      <trkpt lat="39.183229" lon="16.589129">
        <ele>1309.185602</ele>
        <time>2023-12-04T07:21:55.206Z</time>
      </trkpt>
      <trkpt lat="39.183546" lon="16.589135">
        <ele>1310.732448</ele>
        <time>2023-12-04T07:22:07.231Z</time>
      </trkpt>
      <trkpt lat="39.183653" lon="16.589028">
        <ele>1311.392984</ele>
        <time>2023-12-04T07:22:13.295Z</time>
      </trkpt>
      <trkpt lat="39.183735" lon="16.588854">
        <ele>1312.163118</ele>
        <time>2023-12-04T07:22:19.567Z</time>
      </trkpt>
      <trkpt lat="39.183733" lon="16.588662">
        <ele>1313.184422</ele>
        <time>2023-12-04T07:22:26.163Z</time>
      </trkpt>
      <trkpt lat="39.183418" lon="16.588048">
        <ele>1317.653730</ele>
        <time>2023-12-04T07:22:54.013Z</time>
      </trkpt>
      <trkpt lat="39.183257" lon="16.587785">
        <ele>1319.687940</ele>
        <time>2023-12-04T07:23:07.979Z</time>
      </trkpt>
      <trkpt lat="39.182623" lon="16.587233">
        <ele>1325.677570</ele>
        <time>2023-12-04T07:23:46.704Z</time>
      </trkpt>
      <trkpt lat="39.182502" lon="16.586885">
        <ele>1326.472887</ele>
        <time>2023-12-04T07:23:58.047Z</time>
      </trkpt>
      <trkpt lat="39.182483" lon="16.586451">
        <ele>1326.449108</ele>
        <time>2023-12-04T07:24:07.272Z</time>
      </trkpt>
      <trkpt lat="39.182207" lon="16.585929">
        <ele>1326.414543</ele>
        <time>2023-12-04T07:24:15.359Z</time>
      </trkpt>
      <trkpt lat="39.182190" lon="16.585475">
        <ele>1326.389679</ele>
        <time>2023-12-04T07:24:19.178Z</time>
      </trkpt>
      <trkpt lat="39.182218" lon="16.585035">
        <ele>1326.365529</ele>
        <time>2023-12-04T07:24:22.474Z</time>
      </trkpt>
      <trkpt lat="39.182074" lon="16.584757">
        <ele>1325.400370</ele>
        <time>2023-12-04T07:24:24.821Z</time>
      </trkpt>
      <trkpt lat="39.181485" lon="16.584037">
        <ele>1320.931354</ele>
        <time>2023-12-04T07:24:32.041Z</time>
      </trkpt>
      <trkpt lat="39.181252" lon="16.583510">
        <ele>1318.341209</ele>
        <time>2023-12-04T07:24:36.408Z</time>
      </trkpt>
      <trkpt lat="39.181229" lon="16.583358">
        <ele>1317.680033</ele>
        <time>2023-12-04T07:24:37.531Z</time>
      </trkpt>
      <trkpt lat="39.181230" lon="16.582975">
        <ele>1316.317022</ele>
        <time>2023-12-04T07:24:40.625Z</time>
      </trkpt>
      <trkpt lat="39.181118" lon="16.582675">
        <ele>1315.842818</ele>
        <time>2023-12-04T07:24:43.572Z</time>
      </trkpt>
      <trkpt lat="39.181000" lon="16.582520">
        <ele>1315.533427</ele>
        <time>2023-12-04T07:24:45.291Z</time>
      </trkpt>
      <trkpt lat="39.180101" lon="16.582120">
        <ele>1313.786302</ele>
        <time>2023-12-04T07:24:55.805Z</time>
      </trkpt>
      <trkpt lat="39.179970" lon="16.582013">
        <ele>1313.501444</ele>
        <time>2023-12-04T07:24:57.737Z</time>
      </trkpt>
      <trkpt lat="39.179854" lon="16.581811">
        <ele>1313.149927</ele>
        <time>2023-12-04T07:25:01.022Z</time>
      </trkpt>
      <trkpt lat="39.179765" lon="16.581533">
        <ele>1313.244169</ele>
        <time>2023-12-04T07:25:04.380Z</time>
      </trkpt>
      <trkpt lat="39.179691" lon="16.580392">
        <ele>1313.602931</ele>
        <time>2023-12-04T07:25:18.678Z</time>
      </trkpt>
      <trkpt lat="39.179719" lon="16.580128">
        <ele>1313.686421</ele>
        <time>2023-12-04T07:25:21.665Z</time>
      </trkpt>
      <trkpt lat="39.179845" lon="16.579789">
        <ele>1313.804220</ele>
        <time>2023-12-04T07:25:26.315Z</time>
      </trkpt>
      <trkpt lat="39.180270" lon="16.578874">
        <ele>1315.274031</ele>
        <time>2023-12-04T07:25:44.725Z</time>
      </trkpt>
      <trkpt lat="39.180304" lon="16.578578">
        <ele>1315.773146</ele>
        <time>2023-12-04T07:25:51.315Z</time>
      </trkpt>
      <trkpt lat="39.180230" lon="16.578146">
        <ele>1316.511101</ele>
        <time>2023-12-04T07:26:01.279Z</time>
      </trkpt>
      <trkpt lat="39.179769" lon="16.576809">
        <ele>1316.906025</ele>
        <time>2023-12-04T07:26:26.845Z</time>
      </trkpt>
      <trkpt lat="39.179522" lon="16.576270">
        <ele>1316.178389</ele>
        <time>2023-12-04T07:26:32.232Z</time>
      </trkpt>
      <trkpt lat="39.179339" lon="16.575469">
        <ele>1315.207960</ele>
        <time>2023-12-04T07:26:38.689Z</time>
      </trkpt>
      <trkpt lat="39.179270" lon="16.574966">
        <ele>1313.905964</ele>
        <time>2023-12-04T07:26:42.455Z</time>
      </trkpt>
      <trkpt lat="39.179277" lon="16.574527">
        <ele>1312.565340</ele>
        <time>2023-12-04T07:26:45.620Z</time>
      </trkpt>
      <trkpt lat="39.179564" lon="16.570170">
        <ele>1300.909494</ele>
        <time>2023-12-04T07:27:19.398Z</time>
      </trkpt>
      <trkpt lat="39.179569" lon="16.569803">
        <ele>1300.383379</ele>
        <time>2023-12-04T07:27:22.541Z</time>
      </trkpt>
      <trkpt lat="39.179546" lon="16.569508">
        <ele>1299.958412</ele>
        <time>2023-12-04T07:27:25.086Z</time>
      </trkpt>
      <trkpt lat="39.179483" lon="16.569269">
        <ele>1299.596581</ele>
        <time>2023-12-04T07:27:27.274Z</time>
      </trkpt>
      <trkpt lat="39.179382" lon="16.569113">
        <ele>1299.305248</ele>
        <time>2023-12-04T07:27:29.098Z</time>
      </trkpt>
      <trkpt lat="39.178463" lon="16.568145">
        <ele>1299.435009</ele>
        <time>2023-12-04T07:27:45.156Z</time>
      </trkpt>
      <trkpt lat="39.178404" lon="16.568054">
        <ele>1299.579919</ele>
        <time>2023-12-04T07:27:47.000Z</time>
      </trkpt>
      <trkpt lat="39.178268" lon="16.567769">
        <ele>1299.988719</ele>
        <time>2023-12-04T07:27:52.446Z</time>
      </trkpt>
      <trkpt lat="39.178095" lon="16.567102">
        <ele>1300.847855</ele>
        <time>2023-12-04T07:28:06.591Z</time>
      </trkpt>
      <trkpt lat="39.178067" lon="16.566992">
        <ele>1300.989279</ele>
        <time>2023-12-04T07:28:09.224Z</time>
      </trkpt>
      <trkpt lat="39.177570" lon="16.565003">
        <ele>1306.534162</ele>
        <time>2023-12-04T07:29:00.759Z</time>
      </trkpt>
      <trkpt lat="39.177531" lon="16.564594">
        <ele>1307.654302</ele>
        <time>2023-12-04T07:29:09.105Z</time>
      </trkpt>
      <trkpt lat="39.177588" lon="16.564277">
        <ele>1307.600490</ele>
        <time>2023-12-04T07:29:14.383Z</time>
      </trkpt>
      <trkpt lat="39.177730" lon="16.563787">
        <ele>1307.513986</ele>
        <time>2023-12-04T07:29:21.901Z</time>
      </trkpt>
      <trkpt lat="39.177748" lon="16.563474">
        <ele>1307.462086</ele>
        <time>2023-12-04T07:29:25.193Z</time>
      </trkpt>
      <trkpt lat="39.177723" lon="16.563098">
        <ele>1307.399682</ele>
        <time>2023-12-04T07:29:28.798Z</time>
      </trkpt>
      <trkpt lat="39.177668" lon="16.562319">
        <ele>1307.260024</ele>
        <time>2023-12-04T07:29:35.298Z</time>
      </trkpt>
      <trkpt lat="39.177565" lon="16.561807">
        <ele>1306.662798</ele>
        <time>2023-12-04T07:29:39.778Z</time>
      </trkpt>
      <trkpt lat="39.177538" lon="16.561722">
        <ele>1306.559083</ele>
        <time>2023-12-04T07:29:40.577Z</time>
      </trkpt>
      <trkpt lat="39.177340" lon="16.561285">
        <ele>1305.987585</ele>
        <time>2023-12-04T07:29:45.318Z</time>
      </trkpt>
      <trkpt lat="39.177069" lon="16.560869">
        <ele>1305.374067</ele>
        <time>2023-12-04T07:29:50.500Z</time>
      </trkpt>
      <trkpt lat="39.176785" lon="16.560455">
        <ele>1304.749890</ele>
        <time>2023-12-04T07:29:55.540Z</time>
      </trkpt>
      <trkpt lat="39.176640" lon="16.560234">
        <ele>1304.366250</ele>
        <time>2023-12-04T07:29:58.110Z</time>
      </trkpt>
      <trkpt lat="39.176552" lon="16.560039">
        <ele>1304.048481</ele>
        <time>2023-12-04T07:30:00.118Z</time>
      </trkpt>
      <trkpt lat="39.176460" lon="16.559492">
        <ele>1303.260201</ele>
        <time>2023-12-04T07:30:05.082Z</time>
      </trkpt>
      <trkpt lat="39.176332" lon="16.558740">
        <ele>1302.175906</ele>
        <time>2023-12-04T07:30:11.717Z</time>
      </trkpt>
      <trkpt lat="39.176326" lon="16.558581">
        <ele>1301.951716</ele>
        <time>2023-12-04T07:30:13.081Z</time>
      </trkpt>
      <trkpt lat="39.176363" lon="16.558129">
        <ele>1301.302918</ele>
        <time>2023-12-04T07:30:16.860Z</time>
      </trkpt>
      <trkpt lat="39.176330" lon="16.556967">
        <ele>1299.470750</ele>
        <time>2023-12-04T07:30:26.361Z</time>
      </trkpt>
      <trkpt lat="39.176177" lon="16.556314">
        <ele>1298.395859</ele>
        <time>2023-12-04T07:30:32.250Z</time>
      </trkpt>
      <trkpt lat="39.175982" lon="16.555878">
        <ele>1297.652651</ele>
        <time>2023-12-04T07:30:36.809Z</time>
      </trkpt>
      <trkpt lat="39.175939" lon="16.555658">
        <ele>1297.436682</ele>
        <time>2023-12-04T07:30:38.913Z</time>
      </trkpt>
      <trkpt lat="39.175940" lon="16.555541">
        <ele>1297.325304</ele>
        <time>2023-12-04T07:30:39.982Z</time>
      </trkpt>
      <trkpt lat="39.175982" lon="16.555393">
        <ele>1297.175282</ele>
        <time>2023-12-04T07:30:41.425Z</time>
      </trkpt>
      <trkpt lat="39.176132" lon="16.555076">
        <ele>1296.821762</ele>
        <time>2023-12-04T07:30:44.848Z</time>
      </trkpt>
      <trkpt lat="39.176238" lon="16.554762">
        <ele>1296.495760</ele>
        <time>2023-12-04T07:30:48.032Z</time>
      </trkpt>
      <trkpt lat="39.176398" lon="16.553934">
        <ele>1295.683484</ele>
        <time>2023-12-04T07:30:55.970Z</time>
      </trkpt>
      <trkpt lat="39.176446" lon="16.553517">
        <ele>1295.231458</ele>
        <time>2023-12-04T07:30:59.940Z</time>
      </trkpt>
      <trkpt lat="39.176394" lon="16.553237">
        <ele>1294.898980</ele>
        <time>2023-12-04T07:31:02.630Z</time>
      </trkpt>
      <trkpt lat="39.176275" lon="16.552807">
        <ele>1294.371744</ele>
        <time>2023-12-04T07:31:06.767Z</time>
      </trkpt>
      <trkpt lat="39.176167" lon="16.552656">
        <ele>1294.134498</ele>
        <time>2023-12-04T07:31:08.579Z</time>
      </trkpt>
      <trkpt lat="39.175868" lon="16.552383">
        <ele>1293.588828</ele>
        <time>2023-12-04T07:31:12.690Z</time>
      </trkpt>
      <trkpt lat="39.175812" lon="16.552298">
        <ele>1293.460015</ele>
        <time>2023-12-04T07:31:13.653Z</time>
      </trkpt>
      <trkpt lat="39.175791" lon="16.552232">
        <ele>1293.377631</ele>
        <time>2023-12-04T07:31:14.270Z</time>
      </trkpt>
      <trkpt lat="39.175748" lon="16.551760">
        <ele>1292.829106</ele>
        <time>2023-12-04T07:31:18.344Z</time>
      </trkpt>
      <trkpt lat="39.175455" lon="16.550133">
        <ele>1290.943553</ele>
        <time>2023-12-04T07:31:33.496Z</time>
      </trkpt>
      <trkpt lat="39.175265" lon="16.549756">
        <ele>1290.435944</ele>
        <time>2023-12-04T07:31:37.512Z</time>
      </trkpt>
      <trkpt lat="39.175243" lon="16.549670">
        <ele>1290.333713</ele>
        <time>2023-12-04T07:31:38.319Z</time>
      </trkpt>
      <trkpt lat="39.175249" lon="16.549395">
        <ele>1289.989384</ele>
        <time>2023-12-04T07:31:40.763Z</time>
      </trkpt>
      <trkpt lat="39.175390" lon="16.548683">
        <ele>1289.018830</ele>
        <time>2023-12-04T07:31:47.253Z</time>
      </trkpt>
      <trkpt lat="39.175361" lon="16.548526">
        <ele>1288.805672</ele>
        <time>2023-12-04T07:31:48.710Z</time>
      </trkpt>
      <trkpt lat="39.175169" lon="16.548254">
        <ele>1288.319821</ele>
        <time>2023-12-04T07:31:51.983Z</time>
      </trkpt>
      <trkpt lat="39.174527" lon="16.547327">
        <ele>1286.516918</ele>
        <time>2023-12-04T07:32:02.666Z</time>
      </trkpt>
      <trkpt lat="39.174462" lon="16.547276">
        <ele>1286.343728</ele>
        <time>2023-12-04T07:32:03.475Z</time>
      </trkpt>
      <trkpt lat="39.174344" lon="16.547242">
        <ele>1286.068491</ele>
        <time>2023-12-04T07:32:04.751Z</time>
      </trkpt>
      <trkpt lat="39.173934" lon="16.547234">
        <ele>1285.135054</ele>
        <time>2023-12-04T07:32:09.067Z</time>
      </trkpt>
      <trkpt lat="39.173704" lon="16.547175">
        <ele>1284.601225</ele>
        <time>2023-12-04T07:32:11.579Z</time>
      </trkpt>
      <trkpt lat="39.173487" lon="16.546981">
        <ele>1284.000200</ele>
        <time>2023-12-04T07:32:14.434Z</time>
      </trkpt>
      <trkpt lat="39.173358" lon="16.546777">
        <ele>1283.535611</ele>
        <time>2023-12-04T07:32:16.639Z</time>
      </trkpt>
      <trkpt lat="39.173123" lon="16.546405">
        <ele>1282.677879</ele>
        <time>2023-12-04T07:32:20.622Z</time>
      </trkpt>
      <trkpt lat="39.172593" lon="16.545580">
        <ele>1280.732059</ele>
        <time>2023-12-04T07:32:29.433Z</time>
      </trkpt>
      <trkpt lat="39.172404" lon="16.545287">
        <ele>1280.039845</ele>
        <time>2023-12-04T07:32:32.556Z</time>
      </trkpt>
      <trkpt lat="39.172011" lon="16.544674">
        <ele>1278.601443</ele>
        <time>2023-12-04T07:32:39.210Z</time>
      </trkpt>
      <trkpt lat="39.171885" lon="16.544459">
        <ele>1278.123916</ele>
        <time>2023-12-04T07:32:41.532Z</time>
      </trkpt>
      <trkpt lat="39.171722" lon="16.544203">
        <ele>1277.536970</ele>
        <time>2023-12-04T07:32:44.329Z</time>
      </trkpt>
      <trkpt lat="39.171598" lon="16.543973">
        <ele>1277.040607</ele>
        <time>2023-12-04T07:32:46.625Z</time>
      </trkpt>
      <trkpt lat="39.171562" lon="16.543852">
        <ele>1276.810975</ele>
        <time>2023-12-04T07:32:47.695Z</time>
      </trkpt>
      <trkpt lat="39.171535" lon="16.543670">
        <ele>1276.482658</ele>
        <time>2023-12-04T07:32:49.217Z</time>
      </trkpt>
      <trkpt lat="39.171534" lon="16.543447">
        <ele>1276.087542</ele>
        <time>2023-12-04T07:32:51.038Z</time>
      </trkpt>
      <trkpt lat="39.171557" lon="16.543353">
        <ele>1275.912896</ele>
        <time>2023-12-04T07:32:51.859Z</time>
      </trkpt>
      <trkpt lat="39.171648" lon="16.542976">
        <ele>1275.213304</ele>
        <time>2023-12-04T07:32:55.127Z</time>
      </trkpt>
      <trkpt lat="39.171674" lon="16.542724">
        <ele>1274.762877</ele>
        <time>2023-12-04T07:32:57.265Z</time>
      </trkpt>
      <trkpt lat="39.171640" lon="16.542537">
        <ele>1274.434472</ele>
        <time>2023-12-04T07:32:58.860Z</time>
      </trkpt>
      <trkpt lat="39.171422" lon="16.542025">
        <ele>1273.438463</ele>
        <time>2023-12-04T07:33:03.752Z</time>
      </trkpt>
      <trkpt lat="39.171194" lon="16.541365">
        <ele>1272.206425</ele>
        <time>2023-12-04T07:33:09.790Z</time>
      </trkpt>
      <trkpt lat="39.170907" lon="16.540338">
        <ele>1270.495800</ele>
        <time>2023-12-04T07:33:18.837Z</time>
      </trkpt>
      <trkpt lat="39.170827" lon="16.539874">
        <ele>1269.964336</ele>
        <time>2023-12-04T07:33:23.088Z</time>
      </trkpt>
      <trkpt lat="39.170789" lon="16.539764">
        <ele>1269.829689</ele>
        <time>2023-12-04T07:33:24.200Z</time>
      </trkpt>
      <trkpt lat="39.170585" lon="16.539544">
        <ele>1269.446201</ele>
        <time>2023-12-04T07:33:27.322Z</time>
      </trkpt>
      <trkpt lat="39.170225" lon="16.539283">
        <ele>1268.850621</ele>
        <time>2023-12-04T07:33:32.172Z</time>
      </trkpt>
      <trkpt lat="39.169594" lon="16.538833">
        <ele>1268.268128</ele>
        <time>2023-12-04T07:33:40.770Z</time>
      </trkpt>
      <trkpt lat="39.169201" lon="16.538540">
        <ele>1268.404954</ele>
        <time>2023-12-04T07:33:46.900Z</time>
      </trkpt>
      <trkpt lat="39.169055" lon="16.538393">
        <ele>1268.460782</ele>
        <time>2023-12-04T07:33:49.880Z</time>
      </trkpt>
      <trkpt lat="39.168861" lon="16.538100">
        <ele>1268.550827</ele>
        <time>2023-12-04T07:33:54.871Z</time>
      </trkpt>
      <trkpt lat="39.168714" lon="16.537808">
        <ele>1268.632189</ele>
        <time>2023-12-04T07:33:59.790Z</time>
      </trkpt>
      <trkpt lat="39.168553" lon="16.537472">
        <ele>1268.724497</ele>
        <time>2023-12-04T07:34:06.052Z</time>
      </trkpt>
      <trkpt lat="39.168439" lon="16.537488">
        <ele>1269.064850</ele>
        <time>2023-12-04T07:34:08.431Z</time>
      </trkpt>
      <trkpt lat="39.168330" lon="16.537591">
        <ele>1269.552937</ele>
        <time>2023-12-04T07:34:11.525Z</time>
      </trkpt>
      <trkpt lat="39.168288" lon="16.537700">
        <ele>1269.893817</ele>
        <time>2023-12-04T07:34:13.674Z</time>
      </trkpt>
      <trkpt lat="39.167800" lon="16.538120">
        <ele>1272.012974</ele>
        <time>2023-12-04T07:34:29.482Z</time>
      </trkpt>
      <trkpt lat="39.167524" lon="16.538296">
        <ele>1273.125133</ele>
        <time>2023-12-04T07:34:39.293Z</time>
      </trkpt>
      <trkpt lat="39.167206" lon="16.538396">
        <ele>1274.307463</ele>
        <time>2023-12-04T07:34:50.425Z</time>
      </trkpt>
      <trkpt lat="39.166695" lon="16.538444">
        <ele>1276.854303</ele>
        <time>2023-12-04T07:35:08.707Z</time>
      </trkpt>
      <trkpt lat="39.165757" lon="16.538462">
        <ele>1282.779642</ele>
        <time>2023-12-04T07:35:45.840Z</time>
      </trkpt>
      <trkpt lat="39.165409" lon="16.538407">
        <ele>1284.994154</ele>
        <time>2023-12-04T07:36:00.685Z</time>
      </trkpt>
      <trkpt lat="39.165000" lon="16.538323">
        <ele>1287.933753</ele>
        <time>2023-12-04T07:36:18.898Z</time>
      </trkpt>
      <trkpt lat="39.164885" lon="16.538298">
        <ele>1288.903902</ele>
        <time>2023-12-04T07:36:24.196Z</time>
      </trkpt>
      <trkpt lat="39.164651" lon="16.538262">
        <ele>1290.864288</ele>
        <time>2023-12-04T07:36:34.985Z</time>
      </trkpt>
      <trkpt lat="39.164448" lon="16.538275">
        <ele>1292.555074</ele>
        <time>2023-12-04T07:36:44.634Z</time>
      </trkpt>
      <trkpt lat="39.162942" lon="16.538808">
        <ele>1305.518661</ele>
        <time>2023-12-04T07:38:03.264Z</time>
      </trkpt>
      <trkpt lat="39.162247" lon="16.538898">
        <ele>1311.289167</ele>
        <time>2023-12-04T07:38:37.763Z</time>
      </trkpt>
      <trkpt lat="39.161977" lon="16.538974">
        <ele>1313.572237</ele>
        <time>2023-12-04T07:38:50.393Z</time>
      </trkpt>
      <trkpt lat="39.161884" lon="16.538943">
        <ele>1314.365789</ele>
        <time>2023-12-04T07:38:54.687Z</time>
      </trkpt>
      <trkpt lat="39.161816" lon="16.538849">
        <ele>1315.189281</ele>
        <time>2023-12-04T07:38:58.865Z</time>
      </trkpt>
      <trkpt lat="39.161804" lon="16.538758">
        <ele>1315.780557</ele>
        <time>2023-12-04T07:39:01.982Z</time>
      </trkpt>
      <trkpt lat="39.161820" lon="16.538629">
        <ele>1316.576703</ele>
        <time>2023-12-04T07:39:06.769Z</time>
      </trkpt>
      <trkpt lat="39.161884" lon="16.538523">
        <ele>1317.267871</ele>
        <time>2023-12-04T07:39:11.344Z</time>
      </trkpt>
      <trkpt lat="39.162083" lon="16.538424">
        <ele>1318.683086</ele>
        <time>2023-12-04T07:39:20.415Z</time>
      </trkpt>
      <trkpt lat="39.162632" lon="16.538277">
        <ele>1322.403445</ele>
        <time>2023-12-04T07:39:44.260Z</time>
      </trkpt>
      <trkpt lat="39.162795" lon="16.538147">
        <ele>1323.675052</ele>
        <time>2023-12-04T07:39:52.410Z</time>
      </trkpt>
      <trkpt lat="39.162833" lon="16.538003">
        <ele>1324.457602</ele>
        <time>2023-12-04T07:39:57.382Z</time>
      </trkpt>
      <trkpt lat="39.162824" lon="16.537909">
        <ele>1324.944865</ele>
        <time>2023-12-04T07:40:00.236Z</time>
      </trkpt>
      <trkpt lat="39.162748" lon="16.537763">
        <ele>1325.849548</ele>
        <time>2023-12-04T07:40:06.061Z</time>
      </trkpt>
      <trkpt lat="39.162653" lon="16.537691">
        <ele>1326.580662</ele>
        <time>2023-12-04T07:40:10.776Z</time>
      </trkpt>
      <trkpt lat="39.161313" lon="16.537080">
        <ele>1333.941623</ele>
        <time>2023-12-04T07:41:01.684Z</time>
      </trkpt>
      <trkpt lat="39.160900" lon="16.537017">
        <ele>1335.956147</ele>
        <time>2023-12-04T07:41:15.354Z</time>
      </trkpt>
      <trkpt lat="39.159859" lon="16.537166">
        <ele>1340.080820</ele>
        <time>2023-12-04T07:41:44.587Z</time>
      </trkpt>
      <trkpt lat="39.159731" lon="16.537140">
        <ele>1340.558551</ele>
        <time>2023-12-04T07:41:47.714Z</time>
      </trkpt>
      <trkpt lat="39.159468" lon="16.537000">
        <ele>1341.607534</ele>
        <time>2023-12-04T07:41:55.161Z</time>
      </trkpt>
      <trkpt lat="39.158927" lon="16.536782">
        <ele>1343.710035</ele>
        <time>2023-12-04T07:42:12.323Z</time>
      </trkpt>
      <trkpt lat="39.158222" lon="16.536651">
        <ele>1350.391659</ele>
        <time>2023-12-04T07:42:39.323Z</time>
      </trkpt>
      <trkpt lat="39.154393" lon="16.536071">
        <ele>1386.577167</ele>
        <time>2023-12-04T07:46:18.185Z</time>
      </trkpt>
      <trkpt lat="39.154166" lon="16.536104">
        <ele>1388.724802</ele>
        <time>2023-12-04T07:46:31.504Z</time>
      </trkpt>
      <trkpt lat="39.152363" lon="16.536697">
        <ele>1401.064078</ele>
        <time>2023-12-04T07:47:53.256Z</time>
      </trkpt>
      <trkpt lat="39.151162" lon="16.537064">
        <ele>1403.382860</ele>
        <time>2023-12-04T07:48:16.441Z</time>
      </trkpt>
      <trkpt lat="39.150948" lon="16.537056">
        <ele>1403.220200</ele>
        <time>2023-12-04T07:48:19.070Z</time>
      </trkpt>
      <trkpt lat="39.150755" lon="16.536978">
        <ele>1403.066530</ele>
        <time>2023-12-04T07:48:21.247Z</time>
      </trkpt>
      <trkpt lat="39.150631" lon="16.536897">
        <ele>1402.960920</ele>
        <time>2023-12-04T07:48:22.720Z</time>
      </trkpt>
      <trkpt lat="39.149754" lon="16.536230">
        <ele>1401.055146</ele>
        <time>2023-12-04T07:48:33.542Z</time>
      </trkpt>
      <trkpt lat="39.149487" lon="16.536123">
        <ele>1400.174283</ele>
        <time>2023-12-04T07:48:36.503Z</time>
      </trkpt>
      <trkpt lat="39.147389" lon="16.535863">
        <ele>1393.340597</ele>
        <time>2023-12-04T07:48:57.415Z</time>
      </trkpt>
      <trkpt lat="39.146067" lon="16.535702">
        <ele>1390.131993</ele>
        <time>2023-12-04T07:49:11.038Z</time>
      </trkpt>
      <trkpt lat="39.145282" lon="16.535623">
        <ele>1389.127815</ele>
        <time>2023-12-04T07:49:20.346Z</time>
      </trkpt>
      <trkpt lat="39.144177" lon="16.535467">
        <ele>1390.066166</ele>
        <time>2023-12-04T07:49:40.686Z</time>
      </trkpt>
      <trkpt lat="39.143891" lon="16.535453">
        <ele>1390.675884</ele>
        <time>2023-12-04T07:49:47.575Z</time>
      </trkpt>
      <trkpt lat="39.143614" lon="16.535496">
        <ele>1391.270252</ele>
        <time>2023-12-04T07:49:54.734Z</time>
      </trkpt>
      <trkpt lat="39.142362" lon="16.536122">
        <ele>1396.068325</ele>
        <time>2023-12-04T07:50:33.570Z</time>
      </trkpt>
      <trkpt lat="39.141050" lon="16.536761">
        <ele>1402.549541</ele>
        <time>2023-12-04T07:51:24.973Z</time>
      </trkpt>
      <trkpt lat="39.140993" lon="16.536786">
        <ele>1402.838570</ele>
        <time>2023-12-04T07:51:27.272Z</time>
      </trkpt>
      <trkpt lat="39.140716" lon="16.536928">
        <ele>1404.269569</ele>
        <time>2023-12-04T07:51:37.854Z</time>
      </trkpt>
      <trkpt lat="39.140463" lon="16.537095">
        <ele>1405.634017</ele>
        <time>2023-12-04T07:51:47.767Z</time>
      </trkpt>
      <trkpt lat="39.140124" lon="16.537508">
        <ele>1407.872982</ele>
        <time>2023-12-04T07:52:03.328Z</time>
      </trkpt>
      <trkpt lat="39.139203" lon="16.538727">
        <ele>1413.115139</ele>
        <time>2023-12-04T07:52:42.124Z</time>
      </trkpt>
      <trkpt lat="39.139032" lon="16.538895">
        <ele>1413.919984</ele>
        <time>2023-12-04T07:52:47.409Z</time>
      </trkpt>
      <trkpt lat="39.138820" lon="16.539017">
        <ele>1414.789111</ele>
        <time>2023-12-04T07:52:52.891Z</time>
      </trkpt>
      <trkpt lat="39.135722" lon="16.539070">
        <ele>1430.590411</ele>
        <time>2023-12-04T07:54:40.029Z</time>
      </trkpt>
      <trkpt lat="39.135562" lon="16.539013">
        <ele>1431.605730</ele>
        <time>2023-12-04T07:54:48.273Z</time>
      </trkpt>
      <trkpt lat="39.135117" lon="16.538637">
        <ele>1434.860055</ele>
        <time>2023-12-04T07:55:13.468Z</time>
      </trkpt>
      <trkpt lat="39.134954" lon="16.538529">
        <ele>1435.657337</ele>
        <time>2023-12-04T07:55:21.463Z</time>
      </trkpt>
      <trkpt lat="39.134777" lon="16.538469">
        <ele>1435.879692</ele>
        <time>2023-12-04T07:55:29.126Z</time>
      </trkpt>
      <trkpt lat="39.134549" lon="16.538442">
        <ele>1436.157866</ele>
        <time>2023-12-04T07:55:37.576Z</time>
      </trkpt>
      <trkpt lat="39.134418" lon="16.538465">
        <ele>1436.318493</ele>
        <time>2023-12-04T07:55:41.910Z</time>
      </trkpt>
      <trkpt lat="39.134379" lon="16.538488">
        <ele>1436.370599</ele>
        <time>2023-12-04T07:55:43.125Z</time>
      </trkpt>
      <trkpt lat="39.134359" lon="16.538539">
        <ele>1436.424454</ele>
        <time>2023-12-04T07:55:44.390Z</time>
      </trkpt>
      <trkpt lat="39.134340" lon="16.538721">
        <ele>1436.597516</ele>
        <time>2023-12-04T07:55:48.351Z</time>
      </trkpt>
      <trkpt lat="39.134434" lon="16.539291">
        <ele>1437.146688</ele>
        <time>2023-12-04T07:55:56.433Z</time>
      </trkpt>
      <trkpt lat="39.134434" lon="16.539804">
        <ele>1437.630137</ele>
        <time>2023-12-04T07:56:00.517Z</time>
      </trkpt>
      <trkpt lat="39.134380" lon="16.540192">
        <ele>1436.410749</ele>
        <time>2023-12-04T07:56:03.308Z</time>
      </trkpt>
      <trkpt lat="39.134270" lon="16.540395">
        <ele>1435.092435</ele>
        <time>2023-12-04T07:56:05.002Z</time>
      </trkpt>
      <trkpt lat="39.133733" lon="16.540777">
        <ele>1430.882925</ele>
        <time>2023-12-04T07:56:10.326Z</time>
      </trkpt>
      <trkpt lat="39.133614" lon="16.540830">
        <ele>1430.018811</ele>
        <time>2023-12-04T07:56:11.430Z</time>
      </trkpt>
      <trkpt lat="39.133485" lon="16.540837">
        <ele>1429.132644</ele>
        <time>2023-12-04T07:56:12.569Z</time>
      </trkpt>
      <trkpt lat="39.133379" lon="16.540746">
        <ele>1428.258573</ele>
        <time>2023-12-04T07:56:13.701Z</time>
      </trkpt>
      <trkpt lat="39.133254" lon="16.540695">
        <ele>1427.358705</ele>
        <time>2023-12-04T07:56:14.891Z</time>
      </trkpt>
      <trkpt lat="39.133122" lon="16.540707">
        <ele>1426.450482</ele>
        <time>2023-12-04T07:56:16.102Z</time>
      </trkpt>
      <trkpt lat="39.132722" lon="16.540940">
        <ele>1424.558186</ele>
        <time>2023-12-04T07:56:20.260Z</time>
      </trkpt>
      <trkpt lat="39.132622" lon="16.540954">
        <ele>1424.258508</ele>
        <time>2023-12-04T07:56:21.261Z</time>
      </trkpt>
      <trkpt lat="39.132532" lon="16.540905">
        <ele>1423.967443</ele>
        <time>2023-12-04T07:56:22.230Z</time>
      </trkpt>
      <trkpt lat="39.132447" lon="16.540781">
        <ele>1423.585021</ele>
        <time>2023-12-04T07:56:23.521Z</time>
      </trkpt>
      <trkpt lat="39.132070" lon="16.540036">
        <ele>1421.529359</ele>
        <time>2023-12-04T07:56:30.918Z</time>
      </trkpt>
      <trkpt lat="39.131917" lon="16.539975">
        <ele>1421.052230</ele>
        <time>2023-12-04T07:56:32.856Z</time>
      </trkpt>
      <trkpt lat="39.131822" lon="16.540016">
        <ele>1420.753761</ele>
        <time>2023-12-04T07:56:34.057Z</time>
      </trkpt>
      <trkpt lat="39.131737" lon="16.540157">
        <ele>1420.341076</ele>
        <time>2023-12-04T07:56:35.692Z</time>
      </trkpt>
      <trkpt lat="39.131494" lon="16.540740">
        <ele>1418.360124</ele>
        <time>2023-12-04T07:56:41.654Z</time>
      </trkpt>
      <trkpt lat="39.131342" lon="16.540999">
        <ele>1417.337907</ele>
        <time>2023-12-04T07:56:44.238Z</time>
      </trkpt>
      <trkpt lat="39.130906" lon="16.541261">
        <ele>1415.386044</ele>
        <time>2023-12-04T07:56:48.767Z</time>
      </trkpt>
      <trkpt lat="39.130752" lon="16.541400">
        <ele>1414.623241</ele>
        <time>2023-12-04T07:56:50.466Z</time>
      </trkpt>
      <trkpt lat="39.130520" lon="16.541723">
        <ele>1413.237701</ele>
        <time>2023-12-04T07:56:53.556Z</time>
      </trkpt>
      <trkpt lat="39.130435" lon="16.541805">
        <ele>1412.806927</ele>
        <time>2023-12-04T07:56:54.530Z</time>
      </trkpt>
      <trkpt lat="39.130184" lon="16.541962">
        <ele>1412.265505</ele>
        <time>2023-12-04T07:56:57.140Z</time>
      </trkpt>
      <trkpt lat="39.129460" lon="16.542237">
        <ele>1410.868734</ele>
        <time>2023-12-04T07:57:05.267Z</time>
      </trkpt>
      <trkpt lat="39.129354" lon="16.542200">
        <ele>1410.665508</ele>
        <time>2023-12-04T07:57:06.771Z</time>
      </trkpt>
      <trkpt lat="39.128972" lon="16.541729">
        <ele>1409.687291</ele>
        <time>2023-12-04T07:57:14.963Z</time>
      </trkpt>
      <trkpt lat="39.128544" lon="16.541123">
        <ele>1409.385129</ele>
        <time>2023-12-04T07:57:27.010Z</time>
      </trkpt>
      <trkpt lat="39.128397" lon="16.541041">
        <ele>1409.369994</ele>
        <time>2023-12-04T07:57:30.162Z</time>
      </trkpt>
      <trkpt lat="39.128323" lon="16.541064">
        <ele>1409.362801</ele>
        <time>2023-12-04T07:57:31.805Z</time>
      </trkpt>
      <trkpt lat="39.128140" lon="16.541233">
        <ele>1409.341530</ele>
        <time>2023-12-04T07:57:36.616Z</time>
      </trkpt>
      <trkpt lat="39.127992" lon="16.541435">
        <ele>1409.321163</ele>
        <time>2023-12-04T07:57:40.864Z</time>
      </trkpt>
      <trkpt lat="39.127613" lon="16.541650">
        <ele>1409.282036</ele>
        <time>2023-12-04T07:57:46.681Z</time>
      </trkpt>
      <trkpt lat="39.127208" lon="16.542090">
        <ele>1407.422749</ele>
        <time>2023-12-04T07:57:52.048Z</time>
      </trkpt>
      <trkpt lat="39.126865" lon="16.542264">
        <ele>1405.303346</ele>
        <time>2023-12-04T07:57:55.453Z</time>
      </trkpt>
      <trkpt lat="39.126550" lon="16.542653">
        <ele>1402.795157</ele>
        <time>2023-12-04T07:57:59.380Z</time>
      </trkpt>
      <trkpt lat="39.126330" lon="16.542985">
        <ele>1400.847570</ele>
        <time>2023-12-04T07:58:02.431Z</time>
      </trkpt>
      <trkpt lat="39.126203" lon="16.543380">
        <ele>1398.940358</ele>
        <time>2023-12-04T07:58:05.409Z</time>
      </trkpt>
      <trkpt lat="39.126112" lon="16.543491">
        <ele>1398.013240</ele>
        <time>2023-12-04T07:58:06.525Z</time>
      </trkpt>
      <trkpt lat="39.125349" lon="16.543769">
        <ele>1392.108297</ele>
        <time>2023-12-04T07:58:13.526Z</time>
      </trkpt>
      <trkpt lat="39.125245" lon="16.543765">
        <ele>1391.333429</ele>
        <time>2023-12-04T07:58:14.446Z</time>
      </trkpt>
      <trkpt lat="39.125154" lon="16.543692">
        <ele>1390.535205</ele>
        <time>2023-12-04T07:58:15.380Z</time>
      </trkpt>
      <trkpt lat="39.125086" lon="16.543541">
        <ele>1389.526480</ele>
        <time>2023-12-04T07:58:16.569Z</time>
      </trkpt>
      <trkpt lat="39.125020" lon="16.543198">
        <ele>1387.484774</ele>
        <time>2023-12-04T07:58:19.008Z</time>
      </trkpt>
      <trkpt lat="39.124977" lon="16.543072">
        <ele>1386.689494</ele>
        <time>2023-12-04T07:58:19.961Z</time>
      </trkpt>
      <trkpt lat="39.124143" lon="16.542306">
        <ele>1380.898030</ele>
        <time>2023-12-04T07:58:29.431Z</time>
      </trkpt>
      <trkpt lat="39.124060" lon="16.542204">
        <ele>1380.286510</ele>
        <time>2023-12-04T07:58:30.517Z</time>
      </trkpt>
      <trkpt lat="39.124039" lon="16.542079">
        <ele>1379.757406</ele>
        <time>2023-12-04T07:58:31.441Z</time>
      </trkpt>
      <trkpt lat="39.124083" lon="16.541802">
        <ele>1378.587700</ele>
        <time>2023-12-04T07:58:33.502Z</time>
      </trkpt>
      <trkpt lat="39.124093" lon="16.541480">
        <ele>1377.254540</ele>
        <time>2023-12-04T07:58:35.850Z</time>
      </trkpt>
      <trkpt lat="39.124050" lon="16.541306">
        <ele>1376.499073</ele>
        <time>2023-12-04T07:58:37.223Z</time>
      </trkpt>
      <trkpt lat="39.123878" lon="16.540982">
        <ele>1375.034401</ele>
        <time>2023-12-04T07:58:40.174Z</time>
      </trkpt>
      <trkpt lat="39.123755" lon="16.540897">
        <ele>1374.402265</ele>
        <time>2023-12-04T07:58:41.559Z</time>
      </trkpt>
      <trkpt lat="39.123579" lon="16.540861">
        <ele>1373.595106</ele>
        <time>2023-12-04T07:58:43.323Z</time>
      </trkpt>
      <trkpt lat="39.123257" lon="16.540940">
        <ele>1372.110438</ele>
        <time>2023-12-04T07:58:46.651Z</time>
      </trkpt>
      <trkpt lat="39.123143" lon="16.540887">
        <ele>1371.561521</ele>
        <time>2023-12-04T07:58:47.898Z</time>
      </trkpt>
      <trkpt lat="39.123040" lon="16.540724">
        <ele>1370.822794</ele>
        <time>2023-12-04T07:58:49.488Z</time>
      </trkpt>
      <trkpt lat="39.122974" lon="16.540381">
        <ele>1369.580999</ele>
        <time>2023-12-04T07:58:52.126Z</time>
      </trkpt>
      <trkpt lat="39.123059" lon="16.539119">
        <ele>1364.010957</ele>
        <time>2023-12-04T07:59:01.074Z</time>
      </trkpt>
      <trkpt lat="39.123049" lon="16.538962">
        <ele>1363.224348</ele>
        <time>2023-12-04T07:59:02.165Z</time>
      </trkpt>
      <trkpt lat="39.123007" lon="16.538860">
        <ele>1362.647719</ele>
        <time>2023-12-04T07:59:02.967Z</time>
      </trkpt>
      <trkpt lat="39.122900" lon="16.538738">
        <ele>1361.728234</ele>
        <time>2023-12-04T07:59:04.244Z</time>
      </trkpt>
      <trkpt lat="39.122457" lon="16.538570">
        <ele>1358.755987</ele>
        <time>2023-12-04T07:59:08.370Z</time>
      </trkpt>
      <trkpt lat="39.121568" lon="16.538298">
        <ele>1354.723066</ele>
        <time>2023-12-04T07:59:16.797Z</time>
      </trkpt>
      <trkpt lat="39.121070" lon="16.538107">
        <ele>1353.232142</ele>
        <time>2023-12-04T07:59:22.022Z</time>
      </trkpt>
      <trkpt lat="39.120429" lon="16.537911">
        <ele>1351.341751</ele>
        <time>2023-12-04T07:59:30.134Z</time>
      </trkpt>
      <trkpt lat="39.120174" lon="16.537861">
        <ele>1351.232150</ele>
        <time>2023-12-04T07:59:34.326Z</time>
      </trkpt>
      <trkpt lat="39.120002" lon="16.537845">
        <ele>1351.435313</ele>
        <time>2023-12-04T07:59:37.587Z</time>
      </trkpt>
      <trkpt lat="39.119177" lon="16.537985">
        <ele>1352.415649</ele>
        <time>2023-12-04T07:59:55.499Z</time>
      </trkpt>
      <trkpt lat="39.118860" lon="16.538065">
        <ele>1352.796204</ele>
        <time>2023-12-04T08:00:02.531Z</time>
      </trkpt>
      <trkpt lat="39.118424" lon="16.538271">
        <ele>1353.195058</ele>
        <time>2023-12-04T08:00:12.264Z</time>
      </trkpt>
      <trkpt lat="39.117519" lon="16.538947">
        <ele>1353.387428</ele>
        <time>2023-12-04T08:00:31.380Z</time>
      </trkpt>
      <trkpt lat="39.117320" lon="16.539387">
        <ele>1353.460099</ele>
        <time>2023-12-04T08:00:36.561Z</time>
      </trkpt>
      <trkpt lat="39.117240" lon="16.539462">
        <ele>1353.478293</ele>
        <time>2023-12-04T08:00:37.737Z</time>
      </trkpt>
      <trkpt lat="39.117099" lon="16.539547">
        <ele>1353.320909</ele>
        <time>2023-12-04T08:00:39.488Z</time>
      </trkpt>
      <trkpt lat="39.116946" lon="16.539571">
        <ele>1352.728277</ele>
        <time>2023-12-04T08:00:41.181Z</time>
      </trkpt>
      <trkpt lat="39.116841" lon="16.539536">
        <ele>1352.311265</ele>
        <time>2023-12-04T08:00:42.331Z</time>
      </trkpt>
      <trkpt lat="39.116653" lon="16.539392">
        <ele>1351.470384</ele>
        <time>2023-12-04T08:00:44.579Z</time>
      </trkpt>
      <trkpt lat="39.116528" lon="16.539381">
        <ele>1350.988635</ele>
        <time>2023-12-04T08:00:45.835Z</time>
      </trkpt>
      <trkpt lat="39.116240" lon="16.539421">
        <ele>1349.874853</ele>
        <time>2023-12-04T08:00:48.689Z</time>
      </trkpt>
      <trkpt lat="39.116027" lon="16.539356">
        <ele>1349.033216</ele>
        <time>2023-12-04T08:00:50.801Z</time>
      </trkpt>
      <trkpt lat="39.115111" lon="16.538976">
        <ele>1344.631378</ele>
        <time>2023-12-04T08:00:59.766Z</time>
      </trkpt>
      <trkpt lat="39.114821" lon="16.538831">
        <ele>1342.763474</ele>
        <time>2023-12-04T08:01:02.592Z</time>
      </trkpt>
      <trkpt lat="39.114620" lon="16.538699">
        <ele>1341.408813</ele>
        <time>2023-12-04T08:01:04.645Z</time>
      </trkpt>
      <trkpt lat="39.114247" lon="16.538215">
        <ele>1338.230402</ele>
        <time>2023-12-04T08:01:09.484Z</time>
      </trkpt>
      <trkpt lat="39.114074" lon="16.538089">
        <ele>1337.037135</ele>
        <time>2023-12-04T08:01:11.303Z</time>
      </trkpt>
      <trkpt lat="39.113851" lon="16.538050">
        <ele>1335.674994</ele>
        <time>2023-12-04T08:01:13.367Z</time>
      </trkpt>
      <trkpt lat="39.113709" lon="16.538061">
        <ele>1334.725026</ele>
        <time>2023-12-04T08:01:14.681Z</time>
      </trkpt>
      <trkpt lat="39.113473" lon="16.538151">
        <ele>1333.081508</ele>
        <time>2023-12-04T08:01:16.946Z</time>
      </trkpt>
      <trkpt lat="39.112882" lon="16.538231">
        <ele>1329.113183</ele>
        <time>2023-12-04T08:01:22.375Z</time>
      </trkpt>
      <trkpt lat="39.112204" lon="16.538281">
        <ele>1324.578186</ele>
        <time>2023-12-04T08:01:28.491Z</time>
      </trkpt>
      <trkpt lat="39.112026" lon="16.538265">
        <ele>1323.259785</ele>
        <time>2023-12-04T08:01:30.075Z</time>
      </trkpt>
      <trkpt lat="39.111893" lon="16.538224">
        <ele>1322.044880</ele>
        <time>2023-12-04T08:01:31.284Z</time>
      </trkpt>
      <trkpt lat="39.110955" lon="16.537634">
        <ele>1312.772160</ele>
        <time>2023-12-04T08:01:40.355Z</time>
      </trkpt>
      <trkpt lat="39.110657" lon="16.537536">
        <ele>1310.039890</ele>
        <time>2023-12-04T08:01:43.012Z</time>
      </trkpt>
      <trkpt lat="39.110309" lon="16.537475">
        <ele>1307.046119</ele>
        <time>2023-12-04T08:01:46.056Z</time>
      </trkpt>
      <trkpt lat="39.110168" lon="16.537500">
        <ele>1305.964940</ele>
        <time>2023-12-04T08:01:47.285Z</time>
      </trkpt>
      <trkpt lat="39.109494" lon="16.537786">
        <ele>1300.574589</ele>
        <time>2023-12-04T08:01:53.528Z</time>
      </trkpt>
      <trkpt lat="39.109352" lon="16.537884">
        <ele>1299.350971</ele>
        <time>2023-12-04T08:01:54.970Z</time>
      </trkpt>
      <trkpt lat="39.109227" lon="16.538029">
        <ele>1298.073424</ele>
        <time>2023-12-04T08:01:56.488Z</time>
      </trkpt>
      <trkpt lat="39.109149" lon="16.538206">
        <ele>1296.873606</ele>
        <time>2023-12-04T08:01:57.918Z</time>
      </trkpt>
      <trkpt lat="39.109009" lon="16.538675">
        <ele>1293.967284</ele>
        <time>2023-12-04T08:02:01.500Z</time>
      </trkpt>
      <trkpt lat="39.108915" lon="16.538829">
        <ele>1293.109093</ele>
        <time>2023-12-04T08:02:02.905Z</time>
      </trkpt>
      <trkpt lat="39.108829" lon="16.538927">
        <ele>1292.461103</ele>
        <time>2023-12-04T08:02:03.968Z</time>
      </trkpt>
      <trkpt lat="39.108707" lon="16.539012">
        <ele>1291.678267</ele>
        <time>2023-12-04T08:02:05.242Z</time>
      </trkpt>
      <trkpt lat="39.108236" lon="16.539193">
        <ele>1288.903972</ele>
        <time>2023-12-04T08:02:09.814Z</time>
      </trkpt>
      <trkpt lat="39.108019" lon="16.539307">
        <ele>1287.581227</ele>
        <time>2023-12-04T08:02:12.004Z</time>
      </trkpt>
      <trkpt lat="39.107863" lon="16.539494">
        <ele>1286.378629</ele>
        <time>2023-12-04T08:02:13.991Z</time>
      </trkpt>
      <trkpt lat="39.107770" lon="16.539780">
        <ele>1285.020404</ele>
        <time>2023-12-04T08:02:16.224Z</time>
      </trkpt>
      <trkpt lat="39.107695" lon="16.539928">
        <ele>1284.246170</ele>
        <time>2023-12-04T08:02:17.484Z</time>
      </trkpt>
      <trkpt lat="39.107609" lon="16.540015">
        <ele>1283.652012</ele>
        <time>2023-12-04T08:02:18.496Z</time>
      </trkpt>
      <trkpt lat="39.107449" lon="16.540075">
        <ele>1282.773780</ele>
        <time>2023-12-04T08:02:20.009Z</time>
      </trkpt>
      <trkpt lat="39.105553" lon="16.540341">
        <ele>1273.918362</ele>
        <time>2023-12-04T08:02:37.784Z</time>
      </trkpt>
      <trkpt lat="39.104922" lon="16.540428">
        <ele>1272.829119</ele>
        <time>2023-12-04T08:02:45.472Z</time>
      </trkpt>
      <trkpt lat="39.104810" lon="16.540399">
        <ele>1272.633038</ele>
        <time>2023-12-04T08:02:46.926Z</time>
      </trkpt>
      <trkpt lat="39.104732" lon="16.540312">
        <ele>1272.455974</ele>
        <time>2023-12-04T08:02:48.339Z</time>
      </trkpt>
      <trkpt lat="39.104655" lon="16.540109">
        <ele>1272.155018</ele>
        <time>2023-12-04T08:02:50.733Z</time>
      </trkpt>
      <trkpt lat="39.104681" lon="16.539403">
        <ele>1271.273036</ele>
        <time>2023-12-04T08:02:58.605Z</time>
      </trkpt>
      <trkpt lat="39.104668" lon="16.539273">
        <ele>1271.151585</ele>
        <time>2023-12-04T08:03:00.217Z</time>
      </trkpt>
      <trkpt lat="39.104560" lon="16.539023">
        <ele>1270.886462</ele>
        <time>2023-12-04T08:03:03.480Z</time>
      </trkpt>
      <trkpt lat="39.104465" lon="16.538903">
        <ele>1270.727621</ele>
        <time>2023-12-04T08:03:05.469Z</time>
      </trkpt>
      <trkpt lat="39.104354" lon="16.538809">
        <ele>1270.569023</ele>
        <time>2023-12-04T08:03:07.330Z</time>
      </trkpt>
      <trkpt lat="39.102496" lon="16.537865">
        <ele>1267.905365</ele>
        <time>2023-12-04T08:03:29.390Z</time>
      </trkpt>
      <trkpt lat="39.102272" lon="16.537749">
        <ele>1267.542456</ele>
        <time>2023-12-04T08:03:32.205Z</time>
      </trkpt>
      <trkpt lat="39.101854" lon="16.537541">
        <ele>1266.868861</ele>
        <time>2023-12-04T08:03:37.678Z</time>
      </trkpt>
      <trkpt lat="39.101413" lon="16.537317">
        <ele>1265.848706</ele>
        <time>2023-12-04T08:03:43.741Z</time>
      </trkpt>
      <trkpt lat="39.101023" lon="16.537156">
        <ele>1264.760945</ele>
        <time>2023-12-04T08:03:48.597Z</time>
      </trkpt>
      <trkpt lat="39.100789" lon="16.537127">
        <ele>1264.136536</ele>
        <time>2023-12-04T08:03:51.148Z</time>
      </trkpt>
      <trkpt lat="39.100633" lon="16.537163">
        <ele>1263.715583</ele>
        <time>2023-12-04T08:03:52.787Z</time>
      </trkpt>
      <trkpt lat="39.100408" lon="16.537292">
        <ele>1263.061463</ele>
        <time>2023-12-04T08:03:55.246Z</time>
      </trkpt>
      <trkpt lat="39.100286" lon="16.537362">
        <ele>1262.706739</ele>
        <time>2023-12-04T08:03:56.567Z</time>
      </trkpt>
      <trkpt lat="39.100142" lon="16.537529">
        <ele>1262.192157</ele>
        <time>2023-12-04T08:03:58.448Z</time>
      </trkpt>
      <trkpt lat="39.100022" lon="16.537794">
        <ele>1261.380467</ele>
        <time>2023-12-04T08:04:00.727Z</time>
      </trkpt>
      <trkpt lat="39.099893" lon="16.538273">
        <ele>1259.484243</ele>
        <time>2023-12-04T08:04:04.397Z</time>
      </trkpt>
      <trkpt lat="39.099841" lon="16.538396">
        <ele>1258.960403</ele>
        <time>2023-12-04T08:04:05.394Z</time>
      </trkpt>
      <trkpt lat="39.099758" lon="16.538503">
        <ele>1258.394601</ele>
        <time>2023-12-04T08:04:06.475Z</time>
      </trkpt>
      <trkpt lat="39.099610" lon="16.538635">
        <ele>1257.527178</ele>
        <time>2023-12-04T08:04:08.121Z</time>
      </trkpt>
      <trkpt lat="39.099446" lon="16.538724">
        <ele>1256.669600</ele>
        <time>2023-12-04T08:04:09.751Z</time>
      </trkpt>
      <trkpt lat="39.098861" lon="16.538950">
        <ele>1253.726397</ele>
        <time>2023-12-04T08:04:15.477Z</time>
      </trkpt>
      <trkpt lat="39.098712" lon="16.538974">
        <ele>1253.108313</ele>
        <time>2023-12-04T08:04:16.947Z</time>
      </trkpt>
      <trkpt lat="39.098038" lon="16.538965">
        <ele>1253.003322</ele>
        <time>2023-12-04T08:04:24.588Z</time>
      </trkpt>
      <trkpt lat="39.097870" lon="16.538932">
        <ele>1252.976851</ele>
        <time>2023-12-04T08:04:27.379Z</time>
      </trkpt>
      <trkpt lat="39.097421" lon="16.538610">
        <ele>1252.896810</ele>
        <time>2023-12-04T08:04:37.144Z</time>
      </trkpt>
      <trkpt lat="39.097305" lon="16.538563">
        <ele>1252.877869</ele>
        <time>2023-12-04T08:04:39.891Z</time>
      </trkpt>
      <trkpt lat="39.097168" lon="16.538556">
        <ele>1252.856512</ele>
        <time>2023-12-04T08:04:43.244Z</time>
      </trkpt>
      <trkpt lat="39.096740" lon="16.538733">
        <ele>1253.416151</ele>
        <time>2023-12-04T08:04:54.183Z</time>
      </trkpt>
      <trkpt lat="39.095685" lon="16.539207">
        <ele>1255.667702</ele>
        <time>2023-12-04T08:05:20.841Z</time>
      </trkpt>
      <trkpt lat="39.095125" lon="16.539597">
        <ele>1257.069184</ele>
        <time>2023-12-04T08:05:33.531Z</time>
      </trkpt>
      <trkpt lat="39.094853" lon="16.539826">
        <ele>1257.881195</ele>
        <time>2023-12-04T08:05:40.211Z</time>
      </trkpt>
      <trkpt lat="39.094060" lon="16.540685">
        <ele>1260.470310</ele>
        <time>2023-12-04T08:06:06.516Z</time>
      </trkpt>
      <trkpt lat="39.094030" lon="16.540719">
        <ele>1260.570161</ele>
        <time>2023-12-04T08:06:07.624Z</time>
      </trkpt>
      <trkpt lat="39.093938" lon="16.540832">
        <ele>1260.887810</ele>
        <time>2023-12-04T08:06:11.262Z</time>
      </trkpt>
      <trkpt lat="39.093454" lon="16.541290">
        <ele>1263.734652</ele>
        <time>2023-12-04T08:06:30.333Z</time>
      </trkpt>
      <trkpt lat="39.092868" lon="16.541752">
        <ele>1267.059567</ele>
        <time>2023-12-04T08:06:54.257Z</time>
      </trkpt>
      <trkpt lat="39.092775" lon="16.541844">
        <ele>1267.627028</ele>
        <time>2023-12-04T08:06:58.437Z</time>
      </trkpt>
      <trkpt lat="39.092637" lon="16.542068">
        <ele>1268.701289</ele>
        <time>2023-12-04T08:07:06.788Z</time>
      </trkpt>
      <trkpt lat="39.091918" lon="16.543541">
        <ele>1276.137333</ele>
        <time>2023-12-04T08:07:59.490Z</time>
      </trkpt>
      <trkpt lat="39.091839" lon="16.543647">
        <ele>1276.778340</ele>
        <time>2023-12-04T08:08:03.790Z</time>
      </trkpt>
      <trkpt lat="39.091668" lon="16.543762">
        <ele>1277.862391</ele>
        <time>2023-12-04T08:08:11.030Z</time>
      </trkpt>
      <trkpt lat="39.091184" lon="16.544032">
        <ele>1280.278305</ele>
        <time>2023-12-04T08:08:30.933Z</time>
      </trkpt>
      <trkpt lat="39.089596" lon="16.544984">
        <ele>1284.442696</ele>
        <time>2023-12-04T08:09:14.371Z</time>
      </trkpt>
      <trkpt lat="39.088735" lon="16.545470">
        <ele>1283.038053</ele>
        <time>2023-12-04T08:09:24.862Z</time>
      </trkpt>
      <trkpt lat="39.088567" lon="16.545505">
        <ele>1282.783751</ele>
        <time>2023-12-04T08:09:26.659Z</time>
      </trkpt>
      <trkpt lat="39.088334" lon="16.545468">
        <ele>1282.432947</ele>
        <time>2023-12-04T08:09:29.023Z</time>
      </trkpt>
      <trkpt lat="39.087998" lon="16.545366">
        <ele>1281.977759</ele>
        <time>2023-12-04T08:09:32.449Z</time>
      </trkpt>
      <trkpt lat="39.087698" lon="16.545371">
        <ele>1282.075923</ele>
        <time>2023-12-04T08:09:35.559Z</time>
      </trkpt>
      <trkpt lat="39.087000" lon="16.545475">
        <ele>1282.305824</ele>
        <time>2023-12-04T08:09:45.019Z</time>
      </trkpt>
      <trkpt lat="39.086892" lon="16.545507">
        <ele>1282.342083</ele>
        <time>2023-12-04T08:09:47.712Z</time>
      </trkpt>
      <trkpt lat="39.086672" lon="16.545628">
        <ele>1282.420349</ele>
        <time>2023-12-04T08:09:53.438Z</time>
      </trkpt>
      <trkpt lat="39.086167" lon="16.545989">
        <ele>1282.872763</ele>
        <time>2023-12-04T08:10:09.401Z</time>
      </trkpt>
      <trkpt lat="39.086001" lon="16.546052">
        <ele>1283.205887</ele>
        <time>2023-12-04T08:10:14.325Z</time>
      </trkpt>
      <trkpt lat="39.085566" lon="16.546057">
        <ele>1284.043287</ele>
        <time>2023-12-04T08:10:26.016Z</time>
      </trkpt>
      <trkpt lat="39.085299" lon="16.546073">
        <ele>1284.557813</ele>
        <time>2023-12-04T08:10:31.818Z</time>
      </trkpt>
      <trkpt lat="39.085167" lon="16.546123">
        <ele>1284.822666</ele>
        <time>2023-12-04T08:10:35.168Z</time>
      </trkpt>
      <trkpt lat="39.084888" lon="16.546318">
        <ele>1285.433681</ele>
        <time>2023-12-04T08:10:41.799Z</time>
      </trkpt>
      <trkpt lat="39.084544" lon="16.546629">
        <ele>1285.709415</ele>
        <time>2023-12-04T08:10:49.426Z</time>
      </trkpt>
      <trkpt lat="39.084193" lon="16.547027">
        <ele>1284.475728</ele>
        <time>2023-12-04T08:10:55.255Z</time>
      </trkpt>
      <trkpt lat="39.084008" lon="16.547304">
        <ele>1283.727356</ele>
        <time>2023-12-04T08:10:58.318Z</time>
      </trkpt>
      <trkpt lat="39.083337" lon="16.548683">
        <ele>1280.357455</ele>
        <time>2023-12-04T08:11:10.387Z</time>
      </trkpt>
      <trkpt lat="39.083169" lon="16.548893">
        <ele>1279.714022</ele>
        <time>2023-12-04T08:11:12.632Z</time>
      </trkpt>
      <trkpt lat="39.082770" lon="16.549138">
        <ele>1278.499075</ele>
        <time>2023-12-04T08:11:17.152Z</time>
      </trkpt>
      <trkpt lat="39.082587" lon="16.549295">
        <ele>1277.894725</ele>
        <time>2023-12-04T08:11:19.567Z</time>
      </trkpt>
      <trkpt lat="39.082333" lon="16.549680">
        <ele>1276.816651</ele>
        <time>2023-12-04T08:11:24.325Z</time>
      </trkpt>
      <trkpt lat="39.082273" lon="16.549795">
        <ele>1276.521005</ele>
        <time>2023-12-04T08:11:25.580Z</time>
      </trkpt>
      <trkpt lat="39.082206" lon="16.550003">
        <ele>1276.328716</ele>
        <time>2023-12-04T08:11:27.654Z</time>
      </trkpt>
      <trkpt lat="39.081972" lon="16.551461">
        <ele>1276.333994</ele>
        <time>2023-12-04T08:11:42.551Z</time>
      </trkpt>
      <trkpt lat="39.081864" lon="16.552085">
        <ele>1276.336260</ele>
        <time>2023-12-04T08:11:53.496Z</time>
      </trkpt>
      <trkpt lat="39.081850" lon="16.552292">
        <ele>1276.572040</ele>
        <time>2023-12-04T08:11:57.397Z</time>
      </trkpt>
      <trkpt lat="39.081895" lon="16.552578">
        <ele>1277.019369</ele>
        <time>2023-12-04T08:12:02.059Z</time>
      </trkpt>
      <trkpt lat="39.082070" lon="16.553216">
        <ele>1278.056629</ele>
        <time>2023-12-04T08:12:12.752Z</time>
      </trkpt>
      <trkpt lat="39.082088" lon="16.553750">
        <ele>1278.875974</ele>
        <time>2023-12-04T08:12:21.440Z</time>
      </trkpt>
      <trkpt lat="39.082066" lon="16.554006">
        <ele>1279.270796</ele>
        <time>2023-12-04T08:12:26.545Z</time>
      </trkpt>
      <trkpt lat="39.081986" lon="16.554289">
        <ele>1279.732481</ele>
        <time>2023-12-04T08:12:32.925Z</time>
      </trkpt>
      <trkpt lat="39.081803" lon="16.554776">
        <ele>1281.393645</ele>
        <time>2023-12-04T08:12:44.493Z</time>
      </trkpt>
      <trkpt lat="39.081602" lon="16.555208">
        <ele>1283.119200</ele>
        <time>2023-12-04T08:12:55.001Z</time>
      </trkpt>
      <trkpt lat="39.081324" lon="16.555571">
        <ele>1284.866239</ele>
        <time>2023-12-04T08:13:06.689Z</time>
      </trkpt>
      <trkpt lat="39.081129" lon="16.555700">
        <ele>1285.833734</ele>
        <time>2023-12-04T08:13:14.110Z</time>
      </trkpt>
      <trkpt lat="39.080944" lon="16.555713">
        <ele>1286.651461</ele>
        <time>2023-12-04T08:13:21.525Z</time>
      </trkpt>
      <trkpt lat="39.080412" lon="16.555663">
        <ele>1289.670702</ele>
        <time>2023-12-04T08:13:44.625Z</time>
      </trkpt>
      <trkpt lat="39.080249" lon="16.555666">
        <ele>1290.796029</ele>
        <time>2023-12-04T08:13:51.969Z</time>
      </trkpt>
      <trkpt lat="39.080164" lon="16.555721">
        <ele>1291.452656</ele>
        <time>2023-12-04T08:13:56.130Z</time>
      </trkpt>
      <trkpt lat="39.080111" lon="16.555841">
        <ele>1292.192493</ele>
        <time>2023-12-04T08:14:00.987Z</time>
      </trkpt>
      <trkpt lat="39.080115" lon="16.556001">
        <ele>1293.050324</ele>
        <time>2023-12-04T08:14:06.404Z</time>
      </trkpt>
      <trkpt lat="39.080127" lon="16.556147">
        <ele>1293.837063</ele>
        <time>2023-12-04T08:14:11.297Z</time>
      </trkpt>
      <trkpt lat="39.080194" lon="16.556414">
        <ele>1295.340725</ele>
        <time>2023-12-04T08:14:20.637Z</time>
      </trkpt>
      <trkpt lat="39.080188" lon="16.556537">
        <ele>1296.001141</ele>
        <time>2023-12-04T08:14:24.873Z</time>
      </trkpt>
      <trkpt lat="39.080129" lon="16.556684">
        <ele>1296.887927</ele>
        <time>2023-12-04T08:14:30.421Z</time>
      </trkpt>
      <trkpt lat="39.079705" lon="16.557231">
        <ele>1300.592919</ele>
        <time>2023-12-04T08:14:56.125Z</time>
      </trkpt>
      <trkpt lat="39.079518" lon="16.557671">
        <ele>1301.787489</ele>
        <time>2023-12-04T08:15:11.104Z</time>
      </trkpt>
      <trkpt lat="39.079475" lon="16.557982">
        <ele>1302.539757</ele>
        <time>2023-12-04T08:15:19.375Z</time>
      </trkpt>
      <trkpt lat="39.079441" lon="16.558128">
        <ele>1302.902748</ele>
        <time>2023-12-04T08:15:22.986Z</time>
      </trkpt>
      <trkpt lat="39.079388" lon="16.558228">
        <ele>1303.191097</ele>
        <time>2023-12-04T08:15:25.417Z</time>
      </trkpt>
      <trkpt lat="39.079292" lon="16.558327">
        <ele>1303.568341</ele>
        <time>2023-12-04T08:15:28.297Z</time>
      </trkpt>
      <trkpt lat="39.079152" lon="16.558401">
        <ele>1304.032571</ele>
        <time>2023-12-04T08:15:31.461Z</time>
      </trkpt>
      <trkpt lat="39.078666" lon="16.558307">
        <ele>1305.540197</ele>
        <time>2023-12-04T08:15:39.391Z</time>
      </trkpt>
      <trkpt lat="39.078498" lon="16.558364">
        <ele>1305.594132</ele>
        <time>2023-12-04T08:15:41.817Z</time>
      </trkpt>
      <trkpt lat="39.078368" lon="16.558461">
        <ele>1305.348066</ele>
        <time>2023-12-04T08:15:43.663Z</time>
      </trkpt>
      <trkpt lat="39.078181" lon="16.558806">
        <ele>1304.813059</ele>
        <time>2023-12-04T08:15:47.602Z</time>
      </trkpt>
      <trkpt lat="39.077795" lon="16.559717">
        <ele>1303.493433</ele>
        <time>2023-12-04T08:15:56.254Z</time>
      </trkpt>
      <trkpt lat="39.077575" lon="16.560044">
        <ele>1302.943240</ele>
        <time>2023-12-04T08:15:59.867Z</time>
      </trkpt>
      <trkpt lat="39.077393" lon="16.560262">
        <ele>1302.402058</ele>
        <time>2023-12-04T08:16:02.576Z</time>
      </trkpt>
      <trkpt lat="39.077114" lon="16.560525">
        <ele>1301.563268</ele>
        <time>2023-12-04T08:16:06.344Z</time>
      </trkpt>
      <trkpt lat="39.077049" lon="16.560597">
        <ele>1301.355279</ele>
        <time>2023-12-04T08:16:07.254Z</time>
      </trkpt>
      <trkpt lat="39.076891" lon="16.560882">
        <ele>1300.695671</ele>
        <time>2023-12-04T08:16:10.190Z</time>
      </trkpt>
      <trkpt lat="39.076775" lon="16.561104">
        <ele>1300.191651</ele>
        <time>2023-12-04T08:16:12.382Z</time>
      </trkpt>
      <trkpt lat="39.076546" lon="16.561672">
        <ele>1298.986177</ele>
        <time>2023-12-04T08:16:17.532Z</time>
      </trkpt>
      <trkpt lat="39.075828" lon="16.563198">
        <ele>1295.966973</ele>
        <time>2023-12-04T08:16:32.069Z</time>
      </trkpt>
      <trkpt lat="39.075125" lon="16.563994">
        <ele>1294.121929</ele>
        <time>2023-12-04T08:16:43.070Z</time>
      </trkpt>
      <trkpt lat="39.074761" lon="16.564609">
        <ele>1293.142112</ele>
        <time>2023-12-04T08:16:50.721Z</time>
      </trkpt>
      <trkpt lat="39.074635" lon="16.564737">
        <ele>1292.880222</ele>
        <time>2023-12-04T08:16:52.793Z</time>
      </trkpt>
      <trkpt lat="39.074466" lon="16.564819">
        <ele>1292.585492</ele>
        <time>2023-12-04T08:16:54.863Z</time>
      </trkpt>
      <trkpt lat="39.074188" lon="16.564826">
        <ele>1292.131702</ele>
        <time>2023-12-04T08:16:57.960Z</time>
      </trkpt>
      <trkpt lat="39.073573" lon="16.564730">
        <ele>1289.934912</ele>
        <time>2023-12-04T08:17:04.300Z</time>
      </trkpt>
      <trkpt lat="39.073248" lon="16.564647">
        <ele>1288.246640</ele>
        <time>2023-12-04T08:17:07.510Z</time>
      </trkpt>
      <trkpt lat="39.072492" lon="16.564104">
        <ele>1283.836033</ele>
        <time>2023-12-04T08:17:15.495Z</time>
      </trkpt>
      <trkpt lat="39.072346" lon="16.564079">
        <ele>1283.085546</ele>
        <time>2023-12-04T08:17:16.824Z</time>
      </trkpt>
      <trkpt lat="39.072244" lon="16.564114">
        <ele>1282.547679</ele>
        <time>2023-12-04T08:17:17.783Z</time>
      </trkpt>
      <trkpt lat="39.071864" lon="16.564469">
        <ele>1279.586296</ele>
        <time>2023-12-04T08:17:21.972Z</time>
      </trkpt>
      <trkpt lat="39.071799" lon="16.564776">
        <ele>1278.023569</ele>
        <time>2023-12-04T08:17:24.166Z</time>
      </trkpt>
      <trkpt lat="39.071856" lon="16.564987">
        <ele>1276.926417</ele>
        <time>2023-12-04T08:17:25.712Z</time>
      </trkpt>
      <trkpt lat="39.072004" lon="16.565227">
        <ele>1275.421216</ele>
        <time>2023-12-04T08:17:27.840Z</time>
      </trkpt>
      <trkpt lat="39.072136" lon="16.565321">
        <ele>1274.467117</ele>
        <time>2023-12-04T08:17:29.207Z</time>
      </trkpt>
      <trkpt lat="39.072470" lon="16.565653">
        <ele>1271.798393</ele>
        <time>2023-12-04T08:17:33.087Z</time>
      </trkpt>
      <trkpt lat="39.072848" lon="16.566085">
        <ele>1270.865439</ele>
        <time>2023-12-04T08:17:38.014Z</time>
      </trkpt>
      <trkpt lat="39.072939" lon="16.566212">
        <ele>1270.774579</ele>
        <time>2023-12-04T08:17:39.496Z</time>
      </trkpt>
      <trkpt lat="39.072978" lon="16.566323">
        <ele>1270.710524</ele>
        <time>2023-12-04T08:17:40.675Z</time>
      </trkpt>
      <trkpt lat="39.072988" lon="16.566418">
        <ele>1270.660122</ele>
        <time>2023-12-04T08:17:41.599Z</time>
      </trkpt>
      <trkpt lat="39.072971" lon="16.566509">
        <ele>1270.610915</ele>
        <time>2023-12-04T08:17:42.514Z</time>
      </trkpt>
      <trkpt lat="39.072884" lon="16.566628">
        <ele>1270.524978</ele>
        <time>2023-12-04T08:17:44.295Z</time>
      </trkpt>
      <trkpt lat="39.072362" lon="16.567071">
        <ele>1270.101655</ele>
        <time>2023-12-04T08:17:54.931Z</time>
      </trkpt>
      <trkpt lat="39.072136" lon="16.567236">
        <ele>1269.925734</ele>
        <time>2023-12-04T08:18:00.971Z</time>
      </trkpt>
      <trkpt lat="39.071755" lon="16.567426">
        <ele>1271.471554</ele>
        <time>2023-12-04T08:18:12.484Z</time>
      </trkpt>
      <trkpt lat="39.071088" lon="16.567743">
        <ele>1274.243103</ele>
        <time>2023-12-04T08:18:36.787Z</time>
      </trkpt>
      <trkpt lat="39.069972" lon="16.568765">
        <ele>1278.172868</ele>
        <time>2023-12-04T08:19:19.706Z</time>
      </trkpt>
      <trkpt lat="39.069577" lon="16.569156">
        <ele>1279.083098</ele>
        <time>2023-12-04T08:19:30.737Z</time>
      </trkpt>
      <trkpt lat="39.069256" lon="16.569466">
        <ele>1279.816159</ele>
        <time>2023-12-04T08:19:37.180Z</time>
      </trkpt>
      <trkpt lat="39.069018" lon="16.569565">
        <ele>1280.106568</ele>
        <time>2023-12-04T08:19:40.379Z</time>
      </trkpt>
      <trkpt lat="39.068954" lon="16.569537">
        <ele>1279.864278</ele>
        <time>2023-12-04T08:19:41.209Z</time>
      </trkpt>
      <trkpt lat="39.068948" lon="16.569471">
        <ele>1279.679341</ele>
        <time>2023-12-04T08:19:41.803Z</time>
      </trkpt>
      <trkpt lat="39.068855" lon="16.569258">
        <ele>1278.999239</ele>
        <time>2023-12-04T08:19:43.895Z</time>
      </trkpt>
      <trkpt lat="39.068774" lon="16.569150">
        <ele>1278.581329</ele>
        <time>2023-12-04T08:19:45.160Z</time>
      </trkpt>
      <trkpt lat="39.068652" lon="16.569067">
        <ele>1278.086747</ele>
        <time>2023-12-04T08:19:46.582Z</time>
      </trkpt>
      <trkpt lat="39.068445" lon="16.569008">
        <ele>1277.326778</ele>
        <time>2023-12-04T08:19:48.712Z</time>
      </trkpt>
      <trkpt lat="39.068388" lon="16.568960">
        <ele>1277.082659</ele>
        <time>2023-12-04T08:19:49.373Z</time>
      </trkpt>
      <trkpt lat="39.068113" lon="16.568548">
        <ele>1275.570537</ele>
        <time>2023-12-04T08:19:53.368Z</time>
      </trkpt>
      <trkpt lat="39.067889" lon="16.568412">
        <ele>1274.682842</ele>
        <time>2023-12-04T08:19:55.670Z</time>
      </trkpt>
      <trkpt lat="39.067791" lon="16.568434">
        <ele>1274.326253</ele>
        <time>2023-12-04T08:19:56.610Z</time>
      </trkpt>
      <trkpt lat="39.067641" lon="16.568685">
        <ele>1273.311447</ele>
        <time>2023-12-04T08:19:58.901Z</time>
      </trkpt>
      <trkpt lat="39.067518" lon="16.568731">
        <ele>1272.663890</ele>
        <time>2023-12-04T08:20:00.095Z</time>
      </trkpt>
      <trkpt lat="39.067385" lon="16.568697">
        <ele>1271.978342</ele>
        <time>2023-12-04T08:20:01.367Z</time>
      </trkpt>
      <trkpt lat="39.067227" lon="16.568602">
        <ele>1271.096758</ele>
        <time>2023-12-04T08:20:03.006Z</time>
      </trkpt>
      <trkpt lat="39.066881" lon="16.568567">
        <ele>1269.342040</ele>
        <time>2023-12-04T08:20:06.311Z</time>
      </trkpt>
      <trkpt lat="39.066706" lon="16.568488">
        <ele>1268.404491</ele>
        <time>2023-12-04T08:20:08.070Z</time>
      </trkpt>
      <trkpt lat="39.066521" lon="16.568541">
        <ele>1267.446296</ele>
        <time>2023-12-04T08:20:09.882Z</time>
      </trkpt>
      <trkpt lat="39.066310" lon="16.568694">
        <ele>1266.222060</ele>
        <time>2023-12-04T08:20:12.186Z</time>
      </trkpt>
      <trkpt lat="39.066089" lon="16.568732">
        <ele>1265.094800</ele>
        <time>2023-12-04T08:20:14.289Z</time>
      </trkpt>
      <trkpt lat="39.065936" lon="16.568735">
        <ele>1264.151209</ele>
        <time>2023-12-04T08:20:15.722Z</time>
      </trkpt>
      <trkpt lat="39.065762" lon="16.568685">
        <ele>1262.817811</ele>
        <time>2023-12-04T08:20:17.372Z</time>
      </trkpt>
      <trkpt lat="39.065607" lon="16.568583">
        <ele>1261.515961</ele>
        <time>2023-12-04T08:20:18.968Z</time>
      </trkpt>
      <trkpt lat="39.065513" lon="16.568447">
        <ele>1260.458595</ele>
        <time>2023-12-04T08:20:20.247Z</time>
      </trkpt>
      <trkpt lat="39.065502" lon="16.568372">
        <ele>1260.015357</ele>
        <time>2023-12-04T08:20:20.779Z</time>
      </trkpt>
      <trkpt lat="39.065607" lon="16.567691">
        <ele>1255.983478</ele>
        <time>2023-12-04T08:20:25.605Z</time>
      </trkpt>
      <trkpt lat="39.065446" lon="16.567280">
        <ele>1253.310182</ele>
        <time>2023-12-04T08:20:28.743Z</time>
      </trkpt>
      <trkpt lat="39.065432" lon="16.567159">
        <ele>1252.599759</ele>
        <time>2023-12-04T08:20:29.568Z</time>
      </trkpt>
      <trkpt lat="39.065501" lon="16.566949">
        <ele>1251.275558</ele>
        <time>2023-12-04T08:20:31.101Z</time>
      </trkpt>
      <trkpt lat="39.065771" lon="16.566480">
        <ele>1247.383486</ele>
        <time>2023-12-04T08:20:34.987Z</time>
      </trkpt>
      <trkpt lat="39.065769" lon="16.566432">
        <ele>1247.062403</ele>
        <time>2023-12-04T08:20:35.304Z</time>
      </trkpt>
      <trkpt lat="39.065564" lon="16.565961">
        <ele>1243.455693</ele>
        <time>2023-12-04T08:20:38.882Z</time>
      </trkpt>
      <trkpt lat="39.065417" lon="16.565703">
        <ele>1241.318107</ele>
        <time>2023-12-04T08:20:41.032Z</time>
      </trkpt>
      <trkpt lat="39.065397" lon="16.565625">
        <ele>1240.769418</ele>
        <time>2023-12-04T08:20:41.587Z</time>
      </trkpt>
      <trkpt lat="39.065393" lon="16.565466">
        <ele>1239.706796</ele>
        <time>2023-12-04T08:20:42.668Z</time>
      </trkpt>
      <trkpt lat="39.065466" lon="16.565299">
        <ele>1238.426656</ele>
        <time>2023-12-04T08:20:43.993Z</time>
      </trkpt>
      <trkpt lat="39.065517" lon="16.565069">
        <ele>1236.828914</ele>
        <time>2023-12-04T08:20:45.683Z</time>
      </trkpt>
      <trkpt lat="39.065503" lon="16.564930">
        <ele>1235.892664</ele>
        <time>2023-12-04T08:20:46.703Z</time>
      </trkpt>
      <trkpt lat="39.065462" lon="16.564821">
        <ele>1235.498130</ele>
        <time>2023-12-04T08:20:47.588Z</time>
      </trkpt>
      <trkpt lat="39.065360" lon="16.564709">
        <ele>1235.063068</ele>
        <time>2023-12-04T08:20:48.906Z</time>
      </trkpt>
      <trkpt lat="39.065249" lon="16.564674">
        <ele>1234.692141</ele>
        <time>2023-12-04T08:20:50.044Z</time>
      </trkpt>
      <trkpt lat="39.065108" lon="16.564730">
        <ele>1234.213213</ele>
        <time>2023-12-04T08:20:51.555Z</time>
      </trkpt>
      <trkpt lat="39.064990" lon="16.564846">
        <ele>1233.731387</ele>
        <time>2023-12-04T08:20:53.165Z</time>
      </trkpt>
      <trkpt lat="39.064909" lon="16.565050">
        <ele>1233.153948</ele>
        <time>2023-12-04T08:20:55.050Z</time>
      </trkpt>
      <trkpt lat="39.064863" lon="16.565808">
        <ele>1231.237835</ele>
        <time>2023-12-04T08:21:01.601Z</time>
      </trkpt>
      <trkpt lat="39.064789" lon="16.565951">
        <ele>1230.804743</ele>
        <time>2023-12-04T08:21:02.987Z</time>
      </trkpt>
      <trkpt lat="39.064710" lon="16.565971">
        <ele>1230.543416</ele>
        <time>2023-12-04T08:21:03.873Z</time>
      </trkpt>
      <trkpt lat="39.064614" lon="16.565941">
        <ele>1230.222776</ele>
        <time>2023-12-04T08:21:04.923Z</time>
      </trkpt>
      <trkpt lat="39.064369" lon="16.565776">
        <ele>1228.630562</ele>
        <time>2023-12-04T08:21:07.736Z</time>
      </trkpt>
      <trkpt lat="39.064240" lon="16.565751">
        <ele>1227.704890</ele>
        <time>2023-12-04T08:21:09.034Z</time>
      </trkpt>
      <trkpt lat="39.064039" lon="16.565773">
        <ele>1226.273479</ele>
        <time>2023-12-04T08:21:10.962Z</time>
      </trkpt>
      <trkpt lat="39.063943" lon="16.565743">
        <ele>1225.572510</ele>
        <time>2023-12-04T08:21:11.903Z</time>
      </trkpt>
      <trkpt lat="39.063888" lon="16.565608">
        <ele>1224.732549</ele>
        <time>2023-12-04T08:21:12.984Z</time>
      </trkpt>
      <trkpt lat="39.063862" lon="16.565302">
        <ele>1223.036564</ele>
        <time>2023-12-04T08:21:15.146Z</time>
      </trkpt>
      <trkpt lat="39.063838" lon="16.565240">
        <ele>1222.654873</ele>
        <time>2023-12-04T08:21:15.626Z</time>
      </trkpt>
      <trkpt lat="39.063803" lon="16.565178">
        <ele>1222.232540</ele>
        <time>2023-12-04T08:21:16.145Z</time>
      </trkpt>
      <trkpt lat="39.063557" lon="16.564965">
        <ele>1220.129149</ele>
        <time>2023-12-04T08:21:18.725Z</time>
      </trkpt>
      <trkpt lat="39.063504" lon="16.564816">
        <ele>1219.226178</ele>
        <time>2023-12-04T08:21:19.817Z</time>
      </trkpt>
      <trkpt lat="39.063437" lon="16.564357">
        <ele>1216.556363</ele>
        <time>2023-12-04T08:21:22.903Z</time>
      </trkpt>
      <trkpt lat="39.063316" lon="16.564271">
        <ele>1215.384380</ele>
        <time>2023-12-04T08:21:24.075Z</time>
      </trkpt>
      <trkpt lat="39.063128" lon="16.564298">
        <ele>1213.780221</ele>
        <time>2023-12-04T08:21:25.685Z</time>
      </trkpt>
      <trkpt lat="39.062695" lon="16.564580">
        <ele>1209.665509</ele>
        <time>2023-12-04T08:21:29.841Z</time>
      </trkpt>
      <trkpt lat="39.062138" lon="16.564612">
        <ele>1204.937339</ele>
        <time>2023-12-04T08:21:34.748Z</time>
      </trkpt>
      <trkpt lat="39.062046" lon="16.564687">
        <ele>1204.013998</ele>
        <time>2023-12-04T08:21:35.730Z</time>
      </trkpt>
      <trkpt lat="39.061990" lon="16.564811">
        <ele>1203.069449</ele>
        <time>2023-12-04T08:21:36.752Z</time>
      </trkpt>
      <trkpt lat="39.061983" lon="16.564876">
        <ele>1202.637355</ele>
        <time>2023-12-04T08:21:37.233Z</time>
      </trkpt>
      <trkpt lat="39.062026" lon="16.565254">
        <ele>1201.652731</ele>
        <time>2023-12-04T08:21:40.087Z</time>
      </trkpt>
      <trkpt lat="39.062020" lon="16.565505">
        <ele>1201.426509</ele>
        <time>2023-12-04T08:21:42.137Z</time>
      </trkpt>
      <trkpt lat="39.061991" lon="16.565707">
        <ele>1201.241452</ele>
        <time>2023-12-04T08:21:43.996Z</time>
      </trkpt>
      <trkpt lat="39.061934" lon="16.565908">
        <ele>1201.048681</ele>
        <time>2023-12-04T08:21:46.367Z</time>
      </trkpt>
      <trkpt lat="39.061833" lon="16.566073">
        <ele>1200.859405</ele>
        <time>2023-12-04T08:21:49.117Z</time>
      </trkpt>
      <trkpt lat="39.061725" lon="16.566164">
        <ele>1200.709669</ele>
        <time>2023-12-04T08:21:51.540Z</time>
      </trkpt>
      <trkpt lat="39.061589" lon="16.566209">
        <ele>1200.546757</ele>
        <time>2023-12-04T08:21:54.316Z</time>
      </trkpt>
      <trkpt lat="39.061235" lon="16.566262">
        <ele>1200.133279</ele>
        <time>2023-12-04T08:22:01.313Z</time>
      </trkpt>
      <trkpt lat="39.061068" lon="16.566404">
        <ele>1199.901105</ele>
        <time>2023-12-04T08:22:04.608Z</time>
      </trkpt>
      <trkpt lat="39.060960" lon="16.566645">
        <ele>1199.179026</ele>
        <time>2023-12-04T08:22:07.739Z</time>
      </trkpt>
      <trkpt lat="39.061027" lon="16.566965">
        <ele>1197.990507</ele>
        <time>2023-12-04T08:22:10.697Z</time>
      </trkpt>
      <trkpt lat="39.060995" lon="16.567055">
        <ele>1197.635535</ele>
        <time>2023-12-04T08:22:11.555Z</time>
      </trkpt>
      <trkpt lat="39.060928" lon="16.567117">
        <ele>1197.254511</ele>
        <time>2023-12-04T08:22:12.418Z</time>
      </trkpt>
      <trkpt lat="39.060830" lon="16.567139">
        <ele>1196.795087</ele>
        <time>2023-12-04T08:22:13.450Z</time>
      </trkpt>
      <trkpt lat="39.060790" lon="16.567112">
        <ele>1196.586517</ele>
        <time>2023-12-04T08:22:13.933Z</time>
      </trkpt>
      <trkpt lat="39.060754" lon="16.567070">
        <ele>1196.362180</ele>
        <time>2023-12-04T08:22:14.446Z</time>
      </trkpt>
      <trkpt lat="39.060715" lon="16.566952">
        <ele>1195.902287</ele>
        <time>2023-12-04T08:22:15.480Z</time>
      </trkpt>
      <trkpt lat="39.060643" lon="16.566456">
        <ele>1194.092787</ele>
        <time>2023-12-04T08:22:19.241Z</time>
      </trkpt>
      <trkpt lat="39.060654" lon="16.566103">
        <ele>1192.825890</ele>
        <time>2023-12-04T08:22:21.718Z</time>
      </trkpt>
      <trkpt lat="39.060624" lon="16.566018">
        <ele>1192.491063</ele>
        <time>2023-12-04T08:22:22.364Z</time>
      </trkpt>
      <trkpt lat="39.060547" lon="16.565914">
        <ele>1191.975745</ele>
        <time>2023-12-04T08:22:23.331Z</time>
      </trkpt>
      <trkpt lat="39.060280" lon="16.565730">
        <ele>1189.061770</ele>
        <time>2023-12-04T08:22:25.922Z</time>
      </trkpt>
      <trkpt lat="39.059926" lon="16.565600">
        <ele>1184.575300</ele>
        <time>2023-12-04T08:22:29.014Z</time>
      </trkpt>
      <trkpt lat="39.059570" lon="16.565764">
        <ele>1179.967197</ele>
        <time>2023-12-04T08:22:32.160Z</time>
      </trkpt>
      <trkpt lat="39.059426" lon="16.565752">
        <ele>1178.208479</ele>
        <time>2023-12-04T08:22:33.369Z</time>
      </trkpt>
      <trkpt lat="39.059283" lon="16.565677">
        <ele>1176.326632</ele>
        <time>2023-12-04T08:22:34.657Z</time>
      </trkpt>
      <trkpt lat="39.059092" lon="16.565681">
        <ele>1173.998450</ele>
        <time>2023-12-04T08:22:36.250Z</time>
      </trkpt>
      <trkpt lat="39.058906" lon="16.565768">
        <ele>1171.586623</ele>
        <time>2023-12-04T08:22:37.908Z</time>
      </trkpt>
      <trkpt lat="39.058254" lon="16.566304">
        <ele>1166.169920</ele>
        <time>2023-12-04T08:22:44.575Z</time>
      </trkpt>
      <trkpt lat="39.057620" lon="16.566620">
        <ele>1162.362314</ele>
        <time>2023-12-04T08:22:51.095Z</time>
      </trkpt>
      <trkpt lat="39.057562" lon="16.566729">
        <ele>1161.787636</ele>
        <time>2023-12-04T08:22:52.230Z</time>
      </trkpt>
      <trkpt lat="39.057552" lon="16.566819">
        <ele>1161.392228</ele>
        <time>2023-12-04T08:22:53.039Z</time>
      </trkpt>
      <trkpt lat="39.057630" lon="16.567026">
        <ele>1160.391560</ele>
        <time>2023-12-04T08:22:55.134Z</time>
      </trkpt>
      <trkpt lat="39.057673" lon="16.567215">
        <ele>1159.535021</ele>
        <time>2023-12-04T08:22:57.029Z</time>
      </trkpt>
      <trkpt lat="39.057652" lon="16.567369">
        <ele>1159.324653</ele>
        <time>2023-12-04T08:22:58.710Z</time>
      </trkpt>
      <trkpt lat="39.057559" lon="16.567495">
        <ele>1159.113749</ele>
        <time>2023-12-04T08:23:00.465Z</time>
      </trkpt>
      <trkpt lat="39.057305" lon="16.567670">
        <ele>1158.663676</ele>
        <time>2023-12-04T08:23:05.127Z</time>
      </trkpt>
      <trkpt lat="39.056759" lon="16.568196">
        <ele>1157.598327</ele>
        <time>2023-12-04T08:23:14.288Z</time>
      </trkpt>
      <trkpt lat="39.056644" lon="16.568201">
        <ele>1157.418550</ele>
        <time>2023-12-04T08:23:15.593Z</time>
      </trkpt>
      <trkpt lat="39.056060" lon="16.567968">
        <ele>1155.810375</ele>
        <time>2023-12-04T08:23:21.844Z</time>
      </trkpt>
      <trkpt lat="39.055917" lon="16.567946">
        <ele>1154.954358</ele>
        <time>2023-12-04T08:23:23.194Z</time>
      </trkpt>
      <trkpt lat="39.055586" lon="16.567960">
        <ele>1152.985877</ele>
        <time>2023-12-04T08:23:26.244Z</time>
      </trkpt>
      <trkpt lat="39.055312" lon="16.568041">
        <ele>1151.314895</ele>
        <time>2023-12-04T08:23:28.800Z</time>
      </trkpt>
      <trkpt lat="39.055232" lon="16.568039">
        <ele>1150.839296</ele>
        <time>2023-12-04T08:23:29.523Z</time>
      </trkpt>
      <trkpt lat="39.055035" lon="16.567923">
        <ele>1149.551750</ele>
        <time>2023-12-04T08:23:31.471Z</time>
      </trkpt>
      <trkpt lat="39.054904" lon="16.567923">
        <ele>1148.773104</ele>
        <time>2023-12-04T08:23:32.645Z</time>
      </trkpt>
      <trkpt lat="39.053807" lon="16.568315">
        <ele>1140.268377</ele>
        <time>2023-12-04T08:23:42.858Z</time>
      </trkpt>
      <trkpt lat="39.053454" lon="16.568295">
        <ele>1137.255426</ele>
        <time>2023-12-04T08:23:45.971Z</time>
      </trkpt>
      <trkpt lat="39.053253" lon="16.568353">
        <ele>1135.498991</ele>
        <time>2023-12-04T08:23:47.778Z</time>
      </trkpt>
      <trkpt lat="39.052848" lon="16.568536">
        <ele>1131.839114</ele>
        <time>2023-12-04T08:23:51.481Z</time>
      </trkpt>
      <trkpt lat="39.051838" lon="16.568620">
        <ele>1120.165950</ele>
        <time>2023-12-04T08:24:00.114Z</time>
      </trkpt>
      <trkpt lat="39.051197" lon="16.568806">
        <ele>1112.277455</ele>
        <time>2023-12-04T08:24:05.621Z</time>
      </trkpt>
      <trkpt lat="39.051071" lon="16.568871">
        <ele>1110.647886</ele>
        <time>2023-12-04T08:24:06.751Z</time>
      </trkpt>
      <trkpt lat="39.051003" lon="16.568937">
        <ele>1109.625581</ele>
        <time>2023-12-04T08:24:07.467Z</time>
      </trkpt>
      <trkpt lat="39.050898" lon="16.569133">
        <ele>1107.918295</ele>
        <time>2023-12-04T08:24:09.014Z</time>
      </trkpt>
      <trkpt lat="39.050781" lon="16.569260">
        <ele>1106.645524</ele>
        <time>2023-12-04T08:24:10.306Z</time>
      </trkpt>
      <trkpt lat="39.050625" lon="16.569350">
        <ele>1105.223720</ele>
        <time>2023-12-04T08:24:11.748Z</time>
      </trkpt>
      <trkpt lat="39.050478" lon="16.569417">
        <ele>1103.926718</ele>
        <time>2023-12-04T08:24:13.079Z</time>
      </trkpt>
      <trkpt lat="39.050232" lon="16.569431">
        <ele>1101.878620</ele>
        <time>2023-12-04T08:24:15.208Z</time>
      </trkpt>
      <trkpt lat="39.049798" lon="16.569535">
        <ele>1098.206857</ele>
        <time>2023-12-04T08:24:19.165Z</time>
      </trkpt>
      <trkpt lat="39.049732" lon="16.569593">
        <ele>1097.542246</ele>
        <time>2023-12-04T08:24:19.925Z</time>
      </trkpt>
      <trkpt lat="39.049651" lon="16.569832">
        <ele>1095.857856</ele>
        <time>2023-12-04T08:24:21.857Z</time>
      </trkpt>
      <trkpt lat="39.049659" lon="16.570184">
        <ele>1094.057357</ele>
        <time>2023-12-04T08:24:24.587Z</time>
      </trkpt>
      <trkpt lat="39.049636" lon="16.570372">
        <ele>1093.925386</ele>
        <time>2023-12-04T08:24:26.133Z</time>
      </trkpt>
      <trkpt lat="39.049436" lon="16.570754">
        <ele>1093.605923</ele>
        <time>2023-12-04T08:24:29.932Z</time>
      </trkpt>
      <trkpt lat="39.049413" lon="16.570882">
        <ele>1093.514820</ele>
        <time>2023-12-04T08:24:31.098Z</time>
      </trkpt>
      <trkpt lat="39.049427" lon="16.570999">
        <ele>1093.432732</ele>
        <time>2023-12-04T08:24:32.166Z</time>
      </trkpt>
      <trkpt lat="39.049794" lon="16.571409">
        <ele>1092.998898</ele>
        <time>2023-12-04T08:24:38.289Z</time>
      </trkpt>
      <trkpt lat="39.050111" lon="16.571613">
        <ele>1092.682470</ele>
        <time>2023-12-04T08:24:44.063Z</time>
      </trkpt>
      <trkpt lat="39.050123" lon="16.571701">
        <ele>1092.620516</ele>
        <time>2023-12-04T08:24:45.169Z</time>
      </trkpt>
      <trkpt lat="39.050027" lon="16.571872">
        <ele>1092.739741</ele>
        <time>2023-12-04T08:24:48.891Z</time>
      </trkpt>
      <trkpt lat="39.049679" lon="16.572269">
        <ele>1095.549987</ele>
        <time>2023-12-04T08:25:02.048Z</time>
      </trkpt>
      <trkpt lat="39.049504" lon="16.572535">
        <ele>1097.186449</ele>
        <time>2023-12-04T08:25:11.053Z</time>
      </trkpt>
      <trkpt lat="39.049429" lon="16.572819">
        <ele>1098.594558</ele>
        <time>2023-12-04T08:25:19.755Z</time>
      </trkpt>
      <trkpt lat="39.049393" lon="16.573230">
        <ele>1100.536087</ele>
        <time>2023-12-04T08:25:33.794Z</time>
      </trkpt>
      <trkpt lat="39.049331" lon="16.573416">
        <ele>1101.486228</ele>
        <time>2023-12-04T08:25:41.454Z</time>
      </trkpt>
      <trkpt lat="39.049179" lon="16.573687">
        <ele>1103.055432</ele>
        <time>2023-12-04T08:25:54.827Z</time>
      </trkpt>
      <trkpt lat="39.049160" lon="16.573819">
        <ele>1103.889579</ele>
        <time>2023-12-04T08:26:00.893Z</time>
      </trkpt>
      <trkpt lat="39.049266" lon="16.574171">
        <ele>1106.845411</ele>
        <time>2023-12-04T08:26:18.822Z</time>
      </trkpt>
      <trkpt lat="39.049260" lon="16.574348">
        <ele>1108.232507</ele>
        <time>2023-12-04T08:26:27.811Z</time>
      </trkpt>
      <trkpt lat="39.049210" lon="16.574493">
        <ele>1109.474626</ele>
        <time>2023-12-04T08:26:35.769Z</time>
      </trkpt>
      <trkpt lat="39.049099" lon="16.574688">
        <ele>1111.367526</ele>
        <time>2023-12-04T08:26:48.498Z</time>
      </trkpt>
      <trkpt lat="39.049011" lon="16.574788">
        <ele>1112.550755</ele>
        <time>2023-12-04T08:26:56.220Z</time>
      </trkpt>
      <trkpt lat="39.048782" lon="16.574964">
        <ele>1115.239355</ele>
        <time>2023-12-04T08:27:13.276Z</time>
      </trkpt>
      <trkpt lat="39.048705" lon="16.575077">
        <ele>1116.416344</ele>
        <time>2023-12-04T08:27:20.270Z</time>
      </trkpt>
      <trkpt lat="39.048673" lon="16.575148">
        <ele>1117.059056</ele>
        <time>2023-12-04T08:27:23.897Z</time>
      </trkpt>
      <trkpt lat="39.048660" lon="16.575341">
        <ele>1118.575786</ele>
        <time>2023-12-04T08:27:31.967Z</time>
      </trkpt>
      <trkpt lat="39.048618" lon="16.575427">
        <ele>1119.371176</ele>
        <time>2023-12-04T08:27:35.838Z</time>
      </trkpt>
      <trkpt lat="39.048560" lon="16.575459">
        <ele>1120.007311</ele>
        <time>2023-12-04T08:27:38.810Z</time>
      </trkpt>
      <trkpt lat="39.048446" lon="16.575451">
        <ele>1121.158294</ele>
        <time>2023-12-04T08:27:43.903Z</time>
      </trkpt>
      <trkpt lat="39.048094" lon="16.575298">
        <ele>1120.633072</ele>
        <time>2023-12-04T08:27:56.881Z</time>
      </trkpt>
      <trkpt lat="39.047999" lon="16.575178">
        <ele>1120.284883</ele>
        <time>2023-12-04T08:28:00.172Z</time>
      </trkpt>
      <trkpt lat="39.047885" lon="16.574963">
        <ele>1119.755903</ele>
        <time>2023-12-04T08:28:03.733Z</time>
      </trkpt>
      <trkpt lat="39.047811" lon="16.574885">
        <ele>1119.505691</ele>
        <time>2023-12-04T08:28:04.857Z</time>
      </trkpt>
      <trkpt lat="39.047708" lon="16.574816">
        <ele>1119.201912</ele>
        <time>2023-12-04T08:28:06.085Z</time>
      </trkpt>
      <trkpt lat="39.047206" lon="16.574675">
        <ele>1117.857592</ele>
        <time>2023-12-04T08:28:10.851Z</time>
      </trkpt>
      <trkpt lat="39.046702" lon="16.574172">
        <ele>1113.103361</ele>
        <time>2023-12-04T08:28:16.333Z</time>
      </trkpt>
      <trkpt lat="39.046167" lon="16.573933">
        <ele>1104.221943</ele>
        <time>2023-12-04T08:28:21.071Z</time>
      </trkpt>
      <trkpt lat="39.046061" lon="16.573770">
        <ele>1101.632400</ele>
        <time>2023-12-04T08:28:22.439Z</time>
      </trkpt>
      <trkpt lat="39.045933" lon="16.573180">
        <ele>1094.170739</ele>
        <time>2023-12-04T08:28:26.353Z</time>
      </trkpt>
      <trkpt lat="39.045712" lon="16.572910">
        <ele>1089.392692</ele>
        <time>2023-12-04T08:28:28.844Z</time>
      </trkpt>
      <trkpt lat="39.044944" lon="16.572440">
        <ele>1073.551479</ele>
        <time>2023-12-04T08:28:35.777Z</time>
      </trkpt>
      <trkpt lat="39.044742" lon="16.572369">
        <ele>1069.611547</ele>
        <time>2023-12-04T08:28:37.495Z</time>
      </trkpt>
      <trkpt lat="39.044317" lon="16.572370">
        <ele>1061.614677</ele>
        <time>2023-12-04T08:28:40.990Z</time>
      </trkpt>
      <trkpt lat="39.043980" lon="16.572514">
        <ele>1054.933572</ele>
        <time>2023-12-04T08:28:43.944Z</time>
      </trkpt>
      <trkpt lat="39.043809" lon="16.572623">
        <ele>1051.954565</ele>
        <time>2023-12-04T08:28:45.535Z</time>
      </trkpt>
      <trkpt lat="39.043609" lon="16.573061">
        <ele>1045.860047</ele>
        <time>2023-12-04T08:28:48.808Z</time>
      </trkpt>
      <trkpt lat="39.043563" lon="16.573560">
        <ele>1039.832544</ele>
        <time>2023-12-04T08:28:52.031Z</time>
      </trkpt>
      <trkpt lat="39.043517" lon="16.573727">
        <ele>1037.707134</ele>
        <time>2023-12-04T08:28:53.165Z</time>
      </trkpt>
      <trkpt lat="39.043471" lon="16.573785">
        <ele>1036.712788</ele>
        <time>2023-12-04T08:28:53.700Z</time>
      </trkpt>
      <trkpt lat="39.043343" lon="16.573864">
        <ele>1034.520552</ele>
        <time>2023-12-04T08:28:54.864Z</time>
      </trkpt>
      <trkpt lat="39.043170" lon="16.573893">
        <ele>1031.826164</ele>
        <time>2023-12-04T08:28:56.322Z</time>
      </trkpt>
      <trkpt lat="39.042850" lon="16.573780">
        <ele>1026.729729</ele>
        <time>2023-12-04T08:28:59.098Z</time>
      </trkpt>
      <trkpt lat="39.042639" lon="16.573774">
        <ele>1023.805465</ele>
        <time>2023-12-04T08:29:00.863Z</time>
      </trkpt>
      <trkpt lat="39.042037" lon="16.573889">
        <ele>1015.373031</ele>
        <time>2023-12-04T08:29:05.969Z</time>
      </trkpt>
      <trkpt lat="39.041910" lon="16.573973">
        <ele>1013.394748</ele>
        <time>2023-12-04T08:29:07.163Z</time>
      </trkpt>
      <trkpt lat="39.041879" lon="16.574042">
        <ele>1012.536922</ele>
        <time>2023-12-04T08:29:07.676Z</time>
      </trkpt>
      <trkpt lat="39.041868" lon="16.574153">
        <ele>1011.332709</ele>
        <time>2023-12-04T08:29:08.391Z</time>
      </trkpt>
      <trkpt lat="39.041963" lon="16.574606">
        <ele>1006.283164</ele>
        <time>2023-12-04T08:29:11.412Z</time>
      </trkpt>
      <trkpt lat="39.041965" lon="16.574870">
        <ele>1003.441991</ele>
        <time>2023-12-04T08:29:13.121Z</time>
      </trkpt>
      <trkpt lat="39.041847" lon="16.575304">
        <ele>1000.091655</ele>
        <time>2023-12-04T08:29:16.123Z</time>
      </trkpt>
      <trkpt lat="39.041816" lon="16.575645">
        <ele>998.055154</ele>
        <time>2023-12-04T08:29:18.413Z</time>
      </trkpt>
      <trkpt lat="39.041786" lon="16.575752">
        <ele>997.380380</ele>
        <time>2023-12-04T08:29:19.190Z</time>
      </trkpt>
      <trkpt lat="39.041317" lon="16.576121">
        <ele>993.182744</ele>
        <time>2023-12-04T08:29:24.165Z</time>
      </trkpt>
      <trkpt lat="39.041258" lon="16.576305">
        <ele>992.001958</ele>
        <time>2023-12-04T08:29:25.659Z</time>
      </trkpt>
      <trkpt lat="39.041196" lon="16.576419">
        <ele>991.176447</ele>
        <time>2023-12-04T08:29:26.702Z</time>
      </trkpt>
      <trkpt lat="39.041134" lon="16.576471">
        <ele>990.611341</ele>
        <time>2023-12-04T08:29:27.394Z</time>
      </trkpt>
      <trkpt lat="39.040911" lon="16.576653">
        <ele>988.594921</ele>
        <time>2023-12-04T08:29:29.928Z</time>
      </trkpt>
      <trkpt lat="39.040437" lon="16.576852">
        <ele>988.726895</ele>
        <time>2023-12-04T08:29:34.824Z</time>
      </trkpt>
      <trkpt lat="39.040387" lon="16.576968">
        <ele>988.818081</ele>
        <time>2023-12-04T08:29:35.958Z</time>
      </trkpt>
      <trkpt lat="39.040407" lon="16.577078">
        <ele>988.895732</ele>
        <time>2023-12-04T08:29:37.366Z</time>
      </trkpt>
      <trkpt lat="39.040620" lon="16.577247">
        <ele>989.117143</ele>
        <time>2023-12-04T08:29:41.111Z</time>
      </trkpt>
      <trkpt lat="39.041122" lon="16.577567">
        <ele>989.612853</ele>
        <time>2023-12-04T08:29:57.518Z</time>
      </trkpt>
      <trkpt lat="39.041351" lon="16.577664">
        <ele>989.826190</ele>
        <time>2023-12-04T08:30:06.007Z</time>
      </trkpt>
      <trkpt lat="39.041812" lon="16.577933">
        <ele>990.309445</ele>
        <time>2023-12-04T08:30:25.148Z</time>
      </trkpt>
      <trkpt lat="39.042029" lon="16.578107">
        <ele>990.557611</ele>
        <time>2023-12-04T08:30:32.708Z</time>
      </trkpt>
      <trkpt lat="39.042065" lon="16.578247">
        <ele>990.668802</ele>
        <time>2023-12-04T08:30:36.020Z</time>
      </trkpt>
      <trkpt lat="39.042022" lon="16.578357">
        <ele>990.761651</ele>
        <time>2023-12-04T08:30:38.027Z</time>
      </trkpt>
      <trkpt lat="39.041975" lon="16.578401">
        <ele>990.818062</ele>
        <time>2023-12-04T08:30:39.207Z</time>
      </trkpt>
      <trkpt lat="39.041811" lon="16.578448">
        <ele>990.981162</ele>
        <time>2023-12-04T08:30:42.683Z</time>
      </trkpt>
      <trkpt lat="39.041428" lon="16.578618">
        <ele>991.374436</ele>
        <time>2023-12-04T08:30:47.987Z</time>
      </trkpt>
      <trkpt lat="39.041062" lon="16.578580">
        <ele>991.167913</ele>
        <time>2023-12-04T08:30:51.663Z</time>
      </trkpt>
      <trkpt lat="39.040645" lon="16.578585">
        <ele>988.547627</ele>
        <time>2023-12-04T08:30:55.396Z</time>
      </trkpt>
      <trkpt lat="39.040503" lon="16.578629">
        <ele>987.629910</ele>
        <time>2023-12-04T08:30:56.670Z</time>
      </trkpt>
      <trkpt lat="39.040210" lon="16.578851">
        <ele>985.493740</ele>
        <time>2023-12-04T08:30:59.616Z</time>
      </trkpt>
      <trkpt lat="39.040055" lon="16.578937">
        <ele>984.433228</ele>
        <time>2023-12-04T08:31:01.080Z</time>
      </trkpt>
      <trkpt lat="39.039890" lon="16.578982">
        <ele>983.373464</ele>
        <time>2023-12-04T08:31:02.557Z</time>
      </trkpt>
      <trkpt lat="39.039611" lon="16.579005">
        <ele>981.616809</ele>
        <time>2023-12-04T08:31:05.109Z</time>
      </trkpt>
      <trkpt lat="39.039374" lon="16.579185">
        <ele>980.123466</ele>
        <time>2023-12-04T08:31:07.859Z</time>
      </trkpt>
      <trkpt lat="39.039276" lon="16.579225">
        <ele>979.804016</ele>
        <time>2023-12-04T08:31:08.954Z</time>
      </trkpt>
      <trkpt lat="39.038697" lon="16.579292">
        <ele>977.997652</ele>
        <time>2023-12-04T08:31:15.713Z</time>
      </trkpt>
      <trkpt lat="39.038646" lon="16.579337">
        <ele>977.805536</ele>
        <time>2023-12-04T08:31:16.498Z</time>
      </trkpt>
      <trkpt lat="39.038618" lon="16.579445">
        <ele>977.530743</ele>
        <time>2023-12-04T08:31:17.489Z</time>
      </trkpt>
      <trkpt lat="39.038630" lon="16.579660">
        <ele>977.010505</ele>
        <time>2023-12-04T08:31:19.318Z</time>
      </trkpt>
      <trkpt lat="39.038689" lon="16.580011">
        <ele>976.143761</ele>
        <time>2023-12-04T08:31:22.263Z</time>
      </trkpt>
      <trkpt lat="39.038782" lon="16.580182">
        <ele>975.639942</ele>
        <time>2023-12-04T08:31:23.912Z</time>
      </trkpt>
      <trkpt lat="39.038797" lon="16.580269">
        <ele>975.424858</ele>
        <time>2023-12-04T08:31:24.624Z</time>
      </trkpt>
      <trkpt lat="39.038773" lon="16.580342">
        <ele>975.233541</ele>
        <time>2023-12-04T08:31:25.242Z</time>
      </trkpt>
      <trkpt lat="39.038696" lon="16.580386">
        <ele>974.971773</ele>
        <time>2023-12-04T08:31:26.094Z</time>
      </trkpt>
      <trkpt lat="39.038618" lon="16.580391">
        <ele>974.622992</ele>
        <time>2023-12-04T08:31:26.847Z</time>
      </trkpt>
      <trkpt lat="39.038536" lon="16.580313">
        <ele>973.372247</ele>
        <time>2023-12-04T08:31:27.863Z</time>
      </trkpt>
      <trkpt lat="39.038260" lon="16.579923">
        <ele>968.344862</ele>
        <time>2023-12-04T08:31:31.623Z</time>
      </trkpt>
      <trkpt lat="39.038102" lon="16.579901">
        <ele>966.395242</ele>
        <time>2023-12-04T08:31:33.015Z</time>
      </trkpt>
      <trkpt lat="39.037679" lon="16.580071">
        <ele>960.958993</ele>
        <time>2023-12-04T08:31:36.747Z</time>
      </trkpt>
      <trkpt lat="39.037508" lon="16.580113">
        <ele>958.823360</ele>
        <time>2023-12-04T08:31:38.190Z</time>
      </trkpt>
      <trkpt lat="39.037398" lon="16.580033">
        <ele>957.273470</ele>
        <time>2023-12-04T08:31:39.228Z</time>
      </trkpt>
      <trkpt lat="39.037217" lon="16.579805">
        <ele>954.166924</ele>
        <time>2023-12-04T08:31:41.296Z</time>
      </trkpt>
      <trkpt lat="39.037005" lon="16.579722">
        <ele>951.165418</ele>
        <time>2023-12-04T08:31:43.113Z</time>
      </trkpt>
      <trkpt lat="39.036806" lon="16.579687">
        <ele>948.143838</ele>
        <time>2023-12-04T08:31:44.750Z</time>
      </trkpt>
      <trkpt lat="39.036539" lon="16.579739">
        <ele>944.081367</ele>
        <time>2023-12-04T08:31:46.961Z</time>
      </trkpt>
      <trkpt lat="39.036399" lon="16.579807">
        <ele>941.830286</ele>
        <time>2023-12-04T08:31:48.192Z</time>
      </trkpt>
      <trkpt lat="39.036245" lon="16.579926">
        <ele>939.128215</ele>
        <time>2023-12-04T08:31:49.672Z</time>
      </trkpt>
      <trkpt lat="39.036132" lon="16.579972">
        <ele>937.345275</ele>
        <time>2023-12-04T08:31:50.652Z</time>
      </trkpt>
      <trkpt lat="39.035924" lon="16.579993">
        <ele>934.206498</ele>
        <time>2023-12-04T08:31:52.393Z</time>
      </trkpt>
      <trkpt lat="39.035876" lon="16.580044">
        <ele>933.270217</ele>
        <time>2023-12-04T08:31:52.915Z</time>
      </trkpt>
      <trkpt lat="39.035834" lon="16.580203">
        <ele>931.307721</ele>
        <time>2023-12-04T08:31:54.012Z</time>
      </trkpt>
      <trkpt lat="39.035826" lon="16.580440">
        <ele>928.535637</ele>
        <time>2023-12-04T08:31:55.594Z</time>
      </trkpt>
      <trkpt lat="39.035866" lon="16.580687">
        <ele>925.616610</ele>
        <time>2023-12-04T08:31:57.286Z</time>
      </trkpt>
      <trkpt lat="39.035826" lon="16.581051">
        <ele>923.679876</ele>
        <time>2023-12-04T08:31:59.855Z</time>
      </trkpt>
      <trkpt lat="39.035768" lon="16.581192">
        <ele>922.839322</ele>
        <time>2023-12-04T08:32:00.986Z</time>
      </trkpt>
      <trkpt lat="39.035612" lon="16.581371">
        <ele>921.422016</ele>
        <time>2023-12-04T08:32:02.959Z</time>
      </trkpt>
      <trkpt lat="39.035595" lon="16.581490">
        <ele>920.784579</ele>
        <time>2023-12-04T08:32:03.838Z</time>
      </trkpt>
      <trkpt lat="39.035679" lon="16.581621">
        <ele>919.889661</ele>
        <time>2023-12-04T08:32:05.117Z</time>
      </trkpt>
      <trkpt lat="39.035918" lon="16.581628">
        <ele>918.268250</ele>
        <time>2023-12-04T08:32:07.395Z</time>
      </trkpt>
      <trkpt lat="39.035981" lon="16.581672">
        <ele>917.782133</ele>
        <time>2023-12-04T08:32:08.089Z</time>
      </trkpt>
      <trkpt lat="39.036003" lon="16.581727">
        <ele>917.456218</ele>
        <time>2023-12-04T08:32:08.545Z</time>
      </trkpt>
      <trkpt lat="39.036005" lon="16.581795">
        <ele>917.097722</ele>
        <time>2023-12-04T08:32:09.051Z</time>
      </trkpt>
      <trkpt lat="39.035881" lon="16.582333">
        <ele>914.141270</ele>
        <time>2023-12-04T08:32:13.071Z</time>
      </trkpt>
      <trkpt lat="39.035795" lon="16.582389">
        <ele>913.487618</ele>
        <time>2023-12-04T08:32:13.929Z</time>
      </trkpt>
      <trkpt lat="39.035537" lon="16.582376">
        <ele>910.068567</ele>
        <time>2023-12-04T08:32:16.201Z</time>
      </trkpt>
      <trkpt lat="39.035391" lon="16.582419">
        <ele>908.059185</ele>
        <time>2023-12-04T08:32:17.479Z</time>
      </trkpt>
      <trkpt lat="39.035074" lon="16.582694">
        <ele>902.930761</ele>
        <time>2023-12-04T08:32:20.686Z</time>
      </trkpt>
      <trkpt lat="39.034913" lon="16.582793">
        <ele>900.536996</ele>
        <time>2023-12-04T08:32:22.162Z</time>
      </trkpt>
      <trkpt lat="39.034768" lon="16.582953">
        <ele>897.974834</ele>
        <time>2023-12-04T08:32:23.736Z</time>
      </trkpt>
      <trkpt lat="39.034518" lon="16.583452">
        <ele>891.786762</ele>
        <time>2023-12-04T08:32:27.535Z</time>
      </trkpt>
      <trkpt lat="39.034518" lon="16.583633">
        <ele>889.900501</ele>
        <time>2023-12-04T08:32:28.700Z</time>
      </trkpt>
      <trkpt lat="39.034543" lon="16.583706">
        <ele>889.123927</ele>
        <time>2023-12-04T08:32:29.212Z</time>
      </trkpt>
      <trkpt lat="39.034863" lon="16.584297">
        <ele>883.321806</ele>
        <time>2023-12-04T08:32:33.872Z</time>
      </trkpt>
      <trkpt lat="39.034934" lon="16.584460">
        <ele>881.816709</ele>
        <time>2023-12-04T08:32:35.100Z</time>
      </trkpt>
      <trkpt lat="39.034979" lon="16.584635">
        <ele>880.332064</ele>
        <time>2023-12-04T08:32:36.305Z</time>
      </trkpt>
      <trkpt lat="39.035048" lon="16.584725">
        <ele>879.313618</ele>
        <time>2023-12-04T08:32:37.138Z</time>
      </trkpt>
      <trkpt lat="39.035152" lon="16.584721">
        <ele>878.234815</ele>
        <time>2023-12-04T08:32:38.030Z</time>
      </trkpt>
      <trkpt lat="39.035383" lon="16.584609">
        <ele>875.675470</ele>
        <time>2023-12-04T08:32:40.151Z</time>
      </trkpt>
      <trkpt lat="39.035752" lon="16.584602">
        <ele>871.849085</ele>
        <time>2023-12-04T08:32:43.468Z</time>
      </trkpt>
      <trkpt lat="39.035824" lon="16.584626">
        <ele>871.077937</ele>
        <time>2023-12-04T08:32:44.220Z</time>
      </trkpt>
      <trkpt lat="39.035899" lon="16.584701">
        <ele>870.707950</ele>
        <time>2023-12-04T08:32:45.198Z</time>
      </trkpt>
      <trkpt lat="39.036049" lon="16.585113">
        <ele>871.008983</ele>
        <time>2023-12-04T08:32:50.515Z</time>
      </trkpt>
      <trkpt lat="39.036142" lon="16.585209">
        <ele>871.110513</ele>
        <time>2023-12-04T08:32:53.082Z</time>
      </trkpt>
      <trkpt lat="39.036786" lon="16.585384">
        <ele>871.671121</ele>
        <time>2023-12-04T08:33:10.356Z</time>
      </trkpt>
      <trkpt lat="39.037162" lon="16.585556">
        <ele>872.010992</ele>
        <time>2023-12-04T08:33:18.367Z</time>
      </trkpt>
      <trkpt lat="39.037340" lon="16.585485">
        <ele>872.169712</ele>
        <time>2023-12-04T08:33:21.838Z</time>
      </trkpt>
      <trkpt lat="39.037491" lon="16.585264">
        <ele>872.820148</ele>
        <time>2023-12-04T08:33:27.170Z</time>
      </trkpt>
      <trkpt lat="39.037596" lon="16.585186">
        <ele>873.198297</ele>
        <time>2023-12-04T08:33:30.559Z</time>
      </trkpt>
      <trkpt lat="39.037685" lon="16.585181">
        <ele>873.476186</ele>
        <time>2023-12-04T08:33:33.172Z</time>
      </trkpt>
      <trkpt lat="39.037790" lon="16.585225">
        <ele>873.820635</ele>
        <time>2023-12-04T08:33:36.867Z</time>
      </trkpt>
      <trkpt lat="39.037870" lon="16.585313">
        <ele>874.148868</ele>
        <time>2023-12-04T08:33:40.534Z</time>
      </trkpt>
      <trkpt lat="39.037939" lon="16.585557">
        <ele>874.778022</ele>
        <time>2023-12-04T08:33:47.354Z</time>
      </trkpt>
      <trkpt lat="39.038012" lon="16.585675">
        <ele>875.143529</ele>
        <time>2023-12-04T08:33:52.090Z</time>
      </trkpt>
      <trkpt lat="39.038436" lon="16.585905">
        <ele>876.578754</ele>
        <time>2023-12-04T08:34:07.162Z</time>
      </trkpt>
      <trkpt lat="39.038465" lon="16.585973">
        <ele>876.766712</ele>
        <time>2023-12-04T08:34:08.753Z</time>
      </trkpt>
      <trkpt lat="39.038483" lon="16.586178">
        <ele>877.266570</ele>
        <time>2023-12-04T08:34:12.324Z</time>
      </trkpt>
      <trkpt lat="39.038550" lon="16.586375">
        <ele>877.787632</ele>
        <time>2023-12-04T08:34:15.180Z</time>
      </trkpt>
      <trkpt lat="39.038684" lon="16.586624">
        <ele>877.609827</ele>
        <time>2023-12-04T08:34:19.136Z</time>
      </trkpt>
      <trkpt lat="39.038821" lon="16.586797">
        <ele>877.447923</ele>
        <time>2023-12-04T08:34:22.006Z</time>
      </trkpt>
      <trkpt lat="39.038851" lon="16.586884">
        <ele>877.385545</ele>
        <time>2023-12-04T08:34:23.118Z</time>
      </trkpt>
      <trkpt lat="39.038828" lon="16.586980">
        <ele>877.319710</ele>
        <time>2023-12-04T08:34:24.134Z</time>
      </trkpt>
      <trkpt lat="39.038743" lon="16.587015">
        <ele>877.244418</ele>
        <time>2023-12-04T08:34:25.270Z</time>
      </trkpt>
      <trkpt lat="39.038332" lon="16.586820">
        <ele>876.874862</ele>
        <time>2023-12-04T08:34:31.538Z</time>
      </trkpt>
      <trkpt lat="39.038231" lon="16.586833">
        <ele>876.789224</ele>
        <time>2023-12-04T08:34:33.160Z</time>
      </trkpt>
      <trkpt lat="39.038059" lon="16.587000">
        <ele>876.607468</ele>
        <time>2023-12-04T08:34:36.085Z</time>
      </trkpt>
      <trkpt lat="39.037921" lon="16.587241">
        <ele>876.411257</ele>
        <time>2023-12-04T08:34:38.668Z</time>
      </trkpt>
      <trkpt lat="39.037835" lon="16.587303">
        <ele>876.328098</ele>
        <time>2023-12-04T08:34:39.686Z</time>
      </trkpt>
      <trkpt lat="39.037578" lon="16.587352">
        <ele>873.735197</ele>
        <time>2023-12-04T08:34:42.194Z</time>
      </trkpt>
      <trkpt lat="39.037395" lon="16.587504">
        <ele>871.094593</ele>
        <time>2023-12-04T08:34:44.198Z</time>
      </trkpt>
      <trkpt lat="39.036805" lon="16.587602">
        <ele>863.881481</ele>
        <time>2023-12-04T08:34:49.337Z</time>
      </trkpt>
      <trkpt lat="39.036386" lon="16.587778">
        <ele>858.537484</ele>
        <time>2023-12-04T08:34:52.992Z</time>
      </trkpt>
      <trkpt lat="39.036102" lon="16.587960">
        <ele>854.690918</ele>
        <time>2023-12-04T08:34:55.587Z</time>
      </trkpt>
      <trkpt lat="39.035448" lon="16.588044">
        <ele>842.427959</ele>
        <time>2023-12-04T08:35:00.953Z</time>
      </trkpt>
      <trkpt lat="39.034773" lon="16.588016">
        <ele>829.705911</ele>
        <time>2023-12-04T08:35:06.474Z</time>
      </trkpt>
      <trkpt lat="39.034630" lon="16.588066">
        <ele>826.914534</ele>
        <time>2023-12-04T08:35:07.698Z</time>
      </trkpt>
      <trkpt lat="39.034540" lon="16.588135">
        <ele>824.941279</ele>
        <time>2023-12-04T08:35:08.560Z</time>
      </trkpt>
      <trkpt lat="39.034491" lon="16.588234">
        <ele>823.223574</ele>
        <time>2023-12-04T08:35:09.328Z</time>
      </trkpt>
      <trkpt lat="39.034498" lon="16.588501">
        <ele>820.538759</ele>
        <time>2023-12-04T08:35:11.068Z</time>
      </trkpt>
      <trkpt lat="39.034556" lon="16.588811">
        <ele>820.332575</ele>
        <time>2023-12-04T08:35:13.188Z</time>
      </trkpt>
      <trkpt lat="39.034628" lon="16.588916">
        <ele>820.242010</ele>
        <time>2023-12-04T08:35:14.126Z</time>
      </trkpt>
      <trkpt lat="39.035303" lon="16.589365">
        <ele>819.609536</ele>
        <time>2023-12-04T08:35:21.690Z</time>
      </trkpt>
      <trkpt lat="39.035582" lon="16.589433">
        <ele>819.373158</ele>
        <time>2023-12-04T08:35:32.934Z</time>
      </trkpt>
      <trkpt lat="39.035642" lon="16.589509">
        <ele>819.303089</ele>
        <time>2023-12-04T08:35:37.758Z</time>
      </trkpt>
      <trkpt lat="39.035623" lon="16.590118">
        <ele>821.473799</ele>
        <time>2023-12-04T08:36:11.409Z</time>
      </trkpt>
      <trkpt lat="39.035601" lon="16.590183">
        <ele>822.049775</ele>
        <time>2023-12-04T08:36:16.014Z</time>
      </trkpt>
      <trkpt lat="39.035554" lon="16.590240">
        <ele>822.725062</ele>
        <time>2023-12-04T08:36:21.450Z</time>
      </trkpt>
      <trkpt lat="39.035270" lon="16.590406">
        <ele>825.986988</ele>
        <time>2023-12-04T08:36:45.922Z</time>
      </trkpt>
      <trkpt lat="39.035207" lon="16.590469">
        <ele>826.821271</ele>
        <time>2023-12-04T08:36:52.085Z</time>
      </trkpt>
      <trkpt lat="39.035147" lon="16.590587">
        <ele>827.966966</ele>
        <time>2023-12-04T08:37:00.147Z</time>
      </trkpt>
      <trkpt lat="39.035156" lon="16.590700">
        <ele>828.889737</ele>
        <time>2023-12-04T08:37:06.095Z</time>
      </trkpt>
      <trkpt lat="39.035561" lon="16.591496">
        <ele>836.619764</ele>
        <time>2023-12-04T08:37:41.979Z</time>
      </trkpt>
      <trkpt lat="39.035570" lon="16.591604">
        <ele>837.502135</ele>
        <time>2023-12-04T08:37:44.774Z</time>
      </trkpt>
      <trkpt lat="39.035548" lon="16.591658">
        <ele>837.893191</ele>
        <time>2023-12-04T08:37:46.239Z</time>
      </trkpt>
      <trkpt lat="39.035375" lon="16.591750">
        <ele>837.551089</ele>
        <time>2023-12-04T08:37:52.273Z</time>
      </trkpt>
      <trkpt lat="39.034943" lon="16.591713">
        <ele>836.759785</ele>
        <time>2023-12-04T08:38:04.783Z</time>
      </trkpt>
      <trkpt lat="39.034605" lon="16.591577">
        <ele>836.112559</ele>
        <time>2023-12-04T08:38:12.317Z</time>
      </trkpt>
      <trkpt lat="39.034235" lon="16.591386">
        <ele>835.383977</ele>
        <time>2023-12-04T08:38:16.276Z</time>
      </trkpt>
      <trkpt lat="39.034062" lon="16.591333">
        <ele>835.058959</ele>
        <time>2023-12-04T08:38:17.839Z</time>
      </trkpt>
      <trkpt lat="39.033963" lon="16.591348">
        <ele>834.876769</ele>
        <time>2023-12-04T08:38:18.700Z</time>
      </trkpt>
      <trkpt lat="39.033583" lon="16.591501">
        <ele>831.445808</ele>
        <time>2023-12-04T08:38:22.029Z</time>
      </trkpt>
      <trkpt lat="39.033126" lon="16.591603">
        <ele>825.745943</ele>
        <time>2023-12-04T08:38:25.877Z</time>
      </trkpt>
      <trkpt lat="39.033033" lon="16.591636">
        <ele>824.560444</ele>
        <time>2023-12-04T08:38:26.679Z</time>
      </trkpt>
      <trkpt lat="39.032818" lon="16.591781">
        <ele>821.577693</ele>
        <time>2023-12-04T08:38:28.726Z</time>
      </trkpt>
      <trkpt lat="39.032701" lon="16.591794">
        <ele>820.134532</ele>
        <time>2023-12-04T08:38:29.720Z</time>
      </trkpt>
      <trkpt lat="39.032640" lon="16.591760">
        <ele>819.317655</ele>
        <time>2023-12-04T08:38:30.282Z</time>
      </trkpt>
      <trkpt lat="39.032512" lon="16.591479">
        <ele>816.208045</ele>
        <time>2023-12-04T08:38:32.474Z</time>
      </trkpt>
      <trkpt lat="39.032418" lon="16.591430">
        <ele>814.961767</ele>
        <time>2023-12-04T08:38:33.336Z</time>
      </trkpt>
      <trkpt lat="39.032096" lon="16.591618">
        <ele>810.422362</ele>
        <time>2023-12-04T08:38:36.368Z</time>
      </trkpt>
      <trkpt lat="39.031767" lon="16.591725">
        <ele>805.825825</ele>
        <time>2023-12-04T08:38:39.220Z</time>
      </trkpt>
      <trkpt lat="39.031647" lon="16.591816">
        <ele>803.939286</ele>
        <time>2023-12-04T08:38:40.385Z</time>
      </trkpt>
      <trkpt lat="39.031592" lon="16.591950">
        <ele>802.344581</ele>
        <time>2023-12-04T08:38:41.364Z</time>
      </trkpt>
      <trkpt lat="39.031576" lon="16.592263">
        <ele>799.043994</ele>
        <time>2023-12-04T08:38:43.373Z</time>
      </trkpt>
      <trkpt lat="39.031546" lon="16.592344">
        <ele>798.099772</ele>
        <time>2023-12-04T08:38:43.952Z</time>
      </trkpt>
      <trkpt lat="39.031488" lon="16.592374">
        <ele>797.253080</ele>
        <time>2023-12-04T08:38:44.471Z</time>
      </trkpt>
      <trkpt lat="39.031111" lon="16.592315">
        <ele>792.108772</ele>
        <time>2023-12-04T08:38:47.618Z</time>
      </trkpt>
      <trkpt lat="39.030715" lon="16.592330">
        <ele>787.130195</ele>
        <time>2023-12-04T08:38:50.946Z</time>
      </trkpt>
      <trkpt lat="39.030290" lon="16.592260">
        <ele>782.920883</ele>
        <time>2023-12-04T08:38:54.627Z</time>
      </trkpt>
      <trkpt lat="39.030181" lon="16.592184">
        <ele>781.703062</ele>
        <time>2023-12-04T08:38:55.711Z</time>
      </trkpt>
      <trkpt lat="39.030005" lon="16.591984">
        <ele>779.396708</ele>
        <time>2023-12-04T08:38:57.783Z</time>
      </trkpt>
      <trkpt lat="39.029946" lon="16.591956">
        <ele>778.778947</ele>
        <time>2023-12-04T08:38:58.334Z</time>
      </trkpt>
      <trkpt lat="39.029862" lon="16.591965">
        <ele>777.950863</ele>
        <time>2023-12-04T08:38:59.078Z</time>
      </trkpt>
      <trkpt lat="39.029799" lon="16.592022">
        <ele>777.194363</ele>
        <time>2023-12-04T08:38:59.758Z</time>
      </trkpt>
      <trkpt lat="39.029780" lon="16.592074">
        <ele>776.755812</ele>
        <time>2023-12-04T08:39:00.150Z</time>
      </trkpt>
      <trkpt lat="39.029781" lon="16.592241">
        <ele>775.481296</ele>
        <time>2023-12-04T08:39:01.269Z</time>
      </trkpt>
      <trkpt lat="39.029840" lon="16.592465">
        <ele>773.676223</ele>
        <time>2023-12-04T08:39:02.867Z</time>
      </trkpt>
      <trkpt lat="39.029973" lon="16.592731">
        <ele>771.262065</ele>
        <time>2023-12-04T08:39:04.982Z</time>
      </trkpt>
      <trkpt lat="39.029994" lon="16.592904">
        <ele>770.042203</ele>
        <time>2023-12-04T08:39:06.157Z</time>
      </trkpt>
      <trkpt lat="39.029919" lon="16.593233">
        <ele>767.971471</ele>
        <time>2023-12-04T08:39:08.489Z</time>
      </trkpt>
      <trkpt lat="39.029966" lon="16.593557">
        <ele>765.980900</ele>
        <time>2023-12-04T08:39:10.745Z</time>
      </trkpt>
      <trkpt lat="39.029933" lon="16.593636">
        <ele>765.439186</ele>
        <time>2023-12-04T08:39:11.377Z</time>
      </trkpt>
      <trkpt lat="39.029899" lon="16.593651">
        <ele>765.159762</ele>
        <time>2023-12-04T08:39:11.708Z</time>
      </trkpt>
      <trkpt lat="39.029839" lon="16.593621">
        <ele>764.659343</ele>
        <time>2023-12-04T08:39:12.281Z</time>
      </trkpt>
      <trkpt lat="39.029794" lon="16.593470">
        <ele>763.682597</ele>
        <time>2023-12-04T08:39:13.449Z</time>
      </trkpt>
      <trkpt lat="39.029775" lon="16.593266">
        <ele>762.441745</ele>
        <time>2023-12-04T08:39:14.916Z</time>
      </trkpt>
      <trkpt lat="39.029786" lon="16.593032">
        <ele>761.025950</ele>
        <time>2023-12-04T08:39:16.594Z</time>
      </trkpt>
      <trkpt lat="39.029733" lon="16.592733">
        <ele>759.173768</ele>
        <time>2023-12-04T08:39:18.740Z</time>
      </trkpt>
      <trkpt lat="39.029468" lon="16.592060">
        <ele>755.846922</ele>
        <time>2023-12-04T08:39:23.844Z</time>
      </trkpt>
      <trkpt lat="39.029469" lon="16.591817">
        <ele>755.337785</ele>
        <time>2023-12-04T08:39:25.475Z</time>
      </trkpt>
      <trkpt lat="39.029515" lon="16.591624">
        <ele>754.914810</ele>
        <time>2023-12-04T08:39:26.835Z</time>
      </trkpt>
      <trkpt lat="39.029585" lon="16.591535">
        <ele>754.649449</ele>
        <time>2023-12-04T08:39:27.720Z</time>
      </trkpt>
      <trkpt lat="39.029755" lon="16.591438">
        <ele>754.147915</ele>
        <time>2023-12-04T08:39:29.439Z</time>
      </trkpt>
      <trkpt lat="39.029811" lon="16.591372">
        <ele>753.943136</ele>
        <time>2023-12-04T08:39:30.159Z</time>
      </trkpt>
      <trkpt lat="39.029780" lon="16.591279">
        <ele>753.731104</ele>
        <time>2023-12-04T08:39:31.004Z</time>
      </trkpt>
      <trkpt lat="39.029731" lon="16.591266">
        <ele>753.596167</ele>
        <time>2023-12-04T08:39:31.608Z</time>
      </trkpt>
      <trkpt lat="39.029635" lon="16.591323">
        <ele>753.311029</ele>
        <time>2023-12-04T08:39:33.553Z</time>
      </trkpt>
      <trkpt lat="39.029428" lon="16.591517">
        <ele>752.620437</ele>
        <time>2023-12-04T08:39:42.487Z</time>
      </trkpt>
      <trkpt lat="39.029349" lon="16.591662">
        <ele>752.249363</ele>
        <time>2023-12-04T08:39:46.991Z</time>
      </trkpt>
      <trkpt lat="39.029325" lon="16.591762">
        <ele>752.030073</ele>
        <time>2023-12-04T08:39:49.569Z</time>
      </trkpt>
      <trkpt lat="39.029303" lon="16.592145">
        <ele>751.058501</ele>
        <time>2023-12-04T08:39:59.614Z</time>
      </trkpt>
      <trkpt lat="39.029321" lon="16.592312">
        <ele>750.566088</ele>
        <time>2023-12-04T08:40:03.703Z</time>
      </trkpt>
      <trkpt lat="39.029443" lon="16.592831">
        <ele>748.982419</ele>
        <time>2023-12-04T08:40:12.829Z</time>
      </trkpt>
      <trkpt lat="39.029420" lon="16.593024">
        <ele>748.412150</ele>
        <time>2023-12-04T08:40:14.755Z</time>
      </trkpt>
      <trkpt lat="39.029344" lon="16.593187">
        <ele>747.856925</ele>
        <time>2023-12-04T08:40:16.357Z</time>
      </trkpt>
      <trkpt lat="39.029243" lon="16.593253">
        <ele>747.431075</ele>
        <time>2023-12-04T08:40:17.514Z</time>
      </trkpt>
      <trkpt lat="39.029141" lon="16.593217">
        <ele>747.033437</ele>
        <time>2023-12-04T08:40:18.482Z</time>
      </trkpt>
      <trkpt lat="39.028280" lon="16.592415">
        <ele>736.240467</ele>
        <time>2023-12-04T08:40:27.452Z</time>
      </trkpt>
      <trkpt lat="39.028228" lon="16.592389">
        <ele>735.259733</ele>
        <time>2023-12-04T08:40:27.913Z</time>
      </trkpt>
      <trkpt lat="39.028037" lon="16.592383">
        <ele>731.900829</ele>
        <time>2023-12-04T08:40:29.476Z</time>
      </trkpt>
      <trkpt lat="39.027679" lon="16.592498">
        <ele>725.413948</ele>
        <time>2023-12-04T08:40:32.486Z</time>
      </trkpt>
      <trkpt lat="39.027421" lon="16.592493">
        <ele>720.877626</ele>
        <time>2023-12-04T08:40:34.590Z</time>
      </trkpt>
      <trkpt lat="39.027126" lon="16.592617">
        <ele>715.421834</ele>
        <time>2023-12-04T08:40:37.129Z</time>
      </trkpt>
      <trkpt lat="39.026992" lon="16.592782">
        <ele>712.792774</ele>
        <time>2023-12-04T08:40:38.663Z</time>
      </trkpt>
      <trkpt lat="39.026824" lon="16.593313">
        <ele>709.438921</ele>
        <time>2023-12-04T08:40:42.407Z</time>
      </trkpt>
      <trkpt lat="39.026798" lon="16.593454">
        <ele>708.591210</ele>
        <time>2023-12-04T08:40:43.386Z</time>
      </trkpt>
      <trkpt lat="39.026769" lon="16.593955">
        <ele>705.652437</ele>
        <time>2023-12-04T08:40:47.067Z</time>
      </trkpt>
      <trkpt lat="39.026730" lon="16.594101">
        <ele>704.749316</ele>
        <time>2023-12-04T08:40:48.270Z</time>
      </trkpt>
      <trkpt lat="39.026468" lon="16.594370">
        <ele>702.225807</ele>
        <time>2023-12-04T08:40:51.805Z</time>
      </trkpt>
      <trkpt lat="39.026423" lon="16.594465">
        <ele>701.574935</ele>
        <time>2023-12-04T08:40:52.699Z</time>
      </trkpt>
      <trkpt lat="39.026459" lon="16.594904">
        <ele>699.252298</ele>
        <time>2023-12-04T08:40:56.245Z</time>
      </trkpt>
      <trkpt lat="39.026429" lon="16.595145">
        <ele>698.332827</ele>
        <time>2023-12-04T08:40:58.275Z</time>
      </trkpt>
      <trkpt lat="39.026360" lon="16.595222">
        <ele>697.889997</ele>
        <time>2023-12-04T08:40:59.253Z</time>
      </trkpt>
      <trkpt lat="39.026125" lon="16.595312">
        <ele>696.701053</ele>
        <time>2023-12-04T08:41:01.813Z</time>
      </trkpt>
      <trkpt lat="39.025839" lon="16.595327">
        <ele>695.313014</ele>
        <time>2023-12-04T08:41:04.664Z</time>
      </trkpt>
      <trkpt lat="39.025727" lon="16.595285">
        <ele>694.747319</ele>
        <time>2023-12-04T08:41:05.771Z</time>
      </trkpt>
      <trkpt lat="39.025562" lon="16.595140">
        <ele>693.778511</ele>
        <time>2023-12-04T08:41:07.626Z</time>
      </trkpt>
      <trkpt lat="39.025449" lon="16.594967">
        <ele>692.927030</ele>
        <time>2023-12-04T08:41:09.238Z</time>
      </trkpt>
      <trkpt lat="39.025363" lon="16.594885">
        <ele>692.408044</ele>
        <time>2023-12-04T08:41:10.193Z</time>
      </trkpt>
      <trkpt lat="39.025274" lon="16.594891">
        <ele>691.975868</ele>
        <time>2023-12-04T08:41:10.989Z</time>
      </trkpt>
      <trkpt lat="39.025204" lon="16.594945">
        <ele>691.580130</ele>
        <time>2023-12-04T08:41:11.730Z</time>
      </trkpt>
      <trkpt lat="39.025037" lon="16.595134">
        <ele>690.226887</ele>
        <time>2023-12-04T08:41:13.709Z</time>
      </trkpt>
      <trkpt lat="39.024711" lon="16.595380">
        <ele>687.382887</ele>
        <time>2023-12-04T08:41:16.989Z</time>
      </trkpt>
      <trkpt lat="39.024517" lon="16.595434">
        <ele>685.889088</ele>
        <time>2023-12-04T08:41:18.713Z</time>
      </trkpt>
      <trkpt lat="39.024456" lon="16.595457">
        <ele>685.410709</ele>
        <time>2023-12-04T08:41:19.256Z</time>
      </trkpt>
      <trkpt lat="39.024372" lon="16.595538">
        <ele>684.620804</ele>
        <time>2023-12-04T08:41:20.170Z</time>
      </trkpt>
      <trkpt lat="39.024050" lon="16.595940">
        <ele>681.244816</ele>
        <time>2023-12-04T08:41:24.177Z</time>
      </trkpt>
      <trkpt lat="39.023912" lon="16.596177">
        <ele>679.513098</ele>
        <time>2023-12-04T08:41:26.344Z</time>
      </trkpt>
      <trkpt lat="39.023720" lon="16.596432">
        <ele>677.437105</ele>
        <time>2023-12-04T08:41:28.865Z</time>
      </trkpt>
      <trkpt lat="39.023418" lon="16.596617">
        <ele>674.947819</ele>
        <time>2023-12-04T08:41:31.882Z</time>
      </trkpt>
      <trkpt lat="39.023011" lon="16.597089">
        <ele>670.870466</ele>
        <time>2023-12-04T08:41:36.821Z</time>
      </trkpt>
      <trkpt lat="39.022784" lon="16.597285">
        <ele>668.836041</ele>
        <time>2023-12-04T08:41:39.277Z</time>
      </trkpt>
      <trkpt lat="39.022709" lon="16.597429">
        <ele>667.833593</ele>
        <time>2023-12-04T08:41:40.479Z</time>
      </trkpt>
      <trkpt lat="39.022585" lon="16.597849">
        <ele>665.235581</ele>
        <time>2023-12-04T08:41:43.556Z</time>
      </trkpt>
      <trkpt lat="39.022502" lon="16.598040">
        <ele>663.968643</ele>
        <time>2023-12-04T08:41:45.038Z</time>
      </trkpt>
      <trkpt lat="39.022483" lon="16.598134">
        <ele>663.399130</ele>
        <time>2023-12-04T08:41:45.684Z</time>
      </trkpt>
      <trkpt lat="39.022508" lon="16.598276">
        <ele>662.545409</ele>
        <time>2023-12-04T08:41:46.666Z</time>
      </trkpt>
      <trkpt lat="39.022706" lon="16.598572">
        <ele>660.255141</ele>
        <time>2023-12-04T08:41:49.275Z</time>
      </trkpt>
      <trkpt lat="39.022739" lon="16.598657">
        <ele>659.697984</ele>
        <time>2023-12-04T08:41:49.922Z</time>
      </trkpt>
      <trkpt lat="39.022721" lon="16.598754">
        <ele>659.113232</ele>
        <time>2023-12-04T08:41:50.596Z</time>
      </trkpt>
      <trkpt lat="39.022657" lon="16.598801">
        <ele>658.557123</ele>
        <time>2023-12-04T08:41:51.231Z</time>
      </trkpt>
      <trkpt lat="39.022589" lon="16.598770">
        <ele>658.012672</ele>
        <time>2023-12-04T08:41:51.853Z</time>
      </trkpt>
      <trkpt lat="39.022090" lon="16.598285">
        <ele>653.293518</ele>
        <time>2023-12-04T08:41:57.397Z</time>
      </trkpt>
      <trkpt lat="39.021812" lon="16.598124">
        <ele>650.992790</ele>
        <time>2023-12-04T08:42:00.219Z</time>
      </trkpt>
      <trkpt lat="39.021729" lon="16.598014">
        <ele>650.375605</ele>
        <time>2023-12-04T08:42:01.341Z</time>
      </trkpt>
      <trkpt lat="39.021718" lon="16.597862">
        <ele>650.099362</ele>
        <time>2023-12-04T08:42:02.521Z</time>
      </trkpt>
      <trkpt lat="39.021857" lon="16.597154">
        <ele>648.777925</ele>
        <time>2023-12-04T08:42:08.749Z</time>
      </trkpt>
      <trkpt lat="39.021931" lon="16.596618">
        <ele>647.792811</ele>
        <time>2023-12-04T08:42:13.833Z</time>
      </trkpt>
      <trkpt lat="39.022031" lon="16.596348">
        <ele>647.251554</ele>
        <time>2023-12-04T08:42:16.653Z</time>
      </trkpt>
      <trkpt lat="39.022179" lon="16.596163">
        <ele>646.771035</ele>
        <time>2023-12-04T08:42:18.960Z</time>
      </trkpt>
      <trkpt lat="39.022456" lon="16.595969">
        <ele>645.872491</ele>
        <time>2023-12-04T08:42:22.693Z</time>
      </trkpt>
      <trkpt lat="39.022751" lon="16.595777">
        <ele>644.644196</ele>
        <time>2023-12-04T08:42:26.237Z</time>
      </trkpt>
      <trkpt lat="39.022978" lon="16.595767">
        <ele>643.800235</ele>
        <time>2023-12-04T08:42:28.634Z</time>
      </trkpt>
      <trkpt lat="39.023088" lon="16.595697">
        <ele>643.344284</ele>
        <time>2023-12-04T08:42:29.863Z</time>
      </trkpt>
      <trkpt lat="39.023110" lon="16.595579">
        <ele>642.993981</ele>
        <time>2023-12-04T08:42:30.859Z</time>
      </trkpt>
      <trkpt lat="39.023096" lon="16.595498">
        <ele>642.754441</ele>
        <time>2023-12-04T08:42:31.551Z</time>
      </trkpt>
      <trkpt lat="39.023002" lon="16.595252">
        <ele>641.963062</ele>
        <time>2023-12-04T08:42:33.725Z</time>
      </trkpt>
      <trkpt lat="39.022958" lon="16.595051">
        <ele>641.360239</ele>
        <time>2023-12-04T08:42:35.315Z</time>
      </trkpt>
      <trkpt lat="39.022951" lon="16.594871">
        <ele>640.839980</ele>
        <time>2023-12-04T08:42:36.642Z</time>
      </trkpt>
      <trkpt lat="39.022986" lon="16.594683">
        <ele>640.281913</ele>
        <time>2023-12-04T08:42:38.035Z</time>
      </trkpt>
      <trkpt lat="39.023044" lon="16.594591">
        <ele>639.939894</ele>
        <time>2023-12-04T08:42:38.886Z</time>
      </trkpt>
      <trkpt lat="39.023114" lon="16.594565">
        <ele>639.669182</ele>
        <time>2023-12-04T08:42:39.544Z</time>
      </trkpt>
      <trkpt lat="39.023227" lon="16.594615">
        <ele>638.778296</ele>
        <time>2023-12-04T08:42:40.608Z</time>
      </trkpt>
      <trkpt lat="39.023337" lon="16.594703">
        <ele>637.764274</ele>
        <time>2023-12-04T08:42:41.755Z</time>
      </trkpt>
      <trkpt lat="39.023431" lon="16.594708">
        <ele>637.027680</ele>
        <time>2023-12-04T08:42:42.585Z</time>
      </trkpt>
      <trkpt lat="39.023489" lon="16.594611">
        <ele>636.283150</ele>
        <time>2023-12-04T08:42:43.407Z</time>
      </trkpt>
      <trkpt lat="39.023514" lon="16.594389">
        <ele>634.918704</ele>
        <time>2023-12-04T08:42:44.935Z</time>
      </trkpt>
      <trkpt lat="39.023541" lon="16.594327">
        <ele>634.486376</ele>
        <time>2023-12-04T08:42:45.423Z</time>
      </trkpt>
      <trkpt lat="39.023674" lon="16.594202">
        <ele>633.197027</ele>
        <time>2023-12-04T08:42:46.848Z</time>
      </trkpt>
      <trkpt lat="39.023739" lon="16.594072">
        <ele>632.256681</ele>
        <time>2023-12-04T08:42:47.888Z</time>
      </trkpt>
      <trkpt lat="39.023998" lon="16.593776">
        <ele>629.544925</ele>
        <time>2023-12-04T08:42:50.912Z</time>
      </trkpt>
      <trkpt lat="39.024111" lon="16.593398">
        <ele>627.081381</ele>
        <time>2023-12-04T08:42:53.706Z</time>
      </trkpt>
      <trkpt lat="39.024354" lon="16.593028">
        <ele>624.195434</ele>
        <time>2023-12-04T08:42:57.091Z</time>
      </trkpt>
      <trkpt lat="39.024386" lon="16.592940">
        <ele>623.629976</ele>
        <time>2023-12-04T08:42:57.779Z</time>
      </trkpt>
      <trkpt lat="39.024394" lon="16.592855">
        <ele>623.131686</ele>
        <time>2023-12-04T08:42:58.386Z</time>
      </trkpt>
      <trkpt lat="39.024360" lon="16.592721">
        <ele>622.311309</ele>
        <time>2023-12-04T08:42:59.369Z</time>
      </trkpt>
      <trkpt lat="39.024285" lon="16.592634">
        <ele>621.554996</ele>
        <time>2023-12-04T08:43:00.288Z</time>
      </trkpt>
      <trkpt lat="39.024215" lon="16.592609">
        <ele>621.010808</ele>
        <time>2023-12-04T08:43:00.950Z</time>
      </trkpt>
      <trkpt lat="39.024079" lon="16.592626">
        <ele>619.987224</ele>
        <time>2023-12-04T08:43:02.180Z</time>
      </trkpt>
      <trkpt lat="39.024016" lon="16.592661">
        <ele>619.473204</ele>
        <time>2023-12-04T08:43:02.790Z</time>
      </trkpt>
      <trkpt lat="39.023404" lon="16.593161">
        <ele>614.043144</ele>
        <time>2023-12-04T08:43:09.211Z</time>
      </trkpt>
      <trkpt lat="39.023328" lon="16.593301">
        <ele>613.049174</ele>
        <time>2023-12-04T08:43:10.369Z</time>
      </trkpt>
      <trkpt lat="39.023280" lon="16.593612">
        <ele>611.337902</ele>
        <time>2023-12-04T08:43:12.517Z</time>
      </trkpt>
      <trkpt lat="39.023173" lon="16.593749">
        <ele>610.381769</ele>
        <time>2023-12-04T08:43:13.845Z</time>
      </trkpt>
      <trkpt lat="39.023035" lon="16.593838">
        <ele>609.403895</ele>
        <time>2023-12-04T08:43:15.221Z</time>
      </trkpt>
      <trkpt lat="39.022900" lon="16.593838">
        <ele>608.548627</ele>
        <time>2023-12-04T08:43:16.462Z</time>
      </trkpt>
      <trkpt lat="39.022747" lon="16.593761">
        <ele>607.507868</ele>
        <time>2023-12-04T08:43:18.005Z</time>
      </trkpt>
      <trkpt lat="39.022336" lon="16.593303">
        <ele>604.063830</ele>
        <time>2023-12-04T08:43:23.219Z</time>
      </trkpt>
      <trkpt lat="39.022204" lon="16.593235">
        <ele>603.163080</ele>
        <time>2023-12-04T08:43:24.577Z</time>
      </trkpt>
      <trkpt lat="39.022138" lon="16.593232">
        <ele>602.744689</ele>
        <time>2023-12-04T08:43:25.188Z</time>
      </trkpt>
      <trkpt lat="39.021971" lon="16.593287">
        <ele>601.652607</ele>
        <time>2023-12-04T08:43:26.788Z</time>
      </trkpt>
      <trkpt lat="39.021863" lon="16.593407">
        <ele>600.748729</ele>
        <time>2023-12-04T08:43:28.084Z</time>
      </trkpt>
      <trkpt lat="39.021815" lon="16.593507">
        <ele>599.972233</ele>
        <time>2023-12-04T08:43:28.900Z</time>
      </trkpt>
      <trkpt lat="39.021806" lon="16.593678">
        <ele>598.799648</ele>
        <time>2023-12-04T08:43:30.081Z</time>
      </trkpt>
      <trkpt lat="39.021919" lon="16.594041">
        <ele>596.124228</ele>
        <time>2023-12-04T08:43:32.723Z</time>
      </trkpt>
      <trkpt lat="39.021911" lon="16.594152">
        <ele>595.361558</ele>
        <time>2023-12-04T08:43:33.468Z</time>
      </trkpt>
      <trkpt lat="39.021860" lon="16.594227">
        <ele>594.679656</ele>
        <time>2023-12-04T08:43:34.136Z</time>
      </trkpt>
      <trkpt lat="39.021815" lon="16.594251">
        <ele>594.250710</ele>
        <time>2023-12-04T08:43:34.555Z</time>
      </trkpt>
      <trkpt lat="39.021581" lon="16.594243">
        <ele>592.189348</ele>
        <time>2023-12-04T08:43:36.546Z</time>
      </trkpt>
      <trkpt lat="39.021167" lon="16.594431">
        <ele>588.323372</ele>
        <time>2023-12-04T08:43:40.382Z</time>
      </trkpt>
      <trkpt lat="39.021075" lon="16.594450">
        <ele>587.502846</ele>
        <time>2023-12-04T08:43:41.207Z</time>
      </trkpt>
      <trkpt lat="39.020662" lon="16.594277">
        <ele>583.379428</ele>
        <time>2023-12-04T08:43:45.026Z</time>
      </trkpt>
      <trkpt lat="39.020313" lon="16.594075">
        <ele>579.142161</ele>
        <time>2023-12-04T08:43:48.337Z</time>
      </trkpt>
      <trkpt lat="39.020232" lon="16.594041">
        <ele>578.198749</ele>
        <time>2023-12-04T08:43:49.060Z</time>
      </trkpt>
      <trkpt lat="39.020150" lon="16.594046">
        <ele>577.289735</ele>
        <time>2023-12-04T08:43:49.750Z</time>
      </trkpt>
      <trkpt lat="39.020083" lon="16.594103">
        <ele>576.400422</ele>
        <time>2023-12-04T08:43:50.431Z</time>
      </trkpt>
      <trkpt lat="39.020018" lon="16.594291">
        <ele>574.630138</ele>
        <time>2023-12-04T08:43:51.786Z</time>
      </trkpt>
      <trkpt lat="39.019923" lon="16.594803">
        <ele>570.101530</ele>
        <time>2023-12-04T08:43:55.227Z</time>
      </trkpt>
      <trkpt lat="39.019845" lon="16.594925">
        <ele>568.742275</ele>
        <time>2023-12-04T08:43:56.260Z</time>
      </trkpt>
      <trkpt lat="39.019761" lon="16.594967">
        <ele>567.744416</ele>
        <time>2023-12-04T08:43:57.023Z</time>
      </trkpt>
      <trkpt lat="39.019677" lon="16.594969">
        <ele>566.814115</ele>
        <time>2023-12-04T08:43:57.735Z</time>
      </trkpt>
      <trkpt lat="39.019562" lon="16.594965">
        <ele>565.540242</ele>
        <time>2023-12-04T08:43:58.691Z</time>
      </trkpt>
      <trkpt lat="39.019485" lon="16.594918">
        <ele>564.665569</ele>
        <time>2023-12-04T08:43:59.415Z</time>
      </trkpt>
      <trkpt lat="39.019469" lon="16.594882">
        <ele>564.384391</ele>
        <time>2023-12-04T08:43:59.692Z</time>
      </trkpt>
      <trkpt lat="39.019479" lon="16.594807">
        <ele>563.868489</ele>
        <time>2023-12-04T08:44:00.195Z</time>
      </trkpt>
      <trkpt lat="39.019508" lon="16.594774">
        <ele>563.530715</ele>
        <time>2023-12-04T08:44:00.524Z</time>
      </trkpt>
      <trkpt lat="39.019663" lon="16.594742">
        <ele>562.160880</ele>
        <time>2023-12-04T08:44:01.853Z</time>
      </trkpt>
      <trkpt lat="39.019743" lon="16.594692">
        <ele>561.384844</ele>
        <time>2023-12-04T08:44:02.632Z</time>
      </trkpt>
      <trkpt lat="39.019773" lon="16.594652">
        <ele>561.007922</ele>
        <time>2023-12-04T08:44:03.012Z</time>
      </trkpt>
      <trkpt lat="39.019794" lon="16.594517">
        <ele>560.074517</ele>
        <time>2023-12-04T08:44:03.954Z</time>
      </trkpt>
      <trkpt lat="39.019781" lon="16.594158">
        <ele>557.638013</ele>
        <time>2023-12-04T08:44:06.411Z</time>
      </trkpt>
      <trkpt lat="39.019698" lon="16.593669">
        <ele>554.244615</ele>
        <time>2023-12-04T08:44:09.867Z</time>
      </trkpt>
      <trkpt lat="39.019745" lon="16.593054">
        <ele>550.055061</ele>
        <time>2023-12-04T08:44:14.184Z</time>
      </trkpt>
      <trkpt lat="39.019694" lon="16.592973">
        <ele>549.348228</ele>
        <time>2023-12-04T08:44:14.899Z</time>
      </trkpt>
      <trkpt lat="39.019629" lon="16.592950">
        <ele>548.953427</ele>
        <time>2023-12-04T08:44:15.490Z</time>
      </trkpt>
      <trkpt lat="39.019579" lon="16.592988">
        <ele>548.656669</ele>
        <time>2023-12-04T08:44:15.992Z</time>
      </trkpt>
      <trkpt lat="39.019537" lon="16.593090">
        <ele>548.198294</ele>
        <time>2023-12-04T08:44:16.773Z</time>
      </trkpt>
      <trkpt lat="39.019487" lon="16.594082">
        <ele>544.251097</ele>
        <time>2023-12-04T08:44:23.748Z</time>
      </trkpt>
      <trkpt lat="39.019449" lon="16.594285">
        <ele>543.421982</ele>
        <time>2023-12-04T08:44:25.311Z</time>
      </trkpt>
      <trkpt lat="39.019367" lon="16.594353">
        <ele>542.923453</ele>
        <time>2023-12-04T08:44:26.268Z</time>
      </trkpt>
      <trkpt lat="39.019267" lon="16.594343">
        <ele>542.410840</ele>
        <time>2023-12-04T08:44:27.196Z</time>
      </trkpt>
      <trkpt lat="39.019169" lon="16.594267">
        <ele>541.826102</ele>
        <time>2023-12-04T08:44:28.379Z</time>
      </trkpt>
      <trkpt lat="39.018948" lon="16.594021">
        <ele>540.332840</ele>
        <time>2023-12-04T08:44:31.546Z</time>
      </trkpt>
      <trkpt lat="39.019107" lon="16.593954">
        <ele>539.816277</ele>
        <time>2023-12-04T08:44:34.789Z</time>
      </trkpt>
      <trkpt lat="39.019182" lon="16.593834">
        <ele>539.576564</ele>
        <time>2023-12-04T08:44:36.181Z</time>
      </trkpt>
      <trkpt lat="39.019404" lon="16.592836">
        <ele>537.960775</ele>
        <time>2023-12-04T08:44:44.989Z</time>
      </trkpt>
      <trkpt lat="39.019472" lon="16.592707">
        <ele>537.718136</ele>
        <time>2023-12-04T08:44:46.301Z</time>
      </trkpt>
      <trkpt lat="39.019553" lon="16.592663">
        <ele>537.542003</ele>
        <time>2023-12-04T08:44:47.153Z</time>
      </trkpt>
      <trkpt lat="39.019656" lon="16.592681">
        <ele>537.333762</ele>
        <time>2023-12-04T08:44:48.123Z</time>
      </trkpt>
      <trkpt lat="39.019978" lon="16.592919">
        <ele>536.589879</ele>
        <time>2023-12-04T08:44:52.184Z</time>
      </trkpt>
      <trkpt lat="39.020087" lon="16.592956">
        <ele>536.375538</ele>
        <time>2023-12-04T08:44:53.389Z</time>
      </trkpt>
      <trkpt lat="39.020187" lon="16.592920">
        <ele>536.203142</ele>
        <time>2023-12-04T08:44:54.577Z</time>
      </trkpt>
      <trkpt lat="39.020271" lon="16.592823">
        <ele>536.015781</ele>
        <time>2023-12-04T08:44:56.059Z</time>
      </trkpt>
      <trkpt lat="39.020389" lon="16.591861">
        <ele>534.759542</ele>
        <time>2023-12-04T08:45:09.433Z</time>
      </trkpt>
      <trkpt lat="39.020463" lon="16.591548">
        <ele>534.337529</ele>
        <time>2023-12-04T08:45:12.739Z</time>
      </trkpt>
      <trkpt lat="39.020566" lon="16.591374">
        <ele>534.055366</ele>
        <time>2023-12-04T08:45:14.520Z</time>
      </trkpt>
      <trkpt lat="39.020683" lon="16.591241">
        <ele>533.796207</ele>
        <time>2023-12-04T08:45:16.035Z</time>
      </trkpt>
      <trkpt lat="39.020850" lon="16.591100">
        <ele>533.464617</ele>
        <time>2023-12-04T08:45:17.888Z</time>
      </trkpt>
      <trkpt lat="39.020961" lon="16.591096">
        <ele>533.090712</ele>
        <time>2023-12-04T08:45:18.909Z</time>
      </trkpt>
      <trkpt lat="39.021068" lon="16.591138">
        <ele>532.691247</ele>
        <time>2023-12-04T08:45:19.937Z</time>
      </trkpt>
      <trkpt lat="39.021238" lon="16.591277">
        <ele>531.972055</ele>
        <time>2023-12-04T08:45:21.817Z</time>
      </trkpt>
      <trkpt lat="39.021397" lon="16.591269">
        <ele>531.403839</ele>
        <time>2023-12-04T08:45:23.362Z</time>
      </trkpt>
      <trkpt lat="39.021490" lon="16.591183">
        <ele>530.994919</ele>
        <time>2023-12-04T08:45:24.511Z</time>
      </trkpt>
      <trkpt lat="39.021524" lon="16.591034">
        <ele>530.564085</ele>
        <time>2023-12-04T08:45:25.803Z</time>
      </trkpt>
      <trkpt lat="39.021495" lon="16.590871">
        <ele>530.100166</ele>
        <time>2023-12-04T08:45:27.226Z</time>
      </trkpt>
      <trkpt lat="39.021366" lon="16.590462">
        <ele>528.875530</ele>
        <time>2023-12-04T08:45:31.434Z</time>
      </trkpt>
      <trkpt lat="39.021342" lon="16.590290">
        <ele>528.390712</ele>
        <time>2023-12-04T08:45:33.077Z</time>
      </trkpt>
      <trkpt lat="39.021363" lon="16.590192">
        <ele>528.108676</ele>
        <time>2023-12-04T08:45:33.891Z</time>
      </trkpt>
      <trkpt lat="39.021451" lon="16.590045">
        <ele>527.593826</ele>
        <time>2023-12-04T08:45:35.328Z</time>
      </trkpt>
      <trkpt lat="39.021632" lon="16.589889">
        <ele>526.896214</ele>
        <time>2023-12-04T08:45:37.362Z</time>
      </trkpt>
      <trkpt lat="39.021830" lon="16.589842">
        <ele>526.457176</ele>
        <time>2023-12-04T08:45:39.180Z</time>
      </trkpt>
      <trkpt lat="39.022052" lon="16.589872">
        <ele>525.970424</ele>
        <time>2023-12-04T08:45:41.167Z</time>
      </trkpt>
      <trkpt lat="39.022608" lon="16.589777">
        <ele>524.747378</ele>
        <time>2023-12-04T08:45:46.476Z</time>
      </trkpt>
      <trkpt lat="39.022753" lon="16.589723">
        <ele>524.418224</ele>
        <time>2023-12-04T08:45:48.549Z</time>
      </trkpt>
      <trkpt lat="39.022884" lon="16.589622">
        <ele>524.085242</ele>
        <time>2023-12-04T08:45:51.791Z</time>
      </trkpt>
      <trkpt lat="39.022939" lon="16.589545">
        <ele>523.908042</ele>
        <time>2023-12-04T08:45:53.857Z</time>
      </trkpt>
      <trkpt lat="39.023077" lon="16.589073">
        <ele>523.071610</ele>
        <time>2023-12-04T08:46:04.567Z</time>
      </trkpt>
      <trkpt lat="39.023135" lon="16.588995">
        <ele>522.959547</ele>
        <time>2023-12-04T08:46:07.056Z</time>
      </trkpt>
      <trkpt lat="39.023254" lon="16.588908">
        <ele>522.776714</ele>
        <time>2023-12-04T08:46:10.536Z</time>
      </trkpt>
      <trkpt lat="39.023314" lon="16.588898">
        <ele>522.695887</ele>
        <time>2023-12-04T08:46:11.962Z</time>
      </trkpt>
      <trkpt lat="39.023390" lon="16.588929">
        <ele>522.589378</ele>
        <time>2023-12-04T08:46:13.426Z</time>
      </trkpt>
      <trkpt lat="39.023445" lon="16.588995">
        <ele>522.488922</ele>
        <time>2023-12-04T08:46:15.016Z</time>
      </trkpt>
      <trkpt lat="39.023492" lon="16.589218">
        <ele>522.249105</ele>
        <time>2023-12-04T08:46:18.268Z</time>
      </trkpt>
      <trkpt lat="39.023535" lon="16.589605">
        <ele>521.843353</ele>
        <time>2023-12-04T08:46:22.071Z</time>
      </trkpt>
      <trkpt lat="39.023584" lon="16.589730">
        <ele>521.698037</ele>
        <time>2023-12-04T08:46:23.264Z</time>
      </trkpt>
      <trkpt lat="39.023678" lon="16.589789">
        <ele>521.558322</ele>
        <time>2023-12-04T08:46:24.459Z</time>
      </trkpt>
      <trkpt lat="39.023789" lon="16.589782">
        <ele>521.409852</ele>
        <time>2023-12-04T08:46:25.691Z</time>
      </trkpt>
      <trkpt lat="39.024055" lon="16.589537">
        <ele>520.972880</ele>
        <time>2023-12-04T08:46:29.000Z</time>
      </trkpt>
      <trkpt lat="39.024220" lon="16.589450">
        <ele>520.734669</ele>
        <time>2023-12-04T08:46:30.687Z</time>
      </trkpt>
      <trkpt lat="39.024416" lon="16.589413">
        <ele>519.196541</ele>
        <time>2023-12-04T08:46:32.540Z</time>
      </trkpt>
      <trkpt lat="39.024570" lon="16.589490">
        <ele>517.737740</ele>
        <time>2023-12-04T08:46:34.024Z</time>
      </trkpt>
      <trkpt lat="39.024667" lon="16.589493">
        <ele>516.880986</ele>
        <time>2023-12-04T08:46:34.870Z</time>
      </trkpt>
      <trkpt lat="39.024844" lon="16.589385">
        <ele>515.151378</ele>
        <time>2023-12-04T08:46:36.592Z</time>
      </trkpt>
      <trkpt lat="39.024919" lon="16.589294">
        <ele>514.241298</ele>
        <time>2023-12-04T08:46:37.472Z</time>
      </trkpt>
      <trkpt lat="39.024938" lon="16.589182">
        <ele>513.454900</ele>
        <time>2023-12-04T08:46:38.237Z</time>
      </trkpt>
      <trkpt lat="39.024885" lon="16.588451">
        <ele>508.418623</ele>
        <time>2023-12-04T08:46:43.114Z</time>
      </trkpt>
      <trkpt lat="39.024844" lon="16.588326">
        <ele>507.487859</ele>
        <time>2023-12-04T08:46:44.013Z</time>
      </trkpt>
      <trkpt lat="39.024549" lon="16.588040">
        <ele>504.372900</ele>
        <time>2023-12-04T08:46:47.196Z</time>
      </trkpt>
      <trkpt lat="39.024295" lon="16.587302">
        <ele>500.210695</ele>
        <time>2023-12-04T08:46:52.614Z</time>
      </trkpt>
      <trkpt lat="39.024229" lon="16.587246">
        <ele>499.686014</ele>
        <time>2023-12-04T08:46:53.289Z</time>
      </trkpt>
      <trkpt lat="39.023911" lon="16.587248">
        <ele>497.575284</ele>
        <time>2023-12-04T08:46:56.100Z</time>
      </trkpt>
      <trkpt lat="39.023818" lon="16.587197">
        <ele>496.904318</ele>
        <time>2023-12-04T08:46:57.001Z</time>
      </trkpt>
      <trkpt lat="39.023647" lon="16.587025">
        <ele>495.463880</ele>
        <time>2023-12-04T08:46:59.037Z</time>
      </trkpt>
      <trkpt lat="39.023534" lon="16.587014">
        <ele>494.711708</ele>
        <time>2023-12-04T08:47:00.139Z</time>
      </trkpt>
      <trkpt lat="39.023395" lon="16.587038">
        <ele>493.780841</ele>
        <time>2023-12-04T08:47:01.665Z</time>
      </trkpt>
      <trkpt lat="39.023303" lon="16.587122">
        <ele>493.032172</ele>
        <time>2023-12-04T08:47:03.028Z</time>
      </trkpt>
      <trkpt lat="39.023178" lon="16.587414">
        <ele>493.369676</ele>
        <time>2023-12-04T08:47:06.825Z</time>
      </trkpt>
      <trkpt lat="39.023097" lon="16.587492">
        <ele>493.581360</ele>
        <time>2023-12-04T08:47:08.786Z</time>
      </trkpt>
      <trkpt lat="39.022904" lon="16.587523">
        <ele>493.988362</ele>
        <time>2023-12-04T08:47:13.136Z</time>
      </trkpt>
      <trkpt lat="39.022481" lon="16.587501">
        <ele>494.874250</ele>
        <time>2023-12-04T08:47:23.821Z</time>
      </trkpt>
      <trkpt lat="39.022316" lon="16.587433">
        <ele>495.236794</ele>
        <time>2023-12-04T08:47:27.773Z</time>
      </trkpt>
      <trkpt lat="39.022057" lon="16.587230">
        <ele>495.871349</ele>
        <time>2023-12-04T08:47:35.785Z</time>
      </trkpt>
      <trkpt lat="39.021916" lon="16.587049">
        <ele>496.288058</ele>
        <time>2023-12-04T08:47:39.799Z</time>
      </trkpt>
      <trkpt lat="39.021879" lon="16.586879">
        <ele>496.575075</ele>
        <time>2023-12-04T08:47:44.094Z</time>
      </trkpt>
      <trkpt lat="39.021819" lon="16.586748">
        <ele>497.410600</ele>
        <time>2023-12-04T08:47:47.506Z</time>
      </trkpt>
      <trkpt lat="39.021730" lon="16.586649">
        <ele>498.453338</ele>
        <time>2023-12-04T08:47:51.724Z</time>
      </trkpt>
      <trkpt lat="39.021563" lon="16.586525">
        <ele>500.162381</ele>
        <time>2023-12-04T08:48:00.764Z</time>
      </trkpt>
      <trkpt lat="39.021457" lon="16.586479">
        <ele>501.153995</ele>
        <time>2023-12-04T08:48:06.505Z</time>
      </trkpt>
      <trkpt lat="39.021288" lon="16.586492">
        <ele>502.654783</ele>
        <time>2023-12-04T08:48:15.955Z</time>
      </trkpt>
      <trkpt lat="39.021124" lon="16.586431">
        <ele>504.168058</ele>
        <time>2023-12-04T08:48:25.978Z</time>
      </trkpt>
      <trkpt lat="39.020943" lon="16.586290">
        <ele>506.043522</ele>
        <time>2023-12-04T08:48:39.446Z</time>
      </trkpt>
      <trkpt lat="39.020673" lon="16.586306">
        <ele>508.439495</ele>
        <time>2023-12-04T08:48:55.942Z</time>
      </trkpt>
      <trkpt lat="39.020595" lon="16.586260">
        <ele>509.200055</ele>
        <time>2023-12-04T08:49:01.790Z</time>
      </trkpt>
      <trkpt lat="39.020563" lon="16.586147">
        <ele>510.028380</ele>
        <time>2023-12-04T08:49:07.379Z</time>
      </trkpt>
      <trkpt lat="39.020577" lon="16.586010">
        <ele>510.980036</ele>
        <time>2023-12-04T08:49:14.140Z</time>
      </trkpt>
      <trkpt lat="39.020646" lon="16.585569">
        <ele>513.835601</ele>
        <time>2023-12-04T08:49:32.411Z</time>
      </trkpt>
      <trkpt lat="39.020663" lon="16.584710">
        <ele>518.792158</ele>
        <time>2023-12-04T08:49:55.812Z</time>
      </trkpt>
      <trkpt lat="39.020693" lon="16.584431">
        <ele>520.416847</ele>
        <time>2023-12-04T08:50:03.432Z</time>
      </trkpt>
      <trkpt lat="39.020676" lon="16.584195">
        <ele>521.783999</ele>
        <time>2023-12-04T08:50:11.740Z</time>
      </trkpt>
      <trkpt lat="39.020611" lon="16.584069">
        <ele>522.656433</ele>
        <time>2023-12-04T08:50:17.645Z</time>
      </trkpt>
      <trkpt lat="39.020538" lon="16.584034">
        <ele>523.234806</ele>
        <time>2023-12-04T08:50:20.921Z</time>
      </trkpt>
      <trkpt lat="39.020012" lon="16.584063">
        <ele>527.148364</ele>
        <time>2023-12-04T08:50:47.071Z</time>
      </trkpt>
      <trkpt lat="39.019830" lon="16.584007">
        <ele>528.543083</ele>
        <time>2023-12-04T08:50:56.724Z</time>
      </trkpt>
      <trkpt lat="39.019738" lon="16.583835">
        <ele>529.752294</ele>
        <time>2023-12-04T08:51:05.078Z</time>
      </trkpt>
      <trkpt lat="39.019696" lon="16.583691">
        <ele>530.642974</ele>
        <time>2023-12-04T08:51:11.812Z</time>
      </trkpt>
      <trkpt lat="39.019699" lon="16.583629">
        <ele>531.002691</ele>
        <time>2023-12-04T08:51:14.035Z</time>
      </trkpt>
      <trkpt lat="39.019705" lon="16.583465">
        <ele>531.953414</ele>
        <time>2023-12-04T08:51:20.483Z</time>
      </trkpt>
      <trkpt lat="39.019782" lon="16.583289">
        <ele>533.123050</ele>
        <time>2023-12-04T08:51:28.383Z</time>
      </trkpt>
      <trkpt lat="39.019823" lon="16.583242">
        <ele>533.532261</ele>
        <time>2023-12-04T08:51:30.710Z</time>
      </trkpt>
      <trkpt lat="39.020024" lon="16.582891">
        <ele>536.057231</ele>
        <time>2023-12-04T08:51:43.396Z</time>
      </trkpt>
      <trkpt lat="39.020132" lon="16.582792">
        <ele>537.045459</ele>
        <time>2023-12-04T08:51:48.262Z</time>
      </trkpt>
      <trkpt lat="39.020286" lon="16.582741">
        <ele>538.230647</ele>
        <time>2023-12-04T08:51:54.507Z</time>
      </trkpt>
      <trkpt lat="39.020477" lon="16.582737">
        <ele>539.440464</ele>
        <time>2023-12-04T08:52:01.725Z</time>
      </trkpt>
      <trkpt lat="39.020663" lon="16.582644">
        <ele>539.900466</ele>
        <time>2023-12-04T08:52:09.868Z</time>
      </trkpt>
      <trkpt lat="39.020892" lon="16.582638">
        <ele>540.428488</ele>
        <time>2023-12-04T08:52:18.544Z</time>
      </trkpt>
      <trkpt lat="39.020938" lon="16.582609">
        <ele>540.546569</ele>
        <time>2023-12-04T08:52:20.546Z</time>
      </trkpt>
      <trkpt lat="39.020961" lon="16.582541">
        <ele>540.679399</ele>
        <time>2023-12-04T08:52:22.546Z</time>
      </trkpt>
      <trkpt lat="39.020968" lon="16.582244">
        <ele>541.211578</ele>
        <time>2023-12-04T08:52:29.410Z</time>
      </trkpt>
      <trkpt lat="39.020932" lon="16.582043">
        <ele>541.581015</ele>
        <time>2023-12-04T08:52:33.503Z</time>
      </trkpt>
      <trkpt lat="39.020895" lon="16.581917">
        <ele>541.822266</ele>
        <time>2023-12-04T08:52:35.366Z</time>
      </trkpt>
      <trkpt lat="39.020878" lon="16.581665">
        <ele>542.275302</ele>
        <time>2023-12-04T08:52:38.763Z</time>
      </trkpt>
      <trkpt lat="39.020953" lon="16.581339">
        <ele>542.884237</ele>
        <time>2023-12-04T08:52:42.068Z</time>
      </trkpt>
      <trkpt lat="39.020948" lon="16.581086">
        <ele>543.337512</ele>
        <time>2023-12-04T08:52:44.345Z</time>
      </trkpt>
      <trkpt lat="39.020929" lon="16.580911">
        <ele>543.452967</ele>
        <time>2023-12-04T08:52:45.892Z</time>
      </trkpt>
      <trkpt lat="39.020825" lon="16.579629">
        <ele>542.913115</ele>
        <time>2023-12-04T08:52:57.006Z</time>
      </trkpt>
      <trkpt lat="39.020852" lon="16.579567">
        <ele>542.883346</ele>
        <time>2023-12-04T08:52:58.045Z</time>
      </trkpt>
      <trkpt lat="39.020916" lon="16.579416">
        <ele>542.811305</ele>
        <time>2023-12-04T08:53:00.828Z</time>
      </trkpt>
      <trkpt lat="39.021079" lon="16.579042">
        <ele>542.631702</ele>
        <time>2023-12-04T08:53:05.413Z</time>
      </trkpt>
      <trkpt lat="39.021001" lon="16.578456">
        <ele>543.837529</ele>
        <time>2023-12-04T08:53:13.999Z</time>
      </trkpt>
      <trkpt lat="39.021014" lon="16.578106">
        <ele>545.229572</ele>
        <time>2023-12-04T08:53:22.179Z</time>
      </trkpt>
      <trkpt lat="39.021113" lon="16.577888">
        <ele>546.232728</ele>
        <time>2023-12-04T08:53:28.433Z</time>
      </trkpt>
      <trkpt lat="39.021131" lon="16.577770">
        <ele>546.710459</ele>
        <time>2023-12-04T08:53:32.457Z</time>
      </trkpt>
      <trkpt lat="39.021125" lon="16.577633">
        <ele>547.255586</ele>
        <time>2023-12-04T08:53:37.691Z</time>
      </trkpt>
      <trkpt lat="39.020980" lon="16.577380">
        <ele>548.504577</ele>
        <time>2023-12-04T08:53:47.902Z</time>
      </trkpt>
      <trkpt lat="39.020954" lon="16.577227">
        <ele>549.126774</ele>
        <time>2023-12-04T08:53:54.143Z</time>
      </trkpt>
      <trkpt lat="39.020943" lon="16.577113">
        <ele>549.583145</ele>
        <time>2023-12-04T08:53:58.023Z</time>
      </trkpt>
      <trkpt lat="39.020998" lon="16.576950">
        <ele>550.289137</ele>
        <time>2023-12-04T08:54:04.541Z</time>
      </trkpt>
      <trkpt lat="39.021151" lon="16.576791">
        <ele>551.294664</ele>
        <time>2023-12-04T08:54:13.850Z</time>
      </trkpt>
      <trkpt lat="39.021247" lon="16.576748">
        <ele>551.745708</ele>
        <time>2023-12-04T08:54:18.536Z</time>
      </trkpt>
      <trkpt lat="39.021639" lon="16.576714">
        <ele>552.311877</ele>
        <time>2023-12-04T08:54:33.107Z</time>
      </trkpt>
      <trkpt lat="39.022004" lon="16.576613">
        <ele>552.849875</ele>
        <time>2023-12-04T08:54:41.827Z</time>
      </trkpt>
      <trkpt lat="39.022363" lon="16.576574">
        <ele>553.369048</ele>
        <time>2023-12-04T08:54:47.068Z</time>
      </trkpt>
      <trkpt lat="39.022621" lon="16.576359">
        <ele>553.811953</ele>
        <time>2023-12-04T08:54:52.029Z</time>
      </trkpt>
      <trkpt lat="39.022733" lon="16.576127">
        <ele>554.117748</ele>
        <time>2023-12-04T08:54:54.513Z</time>
      </trkpt>
      <trkpt lat="39.022738" lon="16.575967">
        <ele>554.297019</ele>
        <time>2023-12-04T08:54:56.027Z</time>
      </trkpt>
      <trkpt lat="39.022647" lon="16.575710">
        <ele>553.452734</ele>
        <time>2023-12-04T08:54:58.218Z</time>
      </trkpt>
      <trkpt lat="39.022545" lon="16.575524">
        <ele>552.729974</ele>
        <time>2023-12-04T08:54:59.933Z</time>
      </trkpt>
      <trkpt lat="39.022423" lon="16.575364">
        <ele>552.018268</ele>
        <time>2023-12-04T08:55:01.491Z</time>
      </trkpt>
      <trkpt lat="39.022347" lon="16.575226">
        <ele>551.481265</ele>
        <time>2023-12-04T08:55:02.677Z</time>
      </trkpt>
      <trkpt lat="39.022310" lon="16.575064">
        <ele>550.945214</ele>
        <time>2023-12-04T08:55:03.887Z</time>
      </trkpt>
      <trkpt lat="39.022316" lon="16.574906">
        <ele>550.443026</ele>
        <time>2023-12-04T08:55:05.033Z</time>
      </trkpt>
      <trkpt lat="39.022352" lon="16.574775">
        <ele>550.001901</ele>
        <time>2023-12-04T08:55:06.025Z</time>
      </trkpt>
      <trkpt lat="39.022599" lon="16.574361">
        <ele>548.344781</ele>
        <time>2023-12-04T08:55:09.699Z</time>
      </trkpt>
      <trkpt lat="39.022644" lon="16.574241">
        <ele>547.921772</ele>
        <time>2023-12-04T08:55:10.658Z</time>
      </trkpt>
      <trkpt lat="39.022755" lon="16.573564">
        <ele>547.674432</ele>
        <time>2023-12-04T08:55:16.638Z</time>
      </trkpt>
      <trkpt lat="39.022829" lon="16.573410">
        <ele>548.006336</ele>
        <time>2023-12-04T08:55:19.470Z</time>
      </trkpt>
      <trkpt lat="39.023020" lon="16.573272">
        <ele>548.523105</ele>
        <time>2023-12-04T08:55:27.704Z</time>
      </trkpt>
      <trkpt lat="39.023080" lon="16.573178">
        <ele>548.746097</ele>
        <time>2023-12-04T08:55:31.126Z</time>
      </trkpt>
      <trkpt lat="39.023114" lon="16.573079">
        <ele>548.944497</ele>
        <time>2023-12-04T08:55:34.349Z</time>
      </trkpt>
      <trkpt lat="39.023120" lon="16.572754">
        <ele>549.540371</ele>
        <time>2023-12-04T08:55:45.972Z</time>
      </trkpt>
      <trkpt lat="39.023145" lon="16.572614">
        <ele>549.803675</ele>
        <time>2023-12-04T08:55:51.352Z</time>
      </trkpt>
      <trkpt lat="39.023202" lon="16.572514">
        <ele>550.031011</ele>
        <time>2023-12-04T08:55:56.605Z</time>
      </trkpt>
      <trkpt lat="39.023460" lon="16.572364">
        <ele>550.698930</ele>
        <time>2023-12-04T08:56:04.224Z</time>
      </trkpt>
      <trkpt lat="39.023598" lon="16.572209">
        <ele>551.131043</ele>
        <time>2023-12-04T08:56:09.068Z</time>
      </trkpt>
      <trkpt lat="39.023726" lon="16.571976">
        <ele>549.711007</ele>
        <time>2023-12-04T08:56:11.505Z</time>
      </trkpt>
      <trkpt lat="39.023814" lon="16.571905">
        <ele>548.896966</ele>
        <time>2023-12-04T08:56:13.876Z</time>
      </trkpt>
      <trkpt lat="39.024142" lon="16.571870">
        <ele>546.317279</ele>
        <time>2023-12-04T08:56:16.856Z</time>
      </trkpt>
      <trkpt lat="39.024457" lon="16.571782">
        <ele>543.790825</ele>
        <time>2023-12-04T08:56:19.654Z</time>
      </trkpt>
      <trkpt lat="39.024504" lon="16.571746">
        <ele>543.362150</ele>
        <time>2023-12-04T08:56:20.141Z</time>
      </trkpt>
      <trkpt lat="39.024526" lon="16.571679">
        <ele>542.919231</ele>
        <time>2023-12-04T08:56:20.622Z</time>
      </trkpt>
      <trkpt lat="39.024541" lon="16.571501">
        <ele>541.829001</ele>
        <time>2023-12-04T08:56:21.788Z</time>
      </trkpt>
      <trkpt lat="39.024518" lon="16.571394">
        <ele>541.152980</ele>
        <time>2023-12-04T08:56:22.524Z</time>
      </trkpt>
      <trkpt lat="39.024290" lon="16.571164">
        <ele>538.882508</ele>
        <time>2023-12-04T08:56:24.966Z</time>
      </trkpt>
      <trkpt lat="39.024090" lon="16.570421">
        <ele>533.387313</ele>
        <time>2023-12-04T08:56:30.108Z</time>
      </trkpt>
      <trkpt lat="39.024030" lon="16.570343">
        <ele>532.562041</ele>
        <time>2023-12-04T08:56:30.818Z</time>
      </trkpt>
      <trkpt lat="39.023937" lon="16.570287">
        <ele>531.568406</ele>
        <time>2023-12-04T08:56:31.683Z</time>
      </trkpt>
      <trkpt lat="39.023726" lon="16.570269">
        <ele>529.521937</ele>
        <time>2023-12-04T08:56:33.450Z</time>
      </trkpt>
      <trkpt lat="39.023575" lon="16.570209">
        <ele>527.992564</ele>
        <time>2023-12-04T08:56:34.760Z</time>
      </trkpt>
      <trkpt lat="39.023463" lon="16.570040">
        <ele>526.322440</ele>
        <time>2023-12-04T08:56:36.251Z</time>
      </trkpt>
      <trkpt lat="39.023441" lon="16.569962">
        <ele>525.698546</ele>
        <time>2023-12-04T08:56:36.805Z</time>
      </trkpt>
      <trkpt lat="39.023444" lon="16.569783">
        <ele>524.352426</ele>
        <time>2023-12-04T08:56:38.035Z</time>
      </trkpt>
      <trkpt lat="39.023493" lon="16.569662">
        <ele>523.326517</ele>
        <time>2023-12-04T08:56:39.014Z</time>
      </trkpt>
      <trkpt lat="39.023627" lon="16.569472">
        <ele>521.397178</ele>
        <time>2023-12-04T08:56:40.857Z</time>
      </trkpt>
      <trkpt lat="39.023674" lon="16.569103">
        <ele>519.778076</ele>
        <time>2023-12-04T08:56:43.725Z</time>
      </trkpt>
      <trkpt lat="39.023749" lon="16.568890">
        <ele>519.901192</ele>
        <time>2023-12-04T08:56:45.747Z</time>
      </trkpt>
      <trkpt lat="39.023809" lon="16.568816">
        <ele>519.957503</ele>
        <time>2023-12-04T08:56:46.957Z</time>
      </trkpt>
      <trkpt lat="39.024026" lon="16.568693">
        <ele>520.118181</ele>
        <time>2023-12-04T08:56:51.139Z</time>
      </trkpt>
      <trkpt lat="39.024107" lon="16.568531">
        <ele>520.219604</ele>
        <time>2023-12-04T08:56:55.215Z</time>
      </trkpt>
      <trkpt lat="39.024232" lon="16.567965">
        <ele>520.529386</ele>
        <time>2023-12-04T08:57:09.233Z</time>
      </trkpt>
      <trkpt lat="39.024254" lon="16.567403">
        <ele>520.825630</ele>
        <time>2023-12-04T08:57:21.571Z</time>
      </trkpt>
      <trkpt lat="39.024282" lon="16.567307">
        <ele>520.879615</ele>
        <time>2023-12-04T08:57:23.477Z</time>
      </trkpt>
      <trkpt lat="39.024356" lon="16.567201">
        <ele>520.815325</ele>
        <time>2023-12-04T08:57:25.275Z</time>
      </trkpt>
      <trkpt lat="39.024874" lon="16.566979">
        <ele>519.742439</ele>
        <time>2023-12-04T08:57:31.261Z</time>
      </trkpt>
      <trkpt lat="39.024963" lon="16.566897">
        <ele>519.527355</ele>
        <time>2023-12-04T08:57:32.450Z</time>
      </trkpt>
      <trkpt lat="39.025014" lon="16.566814">
        <ele>519.365798</ele>
        <time>2023-12-04T08:57:33.285Z</time>
      </trkpt>
      <trkpt lat="39.025078" lon="16.566572">
        <ele>518.975524</ele>
        <time>2023-12-04T08:57:35.300Z</time>
      </trkpt>
      <trkpt lat="39.025115" lon="16.566504">
        <ele>518.848781</ele>
        <time>2023-12-04T08:57:35.992Z</time>
      </trkpt>
      <trkpt lat="39.025584" lon="16.566008">
        <ele>517.655955</ele>
        <time>2023-12-04T08:57:42.413Z</time>
      </trkpt>
      <trkpt lat="39.025688" lon="16.565838">
        <ele>517.302332</ele>
        <time>2023-12-04T08:57:44.173Z</time>
      </trkpt>
      <trkpt lat="39.025729" lon="16.565442">
        <ele>516.450561</ele>
        <time>2023-12-04T08:57:47.283Z</time>
      </trkpt>
      <trkpt lat="39.025906" lon="16.564978">
        <ele>515.348444</ele>
        <time>2023-12-04T08:57:51.027Z</time>
      </trkpt>
      <trkpt lat="39.025887" lon="16.563900">
        <ele>513.049470</ele>
        <time>2023-12-04T08:57:59.054Z</time>
      </trkpt>
      <trkpt lat="39.025907" lon="16.563817">
        <ele>512.864190</ele>
        <time>2023-12-04T08:57:59.866Z</time>
      </trkpt>
      <trkpt lat="39.026128" lon="16.563521">
        <ele>513.500050</ele>
        <time>2023-12-04T08:58:07.276Z</time>
      </trkpt>
      <trkpt lat="39.026338" lon="16.563337">
        <ele>515.097736</ele>
        <time>2023-12-04T08:58:16.131Z</time>
      </trkpt>
      <trkpt lat="39.026447" lon="16.563189">
        <ele>516.094153</ele>
        <time>2023-12-04T08:58:23.008Z</time>
      </trkpt>
      <trkpt lat="39.026489" lon="16.563005">
        <ele>517.031159</ele>
        <time>2023-12-04T08:58:29.487Z</time>
      </trkpt>
      <trkpt lat="39.026484" lon="16.562891">
        <ele>517.589037</ele>
        <time>2023-12-04T08:58:34.694Z</time>
      </trkpt>
      <trkpt lat="39.026376" lon="16.562377">
        <ele>520.190618</ele>
        <time>2023-12-04T08:58:55.937Z</time>
      </trkpt>
      <trkpt lat="39.026306" lon="16.562255">
        <ele>520.931651</ele>
        <time>2023-12-04T08:59:01.545Z</time>
      </trkpt>
      <trkpt lat="39.026244" lon="16.562227">
        <ele>521.344890</ele>
        <time>2023-12-04T08:59:04.257Z</time>
      </trkpt>
      <trkpt lat="39.026109" lon="16.562204">
        <ele>522.201351</ele>
        <time>2023-12-04T08:59:12.228Z</time>
      </trkpt>
      <trkpt lat="39.025836" lon="16.562302">
        <ele>523.824445</ele>
        <time>2023-12-04T08:59:25.034Z</time>
      </trkpt>
      <trkpt lat="39.025666" lon="16.562413">
        <ele>524.168838</ele>
        <time>2023-12-04T08:59:33.770Z</time>
      </trkpt>
      <trkpt lat="39.025444" lon="16.562710">
        <ele>524.747321</ele>
        <time>2023-12-04T08:59:46.188Z</time>
      </trkpt>
      <trkpt lat="39.025160" lon="16.563155">
        <ele>525.555644</ele>
        <time>2023-12-04T08:59:58.124Z</time>
      </trkpt>
      <trkpt lat="39.025089" lon="16.563579">
        <ele>526.164426</ele>
        <time>2023-12-04T09:00:03.758Z</time>
      </trkpt>
      <trkpt lat="39.024873" lon="16.564556">
        <ele>527.427097</ele>
        <time>2023-12-04T09:00:11.303Z</time>
      </trkpt>
      <trkpt lat="39.024690" lon="16.564868">
        <ele>527.821631</ele>
        <time>2023-12-04T09:00:14.185Z</time>
      </trkpt>
      <trkpt lat="39.024504" lon="16.565068">
        <ele>528.136466</ele>
        <time>2023-12-04T09:00:16.751Z</time>
      </trkpt>
      <trkpt lat="39.024358" lon="16.565136">
        <ele>528.338161</ele>
        <time>2023-12-04T09:00:18.613Z</time>
      </trkpt>
      <trkpt lat="39.024034" lon="16.564956">
        <ele>528.796582</ele>
        <time>2023-12-04T09:00:28.545Z</time>
      </trkpt>
      <trkpt lat="39.023287" lon="16.565049">
        <ele>532.940243</ele>
        <time>2023-12-04T09:01:08.169Z</time>
      </trkpt>
      <trkpt lat="39.023051" lon="16.565033">
        <ele>535.535326</ele>
        <time>2023-12-04T09:01:23.232Z</time>
      </trkpt>
      <trkpt lat="39.022647" lon="16.564734">
        <ele>540.652650</ele>
        <time>2023-12-04T09:01:52.340Z</time>
      </trkpt>
      <trkpt lat="39.022532" lon="16.564767">
        <ele>541.946453</ele>
        <time>2023-12-04T09:02:00.791Z</time>
      </trkpt>
      <trkpt lat="39.022475" lon="16.564790">
        <ele>542.602398</ele>
        <time>2023-12-04T09:02:04.647Z</time>
      </trkpt>
      <trkpt lat="39.022388" lon="16.564879">
        <ele>543.822706</ele>
        <time>2023-12-04T09:02:11.684Z</time>
      </trkpt>
      <trkpt lat="39.022262" lon="16.565078">
        <ele>546.012786</ele>
        <time>2023-12-04T09:02:24.628Z</time>
      </trkpt>
      <trkpt lat="39.021890" lon="16.565998">
        <ele>553.433360</ele>
        <time>2023-12-04T09:03:10.738Z</time>
      </trkpt>
      <trkpt lat="39.021833" lon="16.566070">
        <ele>554.093135</ele>
        <time>2023-12-04T09:03:14.414Z</time>
      </trkpt>
      <trkpt lat="39.021742" lon="16.566098">
        <ele>554.866106</ele>
        <time>2023-12-04T09:03:18.336Z</time>
      </trkpt>
      <trkpt lat="39.021234" lon="16.566094">
        <ele>559.062985</ele>
        <time>2023-12-04T09:03:36.183Z</time>
      </trkpt>
      <trkpt lat="39.021103" lon="16.566139">
        <ele>560.183109</ele>
        <time>2023-12-04T09:03:40.477Z</time>
      </trkpt>
      <trkpt lat="39.021012" lon="16.566204">
        <ele>561.042900</ele>
        <time>2023-12-04T09:03:44.179Z</time>
      </trkpt>
      <trkpt lat="39.020941" lon="16.566317">
        <ele>561.975684</ele>
        <time>2023-12-04T09:03:48.629Z</time>
      </trkpt>
      <trkpt lat="39.020812" lon="16.566790">
        <ele>565.325898</ele>
        <time>2023-12-04T09:04:09.699Z</time>
      </trkpt>
      <trkpt lat="39.020742" lon="16.566890">
        <ele>566.282512</ele>
        <time>2023-12-04T09:04:15.998Z</time>
      </trkpt>
      <trkpt lat="39.020662" lon="16.566952">
        <ele>567.136735</ele>
        <time>2023-12-04T09:04:22.343Z</time>
      </trkpt>
      <trkpt lat="39.020502" lon="16.566970">
        <ele>568.605932</ele>
        <time>2023-12-04T09:04:32.821Z</time>
      </trkpt>
      <trkpt lat="39.020397" lon="16.566921">
        <ele>569.627611</ele>
        <time>2023-12-04T09:04:39.837Z</time>
      </trkpt>
      <trkpt lat="39.020109" lon="16.566633">
        <ele>572.963789</ele>
        <time>2023-12-04T09:05:02.161Z</time>
      </trkpt>
      <trkpt lat="39.019984" lon="16.566591">
        <ele>574.145557</ele>
        <time>2023-12-04T09:05:09.933Z</time>
      </trkpt>
      <trkpt lat="39.019777" lon="16.566645">
        <ele>576.077611</ele>
        <time>2023-12-04T09:05:20.486Z</time>
      </trkpt>
      <trkpt lat="39.019702" lon="16.566759">
        <ele>577.139270</ele>
        <time>2023-12-04T09:05:26.449Z</time>
      </trkpt>
      <trkpt lat="39.019646" lon="16.566967">
        <ele>578.703778</ele>
        <time>2023-12-04T09:05:33.973Z</time>
      </trkpt>
      <trkpt lat="39.019653" lon="16.567202">
        <ele>580.375161</ele>
        <time>2023-12-04T09:05:41.246Z</time>
      </trkpt>
      <trkpt lat="39.019937" lon="16.567547">
        <ele>580.054574</ele>
        <time>2023-12-04T09:05:54.514Z</time>
      </trkpt>
      <trkpt lat="39.020336" lon="16.567786">
        <ele>579.650505</ele>
        <time>2023-12-04T09:06:04.724Z</time>
      </trkpt>
      <trkpt lat="39.020567" lon="16.567869">
        <ele>579.430303</ele>
        <time>2023-12-04T09:06:08.159Z</time>
      </trkpt>
      <trkpt lat="39.020647" lon="16.567943">
        <ele>579.339851</ele>
        <time>2023-12-04T09:06:09.286Z</time>
      </trkpt>
      <trkpt lat="39.020672" lon="16.568060">
        <ele>579.253293</ele>
        <time>2023-12-04T09:06:10.279Z</time>
      </trkpt>
      <trkpt lat="39.020661" lon="16.568238">
        <ele>579.125919</ele>
        <time>2023-12-04T09:06:11.577Z</time>
      </trkpt>
      <trkpt lat="39.020491" lon="16.569010">
        <ele>577.340809</ele>
        <time>2023-12-04T09:06:17.009Z</time>
      </trkpt>
      <trkpt lat="39.020267" lon="16.569319">
        <ele>575.253332</ele>
        <time>2023-12-04T09:06:19.829Z</time>
      </trkpt>
      <trkpt lat="39.019959" lon="16.569639">
        <ele>572.736859</ele>
        <time>2023-12-04T09:06:23.253Z</time>
      </trkpt>
      <trkpt lat="39.019434" lon="16.570176">
        <ele>568.473512</ele>
        <time>2023-12-04T09:06:29.411Z</time>
      </trkpt>
      <trkpt lat="39.019248" lon="16.570287">
        <ele>567.423701</ele>
        <time>2023-12-04T09:06:31.785Z</time>
      </trkpt>
      <trkpt lat="39.018974" lon="16.570377">
        <ele>568.604361</ele>
        <time>2023-12-04T09:06:36.839Z</time>
      </trkpt>
      <trkpt lat="39.018706" lon="16.570346">
        <ele>569.727816</ele>
        <time>2023-12-04T09:06:45.922Z</time>
      </trkpt>
      <trkpt lat="39.018375" lon="16.570192">
        <ele>571.197314</ele>
        <time>2023-12-04T09:06:57.006Z</time>
      </trkpt>
      <trkpt lat="39.018184" lon="16.569999">
        <ele>572.211168</ele>
        <time>2023-12-04T09:07:04.446Z</time>
      </trkpt>
      <trkpt lat="39.017812" lon="16.569432">
        <ele>574.618508</ele>
        <time>2023-12-04T09:07:28.077Z</time>
      </trkpt>
      <trkpt lat="39.017569" lon="16.569291">
        <ele>576.512493</ele>
        <time>2023-12-04T09:07:41.945Z</time>
      </trkpt>
      <trkpt lat="39.017450" lon="16.569297">
        <ele>577.441915</ele>
        <time>2023-12-04T09:07:49.210Z</time>
      </trkpt>
      <trkpt lat="39.017373" lon="16.569336">
        <ele>578.087701</ele>
        <time>2023-12-04T09:07:53.823Z</time>
      </trkpt>
      <trkpt lat="39.017280" lon="16.569394">
        <ele>578.894217</ele>
        <time>2023-12-04T09:08:00.263Z</time>
      </trkpt>
      <trkpt lat="39.017118" lon="16.569659">
        <ele>580.938823</ele>
        <time>2023-12-04T09:08:16.648Z</time>
      </trkpt>
      <trkpt lat="39.016963" lon="16.569779">
        <ele>582.350466</ele>
        <time>2023-12-04T09:08:28.154Z</time>
      </trkpt>
      <trkpt lat="39.016738" lon="16.569847">
        <ele>584.154191</ele>
        <time>2023-12-04T09:08:40.950Z</time>
      </trkpt>
      <trkpt lat="39.016598" lon="16.569854">
        <ele>585.247615</ele>
        <time>2023-12-04T09:08:47.833Z</time>
      </trkpt>
      <trkpt lat="39.016349" lon="16.569709">
        <ele>587.380532</ele>
        <time>2023-12-04T09:08:58.042Z</time>
      </trkpt>
      <trkpt lat="39.016236" lon="16.569683">
        <ele>588.276397</ele>
        <time>2023-12-04T09:09:01.166Z</time>
      </trkpt>
      <trkpt lat="39.016054" lon="16.569726">
        <ele>589.025614</ele>
        <time>2023-12-04T09:09:03.620Z</time>
      </trkpt>
      <trkpt lat="39.015898" lon="16.569714">
        <ele>589.248851</ele>
        <time>2023-12-04T09:09:05.521Z</time>
      </trkpt>
      <trkpt lat="39.015654" lon="16.569620">
        <ele>589.612675</ele>
        <time>2023-12-04T09:09:08.818Z</time>
      </trkpt>
      <trkpt lat="39.015568" lon="16.569611">
        <ele>589.735928</ele>
        <time>2023-12-04T09:09:10.385Z</time>
      </trkpt>
      <trkpt lat="39.015481" lon="16.569651">
        <ele>589.867896</ele>
        <time>2023-12-04T09:09:12.162Z</time>
      </trkpt>
      <trkpt lat="39.015410" lon="16.569877">
        <ele>590.138458</ele>
        <time>2023-12-04T09:09:15.503Z</time>
      </trkpt>
      <trkpt lat="39.015429" lon="16.570008">
        <ele>590.286363</ele>
        <time>2023-12-04T09:09:17.400Z</time>
      </trkpt>
      <trkpt lat="39.015595" lon="16.570341">
        <ele>590.725482</ele>
        <time>2023-12-04T09:09:22.263Z</time>
      </trkpt>
      <trkpt lat="39.015695" lon="16.570700">
        <ele>591.148760</ele>
        <time>2023-12-04T09:09:26.810Z</time>
      </trkpt>
      <trkpt lat="39.015671" lon="16.570822">
        <ele>591.288438</ele>
        <time>2023-12-04T09:09:28.415Z</time>
      </trkpt>
      <trkpt lat="39.015522" lon="16.570946">
        <ele>592.216647</ele>
        <time>2023-12-04T09:09:31.054Z</time>
      </trkpt>
      <trkpt lat="39.014679" lon="16.570943">
        <ele>601.334272</ele>
        <time>2023-12-04T09:10:04.838Z</time>
      </trkpt>
      <trkpt lat="39.014605" lon="16.570983">
        <ele>602.202354</ele>
        <time>2023-12-04T09:10:10.180Z</time>
      </trkpt>
      <trkpt lat="39.014423" lon="16.571236">
        <ele>605.099792</ele>
        <time>2023-12-04T09:10:29.136Z</time>
      </trkpt>
      <trkpt lat="39.014334" lon="16.571285">
        <ele>606.146762</ele>
        <time>2023-12-04T09:10:37.178Z</time>
      </trkpt>
      <trkpt lat="39.014181" lon="16.571300">
        <ele>607.806350</ele>
        <time>2023-12-04T09:10:49.809Z</time>
      </trkpt>
      <trkpt lat="39.013547" lon="16.571002">
        <ele>617.502550</ele>
        <time>2023-12-04T09:11:54.155Z</time>
      </trkpt>
      <trkpt lat="39.013258" lon="16.570998">
        <ele>622.405953</ele>
        <time>2023-12-04T09:12:24.128Z</time>
      </trkpt>
      <trkpt lat="39.013126" lon="16.571154">
        <ele>625.446403</ele>
        <time>2023-12-04T09:12:42.178Z</time>
      </trkpt>
      <trkpt lat="39.013109" lon="16.571372">
        <ele>628.334618</ele>
        <time>2023-12-04T09:12:59.138Z</time>
      </trkpt>
      <trkpt lat="39.013279" lon="16.571768">
        <ele>634.298641</ele>
        <time>2023-12-04T09:13:29.925Z</time>
      </trkpt>
      <trkpt lat="39.013149" lon="16.572036">
        <ele>638.463473</ele>
        <time>2023-12-04T09:13:46.856Z</time>
      </trkpt>
      <trkpt lat="39.012942" lon="16.572644">
        <ele>641.439462</ele>
        <time>2023-12-04T09:14:10.953Z</time>
      </trkpt>
      <trkpt lat="39.012939" lon="16.572887">
        <ele>641.456739</ele>
        <time>2023-12-04T09:14:16.787Z</time>
      </trkpt>
      <trkpt lat="39.013398" lon="16.573867">
        <ele>641.538084</ele>
        <time>2023-12-04T09:14:27.406Z</time>
      </trkpt>
      <trkpt lat="39.013420" lon="16.574053">
        <ele>641.551458</ele>
        <time>2023-12-04T09:14:28.768Z</time>
      </trkpt>
      <trkpt lat="39.013323" lon="16.574284">
        <ele>641.570124</ele>
        <time>2023-12-04T09:14:30.550Z</time>
      </trkpt>
      <trkpt lat="39.013173" lon="16.574486">
        <ele>640.160669</ele>
        <time>2023-12-04T09:14:32.415Z</time>
      </trkpt>
      <trkpt lat="39.013066" lon="16.574750">
        <ele>638.430523</ele>
        <time>2023-12-04T09:14:34.374Z</time>
      </trkpt>
      <trkpt lat="39.013044" lon="16.574880">
        <ele>637.657438</ele>
        <time>2023-12-04T09:14:35.263Z</time>
      </trkpt>
      <trkpt lat="39.013201" lon="16.575897">
        <ele>631.632574</ele>
        <time>2023-12-04T09:14:42.541Z</time>
      </trkpt>
      <trkpt lat="39.013214" lon="16.576270">
        <ele>629.463051</ele>
        <time>2023-12-04T09:14:45.299Z</time>
      </trkpt>
      <trkpt lat="39.013185" lon="16.576399">
        <ele>628.682744</ele>
        <time>2023-12-04T09:14:46.239Z</time>
      </trkpt>
      <trkpt lat="39.013064" lon="16.576494">
        <ele>627.362561</ele>
        <time>2023-12-04T09:14:47.529Z</time>
      </trkpt>
      <trkpt lat="39.012977" lon="16.576746">
        <ele>624.925117</ele>
        <time>2023-12-04T09:14:49.391Z</time>
      </trkpt>
      <trkpt lat="39.012934" lon="16.576799">
        <ele>624.247804</ele>
        <time>2023-12-04T09:14:49.917Z</time>
      </trkpt>
      <trkpt lat="39.012810" lon="16.576759">
        <ele>622.793549</ele>
        <time>2023-12-04T09:14:51.008Z</time>
      </trkpt>
      <trkpt lat="39.012664" lon="16.576763">
        <ele>621.132282</ele>
        <time>2023-12-04T09:14:52.253Z</time>
      </trkpt>
      <trkpt lat="39.012572" lon="16.576818">
        <ele>619.978291</ele>
        <time>2023-12-04T09:14:53.133Z</time>
      </trkpt>
      <trkpt lat="39.012467" lon="16.576949">
        <ele>618.314683</ele>
        <time>2023-12-04T09:14:54.377Z</time>
      </trkpt>
      <trkpt lat="39.012358" lon="16.577101">
        <ele>616.486374</ele>
        <time>2023-12-04T09:14:55.742Z</time>
      </trkpt>
      <trkpt lat="39.012277" lon="16.577323">
        <ele>614.318485</ele>
        <time>2023-12-04T09:14:57.364Z</time>
      </trkpt>
      <trkpt lat="39.012224" lon="16.577592">
        <ele>611.865475</ele>
        <time>2023-12-04T09:14:59.185Z</time>
      </trkpt>
      <trkpt lat="39.012211" lon="16.577748">
        <ele>610.478644</ele>
        <time>2023-12-04T09:15:00.204Z</time>
      </trkpt>
      <trkpt lat="39.012375" lon="16.578340">
        <ele>604.315666</ele>
        <time>2023-12-04T09:15:04.248Z</time>
      </trkpt>
      <trkpt lat="39.012341" lon="16.578463">
        <ele>602.905609</ele>
        <time>2023-12-04T09:15:05.095Z</time>
      </trkpt>
      <trkpt lat="39.012143" lon="16.578725">
        <ele>598.958094</ele>
        <time>2023-12-04T09:15:07.428Z</time>
      </trkpt>
      <trkpt lat="39.012031" lon="16.578997">
        <ele>595.633254</ele>
        <time>2023-12-04T09:15:09.389Z</time>
      </trkpt>
      <trkpt lat="39.011978" lon="16.579315">
        <ele>592.120468</ele>
        <time>2023-12-04T09:15:11.476Z</time>
      </trkpt>
      <trkpt lat="39.011910" lon="16.579399">
        <ele>590.810278</ele>
        <time>2023-12-04T09:15:12.246Z</time>
      </trkpt>
      <trkpt lat="39.011699" lon="16.579377">
        <ele>587.867680</ele>
        <time>2023-12-04T09:15:14.013Z</time>
      </trkpt>
      <trkpt lat="39.011542" lon="16.579241">
        <ele>585.237005</ele>
        <time>2023-12-04T09:15:15.621Z</time>
      </trkpt>
      <trkpt lat="39.011401" lon="16.579061">
        <ele>582.734561</ele>
        <time>2023-12-04T09:15:17.365Z</time>
      </trkpt>
      <trkpt lat="39.011266" lon="16.578390">
        <ele>585.838110</ele>
        <time>2023-12-04T09:15:22.662Z</time>
      </trkpt>
      <trkpt lat="39.010981" lon="16.577956">
        <ele>588.382427</ele>
        <time>2023-12-04T09:15:36.186Z</time>
      </trkpt>
      <trkpt lat="39.010587" lon="16.576405">
        <ele>598.336463</ele>
        <time>2023-12-04T09:17:15.747Z</time>
      </trkpt>
      <trkpt lat="39.010639" lon="16.576028">
        <ele>601.753914</ele>
        <time>2023-12-04T09:17:38.732Z</time>
      </trkpt>
      <trkpt lat="39.010639" lon="16.575882">
        <ele>603.057011</ele>
        <time>2023-12-04T09:17:46.544Z</time>
      </trkpt>
      <trkpt lat="39.010514" lon="16.575588">
        <ele>606.048195</ele>
        <time>2023-12-04T09:18:02.746Z</time>
      </trkpt>
      <trkpt lat="39.010481" lon="16.575327">
        <ele>608.408348</ele>
        <time>2023-12-04T09:18:13.457Z</time>
      </trkpt>
      <trkpt lat="39.010427" lon="16.575200">
        <ele>609.700478</ele>
        <time>2023-12-04T09:18:18.972Z</time>
      </trkpt>
      <trkpt lat="39.010236" lon="16.575087">
        <ele>612.115116</ele>
        <time>2023-12-04T09:18:27.966Z</time>
      </trkpt>
      <trkpt lat="39.010147" lon="16.575089">
        <ele>613.137568</ele>
        <time>2023-12-04T09:18:31.439Z</time>
      </trkpt>
      <trkpt lat="39.010109" lon="16.575129">
        <ele>613.685330</ele>
        <time>2023-12-04T09:18:33.333Z</time>
      </trkpt>
      <trkpt lat="39.010086" lon="16.575194">
        <ele>613.744910</ele>
        <time>2023-12-04T09:18:35.275Z</time>
      </trkpt>
      <trkpt lat="39.010078" lon="16.575405">
        <ele>613.921133</ele>
        <time>2023-12-04T09:18:40.525Z</time>
      </trkpt>
      <trkpt lat="39.009841" lon="16.575925">
        <ele>614.424023</ele>
        <time>2023-12-04T09:18:50.752Z</time>
      </trkpt>
      <trkpt lat="39.009606" lon="16.576125">
        <ele>614.726483</ele>
        <time>2023-12-04T09:18:54.281Z</time>
      </trkpt>
      <trkpt lat="39.008411" lon="16.576325">
        <ele>616.235127</ele>
        <time>2023-12-04T09:19:08.833Z</time>
      </trkpt>
      <trkpt lat="39.008055" lon="16.576179">
        <ele>616.848834</ele>
        <time>2023-12-04T09:19:16.546Z</time>
      </trkpt>
      <trkpt lat="39.007704" lon="16.576198">
        <ele>617.425864</ele>
        <time>2023-12-04T09:19:24.954Z</time>
      </trkpt>
      <trkpt lat="39.007050" lon="16.576071">
        <ele>618.512225</ele>
        <time>2023-12-04T09:19:42.183Z</time>
      </trkpt>
      <trkpt lat="39.006864" lon="16.576149">
        <ele>619.463419</ele>
        <time>2023-12-04T09:19:47.770Z</time>
      </trkpt>
      <trkpt lat="39.006659" lon="16.576462">
        <ele>621.229353</ele>
        <time>2023-12-04T09:19:57.536Z</time>
      </trkpt>
      <trkpt lat="39.006604" lon="16.576526">
        <ele>621.641012</ele>
        <time>2023-12-04T09:19:59.783Z</time>
      </trkpt>
      <trkpt lat="39.006538" lon="16.576535">
        <ele>622.009472</ele>
        <time>2023-12-04T09:20:01.878Z</time>
      </trkpt>
      <trkpt lat="39.006435" lon="16.576476">
        <ele>622.635381</ele>
        <time>2023-12-04T09:20:05.554Z</time>
      </trkpt>
      <trkpt lat="39.006381" lon="16.576354">
        <ele>623.241087</ele>
        <time>2023-12-04T09:20:08.484Z</time>
      </trkpt>
      <trkpt lat="39.006381" lon="16.575832">
        <ele>625.493020</ele>
        <time>2023-12-04T09:20:21.337Z</time>
      </trkpt>
      <trkpt lat="39.006308" lon="16.575710">
        <ele>626.157287</ele>
        <time>2023-12-04T09:20:25.930Z</time>
      </trkpt>
      <trkpt lat="39.005945" lon="16.575615">
        <ele>628.213785</ele>
        <time>2023-12-04T09:20:42.178Z</time>
      </trkpt>
      <trkpt lat="39.005791" lon="16.575515">
        <ele>630.235430</ele>
        <time>2023-12-04T09:20:51.598Z</time>
      </trkpt>
      <trkpt lat="39.005718" lon="16.575359">
        <ele>632.375572</ele>
        <time>2023-12-04T09:21:00.116Z</time>
      </trkpt>
      <trkpt lat="39.005710" lon="16.574782">
        <ele>639.157830</ele>
        <time>2023-12-04T09:21:32.282Z</time>
      </trkpt>
      <trkpt lat="39.005673" lon="16.574626">
        <ele>641.074712</ele>
        <time>2023-12-04T09:21:42.812Z</time>
      </trkpt>
      <trkpt lat="39.005484" lon="16.574300">
        <ele>645.854822</ele>
        <time>2023-12-04T09:22:09.617Z</time>
      </trkpt>
      <trkpt lat="39.005401" lon="16.574003">
        <ele>649.564176</ele>
        <time>2023-12-04T09:22:30.815Z</time>
      </trkpt>
      <trkpt lat="39.005118" lon="16.573495">
        <ele>656.862834</ele>
        <time>2023-12-04T09:23:12.916Z</time>
      </trkpt>
      <trkpt lat="39.004649" lon="16.573261">
        <ele>664.158372</ele>
        <time>2023-12-04T09:23:57.100Z</time>
      </trkpt>
      <trkpt lat="39.004532" lon="16.573266">
        <ele>665.856223</ele>
        <time>2023-12-04T09:24:07.045Z</time>
      </trkpt>
      <trkpt lat="39.004366" lon="16.573442">
        <ele>668.975725</ele>
        <time>2023-12-04T09:24:24.806Z</time>
      </trkpt>
      <trkpt lat="39.004308" lon="16.574056">
        <ele>675.946864</ele>
        <time>2023-12-04T09:24:59.339Z</time>
      </trkpt>
      <trkpt lat="39.004201" lon="16.574305">
        <ele>679.153766</ele>
        <time>2023-12-04T09:25:12.283Z</time>
      </trkpt>
      <trkpt lat="39.003698" lon="16.574710">
        <ele>683.799563</ele>
        <time>2023-12-04T09:25:39.697Z</time>
      </trkpt>
      <trkpt lat="39.003561" lon="16.574939">
        <ele>684.876596</ele>
        <time>2023-12-04T09:25:48.379Z</time>
      </trkpt>
      <trkpt lat="39.003444" lon="16.575466">
        <ele>686.919177</ele>
        <time>2023-12-04T09:26:03.877Z</time>
      </trkpt>
      <trkpt lat="39.003396" lon="16.576240">
        <ele>689.812865</ele>
        <time>2023-12-04T09:26:20.550Z</time>
      </trkpt>
      <trkpt lat="39.003303" lon="16.576398">
        <ele>690.392440</ele>
        <time>2023-12-04T09:26:23.321Z</time>
      </trkpt>
      <trkpt lat="39.002986" lon="16.576559">
        <ele>688.871783</ele>
        <time>2023-12-04T09:26:27.766Z</time>
      </trkpt>
      <trkpt lat="39.002868" lon="16.576808">
        <ele>687.860491</ele>
        <time>2023-12-04T09:26:30.033Z</time>
      </trkpt>
      <trkpt lat="39.002683" lon="16.578262">
        <ele>682.751565</ele>
        <time>2023-12-04T09:26:40.335Z</time>
      </trkpt>
      <trkpt lat="39.002709" lon="16.579034">
        <ele>682.271745</ele>
        <time>2023-12-04T09:26:45.837Z</time>
      </trkpt>
      <trkpt lat="39.002644" lon="16.579165">
        <ele>682.232716</ele>
        <time>2023-12-04T09:26:47.062Z</time>
      </trkpt>
      <trkpt lat="39.002587" lon="16.579195">
        <ele>682.212817</ele>
        <time>2023-12-04T09:26:47.664Z</time>
      </trkpt>
      <trkpt lat="39.002522" lon="16.579184">
        <ele>682.191633</ele>
        <time>2023-12-04T09:26:48.338Z</time>
      </trkpt>
      <trkpt lat="39.002243" lon="16.578931">
        <ele>682.081345</ele>
        <time>2023-12-04T09:26:53.273Z</time>
      </trkpt>
      <trkpt lat="39.001976" lon="16.578794">
        <ele>681.988465</ele>
        <time>2023-12-04T09:27:00.654Z</time>
      </trkpt>
      <trkpt lat="39.001586" lon="16.578306">
        <ele>682.904195</ele>
        <time>2023-12-04T09:27:20.889Z</time>
      </trkpt>
      <trkpt lat="39.000950" lon="16.578029">
        <ele>687.462358</ele>
        <time>2023-12-04T09:27:55.471Z</time>
      </trkpt>
      <trkpt lat="39.000639" lon="16.577989">
        <ele>689.584136</ele>
        <time>2023-12-04T09:28:11.096Z</time>
      </trkpt>
      <trkpt lat="39.000280" lon="16.578096">
        <ele>692.085770</ele>
        <time>2023-12-04T09:28:26.024Z</time>
      </trkpt>
      <trkpt lat="38.999980" lon="16.578340">
        <ele>694.311768</ele>
        <time>2023-12-04T09:28:37.702Z</time>
      </trkpt>
      <trkpt lat="38.999502" lon="16.578608">
        <ele>696.315683</ele>
        <time>2023-12-04T09:28:52.697Z</time>
      </trkpt>
      <trkpt lat="38.999225" lon="16.578898">
        <ele>697.688138</ele>
        <time>2023-12-04T09:29:02.993Z</time>
      </trkpt>
      <trkpt lat="38.999043" lon="16.578984">
        <ele>698.433292</ele>
        <time>2023-12-04T09:29:08.959Z</time>
      </trkpt>
      <trkpt lat="38.998886" lon="16.578973">
        <ele>699.037584</ele>
        <time>2023-12-04T09:29:13.015Z</time>
      </trkpt>
      <trkpt lat="38.998700" lon="16.578837">
        <ele>699.859791</ele>
        <time>2023-12-04T09:29:19.492Z</time>
      </trkpt>
      <trkpt lat="38.998477" lon="16.578562">
        <ele>701.064710</ele>
        <time>2023-12-04T09:29:28.509Z</time>
      </trkpt>
      <trkpt lat="38.998284" lon="16.578158">
        <ele>702.890733</ele>
        <time>2023-12-04T09:29:39.995Z</time>
      </trkpt>
      <trkpt lat="38.997984" lon="16.578014">
        <ele>704.477173</ele>
        <time>2023-12-04T09:29:48.983Z</time>
      </trkpt>
      <trkpt lat="38.997597" lon="16.577711">
        <ele>706.721681</ele>
        <time>2023-12-04T09:30:04.964Z</time>
      </trkpt>
      <trkpt lat="38.997417" lon="16.577703">
        <ele>707.614044</ele>
        <time>2023-12-04T09:30:12.024Z</time>
      </trkpt>
      <trkpt lat="38.997281" lon="16.577784">
        <ele>708.356557</ele>
        <time>2023-12-04T09:30:18.744Z</time>
      </trkpt>
      <trkpt lat="38.996951" lon="16.578151">
        <ele>710.602533</ele>
        <time>2023-12-04T09:30:36.814Z</time>
      </trkpt>
      <trkpt lat="38.996878" lon="16.578192">
        <ele>711.051130</ele>
        <time>2023-12-04T09:30:39.416Z</time>
      </trkpt>
      <trkpt lat="38.996819" lon="16.578187">
        <ele>711.384138</ele>
        <time>2023-12-04T09:30:41.753Z</time>
      </trkpt>
      <trkpt lat="38.996800" lon="16.578186">
        <ele>711.491236</ele>
        <time>2023-12-04T09:30:42.486Z</time>
      </trkpt>
      <trkpt lat="38.996724" lon="16.578144">
        <ele>711.957077</ele>
        <time>2023-12-04T09:30:45.818Z</time>
      </trkpt>
      <trkpt lat="38.996682" lon="16.578072">
        <ele>712.351125</ele>
        <time>2023-12-04T09:30:48.529Z</time>
      </trkpt>
      <trkpt lat="38.996647" lon="16.577915">
        <ele>713.066042</ele>
        <time>2023-12-04T09:30:52.478Z</time>
      </trkpt>
      <trkpt lat="38.996693" lon="16.577449">
        <ele>715.122156</ele>
        <time>2023-12-04T09:31:04.337Z</time>
      </trkpt>
      <trkpt lat="38.996784" lon="16.577193">
        <ele>716.354337</ele>
        <time>2023-12-04T09:31:11.356Z</time>
      </trkpt>
      <trkpt lat="38.996873" lon="16.577067">
        <ele>717.099600</ele>
        <time>2023-12-04T09:31:15.201Z</time>
      </trkpt>
      <trkpt lat="38.996992" lon="16.577035">
        <ele>717.784289</ele>
        <time>2023-12-04T09:31:19.026Z</time>
      </trkpt>
      <trkpt lat="38.997263" lon="16.577047">
        <ele>719.311467</ele>
        <time>2023-12-04T09:31:28.439Z</time>
      </trkpt>
      <trkpt lat="38.997524" lon="16.577020">
        <ele>721.282587</ele>
        <time>2023-12-04T09:31:39.559Z</time>
      </trkpt>
      <trkpt lat="38.997688" lon="16.576935">
        <ele>722.929373</ele>
        <time>2023-12-04T09:31:49.099Z</time>
      </trkpt>
      <trkpt lat="38.998292" lon="16.575676">
        <ele>733.639390</ele>
        <time>2023-12-04T09:32:58.875Z</time>
      </trkpt>
      <trkpt lat="38.998438" lon="16.575457">
        <ele>735.727997</ele>
        <time>2023-12-04T09:33:09.999Z</time>
      </trkpt>
      <trkpt lat="38.998624" lon="16.575393">
        <ele>737.302849</ele>
        <time>2023-12-04T09:33:18.266Z</time>
      </trkpt>
      <trkpt lat="38.998834" lon="16.575364">
        <ele>738.690579</ele>
        <time>2023-12-04T09:33:26.195Z</time>
      </trkpt>
      <trkpt lat="38.999019" lon="16.575486">
        <ele>740.056463</ele>
        <time>2023-12-04T09:33:33.878Z</time>
      </trkpt>
      <trkpt lat="38.999268" lon="16.575603">
        <ele>741.798189</ele>
        <time>2023-12-04T09:33:43.809Z</time>
      </trkpt>
      <trkpt lat="38.999429" lon="16.575608">
        <ele>742.856348</ele>
        <time>2023-12-04T09:33:50.452Z</time>
      </trkpt>
      <trkpt lat="38.999629" lon="16.575539">
        <ele>744.216863</ele>
        <time>2023-12-04T09:33:59.510Z</time>
      </trkpt>
      <trkpt lat="38.999702" lon="16.575466">
        <ele>744.824324</ele>
        <time>2023-12-04T09:34:03.840Z</time>
      </trkpt>
      <trkpt lat="38.999731" lon="16.575339">
        <ele>745.500233</ele>
        <time>2023-12-04T09:34:08.656Z</time>
      </trkpt>
      <trkpt lat="38.999717" lon="16.574915">
        <ele>747.667242</ele>
        <time>2023-12-04T09:34:23.937Z</time>
      </trkpt>
      <trkpt lat="38.999678" lon="16.574569">
        <ele>748.772797</ele>
        <time>2023-12-04T09:34:34.519Z</time>
      </trkpt>
      <trkpt lat="38.999775" lon="16.574354">
        <ele>749.032839</ele>
        <time>2023-12-04T09:34:40.211Z</time>
      </trkpt>
      <trkpt lat="38.999868" lon="16.574315">
        <ele>749.164493</ele>
        <time>2023-12-04T09:34:42.711Z</time>
      </trkpt>
      <trkpt lat="39.000380" lon="16.574354">
        <ele>749.854829</ele>
        <time>2023-12-04T09:34:50.551Z</time>
      </trkpt>
      <trkpt lat="39.000507" lon="16.574315">
        <ele>750.030566</ele>
        <time>2023-12-04T09:34:52.117Z</time>
      </trkpt>
      <trkpt lat="39.000639" lon="16.574105">
        <ele>750.313083</ele>
        <time>2023-12-04T09:34:54.835Z</time>
      </trkpt>
      <trkpt lat="39.000707" lon="16.573725">
        <ele>750.720962</ele>
        <time>2023-12-04T09:34:58.990Z</time>
      </trkpt>
      <trkpt lat="39.000707" lon="16.573510">
        <ele>750.945851</ele>
        <time>2023-12-04T09:35:01.347Z</time>
      </trkpt>
      <trkpt lat="39.000822" lon="16.573006">
        <ele>751.143206</ele>
        <time>2023-12-04T09:35:07.983Z</time>
      </trkpt>
      <trkpt lat="39.000845" lon="16.572815">
        <ele>751.196057</ele>
        <time>2023-12-04T09:35:10.307Z</time>
      </trkpt>
      <trkpt lat="39.000807" lon="16.572615">
        <ele>751.252356</ele>
        <time>2023-12-04T09:35:12.179Z</time>
      </trkpt>
      <trkpt lat="39.000205" lon="16.571997">
        <ele>751.523325</ele>
        <time>2023-12-04T09:35:21.094Z</time>
      </trkpt>
      <trkpt lat="38.999702" lon="16.571187">
        <ele>754.338762</ele>
        <time>2023-12-04T09:35:43.594Z</time>
      </trkpt>
      <trkpt lat="38.999223" lon="16.570859">
        <ele>757.640612</ele>
        <time>2023-12-04T09:36:10.053Z</time>
      </trkpt>
      <trkpt lat="38.999167" lon="16.570710">
        <ele>758.423330</ele>
        <time>2023-12-04T09:36:15.851Z</time>
      </trkpt>
      <trkpt lat="38.999161" lon="16.570602">
        <ele>758.935381</ele>
        <time>2023-12-04T09:36:19.790Z</time>
      </trkpt>
      <trkpt lat="38.999198" lon="16.570449">
        <ele>759.693162</ele>
        <time>2023-12-04T09:36:25.929Z</time>
      </trkpt>
      <trkpt lat="38.999400" lon="16.570143">
        <ele>761.591874</ele>
        <time>2023-12-04T09:36:38.624Z</time>
      </trkpt>
      <trkpt lat="38.999800" lon="16.569841">
        <ele>764.844064</ele>
        <time>2023-12-04T09:36:56.598Z</time>
      </trkpt>
      <trkpt lat="39.000039" lon="16.569563">
        <ele>767.268466</ele>
        <time>2023-12-04T09:37:09.234Z</time>
      </trkpt>
      <trkpt lat="39.000053" lon="16.569407">
        <ele>768.186831</ele>
        <time>2023-12-04T09:37:14.535Z</time>
      </trkpt>
      <trkpt lat="38.999956" lon="16.569163">
        <ele>769.789624</ele>
        <time>2023-12-04T09:37:24.612Z</time>
      </trkpt>
      <trkpt lat="38.999683" lon="16.568875">
        <ele>772.446139</ele>
        <time>2023-12-04T09:37:42.302Z</time>
      </trkpt>
      <trkpt lat="38.999634" lon="16.568699">
        <ele>773.539463</ele>
        <time>2023-12-04T09:37:49.716Z</time>
      </trkpt>
      <trkpt lat="38.999619" lon="16.568475">
        <ele>774.854297</ele>
        <time>2023-12-04T09:37:57.977Z</time>
      </trkpt>
      <trkpt lat="38.999800" lon="16.567904">
        <ele>778.312209</ele>
        <time>2023-12-04T09:38:20.319Z</time>
      </trkpt>
      <trkpt lat="38.999814" lon="16.567709">
        <ele>779.384449</ele>
        <time>2023-12-04T09:38:27.308Z</time>
      </trkpt>
      <trkpt lat="38.999692" lon="16.567435">
        <ele>781.113482</ele>
        <time>2023-12-04T09:38:37.985Z</time>
      </trkpt>
      <trkpt lat="38.999787" lon="16.566862">
        <ele>784.321461</ele>
        <time>2023-12-04T09:38:58.758Z</time>
      </trkpt>
      <trkpt lat="38.999724" lon="16.566661">
        <ele>785.508144</ele>
        <time>2023-12-04T09:39:06.040Z</time>
      </trkpt>
      <trkpt lat="38.999448" lon="16.566504">
        <ele>787.634222</ele>
        <time>2023-12-04T09:39:18.342Z</time>
      </trkpt>
      <trkpt lat="38.999126" lon="16.566517">
        <ele>789.366159</ele>
        <time>2023-12-04T09:39:30.005Z</time>
      </trkpt>
      <trkpt lat="38.998856" lon="16.566645">
        <ele>790.402452</ele>
        <time>2023-12-04T09:39:39.438Z</time>
      </trkpt>
      <trkpt lat="38.998741" lon="16.566772">
        <ele>790.948243</ele>
        <time>2023-12-04T09:39:43.929Z</time>
      </trkpt>
      <trkpt lat="38.998643" lon="16.567006">
        <ele>791.692234</ele>
        <time>2023-12-04T09:39:49.803Z</time>
      </trkpt>
      <trkpt lat="38.998243" lon="16.567318">
        <ele>793.376834</ele>
        <time>2023-12-04T09:40:01.301Z</time>
      </trkpt>
      <trkpt lat="38.998030" lon="16.567420">
        <ele>794.195348</ele>
        <time>2023-12-04T09:40:05.841Z</time>
      </trkpt>
      <trkpt lat="38.997926" lon="16.567435">
        <ele>794.572246</ele>
        <time>2023-12-04T09:40:08.005Z</time>
      </trkpt>
      <trkpt lat="38.997860" lon="16.567407">
        <ele>794.822529</ele>
        <time>2023-12-04T09:40:09.562Z</time>
      </trkpt>
      <trkpt lat="38.997790" lon="16.567299">
        <ele>795.216143</ele>
        <time>2023-12-04T09:40:12.114Z</time>
      </trkpt>
      <trkpt lat="38.997721" lon="16.567094">
        <ele>796.352611</ele>
        <time>2023-12-04T09:40:16.597Z</time>
      </trkpt>
      <trkpt lat="38.997712" lon="16.566694">
        <ele>798.495203</ele>
        <time>2023-12-04T09:40:27.525Z</time>
      </trkpt>
      <trkpt lat="38.997643" lon="16.566562">
        <ele>799.346957</ele>
        <time>2023-12-04T09:40:32.778Z</time>
      </trkpt>
      <trkpt lat="38.997547" lon="16.566519">
        <ele>800.047267</ele>
        <time>2023-12-04T09:40:37.690Z</time>
      </trkpt>
      <trkpt lat="38.997414" lon="16.566538">
        <ele>800.969186</ele>
        <time>2023-12-04T09:40:44.389Z</time>
      </trkpt>
      <trkpt lat="38.997009" lon="16.566733">
        <ele>803.948340</ele>
        <time>2023-12-04T09:41:07.824Z</time>
      </trkpt>
      <trkpt lat="38.996843" lon="16.566757">
        <ele>805.099176</ele>
        <time>2023-12-04T09:41:17.041Z</time>
      </trkpt>
      <trkpt lat="38.996676" lon="16.566629">
        <ele>806.438364</ele>
        <time>2023-12-04T09:41:26.945Z</time>
      </trkpt>
      <trkpt lat="38.996589" lon="16.566474">
        <ele>807.462092</ele>
        <time>2023-12-04T09:41:33.722Z</time>
      </trkpt>
      <trkpt lat="38.996550" lon="16.566214">
        <ele>808.403716</ele>
        <time>2023-12-04T09:41:42.222Z</time>
      </trkpt>
      <trkpt lat="38.996497" lon="16.566093">
        <ele>808.853959</ele>
        <time>2023-12-04T09:41:46.087Z</time>
      </trkpt>
      <trkpt lat="38.996389" lon="16.566030">
        <ele>809.348558</ele>
        <time>2023-12-04T09:41:50.205Z</time>
      </trkpt>
      <trkpt lat="38.996282" lon="16.566050">
        <ele>809.799539</ele>
        <time>2023-12-04T09:41:53.512Z</time>
      </trkpt>
      <trkpt lat="38.995892" lon="16.566640">
        <ele>812.310327</ele>
        <time>2023-12-04T09:42:09.829Z</time>
      </trkpt>
      <trkpt lat="38.995631" lon="16.566869">
        <ele>813.627971</ele>
        <time>2023-12-04T09:42:18.800Z</time>
      </trkpt>
      <trkpt lat="38.994979" lon="16.567343">
        <ele>816.822003</ele>
        <time>2023-12-04T09:42:38.981Z</time>
      </trkpt>
      <trkpt lat="38.994796" lon="16.567415">
        <ele>817.655866</ele>
        <time>2023-12-04T09:42:42.905Z</time>
      </trkpt>
      <trkpt lat="38.994472" lon="16.567387">
        <ele>819.070865</ele>
        <time>2023-12-04T09:42:50.990Z</time>
      </trkpt>
      <trkpt lat="38.993979" lon="16.567332">
        <ele>821.227154</ele>
        <time>2023-12-04T09:43:06.524Z</time>
      </trkpt>
      <trkpt lat="38.993831" lon="16.567316">
        <ele>821.874331</ele>
        <time>2023-12-04T09:43:12.328Z</time>
      </trkpt>
      <trkpt lat="38.992989" lon="16.567304">
        <ele>827.057284</ele>
        <time>2023-12-04T09:43:52.491Z</time>
      </trkpt>
      <trkpt lat="38.992213" lon="16.567009">
        <ele>832.692110</ele>
        <time>2023-12-04T09:44:32.391Z</time>
      </trkpt>
      <trkpt lat="38.991940" lon="16.566943">
        <ele>834.626488</ele>
        <time>2023-12-04T09:44:42.781Z</time>
      </trkpt>
      <trkpt lat="38.991466" lon="16.567231">
        <ele>835.514562</ele>
        <time>2023-12-04T09:44:57.728Z</time>
      </trkpt>
      <trkpt lat="38.990920" lon="16.567462">
        <ele>835.480245</ele>
        <time>2023-12-04T09:45:06.408Z</time>
      </trkpt>
      <trkpt lat="38.990840" lon="16.567548">
        <ele>835.474020</ele>
        <time>2023-12-04T09:45:07.567Z</time>
      </trkpt>
      <trkpt lat="38.990826" lon="16.567693">
        <ele>835.467239</ele>
        <time>2023-12-04T09:45:08.825Z</time>
      </trkpt>
      <trkpt lat="38.991098" lon="16.568278">
        <ele>835.435604</ele>
        <time>2023-12-04T09:45:14.549Z</time>
      </trkpt>
      <trkpt lat="38.991113" lon="16.568384">
        <ele>835.428053</ele>
        <time>2023-12-04T09:45:15.382Z</time>
      </trkpt>
      <trkpt lat="38.991052" lon="16.568543">
        <ele>834.985856</ele>
        <time>2023-12-04T09:45:16.744Z</time>
      </trkpt>
      <trkpt lat="38.990822" lon="16.568675">
        <ele>834.177788</ele>
        <time>2023-12-04T09:45:19.175Z</time>
      </trkpt>
      <trkpt lat="38.990383" lon="16.568731">
        <ele>832.762311</ele>
        <time>2023-12-04T09:45:23.342Z</time>
      </trkpt>
      <trkpt lat="38.989961" lon="16.568848">
        <ele>831.377204</ele>
        <time>2023-12-04T09:45:27.392Z</time>
      </trkpt>
      <trkpt lat="38.989841" lon="16.568817">
        <ele>830.984489</ele>
        <time>2023-12-04T09:45:28.590Z</time>
      </trkpt>
      <trkpt lat="38.989664" lon="16.568701">
        <ele>830.347132</ele>
        <time>2023-12-04T09:45:30.567Z</time>
      </trkpt>
      <trkpt lat="38.989551" lon="16.568666">
        <ele>829.974202</ele>
        <time>2023-12-04T09:45:32.079Z</time>
      </trkpt>
      <trkpt lat="38.988976" lon="16.568930">
        <ele>830.090290</ele>
        <time>2023-12-04T09:45:44.485Z</time>
      </trkpt>
      <trkpt lat="38.988763" lon="16.569167">
        <ele>830.326998</ele>
        <time>2023-12-04T09:45:53.374Z</time>
      </trkpt>
      <trkpt lat="38.988598" lon="16.569239">
        <ele>830.473450</ele>
        <time>2023-12-04T09:45:58.784Z</time>
      </trkpt>
      <trkpt lat="38.988347" lon="16.569177">
        <ele>830.688283</ele>
        <time>2023-12-04T09:46:06.244Z</time>
      </trkpt>
      <trkpt lat="38.987747" lon="16.569325">
        <ele>830.847023</ele>
        <time>2023-12-04T09:46:15.656Z</time>
      </trkpt>
      <trkpt lat="38.987439" lon="16.569311">
        <ele>828.082321</ele>
        <time>2023-12-04T09:46:18.735Z</time>
      </trkpt>
      <trkpt lat="38.986968" lon="16.569797">
        <ele>822.666030</ele>
        <time>2023-12-04T09:46:24.178Z</time>
      </trkpt>
      <trkpt lat="38.986004" lon="16.571423">
        <ele>805.323237</ele>
        <time>2023-12-04T09:46:37.442Z</time>
      </trkpt>
      <trkpt lat="38.985917" lon="16.571381">
        <ele>804.101960</ele>
        <time>2023-12-04T09:46:38.203Z</time>
      </trkpt>
      <trkpt lat="38.985622" lon="16.571082">
        <ele>799.166128</ele>
        <time>2023-12-04T09:46:41.325Z</time>
      </trkpt>
      <trkpt lat="38.985242" lon="16.570584">
        <ele>792.036901</ele>
        <time>2023-12-04T09:46:45.901Z</time>
      </trkpt>
      <trkpt lat="38.985094" lon="16.570337">
        <ele>791.089733</ele>
        <time>2023-12-04T09:46:48.017Z</time>
      </trkpt>
      <trkpt lat="38.984944" lon="16.569994">
        <ele>790.604382</ele>
        <time>2023-12-04T09:46:50.812Z</time>
      </trkpt>
      <trkpt lat="38.984881" lon="16.569907">
        <ele>790.457746</ele>
        <time>2023-12-04T09:46:51.782Z</time>
      </trkpt>
      <trkpt lat="38.984783" lon="16.569828">
        <ele>790.274263</ele>
        <time>2023-12-04T09:46:52.985Z</time>
      </trkpt>
      <trkpt lat="38.984455" lon="16.569722">
        <ele>789.737707</ele>
        <time>2023-12-04T09:46:57.704Z</time>
      </trkpt>
      <trkpt lat="38.984268" lon="16.569595">
        <ele>789.402220</ele>
        <time>2023-12-04T09:47:02.471Z</time>
      </trkpt>
      <trkpt lat="38.984236" lon="16.569517">
        <ele>789.293450</ele>
        <time>2023-12-04T09:47:04.053Z</time>
      </trkpt>
      <trkpt lat="38.984223" lon="16.569339">
        <ele>789.072965</ele>
        <time>2023-12-04T09:47:07.360Z</time>
      </trkpt>
      <trkpt lat="38.984315" lon="16.568881">
        <ele>788.723821</ele>
        <time>2023-12-04T09:47:18.802Z</time>
      </trkpt>
      <trkpt lat="38.984322" lon="16.568740">
        <ele>789.306874</ele>
        <time>2023-12-04T09:47:22.974Z</time>
      </trkpt>
      <trkpt lat="38.984223" lon="16.568427">
        <ele>790.701375</ele>
        <time>2023-12-04T09:47:31.712Z</time>
      </trkpt>
      <trkpt lat="38.984229" lon="16.568319">
        <ele>791.148198</ele>
        <time>2023-12-04T09:47:35.068Z</time>
      </trkpt>
      <trkpt lat="38.984277" lon="16.568222">
        <ele>791.622720</ele>
        <time>2023-12-04T09:47:38.414Z</time>
      </trkpt>
      <trkpt lat="38.985124" lon="16.567509">
        <ele>796.996475</ele>
        <time>2023-12-04T09:48:17.775Z</time>
      </trkpt>
      <trkpt lat="38.985232" lon="16.567380">
        <ele>797.778864</ele>
        <time>2023-12-04T09:48:23.845Z</time>
      </trkpt>
      <trkpt lat="38.985509" lon="16.566913">
        <ele>798.032933</ele>
        <time>2023-12-04T09:48:41.290Z</time>
      </trkpt>
      <trkpt lat="38.985614" lon="16.566781">
        <ele>798.011000</ele>
        <time>2023-12-04T09:48:45.063Z</time>
      </trkpt>
      <trkpt lat="38.985936" lon="16.566704">
        <ele>797.962071</ele>
        <time>2023-12-04T09:48:49.609Z</time>
      </trkpt>
      <trkpt lat="38.986101" lon="16.566552">
        <ele>797.931753</ele>
        <time>2023-12-04T09:48:51.922Z</time>
      </trkpt>
      <trkpt lat="38.986208" lon="16.566524">
        <ele>797.915440</ele>
        <time>2023-12-04T09:48:53.072Z</time>
      </trkpt>
      <trkpt lat="38.986848" lon="16.566488">
        <ele>797.646956</ele>
        <time>2023-12-04T09:48:59.412Z</time>
      </trkpt>
      <trkpt lat="38.986979" lon="16.566384">
        <ele>796.600795</ele>
        <time>2023-12-04T09:49:00.834Z</time>
      </trkpt>
      <trkpt lat="38.987037" lon="16.566327">
        <ele>796.104770</ele>
        <time>2023-12-04T09:49:01.514Z</time>
      </trkpt>
      <trkpt lat="38.987226" lon="16.565977">
        <ele>793.853483</ele>
        <time>2023-12-04T09:49:04.611Z</time>
      </trkpt>
      <trkpt lat="38.987638" lon="16.565726">
        <ele>790.755397</ele>
        <time>2023-12-04T09:49:08.780Z</time>
      </trkpt>
      <trkpt lat="38.987820" lon="16.565702">
        <ele>789.512016</ele>
        <time>2023-12-04T09:49:10.421Z</time>
      </trkpt>
      <trkpt lat="38.988104" lon="16.565779">
        <ele>787.539515</ele>
        <time>2023-12-04T09:49:12.925Z</time>
      </trkpt>
      <trkpt lat="38.988203" lon="16.565738">
        <ele>786.832696</ele>
        <time>2023-12-04T09:49:13.811Z</time>
      </trkpt>
      <trkpt lat="38.988254" lon="16.565601">
        <ele>786.030277</ele>
        <time>2023-12-04T09:49:14.814Z</time>
      </trkpt>
      <trkpt lat="38.988218" lon="16.565347">
        <ele>784.424585</ele>
        <time>2023-12-04T09:49:16.546Z</time>
      </trkpt>
      <trkpt lat="38.988228" lon="16.565251">
        <ele>783.780373</ele>
        <time>2023-12-04T09:49:17.206Z</time>
      </trkpt>
      <trkpt lat="38.988302" lon="16.565138">
        <ele>782.797613</ele>
        <time>2023-12-04T09:49:18.237Z</time>
      </trkpt>
      <trkpt lat="38.988732" lon="16.564994">
        <ele>778.995531</ele>
        <time>2023-12-04T09:49:22.302Z</time>
      </trkpt>
      <trkpt lat="38.988812" lon="16.564945">
        <ele>778.237359</ele>
        <time>2023-12-04T09:49:23.116Z</time>
      </trkpt>
      <trkpt lat="38.988878" lon="16.564861">
        <ele>777.442953</ele>
        <time>2023-12-04T09:49:23.966Z</time>
      </trkpt>
      <trkpt lat="38.988914" lon="16.564760">
        <ele>776.703936</ele>
        <time>2023-12-04T09:49:24.728Z</time>
      </trkpt>
      <trkpt lat="38.988925" lon="16.564517">
        <ele>775.085001</ele>
        <time>2023-12-04T09:49:26.403Z</time>
      </trkpt>
      <trkpt lat="38.988944" lon="16.564346">
        <ele>773.936115</ele>
        <time>2023-12-04T09:49:27.581Z</time>
      </trkpt>
      <trkpt lat="38.989005" lon="16.564222">
        <ele>772.960089</ele>
        <time>2023-12-04T09:49:28.566Z</time>
      </trkpt>
      <trkpt lat="38.989062" lon="16.564174">
        <ele>772.377154</ele>
        <time>2023-12-04T09:49:29.159Z</time>
      </trkpt>
      <trkpt lat="38.989727" lon="16.563866">
        <ele>765.550911</ele>
        <time>2023-12-04T09:49:35.168Z</time>
      </trkpt>
      <trkpt lat="38.989767" lon="16.563809">
        <ele>764.937676</ele>
        <time>2023-12-04T09:49:35.682Z</time>
      </trkpt>
      <trkpt lat="38.989788" lon="16.563706">
        <ele>764.087358</ele>
        <time>2023-12-04T09:49:36.393Z</time>
      </trkpt>
      <trkpt lat="38.989748" lon="16.563455">
        <ele>762.041336</ele>
        <time>2023-12-04T09:49:38.078Z</time>
      </trkpt>
      <trkpt lat="38.989686" lon="16.563370">
        <ele>761.110506</ele>
        <time>2023-12-04T09:49:38.845Z</time>
      </trkpt>
      <trkpt lat="38.989545" lon="16.563253">
        <ele>759.386748</ele>
        <time>2023-12-04T09:49:40.294Z</time>
      </trkpt>
      <trkpt lat="38.989443" lon="16.563087">
        <ele>757.696986</ele>
        <time>2023-12-04T09:49:41.728Z</time>
      </trkpt>
      <trkpt lat="38.989405" lon="16.562802">
        <ele>755.387904</ele>
        <time>2023-12-04T09:49:43.669Z</time>
      </trkpt>
      <trkpt lat="38.989322" lon="16.562706">
        <ele>754.241252</ele>
        <time>2023-12-04T09:49:44.630Z</time>
      </trkpt>
      <trkpt lat="38.989182" lon="16.562637">
        <ele>752.701000</ele>
        <time>2023-12-04T09:49:45.928Z</time>
      </trkpt>
      <trkpt lat="38.989091" lon="16.562559">
        <ele>751.631033</ele>
        <time>2023-12-04T09:49:46.866Z</time>
      </trkpt>
      <trkpt lat="38.989065" lon="16.562481">
        <ele>751.190771</ele>
        <time>2023-12-04T09:49:47.435Z</time>
      </trkpt>
      <trkpt lat="38.989093" lon="16.562251">
        <ele>749.983105</ele>
        <time>2023-12-04T09:49:48.995Z</time>
      </trkpt>
      <trkpt lat="38.989153" lon="16.562098">
        <ele>749.094124</ele>
        <time>2023-12-04T09:49:50.144Z</time>
      </trkpt>
      <trkpt lat="38.989403" lon="16.561828">
        <ele>746.915679</ele>
        <time>2023-12-04T09:49:53.026Z</time>
      </trkpt>
      <trkpt lat="38.989511" lon="16.561664">
        <ele>745.800644</ele>
        <time>2023-12-04T09:49:54.607Z</time>
      </trkpt>
      <trkpt lat="38.989573" lon="16.561204">
        <ele>743.378807</ele>
        <time>2023-12-04T09:49:58.151Z</time>
      </trkpt>
      <trkpt lat="38.989496" lon="16.560795">
        <ele>741.195792</ele>
        <time>2023-12-04T09:50:01.335Z</time>
      </trkpt>
      <trkpt lat="38.989525" lon="16.560697">
        <ele>740.651825</ele>
        <time>2023-12-04T09:50:02.107Z</time>
      </trkpt>
      <trkpt lat="38.989880" lon="16.560279">
        <ele>736.007049</ele>
        <time>2023-12-04T09:50:06.512Z</time>
      </trkpt>
      <trkpt lat="38.989953" lon="16.560154">
        <ele>734.687508</ele>
        <time>2023-12-04T09:50:07.589Z</time>
      </trkpt>
      <trkpt lat="38.990013" lon="16.559958">
        <ele>732.909687</ele>
        <time>2023-12-04T09:50:09.016Z</time>
      </trkpt>
      <trkpt lat="38.990026" lon="16.559832">
        <ele>731.836978</ele>
        <time>2023-12-04T09:50:09.868Z</time>
      </trkpt>
      <trkpt lat="38.989996" lon="16.559742">
        <ele>731.010517</ele>
        <time>2023-12-04T09:50:10.523Z</time>
      </trkpt>
      <trkpt lat="38.989923" lon="16.559641">
        <ele>729.846533</ele>
        <time>2023-12-04T09:50:11.435Z</time>
      </trkpt>
      <trkpt lat="38.989873" lon="16.559625">
        <ele>729.287086</ele>
        <time>2023-12-04T09:50:11.874Z</time>
      </trkpt>
      <trkpt lat="38.989715" lon="16.559699">
        <ele>727.461365</ele>
        <time>2023-12-04T09:50:13.296Z</time>
      </trkpt>
      <trkpt lat="38.989551" lon="16.559740">
        <ele>725.647325</ele>
        <time>2023-12-04T09:50:14.697Z</time>
      </trkpt>
      <trkpt lat="38.988364" lon="16.559755">
        <ele>713.773935</ele>
        <time>2023-12-04T09:50:24.539Z</time>
      </trkpt>
      <trkpt lat="38.988152" lon="16.559721">
        <ele>711.771011</ele>
        <time>2023-12-04T09:50:26.361Z</time>
      </trkpt>
      <trkpt lat="38.987863" lon="16.559627">
        <ele>708.976332</ele>
        <time>2023-12-04T09:50:29.004Z</time>
      </trkpt>
      <trkpt lat="38.987758" lon="16.559574">
        <ele>707.918883</ele>
        <time>2023-12-04T09:50:30.024Z</time>
      </trkpt>
      <trkpt lat="38.987665" lon="16.559483">
        <ele>706.823465</ele>
        <time>2023-12-04T09:50:31.157Z</time>
      </trkpt>
      <trkpt lat="38.987523" lon="16.559162">
        <ele>704.131983</ele>
        <time>2023-12-04T09:50:34.089Z</time>
      </trkpt>
      <trkpt lat="38.987508" lon="16.559083">
        <ele>703.539368</ele>
        <time>2023-12-04T09:50:34.903Z</time>
      </trkpt>
      <trkpt lat="38.987526" lon="16.558911">
        <ele>703.141199</ele>
        <time>2023-12-04T09:50:37.114Z</time>
      </trkpt>
      <trkpt lat="38.988048" lon="16.558153">
        <ele>701.801391</ele>
        <time>2023-12-04T09:50:45.629Z</time>
      </trkpt>
      <trkpt lat="38.988139" lon="16.557961">
        <ele>701.503878</ele>
        <time>2023-12-04T09:50:47.500Z</time>
      </trkpt>
      <trkpt lat="38.988323" lon="16.557359">
        <ele>700.648074</ele>
        <time>2023-12-04T09:50:55.240Z</time>
      </trkpt>
      <trkpt lat="38.988309" lon="16.557144">
        <ele>700.362636</ele>
        <time>2023-12-04T09:50:57.294Z</time>
      </trkpt>
      <trkpt lat="38.988228" lon="16.556988">
        <ele>700.190068</ele>
        <time>2023-12-04T09:50:59.031Z</time>
      </trkpt>
      <trkpt lat="38.987624" lon="16.556420">
        <ele>699.528005</ele>
        <time>2023-12-04T09:51:07.047Z</time>
      </trkpt>
      <trkpt lat="38.987603" lon="16.556359">
        <ele>699.482115</ele>
        <time>2023-12-04T09:51:07.583Z</time>
      </trkpt>
      <trkpt lat="38.987610" lon="16.556188">
        <ele>699.364331</ele>
        <time>2023-12-04T09:51:08.892Z</time>
      </trkpt>
      <trkpt lat="38.987711" lon="16.555657">
        <ele>698.988312</ele>
        <time>2023-12-04T09:51:13.474Z</time>
      </trkpt>
      <trkpt lat="38.988079" lon="16.555207">
        <ele>699.025600</ele>
        <time>2023-12-04T09:51:25.724Z</time>
      </trkpt>
      <trkpt lat="38.988079" lon="16.555207">
        <ele>699.025600</ele>
        <time>2023-12-04T09:51:25.731Z</time>
      </trkpt>
      <trkpt lat="38.988357" lon="16.554526">
        <ele>700.318801</ele>
        <time>2023-12-04T09:51:44.586Z</time>
      </trkpt>
      <trkpt lat="38.988405" lon="16.554455">
        <ele>700.477001</ele>
        <time>2023-12-04T09:51:46.609Z</time>
      </trkpt>
      <trkpt lat="38.988470" lon="16.554414">
        <ele>700.633581</ele>
        <time>2023-12-04T09:51:48.494Z</time>
      </trkpt>
      <trkpt lat="38.988545" lon="16.554410">
        <ele>700.795942</ele>
        <time>2023-12-04T09:51:50.132Z</time>
      </trkpt>
      <trkpt lat="38.989067" lon="16.554505">
        <ele>701.936244</ele>
        <time>2023-12-04T09:51:59.145Z</time>
      </trkpt>
      <trkpt lat="38.989196" lon="16.554485">
        <ele>702.217284</ele>
        <time>2023-12-04T09:52:02.623Z</time>
      </trkpt>
      <trkpt lat="38.989302" lon="16.554371">
        <ele>702.516111</ele>
        <time>2023-12-04T09:52:05.791Z</time>
      </trkpt>
      <trkpt lat="38.989405" lon="16.554201">
        <ele>701.908410</ele>
        <time>2023-12-04T09:52:11.319Z</time>
      </trkpt>
      <trkpt lat="38.989439" lon="16.554067">
        <ele>701.398529</ele>
        <time>2023-12-04T09:52:15.060Z</time>
      </trkpt>
      <trkpt lat="38.989457" lon="16.553746">
        <ele>700.234381</ele>
        <time>2023-12-04T09:52:19.796Z</time>
      </trkpt>
      <trkpt lat="38.989500" lon="16.553530">
        <ele>699.427841</ele>
        <time>2023-12-04T09:52:21.740Z</time>
      </trkpt>
      <trkpt lat="38.989657" lon="16.553283">
        <ele>698.273673</ele>
        <time>2023-12-04T09:52:24.100Z</time>
      </trkpt>
      <trkpt lat="38.989844" lon="16.553242">
        <ele>697.390865</ele>
        <time>2023-12-04T09:52:25.765Z</time>
      </trkpt>
      <trkpt lat="38.990348" lon="16.553534">
        <ele>694.818500</ele>
        <time>2023-12-04T09:52:30.501Z</time>
      </trkpt>
      <trkpt lat="38.990466" lon="16.553529">
        <ele>694.269053</ele>
        <time>2023-12-04T09:52:31.500Z</time>
      </trkpt>
      <trkpt lat="38.990555" lon="16.553468">
        <ele>693.687342</ele>
        <time>2023-12-04T09:52:32.362Z</time>
      </trkpt>
      <trkpt lat="38.990714" lon="16.553198">
        <ele>692.118021</ele>
        <time>2023-12-04T09:52:34.672Z</time>
      </trkpt>
      <trkpt lat="38.990839" lon="16.552500">
        <ele>688.799641</ele>
        <time>2023-12-04T09:52:39.872Z</time>
      </trkpt>
      <trkpt lat="38.990892" lon="16.552354">
        <ele>688.053125</ele>
        <time>2023-12-04T09:52:41.115Z</time>
      </trkpt>
      <trkpt lat="38.991392" lon="16.551828">
        <ele>684.203475</ele>
        <time>2023-12-04T09:52:46.848Z</time>
      </trkpt>
      <trkpt lat="38.992407" lon="16.551006">
        <ele>683.124194</ele>
        <time>2023-12-04T09:53:06.638Z</time>
      </trkpt>
      <trkpt lat="38.992493" lon="16.550984">
        <ele>683.095297</ele>
        <time>2023-12-04T09:53:08.077Z</time>
      </trkpt>
      <trkpt lat="38.992569" lon="16.551019">
        <ele>683.068694</ele>
        <time>2023-12-04T09:53:09.234Z</time>
      </trkpt>
      <trkpt lat="38.992601" lon="16.551116">
        <ele>683.041703</ele>
        <time>2023-12-04T09:53:10.329Z</time>
      </trkpt>
      <trkpt lat="38.992598" lon="16.551305">
        <ele>682.993281</ele>
        <time>2023-12-04T09:53:12.506Z</time>
      </trkpt>
      <trkpt lat="38.992626" lon="16.551401">
        <ele>682.967017</ele>
        <time>2023-12-04T09:53:14.145Z</time>
      </trkpt>
      <trkpt lat="38.992707" lon="16.551458">
        <ele>682.936591</ele>
        <time>2023-12-04T09:53:15.859Z</time>
      </trkpt>
      <trkpt lat="38.993101" lon="16.551439">
        <ele>682.463305</ele>
        <time>2023-12-04T09:53:22.898Z</time>
      </trkpt>
      <trkpt lat="38.993177" lon="16.551396">
        <ele>682.318509</ele>
        <time>2023-12-04T09:53:24.245Z</time>
      </trkpt>
      <trkpt lat="38.993503" lon="16.550743">
        <ele>681.266505</ele>
        <time>2023-12-04T09:53:35.064Z</time>
      </trkpt>
      <trkpt lat="38.993621" lon="16.550646">
        <ele>681.022294</ele>
        <time>2023-12-04T09:53:36.629Z</time>
      </trkpt>
      <trkpt lat="38.993729" lon="16.550640">
        <ele>680.833763</ele>
        <time>2023-12-04T09:53:37.935Z</time>
      </trkpt>
      <trkpt lat="38.993852" lon="16.550717">
        <ele>680.595205</ele>
        <time>2023-12-04T09:53:39.361Z</time>
      </trkpt>
      <trkpt lat="38.993949" lon="16.550834">
        <ele>680.363322</ele>
        <time>2023-12-04T09:53:40.540Z</time>
      </trkpt>
      <trkpt lat="38.994030" lon="16.551207">
        <ele>679.838365</ele>
        <time>2023-12-04T09:53:43.254Z</time>
      </trkpt>
      <trkpt lat="38.994090" lon="16.551298">
        <ele>679.600845</ele>
        <time>2023-12-04T09:53:44.081Z</time>
      </trkpt>
      <trkpt lat="38.994170" lon="16.551360">
        <ele>679.269299</ele>
        <time>2023-12-04T09:53:44.931Z</time>
      </trkpt>
      <trkpt lat="38.994434" lon="16.551401">
        <ele>678.325281</ele>
        <time>2023-12-04T09:53:47.473Z</time>
      </trkpt>
      <trkpt lat="38.994654" lon="16.551476">
        <ele>677.517318</ele>
        <time>2023-12-04T09:53:50.027Z</time>
      </trkpt>
      <trkpt lat="38.995019" lon="16.551844">
        <ele>675.871119</ele>
        <time>2023-12-04T09:53:56.421Z</time>
      </trkpt>
      <trkpt lat="38.995164" lon="16.552265">
        <ele>674.600586</ele>
        <time>2023-12-04T09:54:00.123Z</time>
      </trkpt>
      <trkpt lat="38.995168" lon="16.552437">
        <ele>674.125808</ele>
        <time>2023-12-04T09:54:01.389Z</time>
      </trkpt>
      <trkpt lat="38.995138" lon="16.552556">
        <ele>673.780633</ele>
        <time>2023-12-04T09:54:02.279Z</time>
      </trkpt>
      <trkpt lat="38.994766" lon="16.552935">
        <ele>672.180705</ele>
        <time>2023-12-04T09:54:06.552Z</time>
      </trkpt>
      <trkpt lat="38.994746" lon="16.553073">
        <ele>671.819209</ele>
        <time>2023-12-04T09:54:07.586Z</time>
      </trkpt>
      <trkpt lat="38.994767" lon="16.553198">
        <ele>671.489881</ele>
        <time>2023-12-04T09:54:08.579Z</time>
      </trkpt>
      <trkpt lat="38.994821" lon="16.553323">
        <ele>671.121605</ele>
        <time>2023-12-04T09:54:09.653Z</time>
      </trkpt>
      <trkpt lat="38.994890" lon="16.553370">
        <ele>670.862923</ele>
        <time>2023-12-04T09:54:10.501Z</time>
      </trkpt>
      <trkpt lat="38.995084" lon="16.553370">
        <ele>670.220134</ele>
        <time>2023-12-04T09:54:13.085Z</time>
      </trkpt>
      <trkpt lat="38.995288" lon="16.553417">
        <ele>669.533460</ele>
        <time>2023-12-04T09:54:16.817Z</time>
      </trkpt>
      <trkpt lat="38.995428" lon="16.553591">
        <ele>668.888525</ele>
        <time>2023-12-04T09:54:21.256Z</time>
      </trkpt>
      <trkpt lat="38.995493" lon="16.553827">
        <ele>668.243764</ele>
        <time>2023-12-04T09:54:23.787Z</time>
      </trkpt>
      <trkpt lat="38.995448" lon="16.554090">
        <ele>667.550289</ele>
        <time>2023-12-04T09:54:25.904Z</time>
      </trkpt>
      <trkpt lat="38.995147" lon="16.554685">
        <ele>663.058689</ele>
        <time>2023-12-04T09:54:30.764Z</time>
      </trkpt>
      <trkpt lat="38.995093" lon="16.554851">
        <ele>661.861862</ele>
        <time>2023-12-04T09:54:31.954Z</time>
      </trkpt>
      <trkpt lat="38.995110" lon="16.555025">
        <ele>660.695527</ele>
        <time>2023-12-04T09:54:33.129Z</time>
      </trkpt>
      <trkpt lat="38.995148" lon="16.555155">
        <ele>659.771803</ele>
        <time>2023-12-04T09:54:34.072Z</time>
      </trkpt>
      <trkpt lat="38.995218" lon="16.555260">
        <ele>658.851763</ele>
        <time>2023-12-04T09:54:34.991Z</time>
      </trkpt>
      <trkpt lat="38.995314" lon="16.555313">
        <ele>657.957832</ele>
        <time>2023-12-04T09:54:35.915Z</time>
      </trkpt>
      <trkpt lat="38.995494" lon="16.555326">
        <ele>656.415093</ele>
        <time>2023-12-04T09:54:37.500Z</time>
      </trkpt>
      <trkpt lat="38.995788" lon="16.555058">
        <ele>653.331852</ele>
        <time>2023-12-04T09:54:40.669Z</time>
      </trkpt>
      <trkpt lat="38.995886" lon="16.554951">
        <ele>652.231997</ele>
        <time>2023-12-04T09:54:41.778Z</time>
      </trkpt>
      <trkpt lat="38.996172" lon="16.554673">
        <ele>647.427106</ele>
        <time>2023-12-04T09:54:44.817Z</time>
      </trkpt>
      <trkpt lat="38.996192" lon="16.554430">
        <ele>644.810664</ele>
        <time>2023-12-04T09:54:46.410Z</time>
      </trkpt>
      <trkpt lat="38.996156" lon="16.554236">
        <ele>642.675041</ele>
        <time>2023-12-04T09:54:47.689Z</time>
      </trkpt>
      <trkpt lat="38.996183" lon="16.554032">
        <ele>640.459288</ele>
        <time>2023-12-04T09:54:49.014Z</time>
      </trkpt>
      <trkpt lat="38.996436" lon="16.553183">
        <ele>630.723400</ele>
        <time>2023-12-04T09:54:54.852Z</time>
      </trkpt>
      <trkpt lat="38.996718" lon="16.552022">
        <ele>621.690019</ele>
        <time>2023-12-04T09:55:02.871Z</time>
      </trkpt>
      <trkpt lat="38.996760" lon="16.551643">
        <ele>619.306711</ele>
        <time>2023-12-04T09:55:05.447Z</time>
      </trkpt>
      <trkpt lat="38.996747" lon="16.550678">
        <ele>613.298256</ele>
        <time>2023-12-04T09:55:12.366Z</time>
      </trkpt>
      <trkpt lat="38.996623" lon="16.550355">
        <ele>613.447242</ele>
        <time>2023-12-04T09:55:15.789Z</time>
      </trkpt>
      <trkpt lat="38.996614" lon="16.550269">
        <ele>613.636910</ele>
        <time>2023-12-04T09:55:16.828Z</time>
      </trkpt>
      <trkpt lat="38.996655" lon="16.550162">
        <ele>613.897662</ele>
        <time>2023-12-04T09:55:18.377Z</time>
      </trkpt>
      <trkpt lat="38.996754" lon="16.550107">
        <ele>614.200930</ele>
        <time>2023-12-04T09:55:21.305Z</time>
      </trkpt>
      <trkpt lat="38.997392" lon="16.550283">
        <ele>616.035987</ele>
        <time>2023-12-04T09:55:46.554Z</time>
      </trkpt>
      <trkpt lat="38.997494" lon="16.550401">
        <ele>616.421743</ele>
        <time>2023-12-04T09:55:53.124Z</time>
      </trkpt>
      <trkpt lat="38.997693" lon="16.551126">
        <ele>617.557401</ele>
        <time>2023-12-04T09:56:12.904Z</time>
      </trkpt>
      <trkpt lat="38.997861" lon="16.551541">
        <ele>616.025447</ele>
        <time>2023-12-04T09:56:19.209Z</time>
      </trkpt>
      <trkpt lat="38.998146" lon="16.551952">
        <ele>614.222110</ele>
        <time>2023-12-04T09:56:23.634Z</time>
      </trkpt>
      <trkpt lat="38.998237" lon="16.552008">
        <ele>613.797175</ele>
        <time>2023-12-04T09:56:24.559Z</time>
      </trkpt>
      <trkpt lat="38.998384" lon="16.552019">
        <ele>613.176873</ele>
        <time>2023-12-04T09:56:25.862Z</time>
      </trkpt>
      <trkpt lat="38.998503" lon="16.551971">
        <ele>612.651516</ele>
        <time>2023-12-04T09:56:27.014Z</time>
      </trkpt>
      <trkpt lat="38.998953" lon="16.551444">
        <ele>610.199618</ele>
        <time>2023-12-04T09:56:32.269Z</time>
      </trkpt>
      <trkpt lat="38.998965" lon="16.551285">
        <ele>609.942732</ele>
        <time>2023-12-04T09:56:33.343Z</time>
      </trkpt>
      <trkpt lat="38.998848" lon="16.551036">
        <ele>609.474824</ele>
        <time>2023-12-04T09:56:35.268Z</time>
      </trkpt>
      <trkpt lat="38.998769" lon="16.550763">
        <ele>609.006373</ele>
        <time>2023-12-04T09:56:37.251Z</time>
      </trkpt>
      <trkpt lat="38.998750" lon="16.550401">
        <ele>608.422923</ele>
        <time>2023-12-04T09:56:39.765Z</time>
      </trkpt>
      <trkpt lat="38.998791" lon="16.549534">
        <ele>607.026141</ele>
        <time>2023-12-04T09:56:53.507Z</time>
      </trkpt>
      <trkpt lat="38.998844" lon="16.549440">
        <ele>606.839390</ele>
        <time>2023-12-04T09:56:57.862Z</time>
      </trkpt>
      <trkpt lat="38.998938" lon="16.549396">
        <ele>606.632418</ele>
        <time>2023-12-04T09:57:02.969Z</time>
      </trkpt>
      <trkpt lat="38.999007" lon="16.549413">
        <ele>607.028299</ele>
        <time>2023-12-04T09:57:06.407Z</time>
      </trkpt>
      <trkpt lat="38.999662" lon="16.549900">
        <ele>614.074352</ele>
        <time>2023-12-04T09:57:53.617Z</time>
      </trkpt>
      <trkpt lat="38.999867" lon="16.549969">
        <ele>616.048009</ele>
        <time>2023-12-04T09:58:08.112Z</time>
      </trkpt>
      <trkpt lat="39.000554" lon="16.549945">
        <ele>622.449235</ele>
        <time>2023-12-04T09:58:49.135Z</time>
      </trkpt>
      <trkpt lat="39.000791" lon="16.549798">
        <ele>622.339402</ele>
        <time>2023-12-04T09:58:58.562Z</time>
      </trkpt>
      <trkpt lat="39.000931" lon="16.549811">
        <ele>621.502926</ele>
        <time>2023-12-04T09:59:01.865Z</time>
      </trkpt>
      <trkpt lat="39.001089" lon="16.549876">
        <ele>620.514401</ele>
        <time>2023-12-04T09:59:03.996Z</time>
      </trkpt>
      <trkpt lat="39.001570" lon="16.550206">
        <ele>617.265992</ele>
        <time>2023-12-04T09:59:09.030Z</time>
      </trkpt>
      <trkpt lat="39.001658" lon="16.550189">
        <ele>616.735694</ele>
        <time>2023-12-04T09:59:09.806Z</time>
      </trkpt>
      <trkpt lat="39.001750" lon="16.550051">
        <ele>615.893650</ele>
        <time>2023-12-04T09:59:11.021Z</time>
      </trkpt>
      <trkpt lat="39.001899" lon="16.549892">
        <ele>614.740109</ele>
        <time>2023-12-04T09:59:12.658Z</time>
      </trkpt>
      <trkpt lat="39.002136" lon="16.549851">
        <ele>613.315040</ele>
        <time>2023-12-04T09:59:14.660Z</time>
      </trkpt>
      <trkpt lat="39.002254" lon="16.549803">
        <ele>612.516294</ele>
        <time>2023-12-04T09:59:15.682Z</time>
      </trkpt>
      <trkpt lat="39.003206" lon="16.548788">
        <ele>594.438343</ele>
        <time>2023-12-04T09:59:25.848Z</time>
      </trkpt>
      <trkpt lat="39.003260" lon="16.548542">
        <ele>591.533593</ele>
        <time>2023-12-04T09:59:27.496Z</time>
      </trkpt>
      <trkpt lat="39.003321" lon="16.547672">
        <ele>585.865949</ele>
        <time>2023-12-04T09:59:33.435Z</time>
      </trkpt>
      <trkpt lat="39.003387" lon="16.547390">
        <ele>585.544130</ele>
        <time>2023-12-04T09:59:35.571Z</time>
      </trkpt>
      <trkpt lat="39.003482" lon="16.547193">
        <ele>585.290785</ele>
        <time>2023-12-04T09:59:37.372Z</time>
      </trkpt>
      <trkpt lat="39.003601" lon="16.547070">
        <ele>585.076160</ele>
        <time>2023-12-04T09:59:39.215Z</time>
      </trkpt>
      <trkpt lat="39.003660" lon="16.547038">
        <ele>584.986130</ele>
        <time>2023-12-04T09:59:40.206Z</time>
      </trkpt>
      <trkpt lat="39.003774" lon="16.547030">
        <ele>584.825592</ele>
        <time>2023-12-04T09:59:42.137Z</time>
      </trkpt>
      <trkpt lat="39.003967" lon="16.547228">
        <ele>584.478519</ele>
        <time>2023-12-04T09:59:48.951Z</time>
      </trkpt>
      <trkpt lat="39.004020" lon="16.547238">
        <ele>584.403197</ele>
        <time>2023-12-04T09:59:50.590Z</time>
      </trkpt>
      <trkpt lat="39.004209" lon="16.547186">
        <ele>584.131430</ele>
        <time>2023-12-04T09:59:57.610Z</time>
      </trkpt>
      <trkpt lat="39.004336" lon="16.547087">
        <ele>583.922641</ele>
        <time>2023-12-04T10:00:02.375Z</time>
      </trkpt>
      <trkpt lat="39.004552" lon="16.546888">
        <ele>583.680984</ele>
        <time>2023-12-04T10:00:12.354Z</time>
      </trkpt>
      <trkpt lat="39.004668" lon="16.546826">
        <ele>583.601098</ele>
        <time>2023-12-04T10:00:16.453Z</time>
      </trkpt>
      <trkpt lat="39.004823" lon="16.546818">
        <ele>583.502440</ele>
        <time>2023-12-04T10:00:21.913Z</time>
      </trkpt>
      <trkpt lat="39.005241" lon="16.546903">
        <ele>583.233296</ele>
        <time>2023-12-04T10:00:32.215Z</time>
      </trkpt>
      <trkpt lat="39.005548" lon="16.547033">
        <ele>583.027746</ele>
        <time>2023-12-04T10:00:35.888Z</time>
      </trkpt>
      <trkpt lat="39.005905" lon="16.546919">
        <ele>582.793810</ele>
        <time>2023-12-04T10:00:39.331Z</time>
      </trkpt>
      <trkpt lat="39.005984" lon="16.546826">
        <ele>582.725715</ele>
        <time>2023-12-04T10:00:40.293Z</time>
      </trkpt>
      <trkpt lat="39.006000" lon="16.546667">
        <ele>582.646478</ele>
        <time>2023-12-04T10:00:41.420Z</time>
      </trkpt>
      <trkpt lat="39.005943" lon="16.546492">
        <ele>581.682196</ele>
        <time>2023-12-04T10:00:42.799Z</time>
      </trkpt>
      <trkpt lat="39.005836" lon="16.546296">
        <ele>580.458935</ele>
        <time>2023-12-04T10:00:44.443Z</time>
      </trkpt>
      <trkpt lat="39.005728" lon="16.546207">
        <ele>579.616118</ele>
        <time>2023-12-04T10:00:45.592Z</time>
      </trkpt>
      <trkpt lat="39.005486" lon="16.546194">
        <ele>578.024344</ele>
        <time>2023-12-04T10:00:47.695Z</time>
      </trkpt>
      <trkpt lat="39.005114" lon="16.546128">
        <ele>575.556487</ele>
        <time>2023-12-04T10:00:50.948Z</time>
      </trkpt>
      <trkpt lat="39.005026" lon="16.546087">
        <ele>574.941427</ele>
        <time>2023-12-04T10:00:51.761Z</time>
      </trkpt>
      <trkpt lat="39.004942" lon="16.545958">
        <ele>574.081919</ele>
        <time>2023-12-04T10:00:52.909Z</time>
      </trkpt>
      <trkpt lat="39.004853" lon="16.545738">
        <ele>572.815264</ele>
        <time>2023-12-04T10:00:54.598Z</time>
      </trkpt>
      <trkpt lat="39.004841" lon="16.545576">
        <ele>571.984190</ele>
        <time>2023-12-04T10:00:55.742Z</time>
      </trkpt>
      <trkpt lat="39.004942" lon="16.545274">
        <ele>570.974086</ele>
        <time>2023-12-04T10:00:58.125Z</time>
      </trkpt>
      <trkpt lat="39.005576" lon="16.543833">
        <ele>573.387888</ele>
        <time>2023-12-04T10:01:38.464Z</time>
      </trkpt>
      <trkpt lat="39.005669" lon="16.543753">
        <ele>573.597725</ele>
        <time>2023-12-04T10:01:42.468Z</time>
      </trkpt>
      <trkpt lat="39.005794" lon="16.543731">
        <ele>573.834384</ele>
        <time>2023-12-04T10:01:46.854Z</time>
      </trkpt>
      <trkpt lat="39.006554" lon="16.544242">
        <ele>573.420521</ele>
        <time>2023-12-04T10:02:00.302Z</time>
      </trkpt>
      <trkpt lat="39.006641" lon="16.544256">
        <ele>573.317491</ele>
        <time>2023-12-04T10:02:01.302Z</time>
      </trkpt>
      <trkpt lat="39.006791" lon="16.544226">
        <ele>573.139110</ele>
        <time>2023-12-04T10:02:03.207Z</time>
      </trkpt>
      <trkpt lat="39.006804" lon="16.544068">
        <ele>572.994029</ele>
        <time>2023-12-04T10:02:04.577Z</time>
      </trkpt>
      <trkpt lat="39.006788" lon="16.543953">
        <ele>572.887348</ele>
        <time>2023-12-04T10:02:05.649Z</time>
      </trkpt>
      <trkpt lat="39.006623" lon="16.543060">
        <ele>572.013312</ele>
        <time>2023-12-04T10:02:13.415Z</time>
      </trkpt>
      <trkpt lat="39.006549" lon="16.542945">
        <ele>571.743662</ele>
        <time>2023-12-04T10:02:14.532Z</time>
      </trkpt>
      <trkpt lat="39.006140" lon="16.542625">
        <ele>570.631225</ele>
        <time>2023-12-04T10:02:18.901Z</time>
      </trkpt>
      <trkpt lat="39.006001" lon="16.542378">
        <ele>570.080458</ele>
        <time>2023-12-04T10:02:21.033Z</time>
      </trkpt>
      <trkpt lat="39.005815" lon="16.541732">
        <ele>568.836280</ele>
        <time>2023-12-04T10:02:26.778Z</time>
      </trkpt>
      <trkpt lat="39.005656" lon="16.541551">
        <ele>568.342920</ele>
        <time>2023-12-04T10:02:30.682Z</time>
      </trkpt>
      <trkpt lat="39.005376" lon="16.541416">
        <ele>568.118473</ele>
        <time>2023-12-04T10:02:39.036Z</time>
      </trkpt>
      <trkpt lat="39.005093" lon="16.541106">
        <ele>568.831635</ele>
        <time>2023-12-04T10:02:50.146Z</time>
      </trkpt>
      <trkpt lat="39.004964" lon="16.541093">
        <ele>569.079935</ele>
        <time>2023-12-04T10:02:54.010Z</time>
      </trkpt>
      <trkpt lat="39.004825" lon="16.541152">
        <ele>569.360801</ele>
        <time>2023-12-04T10:02:58.158Z</time>
      </trkpt>
      <trkpt lat="39.004700" lon="16.541147">
        <ele>569.600783</ele>
        <time>2023-12-04T10:03:01.878Z</time>
      </trkpt>
      <trkpt lat="39.004574" lon="16.541051">
        <ele>569.881769</ele>
        <time>2023-12-04T10:03:05.910Z</time>
      </trkpt>
      <trkpt lat="39.004285" lon="16.540596">
        <ele>570.758070</ele>
        <time>2023-12-04T10:03:16.571Z</time>
      </trkpt>
      <trkpt lat="39.004259" lon="16.540350">
        <ele>571.128282</ele>
        <time>2023-12-04T10:03:19.577Z</time>
      </trkpt>
      <trkpt lat="39.004359" lon="16.539929">
        <ele>570.607287</ele>
        <time>2023-12-04T10:03:23.978Z</time>
      </trkpt>
      <trkpt lat="39.004340" lon="16.539748">
        <ele>570.129627</ele>
        <time>2023-12-04T10:03:25.563Z</time>
      </trkpt>
      <trkpt lat="39.004236" lon="16.539657">
        <ele>569.706378</ele>
        <time>2023-12-04T10:03:26.947Z</time>
      </trkpt>
      <trkpt lat="39.004013" lon="16.539563">
        <ele>568.916654</ele>
        <time>2023-12-04T10:03:29.400Z</time>
      </trkpt>
      <trkpt lat="39.003909" lon="16.539595">
        <ele>568.556785</ele>
        <time>2023-12-04T10:03:30.523Z</time>
      </trkpt>
      <trkpt lat="39.003734" lon="16.539884">
        <ele>567.598603</ele>
        <time>2023-12-04T10:03:33.337Z</time>
      </trkpt>
      <trkpt lat="39.003735" lon="16.540014">
        <ele>567.258600</ele>
        <time>2023-12-04T10:03:34.320Z</time>
      </trkpt>
      <trkpt lat="39.003768" lon="16.540314">
        <ele>566.466196</ele>
        <time>2023-12-04T10:03:36.558Z</time>
      </trkpt>
      <trkpt lat="39.003727" lon="16.540482">
        <ele>566.005673</ele>
        <time>2023-12-04T10:03:37.836Z</time>
      </trkpt>
      <trkpt lat="39.003647" lon="16.540596">
        <ele>565.603958</ele>
        <time>2023-12-04T10:03:38.923Z</time>
      </trkpt>
      <trkpt lat="39.003484" lon="16.540695">
        <ele>564.746144</ele>
        <time>2023-12-04T10:03:40.565Z</time>
      </trkpt>
      <trkpt lat="39.003115" lon="16.540728">
        <ele>562.481449</ele>
        <time>2023-12-04T10:03:43.870Z</time>
      </trkpt>
      <trkpt lat="39.002770" lon="16.540976">
        <ele>560.061909</ele>
        <time>2023-12-04T10:03:47.392Z</time>
      </trkpt>
      <trkpt lat="39.002699" lon="16.541010">
        <ele>559.598078</ele>
        <time>2023-12-04T10:03:48.072Z</time>
      </trkpt>
      <trkpt lat="39.002609" lon="16.541006">
        <ele>559.046714</ele>
        <time>2023-12-04T10:03:48.890Z</time>
      </trkpt>
      <trkpt lat="39.002345" lon="16.540892">
        <ele>557.341760</ele>
        <time>2023-12-04T10:03:51.458Z</time>
      </trkpt>
      <trkpt lat="39.002035" lon="16.540926">
        <ele>555.436867</ele>
        <time>2023-12-04T10:03:54.369Z</time>
      </trkpt>
      <trkpt lat="39.001927" lon="16.540896">
        <ele>554.760393</ele>
        <time>2023-12-04T10:03:55.416Z</time>
      </trkpt>
      <trkpt lat="39.001858" lon="16.540822">
        <ele>554.241033</ele>
        <time>2023-12-04T10:03:56.261Z</time>
      </trkpt>
      <trkpt lat="39.001818" lon="16.540706">
        <ele>553.864819</ele>
        <time>2023-12-04T10:03:57.193Z</time>
      </trkpt>
      <trkpt lat="39.001783" lon="16.540303">
        <ele>552.662691</ele>
        <time>2023-12-04T10:04:00.178Z</time>
      </trkpt>
      <trkpt lat="39.001697" lon="16.540169">
        <ele>552.147494</ele>
        <time>2023-12-04T10:04:01.472Z</time>
      </trkpt>
      <trkpt lat="39.001488" lon="16.539942">
        <ele>551.104187</ele>
        <time>2023-12-04T10:04:04.136Z</time>
      </trkpt>
      <trkpt lat="39.001401" lon="16.539925">
        <ele>550.768504</ele>
        <time>2023-12-04T10:04:05.017Z</time>
      </trkpt>
      <trkpt lat="39.001322" lon="16.539916">
        <ele>550.465965</ele>
        <time>2023-12-04T10:04:05.817Z</time>
      </trkpt>
      <trkpt lat="39.000958" lon="16.540176">
        <ele>548.877835</ele>
        <time>2023-12-04T10:04:10.098Z</time>
      </trkpt>
      <trkpt lat="39.000811" lon="16.540223">
        <ele>548.300025</ele>
        <time>2023-12-04T10:04:11.652Z</time>
      </trkpt>
      <trkpt lat="39.000363" lon="16.540209">
        <ele>547.123302</ele>
        <time>2023-12-04T10:04:16.230Z</time>
      </trkpt>
      <trkpt lat="38.999864" lon="16.540246">
        <ele>546.426213</ele>
        <time>2023-12-04T10:04:21.321Z</time>
      </trkpt>
      <trkpt lat="38.999780" lon="16.540215">
        <ele>546.304339</ele>
        <time>2023-12-04T10:04:22.217Z</time>
      </trkpt>
      <trkpt lat="38.999679" lon="16.540069">
        <ele>546.092484</ele>
        <time>2023-12-04T10:04:23.914Z</time>
      </trkpt>
      <trkpt lat="38.999615" lon="16.540023">
        <ele>545.990245</ele>
        <time>2023-12-04T10:04:24.809Z</time>
      </trkpt>
      <trkpt lat="38.999555" lon="16.539997">
        <ele>545.901948</ele>
        <time>2023-12-04T10:04:25.572Z</time>
      </trkpt>
      <trkpt lat="38.999353" lon="16.539999">
        <ele>545.620219</ele>
        <time>2023-12-04T10:04:28.340Z</time>
      </trkpt>
      <trkpt lat="38.999266" lon="16.540052">
        <ele>545.485972</ele>
        <time>2023-12-04T10:04:30.058Z</time>
      </trkpt>
      <trkpt lat="38.999055" lon="16.540322">
        <ele>545.070958</ele>
        <time>2023-12-04T10:04:35.134Z</time>
      </trkpt>
      <trkpt lat="38.998917" lon="16.540362">
        <ele>545.047056</ele>
        <time>2023-12-04T10:04:37.739Z</time>
      </trkpt>
      <trkpt lat="38.998792" lon="16.540338">
        <ele>545.505280</ele>
        <time>2023-12-04T10:04:39.778Z</time>
      </trkpt>
      <trkpt lat="38.998635" lon="16.540266">
        <ele>546.109578</ele>
        <time>2023-12-04T10:04:43.417Z</time>
      </trkpt>
      <trkpt lat="38.998579" lon="16.540187">
        <ele>546.410866</ele>
        <time>2023-12-04T10:04:44.566Z</time>
      </trkpt>
      <trkpt lat="38.998553" lon="16.540117">
        <ele>546.629475</ele>
        <time>2023-12-04T10:04:45.354Z</time>
      </trkpt>
      <trkpt lat="38.998518" lon="16.539647">
        <ele>547.959866</ele>
        <time>2023-12-04T10:04:53.721Z</time>
      </trkpt>
      <trkpt lat="38.998486" lon="16.539525">
        <ele>548.322678</ele>
        <time>2023-12-04T10:04:56.981Z</time>
      </trkpt>
      <trkpt lat="38.998406" lon="16.539435">
        <ele>548.707957</ele>
        <time>2023-12-04T10:05:00.395Z</time>
      </trkpt>
      <trkpt lat="38.998014" lon="16.539425">
        <ele>550.129490</ele>
        <time>2023-12-04T10:05:13.898Z</time>
      </trkpt>
      <trkpt lat="38.997905" lon="16.539486">
        <ele>550.560446</ele>
        <time>2023-12-04T10:05:18.061Z</time>
      </trkpt>
      <trkpt lat="38.997696" lon="16.539866">
        <ele>552.144289</ele>
        <time>2023-12-04T10:05:34.364Z</time>
      </trkpt>
      <trkpt lat="38.997637" lon="16.539904">
        <ele>552.535186</ele>
        <time>2023-12-04T10:05:37.795Z</time>
      </trkpt>
      <trkpt lat="38.997544" lon="16.539918">
        <ele>553.089931</ele>
        <time>2023-12-04T10:05:42.419Z</time>
      </trkpt>
      <trkpt lat="38.997460" lon="16.539865">
        <ele>553.644210</ele>
        <time>2023-12-04T10:05:46.561Z</time>
      </trkpt>
      <trkpt lat="38.997233" lon="16.539536">
        <ele>555.669927</ele>
        <time>2023-12-04T10:06:01.263Z</time>
      </trkpt>
      <trkpt lat="38.997127" lon="16.539521">
        <ele>556.301721</ele>
        <time>2023-12-04T10:06:05.015Z</time>
      </trkpt>
      <trkpt lat="38.997033" lon="16.539544">
        <ele>556.868613</ele>
        <time>2023-12-04T10:06:08.679Z</time>
      </trkpt>
      <trkpt lat="38.996842" lon="16.539643">
        <ele>558.088576</ele>
        <time>2023-12-04T10:06:15.755Z</time>
      </trkpt>
      <trkpt lat="38.996663" lon="16.539670">
        <ele>559.156341</ele>
        <time>2023-12-04T10:06:22.074Z</time>
      </trkpt>
      <trkpt lat="38.996439" lon="16.539517">
        <ele>560.658848</ele>
        <time>2023-12-04T10:06:30.688Z</time>
      </trkpt>
      <trkpt lat="38.996361" lon="16.539386">
        <ele>561.418712</ele>
        <time>2023-12-04T10:06:35.478Z</time>
      </trkpt>
      <trkpt lat="38.996359" lon="16.539253">
        <ele>562.031227</ele>
        <time>2023-12-04T10:06:38.985Z</time>
      </trkpt>
      <trkpt lat="38.996392" lon="16.539095">
        <ele>562.558473</ele>
        <time>2023-12-04T10:06:43.887Z</time>
      </trkpt>
      <trkpt lat="38.996379" lon="16.538964">
        <ele>562.965934</ele>
        <time>2023-12-04T10:06:47.656Z</time>
      </trkpt>
      <trkpt lat="38.996301" lon="16.538856">
        <ele>563.420814</ele>
        <time>2023-12-04T10:06:51.503Z</time>
      </trkpt>
      <trkpt lat="38.996172" lon="16.538841">
        <ele>563.935016</ele>
        <time>2023-12-04T10:06:56.301Z</time>
      </trkpt>
      <trkpt lat="38.996077" lon="16.538880">
        <ele>564.330885</ele>
        <time>2023-12-04T10:07:00.161Z</time>
      </trkpt>
      <trkpt lat="38.995612" lon="16.539245">
        <ele>566.493272</ele>
        <time>2023-12-04T10:07:19.023Z</time>
      </trkpt>
      <trkpt lat="38.995500" lon="16.539291">
        <ele>566.960001</ele>
        <time>2023-12-04T10:07:22.629Z</time>
      </trkpt>
      <trkpt lat="38.995398" lon="16.539283">
        <ele>567.365681</ele>
        <time>2023-12-04T10:07:25.745Z</time>
      </trkpt>
      <trkpt lat="38.995309" lon="16.539206">
        <ele>567.791446</ele>
        <time>2023-12-04T10:07:28.306Z</time>
      </trkpt>
      <trkpt lat="38.995272" lon="16.539075">
        <ele>568.221493</ele>
        <time>2023-12-04T10:07:30.756Z</time>
      </trkpt>
      <trkpt lat="38.995295" lon="16.538615">
        <ele>569.498301</ele>
        <time>2023-12-04T10:07:38.307Z</time>
      </trkpt>
      <trkpt lat="38.995278" lon="16.538494">
        <ele>569.741135</ele>
        <time>2023-12-04T10:07:40.301Z</time>
      </trkpt>
      <trkpt lat="38.995154" lon="16.538215">
        <ele>570.375860</ele>
        <time>2023-12-04T10:07:44.423Z</time>
      </trkpt>
      <trkpt lat="38.995139" lon="16.538134">
        <ele>570.540304</ele>
        <time>2023-12-04T10:07:45.592Z</time>
      </trkpt>
      <trkpt lat="38.995149" lon="16.537990">
        <ele>570.825821</ele>
        <time>2023-12-04T10:07:47.771Z</time>
      </trkpt>
      <trkpt lat="38.995383" lon="16.537527">
        <ele>571.916523</ele>
        <time>2023-12-04T10:07:56.731Z</time>
      </trkpt>
      <trkpt lat="38.995414" lon="16.537416">
        <ele>572.149459</ele>
        <time>2023-12-04T10:07:59.030Z</time>
      </trkpt>
      <trkpt lat="38.995452" lon="16.536639">
        <ele>573.686978</ele>
        <time>2023-12-04T10:08:16.948Z</time>
      </trkpt>
      <trkpt lat="38.995463" lon="16.536165">
        <ele>576.257057</ele>
        <time>2023-12-04T10:08:29.324Z</time>
      </trkpt>
      <trkpt lat="38.995484" lon="16.535988">
        <ele>577.320852</ele>
        <time>2023-12-04T10:08:34.339Z</time>
      </trkpt>
      <trkpt lat="38.995553" lon="16.535761">
        <ele>578.769008</ele>
        <time>2023-12-04T10:08:41.456Z</time>
      </trkpt>
      <trkpt lat="38.996033" lon="16.535250">
        <ele>583.531531</ele>
        <time>2023-12-04T10:09:10.587Z</time>
      </trkpt>
      <trkpt lat="38.996185" lon="16.535167">
        <ele>584.793810</ele>
        <time>2023-12-04T10:09:19.451Z</time>
      </trkpt>
      <trkpt lat="38.996353" lon="16.535167">
        <ele>586.078093</ele>
        <time>2023-12-04T10:09:29.185Z</time>
      </trkpt>
      <trkpt lat="38.996433" lon="16.535113">
        <ele>586.768702</ele>
        <time>2023-12-04T10:09:34.418Z</time>
      </trkpt>
      <trkpt lat="38.996623" lon="16.534845">
        <ele>589.103717</ele>
        <time>2023-12-04T10:09:51.630Z</time>
      </trkpt>
      <trkpt lat="38.996797" lon="16.534838">
        <ele>590.609958</ele>
        <time>2023-12-04T10:10:02.369Z</time>
      </trkpt>
      <trkpt lat="38.997261" lon="16.534983">
        <ele>594.741348</ele>
        <time>2023-12-04T10:10:29.814Z</time>
      </trkpt>
      <trkpt lat="38.997815" lon="16.535102">
        <ele>599.601073</ele>
        <time>2023-12-04T10:10:58.144Z</time>
      </trkpt>
      <trkpt lat="38.997961" lon="16.535057">
        <ele>600.900050</ele>
        <time>2023-12-04T10:11:04.113Z</time>
      </trkpt>
      <trkpt lat="38.998180" lon="16.534785">
        <ele>603.324698</ele>
        <time>2023-12-04T10:11:14.883Z</time>
      </trkpt>
      <trkpt lat="38.998288" lon="16.534767">
        <ele>603.788210</ele>
        <time>2023-12-04T10:11:18.354Z</time>
      </trkpt>
      <trkpt lat="38.998372" lon="16.534798">
        <ele>604.160148</ele>
        <time>2023-12-04T10:11:20.780Z</time>
      </trkpt>
      <trkpt lat="38.998646" lon="16.535116">
        <ele>605.730648</ele>
        <time>2023-12-04T10:11:31.092Z</time>
      </trkpt>
      <trkpt lat="38.998716" lon="16.535149">
        <ele>606.047951</ele>
        <time>2023-12-04T10:11:33.405Z</time>
      </trkpt>
      <trkpt lat="38.998762" lon="16.535131">
        <ele>606.252590</ele>
        <time>2023-12-04T10:11:34.687Z</time>
      </trkpt>
      <trkpt lat="38.998922" lon="16.534954">
        <ele>607.150663</ele>
        <time>2023-12-04T10:11:40.293Z</time>
      </trkpt>
      <trkpt lat="38.998958" lon="16.534884">
        <ele>607.428314</ele>
        <time>2023-12-04T10:11:42.292Z</time>
      </trkpt>
      <trkpt lat="38.998993" lon="16.534452">
        <ele>608.865008</ele>
        <time>2023-12-04T10:11:52.160Z</time>
      </trkpt>
      <trkpt lat="38.999045" lon="16.534337">
        <ele>609.305101</ele>
        <time>2023-12-04T10:11:55.802Z</time>
      </trkpt>
      <trkpt lat="38.999178" lon="16.534247">
        <ele>609.944686</ele>
        <time>2023-12-04T10:12:00.796Z</time>
      </trkpt>
      <trkpt lat="38.999611" lon="16.534296">
        <ele>611.630839</ele>
        <time>2023-12-04T10:12:16.308Z</time>
      </trkpt>
      <trkpt lat="38.999812" lon="16.534160">
        <ele>612.441614</ele>
        <time>2023-12-04T10:12:24.179Z</time>
      </trkpt>
      <trkpt lat="38.999898" lon="16.534132">
        <ele>612.758328</ele>
        <time>2023-12-04T10:12:26.989Z</time>
      </trkpt>
      <trkpt lat="39.000334" lon="16.534127">
        <ele>614.315000</ele>
        <time>2023-12-04T10:12:39.795Z</time>
      </trkpt>
      <trkpt lat="39.000507" lon="16.534205">
        <ele>614.969463</ele>
        <time>2023-12-04T10:12:45.400Z</time>
      </trkpt>
      <trkpt lat="39.000726" lon="16.534459">
        <ele>616.022070</ele>
        <time>2023-12-04T10:12:53.492Z</time>
      </trkpt>
      <trkpt lat="39.000906" lon="16.534557">
        <ele>616.719863</ele>
        <time>2023-12-04T10:12:58.244Z</time>
      </trkpt>
      <trkpt lat="39.001202" lon="16.534561">
        <ele>617.180719</ele>
        <time>2023-12-04T10:13:05.404Z</time>
      </trkpt>
      <trkpt lat="39.001325" lon="16.534530">
        <ele>617.166266</ele>
        <time>2023-12-04T10:13:08.054Z</time>
      </trkpt>
      <trkpt lat="39.001505" lon="16.534380">
        <ele>617.141536</ele>
        <time>2023-12-04T10:13:12.304Z</time>
      </trkpt>
      <trkpt lat="39.001742" lon="16.533970">
        <ele>617.095743</ele>
        <time>2023-12-04T10:13:18.130Z</time>
      </trkpt>
      <trkpt lat="39.001766" lon="16.533849">
        <ele>617.084551</ele>
        <time>2023-12-04T10:13:19.314Z</time>
      </trkpt>
      <trkpt lat="39.001770" lon="16.533503">
        <ele>617.053540</ele>
        <time>2023-12-04T10:13:22.393Z</time>
      </trkpt>
      <trkpt lat="39.001812" lon="16.533405">
        <ele>617.043511</ele>
        <time>2023-12-04T10:13:23.317Z</time>
      </trkpt>
      <trkpt lat="39.002271" lon="16.532862">
        <ele>617.469553</ele>
        <time>2023-12-04T10:13:30.099Z</time>
      </trkpt>
      <trkpt lat="39.002341" lon="16.532682">
        <ele>617.893098</ele>
        <time>2023-12-04T10:13:32.119Z</time>
      </trkpt>
      <trkpt lat="39.002313" lon="16.532485">
        <ele>618.314512</ele>
        <time>2023-12-04T10:13:34.502Z</time>
      </trkpt>
      <trkpt lat="39.002174" lon="16.532106">
        <ele>619.196378</ele>
        <time>2023-12-04T10:13:41.455Z</time>
      </trkpt>
      <trkpt lat="39.002172" lon="16.531712">
        <ele>620.025473</ele>
        <time>2023-12-04T10:13:50.271Z</time>
      </trkpt>
      <trkpt lat="39.002153" lon="16.531579">
        <ele>620.310029</ele>
        <time>2023-12-04T10:13:53.837Z</time>
      </trkpt>
      <trkpt lat="39.002129" lon="16.531489">
        <ele>620.510252</ele>
        <time>2023-12-04T10:13:56.442Z</time>
      </trkpt>
      <trkpt lat="39.001960" lon="16.531261">
        <ele>621.173267</ele>
        <time>2023-12-04T10:14:05.433Z</time>
      </trkpt>
      <trkpt lat="39.001922" lon="16.531123">
        <ele>621.481346</ele>
        <time>2023-12-04T10:14:09.946Z</time>
      </trkpt>
      <trkpt lat="39.001926" lon="16.530992">
        <ele>621.757218</ele>
        <time>2023-12-04T10:14:14.052Z</time>
      </trkpt>
      <trkpt lat="39.002167" lon="16.530590">
        <ele>623.473153</ele>
        <time>2023-12-04T10:14:30.371Z</time>
      </trkpt>
      <trkpt lat="39.002272" lon="16.530456">
        <ele>624.142748</ele>
        <time>2023-12-04T10:14:36.700Z</time>
      </trkpt>
      <trkpt lat="39.002377" lon="16.530378">
        <ele>624.691714</ele>
        <time>2023-12-04T10:14:42.048Z</time>
      </trkpt>
      <trkpt lat="39.002500" lon="16.530368">
        <ele>625.249758</ele>
        <time>2023-12-04T10:14:47.112Z</time>
      </trkpt>
      <trkpt lat="39.002719" lon="16.530545">
        <ele>626.420738</ele>
        <time>2023-12-04T10:14:57.409Z</time>
      </trkpt>
      <trkpt lat="39.003027" lon="16.530824">
        <ele>628.126222</ele>
        <time>2023-12-04T10:15:09.397Z</time>
      </trkpt>
      <trkpt lat="39.003186" lon="16.531018">
        <ele>629.118336</ele>
        <time>2023-12-04T10:15:14.949Z</time>
      </trkpt>
      <trkpt lat="39.003342" lon="16.531381">
        <ele>629.711762</ele>
        <time>2023-12-04T10:15:21.385Z</time>
      </trkpt>
      <trkpt lat="39.003440" lon="16.531451">
        <ele>629.450200</ele>
        <time>2023-12-04T10:15:22.920Z</time>
      </trkpt>
      <trkpt lat="39.003550" lon="16.531445">
        <ele>629.193273</ele>
        <time>2023-12-04T10:15:24.155Z</time>
      </trkpt>
      <trkpt lat="39.003682" lon="16.531344">
        <ele>628.834897</ele>
        <time>2023-12-04T10:15:25.899Z</time>
      </trkpt>
      <trkpt lat="39.003721" lon="16.531291">
        <ele>628.702531</ele>
        <time>2023-12-04T10:15:26.577Z</time>
      </trkpt>
      <trkpt lat="39.003741" lon="16.531201">
        <ele>628.532778</ele>
        <time>2023-12-04T10:15:27.446Z</time>
      </trkpt>
      <trkpt lat="39.003700" lon="16.530891">
        <ele>627.962523</ele>
        <time>2023-12-04T10:15:29.981Z</time>
      </trkpt>
      <trkpt lat="39.003709" lon="16.530734">
        <ele>627.677037</ele>
        <time>2023-12-04T10:15:31.263Z</time>
      </trkpt>
      <trkpt lat="39.003739" lon="16.530669">
        <ele>627.539940</ele>
        <time>2023-12-04T10:15:31.832Z</time>
      </trkpt>
      <trkpt lat="39.003908" lon="16.530545">
        <ele>627.085958</ele>
        <time>2023-12-04T10:15:33.732Z</time>
      </trkpt>
      <trkpt lat="39.003985" lon="16.530410">
        <ele>626.782276</ele>
        <time>2023-12-04T10:15:35.015Z</time>
      </trkpt>
      <trkpt lat="39.003993" lon="16.530202">
        <ele>626.404617</ele>
        <time>2023-12-04T10:15:36.542Z</time>
      </trkpt>
      <trkpt lat="39.003965" lon="16.530097">
        <ele>626.203306</ele>
        <time>2023-12-04T10:15:37.357Z</time>
      </trkpt>
      <trkpt lat="39.003805" lon="16.529908">
        <ele>625.872610</ele>
        <time>2023-12-04T10:15:39.383Z</time>
      </trkpt>
      <trkpt lat="39.003789" lon="16.529823">
        <ele>625.962213</ele>
        <time>2023-12-04T10:15:40.041Z</time>
      </trkpt>
      <trkpt lat="39.003821" lon="16.529733">
        <ele>626.063613</ele>
        <time>2023-12-04T10:15:40.765Z</time>
      </trkpt>
      <trkpt lat="39.004051" lon="16.529580">
        <ele>626.404960</ele>
        <time>2023-12-04T10:15:43.245Z</time>
      </trkpt>
      <trkpt lat="39.004183" lon="16.529371">
        <ele>626.680885</ele>
        <time>2023-12-04T10:15:45.550Z</time>
      </trkpt>
      <trkpt lat="39.004397" lon="16.528928">
        <ele>627.215289</ele>
        <time>2023-12-04T10:15:53.741Z</time>
      </trkpt>
      <trkpt lat="39.004415" lon="16.528787">
        <ele>627.361681</ele>
        <time>2023-12-04T10:15:57.041Z</time>
      </trkpt>
      <trkpt lat="39.004377" lon="16.528720">
        <ele>627.446661</ele>
        <time>2023-12-04T10:15:59.042Z</time>
      </trkpt>
      <trkpt lat="39.004210" lon="16.528555">
        <ele>627.724242</ele>
        <time>2023-12-04T10:16:06.406Z</time>
      </trkpt>
      <trkpt lat="39.004191" lon="16.528430">
        <ele>627.854733</ele>
        <time>2023-12-04T10:16:10.662Z</time>
      </trkpt>
      <trkpt lat="39.004204" lon="16.528308">
        <ele>627.980893</ele>
        <time>2023-12-04T10:16:15.043Z</time>
      </trkpt>
      <trkpt lat="39.004243" lon="16.528235">
        <ele>628.071652</ele>
        <time>2023-12-04T10:16:18.354Z</time>
      </trkpt>
      <trkpt lat="39.004297" lon="16.528160">
        <ele>628.176402</ele>
        <time>2023-12-04T10:16:22.152Z</time>
      </trkpt>
      <trkpt lat="39.004524" lon="16.528024">
        <ele>629.780525</ele>
        <time>2023-12-04T10:16:33.688Z</time>
      </trkpt>
      <trkpt lat="39.004664" lon="16.528023">
        <ele>630.685986</ele>
        <time>2023-12-04T10:16:39.633Z</time>
      </trkpt>
      <trkpt lat="39.004706" lon="16.528051">
        <ele>630.991908</ele>
        <time>2023-12-04T10:16:41.768Z</time>
      </trkpt>
      <trkpt lat="39.004828" lon="16.528300">
        <ele>632.471320</ele>
        <time>2023-12-04T10:16:51.029Z</time>
      </trkpt>
      <trkpt lat="39.004924" lon="16.528424">
        <ele>633.351020</ele>
        <time>2023-12-04T10:16:56.505Z</time>
      </trkpt>
      <trkpt lat="39.005068" lon="16.528523">
        <ele>634.406915</ele>
        <time>2023-12-04T10:17:02.904Z</time>
      </trkpt>
      <trkpt lat="39.005155" lon="16.528543">
        <ele>634.978493</ele>
        <time>2023-12-04T10:17:06.263Z</time>
      </trkpt>
      <trkpt lat="39.005289" lon="16.528489">
        <ele>635.886636</ele>
        <time>2023-12-04T10:17:11.930Z</time>
      </trkpt>
      <trkpt lat="39.005384" lon="16.528353">
        <ele>636.805703</ele>
        <time>2023-12-04T10:17:17.524Z</time>
      </trkpt>
      <trkpt lat="39.005448" lon="16.528143">
        <ele>637.939384</ele>
        <time>2023-12-04T10:17:24.602Z</time>
      </trkpt>
      <trkpt lat="39.005547" lon="16.528020">
        <ele>638.829381</ele>
        <time>2023-12-04T10:17:30.430Z</time>
      </trkpt>
      <trkpt lat="39.005917" lon="16.527685">
        <ele>641.087598</ele>
        <time>2023-12-04T10:17:49.135Z</time>
      </trkpt>
      <trkpt lat="39.005955" lon="16.527564">
        <ele>641.518023</ele>
        <time>2023-12-04T10:17:52.912Z</time>
      </trkpt>
      <trkpt lat="39.005949" lon="16.527466">
        <ele>641.842235</ele>
        <time>2023-12-04T10:17:55.888Z</time>
      </trkpt>
      <trkpt lat="39.005869" lon="16.527117">
        <ele>643.042297</ele>
        <time>2023-12-04T10:18:05.106Z</time>
      </trkpt>
      <trkpt lat="39.005893" lon="16.527002">
        <ele>643.435015</ele>
        <time>2023-12-04T10:18:08.271Z</time>
      </trkpt>
      <trkpt lat="39.006038" lon="16.526771">
        <ele>644.414376</ele>
        <time>2023-12-04T10:18:14.826Z</time>
      </trkpt>
      <trkpt lat="39.006265" lon="16.526466">
        <ele>645.807232</ele>
        <time>2023-12-04T10:18:23.295Z</time>
      </trkpt>
      <trkpt lat="39.006433" lon="16.526291">
        <ele>646.724572</ele>
        <time>2023-12-04T10:18:28.742Z</time>
      </trkpt>
      <trkpt lat="39.007186" lon="16.525745">
        <ele>648.744711</ele>
        <time>2023-12-04T10:18:51.568Z</time>
      </trkpt>
      <trkpt lat="39.007215" lon="16.525673">
        <ele>648.862544</ele>
        <time>2023-12-04T10:18:53.341Z</time>
      </trkpt>
      <trkpt lat="39.007199" lon="16.525475">
        <ele>649.151787</ele>
        <time>2023-12-04T10:18:57.894Z</time>
      </trkpt>
      <trkpt lat="39.006944" lon="16.525158">
        <ele>649.814732</ele>
        <time>2023-12-04T10:19:06.296Z</time>
      </trkpt>
      <trkpt lat="39.006919" lon="16.525066">
        <ele>649.956346</ele>
        <time>2023-12-04T10:19:07.692Z</time>
      </trkpt>
      <trkpt lat="39.006918" lon="16.524560">
        <ele>650.691563</ele>
        <time>2023-12-04T10:19:13.781Z</time>
      </trkpt>
      <trkpt lat="39.006846" lon="16.524449">
        <ele>650.840287</ele>
        <time>2023-12-04T10:19:15.262Z</time>
      </trkpt>
      <trkpt lat="39.006751" lon="16.524403">
        <ele>650.903077</ele>
        <time>2023-12-04T10:19:16.593Z</time>
      </trkpt>
      <trkpt lat="39.006556" lon="16.524497">
        <ele>651.031891</ele>
        <time>2023-12-04T10:19:19.089Z</time>
      </trkpt>
      <trkpt lat="39.006463" lon="16.524576">
        <ele>651.100824</ele>
        <time>2023-12-04T10:19:20.362Z</time>
      </trkpt>
      <trkpt lat="39.006352" lon="16.524563">
        <ele>651.169773</ele>
        <time>2023-12-04T10:19:21.877Z</time>
      </trkpt>
      <trkpt lat="39.006197" lon="16.524476">
        <ele>651.274381</ele>
        <time>2023-12-04T10:19:24.574Z</time>
      </trkpt>
      <trkpt lat="39.005965" lon="16.524473">
        <ele>651.417904</ele>
        <time>2023-12-04T10:19:29.287Z</time>
      </trkpt>
      <trkpt lat="39.005821" lon="16.524506">
        <ele>651.508385</ele>
        <time>2023-12-04T10:19:32.348Z</time>
      </trkpt>
      <trkpt lat="39.005767" lon="16.524536">
        <ele>651.544769</ele>
        <time>2023-12-04T10:19:33.752Z</time>
      </trkpt>
      <trkpt lat="39.005590" lon="16.524766">
        <ele>651.700374</ele>
        <time>2023-12-04T10:19:39.509Z</time>
      </trkpt>
      <trkpt lat="39.005462" lon="16.524870">
        <ele>651.794017</ele>
        <time>2023-12-04T10:19:42.966Z</time>
      </trkpt>
      <trkpt lat="39.005338" lon="16.524915">
        <ele>651.873716</ele>
        <time>2023-12-04T10:19:45.686Z</time>
      </trkpt>
      <trkpt lat="39.005191" lon="16.524887">
        <ele>651.751500</ele>
        <time>2023-12-04T10:19:48.387Z</time>
      </trkpt>
      <trkpt lat="39.005141" lon="16.524819">
        <ele>651.572613</ele>
        <time>2023-12-04T10:19:49.715Z</time>
      </trkpt>
      <trkpt lat="39.005100" lon="16.524730">
        <ele>651.374908</ele>
        <time>2023-12-04T10:19:50.999Z</time>
      </trkpt>
      <trkpt lat="39.005022" lon="16.524334">
        <ele>650.594276</ele>
        <time>2023-12-04T10:19:55.090Z</time>
      </trkpt>
      <trkpt lat="39.004874" lon="16.524224">
        <ele>650.174003</ele>
        <time>2023-12-04T10:19:57.038Z</time>
      </trkpt>
      <trkpt lat="39.004708" lon="16.524201">
        <ele>649.763450</ele>
        <time>2023-12-04T10:19:58.855Z</time>
      </trkpt>
      <trkpt lat="39.004591" lon="16.524249">
        <ele>649.461480</ele>
        <time>2023-12-04T10:20:00.156Z</time>
      </trkpt>
      <trkpt lat="39.004489" lon="16.524345">
        <ele>649.150736</ele>
        <time>2023-12-04T10:20:01.441Z</time>
      </trkpt>
      <trkpt lat="39.004304" lon="16.524721">
        <ele>648.300337</ele>
        <time>2023-12-04T10:20:04.806Z</time>
      </trkpt>
      <trkpt lat="39.004041" lon="16.524908">
        <ele>647.561465</ele>
        <time>2023-12-04T10:20:07.679Z</time>
      </trkpt>
      <trkpt lat="39.003702" lon="16.525565">
        <ele>643.046836</ele>
        <time>2023-12-04T10:20:13.252Z</time>
      </trkpt>
      <trkpt lat="39.003294" lon="16.525800">
        <ele>639.660239</ele>
        <time>2023-12-04T10:20:17.151Z</time>
      </trkpt>
      <trkpt lat="39.003102" lon="16.525963">
        <ele>637.917568</ele>
        <time>2023-12-04T10:20:19.135Z</time>
      </trkpt>
      <trkpt lat="39.002950" lon="16.525940">
        <ele>636.758054</ele>
        <time>2023-12-04T10:20:20.457Z</time>
      </trkpt>
      <trkpt lat="39.002417" lon="16.525623">
        <ele>632.880230</ele>
        <time>2023-12-04T10:20:25.605Z</time>
      </trkpt>
      <trkpt lat="39.002295" lon="16.525597">
        <ele>632.285363</ele>
        <time>2023-12-04T10:20:26.725Z</time>
      </trkpt>
      <trkpt lat="39.002081" lon="16.525685">
        <ele>631.204645</ele>
        <time>2023-12-04T10:20:28.832Z</time>
      </trkpt>
      <trkpt lat="39.001485" lon="16.526053">
        <ele>628.024654</ele>
        <time>2023-12-04T10:20:35.500Z</time>
      </trkpt>
      <trkpt lat="39.001336" lon="16.526100">
        <ele>627.286679</ele>
        <time>2023-12-04T10:20:37.110Z</time>
      </trkpt>
      <trkpt lat="39.001230" lon="16.526055">
        <ele>626.749740</ele>
        <time>2023-12-04T10:20:38.191Z</time>
      </trkpt>
      <trkpt lat="39.000833" lon="16.525698">
        <ele>624.714605</ele>
        <time>2023-12-04T10:20:42.896Z</time>
      </trkpt>
      <trkpt lat="39.000742" lon="16.525692">
        <ele>624.437610</ele>
        <time>2023-12-04T10:20:43.798Z</time>
      </trkpt>
      <trkpt lat="39.000691" lon="16.525719">
        <ele>624.269966</ele>
        <time>2023-12-04T10:20:44.340Z</time>
      </trkpt>
      <trkpt lat="39.000458" lon="16.526051">
        <ele>623.213152</ele>
        <time>2023-12-04T10:20:47.781Z</time>
      </trkpt>
      <trkpt lat="39.000217" lon="16.526227">
        <ele>622.370768</ele>
        <time>2023-12-04T10:20:50.699Z</time>
      </trkpt>
      <trkpt lat="39.000017" lon="16.526439">
        <ele>621.583062</ele>
        <time>2023-12-04T10:20:53.661Z</time>
      </trkpt>
      <trkpt lat="38.999911" lon="16.526736">
        <ele>620.810959</ele>
        <time>2023-12-04T10:20:56.634Z</time>
      </trkpt>
      <trkpt lat="38.999329" lon="16.527056">
        <ele>618.536982</ele>
        <time>2023-12-04T10:21:03.124Z</time>
      </trkpt>
      <trkpt lat="38.998924" lon="16.526989">
        <ele>616.793972</ele>
        <time>2023-12-04T10:21:06.887Z</time>
      </trkpt>
      <trkpt lat="38.998667" lon="16.526914">
        <ele>615.669083</ele>
        <time>2023-12-04T10:21:09.308Z</time>
      </trkpt>
      <trkpt lat="38.998593" lon="16.526947">
        <ele>615.334774</ele>
        <time>2023-12-04T10:21:10.026Z</time>
      </trkpt>
      <trkpt lat="38.998381" lon="16.527183">
        <ele>614.138171</ele>
        <time>2023-12-04T10:21:12.710Z</time>
      </trkpt>
      <trkpt lat="38.998284" lon="16.527219">
        <ele>613.707238</ele>
        <time>2023-12-04T10:21:13.669Z</time>
      </trkpt>
      <trkpt lat="38.997731" lon="16.527026">
        <ele>611.378016</ele>
        <time>2023-12-04T10:21:19.450Z</time>
      </trkpt>
      <trkpt lat="38.997612" lon="16.527026">
        <ele>610.942832</ele>
        <time>2023-12-04T10:21:20.659Z</time>
      </trkpt>
      <trkpt lat="38.997498" lon="16.527065">
        <ele>610.511449</ele>
        <time>2023-12-04T10:21:21.832Z</time>
      </trkpt>
      <trkpt lat="38.997426" lon="16.527140">
        <ele>610.172677</ele>
        <time>2023-12-04T10:21:22.847Z</time>
      </trkpt>
      <trkpt lat="38.997344" lon="16.527284">
        <ele>609.665306</ele>
        <time>2023-12-04T10:21:24.318Z</time>
      </trkpt>
      <trkpt lat="38.997147" lon="16.527751">
        <ele>608.155109</ele>
        <time>2023-12-04T10:21:28.443Z</time>
      </trkpt>
      <trkpt lat="38.996949" lon="16.527985">
        <ele>607.171944</ele>
        <time>2023-12-04T10:21:31.085Z</time>
      </trkpt>
      <trkpt lat="38.996718" lon="16.528190">
        <ele>606.145734</ele>
        <time>2023-12-04T10:21:33.824Z</time>
      </trkpt>
      <trkpt lat="38.996311" lon="16.528543">
        <ele>603.693330</ele>
        <time>2023-12-04T10:21:38.582Z</time>
      </trkpt>
      <trkpt lat="38.996154" lon="16.528566">
        <ele>602.784205</ele>
        <time>2023-12-04T10:21:40.109Z</time>
      </trkpt>
      <trkpt lat="38.996067" lon="16.528547">
        <ele>602.276497</ele>
        <time>2023-12-04T10:21:40.948Z</time>
      </trkpt>
      <trkpt lat="38.995951" lon="16.528464">
        <ele>601.512847</ele>
        <time>2023-12-04T10:21:42.197Z</time>
      </trkpt>
      <trkpt lat="38.995843" lon="16.528300">
        <ele>600.551664</ele>
        <time>2023-12-04T10:21:43.710Z</time>
      </trkpt>
      <trkpt lat="38.995787" lon="16.527766">
        <ele>598.142232</ele>
        <time>2023-12-04T10:21:47.476Z</time>
      </trkpt>
      <trkpt lat="38.995632" lon="16.527413">
        <ele>596.329284</ele>
        <time>2023-12-04T10:21:50.318Z</time>
      </trkpt>
      <trkpt lat="38.994993" lon="16.526810">
        <ele>593.179134</ele>
        <time>2023-12-04T10:21:57.538Z</time>
      </trkpt>
      <trkpt lat="38.994857" lon="16.526801">
        <ele>592.722346</ele>
        <time>2023-12-04T10:21:58.805Z</time>
      </trkpt>
      <trkpt lat="38.994775" lon="16.526844">
        <ele>592.425326</ele>
        <time>2023-12-04T10:21:59.628Z</time>
      </trkpt>
      <trkpt lat="38.994687" lon="16.526933">
        <ele>592.049874</ele>
        <time>2023-12-04T10:22:00.682Z</time>
      </trkpt>
      <trkpt lat="38.994622" lon="16.527024">
        <ele>591.727666</ele>
        <time>2023-12-04T10:22:01.612Z</time>
      </trkpt>
      <trkpt lat="38.994388" lon="16.527565">
        <ele>590.113586</ele>
        <time>2023-12-04T10:22:06.809Z</time>
      </trkpt>
      <trkpt lat="38.994314" lon="16.527649">
        <ele>589.782576</ele>
        <time>2023-12-04T10:22:08.093Z</time>
      </trkpt>
      <trkpt lat="38.994135" lon="16.527669">
        <ele>589.179895</ele>
        <time>2023-12-04T10:22:11.370Z</time>
      </trkpt>
      <trkpt lat="38.993968" lon="16.527616">
        <ele>589.673878</ele>
        <time>2023-12-04T10:22:15.059Z</time>
      </trkpt>
      <trkpt lat="38.993921" lon="16.527557">
        <ele>589.913362</ele>
        <time>2023-12-04T10:22:16.579Z</time>
      </trkpt>
      <trkpt lat="38.993876" lon="16.527439">
        <ele>590.285941</ele>
        <time>2023-12-04T10:22:19.557Z</time>
      </trkpt>
      <trkpt lat="38.993826" lon="16.527189">
        <ele>591.017679</ele>
        <time>2023-12-04T10:22:25.875Z</time>
      </trkpt>
      <trkpt lat="38.993829" lon="16.527063">
        <ele>591.375007</ele>
        <time>2023-12-04T10:22:29.190Z</time>
      </trkpt>
      <trkpt lat="38.994144" lon="16.525566">
        <ele>595.806051</ele>
        <time>2023-12-04T10:23:09.169Z</time>
      </trkpt>
      <trkpt lat="38.994136" lon="16.525332">
        <ele>596.713099</ele>
        <time>2023-12-04T10:23:14.381Z</time>
      </trkpt>
      <trkpt lat="38.994094" lon="16.525149">
        <ele>597.452025</ele>
        <time>2023-12-04T10:23:18.666Z</time>
      </trkpt>
      <trkpt lat="38.993983" lon="16.524779">
        <ele>598.987898</ele>
        <time>2023-12-04T10:23:30.441Z</time>
      </trkpt>
      <trkpt lat="38.993877" lon="16.524560">
        <ele>599.986997</ele>
        <time>2023-12-04T10:23:39.139Z</time>
      </trkpt>
      <trkpt lat="38.993934" lon="16.524038">
        <ele>602.028317</ele>
        <time>2023-12-04T10:23:54.891Z</time>
      </trkpt>
      <trkpt lat="38.993932" lon="16.523773">
        <ele>603.054589</ele>
        <time>2023-12-04T10:24:02.047Z</time>
      </trkpt>
      <trkpt lat="38.993887" lon="16.523667">
        <ele>603.522322</ele>
        <time>2023-12-04T10:24:05.558Z</time>
      </trkpt>
      <trkpt lat="38.993616" lon="16.523419">
        <ele>605.048611</ele>
        <time>2023-12-04T10:24:15.971Z</time>
      </trkpt>
      <trkpt lat="38.993334" lon="16.523329">
        <ele>606.146846</ele>
        <time>2023-12-04T10:24:23.844Z</time>
      </trkpt>
      <trkpt lat="38.993177" lon="16.523237">
        <ele>606.798940</ele>
        <time>2023-12-04T10:24:27.842Z</time>
      </trkpt>
      <trkpt lat="38.993043" lon="16.523075">
        <ele>607.493962</ele>
        <time>2023-12-04T10:24:31.131Z</time>
      </trkpt>
      <trkpt lat="38.992531" lon="16.522161">
        <ele>610.803889</ele>
        <time>2023-12-04T10:24:58.366Z</time>
      </trkpt>
      <trkpt lat="38.992350" lon="16.521918">
        <ele>612.045523</ele>
        <time>2023-12-04T10:25:08.055Z</time>
      </trkpt>
      <trkpt lat="38.992255" lon="16.521769">
        <ele>613.013625</ele>
        <time>2023-12-04T10:25:12.511Z</time>
      </trkpt>
      <trkpt lat="38.991908" lon="16.521545">
        <ele>615.522795</ele>
        <time>2023-12-04T10:25:24.876Z</time>
      </trkpt>
      <trkpt lat="38.990699" lon="16.521626">
        <ele>623.406504</ele>
        <time>2023-12-04T10:26:17.349Z</time>
      </trkpt>
      <trkpt lat="38.990290" lon="16.521894">
        <ele>626.986892</ele>
        <time>2023-12-04T10:26:42.527Z</time>
      </trkpt>
      <trkpt lat="38.989755" lon="16.521599">
        <ele>631.527339</ele>
        <time>2023-12-04T10:27:13.751Z</time>
      </trkpt>
      <trkpt lat="38.989220" lon="16.521563">
        <ele>635.706360</ele>
        <time>2023-12-04T10:27:38.125Z</time>
      </trkpt>
      <trkpt lat="38.988651" lon="16.521403">
        <ele>637.072916</ele>
        <time>2023-12-04T10:27:56.710Z</time>
      </trkpt>
      <trkpt lat="38.988533" lon="16.520911">
        <ele>637.054126</ele>
        <time>2023-12-04T10:28:03.563Z</time>
      </trkpt>
      <trkpt lat="38.988116" lon="16.520384">
        <ele>637.026680</ele>
        <time>2023-12-04T10:28:09.795Z</time>
      </trkpt>
      <trkpt lat="38.987901" lon="16.519527">
        <ele>636.443088</ele>
        <time>2023-12-04T10:28:16.806Z</time>
      </trkpt>
      <trkpt lat="38.987707" lon="16.519241">
        <ele>635.870600</ele>
        <time>2023-12-04T10:28:19.818Z</time>
      </trkpt>
      <trkpt lat="38.987137" lon="16.519196">
        <ele>634.762543</ele>
        <time>2023-12-04T10:28:26.265Z</time>
      </trkpt>
      <trkpt lat="38.986860" lon="16.519312">
        <ele>634.197321</ele>
        <time>2023-12-04T10:28:30.313Z</time>
      </trkpt>
      <trkpt lat="38.986505" lon="16.519509">
        <ele>633.265206</ele>
        <time>2023-12-04T10:28:35.310Z</time>
      </trkpt>
      <trkpt lat="38.986374" lon="16.519696">
        <ele>631.903995</ele>
        <time>2023-12-04T10:28:37.676Z</time>
      </trkpt>
      <trkpt lat="38.985915" lon="16.519616">
        <ele>628.681803</ele>
        <time>2023-12-04T10:28:42.529Z</time>
      </trkpt>
      <trkpt lat="38.985457" lon="16.519902">
        <ele>625.140245</ele>
        <time>2023-12-04T10:28:47.099Z</time>
      </trkpt>
      <trkpt lat="38.984825" lon="16.519920">
        <ele>620.510268</ele>
        <time>2023-12-04T10:28:52.458Z</time>
      </trkpt>
      <trkpt lat="38.984068" lon="16.519625">
        <ele>610.139192</ele>
        <time>2023-12-04T10:28:59.022Z</time>
      </trkpt>
      <trkpt lat="38.983860" lon="16.519920">
        <ele>606.079865</ele>
        <time>2023-12-04T10:29:01.581Z</time>
      </trkpt>
      <trkpt lat="38.983221" lon="16.520608">
        <ele>596.710647</ele>
        <time>2023-12-04T10:29:08.598Z</time>
      </trkpt>
      <trkpt lat="38.982589" lon="16.521394">
        <ele>593.096098</ele>
        <time>2023-12-04T10:29:17.516Z</time>
      </trkpt>
      <trkpt lat="38.982013" lon="16.522323">
        <ele>589.844337</ele>
        <time>2023-12-04T10:29:28.313Z</time>
      </trkpt>
      <trkpt lat="38.981742" lon="16.522555">
        <ele>589.510492</ele>
        <time>2023-12-04T10:29:32.097Z</time>
      </trkpt>
      <trkpt lat="38.981138" lon="16.522751">
        <ele>588.871647</ele>
        <time>2023-12-04T10:29:39.594Z</time>
      </trkpt>
      <trkpt lat="38.980846" lon="16.522885">
        <ele>588.553698</ele>
        <time>2023-12-04T10:29:43.254Z</time>
      </trkpt>
      <trkpt lat="38.980464" lon="16.523654">
        <ele>589.629282</ele>
        <time>2023-12-04T10:29:51.842Z</time>
      </trkpt>
      <trkpt lat="38.979971" lon="16.524404">
        <ele>592.821605</ele>
        <time>2023-12-04T10:30:11.602Z</time>
      </trkpt>
      <trkpt lat="38.979666" lon="16.525208">
        <ele>595.768934</ele>
        <time>2023-12-04T10:30:44.138Z</time>
      </trkpt>
      <trkpt lat="38.979367" lon="16.525592">
        <ele>600.052768</ele>
        <time>2023-12-04T10:31:08.075Z</time>
      </trkpt>
      <trkpt lat="38.979027" lon="16.526200">
        <ele>605.956093</ele>
        <time>2023-12-04T10:31:42.187Z</time>
      </trkpt>
      <trkpt lat="38.978719" lon="16.526586">
        <ele>610.315988</ele>
        <time>2023-12-04T10:32:07.173Z</time>
      </trkpt>
      <trkpt lat="38.978577" lon="16.526692">
        <ele>611.980607</ele>
        <time>2023-12-04T10:32:16.782Z</time>
      </trkpt>
      <trkpt lat="38.978238" lon="16.526859">
        <ele>614.713291</ele>
        <time>2023-12-04T10:32:37.020Z</time>
      </trkpt>
      <trkpt lat="38.977801" lon="16.526998">
        <ele>616.766409</ele>
        <time>2023-12-04T10:32:59.640Z</time>
      </trkpt>
      <trkpt lat="38.977497" lon="16.527020">
        <ele>618.155099</ele>
        <time>2023-12-04T10:33:12.070Z</time>
      </trkpt>
      <trkpt lat="38.976725" lon="16.527205">
        <ele>621.736650</ele>
        <time>2023-12-04T10:33:29.952Z</time>
      </trkpt>
      <trkpt lat="38.976345" lon="16.527234">
        <ele>619.353874</ele>
        <time>2023-12-04T10:33:34.210Z</time>
      </trkpt>
      <trkpt lat="38.976082" lon="16.527219">
        <ele>616.839480</ele>
        <time>2023-12-04T10:33:36.632Z</time>
      </trkpt>
      <trkpt lat="38.975691" lon="16.527012">
        <ele>612.801097</ele>
        <time>2023-12-04T10:33:40.278Z</time>
      </trkpt>
      <trkpt lat="38.975387" lon="16.526997">
        <ele>609.895443</ele>
        <time>2023-12-04T10:33:42.795Z</time>
      </trkpt>
      <trkpt lat="38.975242" lon="16.527031">
        <ele>608.487719</ele>
        <time>2023-12-04T10:33:44.040Z</time>
      </trkpt>
      <trkpt lat="38.975163" lon="16.527078">
        <ele>607.656389</ele>
        <time>2023-12-04T10:33:44.755Z</time>
      </trkpt>
      <trkpt lat="38.974978" lon="16.527250">
        <ele>605.476217</ele>
        <time>2023-12-04T10:33:46.663Z</time>
      </trkpt>
      <trkpt lat="38.974872" lon="16.527345">
        <ele>604.072958</ele>
        <time>2023-12-04T10:33:47.741Z</time>
      </trkpt>
      <trkpt lat="38.974646" lon="16.527720">
        <ele>599.721647</ele>
        <time>2023-12-04T10:33:50.802Z</time>
      </trkpt>
      <trkpt lat="38.974590" lon="16.527818">
        <ele>598.606263</ele>
        <time>2023-12-04T10:33:51.582Z</time>
      </trkpt>
      <trkpt lat="38.974381" lon="16.528012">
        <ele>595.565955</ele>
        <time>2023-12-04T10:33:53.759Z</time>
      </trkpt>
      <trkpt lat="38.974404" lon="16.528118">
        <ele>594.556710</ele>
        <time>2023-12-04T10:33:54.470Z</time>
      </trkpt>
      <trkpt lat="38.974457" lon="16.528141">
        <ele>593.896889</ele>
        <time>2023-12-04T10:33:54.959Z</time>
      </trkpt>
      <trkpt lat="38.974900" lon="16.528313">
        <ele>588.438301</ele>
        <time>2023-12-04T10:33:58.902Z</time>
      </trkpt>
      <trkpt lat="38.975037" lon="16.528447">
        <ele>586.408075</ele>
        <time>2023-12-04T10:34:00.357Z</time>
      </trkpt>
      <trkpt lat="38.975168" lon="16.528744">
        <ele>583.663510</ele>
        <time>2023-12-04T10:34:02.624Z</time>
      </trkpt>
      <trkpt lat="38.975476" lon="16.529614">
        <ele>582.130440</ele>
        <time>2023-12-04T10:34:09.861Z</time>
      </trkpt>
      <trkpt lat="38.975493" lon="16.529742">
        <ele>581.922193</ele>
        <time>2023-12-04T10:34:12.087Z</time>
      </trkpt>
      <trkpt lat="38.975400" lon="16.530127">
        <ele>581.275654</ele>
        <time>2023-12-04T10:34:16.491Z</time>
      </trkpt>
      <trkpt lat="38.975358" lon="16.530332">
        <ele>580.935672</ele>
        <time>2023-12-04T10:34:18.384Z</time>
      </trkpt>
      <trkpt lat="38.975367" lon="16.530465">
        <ele>580.721574</ele>
        <time>2023-12-04T10:34:20.417Z</time>
      </trkpt>
      <trkpt lat="38.975465" lon="16.530946">
        <ele>580.092170</ele>
        <time>2023-12-04T10:34:31.305Z</time>
      </trkpt>
      <trkpt lat="38.975484" lon="16.531177">
        <ele>580.283350</ele>
        <time>2023-12-04T10:34:36.650Z</time>
      </trkpt>
      <trkpt lat="38.975441" lon="16.531907">
        <ele>580.885883</ele>
        <time>2023-12-04T10:34:49.860Z</time>
      </trkpt>
      <trkpt lat="38.975469" lon="16.532076">
        <ele>581.028099</ele>
        <time>2023-12-04T10:34:52.338Z</time>
      </trkpt>
      <trkpt lat="38.975535" lon="16.532213">
        <ele>581.160748</ele>
        <time>2023-12-04T10:34:54.829Z</time>
      </trkpt>
      <trkpt lat="38.975569" lon="16.532441">
        <ele>581.351819</ele>
        <time>2023-12-04T10:34:58.431Z</time>
      </trkpt>
      <trkpt lat="38.975635" lon="16.533054">
        <ele>581.861150</ele>
        <time>2023-12-04T10:35:05.987Z</time>
      </trkpt>
      <trkpt lat="38.975601" lon="16.533228">
        <ele>581.683281</ele>
        <time>2023-12-04T10:35:07.509Z</time>
      </trkpt>
      <trkpt lat="38.975554" lon="16.533343">
        <ele>581.289019</ele>
        <time>2023-12-04T10:35:08.734Z</time>
      </trkpt>
      <trkpt lat="38.975484" lon="16.533383">
        <ele>580.990031</ele>
        <time>2023-12-04T10:35:09.773Z</time>
      </trkpt>
      <trkpt lat="38.975112" lon="16.533393">
        <ele>579.537639</ele>
        <time>2023-12-04T10:35:13.815Z</time>
      </trkpt>
      <trkpt lat="38.974936" lon="16.533488">
        <ele>578.792600</ele>
        <time>2023-12-04T10:35:15.705Z</time>
      </trkpt>
      <trkpt lat="38.974733" lon="16.533861">
        <ele>577.410894</ele>
        <time>2023-12-04T10:35:19.071Z</time>
      </trkpt>
      <trkpt lat="38.974597" lon="16.534404">
        <ele>575.679694</ele>
        <time>2023-12-04T10:35:23.100Z</time>
      </trkpt>
      <trkpt lat="38.974186" lon="16.534837">
        <ele>572.749180</ele>
        <time>2023-12-04T10:35:27.994Z</time>
      </trkpt>
      <trkpt lat="38.973807" lon="16.535342">
        <ele>569.228684</ele>
        <time>2023-12-04T10:35:32.968Z</time>
      </trkpt>
      <trkpt lat="38.973598" lon="16.535898">
        <ele>566.131152</ele>
        <time>2023-12-04T10:35:37.311Z</time>
      </trkpt>
      <trkpt lat="38.973330" lon="16.536207">
        <ele>563.809225</ele>
        <time>2023-12-04T10:35:40.519Z</time>
      </trkpt>
      <trkpt lat="38.973104" lon="16.536398">
        <ele>562.066672</ele>
        <time>2023-12-04T10:35:42.947Z</time>
      </trkpt>
      <trkpt lat="38.972947" lon="16.536488">
        <ele>560.959561</ele>
        <time>2023-12-04T10:35:44.531Z</time>
      </trkpt>
      <trkpt lat="38.972303" lon="16.536795">
        <ele>556.535871</ele>
        <time>2023-12-04T10:35:50.934Z</time>
      </trkpt>
      <trkpt lat="38.972189" lon="16.536826">
        <ele>555.785372</ele>
        <time>2023-12-04T10:35:51.994Z</time>
      </trkpt>
      <trkpt lat="38.972133" lon="16.536804">
        <ele>555.408229</ele>
        <time>2023-12-04T10:35:52.518Z</time>
      </trkpt>
      <trkpt lat="38.972115" lon="16.536717">
        <ele>554.957410</ele>
        <time>2023-12-04T10:35:53.160Z</time>
      </trkpt>
      <trkpt lat="38.972168" lon="16.536590">
        <ele>554.235624</ele>
        <time>2023-12-04T10:35:54.162Z</time>
      </trkpt>
      <trkpt lat="38.972776" lon="16.536033">
        <ele>548.839794</ele>
        <time>2023-12-04T10:36:00.849Z</time>
      </trkpt>
      <trkpt lat="38.973308" lon="16.534942">
        <ele>540.743683</ele>
        <time>2023-12-04T10:36:09.679Z</time>
      </trkpt>
      <trkpt lat="38.973358" lon="16.534798">
        <ele>539.752237</ele>
        <time>2023-12-04T10:36:10.751Z</time>
      </trkpt>
      <trkpt lat="38.973361" lon="16.534670">
        <ele>538.947195</ele>
        <time>2023-12-04T10:36:11.610Z</time>
      </trkpt>
      <trkpt lat="38.973314" lon="16.534168">
        <ele>535.960714</ele>
        <time>2023-12-04T10:36:15.030Z</time>
      </trkpt>
      <trkpt lat="38.973264" lon="16.534074">
        <ele>535.341812</ele>
        <time>2023-12-04T10:36:15.803Z</time>
      </trkpt>
      <trkpt lat="38.973070" lon="16.533872">
        <ele>533.597252</ele>
        <time>2023-12-04T10:36:17.991Z</time>
      </trkpt>
      <trkpt lat="38.972809" lon="16.533526">
        <ele>530.977539</ele>
        <time>2023-12-04T10:36:21.319Z</time>
      </trkpt>
      <trkpt lat="38.972777" lon="16.533421">
        <ele>530.364700</ele>
        <time>2023-12-04T10:36:22.097Z</time>
      </trkpt>
      <trkpt lat="38.972764" lon="16.533132">
        <ele>528.791657</ele>
        <time>2023-12-04T10:36:24.116Z</time>
      </trkpt>
      <trkpt lat="38.972796" lon="16.532943">
        <ele>527.740565</ele>
        <time>2023-12-04T10:36:25.464Z</time>
      </trkpt>
      <trkpt lat="38.972994" lon="16.532254">
        <ele>524.042562</ele>
        <time>2023-12-04T10:36:30.799Z</time>
      </trkpt>
      <trkpt lat="38.973168" lon="16.532085">
        <ele>523.035972</ele>
        <time>2023-12-04T10:36:33.099Z</time>
      </trkpt>
      <trkpt lat="38.973216" lon="16.531994">
        <ele>522.641276</ele>
        <time>2023-12-04T10:36:33.984Z</time>
      </trkpt>
      <trkpt lat="38.973223" lon="16.531918">
        <ele>522.366590</ele>
        <time>2023-12-04T10:36:34.587Z</time>
      </trkpt>
      <trkpt lat="38.973120" lon="16.531711">
        <ele>521.484485</ele>
        <time>2023-12-04T10:36:36.575Z</time>
      </trkpt>
      <trkpt lat="38.973135" lon="16.531521">
        <ele>520.799032</ele>
        <time>2023-12-04T10:36:38.106Z</time>
      </trkpt>
      <trkpt lat="38.973372" lon="16.531168">
        <ele>519.124991</ele>
        <time>2023-12-04T10:36:41.793Z</time>
      </trkpt>
      <trkpt lat="38.973689" lon="16.530838">
        <ele>517.242266</ele>
        <time>2023-12-04T10:36:45.671Z</time>
      </trkpt>
      <trkpt lat="38.973725" lon="16.530743">
        <ele>516.862946</ele>
        <time>2023-12-04T10:36:46.418Z</time>
      </trkpt>
      <trkpt lat="38.973718" lon="16.530582">
        <ele>516.255784</ele>
        <time>2023-12-04T10:36:47.561Z</time>
      </trkpt>
      <trkpt lat="38.973565" lon="16.530193">
        <ele>512.970370</ele>
        <time>2023-12-04T10:36:50.550Z</time>
      </trkpt>
      <trkpt lat="38.973513" lon="16.529882">
        <ele>510.573006</ele>
        <time>2023-12-04T10:36:52.692Z</time>
      </trkpt>
      <trkpt lat="38.973579" lon="16.529530">
        <ele>507.844188</ele>
        <time>2023-12-04T10:36:55.114Z</time>
      </trkpt>
      <trkpt lat="38.973570" lon="16.529458">
        <ele>507.294610</ele>
        <time>2023-12-04T10:36:55.595Z</time>
      </trkpt>
      <trkpt lat="38.973474" lon="16.529240">
        <ele>505.406454</ele>
        <time>2023-12-04T10:36:57.263Z</time>
      </trkpt>
      <trkpt lat="38.973260" lon="16.528980">
        <ele>502.552909</ele>
        <time>2023-12-04T10:36:59.763Z</time>
      </trkpt>
      <trkpt lat="38.973233" lon="16.528945">
        <ele>502.181322</ele>
        <time>2023-12-04T10:37:00.089Z</time>
      </trkpt>
      <trkpt lat="38.973001" lon="16.528703">
        <ele>499.285823</ele>
        <time>2023-12-04T10:37:02.605Z</time>
      </trkpt>
      <trkpt lat="38.972545" lon="16.528330">
        <ele>495.718102</ele>
        <time>2023-12-04T10:37:07.236Z</time>
      </trkpt>
      <trkpt lat="38.971796" lon="16.527761">
        <ele>490.204280</ele>
        <time>2023-12-04T10:37:15.010Z</time>
      </trkpt>
      <trkpt lat="38.971596" lon="16.527578">
        <ele>488.648519</ele>
        <time>2023-12-04T10:37:17.582Z</time>
      </trkpt>
      <trkpt lat="38.971457" lon="16.527409">
        <ele>487.512703</ele>
        <time>2023-12-04T10:37:20.137Z</time>
      </trkpt>
      <trkpt lat="38.971191" lon="16.526839">
        <ele>490.927995</ele>
        <time>2023-12-04T10:37:32.862Z</time>
      </trkpt>
      <trkpt lat="38.971060" lon="16.526581">
        <ele>492.511055</ele>
        <time>2023-12-04T10:37:41.653Z</time>
      </trkpt>
      <trkpt lat="38.970991" lon="16.526388">
        <ele>493.602369</ele>
        <time>2023-12-04T10:37:48.878Z</time>
      </trkpt>
      <trkpt lat="38.970983" lon="16.526270">
        <ele>494.210877</ele>
        <time>2023-12-04T10:37:53.434Z</time>
      </trkpt>
      <trkpt lat="38.971023" lon="16.526059">
        <ele>495.326615</ele>
        <time>2023-12-04T10:38:02.503Z</time>
      </trkpt>
      <trkpt lat="38.971113" lon="16.525823">
        <ele>496.677028</ele>
        <time>2023-12-04T10:38:14.544Z</time>
      </trkpt>
      <trkpt lat="38.971223" lon="16.525387">
        <ele>499.031890</ele>
        <time>2023-12-04T10:38:36.816Z</time>
      </trkpt>
      <trkpt lat="38.971338" lon="16.524959">
        <ele>501.280935</ele>
        <time>2023-12-04T10:38:58.773Z</time>
      </trkpt>
      <trkpt lat="38.971524" lon="16.524855">
        <ele>502.569261</ele>
        <time>2023-12-04T10:39:11.016Z</time>
      </trkpt>
      <trkpt lat="38.971950" lon="16.524948">
        <ele>505.314016</ele>
        <time>2023-12-04T10:39:35.017Z</time>
      </trkpt>
      <trkpt lat="38.972389" lon="16.524907">
        <ele>508.109991</ele>
        <time>2023-12-04T10:39:52.270Z</time>
      </trkpt>
      <trkpt lat="38.973197" lon="16.524989">
        <ele>506.986899</ele>
        <time>2023-12-04T10:40:02.325Z</time>
      </trkpt>
      <trkpt lat="38.973743" lon="16.524762">
        <ele>501.393251</ele>
        <time>2023-12-04T10:40:07.238Z</time>
      </trkpt>
      <trkpt lat="38.974138" lon="16.524658">
        <ele>497.462867</ele>
        <time>2023-12-04T10:40:10.558Z</time>
      </trkpt>
      <trkpt lat="38.974249" lon="16.524507">
        <ele>495.887938</ele>
        <time>2023-12-04T10:40:11.911Z</time>
      </trkpt>
      <trkpt lat="38.974316" lon="16.524098">
        <ele>492.757265</ele>
        <time>2023-12-04T10:40:14.626Z</time>
      </trkpt>
      <trkpt lat="38.974447" lon="16.522875">
        <ele>484.054163</ele>
        <time>2023-12-04T10:40:22.718Z</time>
      </trkpt>
      <trkpt lat="38.974433" lon="16.522831">
        <ele>483.719008</ele>
        <time>2023-12-04T10:40:23.057Z</time>
      </trkpt>
      <trkpt lat="38.974299" lon="16.522406">
        <ele>480.485908</ele>
        <time>2023-12-04T10:40:26.193Z</time>
      </trkpt>
      <trkpt lat="38.973466" lon="16.520374">
        <ele>475.328004</ele>
        <time>2023-12-04T10:40:47.319Z</time>
      </trkpt>
      <trkpt lat="38.973023" lon="16.520061">
        <ele>475.108579</ele>
        <time>2023-12-04T10:40:54.401Z</time>
      </trkpt>
      <trkpt lat="38.972664" lon="16.518981">
        <ele>477.328129</ele>
        <time>2023-12-04T10:41:10.825Z</time>
      </trkpt>
      <trkpt lat="38.972657" lon="16.518811">
        <ele>477.649822</ele>
        <time>2023-12-04T10:41:13.788Z</time>
      </trkpt>
      <trkpt lat="38.972621" lon="16.518691">
        <ele>477.892879</ele>
        <time>2023-12-04T10:41:16.013Z</time>
      </trkpt>
      <trkpt lat="38.972563" lon="16.518546">
        <ele>478.201020</ele>
        <time>2023-12-04T10:41:18.992Z</time>
      </trkpt>
      <trkpt lat="38.972230" lon="16.517988">
        <ele>480.785369</ele>
        <time>2023-12-04T10:41:38.027Z</time>
      </trkpt>
      <trkpt lat="38.972174" lon="16.517671">
        <ele>483.993741</ele>
        <time>2023-12-04T10:41:50.778Z</time>
      </trkpt>
      <trkpt lat="38.972077" lon="16.517534">
        <ele>485.822544</ele>
        <time>2023-12-04T10:41:59.368Z</time>
      </trkpt>
      <trkpt lat="38.971792" lon="16.517466">
        <ele>489.502239</ele>
        <time>2023-12-04T10:42:19.166Z</time>
      </trkpt>
      <trkpt lat="38.971232" lon="16.517399">
        <ele>496.641929</ele>
        <time>2023-12-04T10:43:03.756Z</time>
      </trkpt>
      <trkpt lat="38.971075" lon="16.517352">
        <ele>498.688258</ele>
        <time>2023-12-04T10:43:16.676Z</time>
      </trkpt>
      <trkpt lat="38.970534" lon="16.516534">
        <ele>508.885425</ele>
        <time>2023-12-04T10:44:20.821Z</time>
      </trkpt>
      <trkpt lat="38.970432" lon="16.516430">
        <ele>510.445746</ele>
        <time>2023-12-04T10:44:29.457Z</time>
      </trkpt>
      <trkpt lat="38.970330" lon="16.516379">
        <ele>511.757623</ele>
        <time>2023-12-04T10:44:36.482Z</time>
      </trkpt>
      <trkpt lat="38.970254" lon="16.516443">
        <ele>512.846579</ele>
        <time>2023-12-04T10:44:42.310Z</time>
      </trkpt>
      <trkpt lat="38.969903" lon="16.517069">
        <ele>520.039930</ele>
        <time>2023-12-04T10:45:15.934Z</time>
      </trkpt>
      <trkpt lat="38.969846" lon="16.517274">
        <ele>522.069060</ele>
        <time>2023-12-04T10:45:24.334Z</time>
      </trkpt>
      <trkpt lat="38.969943" lon="16.517833">
        <ele>525.772749</ele>
        <time>2023-12-04T10:45:45.822Z</time>
      </trkpt>
      <trkpt lat="38.969914" lon="16.518079">
        <ele>527.088872</ele>
        <time>2023-12-04T10:45:54.904Z</time>
      </trkpt>
      <trkpt lat="38.969697" lon="16.518785">
        <ele>531.104602</ele>
        <time>2023-12-04T10:46:20.353Z</time>
      </trkpt>
      <trkpt lat="38.969563" lon="16.518997">
        <ele>532.549841</ele>
        <time>2023-12-04T10:46:28.166Z</time>
      </trkpt>
      <trkpt lat="38.969430" lon="16.519115">
        <ele>533.649116</ele>
        <time>2023-12-04T10:46:32.881Z</time>
      </trkpt>
      <trkpt lat="38.969317" lon="16.519098">
        <ele>534.423164</ele>
        <time>2023-12-04T10:46:36.540Z</time>
      </trkpt>
      <trkpt lat="38.969171" lon="16.518991">
        <ele>535.566425</ele>
        <time>2023-12-04T10:46:42.281Z</time>
      </trkpt>
      <trkpt lat="38.968994" lon="16.518733">
        <ele>537.626108</ele>
        <time>2023-12-04T10:46:51.605Z</time>
      </trkpt>
      <trkpt lat="38.968920" lon="16.518688">
        <ele>538.270703</ele>
        <time>2023-12-04T10:46:54.808Z</time>
      </trkpt>
      <trkpt lat="38.968784" lon="16.518671">
        <ele>539.346742</ele>
        <time>2023-12-04T10:47:00.040Z</time>
      </trkpt>
      <trkpt lat="38.968668" lon="16.518725">
        <ele>540.318227</ele>
        <time>2023-12-04T10:47:05.874Z</time>
      </trkpt>
      <trkpt lat="38.968635" lon="16.518822">
        <ele>540.966495</ele>
        <time>2023-12-04T10:47:10.087Z</time>
      </trkpt>
      <trkpt lat="38.968688" lon="16.519083">
        <ele>542.618123</ele>
        <time>2023-12-04T10:47:21.114Z</time>
      </trkpt>
      <trkpt lat="38.968739" lon="16.519573">
        <ele>545.645002</ele>
        <time>2023-12-04T10:47:43.665Z</time>
      </trkpt>
      <trkpt lat="38.968731" lon="16.519822">
        <ele>547.170851</ele>
        <time>2023-12-04T10:47:54.572Z</time>
      </trkpt>
      <trkpt lat="38.968679" lon="16.519916">
        <ele>547.877198</ele>
        <time>2023-12-04T10:47:59.022Z</time>
      </trkpt>
      <trkpt lat="38.968603" lon="16.519943">
        <ele>548.498105</ele>
        <time>2023-12-04T10:48:02.964Z</time>
      </trkpt>
      <trkpt lat="38.968336" lon="16.519849">
        <ele>550.461830</ele>
        <time>2023-12-04T10:48:15.213Z</time>
      </trkpt>
      <trkpt lat="38.968190" lon="16.519828">
        <ele>551.233233</ele>
        <time>2023-12-04T10:48:21.180Z</time>
      </trkpt>
      <trkpt lat="38.967899" lon="16.520229">
        <ele>553.472617</ele>
        <time>2023-12-04T10:48:35.105Z</time>
      </trkpt>
      <trkpt lat="38.967789" lon="16.520259">
        <ele>554.063053</ele>
        <time>2023-12-04T10:48:38.511Z</time>
      </trkpt>
      <trkpt lat="38.967603" lon="16.520235">
        <ele>555.044614</ele>
        <time>2023-12-04T10:48:44.914Z</time>
      </trkpt>
      <trkpt lat="38.967439" lon="16.520364">
        <ele>556.054029</ele>
        <time>2023-12-04T10:48:51.449Z</time>
      </trkpt>
      <trkpt lat="38.967380" lon="16.520600">
        <ele>557.066095</ele>
        <time>2023-12-04T10:48:58.883Z</time>
      </trkpt>
      <trkpt lat="38.967425" lon="16.521001">
        <ele>558.720164</ele>
        <time>2023-12-04T10:49:10.355Z</time>
      </trkpt>
      <trkpt lat="38.967415" lon="16.521129">
        <ele>559.245363</ele>
        <time>2023-12-04T10:49:13.934Z</time>
      </trkpt>
      <trkpt lat="38.967307" lon="16.521280">
        <ele>559.629943</ele>
        <time>2023-12-04T10:49:18.977Z</time>
      </trkpt>
      <trkpt lat="38.967258" lon="16.521457">
        <ele>559.826777</ele>
        <time>2023-12-04T10:49:23.275Z</time>
      </trkpt>
      <trkpt lat="38.967370" lon="16.522094">
        <ele>560.510967</ele>
        <time>2023-12-04T10:49:34.146Z</time>
      </trkpt>
      <trkpt lat="38.967353" lon="16.522608">
        <ele>561.049934</ele>
        <time>2023-12-04T10:49:41.252Z</time>
      </trkpt>
      <trkpt lat="38.967003" lon="16.523151">
        <ele>561.788859</ele>
        <time>2023-12-04T10:49:49.138Z</time>
      </trkpt>
      <trkpt lat="38.967003" lon="16.523737">
        <ele>561.457859</ele>
        <time>2023-12-04T10:49:55.271Z</time>
      </trkpt>
      <trkpt lat="38.966553" lon="16.524295">
        <ele>560.726292</ele>
        <time>2023-12-04T10:50:02.260Z</time>
      </trkpt>
      <trkpt lat="38.966447" lon="16.525023">
        <ele>560.052320</ele>
        <time>2023-12-04T10:50:08.764Z</time>
      </trkpt>
      <trkpt lat="38.966403" lon="16.525681">
        <ele>560.044154</ele>
        <time>2023-12-04T10:50:15.018Z</time>
      </trkpt>
      <trkpt lat="38.966047" lon="16.525867">
        <ele>560.376951</ele>
        <time>2023-12-04T10:50:20.734Z</time>
      </trkpt>
      <trkpt lat="38.965486" lon="16.526210">
        <ele>560.914932</ele>
        <time>2023-12-04T10:50:32.007Z</time>
      </trkpt>
      <trkpt lat="38.964408" lon="16.526524">
        <ele>563.851519</ele>
        <time>2023-12-04T10:51:00.734Z</time>
      </trkpt>
      <trkpt lat="38.963913" lon="16.527518">
        <ele>567.658166</ele>
        <time>2023-12-04T10:51:32.593Z</time>
      </trkpt>
      <trkpt lat="38.963185" lon="16.527911">
        <ele>571.298604</ele>
        <time>2023-12-04T10:51:59.610Z</time>
      </trkpt>
      <trkpt lat="38.962850" lon="16.528372">
        <ele>573.684126</ele>
        <time>2023-12-04T10:52:15.977Z</time>
      </trkpt>
      <trkpt lat="38.962541" lon="16.528797">
        <ele>575.883898</ele>
        <time>2023-12-04T10:52:32.034Z</time>
      </trkpt>
      <trkpt lat="38.962185" lon="16.529397">
        <ele>578.336047</ele>
        <time>2023-12-04T10:52:52.294Z</time>
      </trkpt>
      <trkpt lat="38.961955" lon="16.530343">
        <ele>580.811377</ele>
        <time>2023-12-04T10:53:18.130Z</time>
      </trkpt>
      <trkpt lat="38.961581" lon="16.531274">
        <ele>583.236477</ele>
        <time>2023-12-04T10:53:36.470Z</time>
      </trkpt>
      <trkpt lat="38.961510" lon="16.531964">
        <ele>581.509975</ele>
        <time>2023-12-04T10:53:43.517Z</time>
      </trkpt>
      <trkpt lat="38.961684" lon="16.532495">
        <ele>580.080618</ele>
        <time>2023-12-04T10:53:48.479Z</time>
      </trkpt>
      <trkpt lat="38.961730" lon="16.532782">
        <ele>579.353735</ele>
        <time>2023-12-04T10:53:50.792Z</time>
      </trkpt>
      <trkpt lat="38.961730" lon="16.533318">
        <ele>578.024162</ele>
        <time>2023-12-04T10:53:54.695Z</time>
      </trkpt>
      <trkpt lat="38.961709" lon="16.533667">
        <ele>576.243740</ele>
        <time>2023-12-04T10:53:57.078Z</time>
      </trkpt>
      <trkpt lat="38.961473" lon="16.534873">
        <ele>566.739783</ele>
        <time>2023-12-04T10:54:05.260Z</time>
      </trkpt>
      <trkpt lat="38.961465" lon="16.535068">
        <ele>565.247466</ele>
        <time>2023-12-04T10:54:06.554Z</time>
      </trkpt>
      <trkpt lat="38.961575" lon="16.535816">
        <ele>559.570685</ele>
        <time>2023-12-04T10:54:11.723Z</time>
      </trkpt>
      <trkpt lat="38.961578" lon="16.535943">
        <ele>558.880941</ele>
        <time>2023-12-04T10:54:12.595Z</time>
      </trkpt>
      <trkpt lat="38.961556" lon="16.536065">
        <ele>558.201082</ele>
        <time>2023-12-04T10:54:13.455Z</time>
      </trkpt>
      <trkpt lat="38.961454" lon="16.536206">
        <ele>557.155627</ele>
        <time>2023-12-04T10:54:14.824Z</time>
      </trkpt>
      <trkpt lat="38.961288" lon="16.536276">
        <ele>555.935998</ele>
        <time>2023-12-04T10:54:16.373Z</time>
      </trkpt>
      <trkpt lat="38.960890" lon="16.536338">
        <ele>553.137072</ele>
        <time>2023-12-04T10:54:19.970Z</time>
      </trkpt>
      <trkpt lat="38.960622" lon="16.536441">
        <ele>551.184281</ele>
        <time>2023-12-04T10:54:22.506Z</time>
      </trkpt>
      <trkpt lat="38.960395" lon="16.536561">
        <ele>549.470828</ele>
        <time>2023-12-04T10:54:24.779Z</time>
      </trkpt>
      <trkpt lat="38.960164" lon="16.536790">
        <ele>547.434582</ele>
        <time>2023-12-04T10:54:27.511Z</time>
      </trkpt>
      <trkpt lat="38.959990" lon="16.537068">
        <ele>543.905825</ele>
        <time>2023-12-04T10:54:30.091Z</time>
      </trkpt>
      <trkpt lat="38.959848" lon="16.537419">
        <ele>539.922091</ele>
        <time>2023-12-04T10:54:32.861Z</time>
      </trkpt>
      <trkpt lat="38.959725" lon="16.537847">
        <ele>535.327879</ele>
        <time>2023-12-04T10:54:35.901Z</time>
      </trkpt>
      <trkpt lat="38.959521" lon="16.538098">
        <ele>531.672184</ele>
        <time>2023-12-04T10:54:38.248Z</time>
      </trkpt>
      <trkpt lat="38.958965" lon="16.538928">
        <ele>520.286482</ele>
        <time>2023-12-04T10:54:45.215Z</time>
      </trkpt>
      <trkpt lat="38.958827" lon="16.539259">
        <ele>516.112919</ele>
        <time>2023-12-04T10:54:47.598Z</time>
      </trkpt>
      <trkpt lat="38.958764" lon="16.539333">
        <ele>514.893579</ele>
        <time>2023-12-04T10:54:48.298Z</time>
      </trkpt>
      <trkpt lat="38.958615" lon="16.539374">
        <ele>512.716055</ele>
        <time>2023-12-04T10:54:49.550Z</time>
      </trkpt>
      <trkpt lat="38.958235" lon="16.539234">
        <ele>507.067105</ele>
        <time>2023-12-04T10:54:52.827Z</time>
      </trkpt>
      <trkpt lat="38.957818" lon="16.539161">
        <ele>501.052891</ele>
        <time>2023-12-04T10:54:56.455Z</time>
      </trkpt>
      <trkpt lat="38.957637" lon="16.539081">
        <ele>498.372559</ele>
        <time>2023-12-04T10:54:58.252Z</time>
      </trkpt>
      <trkpt lat="38.957537" lon="16.538915">
        <ele>498.705504</ele>
        <time>2023-12-04T10:54:59.781Z</time>
      </trkpt>
      <trkpt lat="38.957448" lon="16.538412">
        <ele>499.523431</ele>
        <time>2023-12-04T10:55:04.284Z</time>
      </trkpt>
      <trkpt lat="38.957448" lon="16.538287">
        <ele>499.721627</ele>
        <time>2023-12-04T10:55:06.384Z</time>
      </trkpt>
      <trkpt lat="38.957679" lon="16.537717">
        <ele>500.740773</ele>
        <time>2023-12-04T10:55:21.648Z</time>
      </trkpt>
      <trkpt lat="38.957716" lon="16.537493">
        <ele>501.103864</ele>
        <time>2023-12-04T10:55:28.895Z</time>
      </trkpt>
      <trkpt lat="38.957728" lon="16.537221">
        <ele>501.535830</ele>
        <time>2023-12-04T10:55:38.998Z</time>
      </trkpt>
      <trkpt lat="38.957634" lon="16.536067">
        <ele>504.002973</ele>
        <time>2023-12-04T10:56:17.589Z</time>
      </trkpt>
      <trkpt lat="38.957634" lon="16.535853">
        <ele>504.500866</ele>
        <time>2023-12-04T10:56:22.401Z</time>
      </trkpt>
      <trkpt lat="38.957750" lon="16.535194">
        <ele>506.072889</ele>
        <time>2023-12-04T10:56:32.332Z</time>
      </trkpt>
      <trkpt lat="38.957675" lon="16.534723">
        <ele>507.191458</ele>
        <time>2023-12-04T10:56:37.352Z</time>
      </trkpt>
      <trkpt lat="38.957576" lon="16.534104">
        <ele>507.383513</ele>
        <time>2023-12-04T10:56:43.359Z</time>
      </trkpt>
      <trkpt lat="38.957572" lon="16.533177">
        <ele>507.329564</ele>
        <time>2023-12-04T10:56:53.835Z</time>
      </trkpt>
      <trkpt lat="38.957570" lon="16.532895">
        <ele>507.313152</ele>
        <time>2023-12-04T10:56:57.149Z</time>
      </trkpt>
      <trkpt lat="38.957521" lon="16.532556">
        <ele>507.293085</ele>
        <time>2023-12-04T10:57:01.330Z</time>
      </trkpt>
      <trkpt lat="38.957517" lon="16.532484">
        <ele>507.288884</ele>
        <time>2023-12-04T10:57:02.285Z</time>
      </trkpt>
      <trkpt lat="38.957535" lon="16.532122">
        <ele>507.150041</ele>
        <time>2023-12-04T10:57:07.026Z</time>
      </trkpt>
      <trkpt lat="38.957627" lon="16.531715">
        <ele>506.889686</ele>
        <time>2023-12-04T10:57:12.664Z</time>
      </trkpt>
      <trkpt lat="38.957698" lon="16.531401">
        <ele>506.688817</ele>
        <time>2023-12-04T10:57:16.695Z</time>
      </trkpt>
      <trkpt lat="38.957708" lon="16.531250">
        <ele>506.595727</ele>
        <time>2023-12-04T10:57:18.169Z</time>
      </trkpt>
      <trkpt lat="38.957605" lon="16.530675">
        <ele>506.233274</ele>
        <time>2023-12-04T10:57:23.629Z</time>
      </trkpt>
      <trkpt lat="38.957639" lon="16.529860">
        <ele>505.571068</ele>
        <time>2023-12-04T10:57:30.464Z</time>
      </trkpt>
      <trkpt lat="38.957635" lon="16.529588">
        <ele>505.192872</ele>
        <time>2023-12-04T10:57:32.885Z</time>
      </trkpt>
      <trkpt lat="38.957599" lon="16.529371">
        <ele>504.884414</ele>
        <time>2023-12-04T10:57:34.697Z</time>
      </trkpt>
      <trkpt lat="38.957542" lon="16.529222">
        <ele>504.653569</ele>
        <time>2023-12-04T10:57:36.221Z</time>
      </trkpt>
      <trkpt lat="38.957089" lon="16.528488">
        <ele>503.350853</ele>
        <time>2023-12-04T10:57:44.283Z</time>
      </trkpt>
      <trkpt lat="38.957040" lon="16.528333">
        <ele>503.118248</ele>
        <time>2023-12-04T10:57:45.670Z</time>
      </trkpt>
      <trkpt lat="38.957020" lon="16.528165">
        <ele>502.881975</ele>
        <time>2023-12-04T10:57:47.153Z</time>
      </trkpt>
      <trkpt lat="38.957043" lon="16.527987">
        <ele>502.633609</ele>
        <time>2023-12-04T10:57:49.040Z</time>
      </trkpt>
      <trkpt lat="38.957115" lon="16.527584">
        <ele>502.171810</ele>
        <time>2023-12-04T10:57:52.877Z</time>
      </trkpt>
      <trkpt lat="38.957123" lon="16.527310">
        <ele>501.865591</ele>
        <time>2023-12-04T10:57:55.308Z</time>
      </trkpt>
      <trkpt lat="38.957056" lon="16.526874">
        <ele>501.369247</ele>
        <time>2023-12-04T10:57:59.713Z</time>
      </trkpt>
      <trkpt lat="38.957062" lon="16.526503">
        <ele>500.954823</ele>
        <time>2023-12-04T10:58:03.342Z</time>
      </trkpt>
      <trkpt lat="38.957340" lon="16.525805">
        <ele>500.078997</ele>
        <time>2023-12-04T10:58:10.284Z</time>
      </trkpt>
      <trkpt lat="38.957363" lon="16.525624">
        <ele>499.820244</ele>
        <time>2023-12-04T10:58:11.728Z</time>
      </trkpt>
      <trkpt lat="38.957292" lon="16.525047">
        <ele>498.979049</ele>
        <time>2023-12-04T10:58:16.490Z</time>
      </trkpt>
      <trkpt lat="38.957234" lon="16.524811">
        <ele>498.622649</ele>
        <time>2023-12-04T10:58:18.587Z</time>
      </trkpt>
      <trkpt lat="38.957208" lon="16.524419">
        <ele>498.056134</ele>
        <time>2023-12-04T10:58:21.979Z</time>
      </trkpt>
      <trkpt lat="38.957168" lon="16.524305">
        <ele>497.876041</ele>
        <time>2023-12-04T10:58:23.090Z</time>
      </trkpt>
      <trkpt lat="38.957062" lon="16.524161">
        <ele>497.590516</ele>
        <time>2023-12-04T10:58:24.815Z</time>
      </trkpt>
      <trkpt lat="38.956961" lon="16.523954">
        <ele>497.238625</ele>
        <time>2023-12-04T10:58:26.921Z</time>
      </trkpt>
      <trkpt lat="38.956966" lon="16.523529">
        <ele>496.816459</ele>
        <time>2023-12-04T10:58:30.574Z</time>
      </trkpt>
      <trkpt lat="38.957082" lon="16.523288">
        <ele>497.158452</ele>
        <time>2023-12-04T10:58:33.228Z</time>
      </trkpt>
      <trkpt lat="38.957132" lon="16.523054">
        <ele>497.451265</ele>
        <time>2023-12-04T10:58:35.637Z</time>
      </trkpt>
      <trkpt lat="38.957078" lon="16.522332">
        <ele>498.326459</ele>
        <time>2023-12-04T10:58:47.654Z</time>
      </trkpt>
      <trkpt lat="38.956981" lon="16.521699">
        <ele>499.104935</ele>
        <time>2023-12-04T10:59:02.222Z</time>
      </trkpt>
      <trkpt lat="38.957001" lon="16.521280">
        <ele>499.774662</ele>
        <time>2023-12-04T10:59:10.699Z</time>
      </trkpt>
      <trkpt lat="38.956801" lon="16.520455">
        <ele>502.694553</ele>
        <time>2023-12-04T10:59:31.441Z</time>
      </trkpt>
      <trkpt lat="38.956404" lon="16.520165">
        <ele>504.678457</ele>
        <time>2023-12-04T10:59:49.142Z</time>
      </trkpt>
      <trkpt lat="38.956033" lon="16.520326">
        <ele>506.379824</ele>
        <time>2023-12-04T11:00:04.634Z</time>
      </trkpt>
      <trkpt lat="38.955985" lon="16.520347">
        <ele>506.600132</ele>
        <time>2023-12-04T11:00:06.240Z</time>
      </trkpt>
      <trkpt lat="38.955268" lon="16.520172">
        <ele>506.394192</ele>
        <time>2023-12-04T11:00:23.958Z</time>
      </trkpt>
      <trkpt lat="38.954881" lon="16.520279">
        <ele>505.728811</ele>
        <time>2023-12-04T11:00:28.327Z</time>
      </trkpt>
      <trkpt lat="38.954707" lon="16.520473">
        <ele>505.341705</ele>
        <time>2023-12-04T11:00:30.574Z</time>
      </trkpt>
      <trkpt lat="38.954596" lon="16.521053">
        <ele>504.560933</ele>
        <time>2023-12-04T11:00:35.096Z</time>
      </trkpt>
      <trkpt lat="38.954509" lon="16.521279">
        <ele>504.067237</ele>
        <time>2023-12-04T11:00:36.888Z</time>
      </trkpt>
      <trkpt lat="38.953931" lon="16.522112">
        <ele>499.670726</ele>
        <time>2023-12-04T11:00:44.700Z</time>
      </trkpt>
      <trkpt lat="38.953722" lon="16.522263">
        <ele>498.456702</ele>
        <time>2023-12-04T11:00:46.867Z</time>
      </trkpt>
      <trkpt lat="38.953068" lon="16.522180">
        <ele>495.227746</ele>
        <time>2023-12-04T11:00:53.277Z</time>
      </trkpt>
      <trkpt lat="38.952881" lon="16.522039">
        <ele>495.570013</ele>
        <time>2023-12-04T11:00:55.865Z</time>
      </trkpt>
      <trkpt lat="38.952539" lon="16.521724">
        <ele>496.234219</ele>
        <time>2023-12-04T11:01:02.877Z</time>
      </trkpt>
      <trkpt lat="38.952181" lon="16.521714">
        <ele>496.799595</ele>
        <time>2023-12-04T11:01:11.715Z</time>
      </trkpt>
      <trkpt lat="38.950796" lon="16.521589">
        <ele>501.495248</ele>
        <time>2023-12-04T11:01:53.270Z</time>
      </trkpt>
      <trkpt lat="38.950303" lon="16.521384">
        <ele>504.474464</ele>
        <time>2023-12-04T11:02:11.338Z</time>
      </trkpt>
      <trkpt lat="38.949490" lon="16.521187">
        <ele>509.655140</ele>
        <time>2023-12-04T11:02:49.177Z</time>
      </trkpt>
      <trkpt lat="38.949268" lon="16.520982">
        <ele>512.014423</ele>
        <time>2023-12-04T11:03:03.015Z</time>
      </trkpt>
      <trkpt lat="38.948872" lon="16.520437">
        <ele>517.021505</ele>
        <time>2023-12-04T11:03:32.739Z</time>
      </trkpt>
      <trkpt lat="38.948385" lon="16.520276">
        <ele>521.362048</ele>
        <time>2023-12-04T11:03:58.776Z</time>
      </trkpt>
      <trkpt lat="38.947003" lon="16.520178">
        <ele>533.018993</ele>
        <time>2023-12-04T11:05:04.531Z</time>
      </trkpt>
      <trkpt lat="38.946384" lon="16.520178">
        <ele>538.196957</ele>
        <time>2023-12-04T11:05:32.509Z</time>
      </trkpt>
      <trkpt lat="38.946002" lon="16.520035">
        <ele>542.935823</ele>
        <time>2023-12-04T11:05:51.836Z</time>
      </trkpt>
      <trkpt lat="38.945057" lon="16.519579">
        <ele>556.018758</ele>
        <time>2023-12-04T11:06:58.638Z</time>
      </trkpt>
      <trkpt lat="38.944654" lon="16.519570">
        <ele>561.243089</ele>
        <time>2023-12-04T11:07:32.439Z</time>
      </trkpt>
      <trkpt lat="38.944497" lon="16.519599">
        <ele>563.415018</ele>
        <time>2023-12-04T11:07:45.820Z</time>
      </trkpt>
      <trkpt lat="38.944161" lon="16.519660">
        <ele>568.309972</ele>
        <time>2023-12-04T11:08:14.520Z</time>
      </trkpt>
      <trkpt lat="38.943758" lon="16.519785">
        <ele>574.290106</ele>
        <time>2023-12-04T11:08:44.912Z</time>
      </trkpt>
      <trkpt lat="38.943473" lon="16.520231">
        <ele>580.766259</ele>
        <time>2023-12-04T11:09:15.005Z</time>
      </trkpt>
      <trkpt lat="38.943140" lon="16.520512">
        <ele>586.512034</ele>
        <time>2023-12-04T11:09:43.897Z</time>
      </trkpt>
      <trkpt lat="38.943068" lon="16.520785">
        <ele>588.961468</ele>
        <time>2023-12-04T11:09:59.974Z</time>
      </trkpt>
      <trkpt lat="38.943104" lon="16.521498">
        <ele>592.864018</ele>
        <time>2023-12-04T11:10:32.836Z</time>
      </trkpt>
      <trkpt lat="38.943007" lon="16.521594">
        <ele>593.723641</ele>
        <time>2023-12-04T11:10:38.904Z</time>
      </trkpt>
      <trkpt lat="38.942870" lon="16.521521">
        <ele>594.765078</ele>
        <time>2023-12-04T11:10:45.930Z</time>
      </trkpt>
      <trkpt lat="38.942795" lon="16.521236">
        <ele>596.408421</ele>
        <time>2023-12-04T11:10:53.910Z</time>
      </trkpt>
      <trkpt lat="38.942805" lon="16.520627">
        <ele>599.735488</ele>
        <time>2023-12-04T11:11:06.176Z</time>
      </trkpt>
      <trkpt lat="38.943089" lon="16.519998">
        <ele>600.496610</ele>
        <time>2023-12-04T11:11:16.792Z</time>
      </trkpt>
      <trkpt lat="38.943126" lon="16.518999">
        <ele>599.825415</ele>
        <time>2023-12-04T11:11:26.652Z</time>
      </trkpt>
      <trkpt lat="38.943008" lon="16.517855">
        <ele>599.659773</ele>
        <time>2023-12-04T11:11:35.655Z</time>
      </trkpt>
      <trkpt lat="38.943137" lon="16.517002">
        <ele>600.525251</ele>
        <time>2023-12-04T11:11:44.752Z</time>
      </trkpt>
      <trkpt lat="38.943267" lon="16.516665">
        <ele>600.899909</ele>
        <time>2023-12-04T11:11:51.538Z</time>
      </trkpt>
      <trkpt lat="38.943800" lon="16.516134">
        <ele>602.514944</ele>
        <time>2023-12-04T11:12:14.109Z</time>
      </trkpt>
      <trkpt lat="38.944549" lon="16.514763">
        <ele>611.827720</ele>
        <time>2023-12-04T11:13:16.147Z</time>
      </trkpt>
      <trkpt lat="38.945202" lon="16.514175">
        <ele>617.715241</ele>
        <time>2023-12-04T11:13:48.521Z</time>
      </trkpt>
      <trkpt lat="38.945671" lon="16.513938">
        <ele>621.539469</ele>
        <time>2023-12-04T11:14:10.238Z</time>
      </trkpt>
      <trkpt lat="38.945896" lon="16.513794">
        <ele>623.446812</ele>
        <time>2023-12-04T11:14:22.386Z</time>
      </trkpt>
      <trkpt lat="38.946188" lon="16.513384">
        <ele>626.728040</ele>
        <time>2023-12-04T11:14:43.604Z</time>
      </trkpt>
      <trkpt lat="38.946398" lon="16.513233">
        <ele>628.521186</ele>
        <time>2023-12-04T11:14:55.891Z</time>
      </trkpt>
      <trkpt lat="38.947590" lon="16.512841">
        <ele>637.178379</ele>
        <time>2023-12-04T11:15:50.867Z</time>
      </trkpt>
      <trkpt lat="38.947874" lon="16.512796">
        <ele>639.191790</ele>
        <time>2023-12-04T11:16:03.349Z</time>
      </trkpt>
      <trkpt lat="38.948251" lon="16.512615">
        <ele>640.600574</ele>
        <time>2023-12-04T11:16:18.746Z</time>
      </trkpt>
      <trkpt lat="38.948684" lon="16.512513">
        <ele>640.211769</ele>
        <time>2023-12-04T11:16:31.845Z</time>
      </trkpt>
      <trkpt lat="38.949786" lon="16.511811">
        <ele>638.957408</ele>
        <time>2023-12-04T11:16:44.071Z</time>
      </trkpt>
      <trkpt lat="38.950016" lon="16.511642">
        <ele>637.850746</ele>
        <time>2023-12-04T11:16:46.421Z</time>
      </trkpt>
      <trkpt lat="38.950035" lon="16.511594">
        <ele>637.675761</ele>
        <time>2023-12-04T11:16:46.793Z</time>
      </trkpt>
      <trkpt lat="38.950098" lon="16.511423">
        <ele>637.061012</ele>
        <time>2023-12-04T11:16:48.125Z</time>
      </trkpt>
      <trkpt lat="38.950027" lon="16.511358">
        <ele>636.696905</ele>
        <time>2023-12-04T11:16:48.922Z</time>
      </trkpt>
      <trkpt lat="38.949629" lon="16.511073">
        <ele>634.793781</ele>
        <time>2023-12-04T11:16:53.272Z</time>
      </trkpt>
      <trkpt lat="38.949569" lon="16.511012">
        <ele>634.474241</ele>
        <time>2023-12-04T11:16:54.035Z</time>
      </trkpt>
      <trkpt lat="38.949403" lon="16.510851">
        <ele>633.605607</ele>
        <time>2023-12-04T11:16:56.136Z</time>
      </trkpt>
      <trkpt lat="38.949314" lon="16.510798">
        <ele>633.195863</ele>
        <time>2023-12-04T11:16:57.178Z</time>
      </trkpt>
      <trkpt lat="38.949152" lon="16.510703">
        <ele>632.452032</ele>
        <time>2023-12-04T11:16:59.048Z</time>
      </trkpt>
      <trkpt lat="38.949032" lon="16.510598">
        <ele>631.845658</ele>
        <time>2023-12-04T11:17:00.539Z</time>
      </trkpt>
      <trkpt lat="38.948983" lon="16.510501">
        <ele>631.766977</ele>
        <time>2023-12-04T11:17:01.463Z</time>
      </trkpt>
      <trkpt lat="38.948946" lon="16.510389">
        <ele>632.000603</ele>
        <time>2023-12-04T11:17:02.466Z</time>
      </trkpt>
      <trkpt lat="38.948763" lon="16.510053">
        <ele>632.788156</ele>
        <time>2023-12-04T11:17:05.813Z</time>
      </trkpt>
      <trkpt lat="38.948535" lon="16.509788">
        <ele>633.546885</ele>
        <time>2023-12-04T11:17:10.745Z</time>
      </trkpt>
      <trkpt lat="38.948103" lon="16.509600">
        <ele>634.672784</ele>
        <time>2023-12-04T11:17:24.235Z</time>
      </trkpt>
      <trkpt lat="38.947732" lon="16.509262">
        <ele>635.795266</ele>
        <time>2023-12-04T11:17:44.375Z</time>
      </trkpt>
      <trkpt lat="38.947516" lon="16.509050">
        <ele>636.505359</ele>
        <time>2023-12-04T11:17:56.872Z</time>
      </trkpt>
      <trkpt lat="38.947440" lon="16.508917">
        <ele>636.855927</ele>
        <time>2023-12-04T11:18:02.188Z</time>
      </trkpt>
      <trkpt lat="38.947374" lon="16.508698">
        <ele>637.354818</ele>
        <time>2023-12-04T11:18:09.143Z</time>
      </trkpt>
      <trkpt lat="38.947319" lon="16.508483">
        <ele>637.835578</ele>
        <time>2023-12-04T11:18:14.837Z</time>
      </trkpt>
      <trkpt lat="38.947236" lon="16.508370">
        <ele>638.165733</ele>
        <time>2023-12-04T11:18:18.245Z</time>
      </trkpt>
      <trkpt lat="38.947218" lon="16.508352">
        <ele>638.228013</ele>
        <time>2023-12-04T11:18:18.849Z</time>
      </trkpt>
      <trkpt lat="38.947175" lon="16.508306">
        <ele>638.380787</ele>
        <time>2023-12-04T11:18:20.413Z</time>
      </trkpt>
      <trkpt lat="38.947128" lon="16.508276">
        <ele>638.524102</ele>
        <time>2023-12-04T11:18:21.639Z</time>
      </trkpt>
      <trkpt lat="38.946939" lon="16.508125">
        <ele>639.131836</ele>
        <time>2023-12-04T11:18:26.224Z</time>
      </trkpt>
      <trkpt lat="38.946791" lon="16.508006">
        <ele>639.608585</ele>
        <time>2023-12-04T11:18:29.569Z</time>
      </trkpt>
      <trkpt lat="38.946476" lon="16.507753">
        <ele>640.622975</ele>
        <time>2023-12-04T11:18:35.436Z</time>
      </trkpt>
      <trkpt lat="38.946268" lon="16.507561">
        <ele>640.516147</ele>
        <time>2023-12-04T11:18:39.154Z</time>
      </trkpt>
      <trkpt lat="38.946133" lon="16.507564">
        <ele>639.934829</ele>
        <time>2023-12-04T11:18:41.050Z</time>
      </trkpt>
      <trkpt lat="38.946029" lon="16.507617">
        <ele>639.453178</ele>
        <time>2023-12-04T11:18:42.297Z</time>
      </trkpt>
      <trkpt lat="38.945468" lon="16.508164">
        <ele>636.421886</ele>
        <time>2023-12-04T11:18:49.110Z</time>
      </trkpt>
      <trkpt lat="38.945135" lon="16.508506">
        <ele>634.586954</ele>
        <time>2023-12-04T11:18:52.958Z</time>
      </trkpt>
      <trkpt lat="38.944826" lon="16.508765">
        <ele>632.944193</ele>
        <time>2023-12-04T11:18:56.258Z</time>
      </trkpt>
      <trkpt lat="38.944734" lon="16.508895">
        <ele>632.234983</ele>
        <time>2023-12-04T11:18:57.487Z</time>
      </trkpt>
      <trkpt lat="38.944298" lon="16.509186">
        <ele>629.686370</ele>
        <time>2023-12-04T11:19:01.980Z</time>
      </trkpt>
      <trkpt lat="38.943860" lon="16.509442">
        <ele>627.190218</ele>
        <time>2023-12-04T11:19:06.529Z</time>
      </trkpt>
      <trkpt lat="38.943474" lon="16.509513">
        <ele>625.167227</ele>
        <time>2023-12-04T11:19:10.320Z</time>
      </trkpt>
      <trkpt lat="38.942869" lon="16.509553">
        <ele>622.351208</ele>
        <time>2023-12-04T11:19:16.250Z</time>
      </trkpt>
      <trkpt lat="38.942677" lon="16.509639">
        <ele>621.476955</ele>
        <time>2023-12-04T11:19:18.308Z</time>
      </trkpt>
      <trkpt lat="38.942516" lon="16.509756">
        <ele>620.681735</ele>
        <time>2023-12-04T11:19:20.154Z</time>
      </trkpt>
      <trkpt lat="38.942342" lon="16.509933">
        <ele>619.727691</ele>
        <time>2023-12-04T11:19:22.366Z</time>
      </trkpt>
      <trkpt lat="38.942035" lon="16.510511">
        <ele>617.386888</ele>
        <time>2023-12-04T11:19:27.613Z</time>
      </trkpt>
      <trkpt lat="38.941968" lon="16.510584">
        <ele>617.009258</ele>
        <time>2023-12-04T11:19:28.422Z</time>
      </trkpt>
      <trkpt lat="38.941597" lon="16.510847">
        <ele>615.185689</ele>
        <time>2023-12-04T11:19:32.340Z</time>
      </trkpt>
      <trkpt lat="38.941436" lon="16.511036">
        <ele>614.246502</ele>
        <time>2023-12-04T11:19:34.341Z</time>
      </trkpt>
      <trkpt lat="38.941330" lon="16.511192">
        <ele>613.552433</ele>
        <time>2023-12-04T11:19:35.828Z</time>
      </trkpt>
      <trkpt lat="38.941030" lon="16.511774">
        <ele>611.212986</ele>
        <time>2023-12-04T11:19:40.977Z</time>
      </trkpt>
      <trkpt lat="38.940917" lon="16.511870">
        <ele>610.629519</ele>
        <time>2023-12-04T11:19:42.293Z</time>
      </trkpt>
      <trkpt lat="38.940854" lon="16.511882">
        <ele>610.355160</ele>
        <time>2023-12-04T11:19:42.941Z</time>
      </trkpt>
      <trkpt lat="38.940792" lon="16.511854">
        <ele>610.072072</ele>
        <time>2023-12-04T11:19:43.616Z</time>
      </trkpt>
      <trkpt lat="38.940703" lon="16.511727">
        <ele>609.499291</ele>
        <time>2023-12-04T11:19:44.978Z</time>
      </trkpt>
      <trkpt lat="38.940543" lon="16.511259">
        <ele>607.933494</ele>
        <time>2023-12-04T11:19:49.274Z</time>
      </trkpt>
      <trkpt lat="38.940496" lon="16.510900">
        <ele>606.983460</ele>
        <time>2023-12-04T11:19:52.484Z</time>
      </trkpt>
      <trkpt lat="38.940548" lon="16.510593">
        <ele>606.163529</ele>
        <time>2023-12-04T11:19:55.061Z</time>
      </trkpt>
      <trkpt lat="38.940666" lon="16.510343">
        <ele>605.400394</ele>
        <time>2023-12-04T11:19:57.372Z</time>
      </trkpt>
      <trkpt lat="38.940945" lon="16.509997">
        <ele>604.099806</ele>
        <time>2023-12-04T11:20:01.593Z</time>
      </trkpt>
      <trkpt lat="38.941301" lon="16.509661">
        <ele>602.618088</ele>
        <time>2023-12-04T11:20:06.072Z</time>
      </trkpt>
      <trkpt lat="38.941338" lon="16.509555">
        <ele>602.109830</ele>
        <time>2023-12-04T11:20:06.958Z</time>
      </trkpt>
      <trkpt lat="38.941332" lon="16.509445">
        <ele>601.243357</ele>
        <time>2023-12-04T11:20:07.745Z</time>
      </trkpt>
      <trkpt lat="38.941261" lon="16.509408">
        <ele>600.469387</ele>
        <time>2023-12-04T11:20:08.422Z</time>
      </trkpt>
      <trkpt lat="38.940655" lon="16.509901">
        <ele>593.224503</ele>
        <time>2023-12-04T11:20:14.598Z</time>
      </trkpt>
      <trkpt lat="38.940572" lon="16.509940">
        <ele>592.331738</ele>
        <time>2023-12-04T11:20:15.341Z</time>
      </trkpt>
      <trkpt lat="38.940449" lon="16.509939">
        <ele>591.089088</ele>
        <time>2023-12-04T11:20:16.376Z</time>
      </trkpt>
      <trkpt lat="38.940084" lon="16.509706">
        <ele>586.972108</ele>
        <time>2023-12-04T11:20:19.774Z</time>
      </trkpt>
      <trkpt lat="38.939983" lon="16.509675">
        <ele>585.923067</ele>
        <time>2023-12-04T11:20:20.638Z</time>
      </trkpt>
      <trkpt lat="38.939543" lon="16.509687">
        <ele>582.850323</ele>
        <time>2023-12-04T11:20:24.393Z</time>
      </trkpt>
      <trkpt lat="38.939414" lon="16.509753">
        <ele>582.143413</ele>
        <time>2023-12-04T11:20:25.619Z</time>
      </trkpt>
      <trkpt lat="38.939362" lon="16.509821">
        <ele>581.765761</ele>
        <time>2023-12-04T11:20:26.280Z</time>
      </trkpt>
      <trkpt lat="38.939293" lon="16.510013">
        <ele>580.928149</ele>
        <time>2023-12-04T11:20:27.772Z</time>
      </trkpt>
      <trkpt lat="38.939226" lon="16.510302">
        <ele>579.733868</ele>
        <time>2023-12-04T11:20:29.984Z</time>
      </trkpt>
      <trkpt lat="38.939249" lon="16.510553">
        <ele>578.732961</ele>
        <time>2023-12-04T11:20:31.953Z</time>
      </trkpt>
      <trkpt lat="38.939324" lon="16.510732">
        <ele>577.927760</ele>
        <time>2023-12-04T11:20:33.649Z</time>
      </trkpt>
      <trkpt lat="38.939447" lon="16.510917">
        <ele>576.963921</ele>
        <time>2023-12-04T11:20:35.811Z</time>
      </trkpt>
      <trkpt lat="38.939733" lon="16.511080">
        <ele>575.371066</ele>
        <time>2023-12-04T11:20:39.804Z</time>
      </trkpt>
      <trkpt lat="38.939836" lon="16.511224">
        <ele>574.781195</ele>
        <time>2023-12-04T11:20:42.405Z</time>
      </trkpt>
      <trkpt lat="38.939866" lon="16.511347">
        <ele>574.462697</ele>
        <time>2023-12-04T11:20:44.159Z</time>
      </trkpt>
      <trkpt lat="38.939798" lon="16.511599">
        <ele>573.803654</ele>
        <time>2023-12-04T11:20:47.540Z</time>
      </trkpt>
      <trkpt lat="38.939822" lon="16.512082">
        <ele>572.607832</ele>
        <time>2023-12-04T11:20:52.321Z</time>
      </trkpt>
      <trkpt lat="38.939764" lon="16.512221">
        <ele>572.218094</ele>
        <time>2023-12-04T11:20:53.678Z</time>
      </trkpt>
      <trkpt lat="38.939704" lon="16.512255">
        <ele>572.009805</ele>
        <time>2023-12-04T11:20:54.349Z</time>
      </trkpt>
      <trkpt lat="38.939624" lon="16.512239">
        <ele>571.752620</ele>
        <time>2023-12-04T11:20:55.165Z</time>
      </trkpt>
      <trkpt lat="38.939051" lon="16.512015">
        <ele>569.850141</ele>
        <time>2023-12-04T11:21:00.824Z</time>
      </trkpt>
      <trkpt lat="38.938946" lon="16.512002">
        <ele>569.515054</ele>
        <time>2023-12-04T11:21:01.772Z</time>
      </trkpt>
      <trkpt lat="38.938592" lon="16.512054">
        <ele>566.768785</ele>
        <time>2023-12-04T11:21:04.940Z</time>
      </trkpt>
      <trkpt lat="38.938125" lon="16.511983">
        <ele>562.841619</ele>
        <time>2023-12-04T11:21:09.012Z</time>
      </trkpt>
      <trkpt lat="38.938038" lon="16.511991">
        <ele>562.113213</ele>
        <time>2023-12-04T11:21:09.771Z</time>
      </trkpt>
      <trkpt lat="38.937984" lon="16.512016">
        <ele>561.633902</ele>
        <time>2023-12-04T11:21:10.261Z</time>
      </trkpt>
      <trkpt lat="38.937932" lon="16.512155">
        <ele>560.631989</ele>
        <time>2023-12-04T11:21:11.281Z</time>
      </trkpt>
      <trkpt lat="38.937973" lon="16.512821">
        <ele>556.292287</ele>
        <time>2023-12-04T11:21:15.770Z</time>
      </trkpt>
      <trkpt lat="38.937893" lon="16.513050">
        <ele>554.661616</ele>
        <time>2023-12-04T11:21:17.486Z</time>
      </trkpt>
      <trkpt lat="38.937778" lon="16.513159">
        <ele>553.775131</ele>
        <time>2023-12-04T11:21:18.770Z</time>
      </trkpt>
      <trkpt lat="38.937702" lon="16.513179">
        <ele>553.351759</ele>
        <time>2023-12-04T11:21:19.486Z</time>
      </trkpt>
      <trkpt lat="38.937434" lon="16.513099">
        <ele>551.850234</ele>
        <time>2023-12-04T11:21:22.057Z</time>
      </trkpt>
      <trkpt lat="38.937434" lon="16.513099">
        <ele>551.850234</ele>
        <time>2023-12-04T11:21:22.062Z</time>
      </trkpt>
      <trkpt lat="38.936759" lon="16.512991">
        <ele>548.137985</ele>
        <time>2023-12-04T11:21:28.775Z</time>
      </trkpt>
      <trkpt lat="38.936659" lon="16.513060">
        <ele>547.518596</ele>
        <time>2023-12-04T11:21:29.864Z</time>
      </trkpt>
      <trkpt lat="38.936515" lon="16.513395">
        <ele>545.893789</ele>
        <time>2023-12-04T11:21:32.654Z</time>
      </trkpt>
      <trkpt lat="38.936443" lon="16.513504">
        <ele>545.286739</ele>
        <time>2023-12-04T11:21:33.667Z</time>
      </trkpt>
      <trkpt lat="38.936322" lon="16.513556">
        <ele>544.590460</ele>
        <time>2023-12-04T11:21:34.825Z</time>
      </trkpt>
      <trkpt lat="38.935997" lon="16.513508">
        <ele>542.767075</ele>
        <time>2023-12-04T11:21:37.793Z</time>
      </trkpt>
      <trkpt lat="38.935869" lon="16.513568">
        <ele>542.007204</ele>
        <time>2023-12-04T11:21:39.039Z</time>
      </trkpt>
      <trkpt lat="38.935689" lon="16.513980">
        <ele>539.957179</ele>
        <time>2023-12-04T11:21:42.448Z</time>
      </trkpt>
      <trkpt lat="38.935600" lon="16.514096">
        <ele>539.250319</ele>
        <time>2023-12-04T11:21:43.651Z</time>
      </trkpt>
      <trkpt lat="38.935526" lon="16.514151">
        <ele>538.773588</ele>
        <time>2023-12-04T11:21:44.472Z</time>
      </trkpt>
      <trkpt lat="38.935409" lon="16.514185">
        <ele>538.104579</ele>
        <time>2023-12-04T11:21:45.610Z</time>
      </trkpt>
      <trkpt lat="38.934881" lon="16.514216">
        <ele>535.156686</ele>
        <time>2023-12-04T11:21:50.601Z</time>
      </trkpt>
      <trkpt lat="38.934586" lon="16.514063">
        <ele>532.940021</ele>
        <time>2023-12-04T11:21:53.515Z</time>
      </trkpt>
      <trkpt lat="38.934494" lon="16.514076">
        <ele>532.220463</ele>
        <time>2023-12-04T11:21:54.353Z</time>
      </trkpt>
      <trkpt lat="38.934044" lon="16.514377">
        <ele>528.276731</ele>
        <time>2023-12-04T11:21:58.892Z</time>
      </trkpt>
      <trkpt lat="38.933920" lon="16.514416">
        <ele>527.284266</ele>
        <time>2023-12-04T11:22:00.019Z</time>
      </trkpt>
      <trkpt lat="38.933756" lon="16.514399">
        <ele>526.005117</ele>
        <time>2023-12-04T11:22:01.464Z</time>
      </trkpt>
      <trkpt lat="38.933675" lon="16.514342">
        <ele>525.287212</ele>
        <time>2023-12-04T11:22:02.271Z</time>
      </trkpt>
      <trkpt lat="38.933443" lon="16.514082">
        <ele>522.894395</ele>
        <time>2023-12-04T11:22:04.930Z</time>
      </trkpt>
      <trkpt lat="38.933348" lon="16.514036">
        <ele>522.105168</ele>
        <time>2023-12-04T11:22:05.807Z</time>
      </trkpt>
      <trkpt lat="38.933217" lon="16.514039">
        <ele>521.086553</ele>
        <time>2023-12-04T11:22:06.930Z</time>
      </trkpt>
      <trkpt lat="38.932865" lon="16.514143">
        <ele>518.715557</ele>
        <time>2023-12-04T11:22:10.081Z</time>
      </trkpt>
      <trkpt lat="38.932558" lon="16.514351">
        <ele>516.543020</ele>
        <time>2023-12-04T11:22:13.191Z</time>
      </trkpt>
      <trkpt lat="38.932227" lon="16.514515">
        <ele>514.322241</ele>
        <time>2023-12-04T11:22:16.418Z</time>
      </trkpt>
      <trkpt lat="38.932038" lon="16.514656">
        <ele>512.954212</ele>
        <time>2023-12-04T11:22:18.444Z</time>
      </trkpt>
      <trkpt lat="38.931922" lon="16.514831">
        <ele>511.834530</ele>
        <time>2023-12-04T11:22:20.120Z</time>
      </trkpt>
      <trkpt lat="38.931874" lon="16.514967">
        <ele>511.107237</ele>
        <time>2023-12-04T11:22:21.228Z</time>
      </trkpt>
      <trkpt lat="38.931877" lon="16.515120">
        <ele>510.361900</ele>
        <time>2023-12-04T11:22:22.385Z</time>
      </trkpt>
      <trkpt lat="38.932052" lon="16.515785">
        <ele>508.312501</ele>
        <time>2023-12-04T11:22:27.752Z</time>
      </trkpt>
      <trkpt lat="38.932027" lon="16.515896">
        <ele>508.082059</ele>
        <time>2023-12-04T11:22:28.688Z</time>
      </trkpt>
      <trkpt lat="38.931986" lon="16.515963">
        <ele>507.912064</ele>
        <time>2023-12-04T11:22:29.394Z</time>
      </trkpt>
      <trkpt lat="38.931787" lon="16.516087">
        <ele>507.345150</ele>
        <time>2023-12-04T11:22:31.747Z</time>
      </trkpt>
      <trkpt lat="38.931685" lon="16.516109">
        <ele>507.080014</ele>
        <time>2023-12-04T11:22:32.943Z</time>
      </trkpt>
      <trkpt lat="38.931006" lon="16.516119">
        <ele>505.339260</ele>
        <time>2023-12-04T11:22:41.390Z</time>
      </trkpt>
      <trkpt lat="38.930902" lon="16.516164">
        <ele>505.057954</ele>
        <time>2023-12-04T11:22:42.566Z</time>
      </trkpt>
      <trkpt lat="38.930766" lon="16.516290">
        <ele>504.606354</ele>
        <time>2023-12-04T11:22:44.311Z</time>
      </trkpt>
      <trkpt lat="38.930477" lon="16.516697">
        <ele>502.463357</ele>
        <time>2023-12-04T11:22:48.493Z</time>
      </trkpt>
      <trkpt lat="38.929665" lon="16.517838">
        <ele>496.449478</ele>
        <time>2023-12-04T11:22:59.805Z</time>
      </trkpt>
      <trkpt lat="38.929056" lon="16.517298">
        <ele>489.803601</ele>
        <time>2023-12-04T11:23:06.370Z</time>
      </trkpt>
      <trkpt lat="38.928896" lon="16.517089">
        <ele>487.507682</ele>
        <time>2023-12-04T11:23:08.357Z</time>
      </trkpt>
      <trkpt lat="38.928863" lon="16.516986">
        <ele>486.635495</ele>
        <time>2023-12-04T11:23:09.103Z</time>
      </trkpt>
      <trkpt lat="38.928428" lon="16.515608">
        <ele>474.183251</ele>
        <time>2023-12-04T11:23:18.886Z</time>
      </trkpt>
      <trkpt lat="38.928279" lon="16.515332">
        <ele>470.723873</ele>
        <time>2023-12-04T11:23:21.065Z</time>
      </trkpt>
      <trkpt lat="38.928014" lon="16.515130">
        <ele>466.645749</ele>
        <time>2023-12-04T11:23:23.624Z</time>
      </trkpt>
      <trkpt lat="38.927865" lon="16.515077">
        <ele>464.599343</ele>
        <time>2023-12-04T11:23:24.915Z</time>
      </trkpt>
      <trkpt lat="38.927807" lon="16.515236">
        <ele>462.790988</ele>
        <time>2023-12-04T11:23:26.058Z</time>
      </trkpt>
      <trkpt lat="38.927898" lon="16.515396">
        <ele>460.750033</ele>
        <time>2023-12-04T11:23:27.347Z</time>
      </trkpt>
      <trkpt lat="38.927849" lon="16.515555">
        <ele>458.988951</ele>
        <time>2023-12-04T11:23:28.466Z</time>
      </trkpt>
      <trkpt lat="38.927716" lon="16.515555">
        <ele>457.228452</ele>
        <time>2023-12-04T11:23:29.577Z</time>
      </trkpt>
      <trkpt lat="38.927104" lon="16.515396">
        <ele>450.515024</ele>
        <time>2023-12-04T11:23:34.856Z</time>
      </trkpt>
      <trkpt lat="38.926988" lon="16.515172">
        <ele>448.642549</ele>
        <time>2023-12-04T11:23:36.634Z</time>
      </trkpt>
      <trkpt lat="38.926889" lon="16.514885">
        <ele>446.457928</ele>
        <time>2023-12-04T11:23:38.719Z</time>
      </trkpt>
      <trkpt lat="38.926707" lon="16.514758">
        <ele>444.605584</ele>
        <time>2023-12-04T11:23:40.520Z</time>
      </trkpt>
      <trkpt lat="38.926525" lon="16.514694">
        <ele>442.917826</ele>
        <time>2023-12-04T11:23:42.177Z</time>
      </trkpt>
      <trkpt lat="38.926144" lon="16.514928">
        <ele>439.140860</ele>
        <time>2023-12-04T11:23:46.014Z</time>
      </trkpt>
      <trkpt lat="38.926020" lon="16.514864">
        <ele>437.945643</ele>
        <time>2023-12-04T11:23:47.255Z</time>
      </trkpt>
      <trkpt lat="38.926169" lon="16.514513">
        <ele>436.758922</ele>
        <time>2023-12-04T11:23:50.285Z</time>
      </trkpt>
      <trkpt lat="38.926095" lon="16.514332">
        <ele>436.245575</ele>
        <time>2023-12-04T11:23:51.898Z</time>
      </trkpt>
      <trkpt lat="38.925731" lon="16.513715">
        <ele>434.301504</ele>
        <time>2023-12-04T11:23:58.197Z</time>
      </trkpt>
      <trkpt lat="38.925780" lon="16.513524">
        <ele>433.796579</ele>
        <time>2023-12-04T11:23:59.835Z</time>
      </trkpt>
      <trkpt lat="38.925946" lon="16.513258">
        <ele>432.940443</ele>
        <time>2023-12-04T11:24:02.572Z</time>
      </trkpt>
      <trkpt lat="38.926111" lon="16.512928">
        <ele>431.955587</ele>
        <time>2023-12-04T11:24:05.764Z</time>
      </trkpt>
      <trkpt lat="38.926111" lon="16.512673">
        <ele>431.144875</ele>
        <time>2023-12-04T11:24:07.952Z</time>
      </trkpt>
      <trkpt lat="38.926004" lon="16.512418">
        <ele>430.187675</ele>
        <time>2023-12-04T11:24:10.409Z</time>
      </trkpt>
      <trkpt lat="38.926103" lon="16.512280">
        <ele>429.567493</ele>
        <time>2023-12-04T11:24:11.978Z</time>
      </trkpt>
      <trkpt lat="38.926310" lon="16.512216">
        <ele>428.663345</ele>
        <time>2023-12-04T11:24:14.233Z</time>
      </trkpt>
      <trkpt lat="38.926359" lon="16.512099">
        <ele>428.224350</ele>
        <time>2023-12-04T11:24:15.309Z</time>
      </trkpt>
      <trkpt lat="38.926285" lon="16.512003">
        <ele>427.777862</ele>
        <time>2023-12-04T11:24:16.360Z</time>
      </trkpt>
      <trkpt lat="38.925896" lon="16.512045">
        <ele>426.120059</ele>
        <time>2023-12-04T11:24:20.136Z</time>
      </trkpt>
      <trkpt lat="38.925805" lon="16.511992">
        <ele>425.695786</ele>
        <time>2023-12-04T11:24:21.077Z</time>
      </trkpt>
      <trkpt lat="38.925714" lon="16.512099">
        <ele>425.172036</ele>
        <time>2023-12-04T11:24:22.200Z</time>
      </trkpt>
      <trkpt lat="38.925747" lon="16.512365">
        <ele>424.282119</ele>
        <time>2023-12-04T11:24:24.081Z</time>
      </trkpt>
      <trkpt lat="38.925822" lon="16.512684">
        <ele>421.841743</ele>
        <time>2023-12-04T11:24:26.350Z</time>
      </trkpt>
      <trkpt lat="38.925731" lon="16.512918">
        <ele>419.859563</ele>
        <time>2023-12-04T11:24:28.122Z</time>
      </trkpt>
      <trkpt lat="38.925524" lon="16.513045">
        <ele>417.625620</ele>
        <time>2023-12-04T11:24:30.116Z</time>
      </trkpt>
      <trkpt lat="38.925044" lon="16.513109">
        <ele>412.925594</ele>
        <time>2023-12-04T11:24:34.290Z</time>
      </trkpt>
      <trkpt lat="38.924589" lon="16.513077">
        <ele>408.487509</ele>
        <time>2023-12-04T11:24:38.184Z</time>
      </trkpt>
      <trkpt lat="38.924374" lon="16.512843">
        <ele>405.514623</ele>
        <time>2023-12-04T11:24:40.568Z</time>
      </trkpt>
      <trkpt lat="38.924134" lon="16.512418">
        <ele>400.581050</ele>
        <time>2023-12-04T11:24:43.999Z</time>
      </trkpt>
      <trkpt lat="38.924034" lon="16.512375">
        <ele>399.307727</ele>
        <time>2023-12-04T11:24:44.877Z</time>
      </trkpt>
      <trkpt lat="38.923943" lon="16.512418">
        <ele>398.136962</ele>
        <time>2023-12-04T11:24:45.689Z</time>
      </trkpt>
      <trkpt lat="38.923579" lon="16.513077">
        <ele>390.544319</ele>
        <time>2023-12-04T11:24:50.991Z</time>
      </trkpt>
      <trkpt lat="38.923094" lon="16.513254">
        <ele>384.626812</ele>
        <time>2023-12-04T11:24:55.284Z</time>
      </trkpt>
      <trkpt lat="38.922932" lon="16.513150">
        <ele>383.153060</ele>
        <time>2023-12-04T11:24:56.833Z</time>
      </trkpt>
      <trkpt lat="38.922748" lon="16.512910">
        <ele>381.019570</ele>
        <time>2023-12-04T11:24:59.059Z</time>
      </trkpt>
      <trkpt lat="38.922479" lon="16.512747">
        <ele>378.599206</ele>
        <time>2023-12-04T11:25:01.600Z</time>
      </trkpt>
      <trkpt lat="38.921982" lon="16.512684">
        <ele>374.534698</ele>
        <time>2023-12-04T11:25:06.009Z</time>
      </trkpt>
      <trkpt lat="38.921602" lon="16.512769">
        <ele>371.395547</ele>
        <time>2023-12-04T11:25:09.586Z</time>
      </trkpt>
      <trkpt lat="38.921279" lon="16.513003">
        <ele>370.416751</ele>
        <time>2023-12-04T11:25:13.277Z</time>
      </trkpt>
      <trkpt lat="38.921122" lon="16.512992">
        <ele>370.466135</ele>
        <time>2023-12-04T11:25:14.853Z</time>
      </trkpt>
      <trkpt lat="38.921056" lon="16.512864">
        <ele>370.503659</ele>
        <time>2023-12-04T11:25:16.420Z</time>
      </trkpt>
      <trkpt lat="38.921693" lon="16.510918">
        <ele>371.912044</ele>
        <time>2023-12-04T11:25:53.937Z</time>
      </trkpt>
      <trkpt lat="38.921800" lon="16.510780">
        <ele>372.333552</ele>
        <time>2023-12-04T11:25:59.555Z</time>
      </trkpt>
      <trkpt lat="38.921891" lon="16.510790">
        <ele>372.587526</ele>
        <time>2023-12-04T11:26:02.683Z</time>
      </trkpt>
      <trkpt lat="38.922619" lon="16.511492">
        <ele>375.118298</ele>
        <time>2023-12-04T11:26:29.276Z</time>
      </trkpt>
      <trkpt lat="38.922826" lon="16.511950">
        <ele>375.514860</ele>
        <time>2023-12-04T11:26:38.024Z</time>
      </trkpt>
      <trkpt lat="38.923050" lon="16.512120">
        <ele>374.718396</ele>
        <time>2023-12-04T11:26:42.651Z</time>
      </trkpt>
      <trkpt lat="38.923232" lon="16.512024">
        <ele>374.116057</ele>
        <time>2023-12-04T11:26:45.050Z</time>
      </trkpt>
      <trkpt lat="38.923455" lon="16.511599">
        <ele>372.894969</ele>
        <time>2023-12-04T11:26:49.278Z</time>
      </trkpt>
      <trkpt lat="38.923463" lon="16.511397">
        <ele>372.413178</ele>
        <time>2023-12-04T11:26:50.846Z</time>
      </trkpt>
      <trkpt lat="38.923389" lon="16.511322">
        <ele>372.124646</ele>
        <time>2023-12-04T11:26:51.723Z</time>
      </trkpt>
      <trkpt lat="38.923281" lon="16.511397">
        <ele>371.748800</ele>
        <time>2023-12-04T11:26:52.846Z</time>
      </trkpt>
      <trkpt lat="38.923166" lon="16.511620">
        <ele>371.111507</ele>
        <time>2023-12-04T11:26:54.754Z</time>
      </trkpt>
      <trkpt lat="38.923050" lon="16.511673">
        <ele>370.734570</ele>
        <time>2023-12-04T11:26:55.847Z</time>
      </trkpt>
      <trkpt lat="38.922926" lon="16.511514">
        <ele>369.797749</ele>
        <time>2023-12-04T11:26:57.414Z</time>
      </trkpt>
      <trkpt lat="38.922355" lon="16.510269">
        <ele>359.536109</ele>
        <time>2023-12-04T11:27:07.278Z</time>
      </trkpt>
      <trkpt lat="38.921916" lon="16.509716">
        <ele>353.905948</ele>
        <time>2023-12-04T11:27:12.537Z</time>
      </trkpt>
      <trkpt lat="38.921784" lon="16.509759">
        <ele>352.233638</ele>
        <time>2023-12-04T11:27:13.692Z</time>
      </trkpt>
      <trkpt lat="38.921618" lon="16.509993">
        <ele>349.208003</ele>
        <time>2023-12-04T11:27:15.775Z</time>
      </trkpt>
      <trkpt lat="38.921453" lon="16.510089">
        <ele>346.983752</ele>
        <time>2023-12-04T11:27:17.305Z</time>
      </trkpt>
      <trkpt lat="38.921287" lon="16.510089">
        <ele>344.945149</ele>
        <time>2023-12-04T11:27:18.699Z</time>
      </trkpt>
      <trkpt lat="38.920220" lon="16.509110">
        <ele>329.889548</ele>
        <time>2023-12-04T11:27:29.703Z</time>
      </trkpt>
      <trkpt lat="38.920046" lon="16.509046">
        <ele>328.427495</ele>
        <time>2023-12-04T11:27:31.258Z</time>
      </trkpt>
      <trkpt lat="38.919508" lon="16.509589">
        <ele>322.901520</ele>
        <time>2023-12-04T11:27:37.219Z</time>
      </trkpt>
      <trkpt lat="38.919359" lon="16.509801">
        <ele>321.105894</ele>
        <time>2023-12-04T11:27:39.240Z</time>
      </trkpt>
      <trkpt lat="38.919359" lon="16.509911">
        <ele>320.414523</ele>
        <time>2023-12-04T11:27:40.031Z</time>
      </trkpt>
      <trkpt lat="38.919359" lon="16.509993">
        <ele>319.899137</ele>
        <time>2023-12-04T11:27:40.626Z</time>
      </trkpt>
      <trkpt lat="38.919516" lon="16.510259">
        <ele>317.800640</ele>
        <time>2023-12-04T11:27:43.133Z</time>
      </trkpt>
      <trkpt lat="38.919541" lon="16.510408">
        <ele>317.185551</ele>
        <time>2023-12-04T11:27:44.314Z</time>
      </trkpt>
      <trkpt lat="38.919500" lon="16.510546">
        <ele>316.864811</ele>
        <time>2023-12-04T11:27:45.530Z</time>
      </trkpt>
      <trkpt lat="38.918168" lon="16.511737">
        <ele>312.323735</ele>
        <time>2023-12-04T11:28:03.542Z</time>
      </trkpt>
      <trkpt lat="38.918002" lon="16.511854">
        <ele>311.152666</ele>
        <time>2023-12-04T11:28:05.297Z</time>
      </trkpt>
      <trkpt lat="38.917729" lon="16.511897">
        <ele>309.451362</ele>
        <time>2023-12-04T11:28:07.854Z</time>
      </trkpt>
      <trkpt lat="38.917481" lon="16.511822">
        <ele>307.875439</ele>
        <time>2023-12-04T11:28:10.204Z</time>
      </trkpt>
      <trkpt lat="38.917274" lon="16.511673">
        <ele>306.407889</ele>
        <time>2023-12-04T11:28:12.360Z</time>
      </trkpt>
      <trkpt lat="38.917067" lon="16.511620">
        <ele>305.102308</ele>
        <time>2023-12-04T11:28:14.274Z</time>
      </trkpt>
      <trkpt lat="38.916868" lon="16.511769">
        <ele>303.677726</ele>
        <time>2023-12-04T11:28:16.320Z</time>
      </trkpt>
      <trkpt lat="38.916661" lon="16.512045">
        <ele>301.832754</ele>
        <time>2023-12-04T11:28:18.949Z</time>
      </trkpt>
      <trkpt lat="38.916537" lon="16.512322">
        <ele>300.217888</ele>
        <time>2023-12-04T11:28:21.132Z</time>
      </trkpt>
      <trkpt lat="38.916353" lon="16.512634">
        <ele>298.177482</ele>
        <time>2023-12-04T11:28:23.817Z</time>
      </trkpt>
      <trkpt lat="38.916334" lon="16.512652">
        <ele>298.019372</ele>
        <time>2023-12-04T11:28:24.025Z</time>
      </trkpt>
      <trkpt lat="38.916136" lon="16.512806">
        <ele>296.469127</ele>
        <time>2023-12-04T11:28:26.089Z</time>
      </trkpt>
      <trkpt lat="38.915664" lon="16.513162">
        <ele>292.803236</ele>
        <time>2023-12-04T11:28:31.084Z</time>
      </trkpt>
      <trkpt lat="38.915354" lon="16.513450">
        <ele>290.241008</ele>
        <time>2023-12-04T11:28:34.661Z</time>
      </trkpt>
      <trkpt lat="38.915106" lon="16.513609">
        <ele>288.427140</ele>
        <time>2023-12-04T11:28:37.233Z</time>
      </trkpt>
      <trkpt lat="38.914990" lon="16.513460">
        <ele>287.387887</ele>
        <time>2023-12-04T11:28:38.738Z</time>
      </trkpt>
      <trkpt lat="38.915015" lon="16.513269">
        <ele>286.432918</ele>
        <time>2023-12-04T11:28:40.115Z</time>
      </trkpt>
      <trkpt lat="38.915139" lon="16.513077">
        <ele>285.202631</ele>
        <time>2023-12-04T11:28:41.882Z</time>
      </trkpt>
      <trkpt lat="38.915428" lon="16.512737">
        <ele>282.719874</ele>
        <time>2023-12-04T11:28:45.461Z</time>
      </trkpt>
      <trkpt lat="38.915619" lon="16.512418">
        <ele>280.735252</ele>
        <time>2023-12-04T11:28:48.295Z</time>
      </trkpt>
      <trkpt lat="38.915577" lon="16.512205">
        <ele>279.651852</ele>
        <time>2023-12-04T11:28:49.812Z</time>
      </trkpt>
      <trkpt lat="38.915486" lon="16.512162">
        <ele>279.037461</ele>
        <time>2023-12-04T11:28:50.702Z</time>
      </trkpt>
      <trkpt lat="38.915354" lon="16.512216">
        <ele>278.159647</ele>
        <time>2023-12-04T11:28:51.957Z</time>
      </trkpt>
      <trkpt lat="38.914768" lon="16.512715">
        <ele>273.665369</ele>
        <time>2023-12-04T11:28:58.320Z</time>
      </trkpt>
      <trkpt lat="38.914571" lon="16.512815">
        <ele>272.310050</ele>
        <time>2023-12-04T11:29:00.247Z</time>
      </trkpt>
      <trkpt lat="38.914452" lon="16.512822">
        <ele>271.547799</ele>
        <time>2023-12-04T11:29:01.305Z</time>
      </trkpt>
      <trkpt lat="38.914430" lon="16.512736">
        <ele>271.097076</ele>
        <time>2023-12-04T11:29:01.943Z</time>
      </trkpt>
      <trkpt lat="38.914411" lon="16.512662">
        <ele>270.709105</ele>
        <time>2023-12-04T11:29:02.492Z</time>
      </trkpt>
      <trkpt lat="38.914517" lon="16.512495">
        <ele>269.636085</ele>
        <time>2023-12-04T11:29:04.041Z</time>
      </trkpt>
      <trkpt lat="38.914940" lon="16.512109">
        <ele>266.316530</ele>
        <time>2023-12-04T11:29:08.772Z</time>
      </trkpt>
      <trkpt lat="38.914966" lon="16.511940">
        <ele>265.617081</ele>
        <time>2023-12-04T11:29:10.025Z</time>
      </trkpt>
      <trkpt lat="38.914891" lon="16.511833">
        <ele>265.040579</ele>
        <time>2023-12-04T11:29:11.043Z</time>
      </trkpt>
      <trkpt lat="38.914783" lon="16.511939">
        <ele>264.341445</ele>
        <time>2023-12-04T11:29:12.309Z</time>
      </trkpt>
      <trkpt lat="38.914667" lon="16.512226">
        <ele>263.046801</ele>
        <time>2023-12-04T11:29:14.689Z</time>
      </trkpt>
      <trkpt lat="38.914437" lon="16.512458">
        <ele>261.542563</ele>
        <time>2023-12-04T11:29:17.550Z</time>
      </trkpt>
      <trkpt lat="38.914361" lon="16.512535">
        <ele>261.044671</ele>
        <time>2023-12-04T11:29:18.551Z</time>
      </trkpt>
      <trkpt lat="38.913787" lon="16.512797">
        <ele>257.910833</ele>
        <time>2023-12-04T11:29:24.263Z</time>
      </trkpt>
      <trkpt lat="38.913787" lon="16.512797">
        <ele>257.910833</ele>
        <time>2023-12-04T11:29:24.265Z</time>
      </trkpt>
      <trkpt lat="38.913580" lon="16.513243">
        <ele>255.108561</ele>
        <time>2023-12-04T11:29:28.062Z</time>
      </trkpt>
      <trkpt lat="38.913447" lon="16.513413">
        <ele>253.552268</ele>
        <time>2023-12-04T11:29:29.809Z</time>
      </trkpt>
      <trkpt lat="38.913235" lon="16.513481">
        <ele>251.739410</ele>
        <time>2023-12-04T11:29:31.766Z</time>
      </trkpt>
      <trkpt lat="38.912996" lon="16.513364">
        <ele>249.617511</ele>
        <time>2023-12-04T11:29:34.010Z</time>
      </trkpt>
      <trkpt lat="38.912691" lon="16.513292">
        <ele>247.044676</ele>
        <time>2023-12-04T11:29:36.707Z</time>
      </trkpt>
      <trkpt lat="38.912226" lon="16.513673">
        <ele>242.469332</ele>
        <time>2023-12-04T11:29:41.463Z</time>
      </trkpt>
      <trkpt lat="38.912133" lon="16.513700">
        <ele>241.598253</ele>
        <time>2023-12-04T11:29:42.275Z</time>
      </trkpt>
      <trkpt lat="38.912011" lon="16.513737">
        <ele>240.355982</ele>
        <time>2023-12-04T11:29:43.338Z</time>
      </trkpt>
      <trkpt lat="38.911597" lon="16.513524">
        <ele>235.936532</ele>
        <time>2023-12-04T11:29:47.106Z</time>
      </trkpt>
      <trkpt lat="38.911390" lon="16.513609">
        <ele>233.782917</ele>
        <time>2023-12-04T11:29:48.956Z</time>
      </trkpt>
      <trkpt lat="38.911001" lon="16.513981">
        <ele>228.977589</ele>
        <time>2023-12-04T11:29:53.113Z</time>
      </trkpt>
      <trkpt lat="38.910588" lon="16.514290">
        <ele>224.250649</ele>
        <time>2023-12-04T11:29:57.298Z</time>
      </trkpt>
      <trkpt lat="38.909931" lon="16.515007">
        <ele>219.080523</ele>
        <time>2023-12-04T11:30:05.268Z</time>
      </trkpt>
      <trkpt lat="38.909641" lon="16.515189">
        <ele>217.144672</ele>
        <time>2023-12-04T11:30:08.388Z</time>
      </trkpt>
      <trkpt lat="38.909465" lon="16.515250">
        <ele>216.051249</ele>
        <time>2023-12-04T11:30:10.146Z</time>
      </trkpt>
      <trkpt lat="38.909031" lon="16.515294">
        <ele>213.414377</ele>
        <time>2023-12-04T11:30:14.235Z</time>
      </trkpt>
      <trkpt lat="38.908858" lon="16.515268">
        <ele>211.627831</ele>
        <time>2023-12-04T11:30:15.805Z</time>
      </trkpt>
      <trkpt lat="38.908477" lon="16.514832">
        <ele>206.395105</ele>
        <time>2023-12-04T11:30:20.256Z</time>
      </trkpt>
      <trkpt lat="38.908299" lon="16.514695">
        <ele>204.266966</ele>
        <time>2023-12-04T11:30:22.023Z</time>
      </trkpt>
      <trkpt lat="38.908096" lon="16.514605">
        <ele>202.064375</ele>
        <time>2023-12-04T11:30:23.838Z</time>
      </trkpt>
      <trkpt lat="38.907745" lon="16.514544">
        <ele>198.431411</ele>
        <time>2023-12-04T11:30:26.808Z</time>
      </trkpt>
      <trkpt lat="38.907572" lon="16.514588">
        <ele>196.622539</ele>
        <time>2023-12-04T11:30:28.288Z</time>
      </trkpt>
      <trkpt lat="38.907418" lon="16.514718">
        <ele>194.818394</ele>
        <time>2023-12-04T11:30:29.849Z</time>
      </trkpt>
      <trkpt lat="38.907260" lon="16.515021">
        <ele>192.754545</ele>
        <time>2023-12-04T11:30:32.246Z</time>
      </trkpt>
      <trkpt lat="38.907154" lon="16.515321">
        <ele>190.890223</ele>
        <time>2023-12-04T11:30:34.441Z</time>
      </trkpt>
      <trkpt lat="38.907073" lon="16.515413">
        <ele>190.104150</ele>
        <time>2023-12-04T11:30:35.369Z</time>
      </trkpt>
      <trkpt lat="38.906946" lon="16.515428">
        <ele>189.176777</ele>
        <time>2023-12-04T11:30:36.487Z</time>
      </trkpt>
      <trkpt lat="38.906904" lon="16.515300">
        <ele>188.390740</ele>
        <time>2023-12-04T11:30:37.423Z</time>
      </trkpt>
      <trkpt lat="38.906970" lon="16.514758">
        <ele>185.286541</ele>
        <time>2023-12-04T11:30:41.284Z</time>
      </trkpt>
      <trkpt lat="38.907053" lon="16.513109">
        <ele>180.349428</ele>
        <time>2023-12-04T11:30:57.037Z</time>
      </trkpt>
      <trkpt lat="38.907153" lon="16.512843">
        <ele>179.904859</ele>
        <time>2023-12-04T11:30:59.930Z</time>
      </trkpt>
      <trkpt lat="38.907339" lon="16.512691">
        <ele>179.478582</ele>
        <time>2023-12-04T11:31:02.486Z</time>
      </trkpt>
      <trkpt lat="38.907496" lon="16.512617">
        <ele>179.155181</ele>
        <time>2023-12-04T11:31:04.263Z</time>
      </trkpt>
      <trkpt lat="38.907589" lon="16.512487">
        <ele>178.889436</ele>
        <time>2023-12-04T11:31:05.689Z</time>
      </trkpt>
      <trkpt lat="38.907584" lon="16.512384">
        <ele>178.734131</ele>
        <time>2023-12-04T11:31:06.494Z</time>
      </trkpt>
      <trkpt lat="38.907515" lon="16.512304">
        <ele>178.554409</ele>
        <time>2023-12-04T11:31:07.409Z</time>
      </trkpt>
      <trkpt lat="38.907162" lon="16.512295">
        <ele>176.745062</ele>
        <time>2023-12-04T11:31:10.871Z</time>
      </trkpt>
      <trkpt lat="38.906970" lon="16.512205">
        <ele>175.605718</ele>
        <time>2023-12-04T11:31:12.852Z</time>
      </trkpt>
      <trkpt lat="38.906722" lon="16.511865">
        <ele>173.584096</ele>
        <time>2023-12-04T11:31:16.299Z</time>
      </trkpt>
      <trkpt lat="38.906624" lon="16.511792">
        <ele>172.952618</ele>
        <time>2023-12-04T11:31:17.351Z</time>
      </trkpt>
      <trkpt lat="38.906414" lon="16.511770">
        <ele>171.778028</ele>
        <time>2023-12-04T11:31:19.285Z</time>
      </trkpt>
      <trkpt lat="38.906282" lon="16.511859">
        <ele>170.947018</ele>
        <time>2023-12-04T11:31:20.638Z</time>
      </trkpt>
      <trkpt lat="38.906192" lon="16.512044">
        <ele>170.000532</ele>
        <time>2023-12-04T11:31:22.162Z</time>
      </trkpt>
      <trkpt lat="38.906130" lon="16.512400">
        <ele>168.399466</ele>
        <time>2023-12-04T11:31:24.688Z</time>
      </trkpt>
      <trkpt lat="38.905983" lon="16.512833">
        <ele>164.834827</ele>
        <time>2023-12-04T11:31:27.905Z</time>
      </trkpt>
      <trkpt lat="38.905837" lon="16.512945">
        <ele>163.186070</ele>
        <time>2023-12-04T11:31:29.386Z</time>
      </trkpt>
      <trkpt lat="38.905209" lon="16.512997">
        <ele>157.084023</ele>
        <time>2023-12-04T11:31:34.829Z</time>
      </trkpt>
      <trkpt lat="38.904857" lon="16.512788">
        <ele>153.324118</ele>
        <time>2023-12-04T11:31:38.151Z</time>
      </trkpt>
      <trkpt lat="38.904750" lon="16.512709">
        <ele>152.127533</ele>
        <time>2023-12-04T11:31:39.200Z</time>
      </trkpt>
      <trkpt lat="38.904562" lon="16.512660">
        <ele>150.210914</ele>
        <time>2023-12-04T11:31:40.833Z</time>
      </trkpt>
      <trkpt lat="38.904384" lon="16.512640">
        <ele>148.345014</ele>
        <time>2023-12-04T11:31:42.348Z</time>
      </trkpt>
      <trkpt lat="38.904198" lon="16.512699">
        <ele>146.344363</ele>
        <time>2023-12-04T11:31:43.965Z</time>
      </trkpt>
      <trkpt lat="38.904077" lon="16.512823">
        <ele>144.728180</ele>
        <time>2023-12-04T11:31:45.265Z</time>
      </trkpt>
      <trkpt lat="38.904001" lon="16.512973">
        <ele>143.273605</ele>
        <time>2023-12-04T11:31:46.443Z</time>
      </trkpt>
      <trkpt lat="38.904019" lon="16.513670">
        <ele>137.606294</ele>
        <time>2023-12-04T11:31:51.051Z</time>
      </trkpt>
      <trkpt lat="38.903957" lon="16.513825">
        <ele>136.190026</ele>
        <time>2023-12-04T11:31:52.218Z</time>
      </trkpt>
      <trkpt lat="38.903864" lon="16.513858">
        <ele>135.182505</ele>
        <time>2023-12-04T11:31:53.060Z</time>
      </trkpt>
      <trkpt lat="38.903761" lon="16.513792">
        <ele>133.980593</ele>
        <time>2023-12-04T11:31:54.064Z</time>
      </trkpt>
      <trkpt lat="38.903709" lon="16.513282">
        <ele>131.078182</ele>
        <time>2023-12-04T11:31:57.681Z</time>
      </trkpt>
      <trkpt lat="38.903619" lon="16.512705">
        <ele>128.821637</ele>
        <time>2023-12-04T11:32:01.939Z</time>
      </trkpt>
      <trkpt lat="38.903710" lon="16.512258">
        <ele>127.049910</ele>
        <time>2023-12-04T11:32:05.336Z</time>
      </trkpt>
      <trkpt lat="38.904086" lon="16.511407">
        <ele>123.316176</ele>
        <time>2023-12-04T11:32:12.943Z</time>
      </trkpt>
      <trkpt lat="38.904180" lon="16.511226">
        <ele>122.744898</ele>
        <time>2023-12-04T11:32:14.795Z</time>
      </trkpt>
      <trkpt lat="38.904136" lon="16.511142">
        <ele>122.479069</ele>
        <time>2023-12-04T11:32:15.601Z</time>
      </trkpt>
      <trkpt lat="38.904078" lon="16.511095">
        <ele>122.247745</ele>
        <time>2023-12-04T11:32:16.299Z</time>
      </trkpt>
      <trkpt lat="38.903928" lon="16.511203">
        <ele>121.667691</ele>
        <time>2023-12-04T11:32:18.140Z</time>
      </trkpt>
      <trkpt lat="38.903873" lon="16.511290">
        <ele>121.373420</ele>
        <time>2023-12-04T11:32:19.071Z</time>
      </trkpt>
      <trkpt lat="38.903413" lon="16.512720">
        <ele>117.311114</ele>
        <time>2023-12-04T11:32:30.957Z</time>
      </trkpt>
      <trkpt lat="38.903330" lon="16.513143">
        <ele>116.391384</ele>
        <time>2023-12-04T11:32:34.350Z</time>
      </trkpt>
      <trkpt lat="38.903212" lon="16.514382">
        <ele>113.772391</ele>
        <time>2023-12-04T11:32:44.462Z</time>
      </trkpt>
      <trkpt lat="38.903191" lon="16.515514">
        <ele>111.978729</ele>
        <time>2023-12-04T11:32:54.136Z</time>
      </trkpt>
      <trkpt lat="38.903155" lon="16.515815">
        <ele>111.696375</ele>
        <time>2023-12-04T11:32:56.961Z</time>
      </trkpt>
      <trkpt lat="38.903046" lon="16.516184">
        <ele>111.330433</ele>
        <time>2023-12-04T11:33:00.776Z</time>
      </trkpt>
      <trkpt lat="38.902612" lon="16.517368">
        <ele>110.048664</ele>
        <time>2023-12-04T11:33:14.094Z</time>
      </trkpt>
      <trkpt lat="38.901881" lon="16.519495">
        <ele>107.016986</ele>
        <time>2023-12-04T11:33:34.219Z</time>
      </trkpt>
      <trkpt lat="38.901638" lon="16.519987">
        <ele>106.113277</ele>
        <time>2023-12-04T11:33:39.113Z</time>
      </trkpt>
      <trkpt lat="38.901364" lon="16.520322">
        <ele>105.359579</ele>
        <time>2023-12-04T11:33:43.272Z</time>
      </trkpt>
      <trkpt lat="38.900148" lon="16.521586">
        <ele>102.032834</ele>
        <time>2023-12-04T11:34:00.535Z</time>
      </trkpt>
      <trkpt lat="38.899803" lon="16.522002">
        <ele>100.959155</ele>
        <time>2023-12-04T11:34:05.655Z</time>
      </trkpt>
      <trkpt lat="38.899508" lon="16.522485">
        <ele>99.874779</ele>
        <time>2023-12-04T11:34:10.685Z</time>
      </trkpt>
      <trkpt lat="38.899276" lon="16.523000">
        <ele>98.479343</ele>
        <time>2023-12-04T11:34:15.441Z</time>
      </trkpt>
      <trkpt lat="38.899104" lon="16.523569">
        <ele>96.963974</ele>
        <time>2023-12-04T11:34:20.218Z</time>
      </trkpt>
      <trkpt lat="38.898362" lon="16.527065">
        <ele>87.760800</ele>
        <time>2023-12-04T11:34:48.624Z</time>
      </trkpt>
      <trkpt lat="38.898232" lon="16.527805">
        <ele>86.059354</ele>
        <time>2023-12-04T11:34:54.624Z</time>
      </trkpt>
      <trkpt lat="38.898155" lon="16.529219">
        <ele>82.880247</ele>
        <time>2023-12-04T11:35:06.030Z</time>
      </trkpt>
      <trkpt lat="38.898141" lon="16.530520">
        <ele>81.321167</ele>
        <time>2023-12-04T11:35:17.124Z</time>
      </trkpt>
      <trkpt lat="38.898060" lon="16.533433">
        <ele>79.434000</ele>
        <time>2023-12-04T11:35:46.549Z</time>
      </trkpt>
      <trkpt lat="38.898025" lon="16.534077">
        <ele>79.141291</ele>
        <time>2023-12-04T11:35:54.774Z</time>
      </trkpt>
      <trkpt lat="38.897880" lon="16.535184">
        <ele>78.383567</ele>
        <time>2023-12-04T11:36:06.257Z</time>
      </trkpt>
      <trkpt lat="38.897739" lon="16.535833">
        <ele>77.928749</ele>
        <time>2023-12-04T11:36:12.634Z</time>
      </trkpt>
      <trkpt lat="38.897464" lon="16.535801">
        <ele>77.646173</ele>
        <time>2023-12-04T11:36:15.702Z</time>
      </trkpt>
      <trkpt lat="38.897185" lon="16.535740">
        <ele>76.978714</ele>
        <time>2023-12-04T11:36:18.733Z</time>
      </trkpt>
      <trkpt lat="38.897125" lon="16.535648">
        <ele>76.758397</ele>
        <time>2023-12-04T11:36:19.746Z</time>
      </trkpt>
      <trkpt lat="38.897101" lon="16.535515">
        <ele>76.507798</ele>
        <time>2023-12-04T11:36:20.877Z</time>
      </trkpt>
      <trkpt lat="38.897036" lon="16.535498">
        <ele>76.351357</ele>
        <time>2023-12-04T11:36:21.545Z</time>
      </trkpt>
      <trkpt lat="38.896768" lon="16.535429">
        <ele>75.706734</ele>
        <time>2023-12-04T11:36:24.393Z</time>
      </trkpt>
      <trkpt lat="38.896754" lon="16.535343">
        <ele>75.545464</ele>
        <time>2023-12-04T11:36:25.079Z</time>
      </trkpt>
      <trkpt lat="38.896715" lon="16.535308">
        <ele>75.433271</ele>
        <time>2023-12-04T11:36:25.556Z</time>
      </trkpt>
      <trkpt lat="38.896665" lon="16.535309">
        <ele>75.315335</ele>
        <time>2023-12-04T11:36:26.056Z</time>
      </trkpt>
      <trkpt lat="38.896614" lon="16.535378">
        <ele>75.140671</ele>
        <time>2023-12-04T11:36:26.824Z</time>
      </trkpt>
      <trkpt lat="38.895932" lon="16.535244">
        <ele>73.513525</ele>
        <time>2023-12-04T11:36:37.001Z</time>
      </trkpt>
      <trkpt lat="38.895807" lon="16.535218">
        <ele>73.589654</ele>
        <time>2023-12-04T11:36:39.112Z</time>
      </trkpt>
      <trkpt lat="38.895535" lon="16.535160">
        <ele>73.885892</ele>
        <time>2023-12-04T11:36:43.900Z</time>
      </trkpt>
      <trkpt lat="38.894919" lon="16.534956">
        <ele>74.569360</ele>
        <time>2023-12-04T11:36:58.276Z</time>
      </trkpt>
      <trkpt lat="38.894568" lon="16.534842">
        <ele>74.958340</ele>
        <time>2023-12-04T11:37:09.140Z</time>
      </trkpt>
      <trkpt lat="38.893629" lon="16.534516">
        <ele>77.795746</ele>
        <time>2023-12-04T11:37:43.034Z</time>
      </trkpt>
      <trkpt lat="38.893474" lon="16.534546">
        <ele>78.468466</ele>
        <time>2023-12-04T11:37:48.833Z</time>
      </trkpt>
      <trkpt lat="38.893341" lon="16.534637">
        <ele>79.115155</ele>
        <time>2023-12-04T11:37:54.574Z</time>
      </trkpt>
      <trkpt lat="38.893301" lon="16.534701">
        <ele>79.389329</ele>
        <time>2023-12-04T11:37:56.880Z</time>
      </trkpt>
      <trkpt lat="38.893157" lon="16.534928">
        <ele>80.367529</ele>
        <time>2023-12-04T11:38:05.780Z</time>
      </trkpt>
      <trkpt lat="38.892962" lon="16.535572">
        <ele>82.675751</ele>
        <time>2023-12-04T11:38:27.530Z</time>
      </trkpt>
      <trkpt lat="38.892435" lon="16.536357">
        <ele>86.087637</ele>
        <time>2023-12-04T11:38:58.900Z</time>
      </trkpt>
      <trkpt lat="38.892288" lon="16.536445">
        <ele>86.771878</ele>
        <time>2023-12-04T11:39:04.416Z</time>
      </trkpt>
      <trkpt lat="38.892103" lon="16.536397">
        <ele>87.568184</ele>
        <time>2023-12-04T11:39:10.899Z</time>
      </trkpt>
      <trkpt lat="38.891576" lon="16.536127">
        <ele>89.961961</ele>
        <time>2023-12-04T11:39:30.567Z</time>
      </trkpt>
      <trkpt lat="38.891513" lon="16.536131">
        <ele>90.228094</ele>
        <time>2023-12-04T11:39:32.823Z</time>
      </trkpt>
      <trkpt lat="38.891397" lon="16.536140">
        <ele>90.719187</ele>
        <time>2023-12-04T11:39:36.988Z</time>
      </trkpt>
      <trkpt lat="38.890738" lon="16.536431">
        <ele>94.072994</ele>
        <time>2023-12-04T11:40:04.325Z</time>
      </trkpt>
      <trkpt lat="38.890027" lon="16.536567">
        <ele>97.532683</ele>
        <time>2023-12-04T11:40:33.958Z</time>
      </trkpt>
      <trkpt lat="38.889611" lon="16.536553">
        <ele>99.469029</ele>
        <time>2023-12-04T11:40:51.093Z</time>
      </trkpt>
      <trkpt lat="38.888979" lon="16.536262">
        <ele>101.405228</ele>
        <time>2023-12-04T11:41:17.191Z</time>
      </trkpt>
      <trkpt lat="38.888108" lon="16.536283">
        <ele>103.917620</ele>
        <time>2023-12-04T11:41:44.102Z</time>
      </trkpt>
      <trkpt lat="38.887550" lon="16.536279">
        <ele>103.320047</ele>
        <time>2023-12-04T11:41:55.227Z</time>
      </trkpt>
      <trkpt lat="38.887451" lon="16.536248">
        <ele>102.945365</ele>
        <time>2023-12-04T11:41:56.844Z</time>
      </trkpt>
      <trkpt lat="38.887293" lon="16.536120">
        <ele>102.258533</ele>
        <time>2023-12-04T11:41:59.646Z</time>
      </trkpt>
      <trkpt lat="38.887076" lon="16.535592">
        <ele>100.549613</ele>
        <time>2023-12-04T11:42:06.136Z</time>
      </trkpt>
      <trkpt lat="38.886966" lon="16.535091">
        <ele>99.059728</ele>
        <time>2023-12-04T11:42:11.443Z</time>
      </trkpt>
      <trkpt lat="38.886876" lon="16.535003">
        <ele>98.643851</ele>
        <time>2023-12-04T11:42:12.901Z</time>
      </trkpt>
      <trkpt lat="38.886708" lon="16.534962">
        <ele>98.015065</ele>
        <time>2023-12-04T11:42:15.126Z</time>
      </trkpt>
      <trkpt lat="38.885907" lon="16.535152">
        <ele>93.159081</ele>
        <time>2023-12-04T11:42:25.643Z</time>
      </trkpt>
      <trkpt lat="38.885527" lon="16.535064">
        <ele>90.835462</ele>
        <time>2023-12-04T11:42:30.628Z</time>
      </trkpt>
      <trkpt lat="38.885227" lon="16.534861">
        <ele>88.795003</ele>
        <time>2023-12-04T11:42:35.075Z</time>
      </trkpt>
      <trkpt lat="38.884621" lon="16.534021">
        <ele>85.839761</ele>
        <time>2023-12-04T11:42:47.356Z</time>
      </trkpt>
      <trkpt lat="38.884500" lon="16.533635">
        <ele>85.163673</ele>
        <time>2023-12-04T11:42:52.208Z</time>
      </trkpt>
      <trkpt lat="38.883973" lon="16.530244">
        <ele>83.697439</ele>
        <time>2023-12-04T11:43:47.329Z</time>
      </trkpt>
      <trkpt lat="38.883425" lon="16.528721">
        <ele>83.984135</ele>
        <time>2023-12-04T11:44:18.962Z</time>
      </trkpt>
      <trkpt lat="38.882950" lon="16.527029">
        <ele>81.449534</ele>
        <time>2023-12-04T11:44:42.522Z</time>
      </trkpt>
      <trkpt lat="38.881358" lon="16.527576">
        <ele>75.707248</ele>
        <time>2023-12-04T11:45:05.124Z</time>
      </trkpt>
      <trkpt lat="38.879667" lon="16.528173">
        <ele>70.009203</ele>
        <time>2023-12-04T11:45:29.810Z</time>
      </trkpt>
      <trkpt lat="38.879504" lon="16.528288">
        <ele>69.651165</ele>
        <time>2023-12-04T11:45:32.848Z</time>
      </trkpt>
      <trkpt lat="38.879090" lon="16.528964">
        <ele>68.362044</ele>
        <time>2023-12-04T11:45:44.738Z</time>
      </trkpt>
      <trkpt lat="38.878785" lon="16.528376">
        <ele>68.211277</ele>
        <time>2023-12-04T11:45:53.583Z</time>
      </trkpt>
      <trkpt lat="38.878588" lon="16.527924">
        <ele>68.480569</ele>
        <time>2023-12-04T11:46:01.378Z</time>
      </trkpt>
      <trkpt lat="38.878514" lon="16.527480">
        <ele>68.716615</ele>
        <time>2023-12-04T11:46:08.041Z</time>
      </trkpt>
      <trkpt lat="38.878482" lon="16.526513">
        <ele>69.218886</ele>
        <time>2023-12-04T11:46:21.187Z</time>
      </trkpt>
      <trkpt lat="38.878501" lon="16.525717">
        <ele>69.624058</ele>
        <time>2023-12-04T11:46:32.382Z</time>
      </trkpt>
      <trkpt lat="38.878672" lon="16.525111">
        <ele>69.952001</ele>
        <time>2023-12-04T11:46:41.011Z</time>
      </trkpt>
      <trkpt lat="38.878702" lon="16.524914">
        <ele>70.054129</ele>
        <time>2023-12-04T11:46:43.689Z</time>
      </trkpt>
      <trkpt lat="38.878779" lon="16.524443">
        <ele>70.298985</ele>
        <time>2023-12-04T11:46:49.988Z</time>
      </trkpt>
      <trkpt lat="38.878663" lon="16.523862">
        <ele>70.795717</ele>
        <time>2023-12-04T11:46:57.950Z</time>
      </trkpt>
      <trkpt lat="38.878147" lon="16.522125">
        <ele>72.476282</ele>
        <time>2023-12-04T11:47:26.973Z</time>
      </trkpt>
      <trkpt lat="38.877939" lon="16.521402">
        <ele>73.366105</ele>
        <time>2023-12-04T11:47:39.756Z</time>
      </trkpt>
      <trkpt lat="38.877926" lon="16.521148">
        <ele>73.659964</ele>
        <time>2023-12-04T11:47:43.946Z</time>
      </trkpt>
      <trkpt lat="38.878204" lon="16.519310">
        <ele>76.078775</ele>
        <time>2023-12-04T11:48:14.245Z</time>
      </trkpt>
      <trkpt lat="38.878204" lon="16.519041">
        <ele>76.499579</ele>
        <time>2023-12-04T11:48:18.484Z</time>
      </trkpt>
      <trkpt lat="38.878178" lon="16.518950">
        <ele>76.651218</ele>
        <time>2023-12-04T11:48:20.068Z</time>
      </trkpt>
      <trkpt lat="38.878035" lon="16.518748">
        <ele>77.078329</ele>
        <time>2023-12-04T11:48:24.575Z</time>
      </trkpt>
      <trkpt lat="38.877727" lon="16.518608">
        <ele>77.734848</ele>
        <time>2023-12-04T11:48:31.919Z</time>
      </trkpt>
      <trkpt lat="38.877650" lon="16.518593">
        <ele>77.891346</ele>
        <time>2023-12-04T11:48:33.759Z</time>
      </trkpt>
      <trkpt lat="38.877564" lon="16.518576">
        <ele>78.066194</ele>
        <time>2023-12-04T11:48:35.837Z</time>
      </trkpt>
      <trkpt lat="38.877364" lon="16.518460">
        <ele>78.507154</ele>
        <time>2023-12-04T11:48:41.189Z</time>
      </trkpt>
      <trkpt lat="38.877080" lon="16.518190">
        <ele>79.764151</ele>
        <time>2023-12-04T11:48:50.880Z</time>
      </trkpt>
      <trkpt lat="38.876111" lon="16.517643">
        <ele>84.190364</ele>
        <time>2023-12-04T11:49:24.601Z</time>
      </trkpt>
      <trkpt lat="38.875882" lon="16.517584">
        <ele>85.167073</ele>
        <time>2023-12-04T11:49:32.712Z</time>
      </trkpt>
      <trkpt lat="38.875681" lon="16.517626">
        <ele>86.018667</ele>
        <time>2023-12-04T11:49:39.566Z</time>
      </trkpt>
      <trkpt lat="38.875420" lon="16.517846">
        <ele>87.794834</ele>
        <time>2023-12-04T11:49:50.575Z</time>
      </trkpt>
      <trkpt lat="38.875226" lon="16.517858">
        <ele>88.957338</ele>
        <time>2023-12-04T11:49:57.763Z</time>
      </trkpt>
      <trkpt lat="38.874909" lon="16.517746">
        <ele>90.925160</ele>
        <time>2023-12-04T11:50:10.392Z</time>
      </trkpt>
      <trkpt lat="38.874690" lon="16.517543">
        <ele>92.541620</ele>
        <time>2023-12-04T11:50:21.366Z</time>
      </trkpt>
      <trkpt lat="38.874489" lon="16.517315">
        <ele>94.146635</ele>
        <time>2023-12-04T11:50:32.488Z</time>
      </trkpt>
      <trkpt lat="38.874354" lon="16.517228">
        <ele>95.050653</ele>
        <time>2023-12-04T11:50:38.922Z</time>
      </trkpt>
      <trkpt lat="38.874218" lon="16.517178">
        <ele>95.897347</ele>
        <time>2023-12-04T11:50:44.617Z</time>
      </trkpt>
      <trkpt lat="38.873801" lon="16.517294">
        <ele>98.473549</ele>
        <time>2023-12-04T11:51:01.518Z</time>
      </trkpt>
      <trkpt lat="38.873288" lon="16.517273">
        <ele>101.593063</ele>
        <time>2023-12-04T11:51:21.715Z</time>
      </trkpt>
      <trkpt lat="38.873117" lon="16.517232">
        <ele>102.650326</ele>
        <time>2023-12-04T11:51:28.670Z</time>
      </trkpt>
      <trkpt lat="38.872926" lon="16.516929">
        <ele>104.495113</ele>
        <time>2023-12-04T11:51:41.204Z</time>
      </trkpt>
      <trkpt lat="38.872751" lon="16.516804">
        <ele>105.712134</ele>
        <time>2023-12-04T11:51:49.530Z</time>
      </trkpt>
      <trkpt lat="38.872338" lon="16.516676">
        <ele>108.187321</ele>
        <time>2023-12-04T11:52:06.098Z</time>
      </trkpt>
      <trkpt lat="38.871589" lon="16.516559">
        <ele>111.425860</ele>
        <time>2023-12-04T11:52:29.988Z</time>
      </trkpt>
      <trkpt lat="38.871175" lon="16.516547">
        <ele>113.203280</ele>
        <time>2023-12-04T11:52:40.840Z</time>
      </trkpt>
      <trkpt lat="38.869941" lon="16.516232">
        <ele>119.052735</ele>
        <time>2023-12-04T11:53:21.647Z</time>
      </trkpt>
      <trkpt lat="38.869809" lon="16.516149">
        <ele>119.779528</ele>
        <time>2023-12-04T11:53:27.098Z</time>
      </trkpt>
      <trkpt lat="38.869652" lon="16.516149">
        <ele>120.555926</ele>
        <time>2023-12-04T11:53:32.842Z</time>
      </trkpt>
      <trkpt lat="38.869531" lon="16.516187">
        <ele>121.171924</ele>
        <time>2023-12-04T11:53:37.412Z</time>
      </trkpt>
      <trkpt lat="38.869233" lon="16.516536">
        <ele>123.166247</ele>
        <time>2023-12-04T11:53:52.374Z</time>
      </trkpt>
      <trkpt lat="38.869127" lon="16.516618">
        <ele>123.778175</ele>
        <time>2023-12-04T11:53:57.011Z</time>
      </trkpt>
      <trkpt lat="38.868969" lon="16.516667">
        <ele>124.560105</ele>
        <time>2023-12-04T11:54:02.866Z</time>
      </trkpt>
      <trkpt lat="38.868826" lon="16.516667">
        <ele>124.849999</ele>
        <time>2023-12-04T11:54:08.044Z</time>
      </trkpt>
      <trkpt lat="38.868739" lon="16.516618">
        <ele>125.042580</ele>
        <time>2023-12-04T11:54:11.405Z</time>
      </trkpt>
      <trkpt lat="38.868639" lon="16.516501">
        <ele>125.316805</ele>
        <time>2023-12-04T11:54:16.090Z</time>
      </trkpt>
      <trkpt lat="38.868509" lon="16.515897">
        <ele>126.305899</ele>
        <time>2023-12-04T11:54:31.041Z</time>
      </trkpt>
      <trkpt lat="38.868454" lon="16.515765">
        <ele>126.542203</ele>
        <time>2023-12-04T11:54:33.870Z</time>
      </trkpt>
      <trkpt lat="38.868310" lon="16.515661">
        <ele>126.877111</ele>
        <time>2023-12-04T11:54:37.336Z</time>
      </trkpt>
      <trkpt lat="38.868164" lon="16.515618">
        <ele>127.180768</ele>
        <time>2023-12-04T11:54:39.919Z</time>
      </trkpt>
      <trkpt lat="38.868067" lon="16.515485">
        <ele>127.468407</ele>
        <time>2023-12-04T11:54:41.943Z</time>
      </trkpt>
      <trkpt lat="38.868024" lon="16.515009">
        <ele>128.176431</ele>
        <time>2023-12-04T11:54:46.102Z</time>
      </trkpt>
      <trkpt lat="38.867972" lon="16.514916">
        <ele>128.097105</ele>
        <time>2023-12-04T11:54:47.018Z</time>
      </trkpt>
      <trkpt lat="38.867308" lon="16.514539">
        <ele>127.451098</ele>
        <time>2023-12-04T11:54:54.638Z</time>
      </trkpt>
      <trkpt lat="38.867056" lon="16.514459">
        <ele>127.220112</ele>
        <time>2023-12-04T11:54:57.492Z</time>
      </trkpt>
      <trkpt lat="38.866891" lon="16.514331">
        <ele>127.048585</ele>
        <time>2023-12-04T11:54:59.581Z</time>
      </trkpt>
      <trkpt lat="38.866685" lon="16.513958">
        <ele>126.731750</ele>
        <time>2023-12-04T11:55:03.912Z</time>
      </trkpt>
      <trkpt lat="38.865673" lon="16.511199">
        <ele>136.194624</ele>
        <time>2023-12-04T11:56:18.730Z</time>
      </trkpt>
      <trkpt lat="38.865599" lon="16.510892">
        <ele>137.835773</ele>
        <time>2023-12-04T11:56:29.736Z</time>
      </trkpt>
      <trkpt lat="38.865557" lon="16.510439">
        <ele>140.165432</ele>
        <time>2023-12-04T11:56:45.460Z</time>
      </trkpt>
      <trkpt lat="38.865571" lon="16.510274">
        <ele>141.013019</ele>
        <time>2023-12-04T11:56:51.085Z</time>
      </trkpt>
      <trkpt lat="38.865660" lon="16.510124">
        <ele>141.976076</ele>
        <time>2023-12-04T11:56:57.714Z</time>
      </trkpt>
      <trkpt lat="38.865799" lon="16.509995">
        <ele>143.100824</ele>
        <time>2023-12-04T11:57:05.224Z</time>
      </trkpt>
      <trkpt lat="38.866000" lon="16.509885">
        <ele>144.533793</ele>
        <time>2023-12-04T11:57:15.075Z</time>
      </trkpt>
      <trkpt lat="38.866044" lon="16.509828">
        <ele>144.943675</ele>
        <time>2023-12-04T11:57:17.878Z</time>
      </trkpt>
      <trkpt lat="38.866085" lon="16.509669">
        <ele>145.984248</ele>
        <time>2023-12-04T11:57:23.645Z</time>
      </trkpt>
      <trkpt lat="38.866090" lon="16.509124">
        <ele>149.712364</ele>
        <time>2023-12-04T11:57:43.565Z</time>
      </trkpt>
      <trkpt lat="38.866155" lon="16.508879">
        <ele>151.482804</ele>
        <time>2023-12-04T11:57:53.417Z</time>
      </trkpt>
      <trkpt lat="38.866313" lon="16.508630">
        <ele>153.679948</ele>
        <time>2023-12-04T11:58:06.183Z</time>
      </trkpt>
      <trkpt lat="38.866462" lon="16.508510">
        <ele>155.224974</ele>
        <time>2023-12-04T11:58:15.412Z</time>
      </trkpt>
      <trkpt lat="38.866782" lon="16.508344">
        <ele>158.256811</ele>
        <time>2023-12-04T11:58:34.139Z</time>
      </trkpt>
      <trkpt lat="38.866988" lon="16.508174">
        <ele>160.407890</ele>
        <time>2023-12-04T11:58:47.590Z</time>
      </trkpt>
      <trkpt lat="38.867105" lon="16.508000">
        <ele>161.637963</ele>
        <time>2023-12-04T11:58:57.178Z</time>
      </trkpt>
      <trkpt lat="38.867101" lon="16.507805">
        <ele>162.478823</ele>
        <time>2023-12-04T11:59:05.077Z</time>
      </trkpt>
      <trkpt lat="38.867056" lon="16.507705">
        <ele>162.976700</ele>
        <time>2023-12-04T11:59:09.423Z</time>
      </trkpt>
      <trkpt lat="38.866830" lon="16.507531">
        <ele>164.435499</ele>
        <time>2023-12-04T11:59:21.658Z</time>
      </trkpt>
      <trkpt lat="38.866743" lon="16.507402">
        <ele>165.171170</ele>
        <time>2023-12-04T11:59:27.182Z</time>
      </trkpt>
      <trkpt lat="38.866630" lon="16.506743">
        <ele>168.079946</ele>
        <time>2023-12-04T11:59:46.406Z</time>
      </trkpt>
      <trkpt lat="38.866455" lon="16.506294">
        <ele>170.244375</ele>
        <time>2023-12-04T11:59:56.844Z</time>
      </trkpt>
      <trkpt lat="38.866410" lon="16.505992">
        <ele>170.982826</ele>
        <time>2023-12-04T12:00:01.825Z</time>
      </trkpt>
      <trkpt lat="38.866465" lon="16.505543">
        <ele>170.879705</ele>
        <time>2023-12-04T12:00:07.031Z</time>
      </trkpt>
      <trkpt lat="38.866552" lon="16.505315">
        <ele>170.822099</ele>
        <time>2023-12-04T12:00:09.254Z</time>
      </trkpt>
      <trkpt lat="38.867051" lon="16.504658">
        <ele>170.613869</ele>
        <time>2023-12-04T12:00:17.051Z</time>
      </trkpt>
      <trkpt lat="38.867176" lon="16.504452">
        <ele>170.554616</ele>
        <time>2023-12-04T12:00:19.593Z</time>
      </trkpt>
      <trkpt lat="38.867205" lon="16.504282">
        <ele>170.515132</ele>
        <time>2023-12-04T12:00:21.168Z</time>
      </trkpt>
      <trkpt lat="38.867190" lon="16.503755">
        <ele>172.328675</ele>
        <time>2023-12-04T12:00:28.983Z</time>
      </trkpt>
      <trkpt lat="38.867235" lon="16.503626">
        <ele>172.966231</ele>
        <time>2023-12-04T12:00:32.102Z</time>
      </trkpt>
      <trkpt lat="38.867276" lon="16.503592">
        <ele>173.248941</ele>
        <time>2023-12-04T12:00:33.496Z</time>
      </trkpt>
      <trkpt lat="38.867361" lon="16.503577">
        <ele>173.745956</ele>
        <time>2023-12-04T12:00:35.918Z</time>
      </trkpt>
      <trkpt lat="38.867416" lon="16.503626">
        <ele>174.133709</ele>
        <time>2023-12-04T12:00:38.030Z</time>
      </trkpt>
      <trkpt lat="38.867424" lon="16.504008">
        <ele>175.857261</ele>
        <time>2023-12-04T12:00:49.304Z</time>
      </trkpt>
      <trkpt lat="38.867476" lon="16.504099">
        <ele>176.366373</ele>
        <time>2023-12-04T12:00:53.044Z</time>
      </trkpt>
      <trkpt lat="38.867547" lon="16.504133">
        <ele>176.805321</ele>
        <time>2023-12-04T12:00:56.692Z</time>
      </trkpt>
      <trkpt lat="38.867680" lon="16.504095">
        <ele>177.594599</ele>
        <time>2023-12-04T12:01:03.097Z</time>
      </trkpt>
      <trkpt lat="38.868019" lon="16.503817">
        <ele>179.924517</ele>
        <time>2023-12-04T12:01:23.958Z</time>
      </trkpt>
      <trkpt lat="38.868103" lon="16.503813">
        <ele>180.411447</ele>
        <time>2023-12-04T12:01:28.618Z</time>
      </trkpt>
      <trkpt lat="38.868219" lon="16.503909">
        <ele>181.389396</ele>
        <time>2023-12-04T12:01:36.198Z</time>
      </trkpt>
      <trkpt lat="38.868342" lon="16.503967">
        <ele>182.594917</ele>
        <time>2023-12-04T12:01:43.205Z</time>
      </trkpt>
      <trkpt lat="38.868503" lon="16.503917">
        <ele>184.118884</ele>
        <time>2023-12-04T12:01:52.461Z</time>
      </trkpt>
      <trkpt lat="38.868649" lon="16.503676">
        <ele>186.306295</ele>
        <time>2023-12-04T12:02:06.782Z</time>
      </trkpt>
      <trkpt lat="38.868781" lon="16.503369">
        <ele>188.818509</ele>
        <time>2023-12-04T12:02:22.132Z</time>
      </trkpt>
      <trkpt lat="38.868868" lon="16.503270">
        <ele>189.887919</ele>
        <time>2023-12-04T12:02:28.723Z</time>
      </trkpt>
      <trkpt lat="38.869027" lon="16.503187">
        <ele>191.467006</ele>
        <time>2023-12-04T12:02:37.100Z</time>
      </trkpt>
      <trkpt lat="38.869117" lon="16.503195">
        <ele>192.297032</ele>
        <time>2023-12-04T12:02:41.831Z</time>
      </trkpt>
      <trkpt lat="38.869241" lon="16.503250">
        <ele>193.504007</ele>
        <time>2023-12-04T12:02:48.576Z</time>
      </trkpt>
      <trkpt lat="38.869458" lon="16.503443">
        <ele>195.932465</ele>
        <time>2023-12-04T12:03:01.193Z</time>
      </trkpt>
      <trkpt lat="38.869505" lon="16.503452">
        <ele>196.369668</ele>
        <time>2023-12-04T12:03:03.465Z</time>
      </trkpt>
      <trkpt lat="38.869633" lon="16.503405">
        <ele>197.546911</ele>
        <time>2023-12-04T12:03:09.093Z</time>
      </trkpt>
      <trkpt lat="38.869680" lon="16.503310">
        <ele>198.076704</ele>
        <time>2023-12-04T12:03:12.971Z</time>
      </trkpt>
      <trkpt lat="38.869686" lon="16.503245">
        <ele>198.384793</ele>
        <time>2023-12-04T12:03:15.395Z</time>
      </trkpt>
      <trkpt lat="38.869655" lon="16.503127">
        <ele>198.970971</ele>
        <time>2023-12-04T12:03:19.820Z</time>
      </trkpt>
      <trkpt lat="38.869608" lon="16.503069">
        <ele>199.365005</ele>
        <time>2023-12-04T12:03:22.424Z</time>
      </trkpt>
      <trkpt lat="38.869018" lon="16.502806">
        <ele>203.140558</ele>
        <time>2023-12-04T12:03:46.311Z</time>
      </trkpt>
      <trkpt lat="38.868932" lon="16.502729">
        <ele>203.774330</ele>
        <time>2023-12-04T12:03:49.937Z</time>
      </trkpt>
      <trkpt lat="38.868810" lon="16.502332">
        <ele>205.783268</ele>
        <time>2023-12-04T12:04:01.604Z</time>
      </trkpt>
      <trkpt lat="38.868794" lon="16.501884">
        <ele>207.894191</ele>
        <time>2023-12-04T12:04:14.602Z</time>
      </trkpt>
      <trkpt lat="38.868768" lon="16.501743">
        <ele>208.578288</ele>
        <time>2023-12-04T12:04:18.529Z</time>
      </trkpt>
      <trkpt lat="38.868620" lon="16.501494">
        <ele>210.065112</ele>
        <time>2023-12-04T12:04:27.276Z</time>
      </trkpt>
      <trkpt lat="38.868361" lon="16.501166">
        <ele>212.282385</ele>
        <time>2023-12-04T12:04:41.676Z</time>
      </trkpt>
      <trkpt lat="38.868280" lon="16.500917">
        <ele>213.563206</ele>
        <time>2023-12-04T12:04:50.488Z</time>
      </trkpt>
      <trkpt lat="38.868394" lon="16.500498">
        <ele>215.669811</ele>
        <time>2023-12-04T12:05:05.000Z</time>
      </trkpt>
      <trkpt lat="38.868461" lon="16.500378">
        <ele>216.370668</ele>
        <time>2023-12-04T12:05:09.873Z</time>
      </trkpt>
      <trkpt lat="38.868523" lon="16.500191">
        <ele>217.335337</ele>
        <time>2023-12-04T12:05:16.474Z</time>
      </trkpt>
      <trkpt lat="38.868549" lon="16.500021">
        <ele>218.157616</ele>
        <time>2023-12-04T12:05:21.718Z</time>
      </trkpt>
      <trkpt lat="38.868523" lon="16.499510">
        <ele>220.856964</ele>
        <time>2023-12-04T12:05:36.649Z</time>
      </trkpt>
      <trkpt lat="38.868484" lon="16.499228">
        <ele>222.498727</ele>
        <time>2023-12-04T12:05:44.653Z</time>
      </trkpt>
      <trkpt lat="38.868203" lon="16.498419">
        <ele>227.576564</ele>
        <time>2023-12-04T12:06:09.674Z</time>
      </trkpt>
      <trkpt lat="38.867993" lon="16.497693">
        <ele>232.016025</ele>
        <time>2023-12-04T12:06:39.321Z</time>
      </trkpt>
      <trkpt lat="38.867848" lon="16.497345">
        <ele>235.682327</ele>
        <time>2023-12-04T12:06:58.619Z</time>
      </trkpt>
      <trkpt lat="38.867802" lon="16.497141">
        <ele>237.880442</ele>
        <time>2023-12-04T12:07:10.385Z</time>
      </trkpt>
      <trkpt lat="38.867832" lon="16.497025">
        <ele>239.145514</ele>
        <time>2023-12-04T12:07:17.097Z</time>
      </trkpt>
      <trkpt lat="38.867993" lon="16.496652">
        <ele>243.559515</ele>
        <time>2023-12-04T12:07:42.388Z</time>
      </trkpt>
      <trkpt lat="38.868096" lon="16.496490">
        <ele>245.724185</ele>
        <time>2023-12-04T12:07:54.804Z</time>
      </trkpt>
      <trkpt lat="38.868167" lon="16.496432">
        <ele>246.842705</ele>
        <time>2023-12-04T12:08:01.602Z</time>
      </trkpt>
      <trkpt lat="38.868342" lon="16.496440">
        <ele>249.170430</ele>
        <time>2023-12-04T12:08:14.262Z</time>
      </trkpt>
      <trkpt lat="38.868458" lon="16.496502">
        <ele>250.840590</ele>
        <time>2023-12-04T12:08:23.622Z</time>
      </trkpt>
      <trkpt lat="38.868784" lon="16.496772">
        <ele>255.996919</ele>
        <time>2023-12-04T12:08:50.417Z</time>
      </trkpt>
      <trkpt lat="38.868898" lon="16.496809">
        <ele>257.066824</ele>
        <time>2023-12-04T12:08:57.861Z</time>
      </trkpt>
      <trkpt lat="38.869175" lon="16.496780">
        <ele>259.127288</ele>
        <time>2023-12-04T12:09:15.178Z</time>
      </trkpt>
      <trkpt lat="38.869641" lon="16.496842">
        <ele>262.600656</ele>
        <time>2023-12-04T12:09:40.661Z</time>
      </trkpt>
      <trkpt lat="38.869731" lon="16.496789">
        <ele>263.334699</ele>
        <time>2023-12-04T12:09:44.974Z</time>
      </trkpt>
      <trkpt lat="38.869828" lon="16.496552">
        <ele>264.880236</ele>
        <time>2023-12-04T12:09:54.226Z</time>
      </trkpt>
      <trkpt lat="38.869889" lon="16.495938">
        <ele>268.453149</ele>
        <time>2023-12-04T12:10:08.560Z</time>
      </trkpt>
      <trkpt lat="38.869934" lon="16.495706">
        <ele>269.806450</ele>
        <time>2023-12-04T12:10:13.262Z</time>
      </trkpt>
      <trkpt lat="38.870006" lon="16.495544">
        <ele>270.341951</ele>
        <time>2023-12-04T12:10:15.527Z</time>
      </trkpt>
      <trkpt lat="38.870438" lon="16.495287">
        <ele>272.097388</ele>
        <time>2023-12-04T12:10:23.357Z</time>
      </trkpt>
      <trkpt lat="38.870878" lon="16.494822">
        <ele>274.198342</ele>
        <time>2023-12-04T12:10:36.470Z</time>
      </trkpt>
      <trkpt lat="38.871136" lon="16.494508">
        <ele>275.508875</ele>
        <time>2023-12-04T12:10:49.146Z</time>
      </trkpt>
      <trkpt lat="38.871834" lon="16.493378">
        <ele>285.102153</ele>
        <time>2023-12-04T12:11:45.783Z</time>
      </trkpt>
      <trkpt lat="38.872021" lon="16.492967">
        <ele>288.769956</ele>
        <time>2023-12-04T12:12:09.703Z</time>
      </trkpt>
      <trkpt lat="38.872361" lon="16.492108">
        <ele>295.815333</ele>
        <time>2023-12-04T12:12:54.443Z</time>
      </trkpt>
      <trkpt lat="38.872467" lon="16.492013">
        <ele>296.849769</ele>
        <time>2023-12-04T12:13:01.628Z</time>
      </trkpt>
      <trkpt lat="38.872540" lon="16.492013">
        <ele>297.434001</ele>
        <time>2023-12-04T12:13:05.823Z</time>
      </trkpt>
      <trkpt lat="38.873091" lon="16.491971">
        <ele>301.851513</ele>
        <time>2023-12-04T12:13:33.994Z</time>
      </trkpt>
      <trkpt lat="38.873246" lon="16.491809">
        <ele>303.450789</ele>
        <time>2023-12-04T12:13:43.692Z</time>
      </trkpt>
      <trkpt lat="38.873546" lon="16.491391">
        <ele>306.993072</ele>
        <time>2023-12-04T12:14:02.372Z</time>
      </trkpt>
      <trkpt lat="38.873837" lon="16.491133">
        <ele>308.520138</ele>
        <time>2023-12-04T12:14:14.652Z</time>
      </trkpt>
      <trkpt lat="38.874199" lon="16.490901">
        <ele>308.289204</ele>
        <time>2023-12-04T12:14:23.213Z</time>
      </trkpt>
      <trkpt lat="38.874518" lon="16.490847">
        <ele>308.105534</ele>
        <time>2023-12-04T12:14:26.881Z</time>
      </trkpt>
      <trkpt lat="38.875798" lon="16.490830">
        <ele>306.854409</ele>
        <time>2023-12-04T12:14:39.965Z</time>
      </trkpt>
      <trkpt lat="38.876037" lon="16.490851">
        <ele>306.371050</ele>
        <time>2023-12-04T12:14:42.360Z</time>
      </trkpt>
      <trkpt lat="38.876176" lon="16.490926">
        <ele>306.066850</ele>
        <time>2023-12-04T12:14:43.878Z</time>
      </trkpt>
      <trkpt lat="38.876857" lon="16.491577">
        <ele>304.354043</ele>
        <time>2023-12-04T12:14:53.165Z</time>
      </trkpt>
      <trkpt lat="38.877051" lon="16.491710">
        <ele>304.008423</ele>
        <time>2023-12-04T12:14:56.211Z</time>
      </trkpt>
      <trkpt lat="38.877290" lon="16.491814">
        <ele>304.727082</ele>
        <time>2023-12-04T12:15:00.424Z</time>
      </trkpt>
      <trkpt lat="38.877839" lon="16.491880">
        <ele>306.297449</ele>
        <time>2023-12-04T12:15:12.974Z</time>
      </trkpt>
      <trkpt lat="38.878340" lon="16.491975">
        <ele>307.739743</ele>
        <time>2023-12-04T12:15:28.326Z</time>
      </trkpt>
      <trkpt lat="38.879843" lon="16.491945">
        <ele>314.153804</ele>
        <time>2023-12-04T12:16:22.632Z</time>
      </trkpt>
      <trkpt lat="38.880029" lon="16.491942">
        <ele>315.066979</ele>
        <time>2023-12-04T12:16:27.209Z</time>
      </trkpt>
      <trkpt lat="38.880184" lon="16.491532">
        <ele>316.808822</ele>
        <time>2023-12-04T12:16:37.759Z</time>
      </trkpt>
      <trkpt lat="38.880426" lon="16.491249">
        <ele>318.548500</ele>
        <time>2023-12-04T12:16:49.440Z</time>
      </trkpt>
      <trkpt lat="38.880562" lon="16.491059">
        <ele>319.791314</ele>
        <time>2023-12-04T12:16:57.308Z</time>
      </trkpt>
      <trkpt lat="38.880610" lon="16.490942">
        <ele>320.428117</ele>
        <time>2023-12-04T12:17:02.157Z</time>
      </trkpt>
      <trkpt lat="38.880559" lon="16.490760">
        <ele>321.359497</ele>
        <time>2023-12-04T12:17:07.576Z</time>
      </trkpt>
      <trkpt lat="38.880462" lon="16.490627">
        <ele>322.237041</ele>
        <time>2023-12-04T12:17:14.156Z</time>
      </trkpt>
      <trkpt lat="38.880428" lon="16.490388">
        <ele>323.406890</ele>
        <time>2023-12-04T12:17:21.556Z</time>
      </trkpt>
      <trkpt lat="38.880417" lon="16.490200">
        <ele>324.314668</ele>
        <time>2023-12-04T12:17:28.058Z</time>
      </trkpt>
      <trkpt lat="38.880313" lon="16.489888">
        <ele>325.948888</ele>
        <time>2023-12-04T12:17:37.972Z</time>
      </trkpt>
      <trkpt lat="38.880329" lon="16.489681">
        <ele>326.950501</ele>
        <time>2023-12-04T12:17:44.894Z</time>
      </trkpt>
      <trkpt lat="38.880375" lon="16.489532">
        <ele>327.722301</ele>
        <time>2023-12-04T12:17:48.796Z</time>
      </trkpt>
      <trkpt lat="38.880630" lon="16.489297">
        <ele>329.858082</ele>
        <time>2023-12-04T12:18:01.563Z</time>
      </trkpt>
      <trkpt lat="38.880782" lon="16.489133">
        <ele>331.462225</ele>
        <time>2023-12-04T12:18:09.138Z</time>
      </trkpt>
      <trkpt lat="38.880866" lon="16.488938">
        <ele>332.864244</ele>
        <time>2023-12-04T12:18:17.378Z</time>
      </trkpt>
      <trkpt lat="38.880898" lon="16.488785">
        <ele>333.860884</ele>
        <time>2023-12-04T12:18:23.935Z</time>
      </trkpt>
      <trkpt lat="38.880820" lon="16.488557">
        <ele>335.427603</ele>
        <time>2023-12-04T12:18:35.457Z</time>
      </trkpt>
      <trkpt lat="38.880633" lon="16.488349">
        <ele>337.426580</ele>
        <time>2023-12-04T12:18:48.768Z</time>
      </trkpt>
      <trkpt lat="38.880436" lon="16.487963">
        <ele>340.330217</ele>
        <time>2023-12-04T12:19:06.433Z</time>
      </trkpt>
      <trkpt lat="38.880302" lon="16.487695">
        <ele>342.334000</ele>
        <time>2023-12-04T12:19:17.675Z</time>
      </trkpt>
      <trkpt lat="38.879936" lon="16.486962">
        <ele>346.807656</ele>
        <time>2023-12-04T12:19:46.562Z</time>
      </trkpt>
      <trkpt lat="38.879780" lon="16.486644">
        <ele>348.613096</ele>
        <time>2023-12-04T12:19:59.198Z</time>
      </trkpt>
      <trkpt lat="38.879698" lon="16.486665">
        <ele>349.129011</ele>
        <time>2023-12-04T12:20:02.398Z</time>
      </trkpt>
      <trkpt lat="38.879337" lon="16.486649">
        <ele>351.357788</ele>
        <time>2023-12-04T12:20:17.710Z</time>
      </trkpt>
      <trkpt lat="38.879073" lon="16.486623">
        <ele>352.991508</ele>
        <time>2023-12-04T12:20:28.342Z</time>
      </trkpt>
      <trkpt lat="38.878978" lon="16.486393">
        <ele>354.242155</ele>
        <time>2023-12-04T12:20:34.791Z</time>
      </trkpt>
      <trkpt lat="38.878948" lon="16.486208">
        <ele>354.760812</ele>
        <time>2023-12-04T12:20:39.737Z</time>
      </trkpt>
      <trkpt lat="38.878889" lon="16.485708">
        <ele>355.253243</ele>
        <time>2023-12-04T12:20:50.371Z</time>
      </trkpt>
      <trkpt lat="38.878509" lon="16.485026">
        <ele>356.069909</ele>
        <time>2023-12-04T12:21:02.265Z</time>
      </trkpt>
      <trkpt lat="38.878448" lon="16.484914">
        <ele>356.203010</ele>
        <time>2023-12-04T12:21:03.628Z</time>
      </trkpt>
      <trkpt lat="38.878405" lon="16.484837">
        <ele>356.295285</ele>
        <time>2023-12-04T12:21:04.651Z</time>
      </trkpt>
      <trkpt lat="38.878390" lon="16.484714">
        <ele>356.416516</ele>
        <time>2023-12-04T12:21:06.141Z</time>
      </trkpt>
      <trkpt lat="38.878366" lon="16.484530">
        <ele>356.598183</ele>
        <time>2023-12-04T12:21:08.046Z</time>
      </trkpt>
      <trkpt lat="38.878306" lon="16.484321">
        <ele>356.815094</ele>
        <time>2023-12-04T12:21:10.178Z</time>
      </trkpt>
      <trkpt lat="38.878233" lon="16.484258">
        <ele>356.913487</ele>
        <time>2023-12-04T12:21:11.194Z</time>
      </trkpt>
      <trkpt lat="38.877943" lon="16.484262">
        <ele>356.962070</ele>
        <time>2023-12-04T12:21:14.791Z</time>
      </trkpt>
      <trkpt lat="38.877778" lon="16.484252">
        <ele>356.989741</ele>
        <time>2023-12-04T12:21:16.720Z</time>
      </trkpt>
      <trkpt lat="38.877688" lon="16.484244">
        <ele>357.004854</ele>
        <time>2023-12-04T12:21:17.815Z</time>
      </trkpt>
      <trkpt lat="38.877570" lon="16.484150">
        <ele>357.028114</ele>
        <time>2023-12-04T12:21:19.939Z</time>
      </trkpt>
      <trkpt lat="38.877537" lon="16.484077">
        <ele>357.039122</ele>
        <time>2023-12-04T12:21:20.846Z</time>
      </trkpt>
      <trkpt lat="38.877531" lon="16.483255">
        <ele>357.146325</ele>
        <time>2023-12-04T12:21:31.437Z</time>
      </trkpt>
      <trkpt lat="38.877509" lon="16.483026">
        <ele>357.176416</ele>
        <time>2023-12-04T12:21:34.214Z</time>
      </trkpt>
      <trkpt lat="38.877277" lon="16.481403">
        <ele>357.836114</ele>
        <time>2023-12-04T12:22:01.845Z</time>
      </trkpt>
      <trkpt lat="38.877060" lon="16.479747">
        <ele>356.688684</ele>
        <time>2023-12-04T12:22:18.884Z</time>
      </trkpt>
      <trkpt lat="38.877033" lon="16.479404">
        <ele>355.953229</ele>
        <time>2023-12-04T12:22:21.611Z</time>
      </trkpt>
      <trkpt lat="38.876649" lon="16.478797">
        <ele>354.284668</ele>
        <time>2023-12-04T12:22:27.528Z</time>
      </trkpt>
      <trkpt lat="38.875688" lon="16.477655">
        <ele>350.506942</ele>
        <time>2023-12-04T12:22:40.353Z</time>
      </trkpt>
      <trkpt lat="38.874072" lon="16.475651">
        <ele>345.501769</ele>
        <time>2023-12-04T12:23:05.551Z</time>
      </trkpt>
      <trkpt lat="38.873930" lon="16.475420">
        <ele>345.087555</ele>
        <time>2023-12-04T12:23:08.075Z</time>
      </trkpt>
      <trkpt lat="38.873733" lon="16.474714">
        <ele>344.185165</ele>
        <time>2023-12-04T12:23:14.480Z</time>
      </trkpt>
      <trkpt lat="38.873663" lon="16.474594">
        <ele>344.016216</ele>
        <time>2023-12-04T12:23:15.780Z</time>
      </trkpt>
      <trkpt lat="38.873580" lon="16.474537">
        <ele>343.880004</ele>
        <time>2023-12-04T12:23:16.818Z</time>
      </trkpt>
      <trkpt lat="38.873515" lon="16.474540">
        <ele>343.785873</ele>
        <time>2023-12-04T12:23:17.543Z</time>
      </trkpt>
      <trkpt lat="38.873305" lon="16.474668">
        <ele>343.449469</ele>
        <time>2023-12-04T12:23:20.129Z</time>
      </trkpt>
      <trkpt lat="38.872964" lon="16.475285">
        <ele>342.596918</ele>
        <time>2023-12-04T12:23:26.853Z</time>
      </trkpt>
      <trkpt lat="38.872807" lon="16.475526">
        <ele>342.242851</ele>
        <time>2023-12-04T12:23:29.938Z</time>
      </trkpt>
      <trkpt lat="38.872606" lon="16.475668">
        <ele>342.464095</ele>
        <time>2023-12-04T12:23:33.098Z</time>
      </trkpt>
      <trkpt lat="38.872294" lon="16.475562">
        <ele>342.900924</ele>
        <time>2023-12-04T12:23:38.172Z</time>
      </trkpt>
      <trkpt lat="38.871733" lon="16.475223">
        <ele>343.740097</ele>
        <time>2023-12-04T12:23:51.611Z</time>
      </trkpt>
      <trkpt lat="38.871319" lon="16.475029">
        <ele>344.336592</ele>
        <time>2023-12-04T12:24:02.766Z</time>
      </trkpt>
      <trkpt lat="38.871248" lon="16.475012">
        <ele>344.434349</ele>
        <time>2023-12-04T12:24:04.641Z</time>
      </trkpt>
      <trkpt lat="38.870818" lon="16.474965">
        <ele>345.107871</ele>
        <time>2023-12-04T12:24:15.361Z</time>
      </trkpt>
      <trkpt lat="38.870257" lon="16.474520">
        <ele>346.206391</ele>
        <time>2023-12-04T12:24:31.057Z</time>
      </trkpt>
      <trkpt lat="38.869571" lon="16.474369">
        <ele>347.365955</ele>
        <time>2023-12-04T12:24:45.359Z</time>
      </trkpt>
      <trkpt lat="38.869434" lon="16.474335">
        <ele>347.598424</ele>
        <time>2023-12-04T12:24:47.787Z</time>
      </trkpt>
      <trkpt lat="38.869148" lon="16.474262">
        <ele>347.187913</ele>
        <time>2023-12-04T12:24:52.332Z</time>
      </trkpt>
      <trkpt lat="38.868905" lon="16.474297">
        <ele>346.795155</ele>
        <time>2023-12-04T12:24:55.486Z</time>
      </trkpt>
      <trkpt lat="38.868760" lon="16.474315">
        <ele>346.561168</ele>
        <time>2023-12-04T12:24:57.219Z</time>
      </trkpt>
      <trkpt lat="38.868531" lon="16.474289">
        <ele>346.191909</ele>
        <time>2023-12-04T12:24:59.765Z</time>
      </trkpt>
      <trkpt lat="38.868190" lon="16.474120">
        <ele>345.604825</ele>
        <time>2023-12-04T12:25:03.632Z</time>
      </trkpt>
      <trkpt lat="38.868010" lon="16.474017">
        <ele>345.288309</ele>
        <time>2023-12-04T12:25:05.662Z</time>
      </trkpt>
      <trkpt lat="38.867533" lon="16.473870">
        <ele>344.417599</ele>
        <time>2023-12-04T12:25:10.699Z</time>
      </trkpt>
      <trkpt lat="38.867215" lon="16.473874">
        <ele>343.729444</ele>
        <time>2023-12-04T12:25:13.978Z</time>
      </trkpt>
      <trkpt lat="38.866965" lon="16.473746">
        <ele>343.147067</ele>
        <time>2023-12-04T12:25:16.822Z</time>
      </trkpt>
      <trkpt lat="38.866660" lon="16.473185">
        <ele>341.994256</ele>
        <time>2023-12-04T12:25:22.683Z</time>
      </trkpt>
      <trkpt lat="38.866268" lon="16.472535">
        <ele>340.705156</ele>
        <time>2023-12-04T12:25:29.911Z</time>
      </trkpt>
      <trkpt lat="38.865821" lon="16.471800">
        <ele>339.769191</ele>
        <time>2023-12-04T12:25:38.532Z</time>
      </trkpt>
      <trkpt lat="38.865357" lon="16.471040">
        <ele>338.799961</ele>
        <time>2023-12-04T12:25:47.652Z</time>
      </trkpt>
      <trkpt lat="38.864934" lon="16.470257">
        <ele>337.246198</ele>
        <time>2023-12-04T12:25:56.313Z</time>
      </trkpt>
      <trkpt lat="38.864733" lon="16.470132">
        <ele>336.707316</ele>
        <time>2023-12-04T12:25:58.708Z</time>
      </trkpt>
      <trkpt lat="38.864158" lon="16.469909">
        <ele>335.257960</ele>
        <time>2023-12-04T12:26:04.945Z</time>
      </trkpt>
      <trkpt lat="38.863430" lon="16.469687">
        <ele>333.684583</ele>
        <time>2023-12-04T12:26:12.448Z</time>
      </trkpt>
      <trkpt lat="38.863188" lon="16.469560">
        <ele>333.252749</ele>
        <time>2023-12-04T12:26:15.104Z</time>
      </trkpt>
      <trkpt lat="38.862612" lon="16.469260">
        <ele>332.226018</ele>
        <time>2023-12-04T12:26:21.954Z</time>
      </trkpt>
      <trkpt lat="38.861822" lon="16.468921">
        <ele>331.447110</ele>
        <time>2023-12-04T12:26:34.156Z</time>
      </trkpt>
      <trkpt lat="38.861566" lon="16.468761">
        <ele>331.741558</ele>
        <time>2023-12-04T12:26:39.147Z</time>
      </trkpt>
      <trkpt lat="38.861455" lon="16.468645">
        <ele>331.889562</ele>
        <time>2023-12-04T12:26:42.330Z</time>
      </trkpt>
      <trkpt lat="38.861392" lon="16.468432">
        <ele>332.073051</ele>
        <time>2023-12-04T12:26:45.957Z</time>
      </trkpt>
      <trkpt lat="38.861406" lon="16.467702">
        <ele>332.661106</ele>
        <time>2023-12-04T12:26:58.276Z</time>
      </trkpt>
      <trkpt lat="38.861281" lon="16.467479">
        <ele>332.882382</ele>
        <time>2023-12-04T12:27:02.514Z</time>
      </trkpt>
      <trkpt lat="38.861017" lon="16.467428">
        <ele>332.900479</ele>
        <time>2023-12-04T12:27:08.055Z</time>
      </trkpt>
      <trkpt lat="38.860877" lon="16.467468">
        <ele>332.576571</ele>
        <time>2023-12-04T12:27:10.964Z</time>
      </trkpt>
      <trkpt lat="38.860755" lon="16.467595">
        <ele>332.221896</ele>
        <time>2023-12-04T12:27:13.885Z</time>
      </trkpt>
      <trkpt lat="38.860678" lon="16.467773">
        <ele>331.863811</ele>
        <time>2023-12-04T12:27:16.302Z</time>
      </trkpt>
      <trkpt lat="38.860595" lon="16.468102">
        <ele>331.255634</ele>
        <time>2023-12-04T12:27:19.583Z</time>
      </trkpt>
      <trkpt lat="38.860505" lon="16.468254">
        <ele>330.919831</ele>
        <time>2023-12-04T12:27:21.233Z</time>
      </trkpt>
      <trkpt lat="38.860394" lon="16.468334">
        <ele>330.632368</ele>
        <time>2023-12-04T12:27:22.538Z</time>
      </trkpt>
      <trkpt lat="38.859861" lon="16.468343">
        <ele>329.428530</ele>
        <time>2023-12-04T12:27:27.626Z</time>
      </trkpt>
      <trkpt lat="38.859459" lon="16.468263">
        <ele>327.951932</ele>
        <time>2023-12-04T12:27:31.356Z</time>
      </trkpt>
      <trkpt lat="38.859209" lon="16.468165">
        <ele>326.710194</ele>
        <time>2023-12-04T12:27:33.735Z</time>
      </trkpt>
      <trkpt lat="38.859008" lon="16.467951">
        <ele>325.469852</ele>
        <time>2023-12-04T12:27:36.170Z</time>
      </trkpt>
      <trkpt lat="38.858454" lon="16.467568">
        <ele>322.480908</ele>
        <time>2023-12-04T12:27:42.165Z</time>
      </trkpt>
      <trkpt lat="38.858336" lon="16.467524">
        <ele>321.897188</ele>
        <time>2023-12-04T12:27:43.347Z</time>
      </trkpt>
      <trkpt lat="38.858128" lon="16.467150">
        <ele>320.453105</ele>
        <time>2023-12-04T12:27:46.842Z</time>
      </trkpt>
      <trkpt lat="38.858052" lon="16.466838">
        <ele>320.374946</ele>
        <time>2023-12-04T12:27:49.407Z</time>
      </trkpt>
      <trkpt lat="38.858010" lon="16.466545">
        <ele>320.303717</ele>
        <time>2023-12-04T12:27:51.905Z</time>
      </trkpt>
      <trkpt lat="38.858003" lon="16.466091">
        <ele>320.195151</ele>
        <time>2023-12-04T12:27:56.276Z</time>
      </trkpt>
      <trkpt lat="38.858038" lon="16.465806">
        <ele>320.126169</ele>
        <time>2023-12-04T12:27:59.727Z</time>
      </trkpt>
      <trkpt lat="38.858031" lon="16.465613">
        <ele>320.079976</ele>
        <time>2023-12-04T12:28:02.695Z</time>
      </trkpt>
      <trkpt lat="38.857987" lon="16.465548">
        <ele>320.059384</ele>
        <time>2023-12-04T12:28:04.113Z</time>
      </trkpt>
      <trkpt lat="38.857915" lon="16.465532">
        <ele>320.036950</ele>
        <time>2023-12-04T12:28:05.691Z</time>
      </trkpt>
      <trkpt lat="38.857816" lon="16.465655">
        <ele>319.994656</ele>
        <time>2023-12-04T12:28:08.815Z</time>
      </trkpt>
      <trkpt lat="38.857656" lon="16.466100">
        <ele>320.535036</ele>
        <time>2023-12-04T12:28:18.697Z</time>
      </trkpt>
      <trkpt lat="38.857476" lon="16.466384">
        <ele>321.848496</ele>
        <time>2023-12-04T12:28:26.894Z</time>
      </trkpt>
      <trkpt lat="38.857296" lon="16.466456">
        <ele>322.716913</ele>
        <time>2023-12-04T12:28:32.726Z</time>
      </trkpt>
      <trkpt lat="38.857026" lon="16.466371">
        <ele>323.997429</ele>
        <time>2023-12-04T12:28:42.001Z</time>
      </trkpt>
      <trkpt lat="38.856962" lon="16.466385">
        <ele>324.296476</ele>
        <time>2023-12-04T12:28:44.315Z</time>
      </trkpt>
      <trkpt lat="38.856762" lon="16.466927">
        <ele>326.447840</ele>
        <time>2023-12-04T12:29:01.552Z</time>
      </trkpt>
      <trkpt lat="38.856686" lon="16.467025">
        <ele>326.943946</ele>
        <time>2023-12-04T12:29:05.643Z</time>
      </trkpt>
      <trkpt lat="38.856561" lon="16.467088">
        <ele>327.562486</ele>
        <time>2023-12-04T12:29:10.668Z</time>
      </trkpt>
      <trkpt lat="38.856339" lon="16.467061">
        <ele>328.633900</ele>
        <time>2023-12-04T12:29:19.371Z</time>
      </trkpt>
      <trkpt lat="38.856180" lon="16.467132">
        <ele>329.498182</ele>
        <time>2023-12-04T12:29:25.762Z</time>
      </trkpt>
      <trkpt lat="38.855840" lon="16.467640">
        <ele>332.176304</ele>
        <time>2023-12-04T12:29:46.013Z</time>
      </trkpt>
      <trkpt lat="38.855216" lon="16.469144">
        <ele>337.708585</ele>
        <time>2023-12-04T12:30:31.299Z</time>
      </trkpt>
      <trkpt lat="38.854960" lon="16.469705">
        <ele>338.161720</ele>
        <time>2023-12-04T12:30:42.581Z</time>
      </trkpt>
      <trkpt lat="38.854835" lon="16.470070">
        <ele>338.439597</ele>
        <time>2023-12-04T12:30:47.750Z</time>
      </trkpt>
      <trkpt lat="38.854352" lon="16.470552">
        <ele>338.987011</ele>
        <time>2023-12-04T12:30:55.234Z</time>
      </trkpt>
      <trkpt lat="38.854208" lon="16.470584">
        <ele>338.706426</ele>
        <time>2023-12-04T12:30:56.832Z</time>
      </trkpt>
      <trkpt lat="38.854129" lon="16.470569">
        <ele>338.358153</ele>
        <time>2023-12-04T12:30:57.684Z</time>
      </trkpt>
      <trkpt lat="38.854055" lon="16.470483">
        <ele>337.922887</ele>
        <time>2023-12-04T12:30:58.718Z</time>
      </trkpt>
      <trkpt lat="38.853941" lon="16.470224">
        <ele>336.912492</ele>
        <time>2023-12-04T12:31:01.021Z</time>
      </trkpt>
      <trkpt lat="38.853854" lon="16.470086">
        <ele>336.309487</ele>
        <time>2023-12-04T12:31:02.376Z</time>
      </trkpt>
      <trkpt lat="38.853733" lon="16.469957">
        <ele>335.623628</ele>
        <time>2023-12-04T12:31:03.887Z</time>
      </trkpt>
      <trkpt lat="38.853599" lon="16.469840">
        <ele>334.916944</ele>
        <time>2023-12-04T12:31:05.432Z</time>
      </trkpt>
      <trkpt lat="38.853478" lon="16.469735">
        <ele>334.280055</ele>
        <time>2023-12-04T12:31:06.806Z</time>
      </trkpt>
      <trkpt lat="38.853123" lon="16.469478">
        <ele>332.502771</ele>
        <time>2023-12-04T12:31:10.609Z</time>
      </trkpt>
      <trkpt lat="38.852977" lon="16.469437">
        <ele>331.851001</ele>
        <time>2023-12-04T12:31:11.996Z</time>
      </trkpt>
      <trkpt lat="38.852851" lon="16.469428">
        <ele>331.300652</ele>
        <time>2023-12-04T12:31:13.153Z</time>
      </trkpt>
      <trkpt lat="38.852697" lon="16.469600">
        <ele>329.946736</ele>
        <time>2023-12-04T12:31:15.028Z</time>
      </trkpt>
      <trkpt lat="38.852384" lon="16.470690">
        <ele>323.693884</ele>
        <time>2023-12-04T12:31:23.214Z</time>
      </trkpt>
      <trkpt lat="38.852273" lon="16.470737">
        <ele>322.886090</ele>
        <time>2023-12-04T12:31:24.250Z</time>
      </trkpt>
      <trkpt lat="38.852129" lon="16.470749">
        <ele>321.888760</ele>
        <time>2023-12-04T12:31:25.538Z</time>
      </trkpt>
      <trkpt lat="38.851790" lon="16.470529">
        <ele>319.263580</ele>
        <time>2023-12-04T12:31:28.886Z</time>
      </trkpt>
      <trkpt lat="38.851594" lon="16.470346">
        <ele>317.573599</ele>
        <time>2023-12-04T12:31:31.038Z</time>
      </trkpt>
      <trkpt lat="38.851193" lon="16.469692">
        <ele>313.036239</ele>
        <time>2023-12-04T12:31:36.806Z</time>
      </trkpt>
      <trkpt lat="38.851047" lon="16.469547">
        <ele>311.744299</ele>
        <time>2023-12-04T12:31:38.464Z</time>
      </trkpt>
      <trkpt lat="38.850666" lon="16.469279">
        <ele>308.703532</ele>
        <time>2023-12-04T12:31:42.355Z</time>
      </trkpt>
      <trkpt lat="38.850606" lon="16.469187">
        <ele>308.049401</ele>
        <time>2023-12-04T12:31:43.204Z</time>
      </trkpt>
      <trkpt lat="38.850499" lon="16.468903">
        <ele>306.329623</ele>
        <time>2023-12-04T12:31:45.432Z</time>
      </trkpt>
      <trkpt lat="38.849881" lon="16.466478">
        <ele>296.263335</ele>
        <time>2023-12-04T12:32:04.196Z</time>
      </trkpt>
      <trkpt lat="38.849601" lon="16.465567">
        <ele>292.924021</ele>
        <time>2023-12-04T12:32:11.540Z</time>
      </trkpt>
      <trkpt lat="38.848999" lon="16.464591">
        <ele>288.694352</ele>
        <time>2023-12-04T12:32:20.959Z</time>
      </trkpt>
      <trkpt lat="38.848770" lon="16.463866">
        <ele>286.119600</ele>
        <time>2023-12-04T12:32:26.883Z</time>
      </trkpt>
      <trkpt lat="38.848669" lon="16.463442">
        <ele>284.660395</ele>
        <time>2023-12-04T12:32:30.226Z</time>
      </trkpt>
      <trkpt lat="38.848657" lon="16.462852">
        <ele>282.718029</ele>
        <time>2023-12-04T12:32:34.664Z</time>
      </trkpt>
      <trkpt lat="38.848745" lon="16.461361">
        <ele>277.474958</ele>
        <time>2023-12-04T12:32:45.841Z</time>
      </trkpt>
      <trkpt lat="38.848791" lon="16.461087">
        <ele>276.472732</ele>
        <time>2023-12-04T12:32:47.914Z</time>
      </trkpt>
      <trkpt lat="38.848991" lon="16.460475">
        <ele>274.099607</ele>
        <time>2023-12-04T12:32:52.800Z</time>
      </trkpt>
      <trkpt lat="38.849020" lon="16.460068">
        <ele>272.976951</ele>
        <time>2023-12-04T12:32:55.840Z</time>
      </trkpt>
      <trkpt lat="38.848878" lon="16.459574">
        <ele>272.113950</ele>
        <time>2023-12-04T12:32:59.808Z</time>
      </trkpt>
      <trkpt lat="38.848866" lon="16.459182">
        <ele>271.471005</ele>
        <time>2023-12-04T12:33:02.793Z</time>
      </trkpt>
      <trkpt lat="38.849475" lon="16.457204">
        <ele>271.645023</ele>
        <time>2023-12-04T12:33:26.219Z</time>
      </trkpt>
      <trkpt lat="38.849852" lon="16.455906">
        <ele>274.938729</ele>
        <time>2023-12-04T12:34:03.056Z</time>
      </trkpt>
      <trkpt lat="38.850136" lon="16.455139">
        <ele>279.205136</ele>
        <time>2023-12-04T12:34:30.469Z</time>
      </trkpt>
      <trkpt lat="38.850988" lon="16.454124">
        <ele>286.787546</ele>
        <time>2023-12-04T12:35:18.583Z</time>
      </trkpt>
      <trkpt lat="38.851318" lon="16.453872">
        <ele>289.912523</ele>
        <time>2023-12-04T12:35:35.357Z</time>
      </trkpt>
      <trkpt lat="38.851477" lon="16.453792">
        <ele>291.302440</ele>
        <time>2023-12-04T12:35:43.065Z</time>
      </trkpt>
      <trkpt lat="38.851581" lon="16.453496">
        <ele>293.360748</ele>
        <time>2023-12-04T12:35:54.868Z</time>
      </trkpt>
      <trkpt lat="38.851585" lon="16.453245">
        <ele>294.952048</ele>
        <time>2023-12-04T12:36:04.400Z</time>
      </trkpt>
      <trkpt lat="38.851435" lon="16.453131">
        <ele>296.370726</ele>
        <time>2023-12-04T12:36:13.117Z</time>
      </trkpt>
      <trkpt lat="38.851055" lon="16.452923">
        <ele>299.732865</ele>
        <time>2023-12-04T12:36:34.446Z</time>
      </trkpt>
      <trkpt lat="38.850504" lon="16.452735">
        <ele>303.770870</ele>
        <time>2023-12-04T12:37:03.517Z</time>
      </trkpt>
      <trkpt lat="38.850299" lon="16.452634">
        <ele>305.207100</ele>
        <time>2023-12-04T12:37:14.302Z</time>
      </trkpt>
      <trkpt lat="38.850069" lon="16.452472">
        <ele>306.923013</ele>
        <time>2023-12-04T12:37:26.407Z</time>
      </trkpt>
      <trkpt lat="38.849944" lon="16.452289">
        <ele>308.162994</ele>
        <time>2023-12-04T12:37:34.634Z</time>
      </trkpt>
      <trkpt lat="38.849889" lon="16.451978">
        <ele>309.787593</ele>
        <time>2023-12-04T12:37:44.737Z</time>
      </trkpt>
      <trkpt lat="38.849827" lon="16.450079">
        <ele>314.677846</ele>
        <time>2023-12-04T12:38:24.766Z</time>
      </trkpt>
      <trkpt lat="38.849578" lon="16.450077">
        <ele>315.086901</ele>
        <time>2023-12-04T12:38:30.144Z</time>
      </trkpt>
      <trkpt lat="38.849140" lon="16.450123">
        <ele>315.808831</ele>
        <time>2023-12-04T12:38:38.915Z</time>
      </trkpt>
      <trkpt lat="38.848939" lon="16.450100">
        <ele>315.942966</ele>
        <time>2023-12-04T12:38:42.638Z</time>
      </trkpt>
      <trkpt lat="38.848745" lon="16.450017">
        <ele>315.701629</ele>
        <time>2023-12-04T12:38:46.338Z</time>
      </trkpt>
      <trkpt lat="38.848372" lon="16.449842">
        <ele>315.232942</ele>
        <time>2023-12-04T12:38:53.211Z</time>
      </trkpt>
      <trkpt lat="38.848113" lon="16.449648">
        <ele>314.879057</ele>
        <time>2023-12-04T12:38:58.203Z</time>
      </trkpt>
      <trkpt lat="38.847614" lon="16.449113">
        <ele>314.111816</ele>
        <time>2023-12-04T12:39:08.938Z</time>
      </trkpt>
      <trkpt lat="38.846710" lon="16.448025">
        <ele>312.292266</ele>
        <time>2023-12-04T12:39:29.054Z</time>
      </trkpt>
      <trkpt lat="38.846609" lon="16.447914">
        <ele>312.090638</ele>
        <time>2023-12-04T12:39:31.225Z</time>
      </trkpt>
      <trkpt lat="38.845593" lon="16.447228">
        <ele>310.693956</ele>
        <time>2023-12-04T12:39:50.408Z</time>
      </trkpt>
      <trkpt lat="38.844859" lon="16.446882">
        <ele>310.002863</ele>
        <time>2023-12-04T12:40:03.769Z</time>
      </trkpt>
      <trkpt lat="38.844546" lon="16.446775">
        <ele>309.716578</ele>
        <time>2023-12-04T12:40:09.735Z</time>
      </trkpt>
      <trkpt lat="38.844155" lon="16.446696">
        <ele>309.848095</ele>
        <time>2023-12-04T12:40:17.641Z</time>
      </trkpt>
      <trkpt lat="38.843980" lon="16.446634">
        <ele>310.041353</ele>
        <time>2023-12-04T12:40:21.563Z</time>
      </trkpt>
      <trkpt lat="38.843851" lon="16.446527">
        <ele>310.204845</ele>
        <time>2023-12-04T12:40:24.886Z</time>
      </trkpt>
      <trkpt lat="38.842278" lon="16.444247">
        <ele>314.382779</ele>
        <time>2023-12-04T12:41:28.666Z</time>
      </trkpt>
      <trkpt lat="38.841516" lon="16.443087">
        <ele>318.583935</ele>
        <time>2023-12-04T12:42:10.822Z</time>
      </trkpt>
      <trkpt lat="38.840997" lon="16.442398">
        <ele>322.181359</ele>
        <time>2023-12-04T12:42:41.053Z</time>
      </trkpt>
      <trkpt lat="38.838767" lon="16.439678">
        <ele>338.240265</ele>
        <time>2023-12-04T12:44:51.552Z</time>
      </trkpt>
      <trkpt lat="38.838526" lon="16.439438">
        <ele>339.704485</ele>
        <time>2023-12-04T12:45:03.034Z</time>
      </trkpt>
      <trkpt lat="38.838386" lon="16.439387">
        <ele>340.403110</ele>
        <time>2023-12-04T12:45:08.389Z</time>
      </trkpt>
      <trkpt lat="38.838196" lon="16.439461">
        <ele>341.356284</ele>
        <time>2023-12-04T12:45:15.791Z</time>
      </trkpt>
      <trkpt lat="38.837463" lon="16.440117">
        <ele>345.589702</ele>
        <time>2023-12-04T12:45:48.544Z</time>
      </trkpt>
      <trkpt lat="38.837196" lon="16.440293">
        <ele>346.997450</ele>
        <time>2023-12-04T12:45:59.763Z</time>
      </trkpt>
      <trkpt lat="38.836640" lon="16.440469">
        <ele>349.683375</ele>
        <time>2023-12-04T12:46:22.066Z</time>
      </trkpt>
      <trkpt lat="38.836177" lon="16.440567">
        <ele>351.970630</ele>
        <time>2023-12-04T12:46:41.531Z</time>
      </trkpt>
      <trkpt lat="38.836040" lon="16.440573">
        <ele>352.842435</ele>
        <time>2023-12-04T12:46:47.467Z</time>
      </trkpt>
      <trkpt lat="38.835957" lon="16.440521">
        <ele>353.429806</ele>
        <time>2023-12-04T12:46:51.552Z</time>
      </trkpt>
      <trkpt lat="38.835878" lon="16.440407">
        <ele>354.185701</ele>
        <time>2023-12-04T12:46:56.833Z</time>
      </trkpt>
      <trkpt lat="38.835701" lon="16.440005">
        <ele>356.473331</ele>
        <time>2023-12-04T12:47:13.185Z</time>
      </trkpt>
      <trkpt lat="38.835055" lon="16.438410">
        <ele>365.489599</ele>
        <time>2023-12-04T12:48:19.314Z</time>
      </trkpt>
      <trkpt lat="38.834922" lon="16.437930">
        <ele>368.134681</ele>
        <time>2023-12-04T12:48:38.053Z</time>
      </trkpt>
      <trkpt lat="38.834919" lon="16.437432">
        <ele>370.720326</ele>
        <time>2023-12-04T12:48:56.288Z</time>
      </trkpt>
      <trkpt lat="38.834817" lon="16.436939">
        <ele>373.368685</ele>
        <time>2023-12-04T12:49:14.821Z</time>
      </trkpt>
      <trkpt lat="38.834603" lon="16.436201">
        <ele>377.453594</ele>
        <time>2023-12-04T12:49:43.106Z</time>
      </trkpt>
      <trkpt lat="38.834330" lon="16.435449">
        <ele>381.754624</ele>
        <time>2023-12-04T12:50:13.429Z</time>
      </trkpt>
      <trkpt lat="38.834114" lon="16.434759">
        <ele>385.609710</ele>
        <time>2023-12-04T12:50:40.872Z</time>
      </trkpt>
      <trkpt lat="38.834034" lon="16.434502">
        <ele>387.044196</ele>
        <time>2023-12-04T12:50:51.079Z</time>
      </trkpt>
      <trkpt lat="38.833845" lon="16.434103">
        <ele>389.330572</ele>
        <time>2023-12-04T12:51:08.178Z</time>
      </trkpt>
      <trkpt lat="38.833714" lon="16.433874">
        <ele>390.721639</ele>
        <time>2023-12-04T12:51:18.535Z</time>
      </trkpt>
      <trkpt lat="38.833612" lon="16.433756">
        <ele>391.584659</ele>
        <time>2023-12-04T12:51:24.823Z</time>
      </trkpt>
      <trkpt lat="38.833424" lon="16.433640">
        <ele>392.895714</ele>
        <time>2023-12-04T12:51:34.445Z</time>
      </trkpt>
      <trkpt lat="38.832742" lon="16.433325">
        <ele>397.451346</ele>
        <time>2023-12-04T12:52:06.907Z</time>
      </trkpt>
      <trkpt lat="38.832462" lon="16.433285">
        <ele>399.134677</ele>
        <time>2023-12-04T12:52:19.109Z</time>
      </trkpt>
      <trkpt lat="38.832048" lon="16.433314">
        <ele>401.481019</ele>
        <time>2023-12-04T12:52:36.586Z</time>
      </trkpt>
      <trkpt lat="38.831727" lon="16.433304">
        <ele>403.298117</ele>
        <time>2023-12-04T12:52:50.012Z</time>
      </trkpt>
      <trkpt lat="38.831405" lon="16.433233">
        <ele>405.147024</ele>
        <time>2023-12-04T12:53:03.763Z</time>
      </trkpt>
      <trkpt lat="38.831171" lon="16.433131">
        <ele>406.545508</ele>
        <time>2023-12-04T12:53:14.329Z</time>
      </trkpt>
      <trkpt lat="38.830703" lon="16.432763">
        <ele>409.870553</ele>
        <time>2023-12-04T12:53:38.099Z</time>
      </trkpt>
      <trkpt lat="38.830590" lon="16.432609">
        <ele>410.984451</ele>
        <time>2023-12-04T12:53:45.416Z</time>
      </trkpt>
      <trkpt lat="38.830353" lon="16.432159">
        <ele>413.844460</ele>
        <time>2023-12-04T12:54:04.790Z</time>
      </trkpt>
      <trkpt lat="38.830100" lon="16.431875">
        <ele>416.116032</ele>
        <time>2023-12-04T12:54:21.019Z</time>
      </trkpt>
      <trkpt lat="38.830006" lon="16.431823">
        <ele>416.807847</ele>
        <time>2023-12-04T12:54:26.026Z</time>
      </trkpt>
      <trkpt lat="38.829890" lon="16.431811">
        <ele>417.594416</ele>
        <time>2023-12-04T12:54:31.903Z</time>
      </trkpt>
      <trkpt lat="38.829777" lon="16.431834">
        <ele>418.367708</ele>
        <time>2023-12-04T12:54:37.591Z</time>
      </trkpt>
      <trkpt lat="38.829690" lon="16.431886">
        <ele>419.016346</ele>
        <time>2023-12-04T12:54:42.296Z</time>
      </trkpt>
      <trkpt lat="38.829533" lon="16.431638">
        <ele>420.699153</ele>
        <time>2023-12-04T12:54:53.623Z</time>
      </trkpt>
      <trkpt lat="38.829428" lon="16.431447">
        <ele>421.944717</ele>
        <time>2023-12-04T12:55:01.761Z</time>
      </trkpt>
      <trkpt lat="38.829117" lon="16.430910">
        <ele>425.510014</ele>
        <time>2023-12-04T12:55:25.014Z</time>
      </trkpt>
      <trkpt lat="38.828877" lon="16.430599">
        <ele>427.842491</ele>
        <time>2023-12-04T12:55:39.530Z</time>
      </trkpt>
      <trkpt lat="38.828409" lon="16.430212">
        <ele>431.650116</ele>
        <time>2023-12-04T12:56:02.435Z</time>
      </trkpt>
      <trkpt lat="38.828032" lon="16.429938">
        <ele>434.236068</ele>
        <time>2023-12-04T12:56:19.561Z</time>
      </trkpt>
      <trkpt lat="38.827474" lon="16.428647">
        <ele>440.283572</ele>
        <time>2023-12-04T12:57:00.663Z</time>
      </trkpt>
      <trkpt lat="38.827332" lon="16.428401">
        <ele>441.537698</ele>
        <time>2023-12-04T12:57:08.567Z</time>
      </trkpt>
      <trkpt lat="38.827144" lon="16.428180">
        <ele>442.838122</ele>
        <time>2023-12-04T12:57:16.911Z</time>
      </trkpt>
      <trkpt lat="38.826733" lon="16.427814">
        <ele>445.228747</ele>
        <time>2023-12-04T12:57:33.440Z</time>
      </trkpt>
      <trkpt lat="38.826619" lon="16.427669">
        <ele>445.995742</ele>
        <time>2023-12-04T12:57:38.810Z</time>
      </trkpt>
      <trkpt lat="38.826343" lon="16.427280">
        <ele>447.954699</ele>
        <time>2023-12-04T12:57:52.749Z</time>
      </trkpt>
      <trkpt lat="38.825992" lon="16.426913">
        <ele>450.118269</ele>
        <time>2023-12-04T12:58:08.411Z</time>
      </trkpt>
      <trkpt lat="38.825638" lon="16.426601">
        <ele>452.033338</ele>
        <time>2023-12-04T12:58:23.616Z</time>
      </trkpt>
      <trkpt lat="38.825372" lon="16.426341">
        <ele>453.438138</ele>
        <time>2023-12-04T12:58:34.724Z</time>
      </trkpt>
      <trkpt lat="38.825310" lon="16.426267">
        <ele>453.793860</ele>
        <time>2023-12-04T12:58:37.578Z</time>
      </trkpt>
      <trkpt lat="38.824460" lon="16.425468">
        <ele>458.220556</ele>
        <time>2023-12-04T12:59:09.562Z</time>
      </trkpt>
      <trkpt lat="38.823697" lon="16.424750">
        <ele>462.017780</ele>
        <time>2023-12-04T12:59:37.620Z</time>
      </trkpt>
      <trkpt lat="38.823645" lon="16.424680">
        <ele>462.318757</ele>
        <time>2023-12-04T12:59:39.908Z</time>
      </trkpt>
      <trkpt lat="38.823612" lon="16.424460">
        <ele>463.015929</ele>
        <time>2023-12-04T12:59:45.169Z</time>
      </trkpt>
      <trkpt lat="38.823585" lon="16.423927">
        <ele>464.678027</ele>
        <time>2023-12-04T12:59:57.742Z</time>
      </trkpt>
      <trkpt lat="38.823608" lon="16.423248">
        <ele>467.244600</ele>
        <time>2023-12-04T13:00:14.980Z</time>
      </trkpt>
      <trkpt lat="38.823607" lon="16.423206">
        <ele>467.433476</ele>
        <time>2023-12-04T13:00:16.132Z</time>
      </trkpt>
      <trkpt lat="38.823606" lon="16.422948">
        <ele>468.593190</ele>
        <time>2023-12-04T13:00:23.204Z</time>
      </trkpt>
      <trkpt lat="38.823624" lon="16.422728">
        <ele>469.587519</ele>
        <time>2023-12-04T13:00:29.728Z</time>
      </trkpt>
      <trkpt lat="38.823786" lon="16.422156">
        <ele>472.323251</ele>
        <time>2023-12-04T13:00:48.470Z</time>
      </trkpt>
      <trkpt lat="38.824084" lon="16.421055">
        <ele>477.728957</ele>
        <time>2023-12-04T13:01:25.233Z</time>
      </trkpt>
      <trkpt lat="38.824126" lon="16.420890">
        <ele>478.601530</ele>
        <time>2023-12-04T13:01:30.977Z</time>
      </trkpt>
      <trkpt lat="38.824224" lon="16.420503">
        <ele>480.647091</ele>
        <time>2023-12-04T13:01:44.305Z</time>
      </trkpt>
      <trkpt lat="38.824477" lon="16.419662">
        <ele>485.178855</ele>
        <time>2023-12-04T13:02:13.064Z</time>
      </trkpt>
      <trkpt lat="38.824816" lon="16.418575">
        <ele>490.323920</ele>
        <time>2023-12-04T13:02:49.281Z</time>
      </trkpt>
      <trkpt lat="38.824671" lon="16.418345">
        <ele>491.477927</ele>
        <time>2023-12-04T13:02:57.839Z</time>
      </trkpt>
      <trkpt lat="38.824439" lon="16.417685">
        <ele>494.302065</ele>
        <time>2023-12-04T13:03:17.872Z</time>
      </trkpt>
      <trkpt lat="38.824228" lon="16.417330">
        <ele>496.043643</ele>
        <time>2023-12-04T13:03:28.892Z</time>
      </trkpt>
      <trkpt lat="38.823786" lon="16.417037">
        <ele>497.108359</ele>
        <time>2023-12-04T13:03:42.245Z</time>
      </trkpt>
      <trkpt lat="38.823132" lon="16.416861">
        <ele>497.758600</ele>
        <time>2023-12-04T13:03:56.282Z</time>
      </trkpt>
      <trkpt lat="38.822736" lon="16.416916">
        <ele>498.146195</ele>
        <time>2023-12-04T13:04:02.338Z</time>
      </trkpt>
      <trkpt lat="38.822736" lon="16.416916">
        <ele>498.146195</ele>
        <time>2023-12-04T13:04:02.345Z</time>
      </trkpt>
      <trkpt lat="38.822204" lon="16.417152">
        <ele>498.617692</ele>
        <time>2023-12-04T13:04:08.943Z</time>
      </trkpt>
      <trkpt lat="38.821882" lon="16.417416">
        <ele>498.831421</ele>
        <time>2023-12-04T13:04:12.940Z</time>
      </trkpt>
      <trkpt lat="38.821171" lon="16.418190">
        <ele>499.352921</ele>
        <time>2023-12-04T13:04:26.986Z</time>
      </trkpt>
      <trkpt lat="38.820749" lon="16.418710">
        <ele>501.993949</ele>
        <time>2023-12-04T13:04:45.048Z</time>
      </trkpt>
      <trkpt lat="38.820832" lon="16.417786">
        <ele>508.282675</ele>
        <time>2023-12-04T13:05:22.185Z</time>
      </trkpt>
      <trkpt lat="38.820816" lon="16.417118">
        <ele>512.801282</ele>
        <time>2023-12-04T13:05:55.590Z</time>
      </trkpt>
      <trkpt lat="38.820761" lon="16.416615">
        <ele>516.808389</ele>
        <time>2023-12-04T13:06:24.636Z</time>
      </trkpt>
      <trkpt lat="38.820512" lon="16.416504">
        <ele>520.280772</ele>
        <time>2023-12-04T13:06:45.050Z</time>
      </trkpt>
      <trkpt lat="38.820348" lon="16.416504">
        <ele>522.441208</ele>
        <time>2023-12-04T13:06:57.363Z</time>
      </trkpt>
      <trkpt lat="38.820156" lon="16.416616">
        <ele>525.219466</ele>
        <time>2023-12-04T13:07:13.305Z</time>
      </trkpt>
      <trkpt lat="38.819946" lon="16.416692">
        <ele>528.093747</ele>
        <time>2023-12-04T13:07:29.371Z</time>
      </trkpt>
      <trkpt lat="38.819723" lon="16.416728">
        <ele>531.054559</ele>
        <time>2023-12-04T13:07:45.788Z</time>
      </trkpt>
      <trkpt lat="38.819335" lon="16.416961">
        <ele>536.697621</ele>
        <time>2023-12-04T13:08:16.684Z</time>
      </trkpt>
      <trkpt lat="38.819233" lon="16.416988">
        <ele>538.069585</ele>
        <time>2023-12-04T13:08:24.169Z</time>
      </trkpt>
      <trkpt lat="38.818632" lon="16.416593">
        <ele>547.279622</ele>
        <time>2023-12-04T13:09:12.439Z</time>
      </trkpt>
      <trkpt lat="38.817654" lon="16.416199">
        <ele>561.305746</ele>
        <time>2023-12-04T13:10:31.023Z</time>
      </trkpt>
      <trkpt lat="38.817392" lon="16.415948">
        <ele>565.733774</ele>
        <time>2023-12-04T13:10:56.790Z</time>
      </trkpt>
      <trkpt lat="38.817155" lon="16.415620">
        <ele>570.410161</ele>
        <time>2023-12-04T13:11:23.846Z</time>
      </trkpt>
      <trkpt lat="38.816871" lon="16.415042">
        <ele>577.553672</ele>
        <time>2023-12-04T13:12:03.292Z</time>
      </trkpt>
      <trkpt lat="38.816725" lon="16.414683">
        <ele>581.787116</ele>
        <time>2023-12-04T13:12:25.680Z</time>
      </trkpt>
      <trkpt lat="38.816654" lon="16.414161">
        <ele>587.326615</ele>
        <time>2023-12-04T13:12:55.342Z</time>
      </trkpt>
      <trkpt lat="38.816599" lon="16.414095">
        <ele>588.247714</ele>
        <time>2023-12-04T13:13:00.613Z</time>
      </trkpt>
      <trkpt lat="38.816386" lon="16.414078">
        <ele>590.779143</ele>
        <time>2023-12-04T13:13:16.078Z</time>
      </trkpt>
      <trkpt lat="38.816075" lon="16.414118">
        <ele>594.486620</ele>
        <time>2023-12-04T13:13:38.068Z</time>
      </trkpt>
      <trkpt lat="38.815970" lon="16.414078">
        <ele>595.785810</ele>
        <time>2023-12-04T13:13:45.528Z</time>
      </trkpt>
      <trkpt lat="38.815893" lon="16.413943">
        <ele>597.332087</ele>
        <time>2023-12-04T13:13:54.225Z</time>
      </trkpt>
      <trkpt lat="38.815846" lon="16.413711">
        <ele>599.547578</ele>
        <time>2023-12-04T13:14:07.039Z</time>
      </trkpt>
      <trkpt lat="38.815851" lon="16.412983">
        <ele>606.276191</ele>
        <time>2023-12-04T13:14:44.191Z</time>
      </trkpt>
      <trkpt lat="38.815806" lon="16.412562">
        <ele>610.016910</ele>
        <time>2023-12-04T13:15:05.597Z</time>
      </trkpt>
      <trkpt lat="38.815533" lon="16.411042">
        <ele>622.364255</ele>
        <time>2023-12-04T13:16:23.411Z</time>
      </trkpt>
      <trkpt lat="38.815533" lon="16.411042">
        <ele>622.364255</ele>
        <time>2023-12-04T13:16:23.427Z</time>
      </trkpt>
      <trkpt lat="38.815390" lon="16.410728">
        <ele>625.243208</ele>
        <time>2023-12-04T13:16:39.605Z</time>
      </trkpt>
      <trkpt lat="38.815233" lon="16.410463">
        <ele>627.601600</ele>
        <time>2023-12-04T13:16:53.539Z</time>
      </trkpt>
      <trkpt lat="38.814922" lon="16.409665">
        <ele>631.883051</ele>
        <time>2023-12-04T13:17:27.401Z</time>
      </trkpt>
      <trkpt lat="38.814597" lon="16.409010">
        <ele>635.609233</ele>
        <time>2023-12-04T13:17:52.864Z</time>
      </trkpt>
      <trkpt lat="38.814513" lon="16.408907">
        <ele>636.324694</ele>
        <time>2023-12-04T13:17:57.493Z</time>
      </trkpt>
      <trkpt lat="38.814485" lon="16.408835">
        <ele>636.710827</ele>
        <time>2023-12-04T13:17:59.903Z</time>
      </trkpt>
      <trkpt lat="38.814513" lon="16.408736">
        <ele>637.216207</ele>
        <time>2023-12-04T13:18:03.067Z</time>
      </trkpt>
      <trkpt lat="38.813264" lon="16.407363">
        <ele>643.983469</ele>
        <time>2023-12-04T13:18:54.194Z</time>
      </trkpt>
      <trkpt lat="38.813004" lon="16.406887">
        <ele>645.673530</ele>
        <time>2023-12-04T13:19:06.442Z</time>
      </trkpt>
      <trkpt lat="38.812908" lon="16.406459">
        <ele>646.839178</ele>
        <time>2023-12-04T13:19:15.515Z</time>
      </trkpt>
      <trkpt lat="38.812830" lon="16.406253">
        <ele>647.438606</ele>
        <time>2023-12-04T13:19:20.050Z</time>
      </trkpt>
      <trkpt lat="38.812734" lon="16.406130">
        <ele>647.894241</ele>
        <time>2023-12-04T13:19:23.529Z</time>
      </trkpt>
      <trkpt lat="38.812432" lon="16.405989">
        <ele>648.973653</ele>
        <time>2023-12-04T13:19:31.632Z</time>
      </trkpt>
      <trkpt lat="38.812190" lon="16.405825">
        <ele>649.892861</ele>
        <time>2023-12-04T13:19:38.974Z</time>
      </trkpt>
      <trkpt lat="38.812030" lon="16.405602">
        <ele>650.686242</ele>
        <time>2023-12-04T13:19:45.973Z</time>
      </trkpt>
      <trkpt lat="38.811549" lon="16.404715">
        <ele>656.005152</ele>
        <time>2023-12-04T13:20:15.589Z</time>
      </trkpt>
      <trkpt lat="38.811453" lon="16.404528">
        <ele>657.243382</ele>
        <time>2023-12-04T13:20:22.895Z</time>
      </trkpt>
      <trkpt lat="38.811408" lon="16.404363">
        <ele>658.209999</ele>
        <time>2023-12-04T13:20:28.778Z</time>
      </trkpt>
      <trkpt lat="38.811472" lon="16.404222">
        <ele>659.112273</ele>
        <time>2023-12-04T13:20:34.693Z</time>
      </trkpt>
      <trkpt lat="38.811568" lon="16.403706">
        <ele>662.045630</ele>
        <time>2023-12-04T13:20:54.964Z</time>
      </trkpt>
      <trkpt lat="38.811517" lon="16.403178">
        <ele>665.321958</ele>
        <time>2023-12-04T13:21:16.894Z</time>
      </trkpt>
      <trkpt lat="38.811279" lon="16.402268">
        <ele>672.502378</ele>
        <time>2023-12-04T13:21:59.885Z</time>
      </trkpt>
      <trkpt lat="38.811266" lon="16.401962">
        <ele>674.794799</ele>
        <time>2023-12-04T13:22:13.416Z</time>
      </trkpt>
      <trkpt lat="38.810973" lon="16.400689">
        <ele>683.770928</ele>
        <time>2023-12-04T13:23:05.413Z</time>
      </trkpt>
      <trkpt lat="38.810909" lon="16.400501">
        <ele>684.877553</ele>
        <time>2023-12-04T13:23:12.466Z</time>
      </trkpt>
      <trkpt lat="38.810799" lon="16.400442">
        <ele>685.702838</ele>
        <time>2023-12-04T13:23:17.588Z</time>
      </trkpt>
      <trkpt lat="38.810685" lon="16.400442">
        <ele>686.491984</ele>
        <time>2023-12-04T13:23:22.446Z</time>
      </trkpt>
      <trkpt lat="38.809340" lon="16.401346">
        <ele>696.751112</ele>
        <time>2023-12-04T13:24:21.568Z</time>
      </trkpt>
      <trkpt lat="38.808860" lon="16.401405">
        <ele>699.830788</ele>
        <time>2023-12-04T13:24:40.356Z</time>
      </trkpt>
      <trkpt lat="38.808622" lon="16.401511">
        <ele>701.439779</ele>
        <time>2023-12-04T13:24:50.518Z</time>
      </trkpt>
      <trkpt lat="38.808380" lon="16.401675">
        <ele>703.187651</ele>
        <time>2023-12-04T13:25:01.847Z</time>
      </trkpt>
      <trkpt lat="38.808219" lon="16.401716">
        <ele>704.235970</ele>
        <time>2023-12-04T13:25:08.592Z</time>
      </trkpt>
      <trkpt lat="38.807296" lon="16.401610">
        <ele>711.309618</ele>
        <time>2023-12-04T13:25:49.279Z</time>
      </trkpt>
      <trkpt lat="38.807039" lon="16.401610">
        <ele>713.337193</ele>
        <time>2023-12-04T13:26:01.315Z</time>
      </trkpt>
      <trkpt lat="38.806445" lon="16.401687">
        <ele>718.047344</ele>
        <time>2023-12-04T13:26:29.962Z</time>
      </trkpt>
      <trkpt lat="38.806225" lon="16.401646">
        <ele>719.925449</ele>
        <time>2023-12-04T13:26:40.936Z</time>
      </trkpt>
      <trkpt lat="38.805919" lon="16.401464">
        <ele>723.489115</ele>
        <time>2023-12-04T13:26:58.240Z</time>
      </trkpt>
      <trkpt lat="38.805454" lon="16.401337">
        <ele>728.512453</ele>
        <time>2023-12-04T13:27:24.363Z</time>
      </trkpt>
      <trkpt lat="38.805169" lon="16.401422">
        <ele>731.604087</ele>
        <time>2023-12-04T13:27:41.447Z</time>
      </trkpt>
      <trkpt lat="38.804963" lon="16.401528">
        <ele>733.949201</ele>
        <time>2023-12-04T13:27:54.625Z</time>
      </trkpt>
      <trkpt lat="38.804827" lon="16.401503">
        <ele>735.400876</ele>
        <time>2023-12-04T13:28:03.601Z</time>
      </trkpt>
      <trkpt lat="38.804322" lon="16.401111">
        <ele>742.149027</ele>
        <time>2023-12-04T13:28:41.630Z</time>
      </trkpt>
      <trkpt lat="38.803536" lon="16.401053">
        <ele>751.799712</ele>
        <time>2023-12-04T13:29:32.394Z</time>
      </trkpt>
      <trkpt lat="38.803380" lon="16.400971">
        <ele>753.866173</ele>
        <time>2023-12-04T13:29:43.340Z</time>
      </trkpt>
      <trkpt lat="38.803311" lon="16.400783">
        <ele>755.851276</ele>
        <time>2023-12-04T13:29:53.596Z</time>
      </trkpt>
      <trkpt lat="38.803298" lon="16.400560">
        <ele>757.987471</ele>
        <time>2023-12-04T13:30:04.449Z</time>
      </trkpt>
      <trkpt lat="38.803408" lon="16.400254">
        <ele>761.212359</ele>
        <time>2023-12-04T13:30:20.679Z</time>
      </trkpt>
      <trkpt lat="38.804411" lon="16.399200">
        <ele>777.231250</ele>
        <time>2023-12-04T13:31:43.971Z</time>
      </trkpt>
      <trkpt lat="38.804422" lon="16.399129">
        <ele>777.928303</ele>
        <time>2023-12-04T13:31:47.718Z</time>
      </trkpt>
      <trkpt lat="38.804407" lon="16.399072">
        <ele>778.507618</ele>
        <time>2023-12-04T13:31:50.846Z</time>
      </trkpt>
      <trkpt lat="38.804325" lon="16.399018">
        <ele>779.646476</ele>
        <time>2023-12-04T13:31:56.859Z</time>
      </trkpt>
      <trkpt lat="38.804196" lon="16.399014">
        <ele>781.240914</ele>
        <time>2023-12-04T13:32:05.089Z</time>
      </trkpt>
      <trkpt lat="38.804002" lon="16.399081">
        <ele>783.698528</ele>
        <time>2023-12-04T13:32:18.223Z</time>
      </trkpt>
      <trkpt lat="38.803202" lon="16.399186">
        <ele>793.391214</ele>
        <time>2023-12-04T13:33:11.149Z</time>
      </trkpt>
      <trkpt lat="38.802900" lon="16.399427">
        <ele>797.677695</ele>
        <time>2023-12-04T13:33:34.874Z</time>
      </trkpt>
      <trkpt lat="38.802644" lon="16.399491">
        <ele>800.821271</ele>
        <time>2023-12-04T13:33:51.631Z</time>
      </trkpt>
      <trkpt lat="38.802401" lon="16.399615">
        <ele>803.973239</ele>
        <time>2023-12-04T13:34:07.255Z</time>
      </trkpt>
      <trkpt lat="38.802195" lon="16.399656">
        <ele>805.511535</ele>
        <time>2023-12-04T13:34:18.852Z</time>
      </trkpt>
      <trkpt lat="38.802017" lon="16.399802">
        <ele>806.873343</ele>
        <time>2023-12-04T13:34:29.643Z</time>
      </trkpt>
      <trkpt lat="38.801811" lon="16.399861">
        <ele>808.233934</ele>
        <time>2023-12-04T13:34:39.426Z</time>
      </trkpt>
      <trkpt lat="38.801601" lon="16.399756">
        <ele>809.686772</ele>
        <time>2023-12-04T13:34:49.015Z</time>
      </trkpt>
      <trkpt lat="38.800992" lon="16.399761">
        <ele>813.612581</ele>
        <time>2023-12-04T13:35:10.856Z</time>
      </trkpt>
      <trkpt lat="38.799777" lon="16.400249">
        <ele>818.654604</ele>
        <time>2023-12-04T13:35:44.241Z</time>
      </trkpt>
      <trkpt lat="38.799587" lon="16.400261">
        <ele>819.215606</ele>
        <time>2023-12-04T13:35:48.698Z</time>
      </trkpt>
      <trkpt lat="38.798737" lon="16.399761">
        <ele>822.430580</ele>
        <time>2023-12-04T13:36:12.546Z</time>
      </trkpt>
      <trkpt lat="38.798449" lon="16.399675">
        <ele>823.886525</ele>
        <time>2023-12-04T13:36:21.865Z</time>
      </trkpt>
      <trkpt lat="38.798060" lon="16.399660">
        <ele>825.802742</ele>
        <time>2023-12-04T13:36:35.306Z</time>
      </trkpt>
      <trkpt lat="38.797705" lon="16.399735">
        <ele>827.574221</ele>
        <time>2023-12-04T13:36:48.647Z</time>
      </trkpt>
      <trkpt lat="38.797336" lon="16.399932">
        <ele>829.542097</ele>
        <time>2023-12-04T13:37:04.520Z</time>
      </trkpt>
      <trkpt lat="38.796927" lon="16.400208">
        <ele>831.951190</ele>
        <time>2023-12-04T13:37:23.797Z</time>
      </trkpt>
      <trkpt lat="38.795847" lon="16.400679">
        <ele>838.017081</ele>
        <time>2023-12-04T13:38:07.173Z</time>
      </trkpt>
      <trkpt lat="38.795512" lon="16.400926">
        <ele>839.763606</ele>
        <time>2023-12-04T13:38:19.044Z</time>
      </trkpt>
      <trkpt lat="38.795059" lon="16.401628">
        <ele>840.314462</ele>
        <time>2023-12-04T13:38:35.592Z</time>
      </trkpt>
      <trkpt lat="38.794862" lon="16.401783">
        <ele>840.493673</ele>
        <time>2023-12-04T13:38:39.333Z</time>
      </trkpt>
      <trkpt lat="38.794759" lon="16.401817">
        <ele>840.576150</ele>
        <time>2023-12-04T13:38:40.931Z</time>
      </trkpt>
      <trkpt lat="38.794648" lon="16.401757">
        <ele>840.669558</ele>
        <time>2023-12-04T13:38:42.505Z</time>
      </trkpt>
      <trkpt lat="38.794277" lon="16.401424">
        <ele>841.020681</ele>
        <time>2023-12-04T13:38:47.964Z</time>
      </trkpt>
      <trkpt lat="38.793760" lon="16.400642">
        <ele>838.615866</ele>
        <time>2023-12-04T13:38:56.633Z</time>
      </trkpt>
      <trkpt lat="38.793664" lon="16.400624">
        <ele>838.265456</ele>
        <time>2023-12-04T13:38:57.614Z</time>
      </trkpt>
      <trkpt lat="38.793504" lon="16.400706">
        <ele>837.643181</ele>
        <time>2023-12-04T13:38:59.334Z</time>
      </trkpt>
      <trkpt lat="38.792923" lon="16.401230">
        <ele>835.078184</ele>
        <time>2023-12-04T13:39:06.062Z</time>
      </trkpt>
      <trkpt lat="38.792655" lon="16.401358">
        <ele>833.689929</ele>
        <time>2023-12-04T13:39:08.722Z</time>
      </trkpt>
      <trkpt lat="38.792493" lon="16.401317">
        <ele>832.717915</ele>
        <time>2023-12-04T13:39:10.245Z</time>
      </trkpt>
      <trkpt lat="38.792331" lon="16.401118">
        <ele>831.397657</ele>
        <time>2023-12-04T13:39:12.317Z</time>
      </trkpt>
      <trkpt lat="38.792128" lon="16.400785">
        <ele>829.457970</ele>
        <time>2023-12-04T13:39:15.349Z</time>
      </trkpt>
      <trkpt lat="38.791887" lon="16.400745">
        <ele>828.027465</ele>
        <time>2023-12-04T13:39:17.561Z</time>
      </trkpt>
      <trkpt lat="38.791628" lon="16.400830">
        <ele>826.453732</ele>
        <time>2023-12-04T13:39:19.990Z</time>
      </trkpt>
      <trkpt lat="38.791301" lon="16.401026">
        <ele>824.329089</ele>
        <time>2023-12-04T13:39:23.269Z</time>
      </trkpt>
      <trkpt lat="38.790915" lon="16.401348">
        <ele>822.342846</ele>
        <time>2023-12-04T13:39:27.498Z</time>
      </trkpt>
      <trkpt lat="38.790858" lon="16.401305">
        <ele>822.070896</ele>
        <time>2023-12-04T13:39:28.126Z</time>
      </trkpt>
      <trkpt lat="38.790862" lon="16.401210">
        <ele>821.765916</ele>
        <time>2023-12-04T13:39:28.826Z</time>
      </trkpt>
      <trkpt lat="38.791155" lon="16.400735">
        <ele>819.824098</ele>
        <time>2023-12-04T13:39:33.444Z</time>
      </trkpt>
      <trkpt lat="38.791140" lon="16.400635">
        <ele>819.497653</ele>
        <time>2023-12-04T13:39:34.263Z</time>
      </trkpt>
      <trkpt lat="38.791078" lon="16.400598">
        <ele>819.216427</ele>
        <time>2023-12-04T13:39:34.977Z</time>
      </trkpt>
      <trkpt lat="38.791014" lon="16.400638">
        <ele>818.923639</ele>
        <time>2023-12-04T13:39:35.721Z</time>
      </trkpt>
      <trkpt lat="38.790745" lon="16.401053">
        <ele>817.193386</ele>
        <time>2023-12-04T13:39:40.189Z</time>
      </trkpt>
      <trkpt lat="38.790580" lon="16.401185">
        <ele>816.389486</ele>
        <time>2023-12-04T13:39:42.246Z</time>
      </trkpt>
      <trkpt lat="38.789725" lon="16.401687">
        <ele>812.452282</ele>
        <time>2023-12-04T13:39:51.607Z</time>
      </trkpt>
      <trkpt lat="38.789571" lon="16.401732">
        <ele>811.790929</ele>
        <time>2023-12-04T13:39:53.130Z</time>
      </trkpt>
      <trkpt lat="38.789386" lon="16.401738">
        <ele>811.016037</ele>
        <time>2023-12-04T13:39:54.890Z</time>
      </trkpt>
      <trkpt lat="38.789238" lon="16.401631">
        <ele>810.304696</ele>
        <time>2023-12-04T13:39:56.490Z</time>
      </trkpt>
      <trkpt lat="38.788877" lon="16.400668">
        <ele>805.460789</ele>
        <time>2023-12-04T13:40:04.175Z</time>
      </trkpt>
      <trkpt lat="38.788775" lon="16.400543">
        <ele>804.518148</ele>
        <time>2023-12-04T13:40:05.437Z</time>
      </trkpt>
      <trkpt lat="38.788704" lon="16.400523">
        <ele>804.032375</ele>
        <time>2023-12-04T13:40:06.090Z</time>
      </trkpt>
      <trkpt lat="38.788372" lon="16.400683">
        <ele>801.662349</ele>
        <time>2023-12-04T13:40:09.244Z</time>
      </trkpt>
      <trkpt lat="38.787864" lon="16.401034">
        <ele>797.806505</ele>
        <time>2023-12-04T13:40:14.384Z</time>
      </trkpt>
      <trkpt lat="38.787574" lon="16.401169">
        <ele>796.161670</ele>
        <time>2023-12-04T13:40:17.169Z</time>
      </trkpt>
      <trkpt lat="38.787355" lon="16.401089">
        <ele>795.117491</ele>
        <time>2023-12-04T13:40:19.246Z</time>
      </trkpt>
      <trkpt lat="38.787181" lon="16.400716">
        <ele>793.563709</ele>
        <time>2023-12-04T13:40:22.372Z</time>
      </trkpt>
      <trkpt lat="38.787051" lon="16.400646">
        <ele>792.917192</ele>
        <time>2023-12-04T13:40:23.678Z</time>
      </trkpt>
      <trkpt lat="38.786330" lon="16.400939">
        <ele>789.449013</ele>
        <time>2023-12-04T13:40:31.099Z</time>
      </trkpt>
      <trkpt lat="38.785918" lon="16.400772">
        <ele>789.364800</ele>
        <time>2023-12-04T13:40:36.137Z</time>
      </trkpt>
      <trkpt lat="38.785564" lon="16.400750">
        <ele>790.010983</ele>
        <time>2023-12-04T13:40:42.107Z</time>
      </trkpt>
      <trkpt lat="38.785220" lon="16.400751">
        <ele>790.638179</ele>
        <time>2023-12-04T13:40:49.928Z</time>
      </trkpt>
      <trkpt lat="38.784971" lon="16.400659">
        <ele>791.110619</ele>
        <time>2023-12-04T13:40:57.149Z</time>
      </trkpt>
      <trkpt lat="38.784843" lon="16.400519">
        <ele>791.417299</ele>
        <time>2023-12-04T13:41:02.076Z</time>
      </trkpt>
      <trkpt lat="38.784765" lon="16.400290">
        <ele>791.772473</ele>
        <time>2023-12-04T13:41:08.396Z</time>
      </trkpt>
      <trkpt lat="38.784765" lon="16.399943">
        <ele>792.558067</ele>
        <time>2023-12-04T13:41:17.656Z</time>
      </trkpt>
      <trkpt lat="38.784793" lon="16.399615">
        <ele>793.877768</ele>
        <time>2023-12-04T13:41:26.967Z</time>
      </trkpt>
      <trkpt lat="38.784761" lon="16.399368">
        <ele>794.879212</ele>
        <time>2023-12-04T13:41:34.426Z</time>
      </trkpt>
      <trkpt lat="38.784651" lon="16.399180">
        <ele>795.819388</ele>
        <time>2023-12-04T13:41:41.328Z</time>
      </trkpt>
      <trkpt lat="38.784427" lon="16.399039">
        <ele>797.099612</ele>
        <time>2023-12-04T13:41:50.538Z</time>
      </trkpt>
      <trkpt lat="38.784024" lon="16.399022">
        <ele>799.168487</ele>
        <time>2023-12-04T13:42:04.790Z</time>
      </trkpt>
      <trkpt lat="38.783017" lon="16.399310">
        <ele>804.533566</ele>
        <time>2023-12-04T13:42:40.254Z</time>
      </trkpt>
      <trkpt lat="38.782217" lon="16.399368">
        <ele>808.738668</ele>
        <time>2023-12-04T13:43:09.506Z</time>
      </trkpt>
      <trkpt lat="38.781750" lon="16.399491">
        <ele>811.150928</ele>
        <time>2023-12-04T13:43:27.360Z</time>
      </trkpt>
      <trkpt lat="38.781320" lon="16.399532">
        <ele>812.980358</ele>
        <time>2023-12-04T13:43:43.332Z</time>
      </trkpt>
      <trkpt lat="38.780533" lon="16.399262">
        <ele>816.436782</ele>
        <time>2023-12-04T13:44:11.392Z</time>
      </trkpt>
      <trkpt lat="38.779718" lon="16.398593">
        <ele>818.676798</ele>
        <time>2023-12-04T13:44:33.462Z</time>
      </trkpt>
      <trkpt lat="38.779430" lon="16.398488">
        <ele>818.839057</ele>
        <time>2023-12-04T13:44:37.834Z</time>
      </trkpt>
      <trkpt lat="38.779188" lon="16.398470">
        <ele>818.970426</ele>
        <time>2023-12-04T13:44:41.090Z</time>
      </trkpt>
      <trkpt lat="38.778771" lon="16.398611">
        <ele>819.204133</ele>
        <time>2023-12-04T13:44:46.806Z</time>
      </trkpt>
      <trkpt lat="38.778469" lon="16.398675">
        <ele>819.370016</ele>
        <time>2023-12-04T13:44:51.135Z</time>
      </trkpt>
      <trkpt lat="38.778098" lon="16.398570">
        <ele>819.973229</ele>
        <time>2023-12-04T13:44:56.886Z</time>
      </trkpt>
      <trkpt lat="38.777732" lon="16.398200">
        <ele>820.733832</ele>
        <time>2023-12-04T13:45:04.681Z</time>
      </trkpt>
      <trkpt lat="38.777380" lon="16.397748">
        <ele>821.546772</ele>
        <time>2023-12-04T13:45:15.377Z</time>
      </trkpt>
      <trkpt lat="38.777046" lon="16.397255">
        <ele>822.466471</ele>
        <time>2023-12-04T13:45:29.870Z</time>
      </trkpt>
      <trkpt lat="38.776753" lon="16.396991">
        <ele>823.863666</ele>
        <time>2023-12-04T13:45:42.021Z</time>
      </trkpt>
      <trkpt lat="38.776323" lon="16.396721">
        <ele>825.731823</ele>
        <time>2023-12-04T13:45:58.497Z</time>
      </trkpt>
      <trkpt lat="38.775760" lon="16.396557">
        <ele>827.984651</ele>
        <time>2023-12-04T13:46:16.883Z</time>
      </trkpt>
      <trkpt lat="38.775316" lon="16.396375">
        <ele>829.437465</ele>
        <time>2023-12-04T13:46:29.717Z</time>
      </trkpt>
      <trkpt lat="38.774593" lon="16.395658">
        <ele>830.231227</ele>
        <time>2023-12-04T13:46:48.822Z</time>
      </trkpt>
      <trkpt lat="38.774094" lon="16.395306">
        <ele>830.725855</ele>
        <time>2023-12-04T13:46:56.477Z</time>
      </trkpt>
      <trkpt lat="38.773792" lon="16.395201">
        <ele>830.891537</ele>
        <time>2023-12-04T13:47:00.182Z</time>
      </trkpt>
      <trkpt lat="38.772832" lon="16.395242">
        <ele>830.864356</ele>
        <time>2023-12-04T13:47:12.009Z</time>
      </trkpt>
      <trkpt lat="38.772049" lon="16.395077">
        <ele>831.165213</ele>
        <time>2023-12-04T13:47:25.703Z</time>
      </trkpt>
      <trkpt lat="38.771344" lon="16.394379">
        <ele>835.048322</ele>
        <time>2023-12-04T13:47:50.269Z</time>
      </trkpt>
      <trkpt lat="38.770717" lon="16.394115">
        <ele>837.925636</ele>
        <time>2023-12-04T13:48:14.730Z</time>
      </trkpt>
      <trkpt lat="38.768974" lon="16.393616">
        <ele>851.487148</ele>
        <time>2023-12-04T13:49:39.488Z</time>
      </trkpt>
      <trkpt lat="38.768379" lon="16.393311">
        <ele>856.081752</ele>
        <time>2023-12-04T13:50:10.566Z</time>
      </trkpt>
      <trkpt lat="38.767916" lon="16.393023">
        <ele>859.607347</ele>
        <time>2023-12-04T13:50:33.579Z</time>
      </trkpt>
      <trkpt lat="38.767500" lon="16.392835">
        <ele>862.629298</ele>
        <time>2023-12-04T13:50:51.846Z</time>
      </trkpt>
      <trkpt lat="38.767116" lon="16.392735">
        <ele>865.304427</ele>
        <time>2023-12-04T13:51:06.404Z</time>
      </trkpt>
      <trkpt lat="38.766237" lon="16.392653">
        <ele>867.860185</ele>
        <time>2023-12-04T13:51:32.852Z</time>
      </trkpt>
      <trkpt lat="38.765853" lon="16.392571">
        <ele>868.989081</ele>
        <time>2023-12-04T13:51:42.467Z</time>
      </trkpt>
      <trkpt lat="38.765225" lon="16.392360">
        <ele>870.453966</ele>
        <time>2023-12-04T13:51:55.834Z</time>
      </trkpt>
      <trkpt lat="38.764333" lon="16.392360">
        <ele>870.025180</ele>
        <time>2023-12-04T13:52:08.171Z</time>
      </trkpt>
      <trkpt lat="38.764072" lon="16.392278">
        <ele>869.896007</ele>
        <time>2023-12-04T13:52:11.313Z</time>
      </trkpt>
      <trkpt lat="38.761642" lon="16.390822">
        <ele>868.965664</ele>
        <time>2023-12-04T13:52:42.320Z</time>
      </trkpt>
      <trkpt lat="38.761225" lon="16.390716">
        <ele>870.728197</ele>
        <time>2023-12-04T13:52:54.808Z</time>
      </trkpt>
      <trkpt lat="38.760141" lon="16.390857">
        <ele>875.436019</ele>
        <time>2023-12-04T13:53:39.449Z</time>
      </trkpt>
      <trkpt lat="38.759564" lon="16.391063">
        <ele>879.258875</ele>
        <time>2023-12-04T13:54:08.482Z</time>
      </trkpt>
      <trkpt lat="38.758891" lon="16.391203">
        <ele>883.610562</ele>
        <time>2023-12-04T13:54:37.485Z</time>
      </trkpt>
      <trkpt lat="38.758062" lon="16.391525">
        <ele>886.956534</ele>
        <time>2023-12-04T13:55:04.997Z</time>
      </trkpt>
      <trkpt lat="38.757023" lon="16.392271">
        <ele>888.560579</ele>
        <time>2023-12-04T13:55:25.936Z</time>
      </trkpt>
      <trkpt lat="38.755443" lon="16.393622">
        <ele>886.283492</ele>
        <time>2023-12-04T13:55:47.592Z</time>
      </trkpt>
      <trkpt lat="38.755202" lon="16.393801">
        <ele>885.909166</ele>
        <time>2023-12-04T13:55:50.657Z</time>
      </trkpt>
      <trkpt lat="38.754843" lon="16.393880">
        <ele>885.434447</ele>
        <time>2023-12-04T13:55:54.651Z</time>
      </trkpt>
      <trkpt lat="38.754447" lon="16.393815">
        <ele>884.914134</ele>
        <time>2023-12-04T13:55:59.202Z</time>
      </trkpt>
      <trkpt lat="38.753997" lon="16.393486">
        <ele>884.239028</ele>
        <time>2023-12-04T13:56:05.561Z</time>
      </trkpt>
      <trkpt lat="38.753565" lon="16.393096">
        <ele>883.637490</ele>
        <time>2023-12-04T13:56:12.703Z</time>
      </trkpt>
      <trkpt lat="38.752961" lon="16.392645">
        <ele>883.008631</ele>
        <time>2023-12-04T13:56:21.832Z</time>
      </trkpt>
      <trkpt lat="38.752767" lon="16.392382">
        <ele>882.754622</ele>
        <time>2023-12-04T13:56:25.302Z</time>
      </trkpt>
      <trkpt lat="38.752586" lon="16.391850">
        <ele>882.347362</ele>
        <time>2023-12-04T13:56:30.539Z</time>
      </trkpt>
      <trkpt lat="38.752307" lon="16.390860">
        <ele>881.249886</ele>
        <time>2023-12-04T13:56:40.122Z</time>
      </trkpt>
      <trkpt lat="38.752131" lon="16.390286">
        <ele>880.560183</ele>
        <time>2023-12-04T13:56:45.873Z</time>
      </trkpt>
      <trkpt lat="38.751852" lon="16.389717">
        <ele>879.808581</ele>
        <time>2023-12-04T13:56:52.131Z</time>
      </trkpt>
      <trkpt lat="38.750979" lon="16.388529">
        <ele>876.206347</ele>
        <time>2023-12-04T13:57:05.772Z</time>
      </trkpt>
      <trkpt lat="38.750875" lon="16.390108">
        <ele>870.669690</ele>
        <time>2023-12-04T13:57:17.697Z</time>
      </trkpt>
      <trkpt lat="38.750796" lon="16.390352">
        <ele>869.405977</ele>
        <time>2023-12-04T13:57:19.570Z</time>
      </trkpt>
      <trkpt lat="38.750655" lon="16.390514">
        <ele>868.244784</ele>
        <time>2023-12-04T13:57:21.247Z</time>
      </trkpt>
      <trkpt lat="38.749762" lon="16.390566">
        <ele>862.588267</ele>
        <time>2023-12-04T13:57:29.269Z</time>
      </trkpt>
      <trkpt lat="38.749447" lon="16.390466">
        <ele>859.885368</ele>
        <time>2023-12-04T13:57:32.179Z</time>
      </trkpt>
      <trkpt lat="38.749219" lon="16.390516">
        <ele>857.958748</ele>
        <time>2023-12-04T13:57:34.236Z</time>
      </trkpt>
      <trkpt lat="38.748926" lon="16.390680">
        <ele>855.295918</ele>
        <time>2023-12-04T13:57:37.054Z</time>
      </trkpt>
      <trkpt lat="38.748319" lon="16.390744">
        <ele>850.223060</ele>
        <time>2023-12-04T13:57:42.349Z</time>
      </trkpt>
      <trkpt lat="38.748076" lon="16.390958">
        <ele>847.695788</ele>
        <time>2023-12-04T13:57:44.899Z</time>
      </trkpt>
      <trkpt lat="38.747769" lon="16.391301">
        <ele>843.815073</ele>
        <time>2023-12-04T13:57:48.438Z</time>
      </trkpt>
      <trkpt lat="38.747283" lon="16.391930">
        <ele>837.233988</ele>
        <time>2023-12-04T13:57:54.424Z</time>
      </trkpt>
      <trkpt lat="38.747055" lon="16.391987">
        <ele>835.020160</ele>
        <time>2023-12-04T13:57:56.427Z</time>
      </trkpt>
      <trkpt lat="38.746632" lon="16.391934">
        <ele>830.970396</ele>
        <time>2023-12-04T13:58:00.080Z</time>
      </trkpt>
      <trkpt lat="38.746530" lon="16.391997">
        <ele>829.896683</ele>
        <time>2023-12-04T13:58:01.060Z</time>
      </trkpt>
      <trkpt lat="38.746395" lon="16.392162">
        <ele>828.127908</ele>
        <time>2023-12-04T13:58:02.670Z</time>
      </trkpt>
      <trkpt lat="38.746263" lon="16.392174">
        <ele>826.872929</ele>
        <time>2023-12-04T13:58:03.817Z</time>
      </trkpt>
      <trkpt lat="38.746097" lon="16.392117">
        <ele>825.243173</ele>
        <time>2023-12-04T13:58:05.319Z</time>
      </trkpt>
      <trkpt lat="38.746020" lon="16.392128">
        <ele>824.508416</ele>
        <time>2023-12-04T13:58:05.987Z</time>
      </trkpt>
      <trkpt lat="38.745619" lon="16.392658">
        <ele>819.046729</ele>
        <time>2023-12-04T13:58:11.011Z</time>
      </trkpt>
      <trkpt lat="38.745212" lon="16.392594">
        <ele>815.157978</ele>
        <time>2023-12-04T13:58:14.540Z</time>
      </trkpt>
      <trkpt lat="38.744691" lon="16.392701">
        <ele>811.487546</ele>
        <time>2023-12-04T13:58:19.055Z</time>
      </trkpt>
      <trkpt lat="38.743858" lon="16.393615">
        <ele>804.633452</ele>
        <time>2023-12-04T13:58:29.007Z</time>
      </trkpt>
      <trkpt lat="38.743809" lon="16.393631">
        <ele>804.317351</ele>
        <time>2023-12-04T13:58:29.552Z</time>
      </trkpt>
      <trkpt lat="38.743623" lon="16.393612">
        <ele>803.150887</ele>
        <time>2023-12-04T13:58:31.639Z</time>
      </trkpt>
      <trkpt lat="38.743578" lon="16.393575">
        <ele>802.822551</ele>
        <time>2023-12-04T13:58:32.252Z</time>
      </trkpt>
      <trkpt lat="38.743525" lon="16.393462">
        <ele>802.818197</ele>
        <time>2023-12-04T13:58:33.483Z</time>
      </trkpt>
      <trkpt lat="38.743525" lon="16.393398">
        <ele>802.816083</ele>
        <time>2023-12-04T13:58:34.186Z</time>
      </trkpt>
      <trkpt lat="38.743619" lon="16.393080">
        <ele>802.804851</ele>
        <time>2023-12-04T13:58:38.152Z</time>
      </trkpt>
      <trkpt lat="38.743651" lon="16.392268">
        <ele>802.777998</ele>
        <time>2023-12-04T13:58:51.340Z</time>
      </trkpt>
      <trkpt lat="38.743630" lon="16.392199">
        <ele>802.775552</ele>
        <time>2023-12-04T13:58:52.611Z</time>
      </trkpt>
      <trkpt lat="38.743540" lon="16.392135">
        <ele>802.771194</ele>
        <time>2023-12-04T13:58:55.365Z</time>
      </trkpt>
      <trkpt lat="38.743393" lon="16.392121">
        <ele>802.764952</ele>
        <time>2023-12-04T13:58:59.259Z</time>
      </trkpt>
      <trkpt lat="38.743098" lon="16.392315">
        <ele>802.750913</ele>
        <time>2023-12-04T13:59:07.453Z</time>
      </trkpt>
      <trkpt lat="38.742876" lon="16.392415">
        <ele>801.795239</ele>
        <time>2023-12-04T13:59:10.995Z</time>
      </trkpt>
      <trkpt lat="38.742248" lon="16.393651">
        <ele>793.335746</ele>
        <time>2023-12-04T13:59:21.273Z</time>
      </trkpt>
      <trkpt lat="38.741884" lon="16.394965">
        <ele>783.682579</ele>
        <time>2023-12-04T13:59:30.466Z</time>
      </trkpt>
      <trkpt lat="38.741748" lon="16.395215">
        <ele>781.242352</ele>
        <time>2023-12-04T13:59:32.479Z</time>
      </trkpt>
      <trkpt lat="38.741512" lon="16.395272">
        <ele>778.777335</ele>
        <time>2023-12-04T13:59:34.523Z</time>
      </trkpt>
      <trkpt lat="38.741084" lon="16.395208">
        <ele>774.354377</ele>
        <time>2023-12-04T13:59:38.240Z</time>
      </trkpt>
      <trkpt lat="38.740898" lon="16.395301">
        <ele>772.305141</ele>
        <time>2023-12-04T13:59:39.989Z</time>
      </trkpt>
      <trkpt lat="38.740012" lon="16.396330">
        <ele>764.519373</ele>
        <time>2023-12-04T13:59:50.867Z</time>
      </trkpt>
      <trkpt lat="38.739392" lon="16.397342">
        <ele>758.760164</ele>
        <time>2023-12-04T14:00:00.297Z</time>
      </trkpt>
      <trkpt lat="38.739283" lon="16.397375">
        <ele>758.219561</ele>
        <time>2023-12-04T14:00:01.380Z</time>
      </trkpt>
      <trkpt lat="38.739065" lon="16.397317">
        <ele>757.144879</ele>
        <time>2023-12-04T14:00:03.489Z</time>
      </trkpt>
      <trkpt lat="38.738827" lon="16.397165">
        <ele>755.861428</ele>
        <time>2023-12-04T14:00:06.036Z</time>
      </trkpt>
      <trkpt lat="38.738155" lon="16.397522">
        <ele>752.350297</ele>
        <time>2023-12-04T14:00:13.063Z</time>
      </trkpt>
      <trkpt lat="38.737834" lon="16.397829">
        <ele>749.583992</ele>
        <time>2023-12-04T14:00:16.891Z</time>
      </trkpt>
      <trkpt lat="38.737377" lon="16.398472">
        <ele>743.603931</ele>
        <time>2023-12-04T14:00:22.943Z</time>
      </trkpt>
      <trkpt lat="38.737048" lon="16.399194">
        <ele>737.855627</ele>
        <time>2023-12-04T14:00:28.500Z</time>
      </trkpt>
      <trkpt lat="38.737020" lon="16.399422">
        <ele>736.268920</ele>
        <time>2023-12-04T14:00:30.030Z</time>
      </trkpt>
      <trkpt lat="38.736863" lon="16.399951">
        <ele>731.870295</ele>
        <time>2023-12-04T14:00:33.763Z</time>
      </trkpt>
      <trkpt lat="38.736563" lon="16.400365">
        <ele>727.368647</ele>
        <time>2023-12-04T14:00:37.508Z</time>
      </trkpt>
      <trkpt lat="38.736148" lon="16.400658">
        <ele>722.530031</ele>
        <time>2023-12-04T14:00:41.569Z</time>
      </trkpt>
      <trkpt lat="38.735913" lon="16.400729">
        <ele>720.064236</ele>
        <time>2023-12-04T14:00:43.663Z</time>
      </trkpt>
      <trkpt lat="38.735606" lon="16.400603">
        <ele>716.828359</ele>
        <time>2023-12-04T14:00:46.512Z</time>
      </trkpt>
      <trkpt lat="38.735544" lon="16.400602">
        <ele>716.277447</ele>
        <time>2023-12-04T14:00:47.068Z</time>
      </trkpt>
      <trkpt lat="38.735250" lon="16.400929">
        <ele>712.819158</ele>
        <time>2023-12-04T14:00:50.556Z</time>
      </trkpt>
      <trkpt lat="38.735188" lon="16.400965">
        <ele>712.214419</ele>
        <time>2023-12-04T14:00:51.171Z</time>
      </trkpt>
      <trkpt lat="38.735122" lon="16.400971">
        <ele>711.626538</ele>
        <time>2023-12-04T14:00:51.760Z</time>
      </trkpt>
      <trkpt lat="38.734697" lon="16.400813">
        <ele>707.694847</ele>
        <time>2023-12-04T14:00:55.667Z</time>
      </trkpt>
      <trkpt lat="38.734592" lon="16.400838">
        <ele>706.745970</ele>
        <time>2023-12-04T14:00:56.606Z</time>
      </trkpt>
      <trkpt lat="38.734524" lon="16.400895">
        <ele>706.024098</ele>
        <time>2023-12-04T14:00:57.308Z</time>
      </trkpt>
      <trkpt lat="38.734405" lon="16.401186">
        <ele>703.746906</ele>
        <time>2023-12-04T14:00:59.510Z</time>
      </trkpt>
      <trkpt lat="38.734338" lon="16.401264">
        <ele>702.942777</ele>
        <time>2023-12-04T14:01:00.288Z</time>
      </trkpt>
      <trkpt lat="38.734077" lon="16.401322">
        <ele>700.495711</ele>
        <time>2023-12-04T14:01:02.547Z</time>
      </trkpt>
      <trkpt lat="38.733649" lon="16.401793">
        <ele>694.745608</ele>
        <time>2023-12-04T14:01:07.345Z</time>
      </trkpt>
      <trkpt lat="38.733199" lon="16.402065">
        <ele>689.673967</ele>
        <time>2023-12-04T14:01:11.593Z</time>
      </trkpt>
      <trkpt lat="38.732940" lon="16.402132">
        <ele>686.980506</ele>
        <time>2023-12-04T14:01:13.851Z</time>
      </trkpt>
      <trkpt lat="38.732695" lon="16.402059">
        <ele>684.416405</ele>
        <time>2023-12-04T14:01:16.025Z</time>
      </trkpt>
      <trkpt lat="38.732593" lon="16.401932">
        <ele>682.966896</ele>
        <time>2023-12-04T14:01:17.259Z</time>
      </trkpt>
      <trkpt lat="38.732455" lon="16.401561">
        <ele>681.127495</ele>
        <time>2023-12-04T14:01:20.089Z</time>
      </trkpt>
      <trkpt lat="38.732269" lon="16.400698">
        <ele>677.197135</ele>
        <time>2023-12-04T14:01:26.564Z</time>
      </trkpt>
      <trkpt lat="38.732143" lon="16.397681">
        <ele>666.105923</ele>
        <time>2023-12-04T14:01:49.710Z</time>
      </trkpt>
      <trkpt lat="38.732062" lon="16.397479">
        <ele>665.354043</ele>
        <time>2023-12-04T14:01:51.364Z</time>
      </trkpt>
      <trkpt lat="38.731318" lon="16.397126">
        <ele>660.275169</ele>
        <time>2023-12-04T14:01:58.648Z</time>
      </trkpt>
      <trkpt lat="38.730626" lon="16.396761">
        <ele>655.371619</ele>
        <time>2023-12-04T14:02:05.381Z</time>
      </trkpt>
      <trkpt lat="38.730483" lon="16.396664">
        <ele>654.311431</ele>
        <time>2023-12-04T14:02:06.814Z</time>
      </trkpt>
      <trkpt lat="38.730383" lon="16.396638">
        <ele>653.642786</ele>
        <time>2023-12-04T14:02:07.720Z</time>
      </trkpt>
      <trkpt lat="38.730314" lon="16.396665">
        <ele>653.134654</ele>
        <time>2023-12-04T14:02:08.357Z</time>
      </trkpt>
      <trkpt lat="38.730199" lon="16.396779">
        <ele>651.991974</ele>
        <time>2023-12-04T14:02:09.652Z</time>
      </trkpt>
      <trkpt lat="38.729734" lon="16.397701">
        <ele>645.259861</ele>
        <time>2023-12-04T14:02:17.242Z</time>
      </trkpt>
      <trkpt lat="38.729526" lon="16.397957">
        <ele>642.993343</ele>
        <time>2023-12-04T14:02:19.785Z</time>
      </trkpt>
      <trkpt lat="38.729292" lon="16.398058">
        <ele>641.052580</ele>
        <time>2023-12-04T14:02:21.963Z</time>
      </trkpt>
      <trkpt lat="38.729068" lon="16.397923">
        <ele>639.118987</ele>
        <time>2023-12-04T14:02:24.129Z</time>
      </trkpt>
      <trkpt lat="38.728919" lon="16.397778">
        <ele>637.820372</ele>
        <time>2023-12-04T14:02:25.785Z</time>
      </trkpt>
      <trkpt lat="38.728743" lon="16.397592">
        <ele>636.236945</ele>
        <time>2023-12-04T14:02:27.801Z</time>
      </trkpt>
      <trkpt lat="38.728470" lon="16.397227">
        <ele>633.498623</ele>
        <time>2023-12-04T14:02:31.311Z</time>
      </trkpt>
      <trkpt lat="38.728369" lon="16.397146">
        <ele>632.671594</ele>
        <time>2023-12-04T14:02:32.379Z</time>
      </trkpt>
      <trkpt lat="38.728199" lon="16.397215">
        <ele>631.433750</ele>
        <time>2023-12-04T14:02:33.984Z</time>
      </trkpt>
      <trkpt lat="38.727927" lon="16.397551">
        <ele>628.811533</ele>
        <time>2023-12-04T14:02:37.420Z</time>
      </trkpt>
      <trkpt lat="38.727499" lon="16.398429">
        <ele>624.420916</ele>
        <time>2023-12-04T14:02:44.893Z</time>
      </trkpt>
      <trkpt lat="38.726770" lon="16.399579">
        <ele>619.169370</ele>
        <time>2023-12-04T14:02:56.144Z</time>
      </trkpt>
      <trkpt lat="38.725563" lon="16.400936">
        <ele>613.649686</ele>
        <time>2023-12-04T14:03:12.209Z</time>
      </trkpt>
      <trkpt lat="38.724449" lon="16.402708">
        <ele>608.768911</ele>
        <time>2023-12-04T14:03:30.678Z</time>
      </trkpt>
      <trkpt lat="38.724021" lon="16.403486">
        <ele>607.056521</ele>
        <time>2023-12-04T14:03:38.782Z</time>
      </trkpt>
      <trkpt lat="38.723563" lon="16.404443">
        <ele>605.281737</ele>
        <time>2023-12-04T14:03:48.402Z</time>
      </trkpt>
      <trkpt lat="38.723163" lon="16.405100">
        <ele>603.977472</ele>
        <time>2023-12-04T14:03:55.595Z</time>
      </trkpt>
      <trkpt lat="38.723014" lon="16.405572">
        <ele>603.216799</ele>
        <time>2023-12-04T14:04:00.005Z</time>
      </trkpt>
      <trkpt lat="38.723008" lon="16.405655">
        <ele>603.092271</ele>
        <time>2023-12-04T14:04:00.730Z</time>
      </trkpt>
      <trkpt lat="38.722997" lon="16.405843">
        <ele>602.810622</ele>
        <time>2023-12-04T14:04:02.363Z</time>
      </trkpt>
      <trkpt lat="38.722985" lon="16.406043">
        <ele>602.510952</ele>
        <time>2023-12-04T14:04:04.099Z</time>
      </trkpt>
      <trkpt lat="38.722664" lon="16.406800">
        <ele>601.223790</ele>
        <time>2023-12-04T14:04:11.542Z</time>
      </trkpt>
      <trkpt lat="38.722539" lon="16.407210">
        <ele>600.533655</ele>
        <time>2023-12-04T14:04:15.318Z</time>
      </trkpt>
      <trkpt lat="38.722249" lon="16.408164">
        <ele>598.746694</ele>
        <time>2023-12-04T14:04:23.997Z</time>
      </trkpt>
      <trkpt lat="38.721956" lon="16.408886">
        <ele>597.326289</ele>
        <time>2023-12-04T14:04:30.994Z</time>
      </trkpt>
      <trkpt lat="38.721585" lon="16.409557">
        <ele>595.505101</ele>
        <time>2023-12-04T14:04:37.613Z</time>
      </trkpt>
      <trkpt lat="38.721509" lon="16.409766">
        <ele>594.918859</ele>
        <time>2023-12-04T14:04:39.412Z</time>
      </trkpt>
      <trkpt lat="38.721328" lon="16.410216">
        <ele>593.631691</ele>
        <time>2023-12-04T14:04:43.406Z</time>
      </trkpt>
      <trkpt lat="38.721159" lon="16.410289">
        <ele>593.050544</ele>
        <time>2023-12-04T14:04:45.240Z</time>
      </trkpt>
      <trkpt lat="38.721159" lon="16.410289">
        <ele>593.050544</ele>
        <time>2023-12-04T14:04:45.241Z</time>
      </trkpt>
      <trkpt lat="38.721095" lon="16.410364">
        <ele>592.767959</ele>
        <time>2023-12-04T14:04:46.112Z</time>
      </trkpt>
      <trkpt lat="38.721084" lon="16.410422">
        <ele>592.616205</ele>
        <time>2023-12-04T14:04:46.588Z</time>
      </trkpt>
      <trkpt lat="38.721118" lon="16.410810">
        <ele>591.623547</ele>
        <time>2023-12-04T14:04:49.660Z</time>
      </trkpt>
      <trkpt lat="38.720739" lon="16.411027">
        <ele>589.856534</ele>
        <time>2023-12-04T14:04:53.794Z</time>
      </trkpt>
      <trkpt lat="38.720615" lon="16.410976">
        <ele>589.140868</ele>
        <time>2023-12-04T14:04:55.061Z</time>
      </trkpt>
      <trkpt lat="38.720533" lon="16.410863">
        <ele>588.479197</ele>
        <time>2023-12-04T14:04:56.197Z</time>
      </trkpt>
      <trkpt lat="38.720381" lon="16.410469">
        <ele>586.594639</ele>
        <time>2023-12-04T14:04:59.400Z</time>
      </trkpt>
      <trkpt lat="38.720087" lon="16.409706">
        <ele>582.945955</ele>
        <time>2023-12-04T14:05:05.540Z</time>
      </trkpt>
      <trkpt lat="38.719948" lon="16.409493">
        <ele>581.755341</ele>
        <time>2023-12-04T14:05:07.519Z</time>
      </trkpt>
      <trkpt lat="38.719855" lon="16.409410">
        <ele>581.132564</ele>
        <time>2023-12-04T14:05:08.540Z</time>
      </trkpt>
      <trkpt lat="38.719758" lon="16.409390">
        <ele>580.326106</ele>
        <time>2023-12-04T14:05:09.423Z</time>
      </trkpt>
      <trkpt lat="38.719589" lon="16.409414">
        <ele>578.765040</ele>
        <time>2023-12-04T14:05:10.934Z</time>
      </trkpt>
      <trkpt lat="38.719428" lon="16.409394">
        <ele>577.279989</ele>
        <time>2023-12-04T14:05:12.366Z</time>
      </trkpt>
      <trkpt lat="38.719160" lon="16.409189">
        <ele>574.414631</ele>
        <time>2023-12-04T14:05:15.084Z</time>
      </trkpt>
      <trkpt lat="38.718944" lon="16.409081">
        <ele>572.286000</ele>
        <time>2023-12-04T14:05:17.087Z</time>
      </trkpt>
      <trkpt lat="38.718835" lon="16.409127">
        <ele>571.232431</ele>
        <time>2023-12-04T14:05:18.079Z</time>
      </trkpt>
      <trkpt lat="38.718576" lon="16.409421">
        <ele>568.056063</ele>
        <time>2023-12-04T14:05:21.052Z</time>
      </trkpt>
      <trkpt lat="38.718307" lon="16.409928">
        <ele>563.379104</ele>
        <time>2023-12-04T14:05:25.157Z</time>
      </trkpt>
      <trkpt lat="38.718218" lon="16.409937">
        <ele>562.272000</ele>
        <time>2023-12-04T14:05:25.931Z</time>
      </trkpt>
      <trkpt lat="38.718089" lon="16.409855">
        <ele>560.486353</ele>
        <time>2023-12-04T14:05:27.167Z</time>
      </trkpt>
      <trkpt lat="38.718014" lon="16.410043">
        <ele>558.443370</ele>
        <time>2023-12-04T14:05:28.561Z</time>
      </trkpt>
      <trkpt lat="38.717874" lon="16.410617">
        <ele>552.624569</ele>
        <time>2023-12-04T14:05:32.522Z</time>
      </trkpt>
      <trkpt lat="38.717905" lon="16.410666">
        <ele>552.014195</ele>
        <time>2023-12-04T14:05:32.930Z</time>
      </trkpt>
      <trkpt lat="38.718203" lon="16.410660">
        <ele>548.318292</ele>
        <time>2023-12-04T14:05:35.427Z</time>
      </trkpt>
      <trkpt lat="38.718291" lon="16.410710">
        <ele>547.124594</ele>
        <time>2023-12-04T14:05:36.226Z</time>
      </trkpt>
      <trkpt lat="38.718347" lon="16.410772">
        <ele>546.206927</ele>
        <time>2023-12-04T14:05:36.843Z</time>
      </trkpt>
      <trkpt lat="38.718426" lon="16.410982">
        <ele>543.951229</ele>
        <time>2023-12-04T14:05:38.360Z</time>
      </trkpt>
      <trkpt lat="38.718308" lon="16.412219">
        <ele>532.695194</ele>
        <time>2023-12-04T14:05:46.511Z</time>
      </trkpt>
      <trkpt lat="38.718227" lon="16.412588">
        <ele>529.275590</ele>
        <time>2023-12-04T14:05:49.045Z</time>
      </trkpt>
      <trkpt lat="38.718270" lon="16.413435">
        <ele>521.703621</ele>
        <time>2023-12-04T14:05:54.755Z</time>
      </trkpt>
      <trkpt lat="38.718352" lon="16.413675">
        <ele>520.748834</ele>
        <time>2023-12-04T14:05:56.596Z</time>
      </trkpt>
      <trkpt lat="38.718477" lon="16.414033">
        <ele>519.408558</ele>
        <time>2023-12-04T14:05:59.380Z</time>
      </trkpt>
      <trkpt lat="38.718629" lon="16.414333">
        <ele>518.186206</ele>
        <time>2023-12-04T14:06:01.982Z</time>
      </trkpt>
      <trkpt lat="38.718781" lon="16.414631">
        <ele>516.969582</ele>
        <time>2023-12-04T14:06:04.782Z</time>
      </trkpt>
      <trkpt lat="38.719012" lon="16.414931">
        <ele>515.529258</ele>
        <time>2023-12-04T14:06:08.285Z</time>
      </trkpt>
      <trkpt lat="38.719100" lon="16.415046">
        <ele>514.978824</ele>
        <time>2023-12-04T14:06:09.720Z</time>
      </trkpt>
      <trkpt lat="38.719201" lon="16.415260">
        <ele>514.124164</ele>
        <time>2023-12-04T14:06:11.978Z</time>
      </trkpt>
      <trkpt lat="38.719115" lon="16.415735">
        <ele>513.254290</ele>
        <time>2023-12-04T14:06:16.387Z</time>
      </trkpt>
      <trkpt lat="38.719154" lon="16.416681">
        <ele>512.044371</ele>
        <time>2023-12-04T14:06:24.588Z</time>
      </trkpt>
      <trkpt lat="38.719165" lon="16.416863">
        <ele>511.811224</ele>
        <time>2023-12-04T14:06:26.259Z</time>
      </trkpt>
      <trkpt lat="38.719155" lon="16.416927">
        <ele>511.727860</ele>
        <time>2023-12-04T14:06:26.781Z</time>
      </trkpt>
      <trkpt lat="38.719179" lon="16.417807">
        <ele>510.618282</ele>
        <time>2023-12-04T14:06:34.946Z</time>
      </trkpt>
      <trkpt lat="38.719157" lon="16.418153">
        <ele>510.211549</ele>
        <time>2023-12-04T14:06:38.213Z</time>
      </trkpt>
      <trkpt lat="38.719136" lon="16.418343">
        <ele>509.986714</ele>
        <time>2023-12-04T14:06:39.800Z</time>
      </trkpt>
      <trkpt lat="38.719303" lon="16.418785">
        <ele>509.411322</ele>
        <time>2023-12-04T14:06:44.070Z</time>
      </trkpt>
      <trkpt lat="38.719389" lon="16.418975">
        <ele>509.153961</ele>
        <time>2023-12-04T14:06:46.345Z</time>
      </trkpt>
      <trkpt lat="38.719442" lon="16.419191">
        <ele>508.888667</ele>
        <time>2023-12-04T14:06:48.324Z</time>
      </trkpt>
      <trkpt lat="38.719568" lon="16.420140">
        <ele>507.167222</ele>
        <time>2023-12-04T14:06:57.286Z</time>
      </trkpt>
      <trkpt lat="38.719609" lon="16.420447">
        <ele>506.132704</ele>
        <time>2023-12-04T14:07:00.016Z</time>
      </trkpt>
      <trkpt lat="38.719648" lon="16.420592">
        <ele>505.623278</ele>
        <time>2023-12-04T14:07:01.194Z</time>
      </trkpt>
      <trkpt lat="38.719858" lon="16.420766">
        <ele>504.558748</ele>
        <time>2023-12-04T14:07:03.620Z</time>
      </trkpt>
      <trkpt lat="38.720155" lon="16.420920">
        <ele>503.194843</ele>
        <time>2023-12-04T14:07:06.601Z</time>
      </trkpt>
      <trkpt lat="38.720383" lon="16.421074">
        <ele>502.097696</ele>
        <time>2023-12-04T14:07:08.981Z</time>
      </trkpt>
      <trkpt lat="38.720630" lon="16.421464">
        <ele>500.429285</ele>
        <time>2023-12-04T14:07:12.572Z</time>
      </trkpt>
      <trkpt lat="38.720647" lon="16.421614">
        <ele>499.600673</ele>
        <time>2023-12-04T14:07:13.645Z</time>
      </trkpt>
      <trkpt lat="38.720640" lon="16.421796">
        <ele>498.602971</ele>
        <time>2023-12-04T14:07:14.945Z</time>
      </trkpt>
      <trkpt lat="38.720588" lon="16.421913">
        <ele>497.865721</ele>
        <time>2023-12-04T14:07:15.918Z</time>
      </trkpt>
      <trkpt lat="38.720358" lon="16.422015">
        <ele>496.157768</ele>
        <time>2023-12-04T14:07:18.123Z</time>
      </trkpt>
      <trkpt lat="38.719972" lon="16.421837">
        <ele>493.278954</ele>
        <time>2023-12-04T14:07:21.791Z</time>
      </trkpt>
      <trkpt lat="38.719783" lon="16.421870">
        <ele>491.940362</ele>
        <time>2023-12-04T14:07:23.472Z</time>
      </trkpt>
      <trkpt lat="38.719076" lon="16.421625">
        <ele>486.975888</ele>
        <time>2023-12-04T14:07:29.964Z</time>
      </trkpt>
      <trkpt lat="38.718879" lon="16.421500">
        <ele>485.702341</ele>
        <time>2023-12-04T14:07:31.978Z</time>
      </trkpt>
      <trkpt lat="38.718712" lon="16.421278">
        <ele>484.308372</ele>
        <time>2023-12-04T14:07:34.177Z</time>
      </trkpt>
      <trkpt lat="38.718670" lon="16.421155">
        <ele>483.701458</ele>
        <time>2023-12-04T14:07:35.143Z</time>
      </trkpt>
      <trkpt lat="38.718529" lon="16.420758">
        <ele>481.729707</ele>
        <time>2023-12-04T14:07:38.248Z</time>
      </trkpt>
      <trkpt lat="38.718413" lon="16.420487">
        <ele>480.332456</ele>
        <time>2023-12-04T14:07:40.478Z</time>
      </trkpt>
      <trkpt lat="38.718359" lon="16.420196">
        <ele>478.980345</ele>
        <time>2023-12-04T14:07:42.672Z</time>
      </trkpt>
      <trkpt lat="38.718358" lon="16.420022">
        <ele>478.193784</ele>
        <time>2023-12-04T14:07:43.973Z</time>
      </trkpt>
      <trkpt lat="38.718403" lon="16.419608">
        <ele>476.592568</ele>
        <time>2023-12-04T14:07:47.159Z</time>
      </trkpt>
      <trkpt lat="38.718358" lon="16.419378">
        <ele>475.806784</ele>
        <time>2023-12-04T14:07:49.012Z</time>
      </trkpt>
      <trkpt lat="38.718226" lon="16.418829">
        <ele>473.903054</ele>
        <time>2023-12-04T14:07:53.439Z</time>
      </trkpt>
      <trkpt lat="38.718220" lon="16.418559">
        <ele>473.007951</ele>
        <time>2023-12-04T14:07:55.568Z</time>
      </trkpt>
      <trkpt lat="38.718261" lon="16.418079">
        <ele>471.407797</ele>
        <time>2023-12-04T14:07:59.315Z</time>
      </trkpt>
      <trkpt lat="38.718221" lon="16.417890">
        <ele>470.758846</ele>
        <time>2023-12-04T14:08:00.755Z</time>
      </trkpt>
      <trkpt lat="38.718121" lon="16.417683">
        <ele>469.952034</ele>
        <time>2023-12-04T14:08:02.521Z</time>
      </trkpt>
      <trkpt lat="38.718026" lon="16.417552">
        <ele>469.288915</ele>
        <time>2023-12-04T14:08:03.797Z</time>
      </trkpt>
      <trkpt lat="38.717433" lon="16.416858">
        <ele>465.255270</ele>
        <time>2023-12-04T14:08:11.256Z</time>
      </trkpt>
      <trkpt lat="38.717380" lon="16.416798">
        <ele>464.900066</ele>
        <time>2023-12-04T14:08:11.905Z</time>
      </trkpt>
      <trkpt lat="38.717282" lon="16.416746">
        <ele>464.367289</ele>
        <time>2023-12-04T14:08:12.876Z</time>
      </trkpt>
      <trkpt lat="38.716932" lon="16.416659">
        <ele>462.576464</ele>
        <time>2023-12-04T14:08:16.150Z</time>
      </trkpt>
      <trkpt lat="38.716807" lon="16.416570">
        <ele>461.858201</ele>
        <time>2023-12-04T14:08:17.525Z</time>
      </trkpt>
      <trkpt lat="38.716698" lon="16.416425">
        <ele>461.069076</ele>
        <time>2023-12-04T14:08:19.039Z</time>
      </trkpt>
      <trkpt lat="38.716318" lon="16.415606">
        <ele>458.950897</ele>
        <time>2023-12-04T14:08:26.892Z</time>
      </trkpt>
      <trkpt lat="38.716133" lon="16.415167">
        <ele>457.931702</ele>
        <time>2023-12-04T14:08:31.281Z</time>
      </trkpt>
      <trkpt lat="38.716093" lon="16.415012">
        <ele>457.598210</ele>
        <time>2023-12-04T14:08:32.896Z</time>
      </trkpt>
      <trkpt lat="38.716093" lon="16.414902">
        <ele>457.373509</ele>
        <time>2023-12-04T14:08:33.961Z</time>
      </trkpt>
      <trkpt lat="38.716144" lon="16.414774">
        <ele>457.079921</ele>
        <time>2023-12-04T14:08:35.173Z</time>
      </trkpt>
      <trkpt lat="38.716210" lon="16.414682">
        <ele>456.824628</ele>
        <time>2023-12-04T14:08:36.248Z</time>
      </trkpt>
      <trkpt lat="38.716417" lon="16.414588">
        <ele>456.249683</ele>
        <time>2023-12-04T14:08:38.571Z</time>
      </trkpt>
      <trkpt lat="38.716519" lon="16.414472">
        <ele>455.778752</ele>
        <time>2023-12-04T14:08:39.932Z</time>
      </trkpt>
      <trkpt lat="38.716548" lon="16.414377">
        <ele>455.352194</ele>
        <time>2023-12-04T14:08:40.731Z</time>
      </trkpt>
      <trkpt lat="38.716561" lon="16.414194">
        <ele>454.583823</ele>
        <time>2023-12-04T14:08:42.134Z</time>
      </trkpt>
      <trkpt lat="38.716544" lon="16.414023">
        <ele>453.863014</ele>
        <time>2023-12-04T14:08:43.421Z</time>
      </trkpt>
      <trkpt lat="38.716511" lon="16.413932">
        <ele>453.443412</ele>
        <time>2023-12-04T14:08:44.181Z</time>
      </trkpt>
      <trkpt lat="38.716419" lon="16.413860">
        <ele>452.865720</ele>
        <time>2023-12-04T14:08:45.213Z</time>
      </trkpt>
      <trkpt lat="38.716281" lon="16.413818">
        <ele>452.105596</ele>
        <time>2023-12-04T14:08:46.551Z</time>
      </trkpt>
      <trkpt lat="38.716111" lon="16.413815">
        <ele>451.194459</ele>
        <time>2023-12-04T14:08:48.184Z</time>
      </trkpt>
      <trkpt lat="38.715728" lon="16.413917">
        <ele>449.098070</ele>
        <time>2023-12-04T14:08:51.816Z</time>
      </trkpt>
      <trkpt lat="38.715287" lon="16.414108">
        <ele>446.603396</ele>
        <time>2023-12-04T14:08:55.996Z</time>
      </trkpt>
      <trkpt lat="38.715008" lon="16.414146">
        <ele>444.336407</ele>
        <time>2023-12-04T14:08:58.478Z</time>
      </trkpt>
      <trkpt lat="38.714916" lon="16.414103">
        <ele>443.494292</ele>
        <time>2023-12-04T14:08:59.339Z</time>
      </trkpt>
      <trkpt lat="38.714786" lon="16.413977">
        <ele>442.092677</ele>
        <time>2023-12-04T14:09:00.753Z</time>
      </trkpt>
      <trkpt lat="38.714711" lon="16.413766">
        <ele>440.536914</ele>
        <time>2023-12-04T14:09:02.329Z</time>
      </trkpt>
      <trkpt lat="38.714695" lon="16.413373">
        <ele>437.896351</ele>
        <time>2023-12-04T14:09:04.972Z</time>
      </trkpt>
      <trkpt lat="38.714643" lon="16.412917">
        <ele>434.804149</ele>
        <time>2023-12-04T14:09:08.080Z</time>
      </trkpt>
      <trkpt lat="38.714533" lon="16.412672">
        <ele>432.907504</ele>
        <time>2023-12-04T14:09:10.009Z</time>
      </trkpt>
      <trkpt lat="38.714350" lon="16.412514">
        <ele>431.010019</ele>
        <time>2023-12-04T14:09:11.949Z</time>
      </trkpt>
      <trkpt lat="38.713941" lon="16.412558">
        <ele>428.267133</ele>
        <time>2023-12-04T14:09:15.641Z</time>
      </trkpt>
      <trkpt lat="38.713646" lon="16.412647">
        <ele>426.261369</ele>
        <time>2023-12-04T14:09:18.386Z</time>
      </trkpt>
      <trkpt lat="38.713449" lon="16.412637">
        <ele>424.956544</ele>
        <time>2023-12-04T14:09:20.160Z</time>
      </trkpt>
      <trkpt lat="38.713332" lon="16.412586">
        <ele>424.138640</ele>
        <time>2023-12-04T14:09:21.273Z</time>
      </trkpt>
      <trkpt lat="38.713213" lon="16.412363">
        <ele>422.743478</ele>
        <time>2023-12-04T14:09:23.160Z</time>
      </trkpt>
      <trkpt lat="38.713098" lon="16.412038">
        <ele>420.900613</ele>
        <time>2023-12-04T14:09:25.672Z</time>
      </trkpt>
      <trkpt lat="38.713115" lon="16.411798">
        <ele>419.656117</ele>
        <time>2023-12-04T14:09:27.374Z</time>
      </trkpt>
      <trkpt lat="38.713169" lon="16.411512">
        <ele>418.660802</ele>
        <time>2023-12-04T14:09:29.529Z</time>
      </trkpt>
      <trkpt lat="38.713146" lon="16.411343">
        <ele>418.318374</ele>
        <time>2023-12-04T14:09:30.821Z</time>
      </trkpt>
      <trkpt lat="38.713092" lon="16.411202">
        <ele>418.004857</ele>
        <time>2023-12-04T14:09:32.092Z</time>
      </trkpt>
      <trkpt lat="38.712759" lon="16.410723">
        <ele>416.724305</ele>
        <time>2023-12-04T14:09:37.686Z</time>
      </trkpt>
      <trkpt lat="38.712482" lon="16.409866">
        <ele>414.872712</ele>
        <time>2023-12-04T14:09:46.129Z</time>
      </trkpt>
      <trkpt lat="38.712500" lon="16.409638">
        <ele>414.415282</ele>
        <time>2023-12-04T14:09:48.100Z</time>
      </trkpt>
      <trkpt lat="38.712502" lon="16.409530">
        <ele>414.194991</ele>
        <time>2023-12-04T14:09:49.028Z</time>
      </trkpt>
      <trkpt lat="38.712475" lon="16.409402">
        <ele>413.923850</ele>
        <time>2023-12-04T14:09:50.149Z</time>
      </trkpt>
      <trkpt lat="38.712333" lon="16.409150">
        <ele>413.288215</ele>
        <time>2023-12-04T14:09:52.903Z</time>
      </trkpt>
      <trkpt lat="38.712131" lon="16.408939">
        <ele>412.605276</ele>
        <time>2023-12-04T14:09:55.826Z</time>
      </trkpt>
      <trkpt lat="38.712085" lon="16.408895">
        <ele>412.454850</ele>
        <time>2023-12-04T14:09:56.448Z</time>
      </trkpt>
      <trkpt lat="38.712031" lon="16.408843">
        <ele>412.277837</ele>
        <time>2023-12-04T14:09:57.185Z</time>
      </trkpt>
      <trkpt lat="38.711902" lon="16.408696">
        <ele>411.825455</ele>
        <time>2023-12-04T14:09:59.002Z</time>
      </trkpt>
      <trkpt lat="38.711854" lon="16.408580">
        <ele>411.556956</ele>
        <time>2023-12-04T14:10:00.090Z</time>
      </trkpt>
      <trkpt lat="38.711754" lon="16.408342">
        <ele>411.004196</ele>
        <time>2023-12-04T14:10:02.235Z</time>
      </trkpt>
      <trkpt lat="38.711618" lon="16.407756">
        <ele>409.753998</ele>
        <time>2023-12-04T14:10:06.961Z</time>
      </trkpt>
      <trkpt lat="38.711574" lon="16.407507">
        <ele>409.088008</ele>
        <time>2023-12-04T14:10:08.869Z</time>
      </trkpt>
      <trkpt lat="38.711526" lon="16.407301">
        <ele>408.506012</ele>
        <time>2023-12-04T14:10:10.517Z</time>
      </trkpt>
      <trkpt lat="38.711470" lon="16.407189">
        <ele>408.145910</ele>
        <time>2023-12-04T14:10:11.539Z</time>
      </trkpt>
      <trkpt lat="38.711391" lon="16.407116">
        <ele>407.808019</ele>
        <time>2023-12-04T14:10:12.510Z</time>
      </trkpt>
      <trkpt lat="38.711044" lon="16.406903">
        <ele>406.473204</ele>
        <time>2023-12-04T14:10:16.475Z</time>
      </trkpt>
      <trkpt lat="38.711000" lon="16.406894">
        <ele>406.318623</ele>
        <time>2023-12-04T14:10:16.932Z</time>
      </trkpt>
      <trkpt lat="38.710795" lon="16.406900">
        <ele>405.607231</ele>
        <time>2023-12-04T14:10:19.035Z</time>
      </trkpt>
      <trkpt lat="38.710562" lon="16.407030">
        <ele>404.725598</ele>
        <time>2023-12-04T14:10:21.602Z</time>
      </trkpt>
      <trkpt lat="38.710500" lon="16.407056">
        <ele>404.499278</ele>
        <time>2023-12-04T14:10:22.246Z</time>
      </trkpt>
      <trkpt lat="38.710471" lon="16.407068">
        <ele>404.393554</ele>
        <time>2023-12-04T14:10:22.546Z</time>
      </trkpt>
      <trkpt lat="38.710282" lon="16.406965">
        <ele>403.681031</ele>
        <time>2023-12-04T14:10:24.568Z</time>
      </trkpt>
      <trkpt lat="38.710251" lon="16.406891">
        <ele>403.453658</ele>
        <time>2023-12-04T14:10:25.224Z</time>
      </trkpt>
      <trkpt lat="38.710211" lon="16.406797">
        <ele>403.163918</ele>
        <time>2023-12-04T14:10:26.045Z</time>
      </trkpt>
      <trkpt lat="38.710198" lon="16.406769">
        <ele>403.075751</ele>
        <time>2023-12-04T14:10:26.293Z</time>
      </trkpt>
      <trkpt lat="38.710173" lon="16.406712">
        <ele>402.898811</ele>
        <time>2023-12-04T14:10:26.793Z</time>
      </trkpt>
      <trkpt lat="38.710082" lon="16.406435">
        <ele>402.085513</ele>
        <time>2023-12-04T14:10:29.112Z</time>
      </trkpt>
      <trkpt lat="38.709963" lon="16.406257">
        <ele>401.451230</ele>
        <time>2023-12-04T14:10:30.921Z</time>
      </trkpt>
      <trkpt lat="38.709676" lon="16.406153">
        <ele>400.416925</ele>
        <time>2023-12-04T14:10:33.915Z</time>
      </trkpt>
      <trkpt lat="38.709522" lon="16.406139">
        <ele>399.881531</ele>
        <time>2023-12-04T14:10:35.458Z</time>
      </trkpt>
      <trkpt lat="38.709370" lon="16.406208">
        <ele>399.322320</ele>
        <time>2023-12-04T14:10:37.080Z</time>
      </trkpt>
      <trkpt lat="38.707917" lon="16.407019">
        <ele>394.156542</ele>
        <time>2023-12-04T14:10:53.073Z</time>
      </trkpt>
      <trkpt lat="38.707802" lon="16.407083">
        <ele>393.764328</ele>
        <time>2023-12-04T14:10:54.352Z</time>
      </trkpt>
      <trkpt lat="38.707788" lon="16.407091">
        <ele>393.716375</ele>
        <time>2023-12-04T14:10:54.509Z</time>
      </trkpt>
      <trkpt lat="38.707777" lon="16.407097">
        <ele>393.678976</ele>
        <time>2023-12-04T14:10:54.630Z</time>
      </trkpt>
      <trkpt lat="38.707162" lon="16.407463">
        <ele>391.562646</ele>
        <time>2023-12-04T14:11:01.533Z</time>
      </trkpt>
      <trkpt lat="38.706824" lon="16.407665">
        <ele>390.793775</ele>
        <time>2023-12-04T14:11:05.416Z</time>
      </trkpt>
      <trkpt lat="38.705924" lon="16.408201">
        <ele>388.747751</ele>
        <time>2023-12-04T14:11:16.222Z</time>
      </trkpt>
      <trkpt lat="38.705473" lon="16.408469">
        <ele>387.849293</ele>
        <time>2023-12-04T14:11:21.901Z</time>
      </trkpt>
      <trkpt lat="38.704922" lon="16.408797">
        <ele>387.718147</ele>
        <time>2023-12-04T14:11:29.545Z</time>
      </trkpt>
      <trkpt lat="38.704766" lon="16.408890">
        <ele>387.681006</ele>
        <time>2023-12-04T14:11:32.136Z</time>
      </trkpt>
      <trkpt lat="38.704208" lon="16.409222">
        <ele>387.548206</ele>
        <time>2023-12-04T14:11:42.374Z</time>
      </trkpt>
      <trkpt lat="38.703945" lon="16.409378">
        <ele>387.485647</ele>
        <time>2023-12-04T14:11:46.988Z</time>
      </trkpt>
      <trkpt lat="38.703643" lon="16.409558">
        <ele>388.226867</ele>
        <time>2023-12-04T14:11:52.284Z</time>
      </trkpt>
      <trkpt lat="38.703455" lon="16.409671">
        <ele>388.769226</ele>
        <time>2023-12-04T14:11:55.679Z</time>
      </trkpt>
      <trkpt lat="38.703173" lon="16.409838">
        <ele>389.580616</ele>
        <time>2023-12-04T14:12:01.552Z</time>
      </trkpt>
      <trkpt lat="38.702802" lon="16.410059">
        <ele>390.649192</ele>
        <time>2023-12-04T14:12:11.339Z</time>
      </trkpt>
      <trkpt lat="38.702575" lon="16.410195">
        <ele>391.303682</ele>
        <time>2023-12-04T14:12:18.216Z</time>
      </trkpt>
      <trkpt lat="38.702038" lon="16.410514">
        <ele>394.623444</ele>
        <time>2023-12-04T14:12:40.643Z</time>
      </trkpt>
      <trkpt lat="38.701998" lon="16.410538">
        <ele>395.041486</ele>
        <time>2023-12-04T14:12:42.519Z</time>
      </trkpt>
      <trkpt lat="38.701230" lon="16.410994">
        <ele>403.052920</ele>
        <time>2023-12-04T14:13:25.658Z</time>
      </trkpt>
      <trkpt lat="38.700930" lon="16.411144">
        <ele>406.100882</ele>
        <time>2023-12-04T14:13:45.522Z</time>
      </trkpt>
      <trkpt lat="38.700746" lon="16.411169">
        <ele>407.852173</ele>
        <time>2023-12-04T14:13:57.567Z</time>
      </trkpt>
      <trkpt lat="38.700587" lon="16.411028">
        <ele>409.677010</ele>
        <time>2023-12-04T14:14:10.690Z</time>
      </trkpt>
      <trkpt lat="38.700381" lon="16.410774">
        <ele>412.353174</ele>
        <time>2023-12-04T14:14:30.632Z</time>
      </trkpt>
      <trkpt lat="38.700173" lon="16.410438">
        <ele>415.486309</ele>
        <time>2023-12-04T14:14:52.702Z</time>
      </trkpt>
      <trkpt lat="38.700077" lon="16.410158">
        <ele>417.720565</ele>
        <time>2023-12-04T14:15:07.181Z</time>
      </trkpt>
      <trkpt lat="38.699994" lon="16.409437">
        <ele>423.044887</ele>
        <time>2023-12-04T14:15:34.662Z</time>
      </trkpt>
      <trkpt lat="38.699879" lon="16.409183">
        <ele>425.190164</ele>
        <time>2023-12-04T14:15:42.933Z</time>
      </trkpt>
      <trkpt lat="38.699582" lon="16.408925">
        <ele>426.575376</ele>
        <time>2023-12-04T14:15:53.339Z</time>
      </trkpt>
      <trkpt lat="38.699462" lon="16.408539">
        <ele>427.228323</ele>
        <time>2023-12-04T14:16:00.606Z</time>
      </trkpt>
      <trkpt lat="38.699464" lon="16.408074">
        <ele>427.959074</ele>
        <time>2023-12-04T14:16:07.310Z</time>
      </trkpt>
      <trkpt lat="38.699574" lon="16.407624">
        <ele>428.700118</ele>
        <time>2023-12-04T14:16:13.638Z</time>
      </trkpt>
      <trkpt lat="38.700069" lon="16.406646">
        <ele>432.055054</ele>
        <time>2023-12-04T14:16:30.505Z</time>
      </trkpt>
      <trkpt lat="38.700051" lon="16.406535">
        <ele>432.543082</ele>
        <time>2023-12-04T14:16:32.805Z</time>
      </trkpt>
      <trkpt lat="38.699983" lon="16.406506">
        <ele>432.938387</ele>
        <time>2023-12-04T14:16:34.730Z</time>
      </trkpt>
      <trkpt lat="38.699470" lon="16.407160">
        <ele>436.929951</ele>
        <time>2023-12-04T14:17:04.161Z</time>
      </trkpt>
      <trkpt lat="38.699105" lon="16.407383">
        <ele>439.160375</ele>
        <time>2023-12-04T14:17:25.082Z</time>
      </trkpt>
      <trkpt lat="38.699080" lon="16.407423">
        <ele>439.380976</ele>
        <time>2023-12-04T14:17:27.212Z</time>
      </trkpt>
      <trkpt lat="38.699034" lon="16.407640">
        <ele>440.780077</ele>
        <time>2023-12-04T14:17:36.462Z</time>
      </trkpt>
      <trkpt lat="38.698879" lon="16.407712">
        <ele>442.197490</ele>
        <time>2023-12-04T14:17:45.321Z</time>
      </trkpt>
      <trkpt lat="38.698801" lon="16.407843">
        <ele>443.303032</ele>
        <time>2023-12-04T14:17:52.075Z</time>
      </trkpt>
      <trkpt lat="38.698713" lon="16.408231">
        <ele>446.014038</ele>
        <time>2023-12-04T14:18:08.226Z</time>
      </trkpt>
      <trkpt lat="38.698580" lon="16.408417">
        <ele>447.706623</ele>
        <time>2023-12-04T14:18:18.142Z</time>
      </trkpt>
      <trkpt lat="38.698312" lon="16.408619">
        <ele>450.379719</ele>
        <time>2023-12-04T14:18:33.688Z</time>
      </trkpt>
      <trkpt lat="38.698254" lon="16.408619">
        <ele>450.878351</ele>
        <time>2023-12-04T14:18:36.617Z</time>
      </trkpt>
      <trkpt lat="38.698191" lon="16.408554">
        <ele>451.573730</ele>
        <time>2023-12-04T14:18:40.634Z</time>
      </trkpt>
      <trkpt lat="38.698307" lon="16.407611">
        <ele>456.918512</ele>
        <time>2023-12-04T14:19:15.369Z</time>
      </trkpt>
      <trkpt lat="38.698262" lon="16.407512">
        <ele>457.409811</ele>
        <time>2023-12-04T14:19:18.962Z</time>
      </trkpt>
      <trkpt lat="38.698211" lon="16.407501">
        <ele>457.693982</ele>
        <time>2023-12-04T14:19:20.994Z</time>
      </trkpt>
      <trkpt lat="38.698120" lon="16.407599">
        <ele>458.347151</ele>
        <time>2023-12-04T14:19:25.575Z</time>
      </trkpt>
      <trkpt lat="38.697881" lon="16.408435">
        <ele>462.165149</ele>
        <time>2023-12-04T14:19:48.397Z</time>
      </trkpt>
      <trkpt lat="38.697847" lon="16.408471">
        <ele>462.407502</ele>
        <time>2023-12-04T14:19:49.777Z</time>
      </trkpt>
      <trkpt lat="38.697775" lon="16.408478">
        <ele>462.804255</ele>
        <time>2023-12-04T14:19:52.114Z</time>
      </trkpt>
      <trkpt lat="38.697715" lon="16.408384">
        <ele>463.325007</ele>
        <time>2023-12-04T14:19:55.202Z</time>
      </trkpt>
      <trkpt lat="38.697548" lon="16.407330">
        <ele>466.607921</ele>
        <time>2023-12-04T14:20:22.910Z</time>
      </trkpt>
      <trkpt lat="38.697296" lon="16.406139">
        <ele>469.565872</ele>
        <time>2023-12-04T14:20:48.528Z</time>
      </trkpt>
      <trkpt lat="38.697100" lon="16.405765">
        <ele>470.491151</ele>
        <time>2023-12-04T14:20:56.287Z</time>
      </trkpt>
      <trkpt lat="38.695648" lon="16.404611">
        <ele>471.646338</ele>
        <time>2023-12-04T14:21:25.487Z</time>
      </trkpt>
      <trkpt lat="38.695544" lon="16.404529">
        <ele>471.630344</ele>
        <time>2023-12-04T14:21:27.139Z</time>
      </trkpt>
      <trkpt lat="38.694358" lon="16.403588">
        <ele>471.151190</ele>
        <time>2023-12-04T14:21:45.998Z</time>
      </trkpt>
      <trkpt lat="38.694071" lon="16.403393">
        <ele>471.026900</ele>
        <time>2023-12-04T14:21:50.143Z</time>
      </trkpt>
      <trkpt lat="38.693823" lon="16.403071">
        <ele>470.654487</ele>
        <time>2023-12-04T14:21:54.630Z</time>
      </trkpt>
      <trkpt lat="38.693427" lon="16.402334">
        <ele>469.917891</ele>
        <time>2023-12-04T14:22:03.476Z</time>
      </trkpt>
      <trkpt lat="38.693326" lon="16.402258">
        <ele>469.794347</ele>
        <time>2023-12-04T14:22:04.921Z</time>
      </trkpt>
      <trkpt lat="38.693072" lon="16.402171">
        <ele>469.517031</ele>
        <time>2023-12-04T14:22:08.170Z</time>
      </trkpt>
      <trkpt lat="38.691950" lon="16.401901">
        <ele>466.792978</ele>
        <time>2023-12-04T14:22:20.735Z</time>
      </trkpt>
      <trkpt lat="38.691710" lon="16.401903">
        <ele>466.079430</ele>
        <time>2023-12-04T14:22:23.180Z</time>
      </trkpt>
      <trkpt lat="38.690879" lon="16.402249">
        <ele>463.368642</ele>
        <time>2023-12-04T14:22:31.728Z</time>
      </trkpt>
      <trkpt lat="38.690388" lon="16.402222">
        <ele>461.390849</ele>
        <time>2023-12-04T14:22:36.473Z</time>
      </trkpt>
      <trkpt lat="38.690244" lon="16.402209">
        <ele>460.809901</ele>
        <time>2023-12-04T14:22:37.860Z</time>
      </trkpt>
      <trkpt lat="38.689907" lon="16.401971">
        <ele>459.261277</ele>
        <time>2023-12-04T14:22:41.598Z</time>
      </trkpt>
      <trkpt lat="38.689502" lon="16.401835">
        <ele>457.576344</ele>
        <time>2023-12-04T14:22:45.709Z</time>
      </trkpt>
      <trkpt lat="38.689021" lon="16.401774">
        <ele>456.178105</ele>
        <time>2023-12-04T14:22:50.454Z</time>
      </trkpt>
      <trkpt lat="38.688698" lon="16.401811">
        <ele>455.639281</ele>
        <time>2023-12-04T14:22:53.665Z</time>
      </trkpt>
      <trkpt lat="38.688406" lon="16.402009">
        <ele>455.090338</ele>
        <time>2023-12-04T14:22:57.074Z</time>
      </trkpt>
      <trkpt lat="38.688252" lon="16.402360">
        <ele>454.568126</ele>
        <time>2023-12-04T14:23:00.583Z</time>
      </trkpt>
      <trkpt lat="38.688184" lon="16.402634">
        <ele>454.195234</ele>
        <time>2023-12-04T14:23:03.411Z</time>
      </trkpt>
      <trkpt lat="38.688058" lon="16.402917">
        <ele>453.772688</ele>
        <time>2023-12-04T14:23:07.230Z</time>
      </trkpt>
      <trkpt lat="38.687647" lon="16.403212">
        <ele>455.144700</ele>
        <time>2023-12-04T14:23:17.998Z</time>
      </trkpt>
      <trkpt lat="38.687445" lon="16.403162">
        <ele>456.063590</ele>
        <time>2023-12-04T14:23:24.224Z</time>
      </trkpt>
      <trkpt lat="38.687106" lon="16.403030">
        <ele>457.646075</ele>
        <time>2023-12-04T14:23:36.092Z</time>
      </trkpt>
      <trkpt lat="38.686735" lon="16.403057">
        <ele>459.305765</ele>
        <time>2023-12-04T14:23:49.349Z</time>
      </trkpt>
      <trkpt lat="38.686310" lon="16.403134">
        <ele>461.222855</ele>
        <time>2023-12-04T14:24:06.432Z</time>
      </trkpt>
      <trkpt lat="38.686095" lon="16.403203">
        <ele>462.561637</ele>
        <time>2023-12-04T14:24:15.722Z</time>
      </trkpt>
      <trkpt lat="38.685955" lon="16.403320">
        <ele>463.738517</ele>
        <time>2023-12-04T14:24:23.283Z</time>
      </trkpt>
      <trkpt lat="38.685908" lon="16.403551">
        <ele>465.050469</ele>
        <time>2023-12-04T14:24:31.788Z</time>
      </trkpt>
      <trkpt lat="38.685964" lon="16.403755">
        <ele>466.238922</ele>
        <time>2023-12-04T14:24:39.850Z</time>
      </trkpt>
      <trkpt lat="38.686305" lon="16.405009">
        <ele>473.536874</ele>
        <time>2023-12-04T14:25:27.477Z</time>
      </trkpt>
      <trkpt lat="38.686272" lon="16.405684">
        <ele>475.281208</ele>
        <time>2023-12-04T14:25:45.254Z</time>
      </trkpt>
      <trkpt lat="38.686322" lon="16.406023">
        <ele>475.923284</ele>
        <time>2023-12-04T14:25:53.194Z</time>
      </trkpt>
      <trkpt lat="38.686281" lon="16.406707">
        <ele>477.200022</ele>
        <time>2023-12-04T14:26:06.048Z</time>
      </trkpt>
      <trkpt lat="38.686347" lon="16.407027">
        <ele>477.816012</ele>
        <time>2023-12-04T14:26:10.752Z</time>
      </trkpt>
      <trkpt lat="38.686463" lon="16.407423">
        <ele>478.536257</ele>
        <time>2023-12-04T14:26:15.077Z</time>
      </trkpt>
      <trkpt lat="38.686463" lon="16.407698">
        <ele>478.262526</ele>
        <time>2023-12-04T14:26:17.483Z</time>
      </trkpt>
      <trkpt lat="38.686193" lon="16.408478">
        <ele>477.413207</ele>
        <time>2023-12-04T14:26:24.393Z</time>
      </trkpt>
      <trkpt lat="38.685843" lon="16.409022">
        <ele>476.711486</ele>
        <time>2023-12-04T14:26:30.227Z</time>
      </trkpt>
      <trkpt lat="38.685706" lon="16.409094">
        <ele>476.522656</ele>
        <time>2023-12-04T14:26:32.117Z</time>
      </trkpt>
      <trkpt lat="38.685706" lon="16.409094">
        <ele>476.522656</ele>
        <time>2023-12-04T14:26:32.122Z</time>
      </trkpt>
      <trkpt lat="38.685497" lon="16.409153">
        <ele>476.340745</ele>
        <time>2023-12-04T14:26:35.031Z</time>
      </trkpt>
      <trkpt lat="38.684925" lon="16.409184">
        <ele>479.705616</ele>
        <time>2023-12-04T14:26:49.391Z</time>
      </trkpt>
      <trkpt lat="38.684732" lon="16.409095">
        <ele>480.911204</ele>
        <time>2023-12-04T14:26:56.604Z</time>
      </trkpt>
      <trkpt lat="38.684584" lon="16.408757">
        <ele>482.689213</ele>
        <time>2023-12-04T14:27:08.970Z</time>
      </trkpt>
      <trkpt lat="38.684440" lon="16.408081">
        <ele>485.904028</ele>
        <time>2023-12-04T14:27:36.974Z</time>
      </trkpt>
      <trkpt lat="38.684245" lon="16.407357">
        <ele>491.326452</ele>
        <time>2023-12-04T14:28:11.822Z</time>
      </trkpt>
      <trkpt lat="38.683959" lon="16.406553">
        <ele>498.378235</ele>
        <time>2023-12-04T14:28:53.089Z</time>
      </trkpt>
      <trkpt lat="38.683843" lon="16.406379">
        <ele>500.204507</ele>
        <time>2023-12-04T14:29:02.243Z</time>
      </trkpt>
      <trkpt lat="38.683706" lon="16.406303">
        <ele>501.730951</ele>
        <time>2023-12-04T14:29:10.796Z</time>
      </trkpt>
      <trkpt lat="38.683598" lon="16.406299">
        <ele>502.835651</ele>
        <time>2023-12-04T14:29:16.108Z</time>
      </trkpt>
      <trkpt lat="38.683485" lon="16.406336">
        <ele>504.028155</ele>
        <time>2023-12-04T14:29:22.158Z</time>
      </trkpt>
      <trkpt lat="38.683306" lon="16.406475">
        <ele>505.974397</ele>
        <time>2023-12-04T14:29:33.274Z</time>
      </trkpt>
      <trkpt lat="38.683142" lon="16.406788">
        <ele>508.363028</ele>
        <time>2023-12-04T14:29:48.212Z</time>
      </trkpt>
      <trkpt lat="38.682856" lon="16.406571">
        <ele>511.061183</ele>
        <time>2023-12-04T14:30:06.579Z</time>
      </trkpt>
      <trkpt lat="38.682782" lon="16.406495">
        <ele>511.831062</ele>
        <time>2023-12-04T14:30:11.582Z</time>
      </trkpt>
      <trkpt lat="38.682776" lon="16.406466">
        <ele>512.021162</ele>
        <time>2023-12-04T14:30:12.722Z</time>
      </trkpt>
      <trkpt lat="38.682763" lon="16.406441">
        <ele>512.211502</ele>
        <time>2023-12-04T14:30:13.906Z</time>
      </trkpt>
      <trkpt lat="38.682722" lon="16.406414">
        <ele>512.585705</ele>
        <time>2023-12-04T14:30:16.369Z</time>
      </trkpt>
      <trkpt lat="38.682698" lon="16.406414">
        <ele>512.780517</ele>
        <time>2023-12-04T14:30:17.683Z</time>
      </trkpt>
      <trkpt lat="38.682645" lon="16.406469">
        <ele>513.334174</ele>
        <time>2023-12-04T14:30:21.690Z</time>
      </trkpt>
      <trkpt lat="38.682642" lon="16.406529">
        <ele>513.715138</ele>
        <time>2023-12-04T14:30:24.432Z</time>
      </trkpt>
      <trkpt lat="38.682626" lon="16.406592">
        <ele>514.134929</ele>
        <time>2023-12-04T14:30:27.422Z</time>
      </trkpt>
      <trkpt lat="38.682610" lon="16.406620">
        <ele>514.354805</ele>
        <time>2023-12-04T14:30:28.905Z</time>
      </trkpt>
      <trkpt lat="38.682403" lon="16.406926">
        <ele>516.920499</ele>
        <time>2023-12-04T14:30:45.906Z</time>
      </trkpt>
      <trkpt lat="38.681688" lon="16.408129">
        <ele>523.481130</ele>
        <time>2023-12-04T14:31:37.270Z</time>
      </trkpt>
      <trkpt lat="38.681624" lon="16.408237">
        <ele>523.951516</ele>
        <time>2023-12-04T14:31:41.677Z</time>
      </trkpt>
      <trkpt lat="38.681260" lon="16.407968">
        <ele>525.818995</ele>
        <time>2023-12-04T14:31:54.598Z</time>
      </trkpt>
      <trkpt lat="38.680953" lon="16.407578">
        <ele>527.740399</ele>
        <time>2023-12-04T14:32:05.648Z</time>
      </trkpt>
      <trkpt lat="38.680784" lon="16.407366">
        <ele>527.768922</ele>
        <time>2023-12-04T14:32:11.033Z</time>
      </trkpt>
      <trkpt lat="38.680624" lon="16.407198">
        <ele>527.720184</ele>
        <time>2023-12-04T14:32:14.712Z</time>
      </trkpt>
      <trkpt lat="38.680265" lon="16.406933">
        <ele>527.622573</ele>
        <time>2023-12-04T14:32:20.792Z</time>
      </trkpt>
      <trkpt lat="38.680137" lon="16.406866">
        <ele>527.589998</ele>
        <time>2023-12-04T14:32:22.628Z</time>
      </trkpt>
      <trkpt lat="38.679038" lon="16.406539">
        <ele>526.327564</ele>
        <time>2023-12-04T14:32:35.713Z</time>
      </trkpt>
      <trkpt lat="38.678533" lon="16.406552">
        <ele>524.572243</ele>
        <time>2023-12-04T14:32:40.788Z</time>
      </trkpt>
      <trkpt lat="38.678128" lon="16.406509">
        <ele>523.159969</ele>
        <time>2023-12-04T14:32:44.729Z</time>
      </trkpt>
      <trkpt lat="38.677554" lon="16.406327">
        <ele>521.115718</ele>
        <time>2023-12-04T14:32:50.403Z</time>
      </trkpt>
      <trkpt lat="38.677392" lon="16.406252">
        <ele>520.673203</ele>
        <time>2023-12-04T14:32:52.031Z</time>
      </trkpt>
      <trkpt lat="38.677028" lon="16.405978">
        <ele>519.588602</ele>
        <time>2023-12-04T14:32:56.111Z</time>
      </trkpt>
      <trkpt lat="38.676827" lon="16.405756">
        <ele>518.906804</ele>
        <time>2023-12-04T14:32:58.773Z</time>
      </trkpt>
      <trkpt lat="38.676234" lon="16.404828">
        <ele>516.539291</ele>
        <time>2023-12-04T14:33:09.453Z</time>
      </trkpt>
      <trkpt lat="38.676124" lon="16.404690">
        <ele>516.769398</ele>
        <time>2023-12-04T14:33:11.600Z</time>
      </trkpt>
      <trkpt lat="38.675990" lon="16.404522">
        <ele>517.049620</ele>
        <time>2023-12-04T14:33:14.677Z</time>
      </trkpt>
      <trkpt lat="38.675821" lon="16.404309">
        <ele>517.403951</ele>
        <time>2023-12-04T14:33:18.947Z</time>
      </trkpt>
      <trkpt lat="38.675430" lon="16.403810">
        <ele>518.228825</ele>
        <time>2023-12-04T14:33:30.972Z</time>
      </trkpt>
      <trkpt lat="38.675210" lon="16.403559">
        <ele>518.669124</ele>
        <time>2023-12-04T14:33:38.182Z</time>
      </trkpt>
      <trkpt lat="38.675068" lon="16.403444">
        <ele>518.920200</ele>
        <time>2023-12-04T14:33:42.683Z</time>
      </trkpt>
      <trkpt lat="38.675003" lon="16.403328">
        <ele>519.086796</ele>
        <time>2023-12-04T14:33:46.379Z</time>
      </trkpt>
      <trkpt lat="38.674764" lon="16.403060">
        <ele>519.991233</ele>
        <time>2023-12-04T14:33:57.073Z</time>
      </trkpt>
      <trkpt lat="38.673983" lon="16.402626">
        <ele>522.834631</ele>
        <time>2023-12-04T14:34:25.530Z</time>
      </trkpt>
      <trkpt lat="38.673704" lon="16.402424">
        <ele>523.905039</ele>
        <time>2023-12-04T14:34:36.282Z</time>
      </trkpt>
      <trkpt lat="38.673364" lon="16.401827">
        <ele>525.864776</ele>
        <time>2023-12-04T14:34:56.354Z</time>
      </trkpt>
      <trkpt lat="38.672760" lon="16.401377">
        <ele>528.324014</ele>
        <time>2023-12-04T14:35:20.373Z</time>
      </trkpt>
      <trkpt lat="38.671883" lon="16.400448">
        <ele>532.509938</ele>
        <time>2023-12-04T14:35:59.083Z</time>
      </trkpt>
      <trkpt lat="38.671200" lon="16.399675">
        <ele>536.461774</ele>
        <time>2023-12-04T14:36:32.737Z</time>
      </trkpt>
      <trkpt lat="38.670283" lon="16.399080">
        <ele>540.599594</ele>
        <time>2023-12-04T14:37:14.085Z</time>
      </trkpt>
      <trkpt lat="38.669702" lon="16.398529">
        <ele>543.096372</ele>
        <time>2023-12-04T14:37:40.822Z</time>
      </trkpt>
      <trkpt lat="38.669307" lon="16.398162">
        <ele>544.781720</ele>
        <time>2023-12-04T14:37:56.319Z</time>
      </trkpt>
      <trkpt lat="38.669052" lon="16.397814">
        <ele>545.576376</ele>
        <time>2023-12-04T14:38:06.540Z</time>
      </trkpt>
      <trkpt lat="38.668402" lon="16.395952">
        <ele>545.734950</ele>
        <time>2023-12-04T14:38:37.627Z</time>
      </trkpt>
      <trkpt lat="38.668034" lon="16.395308">
        <ele>544.582752</ele>
        <time>2023-12-04T14:38:48.350Z</time>
      </trkpt>
      <trkpt lat="38.667544" lon="16.394944">
        <ele>543.419006</ele>
        <time>2023-12-04T14:38:57.661Z</time>
      </trkpt>
      <trkpt lat="38.666966" lon="16.393930">
        <ele>540.387144</ele>
        <time>2023-12-04T14:39:11.921Z</time>
      </trkpt>
      <trkpt lat="38.666610" lon="16.393125">
        <ele>536.544576</ele>
        <time>2023-12-04T14:39:21.442Z</time>
      </trkpt>
      <trkpt lat="38.665919" lon="16.392980">
        <ele>532.819789</ele>
        <time>2023-12-04T14:39:30.604Z</time>
      </trkpt>
      <trkpt lat="38.665525" lon="16.392369">
        <ele>529.932736</ele>
        <time>2023-12-04T14:39:38.746Z</time>
      </trkpt>
      <trkpt lat="38.665499" lon="16.392252">
        <ele>529.496741</ele>
        <time>2023-12-04T14:39:40.030Z</time>
      </trkpt>
      <trkpt lat="38.665539" lon="16.392037">
        <ele>528.704582</ele>
        <time>2023-12-04T14:39:42.337Z</time>
      </trkpt>
      <trkpt lat="38.665846" lon="16.391952">
        <ele>527.262811</ele>
        <time>2023-12-04T14:39:45.314Z</time>
      </trkpt>
      <trkpt lat="38.665927" lon="16.391860">
        <ele>526.765849</ele>
        <time>2023-12-04T14:39:46.345Z</time>
      </trkpt>
      <trkpt lat="38.665960" lon="16.391747">
        <ele>526.333444</ele>
        <time>2023-12-04T14:39:47.263Z</time>
      </trkpt>
      <trkpt lat="38.665964" lon="16.391282">
        <ele>524.666736</ele>
        <time>2023-12-04T14:39:50.854Z</time>
      </trkpt>
      <trkpt lat="38.666132" lon="16.390625">
        <ele>523.650714</ele>
        <time>2023-12-04T14:39:56.867Z</time>
      </trkpt>
      <trkpt lat="38.666155" lon="16.390445">
        <ele>523.467137</ele>
        <time>2023-12-04T14:39:58.583Z</time>
      </trkpt>
      <trkpt lat="38.665970" lon="16.389558">
        <ele>522.543083</ele>
        <time>2023-12-04T14:40:07.445Z</time>
      </trkpt>
      <trkpt lat="38.665706" lon="16.388435">
        <ele>521.903142</ele>
        <time>2023-12-04T14:40:19.235Z</time>
      </trkpt>
      <trkpt lat="38.665621" lon="16.388241">
        <ele>521.903212</ele>
        <time>2023-12-04T14:40:21.596Z</time>
      </trkpt>
      <trkpt lat="38.665535" lon="16.388159">
        <ele>521.903255</ele>
        <time>2023-12-04T14:40:23.231Z</time>
      </trkpt>
      <trkpt lat="38.665350" lon="16.388112">
        <ele>521.903330</ele>
        <time>2023-12-04T14:40:26.096Z</time>
      </trkpt>
      <trkpt lat="38.664657" lon="16.388447">
        <ele>521.903627</ele>
        <time>2023-12-04T14:40:38.385Z</time>
      </trkpt>
      <trkpt lat="38.664569" lon="16.388437">
        <ele>521.903662</ele>
        <time>2023-12-04T14:40:39.796Z</time>
      </trkpt>
      <trkpt lat="38.664480" lon="16.388388">
        <ele>521.917992</ele>
        <time>2023-12-04T14:40:41.379Z</time>
      </trkpt>
      <trkpt lat="38.664326" lon="16.388188">
        <ele>522.114445</ele>
        <time>2023-12-04T14:40:44.965Z</time>
      </trkpt>
      <trkpt lat="38.664136" lon="16.387840">
        <ele>522.411434</ele>
        <time>2023-12-04T14:40:50.304Z</time>
      </trkpt>
      <trkpt lat="38.664035" lon="16.387248">
        <ele>522.835246</ele>
        <time>2023-12-04T14:40:58.185Z</time>
      </trkpt>
      <trkpt lat="38.663971" lon="16.387106">
        <ele>522.949918</ele>
        <time>2023-12-04T14:41:00.480Z</time>
      </trkpt>
      <trkpt lat="38.663851" lon="16.386931">
        <ele>523.112811</ele>
        <time>2023-12-04T14:41:03.896Z</time>
      </trkpt>
      <trkpt lat="38.663520" lon="16.386625">
        <ele>523.478469</ele>
        <time>2023-12-04T14:41:12.488Z</time>
      </trkpt>
      <trkpt lat="38.663343" lon="16.386554">
        <ele>523.742578</ele>
        <time>2023-12-04T14:41:16.786Z</time>
      </trkpt>
      <trkpt lat="38.663284" lon="16.386555">
        <ele>523.835314</ele>
        <time>2023-12-04T14:41:18.220Z</time>
      </trkpt>
      <trkpt lat="38.662770" lon="16.386738">
        <ele>524.673777</ele>
        <time>2023-12-04T14:41:31.069Z</time>
      </trkpt>
      <trkpt lat="38.662630" lon="16.386713">
        <ele>524.895937</ele>
        <time>2023-12-04T14:41:34.251Z</time>
      </trkpt>
      <trkpt lat="38.662459" lon="16.386609">
        <ele>525.193455</ele>
        <time>2023-12-04T14:41:38.398Z</time>
      </trkpt>
      <trkpt lat="38.662280" lon="16.386439">
        <ele>525.543695</ele>
        <time>2023-12-04T14:41:42.885Z</time>
      </trkpt>
      <trkpt lat="38.661888" lon="16.386006">
        <ele>526.350253</ele>
        <time>2023-12-04T14:41:52.499Z</time>
      </trkpt>
      <trkpt lat="38.661712" lon="16.385908">
        <ele>526.516521</ele>
        <time>2023-12-04T14:41:56.030Z</time>
      </trkpt>
      <trkpt lat="38.661519" lon="16.385980">
        <ele>526.690678</ele>
        <time>2023-12-04T14:41:59.653Z</time>
      </trkpt>
      <trkpt lat="38.660907" lon="16.386364">
        <ele>527.281106</ele>
        <time>2023-12-04T14:42:12.108Z</time>
      </trkpt>
      <trkpt lat="38.660822" lon="16.386394">
        <ele>527.357492</ele>
        <time>2023-12-04T14:42:13.646Z</time>
      </trkpt>
      <trkpt lat="38.660726" lon="16.386381">
        <ele>527.441125</ele>
        <time>2023-12-04T14:42:15.352Z</time>
      </trkpt>
      <trkpt lat="38.660683" lon="16.386338">
        <ele>527.488391</ele>
        <time>2023-12-04T14:42:16.291Z</time>
      </trkpt>
      <trkpt lat="38.660628" lon="16.386182">
        <ele>527.604184</ele>
        <time>2023-12-04T14:42:18.575Z</time>
      </trkpt>
      <trkpt lat="38.660523" lon="16.385656">
        <ele>528.102613</ele>
        <time>2023-12-04T14:42:25.702Z</time>
      </trkpt>
      <trkpt lat="38.660414" lon="16.385501">
        <ele>528.502234</ele>
        <time>2023-12-04T14:42:28.687Z</time>
      </trkpt>
      <trkpt lat="38.660180" lon="16.385416">
        <ele>529.098992</ele>
        <time>2023-12-04T14:42:33.666Z</time>
      </trkpt>
      <trkpt lat="38.660056" lon="16.385287">
        <ele>529.490954</ele>
        <time>2023-12-04T14:42:37.244Z</time>
      </trkpt>
      <trkpt lat="38.659811" lon="16.384319">
        <ele>531.440457</ele>
        <time>2023-12-04T14:42:58.822Z</time>
      </trkpt>
      <trkpt lat="38.659786" lon="16.384172">
        <ele>531.728686</ele>
        <time>2023-12-04T14:43:02.312Z</time>
      </trkpt>
      <trkpt lat="38.659793" lon="16.383984">
        <ele>532.089271</ele>
        <time>2023-12-04T14:43:06.616Z</time>
      </trkpt>
      <trkpt lat="38.659897" lon="16.383744">
        <ele>532.738760</ele>
        <time>2023-12-04T14:43:12.893Z</time>
      </trkpt>
      <trkpt lat="38.660505" lon="16.382897">
        <ele>535.844249</ele>
        <time>2023-12-04T14:43:38.938Z</time>
      </trkpt>
      <trkpt lat="38.660606" lon="16.382704">
        <ele>536.471370</ele>
        <time>2023-12-04T14:43:44.139Z</time>
      </trkpt>
      <trkpt lat="38.660987" lon="16.382163">
        <ele>538.437821</ele>
        <time>2023-12-04T14:44:00.116Z</time>
      </trkpt>
      <trkpt lat="38.661566" lon="16.381080">
        <ele>542.260248</ele>
        <time>2023-12-04T14:44:29.608Z</time>
      </trkpt>
      <trkpt lat="38.661574" lon="16.380909">
        <ele>542.760116</ele>
        <time>2023-12-04T14:44:33.694Z</time>
      </trkpt>
      <trkpt lat="38.661464" lon="16.380700">
        <ele>543.495574</ele>
        <time>2023-12-04T14:44:39.648Z</time>
      </trkpt>
      <trkpt lat="38.661389" lon="16.380661">
        <ele>543.798066</ele>
        <time>2023-12-04T14:44:42.071Z</time>
      </trkpt>
      <trkpt lat="38.661000" lon="16.380924">
        <ele>545.397669</ele>
        <time>2023-12-04T14:44:55.735Z</time>
      </trkpt>
      <trkpt lat="38.660877" lon="16.380872">
        <ele>545.769268</ele>
        <time>2023-12-04T14:44:59.895Z</time>
      </trkpt>
      <trkpt lat="38.660747" lon="16.380775">
        <ele>546.200906</ele>
        <time>2023-12-04T14:45:04.699Z</time>
      </trkpt>
      <trkpt lat="38.660637" lon="16.380775">
        <ele>546.516480</ele>
        <time>2023-12-04T14:45:08.377Z</time>
      </trkpt>
      <trkpt lat="38.660590" lon="16.380808">
        <ele>546.670252</ele>
        <time>2023-12-04T14:45:10.139Z</time>
      </trkpt>
      <trkpt lat="38.660395" lon="16.381223">
        <ele>547.755265</ele>
        <time>2023-12-04T14:45:22.229Z</time>
      </trkpt>
      <trkpt lat="38.660350" lon="16.381265">
        <ele>547.915012</ele>
        <time>2023-12-04T14:45:23.883Z</time>
      </trkpt>
      <trkpt lat="38.659996" lon="16.381352">
        <ele>548.949119</ele>
        <time>2023-12-04T14:45:34.083Z</time>
      </trkpt>
      <trkpt lat="38.659759" lon="16.381533">
        <ele>549.740764</ele>
        <time>2023-12-04T14:45:40.297Z</time>
      </trkpt>
      <trkpt lat="38.659391" lon="16.381745">
        <ele>550.267309</ele>
        <time>2023-12-04T14:45:46.442Z</time>
      </trkpt>
      <trkpt lat="38.659204" lon="16.381751">
        <ele>550.108186</ele>
        <time>2023-12-04T14:45:48.780Z</time>
      </trkpt>
      <trkpt lat="38.658836" lon="16.381926">
        <ele>549.774257</ele>
        <time>2023-12-04T14:45:53.118Z</time>
      </trkpt>
      <trkpt lat="38.658586" lon="16.382176">
        <ele>549.504435</ele>
        <time>2023-12-04T14:45:56.611Z</time>
      </trkpt>
      <trkpt lat="38.658434" lon="16.382486">
        <ele>549.261284</ele>
        <time>2023-12-04T14:45:59.875Z</time>
      </trkpt>
      <trkpt lat="38.658304" lon="16.382600">
        <ele>549.127255</ele>
        <time>2023-12-04T14:46:01.844Z</time>
      </trkpt>
      <trkpt lat="38.658215" lon="16.382602">
        <ele>549.051535</ele>
        <time>2023-12-04T14:46:02.928Z</time>
      </trkpt>
      <trkpt lat="38.658102" lon="16.382559">
        <ele>548.951256</ele>
        <time>2023-12-04T14:46:04.407Z</time>
      </trkpt>
      <trkpt lat="38.657806" lon="16.382381">
        <ele>549.627007</ele>
        <time>2023-12-04T14:46:08.784Z</time>
      </trkpt>
      <trkpt lat="38.657711" lon="16.382197">
        <ele>550.150770</ele>
        <time>2023-12-04T14:46:11.679Z</time>
      </trkpt>
      <trkpt lat="38.657652" lon="16.381925">
        <ele>550.821079</ele>
        <time>2023-12-04T14:46:15.715Z</time>
      </trkpt>
      <trkpt lat="38.657640" lon="16.381759">
        <ele>551.216926</ele>
        <time>2023-12-04T14:46:18.614Z</time>
      </trkpt>
      <trkpt lat="38.657647" lon="16.381640">
        <ele>551.500288</ele>
        <time>2023-12-04T14:46:20.820Z</time>
      </trkpt>
      <trkpt lat="38.657850" lon="16.381052">
        <ele>553.026836</ele>
        <time>2023-12-04T14:46:35.863Z</time>
      </trkpt>
      <trkpt lat="38.657912" lon="16.379904">
        <ele>557.309528</ele>
        <time>2023-12-04T14:47:14.228Z</time>
      </trkpt>
      <trkpt lat="38.657756" lon="16.379137">
        <ele>561.262996</ele>
        <time>2023-12-04T14:47:41.272Z</time>
      </trkpt>
      <trkpt lat="38.657750" lon="16.378538">
        <ele>564.251081</ele>
        <time>2023-12-04T14:48:00.030Z</time>
      </trkpt>
      <trkpt lat="38.657874" lon="16.376852">
        <ele>571.496871</ele>
        <time>2023-12-04T14:48:45.804Z</time>
      </trkpt>
      <trkpt lat="38.657993" lon="16.375370">
        <ele>577.844831</ele>
        <time>2023-12-04T14:49:28.491Z</time>
      </trkpt>
      <trkpt lat="38.658252" lon="16.374382">
        <ele>582.538034</ele>
        <time>2023-12-04T14:49:59.904Z</time>
      </trkpt>
      <trkpt lat="38.658468" lon="16.373155">
        <ele>587.825702</ele>
        <time>2023-12-04T14:50:37.819Z</time>
      </trkpt>
      <trkpt lat="38.658804" lon="16.372230">
        <ele>591.731641</ele>
        <time>2023-12-04T14:51:06.250Z</time>
      </trkpt>
      <trkpt lat="38.658854" lon="16.371874">
        <ele>593.116516</ele>
        <time>2023-12-04T14:51:14.982Z</time>
      </trkpt>
      <trkpt lat="38.658692" lon="16.371500">
        <ele>594.688517</ele>
        <time>2023-12-04T14:51:24.694Z</time>
      </trkpt>
      <trkpt lat="38.658465" lon="16.371342">
        <ele>595.618489</ele>
        <time>2023-12-04T14:51:31.934Z</time>
      </trkpt>
      <trkpt lat="38.658243" lon="16.371188">
        <ele>596.527280</ele>
        <time>2023-12-04T14:51:39.094Z</time>
      </trkpt>
      <trkpt lat="38.657614" lon="16.370934">
        <ele>598.901249</ele>
        <time>2023-12-04T14:51:58.305Z</time>
      </trkpt>
      <trkpt lat="38.657434" lon="16.370636">
        <ele>599.960206</ele>
        <time>2023-12-04T14:52:07.110Z</time>
      </trkpt>
      <trkpt lat="38.657424" lon="16.370363">
        <ele>600.728401</ele>
        <time>2023-12-04T14:52:13.542Z</time>
      </trkpt>
      <trkpt lat="38.657638" lon="16.369158">
        <ele>603.352165</ele>
        <time>2023-12-04T14:52:41.002Z</time>
      </trkpt>
      <trkpt lat="38.657606" lon="16.368434">
        <ele>604.852548</ele>
        <time>2023-12-04T14:52:55.802Z</time>
      </trkpt>
      <trkpt lat="38.657449" lon="16.368167">
        <ele>605.544088</ele>
        <time>2023-12-04T14:53:01.254Z</time>
      </trkpt>
      <trkpt lat="38.656699" lon="16.367870">
        <ele>605.037695</ele>
        <time>2023-12-04T14:53:13.769Z</time>
      </trkpt>
      <trkpt lat="38.656318" lon="16.368635">
        <ele>604.327503</ele>
        <time>2023-12-04T14:53:21.903Z</time>
      </trkpt>
      <trkpt lat="38.656091" lon="16.369015">
        <ele>603.953022</ele>
        <time>2023-12-04T14:53:25.797Z</time>
      </trkpt>
      <trkpt lat="38.656002" lon="16.369235">
        <ele>603.479887</ele>
        <time>2023-12-04T14:53:27.741Z</time>
      </trkpt>
      <trkpt lat="38.655969" lon="16.369315">
        <ele>603.302579</ele>
        <time>2023-12-04T14:53:28.456Z</time>
      </trkpt>
      <trkpt lat="38.655884" lon="16.369524">
        <ele>602.840776</ele>
        <time>2023-12-04T14:53:30.302Z</time>
      </trkpt>
      <trkpt lat="38.655781" lon="16.369873">
        <ele>602.109612</ele>
        <time>2023-12-04T14:53:33.206Z</time>
      </trkpt>
      <trkpt lat="38.655526" lon="16.370428">
        <ele>600.847661</ele>
        <time>2023-12-04T14:53:38.512Z</time>
      </trkpt>
      <trkpt lat="38.655294" lon="16.370821">
        <ele>599.882178</ele>
        <time>2023-12-04T14:53:42.758Z</time>
      </trkpt>
      <trkpt lat="38.654951" lon="16.371225">
        <ele>598.966633</ele>
        <time>2023-12-04T14:53:48.047Z</time>
      </trkpt>
      <trkpt lat="38.654419" lon="16.371813">
        <ele>597.826594</ele>
        <time>2023-12-04T14:53:56.002Z</time>
      </trkpt>
      <trkpt lat="38.653678" lon="16.372377">
        <ele>596.402635</ele>
        <time>2023-12-04T14:54:06.083Z</time>
      </trkpt>
      <trkpt lat="38.653262" lon="16.372727">
        <ele>595.352103</ele>
        <time>2023-12-04T14:54:11.595Z</time>
      </trkpt>
      <trkpt lat="38.653150" lon="16.372843">
        <ele>595.048082</ele>
        <time>2023-12-04T14:54:13.151Z</time>
      </trkpt>
      <trkpt lat="38.652741" lon="16.373621">
        <ele>593.502311</ele>
        <time>2023-12-04T14:54:20.843Z</time>
      </trkpt>
      <trkpt lat="38.652045" lon="16.374551">
        <ele>591.486449</ele>
        <time>2023-12-04T14:54:31.887Z</time>
      </trkpt>
      <trkpt lat="38.651897" lon="16.374730">
        <ele>591.091209</ele>
        <time>2023-12-04T14:54:34.232Z</time>
      </trkpt>
      <trkpt lat="38.651563" lon="16.375105">
        <ele>590.228807</ele>
        <time>2023-12-04T14:54:39.362Z</time>
      </trkpt>
      <trkpt lat="38.651333" lon="16.375344">
        <ele>589.653743</ele>
        <time>2023-12-04T14:54:42.693Z</time>
      </trkpt>
      <trkpt lat="38.650995" lon="16.375722">
        <ele>588.086628</ele>
        <time>2023-12-04T14:54:47.635Z</time>
      </trkpt>
      <trkpt lat="38.650745" lon="16.376002">
        <ele>586.428085</ele>
        <time>2023-12-04T14:54:50.997Z</time>
      </trkpt>
      <trkpt lat="38.650557" lon="16.376160">
        <ele>585.305158</ele>
        <time>2023-12-04T14:54:53.151Z</time>
      </trkpt>
      <trkpt lat="38.650459" lon="16.376170">
        <ele>584.814242</ele>
        <time>2023-12-04T14:54:54.066Z</time>
      </trkpt>
      <trkpt lat="38.649672" lon="16.376574">
        <ele>580.580293</ele>
        <time>2023-12-04T14:55:01.725Z</time>
      </trkpt>
      <trkpt lat="38.649401" lon="16.376713">
        <ele>579.111200</ele>
        <time>2023-12-04T14:55:04.341Z</time>
      </trkpt>
      <trkpt lat="38.649195" lon="16.377038">
        <ele>577.462366</ele>
        <time>2023-12-04T14:55:07.311Z</time>
      </trkpt>
      <trkpt lat="38.649122" lon="16.377091">
        <ele>577.039088</ele>
        <time>2023-12-04T14:55:08.077Z</time>
      </trkpt>
      <trkpt lat="38.649049" lon="16.377085">
        <ele>576.670123</ele>
        <time>2023-12-04T14:55:08.747Z</time>
      </trkpt>
      <trkpt lat="38.648844" lon="16.376921">
        <ele>575.450891</ele>
        <time>2023-12-04T14:55:11.046Z</time>
      </trkpt>
      <trkpt lat="38.648525" lon="16.376644">
        <ele>573.506778</ele>
        <time>2023-12-04T14:55:14.907Z</time>
      </trkpt>
      <trkpt lat="38.648458" lon="16.376525">
        <ele>572.928891</ele>
        <time>2023-12-04T14:55:15.977Z</time>
      </trkpt>
      <trkpt lat="38.648411" lon="16.376320">
        <ele>572.087264</ele>
        <time>2023-12-04T14:55:17.620Z</time>
      </trkpt>
      <trkpt lat="38.648418" lon="16.376104">
        <ele>571.235650</ele>
        <time>2023-12-04T14:55:19.215Z</time>
      </trkpt>
      <trkpt lat="38.648487" lon="16.375773">
        <ele>570.085938</ele>
        <time>2023-12-04T14:55:21.904Z</time>
      </trkpt>
      <trkpt lat="38.648547" lon="16.375685">
        <ele>569.697314</ele>
        <time>2023-12-04T14:55:22.789Z</time>
      </trkpt>
      <trkpt lat="38.648725" lon="16.375587">
        <ele>568.871966</ele>
        <time>2023-12-04T14:55:24.860Z</time>
      </trkpt>
      <trkpt lat="38.649025" lon="16.375504">
        <ele>567.564566</ele>
        <time>2023-12-04T14:55:28.003Z</time>
      </trkpt>
      <trkpt lat="38.649077" lon="16.375427">
        <ele>567.225918</ele>
        <time>2023-12-04T14:55:28.859Z</time>
      </trkpt>
      <trkpt lat="38.649068" lon="16.375298">
        <ele>566.795056</ele>
        <time>2023-12-04T14:55:29.837Z</time>
      </trkpt>
      <trkpt lat="38.649014" lon="16.375210">
        <ele>566.422744</ele>
        <time>2023-12-04T14:55:30.688Z</time>
      </trkpt>
      <trkpt lat="38.648978" lon="16.375178">
        <ele>566.236065</ele>
        <time>2023-12-04T14:55:31.120Z</time>
      </trkpt>
      <trkpt lat="38.648440" lon="16.375462">
        <ele>563.757230</ele>
        <time>2023-12-04T14:55:36.682Z</time>
      </trkpt>
      <trkpt lat="38.647712" lon="16.375570">
        <ele>558.579030</ele>
        <time>2023-12-04T14:55:43.229Z</time>
      </trkpt>
      <trkpt lat="38.647533" lon="16.375624">
        <ele>557.235211</ele>
        <time>2023-12-04T14:55:44.816Z</time>
      </trkpt>
      <trkpt lat="38.647297" lon="16.375766">
        <ele>555.329769</ele>
        <time>2023-12-04T14:55:47.095Z</time>
      </trkpt>
      <trkpt lat="38.647212" lon="16.375852">
        <ele>554.538139</ele>
        <time>2023-12-04T14:55:48.044Z</time>
      </trkpt>
      <trkpt lat="38.647127" lon="16.375985">
        <ele>553.557361</ele>
        <time>2023-12-04T14:55:49.224Z</time>
      </trkpt>
      <trkpt lat="38.647110" lon="16.376164">
        <ele>552.528275</ele>
        <time>2023-12-04T14:55:50.464Z</time>
      </trkpt>
      <trkpt lat="38.647107" lon="16.376266">
        <ele>551.945744</ele>
        <time>2023-12-04T14:55:51.168Z</time>
      </trkpt>
      <trkpt lat="38.647175" lon="16.376398">
        <ele>551.043298</ele>
        <time>2023-12-04T14:55:52.255Z</time>
      </trkpt>
      <trkpt lat="38.647410" lon="16.376563">
        <ele>550.246691</ele>
        <time>2023-12-04T14:55:54.697Z</time>
      </trkpt>
      <trkpt lat="38.647475" lon="16.376708">
        <ele>550.157493</ele>
        <time>2023-12-04T14:55:55.908Z</time>
      </trkpt>
      <trkpt lat="38.647456" lon="16.376949">
        <ele>550.028262</ele>
        <time>2023-12-04T14:55:57.778Z</time>
      </trkpt>
      <trkpt lat="38.647332" lon="16.377502">
        <ele>549.721306</ele>
        <time>2023-12-04T14:56:02.930Z</time>
      </trkpt>
      <trkpt lat="38.647152" lon="16.378047">
        <ele>549.405606</ele>
        <time>2023-12-04T14:56:12.547Z</time>
      </trkpt>
      <trkpt lat="38.647056" lon="16.378337">
        <ele>549.237560</ele>
        <time>2023-12-04T14:56:19.660Z</time>
      </trkpt>
      <trkpt lat="38.646949" lon="16.378744">
        <ele>550.189260</ele>
        <time>2023-12-04T14:56:30.554Z</time>
      </trkpt>
      <trkpt lat="38.646873" lon="16.378918">
        <ele>551.053711</ele>
        <time>2023-12-04T14:56:36.386Z</time>
      </trkpt>
      <trkpt lat="38.646730" lon="16.379556">
        <ele>553.931805</ele>
        <time>2023-12-04T14:56:57.767Z</time>
      </trkpt>
      <trkpt lat="38.646697" lon="16.379804">
        <ele>555.022653</ele>
        <time>2023-12-04T14:57:06.372Z</time>
      </trkpt>
      <trkpt lat="38.646744" lon="16.380026">
        <ele>556.020007</ele>
        <time>2023-12-04T14:57:14.463Z</time>
      </trkpt>
      <trkpt lat="38.646760" lon="16.380247">
        <ele>556.982392</ele>
        <time>2023-12-04T14:57:22.104Z</time>
      </trkpt>
      <trkpt lat="38.646638" lon="16.381006">
        <ele>559.463121</ele>
        <time>2023-12-04T14:57:43.282Z</time>
      </trkpt>
      <trkpt lat="38.646545" lon="16.381781">
        <ele>560.409977</ele>
        <time>2023-12-04T14:57:56.645Z</time>
      </trkpt>
      <trkpt lat="38.646521" lon="16.381935">
        <ele>560.599611</ele>
        <time>2023-12-04T14:57:58.833Z</time>
      </trkpt>
      <trkpt lat="38.646444" lon="16.382348">
        <ele>561.112355</ele>
        <time>2023-12-04T14:58:03.798Z</time>
      </trkpt>
      <trkpt lat="38.646397" lon="16.382386">
        <ele>561.198301</ele>
        <time>2023-12-04T14:58:04.532Z</time>
      </trkpt>
      <trkpt lat="38.646404" lon="16.382469">
        <ele>561.299113</ele>
        <time>2023-12-04T14:58:05.385Z</time>
      </trkpt>
      <trkpt lat="38.646340" lon="16.382509">
        <ele>561.409228</ele>
        <time>2023-12-04T14:58:06.362Z</time>
      </trkpt>
      <trkpt lat="38.646268" lon="16.382564">
        <ele>561.538859</ele>
        <time>2023-12-04T14:58:07.541Z</time>
      </trkpt>
      <trkpt lat="38.646051" lon="16.382882">
        <ele>561.987181</ele>
        <time>2023-12-04T14:58:11.982Z</time>
      </trkpt>
      <trkpt lat="38.645904" lon="16.383126">
        <ele>562.200170</ele>
        <time>2023-12-04T14:58:15.471Z</time>
      </trkpt>
      <trkpt lat="38.645513" lon="16.382716">
        <ele>562.647420</ele>
        <time>2023-12-04T14:58:24.332Z</time>
      </trkpt>
      <trkpt lat="38.645195" lon="16.382645">
        <ele>562.933082</ele>
        <time>2023-12-04T14:58:31.243Z</time>
      </trkpt>
      <trkpt lat="38.644898" lon="16.382638">
        <ele>563.195959</ele>
        <time>2023-12-04T14:58:37.558Z</time>
      </trkpt>
      <trkpt lat="38.644668" lon="16.382703">
        <ele>563.404398</ele>
        <time>2023-12-04T14:58:42.629Z</time>
      </trkpt>
      <trkpt lat="38.644093" lon="16.382957">
        <ele>563.739827</ele>
        <time>2023-12-04T14:58:54.389Z</time>
      </trkpt>
      <trkpt lat="38.643996" lon="16.383005">
        <ele>563.790022</ele>
        <time>2023-12-04T14:58:56.241Z</time>
      </trkpt>
      <trkpt lat="38.643801" lon="16.383183">
        <ele>563.905615</ele>
        <time>2023-12-04T14:59:00.232Z</time>
      </trkpt>
      <trkpt lat="38.643460" lon="16.383655">
        <ele>564.148006</ele>
        <time>2023-12-04T14:59:07.661Z</time>
      </trkpt>
      <trkpt lat="38.643208" lon="16.384086">
        <ele>564.350974</ele>
        <time>2023-12-04T14:59:13.821Z</time>
      </trkpt>
      <trkpt lat="38.643086" lon="16.384245">
        <ele>564.581494</ele>
        <time>2023-12-04T14:59:16.518Z</time>
      </trkpt>
      <trkpt lat="38.642933" lon="16.384256">
        <ele>564.809353</ele>
        <time>2023-12-04T14:59:18.672Z</time>
      </trkpt>
      <trkpt lat="38.642658" lon="16.384070">
        <ele>565.271811</ele>
        <time>2023-12-04T14:59:23.247Z</time>
      </trkpt>
      <trkpt lat="38.642525" lon="16.383913">
        <ele>565.540802</ele>
        <time>2023-12-04T14:59:26.148Z</time>
      </trkpt>
      <trkpt lat="38.641905" lon="16.382620">
        <ele>567.565114</ele>
        <time>2023-12-04T14:59:54.976Z</time>
      </trkpt>
      <trkpt lat="38.641765" lon="16.382470">
        <ele>568.106377</ele>
        <time>2023-12-04T15:00:00.748Z</time>
      </trkpt>
      <trkpt lat="38.641361" lon="16.382301">
        <ele>569.366523</ele>
        <time>2023-12-04T15:00:13.998Z</time>
      </trkpt>
      <trkpt lat="38.641166" lon="16.382151">
        <ele>570.041013</ele>
        <time>2023-12-04T15:00:20.372Z</time>
      </trkpt>
      <trkpt lat="38.641020" lon="16.381913">
        <ele>570.741847</ele>
        <time>2023-12-04T15:00:26.700Z</time>
      </trkpt>
      <trkpt lat="38.640836" lon="16.381371">
        <ele>572.110458</ele>
        <time>2023-12-04T15:00:37.355Z</time>
      </trkpt>
      <trkpt lat="38.640665" lon="16.381201">
        <ele>572.821375</ele>
        <time>2023-12-04T15:00:42.149Z</time>
      </trkpt>
      <trkpt lat="38.639721" lon="16.380813">
        <ele>576.294157</ele>
        <time>2023-12-04T15:01:08.695Z</time>
      </trkpt>
      <trkpt lat="38.639511" lon="16.380810">
        <ele>577.029773</ele>
        <time>2023-12-04T15:01:15.856Z</time>
      </trkpt>
      <trkpt lat="38.639338" lon="16.380761">
        <ele>577.650395</ele>
        <time>2023-12-04T15:01:21.915Z</time>
      </trkpt>
      <trkpt lat="38.639236" lon="16.380598">
        <ele>578.221820</ele>
        <time>2023-12-04T15:01:27.592Z</time>
      </trkpt>
      <trkpt lat="38.639248" lon="16.380385">
        <ele>578.799805</ele>
        <time>2023-12-04T15:01:33.117Z</time>
      </trkpt>
      <trkpt lat="38.639420" lon="16.379908">
        <ele>580.169803</ele>
        <time>2023-12-04T15:01:46.689Z</time>
      </trkpt>
      <trkpt lat="38.639516" lon="16.379646">
        <ele>580.924445</ele>
        <time>2023-12-04T15:01:53.869Z</time>
      </trkpt>
      <trkpt lat="38.639665" lon="16.379478">
        <ele>581.587286</ele>
        <time>2023-12-04T15:01:59.538Z</time>
      </trkpt>
      <trkpt lat="38.639843" lon="16.379338">
        <ele>582.284715</ele>
        <time>2023-12-04T15:02:05.322Z</time>
      </trkpt>
      <trkpt lat="38.639980" lon="16.379114">
        <ele>583.026587</ele>
        <time>2023-12-04T15:02:11.013Z</time>
      </trkpt>
      <trkpt lat="38.640033" lon="16.378838">
        <ele>583.767725</ele>
        <time>2023-12-04T15:02:16.445Z</time>
      </trkpt>
      <trkpt lat="38.639986" lon="16.378566">
        <ele>584.494149</ele>
        <time>2023-12-04T15:02:21.663Z</time>
      </trkpt>
      <trkpt lat="38.639783" lon="16.378055">
        <ele>585.070890</ele>
        <time>2023-12-04T15:02:31.707Z</time>
      </trkpt>
      <trkpt lat="38.639618" lon="16.377886">
        <ele>585.282753</ele>
        <time>2023-12-04T15:02:36.058Z</time>
      </trkpt>
      <trkpt lat="38.639183" lon="16.377773">
        <ele>585.727787</ele>
        <time>2023-12-04T15:02:44.316Z</time>
      </trkpt>
      <trkpt lat="38.639010" lon="16.377665">
        <ele>585.920766</ele>
        <time>2023-12-04T15:02:46.945Z</time>
      </trkpt>
      <trkpt lat="38.638928" lon="16.377456">
        <ele>586.103934</ele>
        <time>2023-12-04T15:02:49.432Z</time>
      </trkpt>
      <trkpt lat="38.638970" lon="16.377234">
        <ele>586.282821</ele>
        <time>2023-12-04T15:02:51.628Z</time>
      </trkpt>
      <trkpt lat="38.639360" lon="16.376555">
        <ele>587.757748</ele>
        <time>2023-12-04T15:03:03.683Z</time>
      </trkpt>
      <trkpt lat="38.639396" lon="16.376296">
        <ele>588.326577</ele>
        <time>2023-12-04T15:03:08.798Z</time>
      </trkpt>
      <trkpt lat="38.639383" lon="16.376195">
        <ele>588.547913</ele>
        <time>2023-12-04T15:03:11.099Z</time>
      </trkpt>
      <trkpt lat="38.639360" lon="16.376016">
        <ele>588.940164</ele>
        <time>2023-12-04T15:03:15.251Z</time>
      </trkpt>
      <trkpt lat="38.639245" lon="16.375626">
        <ele>589.841546</ele>
        <time>2023-12-04T15:03:26.012Z</time>
      </trkpt>
      <trkpt lat="38.639175" lon="16.375438">
        <ele>590.291880</ele>
        <time>2023-12-04T15:03:31.588Z</time>
      </trkpt>
      <trkpt lat="38.638740" lon="16.374631">
        <ele>592.149842</ele>
        <time>2023-12-04T15:03:53.840Z</time>
      </trkpt>
      <trkpt lat="38.638585" lon="16.374424">
        <ele>592.599252</ele>
        <time>2023-12-04T15:03:59.193Z</time>
      </trkpt>
      <trkpt lat="38.638391" lon="16.374305">
        <ele>593.030878</ele>
        <time>2023-12-04T15:04:04.407Z</time>
      </trkpt>
      <trkpt lat="38.638168" lon="16.374285">
        <ele>593.479415</ele>
        <time>2023-12-04T15:04:09.765Z</time>
      </trkpt>
      <trkpt lat="38.637938" lon="16.374345">
        <ele>593.950384</ele>
        <time>2023-12-04T15:04:15.479Z</time>
      </trkpt>
      <trkpt lat="38.637075" lon="16.374761">
        <ele>595.728132</ele>
        <time>2023-12-04T15:04:30.776Z</time>
      </trkpt>
      <trkpt lat="38.636881" lon="16.374781">
        <ele>596.079987</ele>
        <time>2023-12-04T15:04:33.637Z</time>
      </trkpt>
      <trkpt lat="38.636510" lon="16.374636">
        <ele>596.781254</ele>
        <time>2023-12-04T15:04:40.055Z</time>
      </trkpt>
      <trkpt lat="38.636323" lon="16.374628">
        <ele>597.119509</ele>
        <time>2023-12-04T15:04:44.233Z</time>
      </trkpt>
      <trkpt lat="38.635956" lon="16.374791">
        <ele>597.821779</ele>
        <time>2023-12-04T15:04:55.494Z</time>
      </trkpt>
      <trkpt lat="38.635768" lon="16.374781">
        <ele>598.161946</ele>
        <time>2023-12-04T15:05:01.615Z</time>
      </trkpt>
      <trkpt lat="38.635588" lon="16.374658">
        <ele>598.764365</ele>
        <time>2023-12-04T15:05:07.807Z</time>
      </trkpt>
      <trkpt lat="38.635218" lon="16.374340">
        <ele>600.462001</ele>
        <time>2023-12-04T15:05:20.291Z</time>
      </trkpt>
      <trkpt lat="38.635028" lon="16.374251">
        <ele>601.232709</ele>
        <time>2023-12-04T15:05:25.493Z</time>
      </trkpt>
      <trkpt lat="38.634866" lon="16.374134">
        <ele>601.941257</ele>
        <time>2023-12-04T15:05:30.330Z</time>
      </trkpt>
      <trkpt lat="38.634766" lon="16.373928">
        <ele>602.662963</ele>
        <time>2023-12-04T15:05:35.552Z</time>
      </trkpt>
      <trkpt lat="38.634708" lon="16.373716">
        <ele>603.331373</ele>
        <time>2023-12-04T15:05:40.859Z</time>
      </trkpt>
      <trkpt lat="38.634611" lon="16.373588">
        <ele>603.862041</ele>
        <time>2023-12-04T15:05:45.444Z</time>
      </trkpt>
      <trkpt lat="38.634493" lon="16.373618">
        <ele>604.320324</ele>
        <time>2023-12-04T15:05:49.360Z</time>
      </trkpt>
      <trkpt lat="38.634418" lon="16.373773">
        <ele>604.862870</ele>
        <time>2023-12-04T15:05:54.628Z</time>
      </trkpt>
      <trkpt lat="38.634306" lon="16.374178">
        <ele>606.326160</ele>
        <time>2023-12-04T15:06:06.823Z</time>
      </trkpt>
      <trkpt lat="38.634196" lon="16.374333">
        <ele>607.068094</ele>
        <time>2023-12-04T15:06:12.797Z</time>
      </trkpt>
      <trkpt lat="38.634031" lon="16.374363">
        <ele>607.823958</ele>
        <time>2023-12-04T15:06:18.698Z</time>
      </trkpt>
      <trkpt lat="38.633870" lon="16.374265">
        <ele>608.632512</ele>
        <time>2023-12-04T15:06:24.580Z</time>
      </trkpt>
      <trkpt lat="38.633758" lon="16.374065">
        <ele>609.504362</ele>
        <time>2023-12-04T15:06:30.729Z</time>
      </trkpt>
      <trkpt lat="38.633685" lon="16.373831">
        <ele>610.397069</ele>
        <time>2023-12-04T15:06:36.906Z</time>
      </trkpt>
      <trkpt lat="38.633560" lon="16.373650">
        <ele>611.253012</ele>
        <time>2023-12-04T15:06:43.065Z</time>
      </trkpt>
      <trkpt lat="38.633370" lon="16.373605">
        <ele>612.129377</ele>
        <time>2023-12-04T15:06:49.322Z</time>
      </trkpt>
      <trkpt lat="38.633171" lon="16.373631">
        <ele>613.036625</ele>
        <time>2023-12-04T15:06:55.790Z</time>
      </trkpt>
      <trkpt lat="38.633010" lon="16.373548">
        <ele>613.671478</ele>
        <time>2023-12-04T15:07:01.157Z</time>
      </trkpt>
      <trkpt lat="38.632901" lon="16.373356">
        <ele>614.253362</ele>
        <time>2023-12-04T15:07:06.904Z</time>
      </trkpt>
      <trkpt lat="38.632805" lon="16.373125">
        <ele>614.894840</ele>
        <time>2023-12-04T15:07:12.905Z</time>
      </trkpt>
      <trkpt lat="38.632766" lon="16.372869">
        <ele>615.534276</ele>
        <time>2023-12-04T15:07:18.659Z</time>
      </trkpt>
      <trkpt lat="38.632783" lon="16.372638">
        <ele>616.103106</ele>
        <time>2023-12-04T15:07:23.345Z</time>
      </trkpt>
      <trkpt lat="38.632708" lon="16.372456">
        <ele>616.607578</ele>
        <time>2023-12-04T15:07:27.712Z</time>
      </trkpt>
      <trkpt lat="38.632546" lon="16.372405">
        <ele>617.131149</ele>
        <time>2023-12-04T15:07:32.120Z</time>
      </trkpt>
      <trkpt lat="38.632396" lon="16.372516">
        <ele>617.674905</ele>
        <time>2023-12-04T15:07:36.690Z</time>
      </trkpt>
      <trkpt lat="38.632281" lon="16.372716">
        <ele>618.283740</ele>
        <time>2023-12-04T15:07:41.672Z</time>
      </trkpt>
      <trkpt lat="38.632131" lon="16.373131">
        <ele>619.333481</ele>
        <time>2023-12-04T15:07:50.698Z</time>
      </trkpt>
      <trkpt lat="38.632006" lon="16.373223">
        <ele>619.711064</ele>
        <time>2023-12-04T15:07:54.146Z</time>
      </trkpt>
      <trkpt lat="38.631860" lon="16.373156">
        <ele>620.117219</ele>
        <time>2023-12-04T15:07:57.722Z</time>
      </trkpt>
      <trkpt lat="38.631766" lon="16.372971">
        <ele>620.568679</ele>
        <time>2023-12-04T15:08:01.117Z</time>
      </trkpt>
      <trkpt lat="38.631558" lon="16.372231">
        <ele>622.177485</ele>
        <time>2023-12-04T15:08:13.068Z</time>
      </trkpt>
      <trkpt lat="38.631513" lon="16.371971">
        <ele>622.722257</ele>
        <time>2023-12-04T15:08:18.442Z</time>
      </trkpt>
      <trkpt lat="38.631523" lon="16.371373">
        <ele>624.182149</ele>
        <time>2023-12-04T15:08:33.545Z</time>
      </trkpt>
      <trkpt lat="38.631458" lon="16.371056">
        <ele>625.458163</ele>
        <time>2023-12-04T15:08:43.460Z</time>
      </trkpt>
      <trkpt lat="38.631268" lon="16.370463">
        <ele>627.953601</ele>
        <time>2023-12-04T15:09:02.496Z</time>
      </trkpt>
      <trkpt lat="38.631251" lon="16.370193">
        <ele>629.008228</ele>
        <time>2023-12-04T15:09:10.072Z</time>
      </trkpt>
      <trkpt lat="38.631378" lon="16.369630">
        <ele>631.289771</ele>
        <time>2023-12-04T15:09:25.515Z</time>
      </trkpt>
      <trkpt lat="38.631373" lon="16.369298">
        <ele>632.582619</ele>
        <time>2023-12-04T15:09:33.992Z</time>
      </trkpt>
      <trkpt lat="38.631316" lon="16.368645">
        <ele>635.454025</ele>
        <time>2023-12-04T15:09:51.356Z</time>
      </trkpt>
      <trkpt lat="38.631273" lon="16.368413">
        <ele>636.499037</ele>
        <time>2023-12-04T15:09:58.008Z</time>
      </trkpt>
      <trkpt lat="38.631161" lon="16.368250">
        <ele>637.450443</ele>
        <time>2023-12-04T15:10:04.301Z</time>
      </trkpt>
      <trkpt lat="38.630990" lon="16.368156">
        <ele>638.494529</ele>
        <time>2023-12-04T15:10:11.178Z</time>
      </trkpt>
      <trkpt lat="38.630578" lon="16.368021">
        <ele>640.880517</ele>
        <time>2023-12-04T15:10:27.341Z</time>
      </trkpt>
      <trkpt lat="38.630110" lon="16.367950">
        <ele>643.786363</ele>
        <time>2023-12-04T15:10:46.505Z</time>
      </trkpt>
      <trkpt lat="38.629901" lon="16.367960">
        <ele>645.351187</ele>
        <time>2023-12-04T15:10:55.633Z</time>
      </trkpt>
      <trkpt lat="38.629774" lon="16.368015">
        <ele>646.354304</ele>
        <time>2023-12-04T15:11:01.635Z</time>
      </trkpt>
      <trkpt lat="38.629720" lon="16.368038">
        <ele>646.780108</ele>
        <time>2023-12-04T15:11:04.237Z</time>
      </trkpt>
      <trkpt lat="38.629583" lon="16.368186">
        <ele>648.121373</ele>
        <time>2023-12-04T15:11:12.640Z</time>
      </trkpt>
      <trkpt lat="38.629466" lon="16.368375">
        <ele>649.530857</ele>
        <time>2023-12-04T15:11:21.421Z</time>
      </trkpt>
      <trkpt lat="38.628346" lon="16.370338">
        <ele>662.269882</ele>
        <time>2023-12-04T15:12:48.645Z</time>
      </trkpt>
      <trkpt lat="38.628168" lon="16.370538">
        <ele>663.696800</ele>
        <time>2023-12-04T15:12:57.455Z</time>
      </trkpt>
      <trkpt lat="38.627775" lon="16.370848">
        <ele>666.477949</ele>
        <time>2023-12-04T15:13:11.454Z</time>
      </trkpt>
      <trkpt lat="38.627290" lon="16.371466">
        <ele>669.265036</ele>
        <time>2023-12-04T15:13:27.833Z</time>
      </trkpt>
      <trkpt lat="38.627103" lon="16.371623">
        <ele>670.107872</ele>
        <time>2023-12-04T15:13:33.359Z</time>
      </trkpt>
      <trkpt lat="38.626956" lon="16.371813">
        <ele>670.895194</ele>
        <time>2023-12-04T15:13:38.962Z</time>
      </trkpt>
      <trkpt lat="38.626778" lon="16.372253">
        <ele>672.354073</ele>
        <time>2023-12-04T15:13:50.570Z</time>
      </trkpt>
      <trkpt lat="38.626626" lon="16.372370">
        <ele>673.022530</ele>
        <time>2023-12-04T15:13:56.364Z</time>
      </trkpt>
      <trkpt lat="38.626268" lon="16.372338">
        <ele>675.076463</ele>
        <time>2023-12-04T15:14:09.697Z</time>
      </trkpt>
      <trkpt lat="38.626078" lon="16.372380">
        <ele>676.708505</ele>
        <time>2023-12-04T15:14:17.682Z</time>
      </trkpt>
      <trkpt lat="38.625478" lon="16.372651">
        <ele>682.094043</ele>
        <time>2023-12-04T15:14:48.042Z</time>
      </trkpt>
      <trkpt lat="38.625291" lon="16.372800">
        <ele>683.958502</ele>
        <time>2023-12-04T15:15:00.104Z</time>
      </trkpt>
      <trkpt lat="38.625005" lon="16.373218">
        <ele>687.632853</ele>
        <time>2023-12-04T15:15:26.017Z</time>
      </trkpt>
      <trkpt lat="38.624861" lon="16.373384">
        <ele>689.136432</ele>
        <time>2023-12-04T15:15:37.518Z</time>
      </trkpt>
      <trkpt lat="38.624685" lon="16.373443">
        <ele>689.786639</ele>
        <time>2023-12-04T15:15:47.616Z</time>
      </trkpt>
      <trkpt lat="38.624531" lon="16.373446">
        <ele>690.337072</ele>
        <time>2023-12-04T15:15:55.402Z</time>
      </trkpt>
      <trkpt lat="38.624406" lon="16.373541">
        <ele>690.856612</ele>
        <time>2023-12-04T15:16:02.040Z</time>
      </trkpt>
      <trkpt lat="38.624323" lon="16.373731">
        <ele>691.464404</ele>
        <time>2023-12-04T15:16:09.165Z</time>
      </trkpt>
      <trkpt lat="38.624198" lon="16.374324">
        <ele>693.179311</ele>
        <time>2023-12-04T15:16:23.792Z</time>
      </trkpt>
      <trkpt lat="38.623970" lon="16.374575">
        <ele>694.254062</ele>
        <time>2023-12-04T15:16:28.460Z</time>
      </trkpt>
      <trkpt lat="38.623920" lon="16.374791">
        <ele>694.883068</ele>
        <time>2023-12-04T15:16:30.410Z</time>
      </trkpt>
      <trkpt lat="38.623901" lon="16.375658">
        <ele>693.417961</ele>
        <time>2023-12-04T15:16:36.866Z</time>
      </trkpt>
      <trkpt lat="38.623866" lon="16.375856">
        <ele>692.787589</ele>
        <time>2023-12-04T15:16:38.304Z</time>
      </trkpt>
      <trkpt lat="38.623773" lon="16.376036">
        <ele>692.117482</ele>
        <time>2023-12-04T15:16:39.864Z</time>
      </trkpt>
      <trkpt lat="38.623645" lon="16.376185">
        <ele>691.429807</ele>
        <time>2023-12-04T15:16:41.430Z</time>
      </trkpt>
      <trkpt lat="38.623371" lon="16.376436">
        <ele>690.090593</ele>
        <time>2023-12-04T15:16:44.553Z</time>
      </trkpt>
      <trkpt lat="38.623215" lon="16.376528">
        <ele>689.407906</ele>
        <time>2023-12-04T15:16:46.224Z</time>
      </trkpt>
      <trkpt lat="38.623038" lon="16.376546">
        <ele>688.702183</ele>
        <time>2023-12-04T15:16:47.993Z</time>
      </trkpt>
      <trkpt lat="38.622870" lon="16.376460">
        <ele>688.652574</ele>
        <time>2023-12-04T15:16:50.054Z</time>
      </trkpt>
      <trkpt lat="38.622743" lon="16.376276">
        <ele>689.424874</ele>
        <time>2023-12-04T15:16:52.456Z</time>
      </trkpt>
      <trkpt lat="38.622518" lon="16.375503">
        <ele>692.019668</ele>
        <time>2023-12-04T15:17:09.665Z</time>
      </trkpt>
      <trkpt lat="38.622301" lon="16.374958">
        <ele>693.943801</ele>
        <time>2023-12-04T15:17:30.076Z</time>
      </trkpt>
      <trkpt lat="38.622223" lon="16.374671">
        <ele>694.899647</ele>
        <time>2023-12-04T15:17:41.494Z</time>
      </trkpt>
      <trkpt lat="38.622171" lon="16.374400">
        <ele>696.010955</ele>
        <time>2023-12-04T15:17:52.269Z</time>
      </trkpt>
      <trkpt lat="38.622158" lon="16.373902">
        <ele>699.241376</ele>
        <time>2023-12-04T15:18:10.195Z</time>
      </trkpt>
      <trkpt lat="38.622136" lon="16.373819">
        <ele>699.809604</ele>
        <time>2023-12-04T15:18:13.052Z</time>
      </trkpt>
      <trkpt lat="38.622020" lon="16.373714">
        <ele>700.988574</ele>
        <time>2023-12-04T15:18:19.313Z</time>
      </trkpt>
      <trkpt lat="38.621947" lon="16.373703">
        <ele>701.598522</ele>
        <time>2023-12-04T15:18:22.687Z</time>
      </trkpt>
      <trkpt lat="38.621742" lon="16.373747">
        <ele>703.323395</ele>
        <time>2023-12-04T15:18:32.636Z</time>
      </trkpt>
      <trkpt lat="38.621483" lon="16.373874">
        <ele>705.624935</ele>
        <time>2023-12-04T15:18:46.363Z</time>
      </trkpt>
      <trkpt lat="38.621354" lon="16.373883">
        <ele>706.696985</ele>
        <time>2023-12-04T15:18:52.888Z</time>
      </trkpt>
      <trkpt lat="38.620993" lon="16.373839">
        <ele>709.706169</ele>
        <time>2023-12-04T15:19:11.406Z</time>
      </trkpt>
      <trkpt lat="38.620732" lon="16.373768">
        <ele>712.165328</ele>
        <time>2023-12-04T15:19:24.993Z</time>
      </trkpt>
      <trkpt lat="38.620649" lon="16.373736">
        <ele>713.007213</ele>
        <time>2023-12-04T15:19:29.371Z</time>
      </trkpt>
      <trkpt lat="38.620505" lon="16.373618">
        <ele>714.667835</ele>
        <time>2023-12-04T15:19:37.526Z</time>
      </trkpt>
      <trkpt lat="38.620406" lon="16.373415">
        <ele>716.483669</ele>
        <time>2023-12-04T15:19:46.560Z</time>
      </trkpt>
      <trkpt lat="38.620448" lon="16.373153">
        <ele>718.513161</ele>
        <time>2023-12-04T15:19:56.599Z</time>
      </trkpt>
      <trkpt lat="38.620678" lon="16.372328">
        <ele>725.159915</ele>
        <time>2023-12-04T15:20:33.534Z</time>
      </trkpt>
      <trkpt lat="38.620701" lon="16.372043">
        <ele>727.334016</ele>
        <time>2023-12-04T15:20:47.681Z</time>
      </trkpt>
      <trkpt lat="38.620555" lon="16.371718">
        <ele>729.931068</ele>
        <time>2023-12-04T15:21:06.806Z</time>
      </trkpt>
      <trkpt lat="38.620313" lon="16.371331">
        <ele>733.274165</ele>
        <time>2023-12-04T15:21:30.212Z</time>
      </trkpt>
      <trkpt lat="38.620138" lon="16.371121">
        <ele>735.344907</ele>
        <time>2023-12-04T15:21:43.074Z</time>
      </trkpt>
      <trkpt lat="38.619735" lon="16.370783">
        <ele>739.504055</ele>
        <time>2023-12-04T15:22:05.578Z</time>
      </trkpt>
      <trkpt lat="38.619575" lon="16.370546">
        <ele>741.616529</ele>
        <time>2023-12-04T15:22:15.589Z</time>
      </trkpt>
      <trkpt lat="38.618288" lon="16.368189">
        <ele>752.494552</ele>
        <time>2023-12-04T15:23:30.512Z</time>
      </trkpt>
      <trkpt lat="38.618105" lon="16.367948">
        <ele>753.075306</ele>
        <time>2023-12-04T15:23:38.138Z</time>
      </trkpt>
      <trkpt lat="38.617878" lon="16.367766">
        <ele>753.667756</ele>
        <time>2023-12-04T15:23:45.463Z</time>
      </trkpt>
      <trkpt lat="38.617396" lon="16.367476">
        <ele>754.845749</ele>
        <time>2023-12-04T15:23:57.846Z</time>
      </trkpt>
      <trkpt lat="38.617178" lon="16.367290">
        <ele>755.425233</ele>
        <time>2023-12-04T15:24:02.859Z</time>
      </trkpt>
      <trkpt lat="38.616998" lon="16.367036">
        <ele>755.905946</ele>
        <time>2023-12-04T15:24:07.355Z</time>
      </trkpt>
      <trkpt lat="38.616875" lon="16.366728">
        <ele>755.374657</ele>
        <time>2023-12-04T15:24:11.033Z</time>
      </trkpt>
      <trkpt lat="38.616397" lon="16.365275">
        <ele>752.953138</ele>
        <time>2023-12-04T15:24:23.832Z</time>
      </trkpt>
      <trkpt lat="38.616310" lon="16.364978">
        <ele>752.465947</ele>
        <time>2023-12-04T15:24:26.360Z</time>
      </trkpt>
      <trkpt lat="38.616268" lon="16.364913">
        <ele>752.394452</ele>
        <time>2023-12-04T15:24:27.044Z</time>
      </trkpt>
      <trkpt lat="38.615685" lon="16.364456">
        <ele>751.953697</ele>
        <time>2023-12-04T15:24:34.659Z</time>
      </trkpt>
      <trkpt lat="38.615529" lon="16.364344">
        <ele>751.838380</ele>
        <time>2023-12-04T15:24:36.935Z</time>
      </trkpt>
      <trkpt lat="38.615432" lon="16.364264">
        <ele>751.763984</ele>
        <time>2023-12-04T15:24:38.457Z</time>
      </trkpt>
      <trkpt lat="38.615366" lon="16.364153">
        <ele>751.693721</ele>
        <time>2023-12-04T15:24:40.032Z</time>
      </trkpt>
      <trkpt lat="38.615316" lon="16.364029">
        <ele>751.623430</ele>
        <time>2023-12-04T15:24:41.632Z</time>
      </trkpt>
      <trkpt lat="38.615299" lon="16.363877">
        <ele>751.546081</ele>
        <time>2023-12-04T15:24:43.398Z</time>
      </trkpt>
      <trkpt lat="38.615334" lon="16.363319">
        <ele>751.264091</ele>
        <time>2023-12-04T15:24:51.130Z</time>
      </trkpt>
      <trkpt lat="38.615453" lon="16.362292">
        <ele>752.443473</ele>
        <time>2023-12-04T15:25:09.942Z</time>
      </trkpt>
      <trkpt lat="38.615433" lon="16.362063">
        <ele>752.705869</ele>
        <time>2023-12-04T15:25:14.236Z</time>
      </trkpt>
      <trkpt lat="38.615256" lon="16.361021">
        <ele>753.917717</ele>
        <time>2023-12-04T15:25:30.709Z</time>
      </trkpt>
      <trkpt lat="38.615260" lon="16.360673">
        <ele>754.286861</ele>
        <time>2023-12-04T15:25:35.392Z</time>
      </trkpt>
      <trkpt lat="38.615312" lon="16.360299">
        <ele>754.689775</ele>
        <time>2023-12-04T15:25:40.303Z</time>
      </trkpt>
      <trkpt lat="38.615254" lon="16.359897">
        <ele>755.123362</ele>
        <time>2023-12-04T15:25:45.784Z</time>
      </trkpt>
      <trkpt lat="38.614928" lon="16.358349">
        <ele>757.978377</ele>
        <time>2023-12-04T15:26:13.573Z</time>
      </trkpt>
      <trkpt lat="38.614750" lon="16.357408">
        <ele>761.387316</ele>
        <time>2023-12-04T15:26:37.838Z</time>
      </trkpt>
      <trkpt lat="38.614598" lon="16.356363">
        <ele>765.283720</ele>
        <time>2023-12-04T15:27:11.319Z</time>
      </trkpt>
      <trkpt lat="38.614243" lon="16.355506">
        <ele>769.450614</ele>
        <time>2023-12-04T15:27:41.924Z</time>
      </trkpt>
      <trkpt lat="38.614113" lon="16.354898">
        <ele>772.158517</ele>
        <time>2023-12-04T15:28:00.502Z</time>
      </trkpt>
      <trkpt lat="38.614208" lon="16.353321">
        <ele>775.183436</ele>
        <time>2023-12-04T15:28:36.920Z</time>
      </trkpt>
      <trkpt lat="38.614195" lon="16.352780">
        <ele>775.616795</ele>
        <time>2023-12-04T15:28:43.043Z</time>
      </trkpt>
      <trkpt lat="38.614176" lon="16.352668">
        <ele>775.708557</ele>
        <time>2023-12-04T15:28:44.127Z</time>
      </trkpt>
      <trkpt lat="38.613891" lon="16.351821">
        <ele>775.310312</ele>
        <time>2023-12-04T15:28:51.812Z</time>
      </trkpt>
      <trkpt lat="38.613826" lon="16.351553">
        <ele>774.635762</ele>
        <time>2023-12-04T15:28:54.045Z</time>
      </trkpt>
      <trkpt lat="38.613705" lon="16.350580">
        <ele>772.267385</ele>
        <time>2023-12-04T15:29:01.850Z</time>
      </trkpt>
      <trkpt lat="38.613710" lon="16.350236">
        <ele>771.440319</ele>
        <time>2023-12-04T15:29:04.517Z</time>
      </trkpt>
      <trkpt lat="38.613770" lon="16.349879">
        <ele>770.598921</ele>
        <time>2023-12-04T15:29:07.287Z</time>
      </trkpt>
      <trkpt lat="38.614018" lon="16.349191">
        <ele>769.767278</ele>
        <time>2023-12-04T15:29:13.248Z</time>
      </trkpt>
      <trkpt lat="38.614118" lon="16.348838">
        <ele>769.355142</ele>
        <time>2023-12-04T15:29:16.513Z</time>
      </trkpt>
      <trkpt lat="38.614176" lon="16.348465">
        <ele>768.937704</ele>
        <time>2023-12-04T15:29:20.288Z</time>
      </trkpt>
      <trkpt lat="38.614171" lon="16.348041">
        <ele>768.472264</ele>
        <time>2023-12-04T15:29:25.604Z</time>
      </trkpt>
      <trkpt lat="38.614008" lon="16.346513">
        <ele>768.235390</ele>
        <time>2023-12-04T15:29:47.406Z</time>
      </trkpt>
      <trkpt lat="38.613963" lon="16.346155">
        <ele>768.275238</ele>
        <time>2023-12-04T15:29:52.053Z</time>
      </trkpt>
      <trkpt lat="38.613741" lon="16.345073">
        <ele>768.049886</ele>
        <time>2023-12-04T15:30:03.410Z</time>
      </trkpt>
      <trkpt lat="38.613710" lon="16.344716">
        <ele>767.764429</ele>
        <time>2023-12-04T15:30:06.487Z</time>
      </trkpt>
      <trkpt lat="38.613736" lon="16.344362">
        <ele>767.481862</ele>
        <time>2023-12-04T15:30:09.511Z</time>
      </trkpt>
      <trkpt lat="38.613724" lon="16.344017">
        <ele>767.207416</ele>
        <time>2023-12-04T15:30:12.428Z</time>
      </trkpt>
      <trkpt lat="38.613659" lon="16.343680">
        <ele>766.931561</ele>
        <time>2023-12-04T15:30:15.564Z</time>
      </trkpt>
      <trkpt lat="38.613498" lon="16.343383">
        <ele>766.644293</ele>
        <time>2023-12-04T15:30:19.134Z</time>
      </trkpt>
      <trkpt lat="38.613370" lon="16.343088">
        <ele>767.051719</ele>
        <time>2023-12-04T15:30:23.254Z</time>
      </trkpt>
      <trkpt lat="38.613311" lon="16.342763">
        <ele>767.977734</ele>
        <time>2023-12-04T15:30:28.475Z</time>
      </trkpt>
      <trkpt lat="38.613323" lon="16.342088">
        <ele>769.851586</ele>
        <time>2023-12-04T15:30:42.789Z</time>
      </trkpt>
      <trkpt lat="38.613301" lon="16.341764">
        <ele>770.754191</ele>
        <time>2023-12-04T15:30:51.128Z</time>
      </trkpt>
      <trkpt lat="38.613226" lon="16.341453">
        <ele>771.657501</ele>
        <time>2023-12-04T15:31:00.272Z</time>
      </trkpt>
      <trkpt lat="38.613000" lon="16.340732">
        <ele>774.296653</ele>
        <time>2023-12-04T15:31:24.951Z</time>
      </trkpt>
      <trkpt lat="38.612916" lon="16.340536">
        <ele>775.250685</ele>
        <time>2023-12-04T15:31:32.440Z</time>
      </trkpt>
      <trkpt lat="38.612565" lon="16.339979">
        <ele>778.304533</ele>
        <time>2023-12-04T15:31:55.457Z</time>
      </trkpt>
      <trkpt lat="38.612484" lon="16.339770">
        <ele>779.300181</ele>
        <time>2023-12-04T15:32:02.763Z</time>
      </trkpt>
      <trkpt lat="38.612443" lon="16.339641">
        <ele>779.894522</ele>
        <time>2023-12-04T15:32:06.799Z</time>
      </trkpt>
      <trkpt lat="38.612208" lon="16.338669">
        <ele>782.983794</ele>
        <time>2023-12-04T15:32:30.670Z</time>
      </trkpt>
      <trkpt lat="38.612668" lon="16.338191">
        <ele>783.512884</ele>
        <time>2023-12-04T15:32:43.451Z</time>
      </trkpt>
      <trkpt lat="38.613246" lon="16.337333">
        <ele>784.303282</ele>
        <time>2023-12-04T15:32:55.844Z</time>
      </trkpt>
      <trkpt lat="38.613356" lon="16.337174">
        <ele>783.863590</ele>
        <time>2023-12-04T15:32:57.719Z</time>
      </trkpt>
      <trkpt lat="38.613209" lon="16.336997">
        <ele>783.049026</ele>
        <time>2023-12-04T15:32:59.935Z</time>
      </trkpt>
      <trkpt lat="38.613167" lon="16.336946">
        <ele>782.815365</ele>
        <time>2023-12-04T15:33:00.540Z</time>
      </trkpt>
      <trkpt lat="38.613073" lon="16.336832">
        <ele>782.292719</ele>
        <time>2023-12-04T15:33:01.887Z</time>
      </trkpt>
      <trkpt lat="38.612656" lon="16.336318">
        <ele>779.956141</ele>
        <time>2023-12-04T15:33:07.555Z</time>
      </trkpt>
      <trkpt lat="38.612636" lon="16.336295">
        <ele>779.847624</ele>
        <time>2023-12-04T15:33:07.806Z</time>
      </trkpt>
      <trkpt lat="38.612311" lon="16.335919">
        <ele>778.079477</ele>
        <time>2023-12-04T15:33:11.882Z</time>
      </trkpt>
      <trkpt lat="38.611924" lon="16.335466">
        <ele>775.313707</ele>
        <time>2023-12-04T15:33:16.643Z</time>
      </trkpt>
      <trkpt lat="38.611812" lon="16.335356">
        <ele>774.414616</ele>
        <time>2023-12-04T15:33:17.914Z</time>
      </trkpt>
      <trkpt lat="38.611769" lon="16.335312">
        <ele>774.064003</ele>
        <time>2023-12-04T15:33:18.416Z</time>
      </trkpt>
      <trkpt lat="38.611691" lon="16.335275">
        <ele>773.534244</ele>
        <time>2023-12-04T15:33:19.175Z</time>
      </trkpt>
      <trkpt lat="38.611519" lon="16.335217">
        <ele>772.401495</ele>
        <time>2023-12-04T15:33:20.805Z</time>
      </trkpt>
      <trkpt lat="38.611364" lon="16.335224">
        <ele>771.413781</ele>
        <time>2023-12-04T15:33:22.218Z</time>
      </trkpt>
      <trkpt lat="38.611044" lon="16.335324">
        <ele>769.316021</ele>
        <time>2023-12-04T15:33:25.231Z</time>
      </trkpt>
      <trkpt lat="38.610795" lon="16.335272">
        <ele>767.709319</ele>
        <time>2023-12-04T15:33:27.521Z</time>
      </trkpt>
      <trkpt lat="38.610717" lon="16.335205">
        <ele>767.111065</ele>
        <time>2023-12-04T15:33:28.370Z</time>
      </trkpt>
      <trkpt lat="38.610661" lon="16.334725">
        <ele>764.850690</ele>
        <time>2023-12-04T15:33:31.789Z</time>
      </trkpt>
      <trkpt lat="38.610595" lon="16.334501">
        <ele>763.856405</ele>
        <time>2023-12-04T15:33:33.475Z</time>
      </trkpt>
      <trkpt lat="38.610557" lon="16.334403">
        <ele>763.402021</ele>
        <time>2023-12-04T15:33:34.246Z</time>
      </trkpt>
      <trkpt lat="38.610430" lon="16.334198">
        <ele>762.315465</ele>
        <time>2023-12-04T15:33:36.116Z</time>
      </trkpt>
      <trkpt lat="38.610256" lon="16.333996">
        <ele>761.066780</ele>
        <time>2023-12-04T15:33:38.274Z</time>
      </trkpt>
      <trkpt lat="38.610254" lon="16.333963">
        <ele>760.929308</ele>
        <time>2023-12-04T15:33:38.515Z</time>
      </trkpt>
      <trkpt lat="38.610216" lon="16.333947">
        <ele>760.716680</ele>
        <time>2023-12-04T15:33:38.890Z</time>
      </trkpt>
      <trkpt lat="38.610187" lon="16.333945">
        <ele>760.562315</ele>
        <time>2023-12-04T15:33:39.164Z</time>
      </trkpt>
      <trkpt lat="38.610117" lon="16.333940">
        <ele>760.189672</ele>
        <time>2023-12-04T15:33:39.819Z</time>
      </trkpt>
      <trkpt lat="38.609998" lon="16.333958">
        <ele>759.552761</ele>
        <time>2023-12-04T15:33:40.945Z</time>
      </trkpt>
      <trkpt lat="38.609862" lon="16.334044">
        <ele>758.746460</ele>
        <time>2023-12-04T15:33:42.402Z</time>
      </trkpt>
      <trkpt lat="38.609796" lon="16.334136">
        <ele>758.227740</ele>
        <time>2023-12-04T15:33:43.349Z</time>
      </trkpt>
      <trkpt lat="38.609742" lon="16.334311">
        <ele>757.446282</ele>
        <time>2023-12-04T15:33:44.784Z</time>
      </trkpt>
      <trkpt lat="38.609686" lon="16.334494">
        <ele>756.630011</ele>
        <time>2023-12-04T15:33:46.288Z</time>
      </trkpt>
      <trkpt lat="38.609660" lon="16.334624">
        <ele>756.072667</ele>
        <time>2023-12-04T15:33:47.311Z</time>
      </trkpt>
      <trkpt lat="38.609652" lon="16.334662">
        <ele>756.000494</ele>
        <time>2023-12-04T15:33:47.613Z</time>
      </trkpt>
      <trkpt lat="38.609504" lon="16.335067">
        <ele>755.188912</ele>
        <time>2023-12-04T15:33:51.063Z</time>
      </trkpt>
      <trkpt lat="38.609422" lon="16.335151">
        <ele>754.944916</ele>
        <time>2023-12-04T15:33:52.118Z</time>
      </trkpt>
      <trkpt lat="38.609247" lon="16.335269">
        <ele>754.485416</ele>
        <time>2023-12-04T15:33:54.124Z</time>
      </trkpt>
      <trkpt lat="38.608921" lon="16.335435">
        <ele>753.670375</ele>
        <time>2023-12-04T15:33:57.790Z</time>
      </trkpt>
      <trkpt lat="38.608733" lon="16.335527">
        <ele>753.202812</ele>
        <time>2023-12-04T15:34:00.028Z</time>
      </trkpt>
      <trkpt lat="38.608632" lon="16.335581">
        <ele>752.948537</ele>
        <time>2023-12-04T15:34:01.318Z</time>
      </trkpt>
      <trkpt lat="38.608351" lon="16.335728">
        <ele>752.243343</ele>
        <time>2023-12-04T15:34:05.029Z</time>
      </trkpt>
      <trkpt lat="38.607999" lon="16.335915">
        <ele>751.954354</ele>
        <time>2023-12-04T15:34:10.103Z</time>
      </trkpt>
      <trkpt lat="38.607911" lon="16.335961">
        <ele>751.979614</ele>
        <time>2023-12-04T15:34:11.484Z</time>
      </trkpt>
      <trkpt lat="38.607838" lon="16.336000">
        <ele>752.000634</ele>
        <time>2023-12-04T15:34:12.567Z</time>
      </trkpt>
      <trkpt lat="38.607509" lon="16.336174">
        <ele>752.095230</ele>
        <time>2023-12-04T15:34:17.952Z</time>
      </trkpt>
      <trkpt lat="38.607093" lon="16.336390">
        <ele>752.214525</ele>
        <time>2023-12-04T15:34:25.526Z</time>
      </trkpt>
      <trkpt lat="38.606531" lon="16.336676">
        <ele>752.390205</ele>
        <time>2023-12-04T15:34:36.531Z</time>
      </trkpt>
      <trkpt lat="38.606451" lon="16.336717">
        <ele>752.495627</ele>
        <time>2023-12-04T15:34:38.071Z</time>
      </trkpt>
      <trkpt lat="38.606001" lon="16.336681">
        <ele>753.047197</ele>
        <time>2023-12-04T15:34:46.781Z</time>
      </trkpt>
      <trkpt lat="38.605371" lon="16.336606">
        <ele>753.821217</ele>
        <time>2023-12-04T15:34:59.636Z</time>
      </trkpt>
      <trkpt lat="38.605142" lon="16.336578">
        <ele>754.102634</ele>
        <time>2023-12-04T15:35:04.164Z</time>
      </trkpt>
      <trkpt lat="38.605034" lon="16.336565">
        <ele>754.235336</ele>
        <time>2023-12-04T15:35:06.395Z</time>
      </trkpt>
      <trkpt lat="38.604305" lon="16.336477">
        <ele>755.027507</ele>
        <time>2023-12-04T15:35:21.319Z</time>
      </trkpt>
      <trkpt lat="38.604213" lon="16.336466">
        <ele>755.119622</ele>
        <time>2023-12-04T15:35:23.112Z</time>
      </trkpt>
      <trkpt lat="38.603797" lon="16.336416">
        <ele>755.536161</ele>
        <time>2023-12-04T15:35:31.145Z</time>
      </trkpt>
      <trkpt lat="38.603710" lon="16.336406">
        <ele>755.623241</ele>
        <time>2023-12-04T15:35:32.765Z</time>
      </trkpt>
      <trkpt lat="38.602962" lon="16.336336">
        <ele>756.372662</ele>
        <time>2023-12-04T15:35:45.672Z</time>
      </trkpt>
      <trkpt lat="38.602877" lon="16.336357">
        <ele>756.482341</ele>
        <time>2023-12-04T15:35:47.210Z</time>
      </trkpt>
      <trkpt lat="38.602830" lon="16.336371">
        <ele>756.543480</ele>
        <time>2023-12-04T15:35:48.018Z</time>
      </trkpt>
      <trkpt lat="38.602507" lon="16.336481">
        <ele>756.966950</ele>
        <time>2023-12-04T15:35:53.861Z</time>
      </trkpt>
      <trkpt lat="38.602459" lon="16.336501">
        <ele>757.030907</ele>
        <time>2023-12-04T15:35:54.817Z</time>
      </trkpt>
      <trkpt lat="38.602128" lon="16.336649">
        <ele>757.475132</ele>
        <time>2023-12-04T15:36:01.924Z</time>
      </trkpt>
      <trkpt lat="38.602049" lon="16.336685">
        <ele>757.581379</ele>
        <time>2023-12-04T15:36:03.689Z</time>
      </trkpt>
      <trkpt lat="38.601984" lon="16.336713">
        <ele>757.668272</ele>
        <time>2023-12-04T15:36:05.078Z</time>
      </trkpt>
      <trkpt lat="38.601905" lon="16.336740">
        <ele>757.771869</ele>
        <time>2023-12-04T15:36:06.930Z</time>
      </trkpt>
      <trkpt lat="38.601803" lon="16.336764">
        <ele>757.903265</ele>
        <time>2023-12-04T15:36:09.268Z</time>
      </trkpt>
      <trkpt lat="38.601756" lon="16.336750">
        <ele>757.964404</ele>
        <time>2023-12-04T15:36:10.371Z</time>
      </trkpt>
      <trkpt lat="38.601711" lon="16.336774">
        <ele>758.026171</ele>
        <time>2023-12-04T15:36:11.419Z</time>
      </trkpt>
      <trkpt lat="38.601695" lon="16.336798">
        <ele>758.057405</ele>
        <time>2023-12-04T15:36:11.926Z</time>
      </trkpt>
      <trkpt lat="38.601633" lon="16.336851">
        <ele>758.151872</ele>
        <time>2023-12-04T15:36:13.536Z</time>
      </trkpt>
      <trkpt lat="38.601546" lon="16.336879">
        <ele>758.265530</ele>
        <time>2023-12-04T15:36:15.650Z</time>
      </trkpt>
      <trkpt lat="38.601296" lon="16.336955">
        <ele>758.591084</ele>
        <time>2023-12-04T15:36:21.072Z</time>
      </trkpt>
      <trkpt lat="38.600908" lon="16.337073">
        <ele>759.019716</ele>
        <time>2023-12-04T15:36:29.189Z</time>
      </trkpt>
      <trkpt lat="38.600699" lon="16.337137">
        <ele>759.245932</ele>
        <time>2023-12-04T15:36:33.415Z</time>
      </trkpt>
      <trkpt lat="38.600597" lon="16.337175">
        <ele>759.357760</ele>
        <time>2023-12-04T15:36:35.352Z</time>
      </trkpt>
      <trkpt lat="38.600396" lon="16.337294">
        <ele>759.590892</ele>
        <time>2023-12-04T15:36:39.670Z</time>
      </trkpt>
      <trkpt lat="38.600228" lon="16.337559">
        <ele>759.871606</ele>
        <time>2023-12-04T15:36:44.603Z</time>
      </trkpt>
      <trkpt lat="38.600086" lon="16.337835">
        <ele>760.143446</ele>
        <time>2023-12-04T15:36:49.310Z</time>
      </trkpt>
      <trkpt lat="38.599649" lon="16.338717">
        <ele>761.157658</ele>
        <time>2023-12-04T15:37:03.695Z</time>
      </trkpt>
      <trkpt lat="38.599425" lon="16.339120">
        <ele>761.699904</ele>
        <time>2023-12-04T15:37:09.865Z</time>
      </trkpt>
      <trkpt lat="38.599351" lon="16.339223">
        <ele>761.853313</ele>
        <time>2023-12-04T15:37:11.693Z</time>
      </trkpt>
      <trkpt lat="38.599145" lon="16.339395">
        <ele>762.198424</ele>
        <time>2023-12-04T15:37:15.987Z</time>
      </trkpt>
      <trkpt lat="38.599063" lon="16.339450">
        <ele>762.328319</ele>
        <time>2023-12-04T15:37:17.776Z</time>
      </trkpt>
      <trkpt lat="38.598115" lon="16.339856">
        <ele>765.887726</ele>
        <time>2023-12-04T15:37:44.025Z</time>
      </trkpt>
      <trkpt lat="38.597375" lon="16.340216">
        <ele>770.569984</ele>
        <time>2023-12-04T15:38:15.902Z</time>
      </trkpt>
      <trkpt lat="38.597226" lon="16.340327">
        <ele>771.589700</ele>
        <time>2023-12-04T15:38:23.931Z</time>
      </trkpt>
      <trkpt lat="38.596832" lon="16.340624">
        <ele>774.538076</ele>
        <time>2023-12-04T15:38:45.550Z</time>
      </trkpt>
      <trkpt lat="38.596752" lon="16.340650">
        <ele>775.225807</ele>
        <time>2023-12-04T15:38:49.656Z</time>
      </trkpt>
      <trkpt lat="38.596670" lon="16.340632">
        <ele>775.919017</ele>
        <time>2023-12-04T15:38:54.017Z</time>
      </trkpt>
      <trkpt lat="38.596582" lon="16.340544">
        <ele>776.849610</ele>
        <time>2023-12-04T15:38:59.758Z</time>
      </trkpt>
      <trkpt lat="38.595788" lon="16.339276">
        <ele>787.430191</ele>
        <time>2023-12-04T15:40:04.893Z</time>
      </trkpt>
      <trkpt lat="38.594593" lon="16.338304">
        <ele>795.047909</ele>
        <time>2023-12-04T15:40:59.045Z</time>
      </trkpt>
      <trkpt lat="38.594453" lon="16.338106">
        <ele>796.097265</ele>
        <time>2023-12-04T15:41:04.640Z</time>
      </trkpt>
      <trkpt lat="38.594273" lon="16.337570">
        <ele>798.023906</ele>
        <time>2023-12-04T15:41:15.866Z</time>
      </trkpt>
      <trkpt lat="38.593823" lon="16.336590">
        <ele>800.017904</ele>
        <time>2023-12-04T15:41:34.426Z</time>
      </trkpt>
      <trkpt lat="38.593655" lon="16.336559">
        <ele>800.398895</ele>
        <time>2023-12-04T15:41:38.090Z</time>
      </trkpt>
      <trkpt lat="38.593478" lon="16.336651">
        <ele>800.827719</ele>
        <time>2023-12-04T15:41:42.194Z</time>
      </trkpt>
      <trkpt lat="38.592869" lon="16.337056">
        <ele>802.860768</ele>
        <time>2023-12-04T15:42:00.473Z</time>
      </trkpt>
      <trkpt lat="38.592581" lon="16.337248">
        <ele>804.185607</ele>
        <time>2023-12-04T15:42:10.706Z</time>
      </trkpt>
      <trkpt lat="38.592241" lon="16.337575">
        <ele>805.920842</ele>
        <time>2023-12-04T15:42:24.978Z</time>
      </trkpt>
      <trkpt lat="38.591953" lon="16.337986">
        <ele>807.680912</ele>
        <time>2023-12-04T15:42:39.373Z</time>
      </trkpt>
      <trkpt lat="38.591766" lon="16.338083">
        <ele>808.504100</ele>
        <time>2023-12-04T15:42:45.898Z</time>
      </trkpt>
      <trkpt lat="38.591520" lon="16.338053">
        <ele>809.329151</ele>
        <time>2023-12-04T15:42:53.890Z</time>
      </trkpt>
      <trkpt lat="38.591069" lon="16.337789">
        <ele>810.446159</ele>
        <time>2023-12-04T15:43:09.417Z</time>
      </trkpt>
      <trkpt lat="38.590524" lon="16.337470">
        <ele>811.795964</ele>
        <time>2023-12-04T15:43:24.270Z</time>
      </trkpt>
      <trkpt lat="38.590242" lon="16.337306">
        <ele>812.493621</ele>
        <time>2023-12-04T15:43:30.123Z</time>
      </trkpt>
      <trkpt lat="38.589762" lon="16.337025">
        <ele>812.761365</ele>
        <time>2023-12-04T15:43:37.634Z</time>
      </trkpt>
      <trkpt lat="38.589382" lon="16.336535">
        <ele>811.856881</ele>
        <time>2023-12-04T15:43:44.050Z</time>
      </trkpt>
      <trkpt lat="38.589354" lon="16.336504">
        <ele>811.794805</ele>
        <time>2023-12-04T15:43:44.485Z</time>
      </trkpt>
      <trkpt lat="38.589300" lon="16.336494">
        <ele>811.703334</ele>
        <time>2023-12-04T15:43:45.148Z</time>
      </trkpt>
      <trkpt lat="38.589002" lon="16.336475">
        <ele>811.203136</ele>
        <time>2023-12-04T15:43:48.482Z</time>
      </trkpt>
      <trkpt lat="38.588812" lon="16.336432">
        <ele>810.879667</ele>
        <time>2023-12-04T15:43:50.595Z</time>
      </trkpt>
      <trkpt lat="38.588702" lon="16.336391">
        <ele>810.687592</ele>
        <time>2023-12-04T15:43:51.779Z</time>
      </trkpt>
      <trkpt lat="38.587920" lon="16.335966">
        <ele>808.827790</ele>
        <time>2023-12-04T15:44:00.277Z</time>
      </trkpt>
      <trkpt lat="38.587738" lon="16.336008">
        <ele>808.363621</ele>
        <time>2023-12-04T15:44:02.124Z</time>
      </trkpt>
      <trkpt lat="38.587326" lon="16.336483">
        <ele>806.971608</ele>
        <time>2023-12-04T15:44:07.897Z</time>
      </trkpt>
      <trkpt lat="38.586882" lon="16.336571">
        <ele>805.843930</ele>
        <time>2023-12-04T15:44:13.097Z</time>
      </trkpt>
      <trkpt lat="38.586726" lon="16.336556">
        <ele>805.526276</ele>
        <time>2023-12-04T15:44:15.212Z</time>
      </trkpt>
      <trkpt lat="38.586385" lon="16.336388">
        <ele>805.005634</ele>
        <time>2023-12-04T15:44:19.495Z</time>
      </trkpt>
      <trkpt lat="38.586255" lon="16.336208">
        <ele>804.732693</ele>
        <time>2023-12-04T15:44:21.573Z</time>
      </trkpt>
      <trkpt lat="38.586081" lon="16.335809">
        <ele>804.223836</ele>
        <time>2023-12-04T15:44:25.493Z</time>
      </trkpt>
      <trkpt lat="38.586000" lon="16.335731">
        <ele>804.079386</ele>
        <time>2023-12-04T15:44:26.622Z</time>
      </trkpt>
      <trkpt lat="38.585946" lon="16.335678">
        <ele>803.982411</ele>
        <time>2023-12-04T15:44:27.409Z</time>
      </trkpt>
      <trkpt lat="38.585625" lon="16.335610">
        <ele>803.518820</ele>
        <time>2023-12-04T15:44:31.083Z</time>
      </trkpt>
      <trkpt lat="38.585525" lon="16.335697">
        <ele>803.346514</ele>
        <time>2023-12-04T15:44:32.711Z</time>
      </trkpt>
      <trkpt lat="38.585500" lon="16.335718">
        <ele>803.303901</ele>
        <time>2023-12-04T15:44:33.099Z</time>
      </trkpt>
      <trkpt lat="38.585396" lon="16.336336">
        <ele>802.947268</ele>
        <time>2023-12-04T15:44:39.404Z</time>
      </trkpt>
      <trkpt lat="38.585315" lon="16.336525">
        <ele>802.887663</ele>
        <time>2023-12-04T15:44:42.054Z</time>
      </trkpt>
      <trkpt lat="38.585186" lon="16.336663">
        <ele>802.828174</ele>
        <time>2023-12-04T15:44:44.283Z</time>
      </trkpt>
      <trkpt lat="38.585031" lon="16.336720">
        <ele>802.771120</ele>
        <time>2023-12-04T15:44:46.701Z</time>
      </trkpt>
      <trkpt lat="38.584896" lon="16.336717">
        <ele>802.723354</ele>
        <time>2023-12-04T15:44:48.632Z</time>
      </trkpt>
      <trkpt lat="38.584762" lon="16.336553">
        <ele>802.657749</ele>
        <time>2023-12-04T15:44:50.966Z</time>
      </trkpt>
      <trkpt lat="38.584579" lon="16.335991">
        <ele>802.489391</ele>
        <time>2023-12-04T15:44:57.201Z</time>
      </trkpt>
      <trkpt lat="38.584441" lon="16.335565">
        <ele>802.366145</ele>
        <time>2023-12-04T15:45:02.705Z</time>
      </trkpt>
      <trkpt lat="38.584209" lon="16.335285">
        <ele>802.260863</ele>
        <time>2023-12-04T15:45:08.332Z</time>
      </trkpt>
      <trkpt lat="38.583768" lon="16.334861">
        <ele>802.078767</ele>
        <time>2023-12-04T15:45:17.772Z</time>
      </trkpt>
      <trkpt lat="38.583646" lon="16.334743">
        <ele>802.028281</ele>
        <time>2023-12-04T15:45:20.741Z</time>
      </trkpt>
      <trkpt lat="38.582001" lon="16.333254">
        <ele>799.382808</ele>
        <time>2023-12-04T15:45:43.180Z</time>
      </trkpt>
      <trkpt lat="38.581825" lon="16.333109">
        <ele>799.021878</ele>
        <time>2023-12-04T15:45:45.491Z</time>
      </trkpt>
      <trkpt lat="38.581643" lon="16.333009">
        <ele>798.715643</ele>
        <time>2023-12-04T15:45:47.719Z</time>
      </trkpt>
      <trkpt lat="38.581564" lon="16.332973">
        <ele>798.671895</ele>
        <time>2023-12-04T15:45:48.698Z</time>
      </trkpt>
      <trkpt lat="38.581523" lon="16.332890">
        <ele>798.631856</ele>
        <time>2023-12-04T15:45:49.575Z</time>
      </trkpt>
      <trkpt lat="38.581306" lon="16.332796">
        <ele>798.512341</ele>
        <time>2023-12-04T15:45:52.298Z</time>
      </trkpt>
      <trkpt lat="38.580877" lon="16.332712">
        <ele>798.285940</ele>
        <time>2023-12-04T15:45:57.795Z</time>
      </trkpt>
      <trkpt lat="38.580794" lon="16.332680">
        <ele>798.240718</ele>
        <time>2023-12-04T15:45:58.973Z</time>
      </trkpt>
      <trkpt lat="38.580762" lon="16.332706">
        <ele>798.220942</ele>
        <time>2023-12-04T15:45:59.502Z</time>
      </trkpt>
      <trkpt lat="38.580745" lon="16.332803">
        <ele>798.180403</ele>
        <time>2023-12-04T15:46:00.513Z</time>
      </trkpt>
      <trkpt lat="38.580520" lon="16.332805">
        <ele>798.063025</ele>
        <time>2023-12-04T15:46:04.929Z</time>
      </trkpt>
      <trkpt lat="38.580069" lon="16.332896">
        <ele>797.824846</ele>
        <time>2023-12-04T15:46:14.407Z</time>
      </trkpt>
      <trkpt lat="38.580014" lon="16.332874">
        <ele>797.794784</ele>
        <time>2023-12-04T15:46:15.620Z</time>
      </trkpt>
      <trkpt lat="38.579836" lon="16.332801">
        <ele>797.901845</ele>
        <time>2023-12-04T15:46:20.028Z</time>
      </trkpt>
      <trkpt lat="38.579710" lon="16.332724">
        <ele>797.985234</ele>
        <time>2023-12-04T15:46:23.202Z</time>
      </trkpt>
      <trkpt lat="38.579547" lon="16.332569">
        <ele>798.106521</ele>
        <time>2023-12-04T15:46:27.985Z</time>
      </trkpt>
      <trkpt lat="38.579523" lon="16.332548">
        <ele>798.123885</ele>
        <time>2023-12-04T15:46:28.709Z</time>
      </trkpt>
      <trkpt lat="38.579382" lon="16.332426">
        <ele>798.225538</ele>
        <time>2023-12-04T15:46:32.504Z</time>
      </trkpt>
      <trkpt lat="38.579295" lon="16.332254">
        <ele>798.321175</ele>
        <time>2023-12-04T15:46:36.277Z</time>
      </trkpt>
      <trkpt lat="38.579199" lon="16.332168">
        <ele>798.391164</ele>
        <time>2023-12-04T15:46:38.967Z</time>
      </trkpt>
      <trkpt lat="38.579096" lon="16.332079">
        <ele>798.465390</ele>
        <time>2023-12-04T15:46:41.719Z</time>
      </trkpt>
      <trkpt lat="38.579017" lon="16.331988">
        <ele>798.528874</ele>
        <time>2023-12-04T15:46:44.174Z</time>
      </trkpt>
      <trkpt lat="38.578739" lon="16.331703">
        <ele>798.741623</ele>
        <time>2023-12-04T15:46:52.348Z</time>
      </trkpt>
      <trkpt lat="38.578697" lon="16.331664">
        <ele>798.772615</ele>
        <time>2023-12-04T15:46:53.554Z</time>
      </trkpt>
      <trkpt lat="38.578639" lon="16.331618">
        <ele>798.813368</ele>
        <time>2023-12-04T15:46:55.106Z</time>
      </trkpt>
      <trkpt lat="38.578471" lon="16.331455">
        <ele>798.980829</ele>
        <time>2023-12-04T15:46:59.878Z</time>
      </trkpt>
      <trkpt lat="38.578431" lon="16.331414">
        <ele>799.028968</ele>
        <time>2023-12-04T15:47:01.035Z</time>
      </trkpt>
      <trkpt lat="38.578369" lon="16.331350">
        <ele>799.103791</ele>
        <time>2023-12-04T15:47:02.782Z</time>
      </trkpt>
      <trkpt lat="38.578093" lon="16.331052">
        <ele>799.442993</ele>
        <time>2023-12-04T15:47:10.853Z</time>
      </trkpt>
      <trkpt lat="38.577601" lon="16.330699">
        <ele>799.972783</ele>
        <time>2023-12-04T15:47:24.282Z</time>
      </trkpt>
      <trkpt lat="38.577218" lon="16.330449">
        <ele>800.376608</ele>
        <time>2023-12-04T15:47:35.254Z</time>
      </trkpt>
      <trkpt lat="38.577142" lon="16.330333">
        <ele>800.487730</ele>
        <time>2023-12-04T15:47:38.194Z</time>
      </trkpt>
      <trkpt lat="38.577133" lon="16.330254">
        <ele>800.546345</ele>
        <time>2023-12-04T15:47:39.407Z</time>
      </trkpt>
      <trkpt lat="38.577108" lon="16.330229">
        <ele>800.592899</ele>
        <time>2023-12-04T15:47:40.038Z</time>
      </trkpt>
      <trkpt lat="38.577048" lon="16.330233">
        <ele>800.696157</ele>
        <time>2023-12-04T15:47:41.297Z</time>
      </trkpt>
      <trkpt lat="38.577017" lon="16.330298">
        <ele>800.798458</ele>
        <time>2023-12-04T15:47:42.563Z</time>
      </trkpt>
      <trkpt lat="38.576917" lon="16.330241">
        <ele>800.986612</ele>
        <time>2023-12-04T15:47:44.800Z</time>
      </trkpt>
      <trkpt lat="38.576878" lon="16.330213">
        <ele>801.063474</ele>
        <time>2023-12-04T15:47:45.686Z</time>
      </trkpt>
      <trkpt lat="38.576838" lon="16.330185">
        <ele>801.141839</ele>
        <time>2023-12-04T15:47:46.605Z</time>
      </trkpt>
      <trkpt lat="38.576465" lon="16.329955">
        <ele>801.853484</ele>
        <time>2023-12-04T15:47:55.252Z</time>
      </trkpt>
      <trkpt lat="38.575473" lon="16.329024">
        <ele>803.994612</ele>
        <time>2023-12-04T15:48:22.944Z</time>
      </trkpt>
      <trkpt lat="38.574816" lon="16.328468">
        <ele>805.460645</ele>
        <time>2023-12-04T15:48:41.156Z</time>
      </trkpt>
      <trkpt lat="38.574304" lon="16.327980">
        <ele>806.648904</ele>
        <time>2023-12-04T15:48:54.989Z</time>
      </trkpt>
      <trkpt lat="38.574131" lon="16.327805">
        <ele>807.046335</ele>
        <time>2023-12-04T15:48:59.650Z</time>
      </trkpt>
      <trkpt lat="38.573981" lon="16.327621">
        <ele>807.355540</ele>
        <time>2023-12-04T15:49:04.036Z</time>
      </trkpt>
      <trkpt lat="38.573638" lon="16.327306">
        <ele>807.983758</ele>
        <time>2023-12-04T15:49:13.028Z</time>
      </trkpt>
      <trkpt lat="38.573077" lon="16.326772">
        <ele>809.024157</ele>
        <time>2023-12-04T15:49:27.522Z</time>
      </trkpt>
      <trkpt lat="38.572718" lon="16.326427">
        <ele>809.684990</ele>
        <time>2023-12-04T15:49:36.587Z</time>
      </trkpt>
      <trkpt lat="38.572376" lon="16.326088">
        <ele>810.115618</ele>
        <time>2023-12-04T15:49:45.413Z</time>
      </trkpt>
      <trkpt lat="38.572022" lon="16.325737">
        <ele>810.561406</ele>
        <time>2023-12-04T15:49:54.109Z</time>
      </trkpt>
      <trkpt lat="38.571675" lon="16.325403">
        <ele>810.993629</ele>
        <time>2023-12-04T15:50:02.111Z</time>
      </trkpt>
      <trkpt lat="38.571265" lon="16.324990">
        <ele>811.502560</ele>
        <time>2023-12-04T15:50:11.151Z</time>
      </trkpt>
      <trkpt lat="38.570339" lon="16.324157">
        <ele>812.404526</ele>
        <time>2023-12-04T15:50:30.416Z</time>
      </trkpt>
      <trkpt lat="38.569277" lon="16.323076">
        <ele>813.879230</ele>
        <time>2023-12-04T15:50:56.771Z</time>
      </trkpt>
      <trkpt lat="38.568992" lon="16.322608">
        <ele>814.494121</ele>
        <time>2023-12-04T15:51:06.816Z</time>
      </trkpt>
      <trkpt lat="38.568801" lon="16.322246">
        <ele>814.946802</ele>
        <time>2023-12-04T15:51:14.196Z</time>
      </trkpt>
      <trkpt lat="38.567720" lon="16.320223">
        <ele>817.064877</ele>
        <time>2023-12-04T15:51:50.733Z</time>
      </trkpt>
      <trkpt lat="38.567462" lon="16.319916">
        <ele>817.525326</ele>
        <time>2023-12-04T15:51:57.088Z</time>
      </trkpt>
      <trkpt lat="38.567305" lon="16.319982">
        <ele>817.764634</ele>
        <time>2023-12-04T15:52:00.085Z</time>
      </trkpt>
      <trkpt lat="38.566848" lon="16.320924">
        <ele>819.019782</ele>
        <time>2023-12-04T15:52:17.628Z</time>
      </trkpt>
      <trkpt lat="38.566773" lon="16.321138">
        <ele>819.285299</ele>
        <time>2023-12-04T15:52:21.476Z</time>
      </trkpt>
      <trkpt lat="38.566770" lon="16.321393">
        <ele>819.574042</ele>
        <time>2023-12-04T15:52:25.824Z</time>
      </trkpt>
      <trkpt lat="38.566931" lon="16.321960">
        <ele>820.458741</ele>
        <time>2023-12-04T15:52:36.965Z</time>
      </trkpt>
      <trkpt lat="38.566932" lon="16.322176">
        <ele>820.814084</ele>
        <time>2023-12-04T15:52:41.077Z</time>
      </trkpt>
      <trkpt lat="38.566843" lon="16.322459">
        <ele>821.315890</ele>
        <time>2023-12-04T15:52:46.945Z</time>
      </trkpt>
      <trkpt lat="38.565530" lon="16.323869">
        <ele>824.610345</ele>
        <time>2023-12-04T15:53:26.551Z</time>
      </trkpt>
      <trkpt lat="38.565382" lon="16.324118">
        <ele>825.003618</ele>
        <time>2023-12-04T15:53:31.450Z</time>
      </trkpt>
      <trkpt lat="38.564770" lon="16.324952">
        <ele>826.441746</ele>
        <time>2023-12-04T15:53:49.240Z</time>
      </trkpt>
      <trkpt lat="38.564695" lon="16.325171">
        <ele>826.865750</ele>
        <time>2023-12-04T15:53:53.211Z</time>
      </trkpt>
      <trkpt lat="38.564812" lon="16.325856">
        <ele>828.175771</ele>
        <time>2023-12-04T15:54:07.748Z</time>
      </trkpt>
      <trkpt lat="38.564247" lon="16.325879">
        <ele>829.526537</ele>
        <time>2023-12-04T15:54:21.219Z</time>
      </trkpt>
      <trkpt lat="38.564181" lon="16.325881">
        <ele>829.684290</ele>
        <time>2023-12-04T15:54:22.858Z</time>
      </trkpt>
      <trkpt lat="38.563837" lon="16.325910">
        <ele>830.508071</ele>
        <time>2023-12-04T15:54:32.292Z</time>
      </trkpt>
      <trkpt lat="38.563707" lon="16.325921">
        <ele>830.851598</ele>
        <time>2023-12-04T15:54:35.969Z</time>
      </trkpt>
      <trkpt lat="38.563624" lon="16.325928">
        <ele>831.244199</ele>
        <time>2023-12-04T15:54:38.561Z</time>
      </trkpt>
      <trkpt lat="38.563014" lon="16.325979">
        <ele>834.129470</ele>
        <time>2023-12-04T15:54:58.982Z</time>
      </trkpt>
      <trkpt lat="38.562579" lon="16.326015">
        <ele>836.186912</ele>
        <time>2023-12-04T15:55:14.736Z</time>
      </trkpt>
      <trkpt lat="38.562553" lon="16.326017">
        <ele>836.309850</ele>
        <time>2023-12-04T15:55:15.681Z</time>
      </trkpt>
      <trkpt lat="38.561928" lon="16.326069">
        <ele>839.266010</ele>
        <time>2023-12-04T15:55:37.584Z</time>
      </trkpt>
      <trkpt lat="38.561679" lon="16.326090">
        <ele>840.398901</ele>
        <time>2023-12-04T15:55:46.318Z</time>
      </trkpt>
      <trkpt lat="38.561361" lon="16.326116">
        <ele>841.845060</ele>
        <time>2023-12-04T15:55:57.512Z</time>
      </trkpt>
      <trkpt lat="38.561135" lon="16.326135">
        <ele>842.872952</ele>
        <time>2023-12-04T15:56:05.363Z</time>
      </trkpt>
      <trkpt lat="38.560469" lon="16.326191">
        <ele>845.902055</ele>
        <time>2023-12-04T15:56:27.554Z</time>
      </trkpt>
      <trkpt lat="38.560404" lon="16.326196">
        <ele>846.197584</ele>
        <time>2023-12-04T15:56:29.630Z</time>
      </trkpt>
      <trkpt lat="38.559257" lon="16.326293">
        <ele>850.657850</ele>
        <time>2023-12-04T15:57:02.761Z</time>
      </trkpt>
      <trkpt lat="38.558301" lon="16.326374">
        <ele>854.200629</ele>
        <time>2023-12-04T15:57:31.025Z</time>
      </trkpt>
      <trkpt lat="38.557604" lon="16.326433">
        <ele>857.202190</ele>
        <time>2023-12-04T15:57:52.601Z</time>
      </trkpt>
      <trkpt lat="38.556418" lon="16.326533">
        <ele>862.350085</ele>
        <time>2023-12-04T15:58:31.525Z</time>
      </trkpt>
      <trkpt lat="38.555858" lon="16.326581">
        <ele>864.945621</ele>
        <time>2023-12-04T15:58:50.631Z</time>
      </trkpt>
      <trkpt lat="38.555809" lon="16.326587">
        <ele>865.173258</ele>
        <time>2023-12-04T15:58:52.291Z</time>
      </trkpt>
      <trkpt lat="38.555597" lon="16.326606">
        <ele>866.156058</ele>
        <time>2023-12-04T15:58:59.364Z</time>
      </trkpt>
      <trkpt lat="38.555455" lon="16.326590">
        <ele>866.815283</ele>
        <time>2023-12-04T15:59:04.081Z</time>
      </trkpt>
      <trkpt lat="38.555291" lon="16.326469">
        <ele>867.690885</ele>
        <time>2023-12-04T15:59:10.279Z</time>
      </trkpt>
      <trkpt lat="38.555218" lon="16.326367">
        <ele>868.190918</ele>
        <time>2023-12-04T15:59:13.865Z</time>
      </trkpt>
      <trkpt lat="38.555047" lon="16.325997">
        <ele>869.745197</ele>
        <time>2023-12-04T15:59:24.892Z</time>
      </trkpt>
      <trkpt lat="38.554590" lon="16.325019">
        <ele>874.565476</ele>
        <time>2023-12-04T15:59:55.154Z</time>
      </trkpt>
      <trkpt lat="38.554413" lon="16.324622">
        <ele>876.525000</ele>
        <time>2023-12-04T16:00:08.150Z</time>
      </trkpt>
      <trkpt lat="38.554379" lon="16.324545">
        <ele>876.904166</ele>
        <time>2023-12-04T16:00:10.724Z</time>
      </trkpt>
      <trkpt lat="38.553826" lon="16.323346">
        <ele>883.890661</ele>
        <time>2023-12-04T16:00:55.346Z</time>
      </trkpt>
      <trkpt lat="38.553676" lon="16.323184">
        <ele>885.342964</ele>
        <time>2023-12-04T16:01:04.192Z</time>
      </trkpt>
      <trkpt lat="38.553309" lon="16.322908">
        <ele>888.492275</ele>
        <time>2023-12-04T16:01:23.761Z</time>
      </trkpt>
      <trkpt lat="38.553190" lon="16.322866">
        <ele>889.405411</ele>
        <time>2023-12-04T16:01:29.631Z</time>
      </trkpt>
      <trkpt lat="38.553120" lon="16.322841">
        <ele>889.943005</ele>
        <time>2023-12-04T16:01:33.040Z</time>
      </trkpt>
      <trkpt lat="38.552921" lon="16.322862">
        <ele>891.419979</ele>
        <time>2023-12-04T16:01:42.147Z</time>
      </trkpt>
      <trkpt lat="38.552663" lon="16.323017">
        <ele>893.561351</ele>
        <time>2023-12-04T16:01:55.287Z</time>
      </trkpt>
      <trkpt lat="38.552390" lon="16.323001">
        <ele>895.831335</ele>
        <time>2023-12-04T16:02:08.055Z</time>
      </trkpt>
      <trkpt lat="38.552283" lon="16.322857">
        <ele>897.121635</ele>
        <time>2023-12-04T16:02:15.324Z</time>
      </trkpt>
      <trkpt lat="38.552075" lon="16.322355">
        <ele>900.811950</ele>
        <time>2023-12-04T16:02:36.394Z</time>
      </trkpt>
      <trkpt lat="38.552015" lon="16.322288">
        <ele>901.473610</ele>
        <time>2023-12-04T16:02:40.228Z</time>
      </trkpt>
      <trkpt lat="38.551855" lon="16.322253">
        <ele>902.821915</ele>
        <time>2023-12-04T16:02:47.916Z</time>
      </trkpt>
      <trkpt lat="38.551671" lon="16.322266">
        <ele>904.352595</ele>
        <time>2023-12-04T16:02:56.891Z</time>
      </trkpt>
      <trkpt lat="38.551423" lon="16.322342">
        <ele>906.470875</ele>
        <time>2023-12-04T16:03:09.623Z</time>
      </trkpt>
      <trkpt lat="38.551280" lon="16.322309">
        <ele>907.677856</ele>
        <time>2023-12-04T16:03:16.927Z</time>
      </trkpt>
      <trkpt lat="38.550958" lon="16.322127">
        <ele>910.676246</ele>
        <time>2023-12-04T16:03:34.773Z</time>
      </trkpt>
      <trkpt lat="38.550781" lon="16.321987">
        <ele>912.458373</ele>
        <time>2023-12-04T16:03:45.290Z</time>
      </trkpt>
      <trkpt lat="38.550572" lon="16.321730">
        <ele>914.941228</ele>
        <time>2023-12-04T16:03:59.952Z</time>
      </trkpt>
      <trkpt lat="38.550068" lon="16.321322">
        <ele>920.049008</ele>
        <time>2023-12-04T16:04:28.872Z</time>
      </trkpt>
      <trkpt lat="38.549896" lon="16.321102">
        <ele>922.132172</ele>
        <time>2023-12-04T16:04:40.482Z</time>
      </trkpt>
      <trkpt lat="38.549782" lon="16.320792">
        <ele>924.346451</ele>
        <time>2023-12-04T16:04:53.309Z</time>
      </trkpt>
      <trkpt lat="38.549632" lon="16.320239">
        <ele>927.886728</ele>
        <time>2023-12-04T16:05:15.177Z</time>
      </trkpt>
      <trkpt lat="38.549699" lon="16.320035">
        <ele>929.225008</ele>
        <time>2023-12-04T16:05:23.249Z</time>
      </trkpt>
      <trkpt lat="38.549942" lon="16.319858">
        <ele>931.387900</ele>
        <time>2023-12-04T16:05:36.171Z</time>
      </trkpt>
      <trkpt lat="38.550270" lon="16.319691">
        <ele>934.118344</ele>
        <time>2023-12-04T16:05:52.092Z</time>
      </trkpt>
      <trkpt lat="38.550325" lon="16.319637">
        <ele>934.654642</ele>
        <time>2023-12-04T16:05:55.269Z</time>
      </trkpt>
      <trkpt lat="38.550362" lon="16.319563">
        <ele>935.185882</ele>
        <time>2023-12-04T16:05:58.359Z</time>
      </trkpt>
      <trkpt lat="38.550358" lon="16.319402">
        <ele>936.160170</ele>
        <time>2023-12-04T16:06:03.884Z</time>
      </trkpt>
      <trkpt lat="38.550177" lon="16.319069">
        <ele>938.646289</ele>
        <time>2023-12-04T16:06:17.290Z</time>
      </trkpt>
      <trkpt lat="38.549875" lon="16.318704">
        <ele>941.957519</ele>
        <time>2023-12-04T16:06:34.802Z</time>
      </trkpt>
      <trkpt lat="38.549650" lon="16.318558">
        <ele>943.968002</ele>
        <time>2023-12-04T16:06:46.053Z</time>
      </trkpt>
      <trkpt lat="38.549473" lon="16.318522">
        <ele>945.396100</ele>
        <time>2023-12-04T16:06:54.466Z</time>
      </trkpt>
      <trkpt lat="38.548588" lon="16.318582">
        <ele>952.371283</ele>
        <time>2023-12-04T16:07:39.168Z</time>
      </trkpt>
      <trkpt lat="38.547972" lon="16.318716">
        <ele>956.646990</ele>
        <time>2023-12-04T16:08:10.268Z</time>
      </trkpt>
      <trkpt lat="38.547351" lon="16.318797">
        <ele>960.918399</ele>
        <time>2023-12-04T16:08:36.238Z</time>
      </trkpt>
      <trkpt lat="38.546880" lon="16.318953">
        <ele>964.212948</ele>
        <time>2023-12-04T16:08:52.757Z</time>
      </trkpt>
      <trkpt lat="38.546847" lon="16.319004">
        <ele>964.437564</ele>
        <time>2023-12-04T16:08:54.280Z</time>
      </trkpt>
      <trkpt lat="38.546811" lon="16.319148">
        <ele>964.950574</ele>
        <time>2023-12-04T16:08:57.815Z</time>
      </trkpt>
      <trkpt lat="38.546823" lon="16.319337">
        <ele>965.594040</ele>
        <time>2023-12-04T16:09:02.379Z</time>
      </trkpt>
      <trkpt lat="38.547029" lon="16.319654">
        <ele>966.992627</ele>
        <time>2023-12-04T16:09:12.047Z</time>
      </trkpt>
      <trkpt lat="38.547126" lon="16.319858">
        <ele>967.802780</ele>
        <time>2023-12-04T16:09:17.411Z</time>
      </trkpt>
      <trkpt lat="38.547171" lon="16.320078">
        <ele>968.574439</ele>
        <time>2023-12-04T16:09:22.938Z</time>
      </trkpt>
      <trkpt lat="38.547164" lon="16.320296">
        <ele>969.314824</ele>
        <time>2023-12-04T16:09:27.862Z</time>
      </trkpt>
      <trkpt lat="38.547049" lon="16.320845">
        <ele>971.243467</ele>
        <time>2023-12-04T16:09:41.829Z</time>
      </trkpt>
      <trkpt lat="38.546932" lon="16.321009">
        <ele>972.034419</ele>
        <time>2023-12-04T16:09:47.799Z</time>
      </trkpt>
      <trkpt lat="38.546859" lon="16.321044">
        <ele>972.691544</ele>
        <time>2023-12-04T16:09:50.373Z</time>
      </trkpt>
      <trkpt lat="38.546747" lon="16.321049">
        <ele>973.636125</ele>
        <time>2023-12-04T16:09:54.264Z</time>
      </trkpt>
      <trkpt lat="38.546274" lon="16.320822">
        <ele>977.894446</ele>
        <time>2023-12-04T16:10:15.199Z</time>
      </trkpt>
      <trkpt lat="38.546171" lon="16.320705">
        <ele>979.055713</ele>
        <time>2023-12-04T16:10:21.649Z</time>
      </trkpt>
      <trkpt lat="38.546059" lon="16.320392">
        <ele>981.324733</ele>
        <time>2023-12-04T16:10:35.806Z</time>
      </trkpt>
      <trkpt lat="38.546055" lon="16.319986">
        <ele>984.001334</ele>
        <time>2023-12-04T16:10:53.820Z</time>
      </trkpt>
      <trkpt lat="38.546007" lon="16.319810">
        <ele>985.230058</ele>
        <time>2023-12-04T16:11:02.627Z</time>
      </trkpt>
      <trkpt lat="38.545921" lon="16.319675">
        <ele>986.377841</ele>
        <time>2023-12-04T16:11:10.936Z</time>
      </trkpt>
      <trkpt lat="38.545617" lon="16.319321">
        <ele>989.749569</ele>
        <time>2023-12-04T16:11:36.110Z</time>
      </trkpt>
      <trkpt lat="38.545239" lon="16.319171">
        <ele>992.970532</ele>
        <time>2023-12-04T16:11:58.864Z</time>
      </trkpt>
      <trkpt lat="38.544258" lon="16.318905">
        <ele>1001.131587</ele>
        <time>2023-12-04T16:12:42.390Z</time>
      </trkpt>
      <trkpt lat="38.543778" lon="16.318609">
        <ele>1002.763639</ele>
        <time>2023-12-04T16:12:58.165Z</time>
      </trkpt>
      <trkpt lat="38.543427" lon="16.318259">
        <ele>1003.747964</ele>
        <time>2023-12-04T16:13:07.913Z</time>
      </trkpt>
      <trkpt lat="38.543413" lon="16.318137">
        <ele>1003.961230</ele>
        <time>2023-12-04T16:13:09.613Z</time>
      </trkpt>
      <trkpt lat="38.543414" lon="16.318071">
        <ele>1004.075403</ele>
        <time>2023-12-04T16:13:10.442Z</time>
      </trkpt>
      <trkpt lat="38.543457" lon="16.317989">
        <ele>1004.246153</ele>
        <time>2023-12-04T16:13:11.959Z</time>
      </trkpt>
      <trkpt lat="38.543592" lon="16.317890">
        <ele>1004.590302</ele>
        <time>2023-12-04T16:13:14.909Z</time>
      </trkpt>
      <trkpt lat="38.544433" lon="16.317990">
        <ele>1006.763888</ele>
        <time>2023-12-04T16:13:29.480Z</time>
      </trkpt>
      <trkpt lat="38.544478" lon="16.317961">
        <ele>1006.922252</ele>
        <time>2023-12-04T16:13:30.520Z</time>
      </trkpt>
      <trkpt lat="38.544523" lon="16.317853">
        <ele>1007.223023</ele>
        <time>2023-12-04T16:13:32.621Z</time>
      </trkpt>
      <trkpt lat="38.544515" lon="16.317575">
        <ele>1007.906777</ele>
        <time>2023-12-04T16:13:37.373Z</time>
      </trkpt>
      <trkpt lat="38.544469" lon="16.317443">
        <ele>1008.261965</ele>
        <time>2023-12-04T16:13:40.280Z</time>
      </trkpt>
      <trkpt lat="38.544315" lon="16.317234">
        <ele>1008.967727</ele>
        <time>2023-12-04T16:13:46.455Z</time>
      </trkpt>
      <trkpt lat="38.543893" lon="16.316803">
        <ele>1010.665063</ele>
        <time>2023-12-04T16:14:03.847Z</time>
      </trkpt>
      <trkpt lat="38.543429" lon="16.316443">
        <ele>1013.117676</ele>
        <time>2023-12-04T16:14:24.476Z</time>
      </trkpt>
      <trkpt lat="38.542895" lon="16.315580">
        <ele>1017.870473</ele>
        <time>2023-12-04T16:14:58.602Z</time>
      </trkpt>
      <trkpt lat="38.542642" lon="16.315437">
        <ele>1019.398016</ele>
        <time>2023-12-04T16:15:08.798Z</time>
      </trkpt>
      <trkpt lat="38.542403" lon="16.315421">
        <ele>1020.719623</ele>
        <time>2023-12-04T16:15:17.253Z</time>
      </trkpt>
      <trkpt lat="38.541798" lon="16.315491">
        <ele>1022.658687</ele>
        <time>2023-12-04T16:15:37.221Z</time>
      </trkpt>
      <trkpt lat="38.541313" lon="16.315616">
        <ele>1023.988374</ele>
        <time>2023-12-04T16:15:51.156Z</time>
      </trkpt>
      <trkpt lat="38.540955" lon="16.315814">
        <ele>1025.036688</ele>
        <time>2023-12-04T16:16:00.103Z</time>
      </trkpt>
      <trkpt lat="38.540785" lon="16.315875">
        <ele>1025.511226</ele>
        <time>2023-12-04T16:16:03.565Z</time>
      </trkpt>
      <trkpt lat="38.540585" lon="16.315892">
        <ele>1026.049924</ele>
        <time>2023-12-04T16:16:07.022Z</time>
      </trkpt>
      <trkpt lat="38.540420" lon="16.315827">
        <ele>1025.823354</ele>
        <time>2023-12-04T16:16:09.678Z</time>
      </trkpt>
      <trkpt lat="38.540130" lon="16.315607">
        <ele>1025.007228</ele>
        <time>2023-12-04T16:16:14.075Z</time>
      </trkpt>
      <trkpt lat="38.539873" lon="16.315616">
        <ele>1024.384996</ele>
        <time>2023-12-04T16:16:17.058Z</time>
      </trkpt>
      <trkpt lat="38.538216" lon="16.316268">
        <ele>1019.345879</ele>
        <time>2023-12-04T16:16:34.042Z</time>
      </trkpt>
      <trkpt lat="38.538006" lon="16.316357">
        <ele>1018.529743</ele>
        <time>2023-12-04T16:16:36.147Z</time>
      </trkpt>
      <trkpt lat="38.537901" lon="16.316401">
        <ele>1018.122127</ele>
        <time>2023-12-04T16:16:37.220Z</time>
      </trkpt>
      <trkpt lat="38.537718" lon="16.316478">
        <ele>1017.411426</ele>
        <time>2023-12-04T16:16:39.109Z</time>
      </trkpt>
      <trkpt lat="38.537663" lon="16.316502">
        <ele>1017.197041</ele>
        <time>2023-12-04T16:16:39.678Z</time>
      </trkpt>
      <trkpt lat="38.537508" lon="16.316656">
        <ele>1016.472885</ele>
        <time>2023-12-04T16:16:41.650Z</time>
      </trkpt>
      <trkpt lat="38.537477" lon="16.316709">
        <ele>1016.281926</ele>
        <time>2023-12-04T16:16:42.171Z</time>
      </trkpt>
      <trkpt lat="38.537353" lon="16.316921">
        <ele>1015.518086</ele>
        <time>2023-12-04T16:16:44.293Z</time>
      </trkpt>
      <trkpt lat="38.537193" lon="16.317197">
        <ele>1014.758849</ele>
        <time>2023-12-04T16:16:47.068Z</time>
      </trkpt>
      <trkpt lat="38.536775" lon="16.317467">
        <ele>1013.661990</ele>
        <time>2023-12-04T16:16:52.044Z</time>
      </trkpt>
      <trkpt lat="38.536630" lon="16.317629">
        <ele>1013.210978</ele>
        <time>2023-12-04T16:16:54.150Z</time>
      </trkpt>
      <trkpt lat="38.536523" lon="16.317894">
        <ele>1012.664631</ele>
        <time>2023-12-04T16:16:56.730Z</time>
      </trkpt>
      <trkpt lat="38.536437" lon="16.318296">
        <ele>1011.901115</ele>
        <time>2023-12-04T16:17:00.317Z</time>
      </trkpt>
      <trkpt lat="38.536408" lon="16.318338">
        <ele>1011.798481</ele>
        <time>2023-12-04T16:17:00.801Z</time>
      </trkpt>
      <trkpt lat="38.535691" lon="16.318243">
        <ele>1010.156048</ele>
        <time>2023-12-04T16:17:08.563Z</time>
      </trkpt>
      <trkpt lat="38.535430" lon="16.318370">
        <ele>1009.537694</ele>
        <time>2023-12-04T16:17:11.538Z</time>
      </trkpt>
      <trkpt lat="38.534881" lon="16.318784">
        <ele>1008.126366</ele>
        <time>2023-12-04T16:17:18.285Z</time>
      </trkpt>
      <trkpt lat="38.534341" lon="16.319313">
        <ele>1006.798216</ele>
        <time>2023-12-04T16:17:25.596Z</time>
      </trkpt>
      <trkpt lat="38.533196" lon="16.320868">
        <ele>1004.989012</ele>
        <time>2023-12-04T16:17:46.450Z</time>
      </trkpt>
      <trkpt lat="38.532859" lon="16.321383">
        <ele>1004.258411</ele>
        <time>2023-12-04T16:17:53.109Z</time>
      </trkpt>
      <trkpt lat="38.532593" lon="16.321465">
        <ele>1003.877795</ele>
        <time>2023-12-04T16:17:56.428Z</time>
      </trkpt>
      <trkpt lat="38.532344" lon="16.321495">
        <ele>1003.529896</ele>
        <time>2023-12-04T16:17:59.395Z</time>
      </trkpt>
      <trkpt lat="38.531730" lon="16.321387">
        <ele>1002.667765</ele>
        <time>2023-12-04T16:18:06.424Z</time>
      </trkpt>
      <trkpt lat="38.529068" lon="16.320872">
        <ele>996.885338</ele>
        <time>2023-12-04T16:18:34.972Z</time>
      </trkpt>
      <trkpt lat="38.524800" lon="16.320098">
        <ele>991.666064</ele>
        <time>2023-12-04T16:19:24.553Z</time>
      </trkpt>
      <trkpt lat="38.524169" lon="16.320016">
        <ele>993.497774</ele>
        <time>2023-12-04T16:19:42.718Z</time>
      </trkpt>
      <trkpt lat="38.523473" lon="16.320173">
        <ele>997.451403</ele>
        <time>2023-12-04T16:20:11.510Z</time>
      </trkpt>
      <trkpt lat="38.523424" lon="16.320182">
        <ele>997.728327</ele>
        <time>2023-12-04T16:20:13.594Z</time>
      </trkpt>
      <trkpt lat="38.523247" lon="16.320106">
        <ele>998.772850</ele>
        <time>2023-12-04T16:20:22.264Z</time>
      </trkpt>
      <trkpt lat="38.523134" lon="16.319995">
        <ele>999.570085</ele>
        <time>2023-12-04T16:20:28.038Z</time>
      </trkpt>
      <trkpt lat="38.522923" lon="16.319761">
        <ele>1001.132783</ele>
        <time>2023-12-04T16:20:40.358Z</time>
      </trkpt>
      <trkpt lat="38.522647" lon="16.319549">
        <ele>1001.966288</ele>
        <time>2023-12-04T16:20:53.770Z</time>
      </trkpt>
      <trkpt lat="38.522013" lon="16.319407">
        <ele>1002.855047</ele>
        <time>2023-12-04T16:21:15.777Z</time>
      </trkpt>
      <trkpt lat="38.521168" lon="16.319133">
        <ele>1004.058776</ele>
        <time>2023-12-04T16:21:27.043Z</time>
      </trkpt>
      <trkpt lat="38.520505" lon="16.318678">
        <ele>997.148136</ele>
        <time>2023-12-04T16:21:33.687Z</time>
      </trkpt>
      <trkpt lat="38.520324" lon="16.318586">
        <ele>995.201822</ele>
        <time>2023-12-04T16:21:35.335Z</time>
      </trkpt>
      <trkpt lat="38.520159" lon="16.318547">
        <ele>993.525187</ele>
        <time>2023-12-04T16:21:36.758Z</time>
      </trkpt>
      <trkpt lat="38.519550" lon="16.318663">
        <ele>987.372854</ele>
        <time>2023-12-04T16:21:41.910Z</time>
      </trkpt>
      <trkpt lat="38.519323" lon="16.318765">
        <ele>985.064223</ele>
        <time>2023-12-04T16:21:43.932Z</time>
      </trkpt>
      <trkpt lat="38.519171" lon="16.318911">
        <ele>983.316791</ele>
        <time>2023-12-04T16:21:45.530Z</time>
      </trkpt>
      <trkpt lat="38.518929" lon="16.319163">
        <ele>980.448027</ele>
        <time>2023-12-04T16:21:48.198Z</time>
      </trkpt>
      <trkpt lat="38.518709" lon="16.319540">
        <ele>977.066226</ele>
        <time>2023-12-04T16:21:51.410Z</time>
      </trkpt>
      <trkpt lat="38.518744" lon="16.319994">
        <ele>973.785908</ele>
        <time>2023-12-04T16:21:54.611Z</time>
      </trkpt>
      <trkpt lat="38.518800" lon="16.320381">
        <ele>970.955975</ele>
        <time>2023-12-04T16:21:57.376Z</time>
      </trkpt>
      <trkpt lat="38.518870" lon="16.320787">
        <ele>968.421833</ele>
        <time>2023-12-04T16:22:00.316Z</time>
      </trkpt>
      <trkpt lat="38.518856" lon="16.321067">
        <ele>966.956359</ele>
        <time>2023-12-04T16:22:02.323Z</time>
      </trkpt>
      <trkpt lat="38.518836" lon="16.321196">
        <ele>966.269467</ele>
        <time>2023-12-04T16:22:03.245Z</time>
      </trkpt>
      <trkpt lat="38.518790" lon="16.321305">
        <ele>965.622601</ele>
        <time>2023-12-04T16:22:04.120Z</time>
      </trkpt>
      <trkpt lat="38.518720" lon="16.321411">
        <ele>964.898092</ele>
        <time>2023-12-04T16:22:05.141Z</time>
      </trkpt>
      <trkpt lat="38.518629" lon="16.321482">
        <ele>964.186346</ele>
        <time>2023-12-04T16:22:06.128Z</time>
      </trkpt>
      <trkpt lat="38.518487" lon="16.321475">
        <ele>963.237675</ele>
        <time>2023-12-04T16:22:07.438Z</time>
      </trkpt>
      <trkpt lat="38.518369" lon="16.321405">
        <ele>962.369213</ele>
        <time>2023-12-04T16:22:08.675Z</time>
      </trkpt>
      <trkpt lat="38.518115" lon="16.321031">
        <ele>959.782446</ele>
        <time>2023-12-04T16:22:12.265Z</time>
      </trkpt>
      <trkpt lat="38.517813" lon="16.320821">
        <ele>957.409447</ele>
        <time>2023-12-04T16:22:15.347Z</time>
      </trkpt>
      <trkpt lat="38.517684" lon="16.320782">
        <ele>956.017374</ele>
        <time>2023-12-04T16:22:16.500Z</time>
      </trkpt>
      <trkpt lat="38.517643" lon="16.320770">
        <ele>955.575669</ele>
        <time>2023-12-04T16:22:16.866Z</time>
      </trkpt>
      <trkpt lat="38.517587" lon="16.320752">
        <ele>954.969274</ele>
        <time>2023-12-04T16:22:17.374Z</time>
      </trkpt>
      <trkpt lat="38.516975" lon="16.320800">
        <ele>948.530287</ele>
        <time>2023-12-04T16:22:22.578Z</time>
      </trkpt>
      <trkpt lat="38.516601" lon="16.320775">
        <ele>944.597370</ele>
        <time>2023-12-04T16:22:25.746Z</time>
      </trkpt>
      <trkpt lat="38.516075" lon="16.320682">
        <ele>939.020993</ele>
        <time>2023-12-04T16:22:30.264Z</time>
      </trkpt>
      <trkpt lat="38.515815" lon="16.320615">
        <ele>936.727513</ele>
        <time>2023-12-04T16:22:32.555Z</time>
      </trkpt>
      <trkpt lat="38.515399" lon="16.320392">
        <ele>932.922567</ele>
        <time>2023-12-04T16:22:36.441Z</time>
      </trkpt>
      <trkpt lat="38.514843" lon="16.320028">
        <ele>927.653443</ele>
        <time>2023-12-04T16:22:41.863Z</time>
      </trkpt>
      <trkpt lat="38.514624" lon="16.319876">
        <ele>925.551447</ele>
        <time>2023-12-04T16:22:44.106Z</time>
      </trkpt>
      <trkpt lat="38.513793" lon="16.319303">
        <ele>922.091821</ele>
        <time>2023-12-04T16:22:53.250Z</time>
      </trkpt>
      <trkpt lat="38.513614" lon="16.319179">
        <ele>921.668853</ele>
        <time>2023-12-04T16:22:55.543Z</time>
      </trkpt>
      <trkpt lat="38.513571" lon="16.319141">
        <ele>921.560249</ele>
        <time>2023-12-04T16:22:56.098Z</time>
      </trkpt>
      <trkpt lat="38.513700" lon="16.318756">
        <ele>920.879474</ele>
        <time>2023-12-04T16:23:00.246Z</time>
      </trkpt>
      <trkpt lat="38.513807" lon="16.318590">
        <ele>920.529878</ele>
        <time>2023-12-04T16:23:02.812Z</time>
      </trkpt>
      <trkpt lat="38.513985" lon="16.318393">
        <ele>920.040721</ele>
        <time>2023-12-04T16:23:06.868Z</time>
      </trkpt>
      <trkpt lat="38.514132" lon="16.318338">
        <ele>919.775976</ele>
        <time>2023-12-04T16:23:10.199Z</time>
      </trkpt>
      <trkpt lat="38.514347" lon="16.318259">
        <ele>919.548253</ele>
        <time>2023-12-04T16:23:14.496Z</time>
      </trkpt>
      <trkpt lat="38.514538" lon="16.318185">
        <ele>919.345089</ele>
        <time>2023-12-04T16:23:18.077Z</time>
      </trkpt>
      <trkpt lat="38.514744" lon="16.318158">
        <ele>919.134293</ele>
        <time>2023-12-04T16:23:21.353Z</time>
      </trkpt>
      <trkpt lat="38.515034" lon="16.318193">
        <ele>918.837778</ele>
        <time>2023-12-04T16:23:25.989Z</time>
      </trkpt>
      <trkpt lat="38.515170" lon="16.318241">
        <ele>918.694156</ele>
        <time>2023-12-04T16:23:27.654Z</time>
      </trkpt>
      <trkpt lat="38.515460" lon="16.318471">
        <ele>918.346733</ele>
        <time>2023-12-04T16:23:31.428Z</time>
      </trkpt>
      <trkpt lat="38.515516" lon="16.318487">
        <ele>918.288321</ele>
        <time>2023-12-04T16:23:32.014Z</time>
      </trkpt>
      <trkpt lat="38.515601" lon="16.318478">
        <ele>918.201500</ele>
        <time>2023-12-04T16:23:32.932Z</time>
      </trkpt>
      <trkpt lat="38.515711" lon="16.318412">
        <ele>918.077801</ele>
        <time>2023-12-04T16:23:34.167Z</time>
      </trkpt>
      <trkpt lat="38.515796" lon="16.318243">
        <ele>917.583334</ele>
        <time>2023-12-04T16:23:35.723Z</time>
      </trkpt>
      <trkpt lat="38.515748" lon="16.317944">
        <ele>916.306236</ele>
        <time>2023-12-04T16:23:38.034Z</time>
      </trkpt>
      <trkpt lat="38.515467" lon="16.317445">
        <ele>913.733866</ele>
        <time>2023-12-04T16:23:42.500Z</time>
      </trkpt>
      <trkpt lat="38.514914" lon="16.316867">
        <ele>909.913718</ele>
        <time>2023-12-04T16:23:48.944Z</time>
      </trkpt>
      <trkpt lat="38.514588" lon="16.316526">
        <ele>908.048247</ele>
        <time>2023-12-04T16:23:52.832Z</time>
      </trkpt>
      <trkpt lat="38.514465" lon="16.316370">
        <ele>907.621942</ele>
        <time>2023-12-04T16:23:54.494Z</time>
      </trkpt>
      <trkpt lat="38.514427" lon="16.316162">
        <ele>907.210789</ele>
        <time>2023-12-04T16:23:56.142Z</time>
      </trkpt>
      <trkpt lat="38.514463" lon="16.315981">
        <ele>906.851298</ele>
        <time>2023-12-04T16:23:57.628Z</time>
      </trkpt>
      <trkpt lat="38.514758" lon="16.315222">
        <ele>905.219965</ele>
        <time>2023-12-04T16:24:04.407Z</time>
      </trkpt>
      <trkpt lat="38.514800" lon="16.315079">
        <ele>904.925949</ele>
        <time>2023-12-04T16:24:05.728Z</time>
      </trkpt>
      <trkpt lat="38.514787" lon="16.314991">
        <ele>904.753564</ele>
        <time>2023-12-04T16:24:06.585Z</time>
      </trkpt>
      <trkpt lat="38.514418" lon="16.314562">
        <ele>904.284901</ele>
        <time>2023-12-04T16:24:16.003Z</time>
      </trkpt>
      <trkpt lat="38.514377" lon="16.314515">
        <ele>904.390130</ele>
        <time>2023-12-04T16:24:17.943Z</time>
      </trkpt>
      <trkpt lat="38.514174" lon="16.314649">
        <ele>904.826659</ele>
        <time>2023-12-04T16:24:24.169Z</time>
      </trkpt>
      <trkpt lat="38.513813" lon="16.314986">
        <ele>905.680788</ele>
        <time>2023-12-04T16:24:35.716Z</time>
      </trkpt>
      <trkpt lat="38.513713" lon="16.315027">
        <ele>905.881438</ele>
        <time>2023-12-04T16:24:38.334Z</time>
      </trkpt>
      <trkpt lat="38.513569" lon="16.314954">
        <ele>906.177418</ele>
        <time>2023-12-04T16:24:41.247Z</time>
      </trkpt>
      <trkpt lat="38.513140" lon="16.314482">
        <ele>907.258957</ele>
        <time>2023-12-04T16:24:54.215Z</time>
      </trkpt>
      <trkpt lat="38.512924" lon="16.314564">
        <ele>907.801976</ele>
        <time>2023-12-04T16:24:58.818Z</time>
      </trkpt>
      <trkpt lat="38.512834" lon="16.314708">
        <ele>908.180941</ele>
        <time>2023-12-04T16:25:02.054Z</time>
      </trkpt>
      <trkpt lat="38.512830" lon="16.314902">
        <ele>908.579994</ele>
        <time>2023-12-04T16:25:05.323Z</time>
      </trkpt>
      <trkpt lat="38.512911" lon="16.315160">
        <ele>909.151619</ele>
        <time>2023-12-04T16:25:10.629Z</time>
      </trkpt>
      <trkpt lat="38.512911" lon="16.315237">
        <ele>909.309951</ele>
        <time>2023-12-04T16:25:11.951Z</time>
      </trkpt>
      <trkpt lat="38.512825" lon="16.315358">
        <ele>909.646078</ele>
        <time>2023-12-04T16:25:15.244Z</time>
      </trkpt>
      <trkpt lat="38.512691" lon="16.315440">
        <ele>910.036506</ele>
        <time>2023-12-04T16:25:19.300Z</time>
      </trkpt>
      <trkpt lat="38.512243" lon="16.315584">
        <ele>911.250477</ele>
        <time>2023-12-04T16:25:30.599Z</time>
      </trkpt>
      <trkpt lat="38.511376" lon="16.315824">
        <ele>914.710363</ele>
        <time>2023-12-04T16:25:56.848Z</time>
      </trkpt>
      <trkpt lat="38.511147" lon="16.315766">
        <ele>915.796428</ele>
        <time>2023-12-04T16:26:05.842Z</time>
      </trkpt>
      <trkpt lat="38.510937" lon="16.315528">
        <ele>917.102207</ele>
        <time>2023-12-04T16:26:16.649Z</time>
      </trkpt>
      <trkpt lat="38.510761" lon="16.315288">
        <ele>918.299576</ele>
        <time>2023-12-04T16:26:25.568Z</time>
      </trkpt>
      <trkpt lat="38.510738" lon="16.315199">
        <ele>918.640772</ele>
        <time>2023-12-04T16:26:28.221Z</time>
      </trkpt>
      <trkpt lat="38.510522" lon="16.314302">
        <ele>921.611919</ele>
        <time>2023-12-04T16:26:52.769Z</time>
      </trkpt>
      <trkpt lat="38.510517" lon="16.314176">
        <ele>921.941182</ele>
        <time>2023-12-04T16:26:55.844Z</time>
      </trkpt>
      <trkpt lat="38.510498" lon="16.313731">
        <ele>923.104294</ele>
        <time>2023-12-04T16:27:07.734Z</time>
      </trkpt>
      <trkpt lat="38.510512" lon="16.313212">
        <ele>924.459612</ele>
        <time>2023-12-04T16:27:19.063Z</time>
      </trkpt>
      <trkpt lat="38.510511" lon="16.313013">
        <ele>924.978983</ele>
        <time>2023-12-04T16:27:22.791Z</time>
      </trkpt>
      <trkpt lat="38.510508" lon="16.312585">
        <ele>926.096045</ele>
        <time>2023-12-04T16:27:31.206Z</time>
      </trkpt>
      <trkpt lat="38.510400" lon="16.312131">
        <ele>926.617626</ele>
        <time>2023-12-04T16:27:38.619Z</time>
      </trkpt>
      <trkpt lat="38.510039" lon="16.311272">
        <ele>927.019791</ele>
        <time>2023-12-04T16:27:49.650Z</time>
      </trkpt>
      <trkpt lat="38.509854" lon="16.311072">
        <ele>927.147517</ele>
        <time>2023-12-04T16:27:53.532Z</time>
      </trkpt>
      <trkpt lat="38.509785" lon="16.311070">
        <ele>927.183897</ele>
        <time>2023-12-04T16:27:54.458Z</time>
      </trkpt>
      <trkpt lat="38.509698" lon="16.311066">
        <ele>927.229785</ele>
        <time>2023-12-04T16:27:56.134Z</time>
      </trkpt>
      <trkpt lat="38.509595" lon="16.311062">
        <ele>927.284101</ele>
        <time>2023-12-04T16:27:58.053Z</time>
      </trkpt>
      <trkpt lat="38.509196" lon="16.311146">
        <ele>927.382733</ele>
        <time>2023-12-04T16:28:04.819Z</time>
      </trkpt>
      <trkpt lat="38.508713" lon="16.311138">
        <ele>927.196261</ele>
        <time>2023-12-04T16:28:12.134Z</time>
      </trkpt>
      <trkpt lat="38.508623" lon="16.311102">
        <ele>927.159856</ele>
        <time>2023-12-04T16:28:13.593Z</time>
      </trkpt>
      <trkpt lat="38.508568" lon="16.311047">
        <ele>927.132896</ele>
        <time>2023-12-04T16:28:14.582Z</time>
      </trkpt>
      <trkpt lat="38.508511" lon="16.310890">
        <ele>927.080614</ele>
        <time>2023-12-04T16:28:16.230Z</time>
      </trkpt>
      <trkpt lat="38.508508" lon="16.310811">
        <ele>927.056721</ele>
        <time>2023-12-04T16:28:16.926Z</time>
      </trkpt>
      <trkpt lat="38.508704" lon="16.310228">
        <ele>926.865043</ele>
        <time>2023-12-04T16:28:22.679Z</time>
      </trkpt>
      <trkpt lat="38.508736" lon="16.310036">
        <ele>926.805743</ele>
        <time>2023-12-04T16:28:24.513Z</time>
      </trkpt>
      <trkpt lat="38.508677" lon="16.309879">
        <ele>926.753132</ele>
        <time>2023-12-04T16:28:26.314Z</time>
      </trkpt>
      <trkpt lat="38.508463" lon="16.309696">
        <ele>927.113741</ele>
        <time>2023-12-04T16:28:30.082Z</time>
      </trkpt>
      <trkpt lat="38.508371" lon="16.309682">
        <ele>927.276025</ele>
        <time>2023-12-04T16:28:31.739Z</time>
      </trkpt>
      <trkpt lat="38.507800" lon="16.310023">
        <ele>928.380002</ele>
        <time>2023-12-04T16:28:44.556Z</time>
      </trkpt>
      <trkpt lat="38.507571" lon="16.310033">
        <ele>928.781349</ele>
        <time>2023-12-04T16:28:49.530Z</time>
      </trkpt>
      <trkpt lat="38.507405" lon="16.309921">
        <ele>929.110149</ele>
        <time>2023-12-04T16:28:54.447Z</time>
      </trkpt>
      <trkpt lat="38.507205" lon="16.309569">
        <ele>929.706390</ele>
        <time>2023-12-04T16:29:03.728Z</time>
      </trkpt>
      <trkpt lat="38.507006" lon="16.308491">
        <ele>933.350488</ele>
        <time>2023-12-04T16:29:30.405Z</time>
      </trkpt>
      <trkpt lat="38.506978" lon="16.308363">
        <ele>933.822277</ele>
        <time>2023-12-04T16:29:34.132Z</time>
      </trkpt>
      <trkpt lat="38.506824" lon="16.308262">
        <ele>934.607490</ele>
        <time>2023-12-04T16:29:40.100Z</time>
      </trkpt>
      <trkpt lat="38.506648" lon="16.308223">
        <ele>935.417785</ele>
        <time>2023-12-04T16:29:46.526Z</time>
      </trkpt>
      <trkpt lat="38.506492" lon="16.308311">
        <ele>936.191322</ele>
        <time>2023-12-04T16:29:52.641Z</time>
      </trkpt>
      <trkpt lat="38.506387" lon="16.308483">
        <ele>936.965697</ele>
        <time>2023-12-04T16:29:58.952Z</time>
      </trkpt>
      <trkpt lat="38.506225" lon="16.309202">
        <ele>939.168928</ele>
        <time>2023-12-04T16:30:19.733Z</time>
      </trkpt>
      <trkpt lat="38.506096" lon="16.309441">
        <ele>939.903351</ele>
        <time>2023-12-04T16:30:27.477Z</time>
      </trkpt>
      <trkpt lat="38.505780" lon="16.309664">
        <ele>941.070221</ele>
        <time>2023-12-04T16:30:38.385Z</time>
      </trkpt>
      <trkpt lat="38.505678" lon="16.309896">
        <ele>941.743358</ele>
        <time>2023-12-04T16:30:43.633Z</time>
      </trkpt>
      <trkpt lat="38.505678" lon="16.310189">
        <ele>942.484521</ele>
        <time>2023-12-04T16:30:48.994Z</time>
      </trkpt>
      <trkpt lat="38.505834" lon="16.310526">
        <ele>943.474964</ele>
        <time>2023-12-04T16:30:55.462Z</time>
      </trkpt>
      <trkpt lat="38.505970" lon="16.310743">
        <ele>943.885110</ele>
        <time>2023-12-04T16:30:59.663Z</time>
      </trkpt>
      <trkpt lat="38.505980" lon="16.311092">
        <ele>943.953633</ele>
        <time>2023-12-04T16:31:04.518Z</time>
      </trkpt>
      <trkpt lat="38.505853" lon="16.311375">
        <ele>944.017643</ele>
        <time>2023-12-04T16:31:08.712Z</time>
      </trkpt>
      <trkpt lat="38.505634" lon="16.311487">
        <ele>944.076787</ele>
        <time>2023-12-04T16:31:12.325Z</time>
      </trkpt>
      <trkpt lat="38.505429" lon="16.311497">
        <ele>944.128225</ele>
        <time>2023-12-04T16:31:15.432Z</time>
      </trkpt>
      <trkpt lat="38.504658" lon="16.311023">
        <ele>944.126508</ele>
        <time>2023-12-04T16:31:27.572Z</time>
      </trkpt>
      <trkpt lat="38.504451" lon="16.310800">
        <ele>943.725515</ele>
        <time>2023-12-04T16:31:31.142Z</time>
      </trkpt>
      <trkpt lat="38.504391" lon="16.310700">
        <ele>943.579466</ele>
        <time>2023-12-04T16:31:32.392Z</time>
      </trkpt>
      <trkpt lat="38.504194" lon="16.310057">
        <ele>942.779129</ele>
        <time>2023-12-04T16:31:38.998Z</time>
      </trkpt>
      <trkpt lat="38.504189" lon="16.309963">
        <ele>942.669929</ele>
        <time>2023-12-04T16:31:39.865Z</time>
      </trkpt>
      <trkpt lat="38.504175" lon="16.309734">
        <ele>942.403701</ele>
        <time>2023-12-04T16:31:41.908Z</time>
      </trkpt>
      <trkpt lat="38.504326" lon="16.309160">
        <ele>941.701833</ele>
        <time>2023-12-04T16:31:47.075Z</time>
      </trkpt>
      <trkpt lat="38.504467" lon="16.308739">
        <ele>939.925039</ele>
        <time>2023-12-04T16:31:50.673Z</time>
      </trkpt>
      <trkpt lat="38.504604" lon="16.308589">
        <ele>938.959035</ele>
        <time>2023-12-04T16:31:52.380Z</time>
      </trkpt>
      <trkpt lat="38.504843" lon="16.308486">
        <ele>937.608498</ele>
        <time>2023-12-04T16:31:54.750Z</time>
      </trkpt>
      <trkpt lat="38.504995" lon="16.308296">
        <ele>936.469978</ele>
        <time>2023-12-04T16:31:56.706Z</time>
      </trkpt>
      <trkpt lat="38.505048" lon="16.308101">
        <ele>935.605016</ele>
        <time>2023-12-04T16:31:58.193Z</time>
      </trkpt>
      <trkpt lat="38.505024" lon="16.307881">
        <ele>934.674267</ele>
        <time>2023-12-04T16:31:59.765Z</time>
      </trkpt>
      <trkpt lat="38.504965" lon="16.307637">
        <ele>933.604171</ele>
        <time>2023-12-04T16:32:01.571Z</time>
      </trkpt>
      <trkpt lat="38.504810" lon="16.307377">
        <ele>932.234611</ele>
        <time>2023-12-04T16:32:03.873Z</time>
      </trkpt>
      <trkpt lat="38.504599" lon="16.307067">
        <ele>930.408051</ele>
        <time>2023-12-04T16:32:06.750Z</time>
      </trkpt>
      <trkpt lat="38.504538" lon="16.307034">
        <ele>930.028594</ele>
        <time>2023-12-04T16:32:07.348Z</time>
      </trkpt>
      <trkpt lat="38.504370" lon="16.306945">
        <ele>928.986795</ele>
        <time>2023-12-04T16:32:08.980Z</time>
      </trkpt>
      <trkpt lat="38.504092" lon="16.306857">
        <ele>927.346161</ele>
        <time>2023-12-04T16:32:11.541Z</time>
      </trkpt>
      <trkpt lat="38.503824" lon="16.306647">
        <ele>925.545293</ele>
        <time>2023-12-04T16:32:14.386Z</time>
      </trkpt>
      <trkpt lat="38.503392" lon="16.305735">
        <ele>921.244549</ele>
        <time>2023-12-04T16:32:22.484Z</time>
      </trkpt>
      <trkpt lat="38.503184" lon="16.305252">
        <ele>920.021194</ele>
        <time>2023-12-04T16:32:27.255Z</time>
      </trkpt>
      <trkpt lat="38.503189" lon="16.304861">
        <ele>919.153436</ele>
        <time>2023-12-04T16:32:30.590Z</time>
      </trkpt>
      <trkpt lat="38.503287" lon="16.304651">
        <ele>918.610874</ele>
        <time>2023-12-04T16:32:32.623Z</time>
      </trkpt>
      <trkpt lat="38.503461" lon="16.304385">
        <ele>917.841563</ele>
        <time>2023-12-04T16:32:35.437Z</time>
      </trkpt>
      <trkpt lat="38.503574" lon="16.304332">
        <ele>917.500243</ele>
        <time>2023-12-04T16:32:36.707Z</time>
      </trkpt>
      <trkpt lat="38.503947" lon="16.304183">
        <ele>916.247329</ele>
        <time>2023-12-04T16:32:40.731Z</time>
      </trkpt>
      <trkpt lat="38.504048" lon="16.304051">
        <ele>915.569411</ele>
        <time>2023-12-04T16:32:42.167Z</time>
      </trkpt>
      <trkpt lat="38.504074" lon="16.303862">
        <ele>914.864734</ele>
        <time>2023-12-04T16:32:43.688Z</time>
      </trkpt>
      <trkpt lat="38.504046" lon="16.303739">
        <ele>914.394339</ele>
        <time>2023-12-04T16:32:44.720Z</time>
      </trkpt>
      <trkpt lat="38.503616" lon="16.303114">
        <ele>911.338396</ele>
        <time>2023-12-04T16:32:50.960Z</time>
      </trkpt>
      <trkpt lat="38.503600" lon="16.303011">
        <ele>910.952784</ele>
        <time>2023-12-04T16:32:51.727Z</time>
      </trkpt>
      <trkpt lat="38.503662" lon="16.302803">
        <ele>910.135443</ele>
        <time>2023-12-04T16:32:53.316Z</time>
      </trkpt>
      <trkpt lat="38.503913" lon="16.302609">
        <ele>908.758950</ele>
        <time>2023-12-04T16:32:55.974Z</time>
      </trkpt>
      <trkpt lat="38.503970" lon="16.302454">
        <ele>908.140724</ele>
        <time>2023-12-04T16:32:57.177Z</time>
      </trkpt>
      <trkpt lat="38.503951" lon="16.302353">
        <ele>907.853716</ele>
        <time>2023-12-04T16:32:57.918Z</time>
      </trkpt>
      <trkpt lat="38.503803" lon="16.302202">
        <ele>907.185058</ele>
        <time>2023-12-04T16:32:59.656Z</time>
      </trkpt>
      <trkpt lat="38.503307" lon="16.302112">
        <ele>905.416295</ele>
        <time>2023-12-04T16:33:04.363Z</time>
      </trkpt>
      <trkpt lat="38.503170" lon="16.301997">
        <ele>904.837569</ele>
        <time>2023-12-04T16:33:05.982Z</time>
      </trkpt>
      <trkpt lat="38.502897" lon="16.301417">
        <ele>902.967503</ele>
        <time>2023-12-04T16:33:11.559Z</time>
      </trkpt>
      <trkpt lat="38.502637" lon="16.300763">
        <ele>902.281144</ele>
        <time>2023-12-04T16:33:18.653Z</time>
      </trkpt>
      <trkpt lat="38.502622" lon="16.300652">
        <ele>902.442868</ele>
        <time>2023-12-04T16:33:20.117Z</time>
      </trkpt>
      <trkpt lat="38.502642" lon="16.300127">
        <ele>903.197518</ele>
        <time>2023-12-04T16:33:28.580Z</time>
      </trkpt>
      <trkpt lat="38.502715" lon="16.299175">
        <ele>904.570875</ele>
        <time>2023-12-04T16:33:49.438Z</time>
      </trkpt>
      <trkpt lat="38.502696" lon="16.299038">
        <ele>904.770635</ele>
        <time>2023-12-04T16:33:52.518Z</time>
      </trkpt>
      <trkpt lat="38.502574" lon="16.298880">
        <ele>905.089312</ele>
        <time>2023-12-04T16:33:57.399Z</time>
      </trkpt>
      <trkpt lat="38.502441" lon="16.298796">
        <ele>905.519373</ele>
        <time>2023-12-04T16:34:01.594Z</time>
      </trkpt>
      <trkpt lat="38.501999" lon="16.298909">
        <ele>906.892868</ele>
        <time>2023-12-04T16:34:12.811Z</time>
      </trkpt>
      <trkpt lat="38.501843" lon="16.299021">
        <ele>907.438101</ele>
        <time>2023-12-04T16:34:16.943Z</time>
      </trkpt>
      <trkpt lat="38.501655" lon="16.299516">
        <ele>908.750140</ele>
        <time>2023-12-04T16:34:26.851Z</time>
      </trkpt>
      <trkpt lat="38.501393" lon="16.300155">
        <ele>910.470371</ele>
        <time>2023-12-04T16:34:42.561Z</time>
      </trkpt>
      <trkpt lat="38.501037" lon="16.300634">
        <ele>913.499082</ele>
        <time>2023-12-04T16:35:00.915Z</time>
      </trkpt>
      <trkpt lat="38.500787" lon="16.300894">
        <ele>915.470973</ele>
        <time>2023-12-04T16:35:13.428Z</time>
      </trkpt>
      <trkpt lat="38.500607" lon="16.301010">
        <ele>916.704232</ele>
        <time>2023-12-04T16:35:21.674Z</time>
      </trkpt>
      <trkpt lat="38.500428" lon="16.300968">
        <ele>917.817564</ele>
        <time>2023-12-04T16:35:29.125Z</time>
      </trkpt>
      <trkpt lat="38.500203" lon="16.300845">
        <ele>919.314666</ele>
        <time>2023-12-04T16:35:39.888Z</time>
      </trkpt>
      <trkpt lat="38.500000" lon="16.300910">
        <ele>920.594905</ele>
        <time>2023-12-04T16:35:49.303Z</time>
      </trkpt>
      <trkpt lat="38.499833" lon="16.301168">
        <ele>922.075200</ele>
        <time>2023-12-04T16:36:00.977Z</time>
      </trkpt>
      <trkpt lat="38.499701" lon="16.301231">
        <ele>922.758486</ele>
        <time>2023-12-04T16:36:07.448Z</time>
      </trkpt>
      <trkpt lat="38.499393" lon="16.301217">
        <ele>924.252980</ele>
        <time>2023-12-04T16:36:21.124Z</time>
      </trkpt>
      <trkpt lat="38.499252" lon="16.301436">
        <ele>925.329199</ele>
        <time>2023-12-04T16:36:30.486Z</time>
      </trkpt>
      <trkpt lat="38.499193" lon="16.301914">
        <ele>927.165657</ele>
        <time>2023-12-04T16:36:44.324Z</time>
      </trkpt>
      <trkpt lat="38.498984" lon="16.302271">
        <ele>928.857615</ele>
        <time>2023-12-04T16:36:54.411Z</time>
      </trkpt>
      <trkpt lat="38.498950" lon="16.302466">
        <ele>929.615796</ele>
        <time>2023-12-04T16:36:57.885Z</time>
      </trkpt>
      <trkpt lat="38.498974" lon="16.303007">
        <ele>930.382058</ele>
        <time>2023-12-04T16:37:04.966Z</time>
      </trkpt>
      <trkpt lat="38.498808" lon="16.303694">
        <ele>930.491315</ele>
        <time>2023-12-04T16:37:12.182Z</time>
      </trkpt>
      <trkpt lat="38.498543" lon="16.303980">
        <ele>930.558666</ele>
        <time>2023-12-04T16:37:16.616Z</time>
      </trkpt>
      <trkpt lat="38.498184" lon="16.304183">
        <ele>930.634892</ele>
        <time>2023-12-04T16:37:22.154Z</time>
      </trkpt>
      <trkpt lat="38.497852" lon="16.304208">
        <ele>930.850060</ele>
        <time>2023-12-04T16:37:27.857Z</time>
      </trkpt>
      <trkpt lat="38.497779" lon="16.304060">
        <ele>931.058699</ele>
        <time>2023-12-04T16:37:30.201Z</time>
      </trkpt>
      <trkpt lat="38.497871" lon="16.303297">
        <ele>931.979412</ele>
        <time>2023-12-04T16:37:44.013Z</time>
      </trkpt>
      <trkpt lat="38.497857" lon="16.303052">
        <ele>932.272384</ele>
        <time>2023-12-04T16:37:48.426Z</time>
      </trkpt>
      <trkpt lat="38.497769" lon="16.301811">
        <ele>933.275575</ele>
        <time>2023-12-04T16:38:10.917Z</time>
      </trkpt>
      <trkpt lat="38.497791" lon="16.301686">
        <ele>933.211420</ele>
        <time>2023-12-04T16:38:12.730Z</time>
      </trkpt>
      <trkpt lat="38.497807" lon="16.301471">
        <ele>933.103277</ele>
        <time>2023-12-04T16:38:15.652Z</time>
      </trkpt>
      <trkpt lat="38.497863" lon="16.300853">
        <ele>932.791759</ele>
        <time>2023-12-04T16:38:21.979Z</time>
      </trkpt>
      <trkpt lat="38.497806" lon="16.300656">
        <ele>932.686589</ele>
        <time>2023-12-04T16:38:23.812Z</time>
      </trkpt>
      <trkpt lat="38.497588" lon="16.300410">
        <ele>932.500505</ele>
        <time>2023-12-04T16:38:27.001Z</time>
      </trkpt>
      <trkpt lat="38.497330" lon="16.300216">
        <ele>932.308973</ele>
        <time>2023-12-04T16:38:30.210Z</time>
      </trkpt>
      <trkpt lat="38.496943" lon="16.299819">
        <ele>931.594001</ele>
        <time>2023-12-04T16:38:35.449Z</time>
      </trkpt>
      <trkpt lat="38.496630" lon="16.299603">
        <ele>931.038840</ele>
        <time>2023-12-04T16:38:39.365Z</time>
      </trkpt>
      <trkpt lat="38.496447" lon="16.299514">
        <ele>930.733261</ele>
        <time>2023-12-04T16:38:41.645Z</time>
      </trkpt>
      <trkpt lat="38.496356" lon="16.299355">
        <ele>930.492673</ele>
        <time>2023-12-04T16:38:43.473Z</time>
      </trkpt>
      <trkpt lat="38.496303" lon="16.299146">
        <ele>930.224334</ele>
        <time>2023-12-04T16:38:45.564Z</time>
      </trkpt>
      <trkpt lat="38.496339" lon="16.298977">
        <ele>930.010408</ele>
        <time>2023-12-04T16:38:47.300Z</time>
      </trkpt>
      <trkpt lat="38.496516" lon="16.298751">
        <ele>929.619899</ele>
        <time>2023-12-04T16:38:50.420Z</time>
      </trkpt>
      <trkpt lat="38.496550" lon="16.298444">
        <ele>929.353370</ele>
        <time>2023-12-04T16:38:53.496Z</time>
      </trkpt>
      <trkpt lat="38.496152" lon="16.297927">
        <ele>928.920419</ele>
        <time>2023-12-04T16:39:00.467Z</time>
      </trkpt>
      <trkpt lat="38.495950" lon="16.297849">
        <ele>928.759446</ele>
        <time>2023-12-04T16:39:03.050Z</time>
      </trkpt>
      <trkpt lat="38.495760" lon="16.297860">
        <ele>928.614361</ele>
        <time>2023-12-04T16:39:05.387Z</time>
      </trkpt>
      <trkpt lat="38.495628" lon="16.298027">
        <ele>928.472657</ele>
        <time>2023-12-04T16:39:07.700Z</time>
      </trkpt>
      <trkpt lat="38.495570" lon="16.298303">
        <ele>928.302041</ele>
        <time>2023-12-04T16:39:10.553Z</time>
      </trkpt>
      <trkpt lat="38.495440" lon="16.298552">
        <ele>928.123340</ele>
        <time>2023-12-04T16:39:13.681Z</time>
      </trkpt>
      <trkpt lat="38.495060" lon="16.298900">
        <ele>928.797248</ele>
        <time>2023-12-04T16:39:20.238Z</time>
      </trkpt>
      <trkpt lat="38.494848" lon="16.298970">
        <ele>929.164985</ele>
        <time>2023-12-04T16:39:23.394Z</time>
      </trkpt>
      <trkpt lat="38.494742" lon="16.298780">
        <ele>929.471681</ele>
        <time>2023-12-04T16:39:26.401Z</time>
      </trkpt>
      <trkpt lat="38.494748" lon="16.298573">
        <ele>929.743956</ele>
        <time>2023-12-04T16:39:29.251Z</time>
      </trkpt>
      <trkpt lat="38.494833" lon="16.298252">
        <ele>930.189383</ele>
        <time>2023-12-04T16:39:34.809Z</time>
      </trkpt>
      <trkpt lat="38.494761" lon="16.297940">
        <ele>930.616942</ele>
        <time>2023-12-04T16:39:41.360Z</time>
      </trkpt>
      <trkpt lat="38.494593" lon="16.297584">
        <ele>931.273503</ele>
        <time>2023-12-04T16:39:52.027Z</time>
      </trkpt>
      <trkpt lat="38.494353" lon="16.297288">
        <ele>932.974836</ele>
        <time>2023-12-04T16:40:05.430Z</time>
      </trkpt>
      <trkpt lat="38.494070" lon="16.297075">
        <ele>934.650051</ele>
        <time>2023-12-04T16:40:19.712Z</time>
      </trkpt>
      <trkpt lat="38.493716" lon="16.296948">
        <ele>936.525395</ele>
        <time>2023-12-04T16:40:34.866Z</time>
      </trkpt>
      <trkpt lat="38.493412" lon="16.296984">
        <ele>938.082541</ele>
        <time>2023-12-04T16:40:45.751Z</time>
      </trkpt>
      <trkpt lat="38.492875" lon="16.296757">
        <ele>940.516149</ele>
        <time>2023-12-04T16:41:01.579Z</time>
      </trkpt>
      <trkpt lat="38.492677" lon="16.296793">
        <ele>940.863657</ele>
        <time>2023-12-04T16:41:06.762Z</time>
      </trkpt>
      <trkpt lat="38.492543" lon="16.296955">
        <ele>941.184207</ele>
        <time>2023-12-04T16:41:11.874Z</time>
      </trkpt>
      <trkpt lat="38.492481" lon="16.297379">
        <ele>941.770819</ele>
        <time>2023-12-04T16:41:19.802Z</time>
      </trkpt>
      <trkpt lat="38.492419" lon="16.297598">
        <ele>942.087541</ele>
        <time>2023-12-04T16:41:23.105Z</time>
      </trkpt>
      <trkpt lat="38.492112" lon="16.297860">
        <ele>942.729038</ele>
        <time>2023-12-04T16:41:29.608Z</time>
      </trkpt>
      <trkpt lat="38.491924" lon="16.297832">
        <ele>943.057915</ele>
        <time>2023-12-04T16:41:32.819Z</time>
      </trkpt>
      <trkpt lat="38.491673" lon="16.297620">
        <ele>943.586008</ele>
        <time>2023-12-04T16:41:37.158Z</time>
      </trkpt>
      <trkpt lat="38.491454" lon="16.297556">
        <ele>943.988299</ele>
        <time>2023-12-04T16:41:40.765Z</time>
      </trkpt>
      <trkpt lat="38.491023" lon="16.297747">
        <ele>944.805199</ele>
        <time>2023-12-04T16:41:50.362Z</time>
      </trkpt>
      <trkpt lat="38.490149" lon="16.297897">
        <ele>946.384327</ele>
        <time>2023-12-04T16:42:12.950Z</time>
      </trkpt>
      <trkpt lat="38.490019" lon="16.297917">
        <ele>946.618799</ele>
        <time>2023-12-04T16:42:16.329Z</time>
      </trkpt>
      <trkpt lat="38.489892" lon="16.298065">
        <ele>946.910266</ele>
        <time>2023-12-04T16:42:20.212Z</time>
      </trkpt>
      <trkpt lat="38.489849" lon="16.298461">
        <ele>947.439831</ele>
        <time>2023-12-04T16:42:27.412Z</time>
      </trkpt>
      <trkpt lat="38.489842" lon="16.299310">
        <ele>948.564479</ele>
        <time>2023-12-04T16:42:41.460Z</time>
      </trkpt>
      <trkpt lat="38.489807" lon="16.299465">
        <ele>948.778165</ele>
        <time>2023-12-04T16:42:43.556Z</time>
      </trkpt>
      <trkpt lat="38.489028" lon="16.300566">
        <ele>951.345203</ele>
        <time>2023-12-04T16:43:07.165Z</time>
      </trkpt>
      <trkpt lat="38.488881" lon="16.300731">
        <ele>951.862180</ele>
        <time>2023-12-04T16:43:12.706Z</time>
      </trkpt>
      <trkpt lat="38.488725" lon="16.300788">
        <ele>952.290858</ele>
        <time>2023-12-04T16:43:17.550Z</time>
      </trkpt>
      <trkpt lat="38.488563" lon="16.300646">
        <ele>952.809917</ele>
        <time>2023-12-04T16:43:23.126Z</time>
      </trkpt>
      <trkpt lat="38.488400" lon="16.300363">
        <ele>953.536530</ele>
        <time>2023-12-04T16:43:31.014Z</time>
      </trkpt>
      <trkpt lat="38.488322" lon="16.299995">
        <ele>954.324960</ele>
        <time>2023-12-04T16:43:39.477Z</time>
      </trkpt>
      <trkpt lat="38.488216" lon="16.299698">
        <ele>954.898728</ele>
        <time>2023-12-04T16:43:46.579Z</time>
      </trkpt>
      <trkpt lat="38.488004" lon="16.299557">
        <ele>955.418985</ele>
        <time>2023-12-04T16:43:52.994Z</time>
      </trkpt>
      <trkpt lat="38.487928" lon="16.299574">
        <ele>955.586934</ele>
        <time>2023-12-04T16:43:55.057Z</time>
      </trkpt>
      <trkpt lat="38.487810" lon="16.299600">
        <ele>955.847582</ele>
        <time>2023-12-04T16:43:58.264Z</time>
      </trkpt>
      <trkpt lat="38.487691" lon="16.299695">
        <ele>956.153028</ele>
        <time>2023-12-04T16:44:02.062Z</time>
      </trkpt>
      <trkpt lat="38.487198" lon="16.300052">
        <ele>957.386562</ele>
        <time>2023-12-04T16:44:16.946Z</time>
      </trkpt>
      <trkpt lat="38.486882" lon="16.300248">
        <ele>958.151194</ele>
        <time>2023-12-04T16:44:23.471Z</time>
      </trkpt>
      <trkpt lat="38.486859" lon="16.300271">
        <ele>958.214773</ele>
        <time>2023-12-04T16:44:23.839Z</time>
      </trkpt>
      <trkpt lat="38.486757" lon="16.300326">
        <ele>958.318576</ele>
        <time>2023-12-04T16:44:25.323Z</time>
      </trkpt>
      <trkpt lat="38.486388" lon="16.300543">
        <ele>958.153497</ele>
        <time>2023-12-04T16:44:30.117Z</time>
      </trkpt>
      <trkpt lat="38.486345" lon="16.300549">
        <ele>958.135919</ele>
        <time>2023-12-04T16:44:30.671Z</time>
      </trkpt>
      <trkpt lat="38.485978" lon="16.300614">
        <ele>957.985351</ele>
        <time>2023-12-04T16:44:35.134Z</time>
      </trkpt>
      <trkpt lat="38.485728" lon="16.300770">
        <ele>957.872285</ele>
        <time>2023-12-04T16:44:38.415Z</time>
      </trkpt>
      <trkpt lat="38.485526" lon="16.300894">
        <ele>957.781211</ele>
        <time>2023-12-04T16:44:41.398Z</time>
      </trkpt>
      <trkpt lat="38.485337" lon="16.300955">
        <ele>957.701992</ele>
        <time>2023-12-04T16:44:44.156Z</time>
      </trkpt>
      <trkpt lat="38.485303" lon="16.300939">
        <ele>957.687268</ele>
        <time>2023-12-04T16:44:44.761Z</time>
      </trkpt>
      <trkpt lat="38.485114" lon="16.300854">
        <ele>957.616196</ele>
        <time>2023-12-04T16:44:47.613Z</time>
      </trkpt>
      <trkpt lat="38.484955" lon="16.300641">
        <ele>957.808965</ele>
        <time>2023-12-04T16:44:51.746Z</time>
      </trkpt>
      <trkpt lat="38.484935" lon="16.300614">
        <ele>957.833311</ele>
        <time>2023-12-04T16:44:52.259Z</time>
      </trkpt>
      <trkpt lat="38.484888" lon="16.300546">
        <ele>957.892724</ele>
        <time>2023-12-04T16:44:53.544Z</time>
      </trkpt>
      <trkpt lat="38.484766" lon="16.300366">
        <ele>958.048667</ele>
        <time>2023-12-04T16:44:57.307Z</time>
      </trkpt>
      <trkpt lat="38.484699" lon="16.300175">
        <ele>958.185749</ele>
        <time>2023-12-04T16:45:00.392Z</time>
      </trkpt>
      <trkpt lat="38.484687" lon="16.300141">
        <ele>958.210176</ele>
        <time>2023-12-04T16:45:00.968Z</time>
      </trkpt>
      <trkpt lat="38.484652" lon="16.300065">
        <ele>958.267927</ele>
        <time>2023-12-04T16:45:02.263Z</time>
      </trkpt>
      <trkpt lat="38.484663" lon="16.299733">
        <ele>958.485565</ele>
        <time>2023-12-04T16:45:08.103Z</time>
      </trkpt>
      <trkpt lat="38.484678" lon="16.299679">
        <ele>958.523093</ele>
        <time>2023-12-04T16:45:09.000Z</time>
      </trkpt>
      <trkpt lat="38.484723" lon="16.299545">
        <ele>958.618592</ele>
        <time>2023-12-04T16:45:11.496Z</time>
      </trkpt>
      <trkpt lat="38.484948" lon="16.299253">
        <ele>958.886949</ele>
        <time>2023-12-04T16:45:17.954Z</time>
      </trkpt>
      <trkpt lat="38.485346" lon="16.298808">
        <ele>958.815625</ele>
        <time>2023-12-04T16:45:26.606Z</time>
      </trkpt>
      <trkpt lat="38.485639" lon="16.298473">
        <ele>958.359508</ele>
        <time>2023-12-04T16:45:31.358Z</time>
      </trkpt>
      <trkpt lat="38.485883" lon="16.298157">
        <ele>957.956472</ele>
        <time>2023-12-04T16:45:35.206Z</time>
      </trkpt>
      <trkpt lat="38.486680" lon="16.296772">
        <ele>955.275973</ele>
        <time>2023-12-04T16:45:50.441Z</time>
      </trkpt>
      <trkpt lat="38.486703" lon="16.296732">
        <ele>955.151081</ele>
        <time>2023-12-04T16:45:50.831Z</time>
      </trkpt>
      <trkpt lat="38.486767" lon="16.296623">
        <ele>954.808213</ele>
        <time>2023-12-04T16:45:51.909Z</time>
      </trkpt>
      <trkpt lat="38.486958" lon="16.296510">
        <ele>954.131559</ele>
        <time>2023-12-04T16:45:54.042Z</time>
      </trkpt>
      <trkpt lat="38.487153" lon="16.296446">
        <ele>953.484333</ele>
        <time>2023-12-04T16:45:56.042Z</time>
      </trkpt>
      <trkpt lat="38.487495" lon="16.296476">
        <ele>952.382312</ele>
        <time>2023-12-04T16:45:59.382Z</time>
      </trkpt>
      <trkpt lat="38.487742" lon="16.296499">
        <ele>951.586171</ele>
        <time>2023-12-04T16:46:01.760Z</time>
      </trkpt>
      <trkpt lat="38.487941" lon="16.296502">
        <ele>950.776203</ele>
        <time>2023-12-04T16:46:03.670Z</time>
      </trkpt>
      <trkpt lat="38.487997" lon="16.296503">
        <ele>950.493755</ele>
        <time>2023-12-04T16:46:04.198Z</time>
      </trkpt>
      <trkpt lat="38.488591" lon="16.296199">
        <ele>947.266650</ele>
        <time>2023-12-04T16:46:10.299Z</time>
      </trkpt>
      <trkpt lat="38.488633" lon="16.296093">
        <ele>946.797658</ele>
        <time>2023-12-04T16:46:11.167Z</time>
      </trkpt>
      <trkpt lat="38.488626" lon="16.295916">
        <ele>946.098059</ele>
        <time>2023-12-04T16:46:12.451Z</time>
      </trkpt>
      <trkpt lat="38.488527" lon="16.295658">
        <ele>944.963806</ele>
        <time>2023-12-04T16:46:14.543Z</time>
      </trkpt>
      <trkpt lat="38.488363" lon="16.295344">
        <ele>943.473678</ele>
        <time>2023-12-04T16:46:17.258Z</time>
      </trkpt>
      <trkpt lat="38.488320" lon="16.295201">
        <ele>942.868961</ele>
        <time>2023-12-04T16:46:18.354Z</time>
      </trkpt>
      <trkpt lat="38.488329" lon="16.295096">
        <ele>942.451995</ele>
        <time>2023-12-04T16:46:19.112Z</time>
      </trkpt>
      <trkpt lat="38.488445" lon="16.294919">
        <ele>941.995461</ele>
        <time>2023-12-04T16:46:20.782Z</time>
      </trkpt>
      <trkpt lat="38.488591" lon="16.294820">
        <ele>941.759844</ele>
        <time>2023-12-04T16:46:22.355Z</time>
      </trkpt>
      <trkpt lat="38.489107" lon="16.294665">
        <ele>941.004241</ele>
        <time>2023-12-04T16:46:27.678Z</time>
      </trkpt>
      <trkpt lat="38.489206" lon="16.294477">
        <ele>940.751425</ele>
        <time>2023-12-04T16:46:29.731Z</time>
      </trkpt>
      <trkpt lat="38.489184" lon="16.294072">
        <ele>940.298457</ele>
        <time>2023-12-04T16:46:34.250Z</time>
      </trkpt>
      <trkpt lat="38.489026" lon="16.293834">
        <ele>939.950257</ele>
        <time>2023-12-04T16:46:39.134Z</time>
      </trkpt>
      <trkpt lat="38.488212" lon="16.293079">
        <ele>942.123406</ele>
        <time>2023-12-04T16:47:07.135Z</time>
      </trkpt>
      <trkpt lat="38.487527" lon="16.292834">
        <ele>944.451595</ele>
        <time>2023-12-04T16:47:28.819Z</time>
      </trkpt>
      <trkpt lat="38.487201" lon="16.292374">
        <ele>945.937112</ele>
        <time>2023-12-04T16:47:42.284Z</time>
      </trkpt>
      <trkpt lat="38.487118" lon="16.292218">
        <ele>946.327721</ele>
        <time>2023-12-04T16:47:46.056Z</time>
      </trkpt>
      <trkpt lat="38.487065" lon="16.292118">
        <ele>946.577807</ele>
        <time>2023-12-04T16:47:48.473Z</time>
      </trkpt>
      <trkpt lat="38.486996" lon="16.291816">
        <ele>947.229290</ele>
        <time>2023-12-04T16:47:55.024Z</time>
      </trkpt>
      <trkpt lat="38.487006" lon="16.291542">
        <ele>947.797310</ele>
        <time>2023-12-04T16:48:00.711Z</time>
      </trkpt>
      <trkpt lat="38.487011" lon="16.291403">
        <ele>948.085458</ele>
        <time>2023-12-04T16:48:03.586Z</time>
      </trkpt>
      <trkpt lat="38.487069" lon="16.290828">
        <ele>949.286023</ele>
        <time>2023-12-04T16:48:14.880Z</time>
      </trkpt>
      <trkpt lat="38.487117" lon="16.290392">
        <ele>950.197784</ele>
        <time>2023-12-04T16:48:22.777Z</time>
      </trkpt>
      <trkpt lat="38.487197" lon="16.289681">
        <ele>951.544977</ele>
        <time>2023-12-04T16:48:35.042Z</time>
      </trkpt>
      <trkpt lat="38.487348" lon="16.289017">
        <ele>952.836298</ele>
        <time>2023-12-04T16:48:47.043Z</time>
      </trkpt>
      <trkpt lat="38.487535" lon="16.288198">
        <ele>954.429554</ele>
        <time>2023-12-04T16:49:04.581Z</time>
      </trkpt>
      <trkpt lat="38.487771" lon="16.287149">
        <ele>957.896201</ele>
        <time>2023-12-04T16:49:29.809Z</time>
      </trkpt>
      <trkpt lat="38.487783" lon="16.286704">
        <ele>959.346173</ele>
        <time>2023-12-04T16:49:40.970Z</time>
      </trkpt>
      <trkpt lat="38.487769" lon="16.286626">
        <ele>959.606767</ele>
        <time>2023-12-04T16:49:43.088Z</time>
      </trkpt>
      <trkpt lat="38.487696" lon="16.286234">
        <ele>960.918919</ele>
        <time>2023-12-04T16:49:53.766Z</time>
      </trkpt>
      <trkpt lat="38.487410" lon="16.285926">
        <ele>962.552617</ele>
        <time>2023-12-04T16:50:06.610Z</time>
      </trkpt>
      <trkpt lat="38.486557" lon="16.285563">
        <ele>966.944896</ele>
        <time>2023-12-04T16:50:39.882Z</time>
      </trkpt>
      <trkpt lat="38.486247" lon="16.285431">
        <ele>968.541247</ele>
        <time>2023-12-04T16:50:51.739Z</time>
      </trkpt>
      <trkpt lat="38.486067" lon="16.285354">
        <ele>969.468590</ele>
        <time>2023-12-04T16:50:58.206Z</time>
      </trkpt>
      <trkpt lat="38.485985" lon="16.285348">
        <ele>969.869842</ele>
        <time>2023-12-04T16:51:00.851Z</time>
      </trkpt>
      <trkpt lat="38.485749" lon="16.285332">
        <ele>970.820266</ele>
        <time>2023-12-04T16:51:08.130Z</time>
      </trkpt>
      <trkpt lat="38.485402" lon="16.285431">
        <ele>970.845753</ele>
        <time>2023-12-04T16:51:17.713Z</time>
      </trkpt>
      <trkpt lat="38.485076" lon="16.285366">
        <ele>970.869406</ele>
        <time>2023-12-04T16:51:25.044Z</time>
      </trkpt>
      <trkpt lat="38.484642" lon="16.285124">
        <ele>970.903352</ele>
        <time>2023-12-04T16:51:32.647Z</time>
      </trkpt>
      <trkpt lat="38.483902" lon="16.284656">
        <ele>969.790880</ele>
        <time>2023-12-04T16:51:41.044Z</time>
      </trkpt>
      <trkpt lat="38.483607" lon="16.284562">
        <ele>968.253769</ele>
        <time>2023-12-04T16:51:43.901Z</time>
      </trkpt>
      <trkpt lat="38.483253" lon="16.284512">
        <ele>966.453165</ele>
        <time>2023-12-04T16:51:47.166Z</time>
      </trkpt>
      <trkpt lat="38.483086" lon="16.284255">
        <ele>965.131315</ele>
        <time>2023-12-04T16:51:49.542Z</time>
      </trkpt>
      <trkpt lat="38.483058" lon="16.284175">
        <ele>964.784508</ele>
        <time>2023-12-04T16:51:50.177Z</time>
      </trkpt>
      <trkpt lat="38.482970" lon="16.283925">
        <ele>963.699700</ele>
        <time>2023-12-04T16:51:52.113Z</time>
      </trkpt>
      <trkpt lat="38.482511" lon="16.283112">
        <ele>961.642414</ele>
        <time>2023-12-04T16:51:59.520Z</time>
      </trkpt>
      <trkpt lat="38.482482" lon="16.282780">
        <ele>961.511188</ele>
        <time>2023-12-04T16:52:02.178Z</time>
      </trkpt>
      <trkpt lat="38.482277" lon="16.282328">
        <ele>961.305984</ele>
        <time>2023-12-04T16:52:07.396Z</time>
      </trkpt>
      <trkpt lat="38.481747" lon="16.282017">
        <ele>961.013305</ele>
        <time>2023-12-04T16:52:22.856Z</time>
      </trkpt>
      <trkpt lat="38.481231" lon="16.281974">
        <ele>962.712173</ele>
        <time>2023-12-04T16:52:39.556Z</time>
      </trkpt>
      <trkpt lat="38.480821" lon="16.282073">
        <ele>964.590096</ele>
        <time>2023-12-04T16:52:54.151Z</time>
      </trkpt>
      <trkpt lat="38.480298" lon="16.282335">
        <ele>967.118435</ele>
        <time>2023-12-04T16:53:13.888Z</time>
      </trkpt>
      <trkpt lat="38.479605" lon="16.282992">
        <ele>970.477803</ele>
        <time>2023-12-04T16:53:41.899Z</time>
      </trkpt>
      <trkpt lat="38.479230" lon="16.283105">
        <ele>971.747016</ele>
        <time>2023-12-04T16:53:52.209Z</time>
      </trkpt>
      <trkpt lat="38.478940" lon="16.283063">
        <ele>972.708442</ele>
        <time>2023-12-04T16:53:59.392Z</time>
      </trkpt>
      <trkpt lat="38.478304" lon="16.282108">
        <ele>976.540739</ele>
        <time>2023-12-04T16:54:24.188Z</time>
      </trkpt>
      <trkpt lat="38.478050" lon="16.281458">
        <ele>979.569190</ele>
        <time>2023-12-04T16:54:43.313Z</time>
      </trkpt>
      <trkpt lat="38.477927" lon="16.281105">
        <ele>981.179915</ele>
        <time>2023-12-04T16:54:54.978Z</time>
      </trkpt>
      <trkpt lat="38.477930" lon="16.280595">
        <ele>983.306002</ele>
        <time>2023-12-04T16:55:11.672Z</time>
      </trkpt>
      <trkpt lat="38.477880" lon="16.280323">
        <ele>984.470724</ele>
        <time>2023-12-04T16:55:21.338Z</time>
      </trkpt>
      <trkpt lat="38.477654" lon="16.280120">
        <ele>986.159504</ele>
        <time>2023-12-04T16:55:33.740Z</time>
      </trkpt>
      <trkpt lat="38.477470" lon="16.280016">
        <ele>987.398191</ele>
        <time>2023-12-04T16:55:42.849Z</time>
      </trkpt>
      <trkpt lat="38.477357" lon="16.280030">
        <ele>988.097111</ele>
        <time>2023-12-04T16:55:48.064Z</time>
      </trkpt>
      <trkpt lat="38.476982" lon="16.280560">
        <ele>991.540092</ele>
        <time>2023-12-04T16:56:12.838Z</time>
      </trkpt>
      <trkpt lat="38.476805" lon="16.281027">
        <ele>994.040689</ele>
        <time>2023-12-04T16:56:28.228Z</time>
      </trkpt>
      <trkpt lat="38.476303" lon="16.281578">
        <ele>995.833809</ele>
        <time>2023-12-04T16:56:46.914Z</time>
      </trkpt>
      <trkpt lat="38.476268" lon="16.281889">
        <ele>995.963020</ele>
        <time>2023-12-04T16:56:51.938Z</time>
      </trkpt>
      <trkpt lat="38.476339" lon="16.282299">
        <ele>996.135705</ele>
        <time>2023-12-04T16:56:57.373Z</time>
      </trkpt>
      <trkpt lat="38.476346" lon="16.282653">
        <ele>996.281331</ele>
        <time>2023-12-04T16:57:00.934Z</time>
      </trkpt>
      <trkpt lat="38.476259" lon="16.283079">
        <ele>996.462383</ele>
        <time>2023-12-04T16:57:04.899Z</time>
      </trkpt>
      <trkpt lat="38.476028" lon="16.283395">
        <ele>996.388391</ele>
        <time>2023-12-04T16:57:08.516Z</time>
      </trkpt>
      <trkpt lat="38.475709" lon="16.283763">
        <ele>995.849822</ele>
        <time>2023-12-04T16:57:13.023Z</time>
      </trkpt>
      <trkpt lat="38.475490" lon="16.283883">
        <ele>995.551242</ele>
        <time>2023-12-04T16:57:15.650Z</time>
      </trkpt>
      <trkpt lat="38.475137" lon="16.283975">
        <ele>995.099834</ele>
        <time>2023-12-04T16:57:19.865Z</time>
      </trkpt>
      <trkpt lat="38.474833" lon="16.283941">
        <ele>994.717477</ele>
        <time>2023-12-04T16:57:23.725Z</time>
      </trkpt>
      <trkpt lat="38.474659" lon="16.283868">
        <ele>994.488003</ele>
        <time>2023-12-04T16:57:26.149Z</time>
      </trkpt>
      <trkpt lat="38.474564" lon="16.283791">
        <ele>994.347030</ele>
        <time>2023-12-04T16:57:27.653Z</time>
      </trkpt>
      <trkpt lat="38.474458" lon="16.283628">
        <ele>994.897727</ele>
        <time>2023-12-04T16:57:30.089Z</time>
      </trkpt>
      <trkpt lat="38.474328" lon="16.283268">
        <ele>996.214001</ele>
        <time>2023-12-04T16:57:35.118Z</time>
      </trkpt>
      <trkpt lat="38.474091" lon="16.282740">
        <ele>998.234736</ele>
        <time>2023-12-04T16:57:48.070Z</time>
      </trkpt>
      <trkpt lat="38.473992" lon="16.282236">
        <ele>999.959964</ele>
        <time>2023-12-04T16:58:03.770Z</time>
      </trkpt>
      <trkpt lat="38.473905" lon="16.282001">
        <ele>1000.823042</ele>
        <time>2023-12-04T16:58:12.885Z</time>
      </trkpt>
      <trkpt lat="38.473663" lon="16.281714">
        <ele>1002.383707</ele>
        <time>2023-12-04T16:58:29.099Z</time>
      </trkpt>
      <trkpt lat="38.473193" lon="16.281267">
        <ele>1006.273303</ele>
        <time>2023-12-04T16:58:58.093Z</time>
      </trkpt>
      <trkpt lat="38.472966" lon="16.281006">
        <ele>1008.300634</ele>
        <time>2023-12-04T16:59:11.644Z</time>
      </trkpt>
      <trkpt lat="38.472881" lon="16.280967">
        <ele>1008.900144</ele>
        <time>2023-12-04T16:59:15.324Z</time>
      </trkpt>
      <trkpt lat="38.472763" lon="16.280973">
        <ele>1009.684025</ele>
        <time>2023-12-04T16:59:19.828Z</time>
      </trkpt>
      <trkpt lat="38.472701" lon="16.281015">
        <ele>1010.149866</ele>
        <time>2023-12-04T16:59:22.800Z</time>
      </trkpt>
      <trkpt lat="38.472657" lon="16.281117">
        <ele>1010.755073</ele>
        <time>2023-12-04T16:59:26.597Z</time>
      </trkpt>
      <trkpt lat="38.472615" lon="16.281327">
        <ele>1011.881441</ele>
        <time>2023-12-04T16:59:32.657Z</time>
      </trkpt>
      <trkpt lat="38.472522" lon="16.282049">
        <ele>1014.316856</ele>
        <time>2023-12-04T16:59:51.366Z</time>
      </trkpt>
      <trkpt lat="38.472502" lon="16.282886">
        <ele>1015.372370</ele>
        <time>2023-12-04T17:00:08.046Z</time>
      </trkpt>
      <trkpt lat="38.472320" lon="16.283530">
        <ele>1016.235389</ele>
        <time>2023-12-04T17:00:17.633Z</time>
      </trkpt>
      <trkpt lat="38.472203" lon="16.283672">
        <ele>1016.495236</ele>
        <time>2023-12-04T17:00:19.809Z</time>
      </trkpt>
      <trkpt lat="38.472057" lon="16.283754">
        <ele>1016.752018</ele>
        <time>2023-12-04T17:00:21.671Z</time>
      </trkpt>
      <trkpt lat="38.471856" lon="16.283791">
        <ele>1016.607338</ele>
        <time>2023-12-04T17:00:23.827Z</time>
      </trkpt>
      <trkpt lat="38.471630" lon="16.283710">
        <ele>1016.399079</ele>
        <time>2023-12-04T17:00:26.272Z</time>
      </trkpt>
      <trkpt lat="38.471436" lon="16.283606">
        <ele>1016.212410</ele>
        <time>2023-12-04T17:00:28.494Z</time>
      </trkpt>
      <trkpt lat="38.471275" lon="16.283632">
        <ele>1016.068428</ele>
        <time>2023-12-04T17:00:30.226Z</time>
      </trkpt>
      <trkpt lat="38.471192" lon="16.283694">
        <ele>1015.983119</ele>
        <time>2023-12-04T17:00:31.323Z</time>
      </trkpt>
      <trkpt lat="38.471129" lon="16.283789">
        <ele>1015.896637</ele>
        <time>2023-12-04T17:00:32.505Z</time>
      </trkpt>
      <trkpt lat="38.470866" lon="16.284286">
        <ele>1015.479942</ele>
        <time>2023-12-04T17:00:39.906Z</time>
      </trkpt>
      <trkpt lat="38.470609" lon="16.284669">
        <ele>1015.166586</ele>
        <time>2023-12-04T17:00:47.515Z</time>
      </trkpt>
      <trkpt lat="38.470416" lon="16.284796">
        <ele>1015.117977</ele>
        <time>2023-12-04T17:00:50.957Z</time>
      </trkpt>
      <trkpt lat="38.470205" lon="16.284763">
        <ele>1015.070382</ele>
        <time>2023-12-04T17:00:53.447Z</time>
      </trkpt>
      <trkpt lat="38.470076" lon="16.284601">
        <ele>1015.029877</ele>
        <time>2023-12-04T17:00:55.504Z</time>
      </trkpt>
      <trkpt lat="38.470046" lon="16.284406">
        <ele>1014.995041</ele>
        <time>2023-12-04T17:00:57.123Z</time>
      </trkpt>
      <trkpt lat="38.470123" lon="16.283689">
        <ele>1014.868178</ele>
        <time>2023-12-04T17:01:03.679Z</time>
      </trkpt>
      <trkpt lat="38.470104" lon="16.283600">
        <ele>1014.852007</ele>
        <time>2023-12-04T17:01:04.828Z</time>
      </trkpt>
      <trkpt lat="38.470012" lon="16.283483">
        <ele>1014.822939</ele>
        <time>2023-12-04T17:01:07.142Z</time>
      </trkpt>
      <trkpt lat="38.469885" lon="16.283453">
        <ele>1014.794022</ele>
        <time>2023-12-04T17:01:09.948Z</time>
      </trkpt>
      <trkpt lat="38.469806" lon="16.283483">
        <ele>1014.777446</ele>
        <time>2023-12-04T17:01:12.077Z</time>
      </trkpt>
      <trkpt lat="38.469416" lon="16.283790">
        <ele>1014.912676</ele>
        <time>2023-12-04T17:01:23.880Z</time>
      </trkpt>
      <trkpt lat="38.469314" lon="16.283834">
        <ele>1014.944455</ele>
        <time>2023-12-04T17:01:26.678Z</time>
      </trkpt>
      <trkpt lat="38.469187" lon="16.283826">
        <ele>1014.981989</ele>
        <time>2023-12-04T17:01:29.638Z</time>
      </trkpt>
      <trkpt lat="38.469125" lon="16.283797">
        <ele>1015.001480</ele>
        <time>2023-12-04T17:01:30.955Z</time>
      </trkpt>
      <trkpt lat="38.469075" lon="16.283749">
        <ele>1015.019943</ele>
        <time>2023-12-04T17:01:32.148Z</time>
      </trkpt>
      <trkpt lat="38.468989" lon="16.283584">
        <ele>1015.065754</ele>
        <time>2023-12-04T17:01:34.884Z</time>
      </trkpt>
      <trkpt lat="38.468911" lon="16.283352">
        <ele>1015.124107</ele>
        <time>2023-12-04T17:01:37.528Z</time>
      </trkpt>
      <trkpt lat="38.468816" lon="16.282808">
        <ele>1015.252922</ele>
        <time>2023-12-04T17:01:42.499Z</time>
      </trkpt>
      <trkpt lat="38.468765" lon="16.282192">
        <ele>1014.822290</ele>
        <time>2023-12-04T17:01:47.965Z</time>
      </trkpt>
      <trkpt lat="38.468770" lon="16.281653">
        <ele>1014.141626</ele>
        <time>2023-12-04T17:01:52.991Z</time>
      </trkpt>
      <trkpt lat="38.468830" lon="16.281150">
        <ele>1013.499139</ele>
        <time>2023-12-04T17:01:57.588Z</time>
      </trkpt>
      <trkpt lat="38.468832" lon="16.280960">
        <ele>1013.259196</ele>
        <time>2023-12-04T17:01:59.252Z</time>
      </trkpt>
      <trkpt lat="38.468799" lon="16.280813">
        <ele>1013.066094</ele>
        <time>2023-12-04T17:02:00.538Z</time>
      </trkpt>
      <trkpt lat="38.468754" lon="16.280730">
        <ele>1012.938611</ele>
        <time>2023-12-04T17:02:01.372Z</time>
      </trkpt>
      <trkpt lat="38.468533" lon="16.280504">
        <ele>1012.482011</ele>
        <time>2023-12-04T17:02:04.429Z</time>
      </trkpt>
      <trkpt lat="38.468393" lon="16.280271">
        <ele>1012.389517</ele>
        <time>2023-12-04T17:02:06.929Z</time>
      </trkpt>
      <trkpt lat="38.468360" lon="16.280142">
        <ele>1012.379689</ele>
        <time>2023-12-04T17:02:08.099Z</time>
      </trkpt>
      <trkpt lat="38.468306" lon="16.279604">
        <ele>1012.340410</ele>
        <time>2023-12-04T17:02:13.379Z</time>
      </trkpt>
      <trkpt lat="38.468259" lon="16.279465">
        <ele>1012.329445</ele>
        <time>2023-12-04T17:02:15.188Z</time>
      </trkpt>
      <trkpt lat="38.468134" lon="16.279267">
        <ele>1012.311026</ele>
        <time>2023-12-04T17:02:18.361Z</time>
      </trkpt>
      <trkpt lat="38.467488" lon="16.278851">
        <ele>1012.244111</ele>
        <time>2023-12-04T17:02:32.654Z</time>
      </trkpt>
      <trkpt lat="38.466734" lon="16.277797">
        <ele>1012.875899</ele>
        <time>2023-12-04T17:02:54.478Z</time>
      </trkpt>
      <trkpt lat="38.466547" lon="16.277471">
        <ele>1013.063153</ele>
        <time>2023-12-04T17:03:00.147Z</time>
      </trkpt>
      <trkpt lat="38.466509" lon="16.277358">
        <ele>1013.120137</ele>
        <time>2023-12-04T17:03:01.887Z</time>
      </trkpt>
      <trkpt lat="38.466496" lon="16.275484">
        <ele>1012.128734</ele>
        <time>2023-12-04T17:03:19.415Z</time>
      </trkpt>
      <trkpt lat="38.466571" lon="16.275133">
        <ele>1011.838936</ele>
        <time>2023-12-04T17:03:22.438Z</time>
      </trkpt>
      <trkpt lat="38.466859" lon="16.274567">
        <ele>1011.878664</ele>
        <time>2023-12-04T17:03:28.940Z</time>
      </trkpt>
      <trkpt lat="38.466912" lon="16.274300">
        <ele>1012.389420</ele>
        <time>2023-12-04T17:03:32.455Z</time>
      </trkpt>
      <trkpt lat="38.466891" lon="16.274089">
        <ele>1012.783820</ele>
        <time>2023-12-04T17:03:35.880Z</time>
      </trkpt>
      <trkpt lat="38.466754" lon="16.273892">
        <ele>1013.272398</ele>
        <time>2023-12-04T17:03:40.549Z</time>
      </trkpt>
      <trkpt lat="38.466646" lon="16.273803">
        <ele>1013.576791</ele>
        <time>2023-12-04T17:03:43.862Z</time>
      </trkpt>
      <trkpt lat="38.466484" lon="16.273733">
        <ele>1013.981813</ele>
        <time>2023-12-04T17:03:48.482Z</time>
      </trkpt>
      <trkpt lat="38.466084" lon="16.273729">
        <ele>1014.929149</ele>
        <time>2023-12-04T17:04:00.910Z</time>
      </trkpt>
      <trkpt lat="38.465687" lon="16.273685">
        <ele>1015.898061</ele>
        <time>2023-12-04T17:04:14.143Z</time>
      </trkpt>
      <trkpt lat="38.465412" lon="16.273601">
        <ele>1016.689474</ele>
        <time>2023-12-04T17:04:23.406Z</time>
      </trkpt>
      <trkpt lat="38.465033" lon="16.273435">
        <ele>1017.810915</ele>
        <time>2023-12-04T17:04:36.478Z</time>
      </trkpt>
      <trkpt lat="38.464940" lon="16.273439">
        <ele>1018.071363</ele>
        <time>2023-12-04T17:04:39.482Z</time>
      </trkpt>
      <trkpt lat="38.464871" lon="16.273489">
        <ele>1018.293410</ele>
        <time>2023-12-04T17:04:41.906Z</time>
      </trkpt>
      <trkpt lat="38.464816" lon="16.273575">
        <ele>1018.536761</ele>
        <time>2023-12-04T17:04:44.307Z</time>
      </trkpt>
      <trkpt lat="38.464798" lon="16.273705">
        <ele>1018.826081</ele>
        <time>2023-12-04T17:04:46.991Z</time>
      </trkpt>
      <trkpt lat="38.464813" lon="16.273898">
        <ele>1019.251126</ele>
        <time>2023-12-04T17:04:50.730Z</time>
      </trkpt>
      <trkpt lat="38.464943" lon="16.274276">
        <ele>1020.155913</ele>
        <time>2023-12-04T17:04:57.131Z</time>
      </trkpt>
      <trkpt lat="38.465035" lon="16.274446">
        <ele>1020.608802</ele>
        <time>2023-12-04T17:04:59.705Z</time>
      </trkpt>
      <trkpt lat="38.465088" lon="16.274803">
        <ele>1020.746915</ele>
        <time>2023-12-04T17:05:03.685Z</time>
      </trkpt>
      <trkpt lat="38.465069" lon="16.275138">
        <ele>1020.721703</ele>
        <time>2023-12-04T17:05:07.007Z</time>
      </trkpt>
      <trkpt lat="38.464992" lon="16.275427">
        <ele>1020.698787</ele>
        <time>2023-12-04T17:05:09.869Z</time>
      </trkpt>
      <trkpt lat="38.464846" lon="16.275695">
        <ele>1020.674279</ele>
        <time>2023-12-04T17:05:12.900Z</time>
      </trkpt>
      <trkpt lat="38.464666" lon="16.275866">
        <ele>1020.652772</ele>
        <time>2023-12-04T17:05:15.630Z</time>
      </trkpt>
      <trkpt lat="38.464508" lon="16.275966">
        <ele>1020.635866</ele>
        <time>2023-12-04T17:05:17.921Z</time>
      </trkpt>
      <trkpt lat="38.464299" lon="16.275979">
        <ele>1020.615805</ele>
        <time>2023-12-04T17:05:20.930Z</time>
      </trkpt>
      <trkpt lat="38.464037" lon="16.275929">
        <ele>1020.799638</ele>
        <time>2023-12-04T17:05:25.747Z</time>
      </trkpt>
      <trkpt lat="38.463733" lon="16.275781">
        <ele>1021.880537</ele>
        <time>2023-12-04T17:05:33.300Z</time>
      </trkpt>
      <trkpt lat="38.463337" lon="16.275470">
        <ele>1023.425053</ele>
        <time>2023-12-04T17:05:47.128Z</time>
      </trkpt>
      <trkpt lat="38.462227" lon="16.274982">
        <ele>1026.839441</ele>
        <time>2023-12-04T17:06:26.585Z</time>
      </trkpt>
      <trkpt lat="38.461541" lon="16.274487">
        <ele>1027.768699</ele>
        <time>2023-12-04T17:06:43.607Z</time>
      </trkpt>
      <trkpt lat="38.461356" lon="16.274413">
        <ele>1027.997335</ele>
        <time>2023-12-04T17:06:46.668Z</time>
      </trkpt>
      <trkpt lat="38.460983" lon="16.274374">
        <ele>1028.438712</ele>
        <time>2023-12-04T17:06:51.685Z</time>
      </trkpt>
      <trkpt lat="38.460541" lon="16.274279">
        <ele>1028.319514</ele>
        <time>2023-12-04T17:06:56.873Z</time>
      </trkpt>
      <trkpt lat="38.460394" lon="16.274207">
        <ele>1028.066187</ele>
        <time>2023-12-04T17:06:58.588Z</time>
      </trkpt>
      <trkpt lat="38.460311" lon="16.274134">
        <ele>1027.904029</ele>
        <time>2023-12-04T17:06:59.686Z</time>
      </trkpt>
      <trkpt lat="38.460252" lon="16.274028">
        <ele>1027.740173</ele>
        <time>2023-12-04T17:07:00.752Z</time>
      </trkpt>
      <trkpt lat="38.460220" lon="16.273808">
        <ele>1027.458245</ele>
        <time>2023-12-04T17:07:02.576Z</time>
      </trkpt>
      <trkpt lat="38.460235" lon="16.273698">
        <ele>1027.317566</ele>
        <time>2023-12-04T17:07:03.487Z</time>
      </trkpt>
      <trkpt lat="38.460598" lon="16.273016">
        <ele>1026.278575</ele>
        <time>2023-12-04T17:07:10.388Z</time>
      </trkpt>
      <trkpt lat="38.460637" lon="16.272781">
        <ele>1025.975914</ele>
        <time>2023-12-04T17:07:12.650Z</time>
      </trkpt>
      <trkpt lat="38.460634" lon="16.272655">
        <ele>1025.817090</ele>
        <time>2023-12-04T17:07:13.991Z</time>
      </trkpt>
      <trkpt lat="38.460530" lon="16.272359">
        <ele>1026.276672</ele>
        <time>2023-12-04T17:07:17.810Z</time>
      </trkpt>
      <trkpt lat="38.460318" lon="16.272062">
        <ele>1026.895049</ele>
        <time>2023-12-04T17:07:23.672Z</time>
      </trkpt>
      <trkpt lat="38.459958" lon="16.271730">
        <ele>1027.767633</ele>
        <time>2023-12-04T17:07:33.456Z</time>
      </trkpt>
      <trkpt lat="38.459053" lon="16.270966">
        <ele>1030.770476</ele>
        <time>2023-12-04T17:08:04.232Z</time>
      </trkpt>
      <trkpt lat="38.458113" lon="16.270559">
        <ele>1035.723692</ele>
        <time>2023-12-04T17:08:40.480Z</time>
      </trkpt>
      <trkpt lat="38.457278" lon="16.270153">
        <ele>1039.881678</ele>
        <time>2023-12-04T17:09:13.639Z</time>
      </trkpt>
      <trkpt lat="38.456274" lon="16.269368">
        <ele>1044.813062</ele>
        <time>2023-12-04T17:09:51.752Z</time>
      </trkpt>
      <trkpt lat="38.456079" lon="16.269267">
        <ele>1045.694538</ele>
        <time>2023-12-04T17:09:57.178Z</time>
      </trkpt>
      <trkpt lat="38.455888" lon="16.269224">
        <ele>1045.998369</ele>
        <time>2023-12-04T17:10:01.681Z</time>
      </trkpt>
      <trkpt lat="38.455631" lon="16.269208">
        <ele>1046.249428</ele>
        <time>2023-12-04T17:10:07.295Z</time>
      </trkpt>
      <trkpt lat="38.454973" lon="16.269581">
        <ele>1046.951870</ele>
        <time>2023-12-04T17:10:20.498Z</time>
      </trkpt>
      <trkpt lat="38.453516" lon="16.269598">
        <ele>1048.246912</ele>
        <time>2023-12-04T17:10:41.487Z</time>
      </trkpt>
      <trkpt lat="38.452116" lon="16.268728">
        <ele>1051.047174</ele>
        <time>2023-12-04T17:11:13.853Z</time>
      </trkpt>
      <trkpt lat="38.451867" lon="16.268563">
        <ele>1052.053057</ele>
        <time>2023-12-04T17:11:22.275Z</time>
      </trkpt>
      <trkpt lat="38.451703" lon="16.268389">
        <ele>1052.817597</ele>
        <time>2023-12-04T17:11:29.389Z</time>
      </trkpt>
      <trkpt lat="38.451671" lon="16.268323">
        <ele>1053.035571</ele>
        <time>2023-12-04T17:11:31.492Z</time>
      </trkpt>
      <trkpt lat="38.451659" lon="16.268027">
        <ele>1053.867860</ele>
        <time>2023-12-04T17:11:39.818Z</time>
      </trkpt>
      <trkpt lat="38.451598" lon="16.267771">
        <ele>1054.619254</ele>
        <time>2023-12-04T17:11:47.484Z</time>
      </trkpt>
      <trkpt lat="38.451490" lon="16.267490">
        <ele>1055.498215</ele>
        <time>2023-12-04T17:11:55.934Z</time>
      </trkpt>
      <trkpt lat="38.451408" lon="16.267368">
        <ele>1055.897861</ele>
        <time>2023-12-04T17:12:00.035Z</time>
      </trkpt>
      <trkpt lat="38.450899" lon="16.267120">
        <ele>1057.617798</ele>
        <time>2023-12-04T17:12:16.455Z</time>
      </trkpt>
      <trkpt lat="38.450764" lon="16.267120">
        <ele>1058.043998</ele>
        <time>2023-12-04T17:12:20.026Z</time>
      </trkpt>
      <trkpt lat="38.450519" lon="16.267255">
        <ele>1058.886416</ele>
        <time>2023-12-04T17:12:26.265Z</time>
      </trkpt>
      <trkpt lat="38.450471" lon="16.267356">
        <ele>1059.178513</ele>
        <time>2023-12-04T17:12:28.480Z</time>
      </trkpt>
      <trkpt lat="38.450399" lon="16.268527">
        <ele>1061.732816</ele>
        <time>2023-12-04T17:12:51.301Z</time>
      </trkpt>
      <trkpt lat="38.450337" lon="16.268811">
        <ele>1062.174606</ele>
        <time>2023-12-04T17:12:57.268Z</time>
      </trkpt>
      <trkpt lat="38.450271" lon="16.268986">
        <ele>1062.465660</ele>
        <time>2023-12-04T17:13:00.886Z</time>
      </trkpt>
      <trkpt lat="38.450149" lon="16.269076">
        <ele>1062.735251</ele>
        <time>2023-12-04T17:13:04.226Z</time>
      </trkpt>
      <trkpt lat="38.449990" lon="16.269104">
        <ele>1063.042359</ele>
        <time>2023-12-04T17:13:07.278Z</time>
      </trkpt>
      <trkpt lat="38.449549" lon="16.268911">
        <ele>1063.934348</ele>
        <time>2023-12-04T17:13:16.147Z</time>
      </trkpt>
      <trkpt lat="38.448999" lon="16.268739">
        <ele>1065.483789</ele>
        <time>2023-12-04T17:13:27.803Z</time>
      </trkpt>
      <trkpt lat="38.448876" lon="16.268740">
        <ele>1066.006462</ele>
        <time>2023-12-04T17:13:30.741Z</time>
      </trkpt>
      <trkpt lat="38.448775" lon="16.268838">
        <ele>1066.545495</ele>
        <time>2023-12-04T17:13:34.360Z</time>
      </trkpt>
      <trkpt lat="38.448709" lon="16.268994">
        <ele>1067.135557</ele>
        <time>2023-12-04T17:13:38.540Z</time>
      </trkpt>
      <trkpt lat="38.448620" lon="16.269952">
        <ele>1070.346035</ele>
        <time>2023-12-04T17:14:04.950Z</time>
      </trkpt>
      <trkpt lat="38.448576" lon="16.270037">
        <ele>1070.685113</ele>
        <time>2023-12-04T17:14:07.768Z</time>
      </trkpt>
      <trkpt lat="38.448505" lon="16.270097">
        <ele>1071.046904</ele>
        <time>2023-12-04T17:14:11.006Z</time>
      </trkpt>
      <trkpt lat="38.448372" lon="16.270113">
        <ele>1071.614562</ele>
        <time>2023-12-04T17:14:16.204Z</time>
      </trkpt>
      <trkpt lat="38.448240" lon="16.270021">
        <ele>1072.253588</ele>
        <time>2023-12-04T17:14:21.670Z</time>
      </trkpt>
      <trkpt lat="38.447988" lon="16.269571">
        <ele>1075.248099</ele>
        <time>2023-12-04T17:14:37.616Z</time>
      </trkpt>
      <trkpt lat="38.447957" lon="16.269482">
        <ele>1075.778210</ele>
        <time>2023-12-04T17:14:40.551Z</time>
      </trkpt>
      <trkpt lat="38.447890" lon="16.269201">
        <ele>1077.376805</ele>
        <time>2023-12-04T17:14:49.563Z</time>
      </trkpt>
      <trkpt lat="38.447886" lon="16.269010">
        <ele>1078.416660</ele>
        <time>2023-12-04T17:14:55.847Z</time>
      </trkpt>
      <trkpt lat="38.447992" lon="16.268282">
        <ele>1082.446560</ele>
        <time>2023-12-04T17:15:22.574Z</time>
      </trkpt>
      <trkpt lat="38.447964" lon="16.268205">
        <ele>1082.908587</ele>
        <time>2023-12-04T17:15:25.951Z</time>
      </trkpt>
      <trkpt lat="38.447911" lon="16.268144">
        <ele>1083.404427</ele>
        <time>2023-12-04T17:15:29.572Z</time>
      </trkpt>
      <trkpt lat="38.447805" lon="16.268139">
        <ele>1084.141530</ele>
        <time>2023-12-04T17:15:34.874Z</time>
      </trkpt>
      <trkpt lat="38.447732" lon="16.268210">
        <ele>1084.778991</ele>
        <time>2023-12-04T17:15:39.495Z</time>
      </trkpt>
      <trkpt lat="38.447518" lon="16.268713">
        <ele>1087.335884</ele>
        <time>2023-12-04T17:16:00.647Z</time>
      </trkpt>
      <trkpt lat="38.447364" lon="16.268850">
        <ele>1088.406365</ele>
        <time>2023-12-04T17:16:08.594Z</time>
      </trkpt>
      <trkpt lat="38.447263" lon="16.268846">
        <ele>1088.982684</ele>
        <time>2023-12-04T17:16:12.650Z</time>
      </trkpt>
      <trkpt lat="38.447058" lon="16.268695">
        <ele>1090.332478</ele>
        <time>2023-12-04T17:16:21.346Z</time>
      </trkpt>
      <trkpt lat="38.446935" lon="16.268645">
        <ele>1091.068689</ele>
        <time>2023-12-04T17:16:25.759Z</time>
      </trkpt>
      <trkpt lat="38.446895" lon="16.268648">
        <ele>1091.297218</ele>
        <time>2023-12-04T17:16:27.029Z</time>
      </trkpt>
      <trkpt lat="38.446735" lon="16.268751">
        <ele>1092.319180</ele>
        <time>2023-12-04T17:16:32.691Z</time>
      </trkpt>
      <trkpt lat="38.446686" lon="16.268865">
        <ele>1092.900044</ele>
        <time>2023-12-04T17:16:35.744Z</time>
      </trkpt>
      <trkpt lat="38.446696" lon="16.269184">
        <ele>1094.326100</ele>
        <time>2023-12-04T17:16:43.076Z</time>
      </trkpt>
      <trkpt lat="38.446677" lon="16.269266">
        <ele>1094.708073</ele>
        <time>2023-12-04T17:16:45.024Z</time>
      </trkpt>
      <trkpt lat="38.446480" lon="16.269588">
        <ele>1096.120104</ele>
        <time>2023-12-04T17:16:54.207Z</time>
      </trkpt>
      <trkpt lat="38.446477" lon="16.269666">
        <ele>1096.372666</ele>
        <time>2023-12-04T17:16:56.031Z</time>
      </trkpt>
      <trkpt lat="38.446527" lon="16.269876">
        <ele>1097.082512</ele>
        <time>2023-12-04T17:17:01.101Z</time>
      </trkpt>
      <trkpt lat="38.446487" lon="16.270234">
        <ele>1098.252032</ele>
        <time>2023-12-04T17:17:10.070Z</time>
      </trkpt>
      <trkpt lat="38.445820" lon="16.270858">
        <ele>1101.666515</ele>
        <time>2023-12-04T17:17:37.133Z</time>
      </trkpt>
      <trkpt lat="38.445661" lon="16.270905">
        <ele>1102.340449</ele>
        <time>2023-12-04T17:17:42.665Z</time>
      </trkpt>
      <trkpt lat="38.445503" lon="16.270905">
        <ele>1102.849122</ele>
        <time>2023-12-04T17:17:47.818Z</time>
      </trkpt>
      <trkpt lat="38.444700" lon="16.270237">
        <ele>1105.731798</ele>
        <time>2023-12-04T17:18:16.143Z</time>
      </trkpt>
      <trkpt lat="38.444431" lon="16.270198">
        <ele>1106.546097</ele>
        <time>2023-12-04T17:18:22.426Z</time>
      </trkpt>
      <trkpt lat="38.444279" lon="16.270238">
        <ele>1107.012894</ele>
        <time>2023-12-04T17:18:25.813Z</time>
      </trkpt>
      <trkpt lat="38.444181" lon="16.270363">
        <ele>1107.429545</ele>
        <time>2023-12-04T17:18:28.785Z</time>
      </trkpt>
      <trkpt lat="38.444092" lon="16.270578">
        <ele>1107.931161</ele>
        <time>2023-12-04T17:18:33.383Z</time>
      </trkpt>
      <trkpt lat="38.443994" lon="16.271948">
        <ele>1109.380054</ele>
        <time>2023-12-04T17:18:52.670Z</time>
      </trkpt>
      <trkpt lat="38.443939" lon="16.272139">
        <ele>1109.594381</ele>
        <time>2023-12-04T17:18:54.870Z</time>
      </trkpt>
      <trkpt lat="38.443855" lon="16.272240">
        <ele>1109.749541</ele>
        <time>2023-12-04T17:18:57.010Z</time>
      </trkpt>
      <trkpt lat="38.443604" lon="16.272367">
        <ele>1110.112602</ele>
        <time>2023-12-04T17:19:01.735Z</time>
      </trkpt>
      <trkpt lat="38.443747" lon="16.271414">
        <ele>1113.484093</ele>
        <time>2023-12-04T17:19:23.583Z</time>
      </trkpt>
      <trkpt lat="38.443792" lon="16.270937">
        <ele>1115.401482</ele>
        <time>2023-12-04T17:19:38.789Z</time>
      </trkpt>
      <trkpt lat="38.443874" lon="16.270553">
        <ele>1116.989900</ele>
        <time>2023-12-04T17:19:52.601Z</time>
      </trkpt>
      <trkpt lat="38.444038" lon="16.270169">
        <ele>1118.735408</ele>
        <time>2023-12-04T17:20:06.842Z</time>
      </trkpt>
      <trkpt lat="38.444129" lon="16.269507">
        <ele>1120.786624</ele>
        <time>2023-12-04T17:20:26.960Z</time>
      </trkpt>
      <trkpt lat="38.444475" lon="16.268948">
        <ele>1122.714803</ele>
        <time>2023-12-04T17:20:44.329Z</time>
      </trkpt>
      <trkpt lat="38.444548" lon="16.268716">
        <ele>1123.391426</ele>
        <time>2023-12-04T17:20:49.560Z</time>
      </trkpt>
      <trkpt lat="38.444594" lon="16.268316">
        <ele>1124.485531</ele>
        <time>2023-12-04T17:20:57.207Z</time>
      </trkpt>
      <trkpt lat="38.444600" lon="16.267972">
        <ele>1125.416710</ele>
        <time>2023-12-04T17:21:02.953Z</time>
      </trkpt>
      <trkpt lat="38.444675" lon="16.267507">
        <ele>1125.232555</ele>
        <time>2023-12-04T17:21:09.473Z</time>
      </trkpt>
      <trkpt lat="38.445031" lon="16.267169">
        <ele>1124.578319</ele>
        <time>2023-12-04T17:21:14.945Z</time>
      </trkpt>
      <trkpt lat="38.445450" lon="16.266867">
        <ele>1123.868763</ele>
        <time>2023-12-04T17:21:20.022Z</time>
      </trkpt>
      <trkpt lat="38.445541" lon="16.266600">
        <ele>1123.532446</ele>
        <time>2023-12-04T17:21:22.298Z</time>
      </trkpt>
      <trkpt lat="38.445568" lon="16.266227">
        <ele>1123.099799</ele>
        <time>2023-12-04T17:21:25.273Z</time>
      </trkpt>
      <trkpt lat="38.445559" lon="16.265425">
        <ele>1122.783552</ele>
        <time>2023-12-04T17:21:32.000Z</time>
      </trkpt>
      <trkpt lat="38.445486" lon="16.264937">
        <ele>1122.623536</ele>
        <time>2023-12-04T17:21:36.637Z</time>
      </trkpt>
      <trkpt lat="38.445353" lon="16.264660">
        <ele>1122.518889</ele>
        <time>2023-12-04T17:21:40.346Z</time>
      </trkpt>
      <trkpt lat="38.444827" lon="16.263509">
        <ele>1123.522364</ele>
        <time>2023-12-04T17:22:04.364Z</time>
      </trkpt>
      <trkpt lat="38.444685" lon="16.263030">
        <ele>1124.600321</ele>
        <time>2023-12-04T17:22:14.938Z</time>
      </trkpt>
      <trkpt lat="38.444639" lon="16.262704">
        <ele>1125.297503</ele>
        <time>2023-12-04T17:22:22.516Z</time>
      </trkpt>
      <trkpt lat="38.444643" lon="16.262478">
        <ele>1125.773289</ele>
        <time>2023-12-04T17:22:27.780Z</time>
      </trkpt>
      <trkpt lat="38.444711" lon="16.261948">
        <ele>1126.903653</ele>
        <time>2023-12-04T17:22:39.635Z</time>
      </trkpt>
      <trkpt lat="38.445067" lon="16.260541">
        <ele>1126.522308</ele>
        <time>2023-12-04T17:23:04.728Z</time>
      </trkpt>
      <trkpt lat="38.445076" lon="16.259925">
        <ele>1126.258263</ele>
        <time>2023-12-04T17:23:09.588Z</time>
      </trkpt>
      <trkpt lat="38.444865" lon="16.259852">
        <ele>1126.138641</ele>
        <time>2023-12-04T17:23:11.678Z</time>
      </trkpt>
      <trkpt lat="38.444616" lon="16.259815">
        <ele>1124.548884</ele>
        <time>2023-12-04T17:23:14.034Z</time>
      </trkpt>
      <trkpt lat="38.444511" lon="16.259658">
        <ele>1123.453301</ele>
        <time>2023-12-04T17:23:15.518Z</time>
      </trkpt>
      <trkpt lat="38.444384" lon="16.259402">
        <ele>1121.845176</ele>
        <time>2023-12-04T17:23:17.699Z</time>
      </trkpt>
      <trkpt lat="38.444357" lon="16.259053">
        <ele>1119.984106</ele>
        <time>2023-12-04T17:23:20.186Z</time>
      </trkpt>
      <trkpt lat="38.444367" lon="16.258815">
        <ele>1118.719282</ele>
        <time>2023-12-04T17:23:21.857Z</time>
      </trkpt>
      <trkpt lat="38.444511" lon="16.258553">
        <ele>1117.020726</ele>
        <time>2023-12-04T17:23:24.084Z</time>
      </trkpt>
      <trkpt lat="38.444949" lon="16.258309">
        <ele>1113.743327</ele>
        <time>2023-12-04T17:23:28.264Z</time>
      </trkpt>
      <trkpt lat="38.445167" lon="16.258228">
        <ele>1111.823600</ele>
        <time>2023-12-04T17:23:30.254Z</time>
      </trkpt>
      <trkpt lat="38.445422" lon="16.258181">
        <ele>1109.645140</ele>
        <time>2023-12-04T17:23:32.507Z</time>
      </trkpt>
      <trkpt lat="38.445595" lon="16.258262">
        <ele>1108.087119</ele>
        <time>2023-12-04T17:23:34.127Z</time>
      </trkpt>
      <trkpt lat="38.445796" lon="16.258286">
        <ele>1106.380181</ele>
        <time>2023-12-04T17:23:35.896Z</time>
      </trkpt>
      <trkpt lat="38.445932" lon="16.258123">
        <ele>1104.803009</ele>
        <time>2023-12-04T17:23:37.552Z</time>
      </trkpt>
      <trkpt lat="38.445896" lon="16.257809">
        <ele>1102.701483</ele>
        <time>2023-12-04T17:23:39.766Z</time>
      </trkpt>
      <trkpt lat="38.445723" lon="16.257704">
        <ele>1101.081856</ele>
        <time>2023-12-04T17:23:41.462Z</time>
      </trkpt>
      <trkpt lat="38.445495" lon="16.257518">
        <ele>1098.794141</ele>
        <time>2023-12-04T17:23:43.827Z</time>
      </trkpt>
      <trkpt lat="38.445185" lon="16.257367">
        <ele>1095.308507</ele>
        <time>2023-12-04T17:23:46.687Z</time>
      </trkpt>
      <trkpt lat="38.444511" lon="16.256890">
        <ele>1087.178252</ele>
        <time>2023-12-04T17:23:53.279Z</time>
      </trkpt>
      <trkpt lat="38.444375" lon="16.256681">
        <ele>1084.932962</ele>
        <time>2023-12-04T17:23:55.092Z</time>
      </trkpt>
      <trkpt lat="38.444338" lon="16.256309">
        <ele>1081.834373</ele>
        <time>2023-12-04T17:23:57.590Z</time>
      </trkpt>
      <trkpt lat="38.444466" lon="16.255855">
        <ele>1077.799819</ele>
        <time>2023-12-04T17:24:00.797Z</time>
      </trkpt>
      <trkpt lat="38.444493" lon="16.255228">
        <ele>1072.482222</ele>
        <time>2023-12-04T17:24:04.982Z</time>
      </trkpt>
      <trkpt lat="38.444448" lon="16.253948">
        <ele>1061.631975</ele>
        <time>2023-12-04T17:24:13.535Z</time>
      </trkpt>
      <trkpt lat="38.444302" lon="16.253739">
        <ele>1059.395544</ele>
        <time>2023-12-04T17:24:15.440Z</time>
      </trkpt>
      <trkpt lat="38.444111" lon="16.253530">
        <ele>1057.025805</ele>
        <time>2023-12-04T17:24:17.631Z</time>
      </trkpt>
      <trkpt lat="38.443555" lon="16.253355">
        <ele>1051.631115</ele>
        <time>2023-12-04T17:24:22.626Z</time>
      </trkpt>
      <trkpt lat="38.443400" lon="16.253251">
        <ele>1049.981561</ele>
        <time>2023-12-04T17:24:24.150Z</time>
      </trkpt>
      <trkpt lat="38.443273" lon="16.253065">
        <ele>1048.160875</ele>
        <time>2023-12-04T17:24:25.838Z</time>
      </trkpt>
      <trkpt lat="38.443136" lon="16.252948">
        <ele>1046.608141</ele>
        <time>2023-12-04T17:24:27.258Z</time>
      </trkpt>
      <trkpt lat="38.442453" lon="16.252786">
        <ele>1039.964232</ele>
        <time>2023-12-04T17:24:33.249Z</time>
      </trkpt>
      <trkpt lat="38.442007" lon="16.252914">
        <ele>1035.528000</ele>
        <time>2023-12-04T17:24:37.187Z</time>
      </trkpt>
      <trkpt lat="38.441843" lon="16.252879">
        <ele>1033.914373</ele>
        <time>2023-12-04T17:24:38.616Z</time>
      </trkpt>
      <trkpt lat="38.441625" lon="16.252669">
        <ele>1031.264162</ele>
        <time>2023-12-04T17:24:40.973Z</time>
      </trkpt>
      <trkpt lat="38.441552" lon="16.252390">
        <ele>1029.028279</ele>
        <time>2023-12-04T17:24:42.962Z</time>
      </trkpt>
      <trkpt lat="38.441597" lon="16.252076">
        <ele>1026.601936</ele>
        <time>2023-12-04T17:24:45.123Z</time>
      </trkpt>
      <trkpt lat="38.441879" lon="16.251065">
        <ele>1021.170350</ele>
        <time>2023-12-04T17:24:52.461Z</time>
      </trkpt>
      <trkpt lat="38.441989" lon="16.250402">
        <ele>1017.899667</ele>
        <time>2023-12-04T17:24:57.254Z</time>
      </trkpt>
      <trkpt lat="38.441980" lon="16.249937">
        <ele>1015.654862</ele>
        <time>2023-12-04T17:25:00.849Z</time>
      </trkpt>
      <trkpt lat="38.441925" lon="16.249647">
        <ele>1015.353526</ele>
        <time>2023-12-04T17:25:03.552Z</time>
      </trkpt>
      <trkpt lat="38.441779" lon="16.249123">
        <ele>1017.651568</ele>
        <time>2023-12-04T17:25:11.662Z</time>
      </trkpt>
      <trkpt lat="38.441587" lon="16.248625">
        <ele>1019.945050</ele>
        <time>2023-12-04T17:25:27.199Z</time>
      </trkpt>
      <trkpt lat="38.440932" lon="16.247623">
        <ele>1026.659774</ele>
        <time>2023-12-04T17:26:21.059Z</time>
      </trkpt>
      <trkpt lat="38.441032" lon="16.247111">
        <ele>1031.663768</ele>
        <time>2023-12-04T17:26:44.828Z</time>
      </trkpt>
      <trkpt lat="38.440978" lon="16.246727">
        <ele>1035.363479</ele>
        <time>2023-12-04T17:27:04.145Z</time>
      </trkpt>
      <trkpt lat="38.440805" lon="16.246553">
        <ele>1038.029912</ele>
        <time>2023-12-04T17:27:18.759Z</time>
      </trkpt>
      <trkpt lat="38.440686" lon="16.246541">
        <ele>1039.475169</ele>
        <time>2023-12-04T17:27:26.875Z</time>
      </trkpt>
      <trkpt lat="38.440459" lon="16.246879">
        <ele>1043.697411</ele>
        <time>2023-12-04T17:27:51.481Z</time>
      </trkpt>
      <trkpt lat="38.440340" lon="16.246972">
        <ele>1045.386676</ele>
        <time>2023-12-04T17:28:01.469Z</time>
      </trkpt>
      <trkpt lat="38.440140" lon="16.246914">
        <ele>1048.174863</ele>
        <time>2023-12-04T17:28:16.293Z</time>
      </trkpt>
      <trkpt lat="38.439927" lon="16.246897">
        <ele>1051.202515</ele>
        <time>2023-12-04T17:28:31.060Z</time>
      </trkpt>
      <trkpt lat="38.439883" lon="16.246776">
        <ele>1052.684880</ele>
        <time>2023-12-04T17:28:38.335Z</time>
      </trkpt>
      <trkpt lat="38.439898" lon="16.246216">
        <ele>1058.911145</ele>
        <time>2023-12-04T17:29:08.644Z</time>
      </trkpt>
      <trkpt lat="38.439867" lon="16.245844">
        <ele>1063.068077</ele>
        <time>2023-12-04T17:29:30.008Z</time>
      </trkpt>
      <trkpt lat="38.439912" lon="16.245450">
        <ele>1067.492441</ele>
        <time>2023-12-04T17:29:53.666Z</time>
      </trkpt>
      <trkpt lat="38.440014" lon="16.245169">
        <ele>1070.933870</ele>
        <time>2023-12-04T17:30:12.207Z</time>
      </trkpt>
      <trkpt lat="38.440066" lon="16.244871">
        <ele>1073.758041</ele>
        <time>2023-12-04T17:30:30.306Z</time>
      </trkpt>
      <trkpt lat="38.439694" lon="16.244239">
        <ele>1080.704473</ele>
        <time>2023-12-04T17:31:11.904Z</time>
      </trkpt>
      <trkpt lat="38.439594" lon="16.244007">
        <ele>1083.031277</ele>
        <time>2023-12-04T17:31:23.941Z</time>
      </trkpt>
      <trkpt lat="38.439320" lon="16.243960">
        <ele>1086.132653</ele>
        <time>2023-12-04T17:31:38.958Z</time>
      </trkpt>
      <trkpt lat="38.439029" lon="16.244518">
        <ele>1091.900138</ele>
        <time>2023-12-04T17:32:04.967Z</time>
      </trkpt>
      <trkpt lat="38.438938" lon="16.244611">
        <ele>1092.525014</ele>
        <time>2023-12-04T17:32:10.242Z</time>
      </trkpt>
      <trkpt lat="38.438719" lon="16.244507">
        <ele>1093.777612</ele>
        <time>2023-12-04T17:32:20.282Z</time>
      </trkpt>
      <trkpt lat="38.438610" lon="16.244402">
        <ele>1094.509610</ele>
        <time>2023-12-04T17:32:25.723Z</time>
      </trkpt>
      <trkpt lat="38.438364" lon="16.244530">
        <ele>1095.933681</ele>
        <time>2023-12-04T17:32:35.566Z</time>
      </trkpt>
      <trkpt lat="38.438246" lon="16.244542">
        <ele>1096.568257</ele>
        <time>2023-12-04T17:32:39.743Z</time>
      </trkpt>
      <trkpt lat="38.438063" lon="16.244437">
        <ele>1097.643800</ele>
        <time>2023-12-04T17:32:46.561Z</time>
      </trkpt>
      <trkpt lat="38.438082" lon="16.244239">
        <ele>1098.481417</ele>
        <time>2023-12-04T17:32:51.764Z</time>
      </trkpt>
      <trkpt lat="38.438259" lon="16.244077">
        <ele>1099.648916</ele>
        <time>2023-12-04T17:32:58.687Z</time>
      </trkpt>
      <trkpt lat="38.438412" lon="16.243834">
        <ele>1100.958055</ele>
        <time>2023-12-04T17:33:05.909Z</time>
      </trkpt>
      <trkpt lat="38.438646" lon="16.243344">
        <ele>1102.111893</ele>
        <time>2023-12-04T17:33:18.124Z</time>
      </trkpt>
      <trkpt lat="38.438929" lon="16.242704">
        <ele>1103.198021</ele>
        <time>2023-12-04T17:33:31.464Z</time>
      </trkpt>
      <trkpt lat="38.438938" lon="16.242522">
        <ele>1103.467523</ele>
        <time>2023-12-04T17:33:34.467Z</time>
      </trkpt>
      <trkpt lat="38.438947" lon="16.242367">
        <ele>1103.697216</ele>
        <time>2023-12-04T17:33:36.874Z</time>
      </trkpt>
      <trkpt lat="38.438674" lon="16.241507">
        <ele>1104.856735</ele>
        <time>2023-12-04T17:33:50.481Z</time>
      </trkpt>
      <trkpt lat="38.438473" lon="16.241007">
        <ele>1104.969665</ele>
        <time>2023-12-04T17:33:57.471Z</time>
      </trkpt>
      <trkpt lat="38.438273" lon="16.240611">
        <ele>1105.064346</ele>
        <time>2023-12-04T17:34:02.481Z</time>
      </trkpt>
      <trkpt lat="38.438218" lon="16.240227">
        <ele>1105.142787</ele>
        <time>2023-12-04T17:34:06.952Z</time>
      </trkpt>
      <trkpt lat="38.438236" lon="16.239414">
        <ele>1105.316796</ele>
        <time>2023-12-04T17:34:17.578Z</time>
      </trkpt>
      <trkpt lat="38.438309" lon="16.238983">
        <ele>1105.449214</ele>
        <time>2023-12-04T17:34:23.283Z</time>
      </trkpt>
      <trkpt lat="38.438765" lon="16.237949">
        <ele>1105.805550</ele>
        <time>2023-12-04T17:34:38.057Z</time>
      </trkpt>
      <trkpt lat="38.439011" lon="16.237123">
        <ele>1106.336141</ele>
        <time>2023-12-04T17:34:48.870Z</time>
      </trkpt>
      <trkpt lat="38.439348" lon="16.234716">
        <ele>1110.447668</ele>
        <time>2023-12-04T17:35:28.932Z</time>
      </trkpt>
      <trkpt lat="38.439111" lon="16.233995">
        <ele>1113.588530</ele>
        <time>2023-12-04T17:35:51.579Z</time>
      </trkpt>
      <trkpt lat="38.439020" lon="16.233844">
        <ele>1114.353835</ele>
        <time>2023-12-04T17:35:57.402Z</time>
      </trkpt>
      <trkpt lat="38.438931" lon="16.233834">
        <ele>1114.812022</ele>
        <time>2023-12-04T17:36:01.017Z</time>
      </trkpt>
      <trkpt lat="38.438710" lon="16.233809">
        <ele>1115.949828</ele>
        <time>2023-12-04T17:36:09.700Z</time>
      </trkpt>
      <trkpt lat="38.437891" lon="16.233399">
        <ele>1121.693892</ele>
        <time>2023-12-04T17:36:48.691Z</time>
      </trkpt>
      <trkpt lat="38.437280" lon="16.233053">
        <ele>1126.699120</ele>
        <time>2023-12-04T17:37:21.000Z</time>
      </trkpt>
      <trkpt lat="38.436943" lon="16.232832">
        <ele>1129.536127</ele>
        <time>2023-12-04T17:37:39.686Z</time>
      </trkpt>
      <trkpt lat="38.436660" lon="16.232601">
        <ele>1131.544688</ele>
        <time>2023-12-04T17:37:54.931Z</time>
      </trkpt>
      <trkpt lat="38.436601" lon="16.232553">
        <ele>1131.736714</ele>
        <time>2023-12-04T17:37:58.143Z</time>
      </trkpt>
      <trkpt lat="38.436096" lon="16.230844">
        <ele>1135.663723</ele>
        <time>2023-12-04T17:38:35.259Z</time>
      </trkpt>
      <trkpt lat="38.436014" lon="16.230437">
        <ele>1135.645978</ele>
        <time>2023-12-04T17:38:38.995Z</time>
      </trkpt>
      <trkpt lat="38.435994" lon="16.230115">
        <ele>1134.652256</ele>
        <time>2023-12-04T17:38:41.577Z</time>
      </trkpt>
      <trkpt lat="38.436060" lon="16.229809">
        <ele>1133.675831</ele>
        <time>2023-12-04T17:38:44.036Z</time>
      </trkpt>
      <trkpt lat="38.436306" lon="16.229449">
        <ele>1132.206113</ele>
        <time>2023-12-04T17:38:47.603Z</time>
      </trkpt>
      <trkpt lat="38.436451" lon="16.229076">
        <ele>1130.925064</ele>
        <time>2023-12-04T17:38:50.616Z</time>
      </trkpt>
      <trkpt lat="38.436488" lon="16.228751">
        <ele>1129.914723</ele>
        <time>2023-12-04T17:38:52.956Z</time>
      </trkpt>
      <trkpt lat="38.436397" lon="16.228367">
        <ele>1128.708564</ele>
        <time>2023-12-04T17:38:55.823Z</time>
      </trkpt>
      <trkpt lat="38.435559" lon="16.226727">
        <ele>1123.065769</ele>
        <time>2023-12-04T17:39:11.317Z</time>
      </trkpt>
      <trkpt lat="38.435211" lon="16.225873">
        <ele>1120.023845</ele>
        <time>2023-12-04T17:39:19.091Z</time>
      </trkpt>
      <trkpt lat="38.435203" lon="16.225538">
        <ele>1118.941244</ele>
        <time>2023-12-04T17:39:21.630Z</time>
      </trkpt>
      <trkpt lat="38.435386" lon="16.224623">
        <ele>1115.890846</ele>
        <time>2023-12-04T17:39:28.711Z</time>
      </trkpt>
      <trkpt lat="38.435413" lon="16.224183">
        <ele>1114.538649</ele>
        <time>2023-12-04T17:39:31.945Z</time>
      </trkpt>
      <trkpt lat="38.435310" lon="16.223916">
        <ele>1113.690299</ele>
        <time>2023-12-04T17:39:34.088Z</time>
      </trkpt>
      <trkpt lat="38.435251" lon="16.223855">
        <ele>1113.414024</ele>
        <time>2023-12-04T17:39:34.786Z</time>
      </trkpt>
      <trkpt lat="38.435145" lon="16.223743">
        <ele>1112.913320</ele>
        <time>2023-12-04T17:39:36.054Z</time>
      </trkpt>
      <trkpt lat="38.434320" lon="16.223204">
        <ele>1109.540897</ele>
        <time>2023-12-04T17:39:45.104Z</time>
      </trkpt>
      <trkpt lat="38.433908" lon="16.222830">
        <ele>1108.652166</ele>
        <time>2023-12-04T17:39:51.533Z</time>
      </trkpt>
      <trkpt lat="38.433801" lon="16.222530">
        <ele>1108.771998</ele>
        <time>2023-12-04T17:39:56.817Z</time>
      </trkpt>
      <trkpt lat="38.433824" lon="16.222338">
        <ele>1108.842607</ele>
        <time>2023-12-04T17:40:00.213Z</time>
      </trkpt>
      <trkpt lat="38.433936" lon="16.222013">
        <ele>1108.971681</ele>
        <time>2023-12-04T17:40:06.652Z</time>
      </trkpt>
      <trkpt lat="38.434463" lon="16.221076">
        <ele>1109.308913</ele>
        <time>2023-12-04T17:40:23.942Z</time>
      </trkpt>
      <trkpt lat="38.434595" lon="16.220896">
        <ele>1108.768625</ele>
        <time>2023-12-04T17:40:26.381Z</time>
      </trkpt>
      <trkpt lat="38.434746" lon="16.220788">
        <ele>1108.284451</ele>
        <time>2023-12-04T17:40:28.389Z</time>
      </trkpt>
      <trkpt lat="38.435019" lon="16.220752">
        <ele>1107.516713</ele>
        <time>2023-12-04T17:40:31.388Z</time>
      </trkpt>
      <trkpt lat="38.435960" lon="16.220944">
        <ele>1104.851004</ele>
        <time>2023-12-04T17:40:40.970Z</time>
      </trkpt>
      <trkpt lat="38.436195" lon="16.220872">
        <ele>1103.948891</ele>
        <time>2023-12-04T17:40:43.251Z</time>
      </trkpt>
      <trkpt lat="38.436318" lon="16.220668">
        <ele>1102.647443</ele>
        <time>2023-12-04T17:40:45.111Z</time>
      </trkpt>
      <trkpt lat="38.436355" lon="16.220451">
        <ele>1101.524732</ele>
        <time>2023-12-04T17:40:46.668Z</time>
      </trkpt>
      <trkpt lat="38.436252" lon="16.219755">
        <ele>1097.943926</ele>
        <time>2023-12-04T17:40:51.636Z</time>
      </trkpt>
      <trkpt lat="38.436092" lon="16.219202">
        <ele>1094.963665</ele>
        <time>2023-12-04T17:40:55.794Z</time>
      </trkpt>
      <trkpt lat="38.436007" lon="16.218817">
        <ele>1092.941495</ele>
        <time>2023-12-04T17:40:58.641Z</time>
      </trkpt>
      <trkpt lat="38.436017" lon="16.218204">
        <ele>1089.638866</ele>
        <time>2023-12-04T17:41:02.983Z</time>
      </trkpt>
      <trkpt lat="38.437014" lon="16.216430">
        <ele>1077.975873</ele>
        <time>2023-12-04T17:41:18.333Z</time>
      </trkpt>
      <trkpt lat="38.436973" lon="16.215923">
        <ele>1075.382624</ele>
        <time>2023-12-04T17:41:21.991Z</time>
      </trkpt>
      <trkpt lat="38.436749" lon="16.215582">
        <ele>1073.118323</ele>
        <time>2023-12-04T17:41:25.176Z</time>
      </trkpt>
      <trkpt lat="38.436478" lon="16.215441">
        <ele>1071.217481</ele>
        <time>2023-12-04T17:41:27.837Z</time>
      </trkpt>
      <trkpt lat="38.436148" lon="16.215441">
        <ele>1069.073978</ele>
        <time>2023-12-04T17:41:30.834Z</time>
      </trkpt>
      <trkpt lat="38.435734" lon="16.215621">
        <ele>1066.193783</ele>
        <time>2023-12-04T17:41:34.818Z</time>
      </trkpt>
      <trkpt lat="38.434981" lon="16.215669">
        <ele>1061.216266</ele>
        <time>2023-12-04T17:41:41.618Z</time>
      </trkpt>
      <trkpt lat="38.434699" lon="16.215585">
        <ele>1059.304488</ele>
        <time>2023-12-04T17:41:44.228Z</time>
      </trkpt>
      <trkpt lat="38.434445" lon="16.215465">
        <ele>1057.516429</ele>
        <time>2023-12-04T17:41:46.672Z</time>
      </trkpt>
      <trkpt lat="38.433663" lon="16.214655">
        <ele>1052.314841</ele>
        <time>2023-12-04T17:41:55.891Z</time>
      </trkpt>
      <trkpt lat="38.433416" lon="16.214282">
        <ele>1050.409174</ele>
        <time>2023-12-04T17:41:59.522Z</time>
      </trkpt>
      <trkpt lat="38.433042" lon="16.213795">
        <ele>1047.795836</ele>
        <time>2023-12-04T17:42:04.763Z</time>
      </trkpt>
      <trkpt lat="38.432945" lon="16.213470">
        <ele>1047.654819</ele>
        <time>2023-12-04T17:42:07.594Z</time>
      </trkpt>
      <trkpt lat="38.432987" lon="16.213148">
        <ele>1047.522463</ele>
        <time>2023-12-04T17:42:10.489Z</time>
      </trkpt>
      <trkpt lat="38.433268" lon="16.212233">
        <ele>1047.123973</ele>
        <time>2023-12-04T17:42:22.721Z</time>
      </trkpt>
      <trkpt lat="38.433278" lon="16.211860">
        <ele>1046.972647</ele>
        <time>2023-12-04T17:42:28.832Z</time>
      </trkpt>
      <trkpt lat="38.433196" lon="16.211569">
        <ele>1046.826087</ele>
        <time>2023-12-04T17:42:33.580Z</time>
      </trkpt>
      <trkpt lat="38.433171" lon="16.211483">
        <ele>1046.754818</ele>
        <time>2023-12-04T17:42:35.146Z</time>
      </trkpt>
      <trkpt lat="38.432944" lon="16.211114">
        <ele>1046.390290</ele>
        <time>2023-12-04T17:42:41.608Z</time>
      </trkpt>
      <trkpt lat="38.432336" lon="16.210538">
        <ele>1045.639345</ele>
        <time>2023-12-04T17:42:51.109Z</time>
      </trkpt>
      <trkpt lat="38.432092" lon="16.210166">
        <ele>1045.262382</ele>
        <time>2023-12-04T17:42:55.334Z</time>
      </trkpt>
      <trkpt lat="38.431922" lon="16.209770">
        <ele>1044.370911</ele>
        <time>2023-12-04T17:42:58.935Z</time>
      </trkpt>
      <trkpt lat="38.431809" lon="16.209181">
        <ele>1042.443230</ele>
        <time>2023-12-04T17:43:03.444Z</time>
      </trkpt>
      <trkpt lat="38.431392" lon="16.207401">
        <ele>1036.922654</ele>
        <time>2023-12-04T17:43:17.418Z</time>
      </trkpt>
      <trkpt lat="38.431216" lon="16.206956">
        <ele>1035.826505</ele>
        <time>2023-12-04T17:43:21.426Z</time>
      </trkpt>
      <trkpt lat="38.431091" lon="16.206724">
        <ele>1035.207343</ele>
        <time>2023-12-04T17:43:23.705Z</time>
      </trkpt>
      <trkpt lat="38.430811" lon="16.206429">
        <ele>1034.188265</ele>
        <time>2023-12-04T17:43:27.468Z</time>
      </trkpt>
      <trkpt lat="38.429861" lon="16.205563">
        <ele>1032.538902</ele>
        <time>2023-12-04T17:43:40.807Z</time>
      </trkpt>
      <trkpt lat="38.429494" lon="16.204891">
        <ele>1032.341991</ele>
        <time>2023-12-04T17:43:51.019Z</time>
      </trkpt>
      <trkpt lat="38.429287" lon="16.204302">
        <ele>1032.186816</ele>
        <time>2023-12-04T17:44:00.080Z</time>
      </trkpt>
      <trkpt lat="38.429038" lon="16.203917">
        <ele>1032.295321</ele>
        <time>2023-12-04T17:44:06.793Z</time>
      </trkpt>
      <trkpt lat="38.428724" lon="16.203179">
        <ele>1032.478119</ele>
        <time>2023-12-04T17:44:18.841Z</time>
      </trkpt>
      <trkpt lat="38.428651" lon="16.203008">
        <ele>1032.520508</ele>
        <time>2023-12-04T17:44:21.430Z</time>
      </trkpt>
      <trkpt lat="38.428600" lon="16.202897">
        <ele>1032.548517</ele>
        <time>2023-12-04T17:44:23.142Z</time>
      </trkpt>
      <trkpt lat="38.428468" lon="16.202416">
        <ele>1032.659451</ele>
        <time>2023-12-04T17:44:29.498Z</time>
      </trkpt>
      <trkpt lat="38.428411" lon="16.201863">
        <ele>1031.690998</ele>
        <time>2023-12-04T17:44:34.882Z</time>
      </trkpt>
      <trkpt lat="38.428637" lon="16.200626">
        <ele>1028.774649</ele>
        <time>2023-12-04T17:44:44.884Z</time>
      </trkpt>
      <trkpt lat="38.428628" lon="16.200133">
        <ele>1027.642423</ele>
        <time>2023-12-04T17:44:48.664Z</time>
      </trkpt>
      <trkpt lat="38.428402" lon="16.199592">
        <ele>1025.601867</ele>
        <time>2023-12-04T17:44:53.246Z</time>
      </trkpt>
      <trkpt lat="38.427103" lon="16.197862">
        <ele>1017.824341</ele>
        <time>2023-12-04T17:45:11.144Z</time>
      </trkpt>
      <trkpt lat="38.426905" lon="16.197442">
        <ele>1016.633750</ele>
        <time>2023-12-04T17:45:15.110Z</time>
      </trkpt>
      <trkpt lat="38.426774" lon="16.196997">
        <ele>1015.479109</ele>
        <time>2023-12-04T17:45:19.015Z</time>
      </trkpt>
      <trkpt lat="38.426783" lon="16.196084">
        <ele>1013.451173</ele>
        <time>2023-12-04T17:45:26.697Z</time>
      </trkpt>
      <trkpt lat="38.426689" lon="16.195567">
        <ele>1012.673204</ele>
        <time>2023-12-04T17:45:31.419Z</time>
      </trkpt>
      <trkpt lat="38.426322" lon="16.194642">
        <ele>1011.153347</ele>
        <time>2023-12-04T17:45:40.516Z</time>
      </trkpt>
      <trkpt lat="38.426124" lon="16.194305">
        <ele>1010.535874</ele>
        <time>2023-12-04T17:45:44.119Z</time>
      </trkpt>
      <trkpt lat="38.426039" lon="16.193933">
        <ele>1010.327341</ele>
        <time>2023-12-04T17:45:47.462Z</time>
      </trkpt>
      <trkpt lat="38.426049" lon="16.193524">
        <ele>1010.257591</ele>
        <time>2023-12-04T17:45:51.095Z</time>
      </trkpt>
      <trkpt lat="38.426162" lon="16.193284">
        <ele>1010.209862</ele>
        <time>2023-12-04T17:45:53.911Z</time>
      </trkpt>
      <trkpt lat="38.426585" lon="16.192551">
        <ele>1010.054680</ele>
        <time>2023-12-04T17:46:06.798Z</time>
      </trkpt>
      <trkpt lat="38.426792" lon="16.192023">
        <ele>1009.805675</ele>
        <time>2023-12-04T17:46:15.868Z</time>
      </trkpt>
      <trkpt lat="38.427197" lon="16.190941">
        <ele>1008.564626</ele>
        <time>2023-12-04T17:46:29.366Z</time>
      </trkpt>
      <trkpt lat="38.427404" lon="16.190304">
        <ele>1007.850912</ele>
        <time>2023-12-04T17:46:35.069Z</time>
      </trkpt>
      <trkpt lat="38.427470" lon="16.189715">
        <ele>1006.169554</ele>
        <time>2023-12-04T17:46:39.561Z</time>
      </trkpt>
      <trkpt lat="38.427319" lon="16.189175">
        <ele>1003.876477</ele>
        <time>2023-12-04T17:46:43.701Z</time>
      </trkpt>
      <trkpt lat="38.427197" lon="16.188874">
        <ele>1002.521111</ele>
        <time>2023-12-04T17:46:46.089Z</time>
      </trkpt>
      <trkpt lat="38.426896" lon="16.188310">
        <ele>999.791819</ele>
        <time>2023-12-04T17:46:50.903Z</time>
      </trkpt>
      <trkpt lat="38.425908" lon="16.187288">
        <ele>997.963255</ele>
        <time>2023-12-04T17:47:04.185Z</time>
      </trkpt>
      <trkpt lat="38.425710" lon="16.186940">
        <ele>997.808303</ele>
        <time>2023-12-04T17:47:11.784Z</time>
      </trkpt>
      <trkpt lat="38.425653" lon="16.186709">
        <ele>997.721050</ele>
        <time>2023-12-04T17:47:16.945Z</time>
      </trkpt>
      <trkpt lat="38.425668" lon="16.186450">
        <ele>997.627484</ele>
        <time>2023-12-04T17:47:22.333Z</time>
      </trkpt>
      <trkpt lat="38.426002" lon="16.185967">
        <ele>998.733995</ele>
        <time>2023-12-04T17:47:37.576Z</time>
      </trkpt>
      <trkpt lat="38.426118" lon="16.185341">
        <ele>1000.034939</ele>
        <time>2023-12-04T17:47:54.082Z</time>
      </trkpt>
      <trkpt lat="38.426029" lon="16.183149">
        <ele>1001.021699</ele>
        <time>2023-12-04T17:48:27.209Z</time>
      </trkpt>
      <trkpt lat="38.425879" lon="16.182757">
        <ele>1000.539927</ele>
        <time>2023-12-04T17:48:30.722Z</time>
      </trkpt>
      <trkpt lat="38.425581" lon="16.182457">
        <ele>1000.004936</ele>
        <time>2023-12-04T17:48:34.458Z</time>
      </trkpt>
      <trkpt lat="38.425175" lon="16.182341">
        <ele>999.121249</ele>
        <time>2023-12-04T17:48:38.446Z</time>
      </trkpt>
      <trkpt lat="38.424158" lon="16.182292">
        <ele>996.201550</ele>
        <time>2023-12-04T17:48:48.271Z</time>
      </trkpt>
      <trkpt lat="38.423450" lon="16.182253">
        <ele>994.650874</ele>
        <time>2023-12-04T17:48:57.516Z</time>
      </trkpt>
      <trkpt lat="38.423180" lon="16.182136">
        <ele>994.879400</ele>
        <time>2023-12-04T17:49:02.654Z</time>
      </trkpt>
      <trkpt lat="38.423018" lon="16.182012">
        <ele>995.030793</ele>
        <time>2023-12-04T17:49:06.682Z</time>
      </trkpt>
      <trkpt lat="38.422584" lon="16.181370">
        <ele>995.563232</ele>
        <time>2023-12-04T17:49:20.553Z</time>
      </trkpt>
      <trkpt lat="38.422226" lon="16.181126">
        <ele>995.888500</ele>
        <time>2023-12-04T17:49:28.566Z</time>
      </trkpt>
      <trkpt lat="38.421752" lon="16.181014">
        <ele>995.222249</ele>
        <time>2023-12-04T17:49:37.200Z</time>
      </trkpt>
      <trkpt lat="38.421291" lon="16.180830">
        <ele>994.193297</ele>
        <time>2023-12-04T17:49:43.235Z</time>
      </trkpt>
      <trkpt lat="38.420713" lon="16.180673">
        <ele>992.934426</ele>
        <time>2023-12-04T17:49:49.110Z</time>
      </trkpt>
      <trkpt lat="38.420533" lon="16.180624">
        <ele>992.542352</ele>
        <time>2023-12-04T17:49:50.854Z</time>
      </trkpt>
      <trkpt lat="38.420139" lon="16.180399">
        <ele>991.237587</ele>
        <time>2023-12-04T17:49:54.951Z</time>
      </trkpt>
      <trkpt lat="38.419949" lon="16.180211">
        <ele>990.355033</ele>
        <time>2023-12-04T17:49:57.267Z</time>
      </trkpt>
      <trkpt lat="38.419864" lon="16.180079">
        <ele>989.863594</ele>
        <time>2023-12-04T17:49:58.576Z</time>
      </trkpt>
      <trkpt lat="38.419854" lon="16.179406">
        <ele>987.927552</ele>
        <time>2023-12-04T17:50:03.845Z</time>
      </trkpt>
      <trkpt lat="38.419986" lon="16.179070">
        <ele>986.846457</ele>
        <time>2023-12-04T17:50:06.860Z</time>
      </trkpt>
      <trkpt lat="38.420224" lon="16.178637">
        <ele>985.243340</ele>
        <time>2023-12-04T17:50:11.074Z</time>
      </trkpt>
      <trkpt lat="38.420545" lon="16.178128">
        <ele>982.687863</ele>
        <time>2023-12-04T17:50:16.241Z</time>
      </trkpt>
      <trkpt lat="38.420721" lon="16.177712">
        <ele>980.838842</ele>
        <time>2023-12-04T17:50:19.927Z</time>
      </trkpt>
      <trkpt lat="38.420758" lon="16.177315">
        <ele>979.275246</ele>
        <time>2023-12-04T17:50:22.927Z</time>
      </trkpt>
      <trkpt lat="38.420589" lon="16.176799">
        <ele>977.087954</ele>
        <time>2023-12-04T17:50:26.955Z</time>
      </trkpt>
      <trkpt lat="38.419920" lon="16.176282">
        <ele>969.068230</ele>
        <time>2023-12-04T17:50:33.698Z</time>
      </trkpt>
      <trkpt lat="38.419393" lon="16.175657">
        <ele>961.117304</ele>
        <time>2023-12-04T17:50:39.759Z</time>
      </trkpt>
      <trkpt lat="38.419111" lon="16.175453">
        <ele>957.534714</ele>
        <time>2023-12-04T17:50:42.497Z</time>
      </trkpt>
      <trkpt lat="38.418838" lon="16.175393">
        <ele>954.244320</ele>
        <time>2023-12-04T17:50:44.837Z</time>
      </trkpt>
      <trkpt lat="38.418599" lon="16.175427">
        <ele>951.312847</ele>
        <time>2023-12-04T17:50:46.856Z</time>
      </trkpt>
      <trkpt lat="38.418348" lon="16.175765">
        <ele>946.865035</ele>
        <time>2023-12-04T17:50:49.931Z</time>
      </trkpt>
      <trkpt lat="38.418181" lon="16.176157">
        <ele>942.603418</ele>
        <time>2023-12-04T17:50:52.886Z</time>
      </trkpt>
      <trkpt lat="38.418009" lon="16.176775">
        <ele>936.339623</ele>
        <time>2023-12-04T17:50:57.228Z</time>
      </trkpt>
      <trkpt lat="38.417318" lon="16.177691">
        <ele>925.989167</ele>
        <time>2023-12-04T17:51:05.681Z</time>
      </trkpt>
      <trkpt lat="38.417155" lon="16.177872">
        <ele>923.802311</ele>
        <time>2023-12-04T17:51:07.537Z</time>
      </trkpt>
      <trkpt lat="38.416890" lon="16.177999">
        <ele>920.937206</ele>
        <time>2023-12-04T17:51:09.986Z</time>
      </trkpt>
      <trkpt lat="38.416615" lon="16.177913">
        <ele>918.071404</ele>
        <time>2023-12-04T17:51:12.457Z</time>
      </trkpt>
      <trkpt lat="38.416487" lon="16.177760">
        <ele>916.456103</ele>
        <time>2023-12-04T17:51:14.006Z</time>
      </trkpt>
      <trkpt lat="38.416318" lon="16.177527">
        <ele>915.442926</ele>
        <time>2023-12-04T17:51:16.229Z</time>
      </trkpt>
      <trkpt lat="38.415779" lon="16.176674">
        <ele>911.946115</ele>
        <time>2023-12-04T17:51:24.395Z</time>
      </trkpt>
      <trkpt lat="38.415546" lon="16.176577">
        <ele>910.947977</ele>
        <time>2023-12-04T17:51:27.062Z</time>
      </trkpt>
      <trkpt lat="38.415259" lon="16.176734">
        <ele>909.676279</ele>
        <time>2023-12-04T17:51:31.159Z</time>
      </trkpt>
      <trkpt lat="38.414787" lon="16.176711">
        <ele>908.381812</ele>
        <time>2023-12-04T17:51:37.693Z</time>
      </trkpt>
      <trkpt lat="38.414326" lon="16.176537">
        <ele>907.253089</ele>
        <time>2023-12-04T17:51:43.150Z</time>
      </trkpt>
      <trkpt lat="38.413166" lon="16.176236">
        <ele>903.886538</ele>
        <time>2023-12-04T17:51:55.172Z</time>
      </trkpt>
      <trkpt lat="38.412922" lon="16.176313">
        <ele>902.656429</ele>
        <time>2023-12-04T17:51:57.568Z</time>
      </trkpt>
      <trkpt lat="38.412718" lon="16.176816">
        <ele>900.484487</ele>
        <time>2023-12-04T17:52:01.692Z</time>
      </trkpt>
      <trkpt lat="38.412653" lon="16.176907">
        <ele>900.012290</ele>
        <time>2023-12-04T17:52:02.588Z</time>
      </trkpt>
      <trkpt lat="38.412430" lon="16.177074">
        <ele>898.746903</ele>
        <time>2023-12-04T17:52:04.989Z</time>
      </trkpt>
      <trkpt lat="38.411714" lon="16.177047">
        <ele>895.282784</ele>
        <time>2023-12-04T17:52:11.671Z</time>
      </trkpt>
      <trkpt lat="38.411437" lon="16.177231">
        <ele>893.819848</ele>
        <time>2023-12-04T17:52:14.590Z</time>
      </trkpt>
      <trkpt lat="38.410386" lon="16.178332">
        <ele>887.641760</ele>
        <time>2023-12-04T17:52:27.536Z</time>
      </trkpt>
      <trkpt lat="38.410114" lon="16.178455">
        <ele>887.060612</ele>
        <time>2023-12-04T17:52:30.425Z</time>
      </trkpt>
      <trkpt lat="38.410033" lon="16.178457">
        <ele>886.897456</ele>
        <time>2023-12-04T17:52:31.261Z</time>
      </trkpt>
      <trkpt lat="38.408656" lon="16.178468">
        <ele>884.184756</ele>
        <time>2023-12-04T17:52:47.010Z</time>
      </trkpt>
      <trkpt lat="38.408114" lon="16.178524">
        <ele>884.747142</ele>
        <time>2023-12-04T17:52:55.722Z</time>
      </trkpt>
      <trkpt lat="38.407853" lon="16.178711">
        <ele>885.056709</ele>
        <time>2023-12-04T17:53:01.204Z</time>
      </trkpt>
      <trkpt lat="38.406593" lon="16.179830">
        <ele>886.286174</ele>
        <time>2023-12-04T17:53:36.775Z</time>
      </trkpt>
      <trkpt lat="38.406059" lon="16.180352">
        <ele>886.579907</ele>
        <time>2023-12-04T17:53:49.340Z</time>
      </trkpt>
      <trkpt lat="38.405706" lon="16.180564">
        <ele>886.750268</ele>
        <time>2023-12-04T17:53:54.269Z</time>
      </trkpt>
      <trkpt lat="38.405038" lon="16.180803">
        <ele>883.898020</ele>
        <time>2023-12-04T17:54:01.478Z</time>
      </trkpt>
      <trkpt lat="38.404429" lon="16.180944">
        <ele>880.664097</ele>
        <time>2023-12-04T17:54:07.224Z</time>
      </trkpt>
      <trkpt lat="38.403820" lon="16.181340">
        <ele>876.892485</ele>
        <time>2023-12-04T17:54:13.307Z</time>
      </trkpt>
      <trkpt lat="38.403205" lon="16.181921">
        <ele>870.385575</ele>
        <time>2023-12-04T17:54:20.028Z</time>
      </trkpt>
      <trkpt lat="38.402794" lon="16.182170">
        <ele>866.516707</ele>
        <time>2023-12-04T17:54:24.003Z</time>
      </trkpt>
      <trkpt lat="38.401530" lon="16.182099">
        <ele>855.268619</ele>
        <time>2023-12-04T17:54:35.026Z</time>
      </trkpt>
      <trkpt lat="38.401294" lon="16.182162">
        <ele>853.060624</ele>
        <time>2023-12-04T17:54:37.109Z</time>
      </trkpt>
      <trkpt lat="38.401079" lon="16.182356">
        <ele>850.649195</ele>
        <time>2023-12-04T17:54:39.389Z</time>
      </trkpt>
      <trkpt lat="38.400726" lon="16.182790">
        <ele>846.160168</ele>
        <time>2023-12-04T17:54:43.645Z</time>
      </trkpt>
      <trkpt lat="38.400560" lon="16.183222">
        <ele>843.298652</ele>
        <time>2023-12-04T17:54:46.931Z</time>
      </trkpt>
      <trkpt lat="38.400318" lon="16.183701">
        <ele>840.031777</ele>
        <time>2023-12-04T17:54:50.856Z</time>
      </trkpt>
      <trkpt lat="38.399541" lon="16.184623">
        <ele>832.379352</ele>
        <time>2023-12-04T17:55:00.456Z</time>
      </trkpt>
      <trkpt lat="38.399294" lon="16.185159">
        <ele>830.583182</ele>
        <time>2023-12-04T17:55:05.115Z</time>
      </trkpt>
      <trkpt lat="38.399217" lon="16.185281">
        <ele>830.130686</ele>
        <time>2023-12-04T17:55:06.313Z</time>
      </trkpt>
      <trkpt lat="38.399094" lon="16.185453">
        <ele>829.458070</ele>
        <time>2023-12-04T17:55:08.117Z</time>
      </trkpt>
      <trkpt lat="38.398817" lon="16.185605">
        <ele>828.346649</ele>
        <time>2023-12-04T17:55:11.135Z</time>
      </trkpt>
      <trkpt lat="38.398422" lon="16.185704">
        <ele>826.862874</ele>
        <time>2023-12-04T17:55:15.340Z</time>
      </trkpt>
      <trkpt lat="38.397728" lon="16.185806">
        <ele>825.126798</ele>
        <time>2023-12-04T17:55:23.011Z</time>
      </trkpt>
      <trkpt lat="38.397518" lon="16.185809">
        <ele>824.765778</ele>
        <time>2023-12-04T17:55:25.315Z</time>
      </trkpt>
      <trkpt lat="38.397159" lon="16.186150">
        <ele>823.996420</ele>
        <time>2023-12-04T17:55:30.376Z</time>
      </trkpt>
      <trkpt lat="38.396803" lon="16.186649">
        <ele>823.087313</ele>
        <time>2023-12-04T17:55:36.408Z</time>
      </trkpt>
      <trkpt lat="38.396081" lon="16.187342">
        <ele>821.513059</ele>
        <time>2023-12-04T17:55:47.238Z</time>
      </trkpt>
      <trkpt lat="38.395331" lon="16.187701">
        <ele>820.112442</ele>
        <time>2023-12-04T17:55:55.996Z</time>
      </trkpt>
      <trkpt lat="38.394619" lon="16.188002">
        <ele>819.410037</ele>
        <time>2023-12-04T17:56:04.024Z</time>
      </trkpt>
      <trkpt lat="38.394301" lon="16.188074">
        <ele>819.263683</ele>
        <time>2023-12-04T17:56:07.932Z</time>
      </trkpt>
      <trkpt lat="38.393425" lon="16.188270">
        <ele>818.860664</ele>
        <time>2023-12-04T17:56:23.037Z</time>
      </trkpt>
      <trkpt lat="38.393282" lon="16.188145">
        <ele>818.819013</ele>
        <time>2023-12-04T17:56:26.726Z</time>
      </trkpt>
      <trkpt lat="38.393222" lon="16.188041">
        <ele>818.838395</ele>
        <time>2023-12-04T17:56:28.761Z</time>
      </trkpt>
      <trkpt lat="38.393109" lon="16.187555">
        <ele>818.914477</ele>
        <time>2023-12-04T17:56:35.370Z</time>
      </trkpt>
      <trkpt lat="38.393033" lon="16.187473">
        <ele>818.933537</ele>
        <time>2023-12-04T17:56:36.931Z</time>
      </trkpt>
      <trkpt lat="38.392929" lon="16.187431">
        <ele>818.954426</ele>
        <time>2023-12-04T17:56:39.133Z</time>
      </trkpt>
      <trkpt lat="38.392825" lon="16.187488">
        <ele>818.976100</ele>
        <time>2023-12-04T17:56:41.401Z</time>
      </trkpt>
      <trkpt lat="38.392621" lon="16.187391">
        <ele>819.017789</ele>
        <time>2023-12-04T17:56:45.136Z</time>
      </trkpt>
      <trkpt lat="38.392358" lon="16.186284">
        <ele>818.601214</ele>
        <time>2023-12-04T17:56:58.072Z</time>
      </trkpt>
      <trkpt lat="38.392018" lon="16.185059">
        <ele>815.838874</ele>
        <time>2023-12-04T17:57:08.493Z</time>
      </trkpt>
      <trkpt lat="38.391916" lon="16.184783">
        <ele>815.190252</ele>
        <time>2023-12-04T17:57:10.875Z</time>
      </trkpt>
      <trkpt lat="38.391792" lon="16.184593">
        <ele>814.664701</ele>
        <time>2023-12-04T17:57:12.815Z</time>
      </trkpt>
      <trkpt lat="38.391544" lon="16.184451">
        <ele>813.674484</ele>
        <time>2023-12-04T17:57:15.545Z</time>
      </trkpt>
      <trkpt lat="38.390155" lon="16.184316">
        <ele>807.142044</ele>
        <time>2023-12-04T17:57:28.976Z</time>
      </trkpt>
      <trkpt lat="38.389758" lon="16.184245">
        <ele>805.000361</ele>
        <time>2023-12-04T17:57:32.626Z</time>
      </trkpt>
      <trkpt lat="38.389430" lon="16.184008">
        <ele>802.431797</ele>
        <time>2023-12-04T17:57:36.004Z</time>
      </trkpt>
      <trkpt lat="38.389139" lon="16.183676">
        <ele>799.771710</ele>
        <time>2023-12-04T17:57:39.479Z</time>
      </trkpt>
      <trkpt lat="38.388810" lon="16.183130">
        <ele>796.093425</ele>
        <time>2023-12-04T17:57:44.299Z</time>
      </trkpt>
      <trkpt lat="38.388574" lon="16.182853">
        <ele>793.908289</ele>
        <time>2023-12-04T17:57:47.194Z</time>
      </trkpt>
      <trkpt lat="38.388351" lon="16.182806">
        <ele>792.722337</ele>
        <time>2023-12-04T17:57:49.258Z</time>
      </trkpt>
      <trkpt lat="38.388178" lon="16.182885">
        <ele>791.835035</ele>
        <time>2023-12-04T17:57:50.934Z</time>
      </trkpt>
      <trkpt lat="38.388029" lon="16.183106">
        <ele>790.731675</ele>
        <time>2023-12-04T17:57:53.044Z</time>
      </trkpt>
      <trkpt lat="38.387731" lon="16.183818">
        <ele>787.676608</ele>
        <time>2023-12-04T17:57:59.025Z</time>
      </trkpt>
      <trkpt lat="38.387583" lon="16.183944">
        <ele>786.817415</ele>
        <time>2023-12-04T17:58:00.757Z</time>
      </trkpt>
      <trkpt lat="38.387347" lon="16.183937">
        <ele>785.677484</ele>
        <time>2023-12-04T17:58:03.075Z</time>
      </trkpt>
      <trkpt lat="38.386206" lon="16.182647">
        <ele>782.051239</ele>
        <time>2023-12-04T17:58:19.307Z</time>
      </trkpt>
      <trkpt lat="38.386062" lon="16.182421">
        <ele>781.574440</ele>
        <time>2023-12-04T17:58:21.901Z</time>
      </trkpt>
      <trkpt lat="38.385989" lon="16.182307">
        <ele>781.333452</ele>
        <time>2023-12-04T17:58:23.270Z</time>
      </trkpt>
      <trkpt lat="38.385909" lon="16.181825">
        <ele>781.288846</ele>
        <time>2023-12-04T17:58:28.292Z</time>
      </trkpt>
      <trkpt lat="38.385958" lon="16.181350">
        <ele>781.476308</ele>
        <time>2023-12-04T17:58:34.415Z</time>
      </trkpt>
      <trkpt lat="38.386448" lon="16.179484">
        <ele>781.741456</ele>
        <time>2023-12-04T17:59:04.561Z</time>
      </trkpt>
      <trkpt lat="38.386519" lon="16.178923">
        <ele>781.420473</ele>
        <time>2023-12-04T17:59:11.187Z</time>
      </trkpt>
      <trkpt lat="38.386553" lon="16.176845">
        <ele>779.700350</ele>
        <time>2023-12-04T17:59:29.176Z</time>
      </trkpt>
      <trkpt lat="38.386565" lon="16.176626">
        <ele>779.440121</ele>
        <time>2023-12-04T17:59:30.925Z</time>
      </trkpt>
      <trkpt lat="38.386607" lon="16.176447">
        <ele>779.218638</ele>
        <time>2023-12-04T17:59:32.481Z</time>
      </trkpt>
      <trkpt lat="38.386450" lon="16.176246">
        <ele>778.882279</ele>
        <time>2023-12-04T17:59:34.820Z</time>
      </trkpt>
      <trkpt lat="38.385802" lon="16.174894">
        <ele>780.318989</ele>
        <time>2023-12-04T17:59:52.531Z</time>
      </trkpt>
      <trkpt lat="38.385631" lon="16.174632">
        <ele>781.228655</ele>
        <time>2023-12-04T18:00:00.201Z</time>
      </trkpt>
      <trkpt lat="38.385244" lon="16.174218">
        <ele>782.947821</ele>
        <time>2023-12-04T18:00:19.159Z</time>
      </trkpt>
      <trkpt lat="38.385121" lon="16.173991">
        <ele>783.684124</ele>
        <time>2023-12-04T18:00:28.546Z</time>
      </trkpt>
      <trkpt lat="38.384806" lon="16.171956">
        <ele>794.775388</ele>
        <time>2023-12-04T18:01:38.024Z</time>
      </trkpt>
      <trkpt lat="38.384765" lon="16.171473">
        <ele>797.675861</ele>
        <time>2023-12-04T18:01:55.587Z</time>
      </trkpt>
      <trkpt lat="38.384644" lon="16.170748">
        <ele>803.298370</ele>
        <time>2023-12-04T18:02:22.773Z</time>
      </trkpt>
      <trkpt lat="38.384320" lon="16.168501">
        <ele>821.287644</ele>
        <time>2023-12-04T18:04:06.341Z</time>
      </trkpt>
      <trkpt lat="38.384305" lon="16.168375">
        <ele>822.356356</ele>
        <time>2023-12-04T18:04:13.178Z</time>
      </trkpt>
      <trkpt lat="38.384321" lon="16.168237">
        <ele>823.526170</ele>
        <time>2023-12-04T18:04:20.432Z</time>
      </trkpt>
      <trkpt lat="38.384349" lon="16.168112">
        <ele>824.616339</ele>
        <time>2023-12-04T18:04:27.027Z</time>
      </trkpt>
      <trkpt lat="38.384414" lon="16.168012">
        <ele>825.705708</ele>
        <time>2023-12-04T18:04:33.537Z</time>
      </trkpt>
      <trkpt lat="38.384908" lon="16.167559">
        <ele>832.214067</ele>
        <time>2023-12-04T18:05:09.250Z</time>
      </trkpt>
      <trkpt lat="38.385109" lon="16.167321">
        <ele>833.798312</ele>
        <time>2023-12-04T18:05:23.092Z</time>
      </trkpt>
      <trkpt lat="38.385257" lon="16.166899">
        <ele>834.247218</ele>
        <time>2023-12-04T18:05:38.679Z</time>
      </trkpt>
      <trkpt lat="38.385283" lon="16.166708">
        <ele>834.435454</ele>
        <time>2023-12-04T18:05:44.207Z</time>
      </trkpt>
      <trkpt lat="38.385238" lon="16.166681">
        <ele>834.497055</ele>
        <time>2023-12-04T18:05:45.987Z</time>
      </trkpt>
      <trkpt lat="38.385170" lon="16.166738">
        <ele>834.597846</ele>
        <time>2023-12-04T18:05:48.698Z</time>
      </trkpt>
      <trkpt lat="38.385006" lon="16.167139">
        <ele>835.037028</ele>
        <time>2023-12-04T18:05:55.901Z</time>
      </trkpt>
      <trkpt lat="38.384957" lon="16.167199">
        <ele>835.121163</ele>
        <time>2023-12-04T18:05:56.622Z</time>
      </trkpt>
      <trkpt lat="38.384073" lon="16.167659">
        <ele>836.612453</ele>
        <time>2023-12-04T18:06:05.094Z</time>
      </trkpt>
      <trkpt lat="38.383991" lon="16.167724">
        <ele>836.813316</ele>
        <time>2023-12-04T18:06:06.578Z</time>
      </trkpt>
      <trkpt lat="38.383840" lon="16.167914">
        <ele>837.254593</ele>
        <time>2023-12-04T18:06:09.677Z</time>
      </trkpt>
      <trkpt lat="38.383661" lon="16.168226">
        <ele>837.885172</ele>
        <time>2023-12-04T18:06:18.101Z</time>
      </trkpt>
      <trkpt lat="38.383572" lon="16.168377">
        <ele>838.193292</ele>
        <time>2023-12-04T18:06:21.715Z</time>
      </trkpt>
      <trkpt lat="38.383461" lon="16.168502">
        <ele>838.501347</ele>
        <time>2023-12-04T18:06:28.251Z</time>
      </trkpt>
      <trkpt lat="38.383361" lon="16.168528">
        <ele>838.713685</ele>
        <time>2023-12-04T18:06:31.618Z</time>
      </trkpt>
      <trkpt lat="38.383312" lon="16.168473">
        <ele>838.849479</ele>
        <time>2023-12-04T18:06:33.534Z</time>
      </trkpt>
      <trkpt lat="38.383300" lon="16.168368">
        <ele>839.022538</ele>
        <time>2023-12-04T18:06:37.585Z</time>
      </trkpt>
      <trkpt lat="38.383518" lon="16.168079">
        <ele>840.318456</ele>
        <time>2023-12-04T18:06:52.026Z</time>
      </trkpt>
      <trkpt lat="38.383623" lon="16.167880">
        <ele>843.672378</ele>
        <time>2023-12-04T18:07:03.196Z</time>
      </trkpt>
      <trkpt lat="38.383693" lon="16.167470">
        <ele>849.539182</ele>
        <time>2023-12-04T18:07:23.145Z</time>
      </trkpt>
      <trkpt lat="38.383765" lon="16.167348">
        <ele>851.674313</ele>
        <time>2023-12-04T18:07:30.966Z</time>
      </trkpt>
      <trkpt lat="38.383929" lon="16.167195">
        <ele>855.298219</ele>
        <time>2023-12-04T18:07:50.227Z</time>
      </trkpt>
      <trkpt lat="38.384264" lon="16.167030">
        <ele>861.703307</ele>
        <time>2023-12-04T18:08:28.477Z</time>
      </trkpt>
      <trkpt lat="38.384339" lon="16.166966">
        <ele>863.312722</ele>
        <time>2023-12-04T18:08:38.155Z</time>
      </trkpt>
      <trkpt lat="38.384482" lon="16.166691">
        <ele>867.926684</ele>
        <time>2023-12-04T18:09:05.727Z</time>
      </trkpt>
      <trkpt lat="38.384556" lon="16.166450">
        <ele>871.545475</ele>
        <time>2023-12-04T18:09:26.467Z</time>
      </trkpt>
      <trkpt lat="38.384572" lon="16.166181">
        <ele>874.543536</ele>
        <time>2023-12-04T18:09:46.201Z</time>
      </trkpt>
      <trkpt lat="38.384479" lon="16.165824">
        <ele>878.686461</ele>
        <time>2023-12-04T18:10:09.726Z</time>
      </trkpt>
      <trkpt lat="38.383977" lon="16.165209">
        <ele>888.464547</ele>
        <time>2023-12-04T18:10:56.122Z</time>
      </trkpt>
      <trkpt lat="38.383908" lon="16.165052">
        <ele>890.446752</ele>
        <time>2023-12-04T18:11:04.576Z</time>
      </trkpt>
      <trkpt lat="38.383893" lon="16.164763">
        <ele>893.636392</ele>
        <time>2023-12-04T18:11:18.285Z</time>
      </trkpt>
      <trkpt lat="38.383956" lon="16.163753">
        <ele>900.155431</ele>
        <time>2023-12-04T18:11:57.947Z</time>
      </trkpt>
      <trkpt lat="38.383913" lon="16.163166">
        <ele>902.812006</ele>
        <time>2023-12-04T18:12:15.521Z</time>
      </trkpt>
      <trkpt lat="38.383732" lon="16.162282">
        <ele>906.929004</ele>
        <time>2023-12-04T18:12:36.254Z</time>
      </trkpt>
      <trkpt lat="38.383441" lon="16.161423">
        <ele>907.635254</ele>
        <time>2023-12-04T18:12:52.809Z</time>
      </trkpt>
      <trkpt lat="38.383248" lon="16.161191">
        <ele>907.774524</ele>
        <time>2023-12-04T18:12:57.336Z</time>
      </trkpt>
      <trkpt lat="38.383078" lon="16.161053">
        <ele>907.880349</ele>
        <time>2023-12-04T18:13:00.354Z</time>
      </trkpt>
      <trkpt lat="38.382010" lon="16.160959">
        <ele>907.455271</ele>
        <time>2023-12-04T18:13:13.183Z</time>
      </trkpt>
      <trkpt lat="38.381565" lon="16.160870">
        <ele>906.608884</ele>
        <time>2023-12-04T18:13:18.125Z</time>
      </trkpt>
      <trkpt lat="38.381371" lon="16.160722">
        <ele>906.184138</ele>
        <time>2023-12-04T18:13:20.566Z</time>
      </trkpt>
      <trkpt lat="38.381243" lon="16.160569">
        <ele>905.854536</ele>
        <time>2023-12-04T18:13:22.475Z</time>
      </trkpt>
      <trkpt lat="38.381266" lon="16.160130">
        <ele>905.206458</ele>
        <time>2023-12-04T18:13:26.196Z</time>
      </trkpt>
      <trkpt lat="38.381572" lon="16.159034">
        <ele>903.449560</ele>
        <time>2023-12-04T18:13:35.942Z</time>
      </trkpt>
      <trkpt lat="38.381615" lon="16.158723">
        <ele>902.969566</ele>
        <time>2023-12-04T18:13:38.649Z</time>
      </trkpt>
      <trkpt lat="38.381557" lon="16.158530">
        <ele>902.655402</ele>
        <time>2023-12-04T18:13:40.424Z</time>
      </trkpt>
      <trkpt lat="38.381448" lon="16.158392">
        <ele>902.357640</ele>
        <time>2023-12-04T18:13:42.156Z</time>
      </trkpt>
      <trkpt lat="38.381282" lon="16.158333">
        <ele>902.023516</ele>
        <time>2023-12-04T18:13:44.116Z</time>
      </trkpt>
      <trkpt lat="38.380574" lon="16.158259">
        <ele>901.076116</ele>
        <time>2023-12-04T18:13:52.422Z</time>
      </trkpt>
      <trkpt lat="38.380427" lon="16.158293">
        <ele>900.960991</ele>
        <time>2023-12-04T18:13:54.190Z</time>
      </trkpt>
      <trkpt lat="38.380307" lon="16.158402">
        <ele>900.847473</ele>
        <time>2023-12-04T18:13:55.924Z</time>
      </trkpt>
      <trkpt lat="38.380170" lon="16.158704">
        <ele>900.636698</ele>
        <time>2023-12-04T18:13:59.326Z</time>
      </trkpt>
      <trkpt lat="38.380062" lon="16.158825">
        <ele>900.525932</ele>
        <time>2023-12-04T18:14:01.212Z</time>
      </trkpt>
      <trkpt lat="38.379916" lon="16.158915">
        <ele>900.400978</ele>
        <time>2023-12-04T18:14:03.443Z</time>
      </trkpt>
      <trkpt lat="38.379691" lon="16.158900">
        <ele>900.227358</ele>
        <time>2023-12-04T18:14:06.861Z</time>
      </trkpt>
      <trkpt lat="38.379483" lon="16.158836">
        <ele>900.062477</ele>
        <time>2023-12-04T18:14:10.223Z</time>
      </trkpt>
      <trkpt lat="38.379351" lon="16.158500">
        <ele>899.350941</ele>
        <time>2023-12-04T18:14:14.833Z</time>
      </trkpt>
      <trkpt lat="38.379262" lon="16.158421">
        <ele>898.974551</ele>
        <time>2023-12-04T18:14:16.243Z</time>
      </trkpt>
      <trkpt lat="38.379111" lon="16.158397">
        <ele>898.446319</ele>
        <time>2023-12-04T18:14:18.247Z</time>
      </trkpt>
      <trkpt lat="38.378620" lon="16.158767">
        <ele>896.466683</ele>
        <time>2023-12-04T18:14:24.328Z</time>
      </trkpt>
      <trkpt lat="38.378368" lon="16.158831">
        <ele>895.574725</ele>
        <time>2023-12-04T18:14:26.783Z</time>
      </trkpt>
      <trkpt lat="38.378093" lon="16.158851">
        <ele>894.618544</ele>
        <time>2023-12-04T18:14:29.323Z</time>
      </trkpt>
      <trkpt lat="38.377908" lon="16.158723">
        <ele>893.887953</ele>
        <time>2023-12-04T18:14:31.226Z</time>
      </trkpt>
      <trkpt lat="38.377691" lon="16.158436">
        <ele>892.421812</ele>
        <time>2023-12-04T18:14:33.989Z</time>
      </trkpt>
      <trkpt lat="38.377404" lon="16.158278">
        <ele>890.890694</ele>
        <time>2023-12-04T18:14:36.736Z</time>
      </trkpt>
      <trkpt lat="38.377145" lon="16.158204">
        <ele>889.590624</ele>
        <time>2023-12-04T18:14:39.100Z</time>
      </trkpt>
      <trkpt lat="38.376906" lon="16.158226">
        <ele>888.416908</ele>
        <time>2023-12-04T18:14:41.293Z</time>
      </trkpt>
      <trkpt lat="38.376681" lon="16.158303">
        <ele>887.275837</ele>
        <time>2023-12-04T18:14:43.524Z</time>
      </trkpt>
      <trkpt lat="38.376401" lon="16.158321">
        <ele>885.902598</ele>
        <time>2023-12-04T18:14:46.395Z</time>
      </trkpt>
      <trkpt lat="38.376275" lon="16.158257">
        <ele>885.238293</ele>
        <time>2023-12-04T18:14:47.958Z</time>
      </trkpt>
      <trkpt lat="38.376143" lon="16.158110">
        <ele>885.502694</ele>
        <time>2023-12-04T18:14:50.577Z</time>
      </trkpt>
      <trkpt lat="38.376031" lon="16.157874">
        <ele>886.646738</ele>
        <time>2023-12-04T18:14:54.679Z</time>
      </trkpt>
      <trkpt lat="38.376010" lon="16.157571">
        <ele>887.908173</ele>
        <time>2023-12-04T18:15:01.183Z</time>
      </trkpt>
      <trkpt lat="38.376038" lon="16.157138">
        <ele>889.709913</ele>
        <time>2023-12-04T18:15:13.369Z</time>
      </trkpt>
      <trkpt lat="38.376151" lon="16.156847">
        <ele>891.056613</ele>
        <time>2023-12-04T18:15:24.829Z</time>
      </trkpt>
      <trkpt lat="38.376375" lon="16.156447">
        <ele>893.095144</ele>
        <time>2023-12-04T18:15:45.033Z</time>
      </trkpt>
      <trkpt lat="38.376460" lon="16.156195">
        <ele>894.232802</ele>
        <time>2023-12-04T18:15:56.644Z</time>
      </trkpt>
      <trkpt lat="38.376464" lon="16.156013">
        <ele>894.784307</ele>
        <time>2023-12-04T18:16:04.835Z</time>
      </trkpt>
      <trkpt lat="38.376267" lon="16.155618">
        <ele>896.011905</ele>
        <time>2023-12-04T18:16:22.852Z</time>
      </trkpt>
      <trkpt lat="38.376097" lon="16.155435">
        <ele>896.755947</ele>
        <time>2023-12-04T18:16:31.154Z</time>
      </trkpt>
      <trkpt lat="38.375853" lon="16.155371">
        <ele>897.589163</ele>
        <time>2023-12-04T18:16:38.319Z</time>
      </trkpt>
      <trkpt lat="38.375412" lon="16.155371">
        <ele>899.064236</ele>
        <time>2023-12-04T18:16:46.320Z</time>
      </trkpt>
      <trkpt lat="38.375253" lon="16.155317">
        <ele>899.614593</ele>
        <time>2023-12-04T18:16:48.321Z</time>
      </trkpt>
      <trkpt lat="38.375164" lon="16.155168">
        <ele>900.105791</ele>
        <time>2023-12-04T18:16:49.970Z</time>
      </trkpt>
      <trkpt lat="38.375203" lon="16.154951">
        <ele>900.332331</ele>
        <time>2023-12-04T18:16:51.867Z</time>
      </trkpt>
      <trkpt lat="38.375179" lon="16.154764">
        <ele>900.086890</ele>
        <time>2023-12-04T18:16:53.467Z</time>
      </trkpt>
      <trkpt lat="38.375106" lon="16.154497">
        <ele>899.720622</ele>
        <time>2023-12-04T18:16:55.800Z</time>
      </trkpt>
      <trkpt lat="38.375032" lon="16.154354">
        <ele>899.498683</ele>
        <time>2023-12-04T18:16:57.232Z</time>
      </trkpt>
      <trkpt lat="38.374874" lon="16.154201">
        <ele>899.170929</ele>
        <time>2023-12-04T18:16:59.329Z</time>
      </trkpt>
      <trkpt lat="38.374761" lon="16.153944">
        <ele>898.789259</ele>
        <time>2023-12-04T18:17:01.813Z</time>
      </trkpt>
      <trkpt lat="38.374545" lon="16.153544">
        <ele>898.160128</ele>
        <time>2023-12-04T18:17:06.017Z</time>
      </trkpt>
      <trkpt lat="38.374398" lon="16.153115">
        <ele>897.553688</ele>
        <time>2023-12-04T18:17:10.282Z</time>
      </trkpt>
      <trkpt lat="38.374297" lon="16.152715">
        <ele>897.614619</ele>
        <time>2023-12-04T18:17:14.670Z</time>
      </trkpt>
      <trkpt lat="38.374293" lon="16.152310">
        <ele>897.766561</ele>
        <time>2023-12-04T18:17:20.048Z</time>
      </trkpt>
      <trkpt lat="38.374367" lon="16.152152">
        <ele>897.835603</ele>
        <time>2023-12-04T18:17:22.821Z</time>
      </trkpt>
      <trkpt lat="38.374499" lon="16.152057">
        <ele>897.908126</ele>
        <time>2023-12-04T18:17:26.144Z</time>
      </trkpt>
      <trkpt lat="38.375168" lon="16.151995">
        <ele>898.229089</ele>
        <time>2023-12-04T18:17:40.772Z</time>
      </trkpt>
      <trkpt lat="38.375268" lon="16.151965">
        <ele>898.278245</ele>
        <time>2023-12-04T18:17:42.720Z</time>
      </trkpt>
      <trkpt lat="38.375354" lon="16.151896">
        <ele>898.326860</ele>
        <time>2023-12-04T18:17:44.314Z</time>
      </trkpt>
      <trkpt lat="38.375361" lon="16.151738">
        <ele>898.118183</ele>
        <time>2023-12-04T18:17:46.160Z</time>
      </trkpt>
      <trkpt lat="38.375323" lon="16.151609">
        <ele>897.874259</ele>
        <time>2023-12-04T18:17:47.640Z</time>
      </trkpt>
      <trkpt lat="38.375288" lon="16.151333">
        <ele>897.379375</ele>
        <time>2023-12-04T18:17:50.179Z</time>
      </trkpt>
      <trkpt lat="38.375284" lon="16.151042">
        <ele>896.864210</ele>
        <time>2023-12-04T18:17:52.599Z</time>
      </trkpt>
      <trkpt lat="38.375121" lon="16.150701">
        <ele>896.157271</ele>
        <time>2023-12-04T18:17:55.730Z</time>
      </trkpt>
      <trkpt lat="38.374900" lon="16.150528">
        <ele>895.571820</ele>
        <time>2023-12-04T18:17:58.305Z</time>
      </trkpt>
      <trkpt lat="38.374537" lon="16.149904">
        <ele>894.223409</ele>
        <time>2023-12-04T18:18:04.523Z</time>
      </trkpt>
      <trkpt lat="38.374133" lon="16.149518">
        <ele>893.459230</ele>
        <time>2023-12-04T18:18:09.787Z</time>
      </trkpt>
      <trkpt lat="38.374007" lon="16.149502">
        <ele>893.267533</ele>
        <time>2023-12-04T18:18:11.112Z</time>
      </trkpt>
      <trkpt lat="38.373767" lon="16.149571">
        <ele>892.895076</ele>
        <time>2023-12-04T18:18:13.710Z</time>
      </trkpt>
      <trkpt lat="38.372970" lon="16.150000">
        <ele>891.585445</ele>
        <time>2023-12-04T18:18:24.518Z</time>
      </trkpt>
      <trkpt lat="38.372827" lon="16.150025">
        <ele>891.629660</ele>
        <time>2023-12-04T18:18:27.246Z</time>
      </trkpt>
      <trkpt lat="38.372695" lon="16.149981">
        <ele>891.711180</ele>
        <time>2023-12-04T18:18:30.051Z</time>
      </trkpt>
      <trkpt lat="38.372621" lon="16.149783">
        <ele>891.813932</ele>
        <time>2023-12-04T18:18:33.840Z</time>
      </trkpt>
      <trkpt lat="38.372633" lon="16.149517">
        <ele>891.938743</ele>
        <time>2023-12-04T18:18:38.804Z</time>
      </trkpt>
      <trkpt lat="38.372575" lon="16.149275">
        <ele>892.057285</ele>
        <time>2023-12-04T18:18:43.142Z</time>
      </trkpt>
      <trkpt lat="38.371846" lon="16.148698">
        <ele>892.569918</ele>
        <time>2023-12-04T18:18:58.134Z</time>
      </trkpt>
      <trkpt lat="38.371495" lon="16.148484">
        <ele>892.038821</ele>
        <time>2023-12-04T18:19:03.172Z</time>
      </trkpt>
      <trkpt lat="38.370909" lon="16.148484">
        <ele>890.837786</ele>
        <time>2023-12-04T18:19:09.815Z</time>
      </trkpt>
      <trkpt lat="38.370714" lon="16.148544">
        <ele>890.426660</ele>
        <time>2023-12-04T18:19:11.948Z</time>
      </trkpt>
      <trkpt lat="38.370061" lon="16.149352">
        <ele>888.258207</ele>
        <time>2023-12-04T18:19:21.081Z</time>
      </trkpt>
      <trkpt lat="38.370059" lon="16.150292">
        <ele>885.545202</ele>
        <time>2023-12-04T18:19:28.522Z</time>
      </trkpt>
      <trkpt lat="38.369530" lon="16.150623">
        <ele>883.376115</ele>
        <time>2023-12-04T18:19:34.424Z</time>
      </trkpt>
      <trkpt lat="38.369335" lon="16.150550">
        <ele>882.627991</ele>
        <time>2023-12-04T18:19:36.414Z</time>
      </trkpt>
      <trkpt lat="38.368783" lon="16.150025">
        <ele>879.354124</ele>
        <time>2023-12-04T18:19:42.894Z</time>
      </trkpt>
      <trkpt lat="38.368366" lon="16.149890">
        <ele>877.245284</ele>
        <time>2023-12-04T18:19:46.792Z</time>
      </trkpt>
      <trkpt lat="38.367424" lon="16.149998">
        <ele>873.603283</ele>
        <time>2023-12-04T18:19:55.691Z</time>
      </trkpt>
      <trkpt lat="38.366898" lon="16.149935">
        <ele>873.884562</ele>
        <time>2023-12-04T18:20:02.729Z</time>
      </trkpt>
      <trkpt lat="38.366765" lon="16.149917">
        <ele>873.955769</ele>
        <time>2023-12-04T18:20:04.630Z</time>
      </trkpt>
      <trkpt lat="38.366745" lon="16.149867">
        <ele>873.979201</ele>
        <time>2023-12-04T18:20:05.562Z</time>
      </trkpt>
      <trkpt lat="38.366715" lon="16.149773">
        <ele>874.021566</ele>
        <time>2023-12-04T18:20:07.398Z</time>
      </trkpt>
      <trkpt lat="38.366556" lon="16.149392">
        <ele>874.201735</ele>
        <time>2023-12-04T18:20:15.440Z</time>
      </trkpt>
      <trkpt lat="38.366596" lon="16.148989">
        <ele>874.371304</ele>
        <time>2023-12-04T18:20:23.946Z</time>
      </trkpt>
      <trkpt lat="38.366711" lon="16.148619">
        <ele>874.793474</ele>
        <time>2023-12-04T18:20:32.896Z</time>
      </trkpt>
      <trkpt lat="38.367007" lon="16.147946">
        <ele>876.230858</ele>
        <time>2023-12-04T18:20:52.981Z</time>
      </trkpt>
      <trkpt lat="38.366960" lon="16.147634">
        <ele>876.822657</ele>
        <time>2023-12-04T18:21:00.564Z</time>
      </trkpt>
      <trkpt lat="38.366578" lon="16.147192">
        <ele>878.048013</ele>
        <time>2023-12-04T18:21:13.200Z</time>
      </trkpt>
      <trkpt lat="38.366540" lon="16.146996">
        <ele>878.424105</ele>
        <time>2023-12-04T18:21:15.454Z</time>
      </trkpt>
      <trkpt lat="38.366731" lon="16.146091">
        <ele>876.411082</ele>
        <time>2023-12-04T18:21:23.580Z</time>
      </trkpt>
      <trkpt lat="38.366538" lon="16.145336">
        <ele>874.010873</ele>
        <time>2023-12-04T18:21:29.452Z</time>
      </trkpt>
      <trkpt lat="38.366490" lon="16.144670">
        <ele>871.989400</ele>
        <time>2023-12-04T18:21:34.263Z</time>
      </trkpt>
      <trkpt lat="38.366515" lon="16.144525">
        <ele>871.565525</ele>
        <time>2023-12-04T18:21:35.331Z</time>
      </trkpt>
      <trkpt lat="38.366605" lon="16.144455">
        <ele>871.197669</ele>
        <time>2023-12-04T18:21:36.296Z</time>
      </trkpt>
      <trkpt lat="38.366773" lon="16.144424">
        <ele>870.605311</ele>
        <time>2023-12-04T18:21:37.888Z</time>
      </trkpt>
      <trkpt lat="38.367322" lon="16.144495">
        <ele>868.679693</ele>
        <time>2023-12-04T18:21:43.160Z</time>
      </trkpt>
      <trkpt lat="38.367684" lon="16.144438">
        <ele>867.406864</ele>
        <time>2023-12-04T18:21:46.837Z</time>
      </trkpt>
      <trkpt lat="38.367869" lon="16.144354">
        <ele>866.721598</ele>
        <time>2023-12-04T18:21:48.967Z</time>
      </trkpt>
      <trkpt lat="38.368009" lon="16.144255">
        <ele>866.162989</ele>
        <time>2023-12-04T18:21:50.750Z</time>
      </trkpt>
      <trkpt lat="38.368171" lon="16.144050">
        <ele>865.485411</ele>
        <time>2023-12-04T18:21:53.704Z</time>
      </trkpt>
      <trkpt lat="38.368335" lon="16.143755">
        <ele>865.231527</ele>
        <time>2023-12-04T18:21:57.807Z</time>
      </trkpt>
      <trkpt lat="38.368334" lon="16.143532">
        <ele>865.074969</ele>
        <time>2023-12-04T18:22:00.403Z</time>
      </trkpt>
      <trkpt lat="38.368274" lon="16.143372">
        <ele>864.950454</ele>
        <time>2023-12-04T18:22:02.756Z</time>
      </trkpt>
      <trkpt lat="38.367673" lon="16.142664">
        <ele>864.217879</ele>
        <time>2023-12-04T18:22:13.328Z</time>
      </trkpt>
      <trkpt lat="38.367572" lon="16.142435">
        <ele>864.033417</ele>
        <time>2023-12-04T18:22:15.603Z</time>
      </trkpt>
      <trkpt lat="38.367583" lon="16.142293">
        <ele>863.933240</ele>
        <time>2023-12-04T18:22:16.841Z</time>
      </trkpt>
      <trkpt lat="38.367631" lon="16.142179">
        <ele>863.697897</ele>
        <time>2023-12-04T18:22:17.922Z</time>
      </trkpt>
      <trkpt lat="38.367782" lon="16.142084">
        <ele>863.250573</ele>
        <time>2023-12-04T18:22:19.830Z</time>
      </trkpt>
      <trkpt lat="38.367892" lon="16.142076">
        <ele>862.957853</ele>
        <time>2023-12-04T18:22:21.097Z</time>
      </trkpt>
      <trkpt lat="38.367986" lon="16.142117">
        <ele>862.693917</ele>
        <time>2023-12-04T18:22:22.144Z</time>
      </trkpt>
      <trkpt lat="38.368138" lon="16.142256">
        <ele>862.197016</ele>
        <time>2023-12-04T18:22:24.262Z</time>
      </trkpt>
      <trkpt lat="38.368346" lon="16.142390">
        <ele>861.577915</ele>
        <time>2023-12-04T18:22:26.773Z</time>
      </trkpt>
      <trkpt lat="38.368648" lon="16.142476">
        <ele>860.755815</ele>
        <time>2023-12-04T18:22:30.094Z</time>
      </trkpt>
      <trkpt lat="38.368819" lon="16.142429">
        <ele>860.291078</ele>
        <time>2023-12-04T18:22:31.870Z</time>
      </trkpt>
      <trkpt lat="38.368884" lon="16.142284">
        <ele>859.943161</ele>
        <time>2023-12-04T18:22:33.148Z</time>
      </trkpt>
      <trkpt lat="38.368896" lon="16.142155">
        <ele>859.672571</ele>
        <time>2023-12-04T18:22:34.118Z</time>
      </trkpt>
      <trkpt lat="38.368808" lon="16.141169">
        <ele>858.257098</ele>
        <time>2023-12-04T18:22:41.642Z</time>
      </trkpt>
      <trkpt lat="38.368834" lon="16.140829">
        <ele>857.848223</ele>
        <time>2023-12-04T18:22:44.529Z</time>
      </trkpt>
      <trkpt lat="38.368992" lon="16.140601">
        <ele>857.484015</ele>
        <time>2023-12-04T18:22:48.011Z</time>
      </trkpt>
      <trkpt lat="38.369149" lon="16.140454">
        <ele>857.186695</ele>
        <time>2023-12-04T18:22:51.729Z</time>
      </trkpt>
      <trkpt lat="38.369244" lon="16.140415">
        <ele>857.034342</ele>
        <time>2023-12-04T18:22:53.791Z</time>
      </trkpt>
      <trkpt lat="38.369774" lon="16.140346">
        <ele>856.038711</ele>
        <time>2023-12-04T18:23:03.947Z</time>
      </trkpt>
      <trkpt lat="38.369912" lon="16.140211">
        <ele>855.489180</ele>
        <time>2023-12-04T18:23:06.099Z</time>
      </trkpt>
      <trkpt lat="38.369951" lon="16.140074">
        <ele>855.128109</ele>
        <time>2023-12-04T18:23:07.408Z</time>
      </trkpt>
      <trkpt lat="38.369964" lon="16.139911">
        <ele>854.722224</ele>
        <time>2023-12-04T18:23:08.771Z</time>
      </trkpt>
      <trkpt lat="38.369929" lon="16.139724">
        <ele>854.245949</ele>
        <time>2023-12-04T18:23:10.269Z</time>
      </trkpt>
      <trkpt lat="38.369823" lon="16.139526">
        <ele>853.651997</ele>
        <time>2023-12-04T18:23:12.098Z</time>
      </trkpt>
      <trkpt lat="38.369741" lon="16.139447">
        <ele>853.327291</ele>
        <time>2023-12-04T18:23:13.076Z</time>
      </trkpt>
      <trkpt lat="38.369521" lon="16.139330">
        <ele>852.574138</ele>
        <time>2023-12-04T18:23:15.333Z</time>
      </trkpt>
      <trkpt lat="38.369257" lon="16.139244">
        <ele>851.713185</ele>
        <time>2023-12-04T18:23:17.920Z</time>
      </trkpt>
      <trkpt lat="38.369133" lon="16.139157">
        <ele>851.266008</ele>
        <time>2023-12-04T18:23:19.271Z</time>
      </trkpt>
      <trkpt lat="38.369064" lon="16.139015">
        <ele>850.852143</ele>
        <time>2023-12-04T18:23:20.507Z</time>
      </trkpt>
      <trkpt lat="38.369002" lon="16.138750">
        <ele>849.909472</ele>
        <time>2023-12-04T18:23:22.634Z</time>
      </trkpt>
      <trkpt lat="38.368999" lon="16.138481">
        <ele>848.925794</ele>
        <time>2023-12-04T18:23:24.666Z</time>
      </trkpt>
      <trkpt lat="38.369111" lon="16.137686">
        <ele>845.972380</ele>
        <time>2023-12-04T18:23:30.600Z</time>
      </trkpt>
      <trkpt lat="38.369222" lon="16.137105">
        <ele>843.785839</ele>
        <time>2023-12-04T18:23:34.909Z</time>
      </trkpt>
      <trkpt lat="38.369145" lon="16.137101">
        <ele>843.426441</ele>
        <time>2023-12-04T18:23:35.644Z</time>
      </trkpt>
      <trkpt lat="38.368885" lon="16.137101">
        <ele>842.292997</ele>
        <time>2023-12-04T18:23:38.110Z</time>
      </trkpt>
      <trkpt lat="38.367669" lon="16.138026">
        <ele>840.612943</ele>
        <time>2023-12-04T18:23:55.006Z</time>
      </trkpt>
      <trkpt lat="38.366699" lon="16.138359">
        <ele>841.879947</ele>
        <time>2023-12-04T18:24:14.165Z</time>
      </trkpt>
      <trkpt lat="38.366515" lon="16.138512">
        <ele>842.457379</ele>
        <time>2023-12-04T18:24:18.593Z</time>
      </trkpt>
      <trkpt lat="38.365350" lon="16.139944">
        <ele>848.997239</ele>
        <time>2023-12-04T18:25:09.426Z</time>
      </trkpt>
      <trkpt lat="38.364869" lon="16.140130">
        <ele>852.000010</ele>
        <time>2023-12-04T18:25:32.181Z</time>
      </trkpt>
      <trkpt lat="38.364748" lon="16.140126">
        <ele>852.723132</ele>
        <time>2023-12-04T18:25:37.520Z</time>
      </trkpt>
      <trkpt lat="38.364491" lon="16.139924">
        <ele>854.526653</ele>
        <time>2023-12-04T18:25:50.857Z</time>
      </trkpt>
      <trkpt lat="38.363926" lon="16.139355">
        <ele>858.588272</ele>
        <time>2023-12-04T18:26:19.898Z</time>
      </trkpt>
      <trkpt lat="38.363734" lon="16.139058">
        <ele>860.255213</ele>
        <time>2023-12-04T18:26:31.356Z</time>
      </trkpt>
      <trkpt lat="38.363598" lon="16.138702">
        <ele>861.970124</ele>
        <time>2023-12-04T18:26:42.741Z</time>
      </trkpt>
      <trkpt lat="38.363551" lon="16.138357">
        <ele>863.486537</ele>
        <time>2023-12-04T18:26:52.160Z</time>
      </trkpt>
      <trkpt lat="38.363602" lon="16.138215">
        <ele>864.162913</ele>
        <time>2023-12-04T18:26:56.417Z</time>
      </trkpt>
      <trkpt lat="38.363846" lon="16.137971">
        <ele>865.877111</ele>
        <time>2023-12-04T18:27:06.333Z</time>
      </trkpt>
      <trkpt lat="38.363871" lon="16.137876">
        <ele>866.313718</ele>
        <time>2023-12-04T18:27:08.887Z</time>
      </trkpt>
      <trkpt lat="38.363858" lon="16.137785">
        <ele>866.716734</ele>
        <time>2023-12-04T18:27:11.038Z</time>
      </trkpt>
      <trkpt lat="38.363802" lon="16.137694">
        <ele>867.220755</ele>
        <time>2023-12-04T18:27:13.726Z</time>
      </trkpt>
      <trkpt lat="38.363719" lon="16.137670">
        <ele>867.693676</ele>
        <time>2023-12-04T18:27:16.346Z</time>
      </trkpt>
      <trkpt lat="38.363182" lon="16.137947">
        <ele>870.912516</ele>
        <time>2023-12-04T18:27:34.697Z</time>
      </trkpt>
      <trkpt lat="38.362522" lon="16.138212">
        <ele>874.757475</ele>
        <time>2023-12-04T18:28:02.484Z</time>
      </trkpt>
      <trkpt lat="38.361787" lon="16.138963">
        <ele>880.542249</ele>
        <time>2023-12-04T18:28:48.006Z</time>
      </trkpt>
      <trkpt lat="38.361291" lon="16.139798">
        <ele>885.678215</ele>
        <time>2023-12-04T18:29:20.104Z</time>
      </trkpt>
      <trkpt lat="38.360714" lon="16.140312">
        <ele>889.190518</ele>
        <time>2023-12-04T18:29:36.778Z</time>
      </trkpt>
      <trkpt lat="38.360585" lon="16.140301">
        <ele>889.777532</ele>
        <time>2023-12-04T18:29:40.473Z</time>
      </trkpt>
      <trkpt lat="38.360540" lon="16.140262">
        <ele>890.024561</ele>
        <time>2023-12-04T18:29:42.353Z</time>
      </trkpt>
      <trkpt lat="38.360429" lon="16.139980">
        <ele>891.147929</ele>
        <time>2023-12-04T18:29:49.925Z</time>
      </trkpt>
      <trkpt lat="38.360358" lon="16.139861">
        <ele>891.680292</ele>
        <time>2023-12-04T18:29:54.305Z</time>
      </trkpt>
      <trkpt lat="38.360255" lon="16.139814">
        <ele>892.176982</ele>
        <time>2023-12-04T18:29:57.984Z</time>
      </trkpt>
      <trkpt lat="38.359868" lon="16.139865">
        <ele>893.943454</ele>
        <time>2023-12-04T18:30:11.705Z</time>
      </trkpt>
      <trkpt lat="38.359812" lon="16.139909">
        <ele>894.242096</ele>
        <time>2023-12-04T18:30:13.869Z</time>
      </trkpt>
      <trkpt lat="38.359778" lon="16.139996">
        <ele>894.588173</ele>
        <time>2023-12-04T18:30:16.900Z</time>
      </trkpt>
      <trkpt lat="38.359818" lon="16.140181">
        <ele>895.533417</ele>
        <time>2023-12-04T18:30:22.910Z</time>
      </trkpt>
      <trkpt lat="38.360178" lon="16.140929">
        <ele>901.687226</ele>
        <time>2023-12-04T18:30:52.799Z</time>
      </trkpt>
      <trkpt lat="38.360265" lon="16.141067">
        <ele>902.928779</ele>
        <time>2023-12-04T18:30:59.401Z</time>
      </trkpt>
      <trkpt lat="38.360401" lon="16.141142">
        <ele>904.253712</ele>
        <time>2023-12-04T18:31:07.891Z</time>
      </trkpt>
      <trkpt lat="38.360755" lon="16.141225">
        <ele>907.472210</ele>
        <time>2023-12-04T18:31:30.586Z</time>
      </trkpt>
      <trkpt lat="38.360811" lon="16.141312">
        <ele>908.261421</ele>
        <time>2023-12-04T18:31:36.617Z</time>
      </trkpt>
      <trkpt lat="38.360823" lon="16.141415">
        <ele>908.991538</ele>
        <time>2023-12-04T18:31:41.895Z</time>
      </trkpt>
      <trkpt lat="38.360570" lon="16.141791">
        <ele>912.128039</ele>
        <time>2023-12-04T18:32:05.615Z</time>
      </trkpt>
      <trkpt lat="38.359960" lon="16.142671">
        <ele>918.351208</ele>
        <time>2023-12-04T18:32:46.089Z</time>
      </trkpt>
      <trkpt lat="38.359553" lon="16.143597">
        <ele>923.642237</ele>
        <time>2023-12-04T18:33:12.656Z</time>
      </trkpt>
      <trkpt lat="38.359471" lon="16.144229">
        <ele>925.502500</ele>
        <time>2023-12-04T18:33:26.964Z</time>
      </trkpt>
      <trkpt lat="38.359571" lon="16.145255">
        <ele>928.504901</ele>
        <time>2023-12-04T18:33:49.712Z</time>
      </trkpt>
      <trkpt lat="38.359565" lon="16.145580">
        <ele>929.448952</ele>
        <time>2023-12-04T18:33:57.299Z</time>
      </trkpt>
      <trkpt lat="38.359472" lon="16.145985">
        <ele>930.533140</ele>
        <time>2023-12-04T18:34:07.818Z</time>
      </trkpt>
      <trkpt lat="38.359421" lon="16.146209">
        <ele>931.087061</ele>
        <time>2023-12-04T18:34:14.025Z</time>
      </trkpt>
      <trkpt lat="38.359300" lon="16.146736">
        <ele>932.391119</ele>
        <time>2023-12-04T18:34:27.833Z</time>
      </trkpt>
      <trkpt lat="38.358521" lon="16.147674">
        <ele>935.324645</ele>
        <time>2023-12-04T18:34:54.483Z</time>
      </trkpt>
      <trkpt lat="38.357441" lon="16.148317">
        <ele>935.055215</ele>
        <time>2023-12-04T18:35:11.013Z</time>
      </trkpt>
      <trkpt lat="38.357123" lon="16.148594">
        <ele>934.968162</ele>
        <time>2023-12-04T18:35:15.514Z</time>
      </trkpt>
      <trkpt lat="38.355786" lon="16.149158">
        <ele>933.262431</ele>
        <time>2023-12-04T18:35:31.752Z</time>
      </trkpt>
      <trkpt lat="38.355306" lon="16.149355">
        <ele>932.602837</ele>
        <time>2023-12-04T18:35:37.781Z</time>
      </trkpt>
      <trkpt lat="38.354340" lon="16.149659">
        <ele>931.956015</ele>
        <time>2023-12-04T18:35:50.313Z</time>
      </trkpt>
      <trkpt lat="38.354067" lon="16.149744">
        <ele>931.775619</ele>
        <time>2023-12-04T18:35:54.024Z</time>
      </trkpt>
      <trkpt lat="38.353083" lon="16.150006">
        <ele>931.226863</ele>
        <time>2023-12-04T18:36:07.936Z</time>
      </trkpt>
      <trkpt lat="38.351537" lon="16.150199">
        <ele>930.950317</ele>
        <time>2023-12-04T18:36:28.417Z</time>
      </trkpt>
      <trkpt lat="38.351166" lon="16.150281">
        <ele>931.457939</ele>
        <time>2023-12-04T18:36:33.389Z</time>
      </trkpt>
      <trkpt lat="38.350733" lon="16.150594">
        <ele>932.128961</ele>
        <time>2023-12-04T18:36:42.474Z</time>
      </trkpt>
      <trkpt lat="38.350518" lon="16.150781">
        <ele>932.479821</ele>
        <time>2023-12-04T18:36:48.711Z</time>
      </trkpt>
      <trkpt lat="38.350063" lon="16.150832">
        <ele>933.160417</ele>
        <time>2023-12-04T18:37:01.635Z</time>
      </trkpt>
      <trkpt lat="38.349984" lon="16.150813">
        <ele>933.561887</ele>
        <time>2023-12-04T18:37:04.105Z</time>
      </trkpt>
      <trkpt lat="38.349949" lon="16.150772">
        <ele>933.799232</ele>
        <time>2023-12-04T18:37:05.537Z</time>
      </trkpt>
      <trkpt lat="38.349903" lon="16.150659">
        <ele>934.297849</ele>
        <time>2023-12-04T18:37:08.568Z</time>
      </trkpt>
      <trkpt lat="38.349822" lon="16.150560">
        <ele>934.858160</ele>
        <time>2023-12-04T18:37:12.144Z</time>
      </trkpt>
      <trkpt lat="38.349726" lon="16.150296">
        <ele>935.997819</ele>
        <time>2023-12-04T18:37:19.668Z</time>
      </trkpt>
      <trkpt lat="38.349541" lon="16.150080">
        <ele>937.250468</ele>
        <time>2023-12-04T18:37:28.555Z</time>
      </trkpt>
      <trkpt lat="38.349253" lon="16.149929">
        <ele>938.805532</ele>
        <time>2023-12-04T18:37:40.035Z</time>
      </trkpt>
      <trkpt lat="38.348923" lon="16.149923">
        <ele>940.453670</ele>
        <time>2023-12-04T18:37:52.704Z</time>
      </trkpt>
      <trkpt lat="38.348237" lon="16.149992">
        <ele>943.731353</ele>
        <time>2023-12-04T18:38:19.396Z</time>
      </trkpt>
      <trkpt lat="38.347873" lon="16.150099">
        <ele>945.435538</ele>
        <time>2023-12-04T18:38:32.601Z</time>
      </trkpt>
      <trkpt lat="38.347417" lon="16.150181">
        <ele>947.536470</ele>
        <time>2023-12-04T18:38:47.144Z</time>
      </trkpt>
      <trkpt lat="38.347282" lon="16.150247">
        <ele>948.196081</ele>
        <time>2023-12-04T18:38:51.442Z</time>
      </trkpt>
      <trkpt lat="38.346664" lon="16.151195">
        <ele>951.713764</ele>
        <time>2023-12-04T18:39:19.558Z</time>
      </trkpt>
      <trkpt lat="38.346147" lon="16.151876">
        <ele>953.814820</ele>
        <time>2023-12-04T18:39:39.883Z</time>
      </trkpt>
      <trkpt lat="38.345849" lon="16.152314">
        <ele>955.100215</ele>
        <time>2023-12-04T18:39:50.528Z</time>
      </trkpt>
      <trkpt lat="38.345468" lon="16.152778">
        <ele>955.864960</ele>
        <time>2023-12-04T18:40:01.159Z</time>
      </trkpt>
      <trkpt lat="38.345201" lon="16.152995">
        <ele>956.239566</ele>
        <time>2023-12-04T18:40:07.215Z</time>
      </trkpt>
      <trkpt lat="38.345010" lon="16.153228">
        <ele>956.552308</ele>
        <time>2023-12-04T18:40:12.028Z</time>
      </trkpt>
      <trkpt lat="38.344704" lon="16.153491">
        <ele>956.988911</ele>
        <time>2023-12-04T18:40:18.500Z</time>
      </trkpt>
      <trkpt lat="38.344506" lon="16.153536">
        <ele>957.226859</ele>
        <time>2023-12-04T18:40:21.889Z</time>
      </trkpt>
      <trkpt lat="38.342253" lon="16.152320">
        <ele>960.344945</ele>
        <time>2023-12-04T18:41:11.540Z</time>
      </trkpt>
      <trkpt lat="38.339805" lon="16.150518">
        <ele>964.102958</ele>
        <time>2023-12-04T18:42:06.899Z</time>
      </trkpt>
      <trkpt lat="38.338463" lon="16.149451">
        <ele>966.405456</ele>
        <time>2023-12-04T18:42:43.733Z</time>
      </trkpt>
      <trkpt lat="38.336297" lon="16.147656">
        <ele>966.704033</ele>
        <time>2023-12-04T18:43:25.136Z</time>
      </trkpt>
      <trkpt lat="38.335571" lon="16.146801">
        <ele>963.734965</ele>
        <time>2023-12-04T18:43:35.276Z</time>
      </trkpt>
      <trkpt lat="38.335270" lon="16.146535">
        <ele>962.634750</ele>
        <time>2023-12-04T18:43:38.782Z</time>
      </trkpt>
      <trkpt lat="38.332368" lon="16.145208">
        <ele>948.646132</ele>
        <time>2023-12-04T18:44:07.545Z</time>
      </trkpt>
      <trkpt lat="38.332143" lon="16.145007">
        <ele>947.662523</ele>
        <time>2023-12-04T18:44:10.445Z</time>
      </trkpt>
      <trkpt lat="38.331530" lon="16.144299">
        <ele>946.765556</ele>
        <time>2023-12-04T18:44:21.085Z</time>
      </trkpt>
      <trkpt lat="38.331474" lon="16.144290">
        <ele>946.868572</ele>
        <time>2023-12-04T18:44:22.121Z</time>
      </trkpt>
      <trkpt lat="38.331294" lon="16.144258">
        <ele>947.200271</ele>
        <time>2023-12-04T18:44:25.787Z</time>
      </trkpt>
      <trkpt lat="38.330784" lon="16.144455">
        <ele>948.172870</ele>
        <time>2023-12-04T18:44:39.126Z</time>
      </trkpt>
      <trkpt lat="38.329494" lon="16.140017">
        <ele>957.867911</ele>
        <time>2023-12-04T18:46:23.687Z</time>
      </trkpt>
      <trkpt lat="38.328969" lon="16.138300">
        <ele>957.635656</ele>
        <time>2023-12-04T18:46:41.975Z</time>
      </trkpt>
      <trkpt lat="38.328905" lon="16.138091">
        <ele>957.384439</ele>
        <time>2023-12-04T18:46:43.804Z</time>
      </trkpt>
      <trkpt lat="38.328744" lon="16.137424">
        <ele>956.603037</ele>
        <time>2023-12-04T18:46:49.643Z</time>
      </trkpt>
      <trkpt lat="38.328579" lon="16.137231">
        <ele>956.287205</ele>
        <time>2023-12-04T18:46:52.076Z</time>
      </trkpt>
      <trkpt lat="38.328336" lon="16.137059">
        <ele>955.906965</ele>
        <time>2023-12-04T18:46:55.130Z</time>
      </trkpt>
      <trkpt lat="38.327864" lon="16.136766">
        <ele>955.188762</ele>
        <time>2023-12-04T18:47:01.073Z</time>
      </trkpt>
      <trkpt lat="38.323542" lon="16.133883">
        <ele>949.359556</ele>
        <time>2023-12-04T18:47:59.260Z</time>
      </trkpt>
      <trkpt lat="38.317085" lon="16.129634">
        <ele>948.536079</ele>
        <time>2023-12-04T18:49:45.234Z</time>
      </trkpt>
      <trkpt lat="38.315614" lon="16.128706">
        <ele>948.691050</ele>
        <time>2023-12-04T18:50:09.640Z</time>
      </trkpt>
      <trkpt lat="38.313062" lon="16.127071">
        <ele>950.787929</ele>
        <time>2023-12-04T18:50:58.771Z</time>
      </trkpt>
      <trkpt lat="38.311062" lon="16.125703">
        <ele>955.293310</ele>
        <time>2023-12-04T18:51:51.660Z</time>
      </trkpt>
      <trkpt lat="38.310689" lon="16.125247">
        <ele>957.488235</ele>
        <time>2023-12-04T18:52:06.204Z</time>
      </trkpt>
      <trkpt lat="38.310451" lon="16.124825">
        <ele>959.229172</ele>
        <time>2023-12-04T18:52:18.635Z</time>
      </trkpt>
      <trkpt lat="38.310293" lon="16.124099">
        <ele>961.753027</ele>
        <time>2023-12-04T18:52:38.916Z</time>
      </trkpt>
      <trkpt lat="38.310145" lon="16.123565">
        <ele>963.788749</ele>
        <time>2023-12-04T18:52:56.025Z</time>
      </trkpt>
      <trkpt lat="38.310029" lon="16.123380">
        <ele>964.747294</ele>
        <time>2023-12-04T18:53:03.205Z</time>
      </trkpt>
      <trkpt lat="38.309491" lon="16.122980">
        <ele>967.960333</ele>
        <time>2023-12-04T18:53:26.704Z</time>
      </trkpt>
      <trkpt lat="38.309201" lon="16.122748">
        <ele>969.726625</ele>
        <time>2023-12-04T18:53:38.997Z</time>
      </trkpt>
      <trkpt lat="38.309068" lon="16.122485">
        <ele>970.993116</ele>
        <time>2023-12-04T18:53:47.417Z</time>
      </trkpt>
      <trkpt lat="38.309035" lon="16.122237">
        <ele>972.011295</ele>
        <time>2023-12-04T18:53:53.921Z</time>
      </trkpt>
      <trkpt lat="38.309087" lon="16.121270">
        <ele>973.654384</ele>
        <time>2023-12-04T18:54:15.891Z</time>
      </trkpt>
      <trkpt lat="38.309019" lon="16.120564">
        <ele>974.745278</ele>
        <time>2023-12-04T18:54:27.678Z</time>
      </trkpt>
      <trkpt lat="38.308583" lon="16.119451">
        <ele>975.396674</ele>
        <time>2023-12-04T18:54:42.163Z</time>
      </trkpt>
      <trkpt lat="38.307990" lon="16.118206">
        <ele>974.420359</ele>
        <time>2023-12-04T18:54:56.077Z</time>
      </trkpt>
      <trkpt lat="38.307900" lon="16.117963">
        <ele>974.239804</ele>
        <time>2023-12-04T18:54:58.436Z</time>
      </trkpt>
      <trkpt lat="38.307849" lon="16.117736">
        <ele>974.048257</ele>
        <time>2023-12-04T18:55:00.461Z</time>
      </trkpt>
      <trkpt lat="38.307831" lon="16.117336">
        <ele>973.723235</ele>
        <time>2023-12-04T18:55:03.920Z</time>
      </trkpt>
      <trkpt lat="38.307904" lon="16.116665">
        <ele>973.173699</ele>
        <time>2023-12-04T18:55:10.069Z</time>
      </trkpt>
      <trkpt lat="38.307916" lon="16.115805">
        <ele>972.475939</ele>
        <time>2023-12-04T18:55:18.916Z</time>
      </trkpt>
      <trkpt lat="38.307886" lon="16.115623">
        <ele>972.477895</ele>
        <time>2023-12-04T18:55:20.988Z</time>
      </trkpt>
      <trkpt lat="38.307856" lon="16.115274">
        <ele>972.947132</ele>
        <time>2023-12-04T18:55:25.198Z</time>
      </trkpt>
      <trkpt lat="38.307793" lon="16.114922">
        <ele>973.429672</ele>
        <time>2023-12-04T18:55:30.015Z</time>
      </trkpt>
      <trkpt lat="38.307634" lon="16.114464">
        <ele>974.099033</ele>
        <time>2023-12-04T18:55:37.529Z</time>
      </trkpt>
      <trkpt lat="38.307402" lon="16.113900">
        <ele>974.950131</ele>
        <time>2023-12-04T18:55:49.374Z</time>
      </trkpt>
      <trkpt lat="38.307284" lon="16.113681">
        <ele>975.305192</ele>
        <time>2023-12-04T18:55:55.559Z</time>
      </trkpt>
      <trkpt lat="38.307149" lon="16.113541">
        <ele>975.838433</ele>
        <time>2023-12-04T18:56:01.337Z</time>
      </trkpt>
      <trkpt lat="38.307099" lon="16.113528">
        <ele>976.057866</ele>
        <time>2023-12-04T18:56:02.916Z</time>
      </trkpt>
      <trkpt lat="38.306513" lon="16.113666">
        <ele>978.620375</ele>
        <time>2023-12-04T18:56:23.756Z</time>
      </trkpt>
      <trkpt lat="38.306471" lon="16.113659">
        <ele>978.802516</ele>
        <time>2023-12-04T18:56:25.318Z</time>
      </trkpt>
      <trkpt lat="38.306373" lon="16.113561">
        <ele>979.338179</ele>
        <time>2023-12-04T18:56:29.402Z</time>
      </trkpt>
      <trkpt lat="38.306253" lon="16.113668">
        <ele>979.967959</ele>
        <time>2023-12-04T18:56:34.693Z</time>
      </trkpt>
      <trkpt lat="38.305670" lon="16.113863">
        <ele>982.559817</ele>
        <time>2023-12-04T18:56:54.145Z</time>
      </trkpt>
      <trkpt lat="38.305021" lon="16.114011">
        <ele>983.950396</ele>
        <time>2023-12-04T18:57:12.877Z</time>
      </trkpt>
      <trkpt lat="38.304729" lon="16.113995">
        <ele>984.387299</ele>
        <time>2023-12-04T18:57:20.593Z</time>
      </trkpt>
      <trkpt lat="38.303212" lon="16.113476">
        <ele>986.074842</ele>
        <time>2023-12-04T18:57:43.356Z</time>
      </trkpt>
      <trkpt lat="38.302505" lon="16.113555">
        <ele>986.326588</ele>
        <time>2023-12-04T18:57:53.197Z</time>
      </trkpt>
      <trkpt lat="38.301750" lon="16.113692">
        <ele>986.778756</ele>
        <time>2023-12-04T18:58:09.844Z</time>
      </trkpt>
      <trkpt lat="38.300547" lon="16.113910">
        <ele>988.082341</ele>
        <time>2023-12-04T18:58:32.073Z</time>
      </trkpt>
      <trkpt lat="38.300348" lon="16.113889">
        <ele>988.296562</ele>
        <time>2023-12-04T18:58:35.985Z</time>
      </trkpt>
      <trkpt lat="38.300272" lon="16.113882">
        <ele>988.378309</ele>
        <time>2023-12-04T18:58:37.320Z</time>
      </trkpt>
      <trkpt lat="38.300016" lon="16.113793">
        <ele>988.810672</ele>
        <time>2023-12-04T18:58:42.885Z</time>
      </trkpt>
      <trkpt lat="38.299911" lon="16.113721">
        <ele>989.022182</ele>
        <time>2023-12-04T18:58:44.984Z</time>
      </trkpt>
      <trkpt lat="38.299722" lon="16.113477">
        <ele>989.499436</ele>
        <time>2023-12-04T18:58:50.059Z</time>
      </trkpt>
      <trkpt lat="38.299476" lon="16.113095">
        <ele>990.187333</ele>
        <time>2023-12-04T18:58:57.878Z</time>
      </trkpt>
      <trkpt lat="38.298824" lon="16.112084">
        <ele>992.487137</ele>
        <time>2023-12-04T18:59:21.839Z</time>
      </trkpt>
      <trkpt lat="38.298534" lon="16.111793">
        <ele>993.962643</ele>
        <time>2023-12-04T18:59:33.728Z</time>
      </trkpt>
      <trkpt lat="38.298299" lon="16.111674">
        <ele>994.973463</ele>
        <time>2023-12-04T18:59:42.115Z</time>
      </trkpt>
      <trkpt lat="38.298102" lon="16.111613">
        <ele>995.783846</ele>
        <time>2023-12-04T18:59:48.961Z</time>
      </trkpt>
      <trkpt lat="38.296671" lon="16.111794">
        <ele>1001.524491</ele>
        <time>2023-12-04T19:00:35.548Z</time>
      </trkpt>
      <trkpt lat="38.296525" lon="16.111772">
        <ele>1002.110520</ele>
        <time>2023-12-04T19:00:40.001Z</time>
      </trkpt>
      <trkpt lat="38.295960" lon="16.111560">
        <ele>1004.458302</ele>
        <time>2023-12-04T19:00:58.037Z</time>
      </trkpt>
      <trkpt lat="38.294685" lon="16.111054">
        <ele>1008.042097</ele>
        <time>2023-12-04T19:01:36.122Z</time>
      </trkpt>
      <trkpt lat="38.293964" lon="16.110662">
        <ele>1009.734540</ele>
        <time>2023-12-04T19:01:52.778Z</time>
      </trkpt>
      <trkpt lat="38.293637" lon="16.110319">
        <ele>1008.386305</ele>
        <time>2023-12-04T19:01:58.675Z</time>
      </trkpt>
      <trkpt lat="38.292702" lon="16.109959">
        <ele>1004.368975</ele>
        <time>2023-12-04T19:02:08.375Z</time>
      </trkpt>
      <trkpt lat="38.292499" lon="16.109950">
        <ele>1003.533546</ele>
        <time>2023-12-04T19:02:10.188Z</time>
      </trkpt>
      <trkpt lat="38.292181" lon="16.110018">
        <ele>1001.917787</ele>
        <time>2023-12-04T19:02:13.010Z</time>
      </trkpt>
      <trkpt lat="38.292008" lon="16.110004">
        <ele>1000.426014</ele>
        <time>2023-12-04T19:02:14.496Z</time>
      </trkpt>
      <trkpt lat="38.291441" lon="16.109740">
        <ele>995.231018</ele>
        <time>2023-12-04T19:02:19.673Z</time>
      </trkpt>
      <trkpt lat="38.291266" lon="16.109551">
        <ele>993.256784</ele>
        <time>2023-12-04T19:02:21.638Z</time>
      </trkpt>
      <trkpt lat="38.291181" lon="16.109333">
        <ele>991.612662</ele>
        <time>2023-12-04T19:02:23.298Z</time>
      </trkpt>
      <trkpt lat="38.291136" lon="16.108773">
        <ele>987.810473</ele>
        <time>2023-12-04T19:02:27.196Z</time>
      </trkpt>
      <trkpt lat="38.291019" lon="16.108145">
        <ele>986.160210</ele>
        <time>2023-12-04T19:02:31.936Z</time>
      </trkpt>
      <trkpt lat="38.290990" lon="16.107811">
        <ele>985.626097</ele>
        <time>2023-12-04T19:02:34.627Z</time>
      </trkpt>
      <trkpt lat="38.291016" lon="16.107517">
        <ele>985.155843</ele>
        <time>2023-12-04T19:02:37.251Z</time>
      </trkpt>
      <trkpt lat="38.290951" lon="16.107220">
        <ele>984.665768</ele>
        <time>2023-12-04T19:02:40.301Z</time>
      </trkpt>
      <trkpt lat="38.290399" lon="16.106395">
        <ele>982.638197</ele>
        <time>2023-12-04T19:03:00.526Z</time>
      </trkpt>
      <trkpt lat="38.289595" lon="16.104452">
        <ele>975.686798</ele>
        <time>2023-12-04T19:03:17.290Z</time>
      </trkpt>
      <trkpt lat="38.289455" lon="16.103927">
        <ele>971.206301</ele>
        <time>2023-12-04T19:03:21.012Z</time>
      </trkpt>
      <trkpt lat="38.289369" lon="16.103491">
        <ele>967.573588</ele>
        <time>2023-12-04T19:03:24.046Z</time>
      </trkpt>
      <trkpt lat="38.289447" lon="16.103010">
        <ele>963.604707</ele>
        <time>2023-12-04T19:03:27.316Z</time>
      </trkpt>
      <trkpt lat="38.289562" lon="16.102574">
        <ele>959.887934</ele>
        <time>2023-12-04T19:03:30.341Z</time>
      </trkpt>
      <trkpt lat="38.290029" lon="16.101672">
        <ele>953.686400</ele>
        <time>2023-12-04T19:03:37.504Z</time>
      </trkpt>
      <trkpt lat="38.290042" lon="16.101556">
        <ele>953.066677</ele>
        <time>2023-12-04T19:03:38.302Z</time>
      </trkpt>
      <trkpt lat="38.289973" lon="16.101405">
        <ele>952.142582</ele>
        <time>2023-12-04T19:03:39.522Z</time>
      </trkpt>
      <trkpt lat="38.289907" lon="16.101370">
        <ele>951.660867</ele>
        <time>2023-12-04T19:03:40.192Z</time>
      </trkpt>
      <trkpt lat="38.289802" lon="16.101377">
        <ele>950.952375</ele>
        <time>2023-12-04T19:03:41.140Z</time>
      </trkpt>
      <trkpt lat="38.289702" lon="16.101454">
        <ele>950.165041</ele>
        <time>2023-12-04T19:03:42.239Z</time>
      </trkpt>
      <trkpt lat="38.289664" lon="16.101543">
        <ele>949.629197</ele>
        <time>2023-12-04T19:03:43.065Z</time>
      </trkpt>
      <trkpt lat="38.289604" lon="16.101927">
        <ele>947.558434</ele>
        <time>2023-12-04T19:03:46.208Z</time>
      </trkpt>
      <trkpt lat="38.289550" lon="16.102046">
        <ele>946.831447</ele>
        <time>2023-12-04T19:03:48.123Z</time>
      </trkpt>
      <trkpt lat="38.289457" lon="16.102041">
        <ele>946.525228</ele>
        <time>2023-12-04T19:03:49.287Z</time>
      </trkpt>
      <trkpt lat="38.289425" lon="16.102007">
        <ele>946.824558</ele>
        <time>2023-12-04T19:03:49.770Z</time>
      </trkpt>
      <trkpt lat="38.289429" lon="16.101920">
        <ele>947.315949</ele>
        <time>2023-12-04T19:03:51.093Z</time>
      </trkpt>
      <trkpt lat="38.289477" lon="16.101796">
        <ele>948.095532</ele>
        <time>2023-12-04T19:03:54.601Z</time>
      </trkpt>
      <trkpt lat="38.289476" lon="16.101180">
        <ele>951.568861</ele>
        <time>2023-12-04T19:04:12.805Z</time>
      </trkpt>
      <trkpt lat="38.289547" lon="16.100625">
        <ele>954.739526</ele>
        <time>2023-12-04T19:04:36.063Z</time>
      </trkpt>
      <trkpt lat="38.289518" lon="16.100491">
        <ele>955.523281</ele>
        <time>2023-12-04T19:04:42.422Z</time>
      </trkpt>
      <trkpt lat="38.289296" lon="16.100173">
        <ele>957.922954</ele>
        <time>2023-12-04T19:05:00.686Z</time>
      </trkpt>
      <trkpt lat="38.289209" lon="16.100021">
        <ele>958.983690</ele>
        <time>2023-12-04T19:05:09.456Z</time>
      </trkpt>
      <trkpt lat="38.289194" lon="16.099573">
        <ele>961.941730</ele>
        <time>2023-12-04T19:05:30.981Z</time>
      </trkpt>
      <trkpt lat="38.289156" lon="16.099403">
        <ele>963.130319</ele>
        <time>2023-12-04T19:05:39.746Z</time>
      </trkpt>
      <trkpt lat="38.289097" lon="16.099397">
        <ele>963.637391</ele>
        <time>2023-12-04T19:05:43.878Z</time>
      </trkpt>
      <trkpt lat="38.289046" lon="16.099425">
        <ele>964.113158</ele>
        <time>2023-12-04T19:05:47.319Z</time>
      </trkpt>
      <trkpt lat="38.288865" lon="16.099842">
        <ele>967.317415</ele>
        <time>2023-12-04T19:06:11.347Z</time>
      </trkpt>
      <trkpt lat="38.288801" lon="16.099924">
        <ele>968.095022</ele>
        <time>2023-12-04T19:06:16.957Z</time>
      </trkpt>
      <trkpt lat="38.288325" lon="16.100224">
        <ele>972.644690</ele>
        <time>2023-12-04T19:06:44.347Z</time>
      </trkpt>
      <trkpt lat="38.288042" lon="16.100163">
        <ele>974.704654</ele>
        <time>2023-12-04T19:06:51.334Z</time>
      </trkpt>
      <trkpt lat="38.287868" lon="16.100010">
        <ele>974.768696</ele>
        <time>2023-12-04T19:06:53.514Z</time>
      </trkpt>
      <trkpt lat="38.287576" lon="16.099685">
        <ele>974.886148</ele>
        <time>2023-12-04T19:06:57.162Z</time>
      </trkpt>
      <trkpt lat="38.287386" lon="16.099596">
        <ele>974.947469</ele>
        <time>2023-12-04T19:06:59.295Z</time>
      </trkpt>
      <trkpt lat="38.287090" lon="16.099556">
        <ele>975.037635</ele>
        <time>2023-12-04T19:07:03.655Z</time>
      </trkpt>
      <trkpt lat="38.286843" lon="16.099564">
        <ele>975.112480</ele>
        <time>2023-12-04T19:07:09.258Z</time>
      </trkpt>
      <trkpt lat="38.286691" lon="16.099599">
        <ele>975.159270</ele>
        <time>2023-12-04T19:07:11.682Z</time>
      </trkpt>
      <trkpt lat="38.286455" lon="16.099698">
        <ele>975.234534</ele>
        <time>2023-12-04T19:07:18.625Z</time>
      </trkpt>
      <trkpt lat="38.286338" lon="16.099731">
        <ele>975.969144</ele>
        <time>2023-12-04T19:07:20.514Z</time>
      </trkpt>
      <trkpt lat="38.286246" lon="16.099661">
        <ele>976.631882</ele>
        <time>2023-12-04T19:07:23.484Z</time>
      </trkpt>
      <trkpt lat="38.286229" lon="16.099559">
        <ele>977.138079</ele>
        <time>2023-12-04T19:07:26.392Z</time>
      </trkpt>
      <trkpt lat="38.286271" lon="16.099457">
        <ele>977.697234</ele>
        <time>2023-12-04T19:07:28.426Z</time>
      </trkpt>
      <trkpt lat="38.286499" lon="16.099425">
        <ele>979.115866</ele>
        <time>2023-12-04T19:07:34.473Z</time>
      </trkpt>
      <trkpt lat="38.286570" lon="16.099382">
        <ele>979.602067</ele>
        <time>2023-12-04T19:07:36.866Z</time>
      </trkpt>
      <trkpt lat="38.286494" lon="16.099269">
        <ele>980.324455</ele>
        <time>2023-12-04T19:07:39.594Z</time>
      </trkpt>
      <trkpt lat="38.286385" lon="16.099253">
        <ele>981.003043</ele>
        <time>2023-12-04T19:07:43.529Z</time>
      </trkpt>
      <trkpt lat="38.286107" lon="16.099275">
        <ele>982.725690</ele>
        <time>2023-12-04T19:07:53.701Z</time>
      </trkpt>
      <trkpt lat="38.286014" lon="16.099157">
        <ele>983.537454</ele>
        <time>2023-12-04T19:08:00.349Z</time>
      </trkpt>
      <trkpt lat="38.285907" lon="16.098709">
        <ele>985.810726</ele>
        <time>2023-12-04T19:08:22.003Z</time>
      </trkpt>
      <trkpt lat="38.285829" lon="16.098545">
        <ele>986.952459</ele>
        <time>2023-12-04T19:08:32.947Z</time>
      </trkpt>
      <trkpt lat="38.285321" lon="16.098317">
        <ele>992.118465</ele>
        <time>2023-12-04T19:09:08.448Z</time>
      </trkpt>
      <trkpt lat="38.284713" lon="16.097896">
        <ele>998.755810</ele>
        <time>2023-12-04T19:09:47.366Z</time>
      </trkpt>
      <trkpt lat="38.284524" lon="16.097649">
        <ele>1001.352803</ele>
        <time>2023-12-04T19:09:59.704Z</time>
      </trkpt>
      <trkpt lat="38.284452" lon="16.097376">
        <ele>1003.521080</ele>
        <time>2023-12-04T19:10:08.839Z</time>
      </trkpt>
      <trkpt lat="38.284355" lon="16.097264">
        <ele>1003.922367</ele>
        <time>2023-12-04T19:10:13.527Z</time>
      </trkpt>
      <trkpt lat="38.284133" lon="16.097144">
        <ele>1004.540836</ele>
        <time>2023-12-04T19:10:21.444Z</time>
      </trkpt>
      <trkpt lat="38.283716" lon="16.097174">
        <ele>1005.611978</ele>
        <time>2023-12-04T19:10:32.662Z</time>
      </trkpt>
      <trkpt lat="38.283476" lon="16.097102">
        <ele>1006.244318</ele>
        <time>2023-12-04T19:10:38.117Z</time>
      </trkpt>
      <trkpt lat="38.283355" lon="16.097018">
        <ele>1006.597718</ele>
        <time>2023-12-04T19:10:41.101Z</time>
      </trkpt>
      <trkpt lat="38.283251" lon="16.096902">
        <ele>1006.952217</ele>
        <time>2023-12-04T19:10:43.501Z</time>
      </trkpt>
      <trkpt lat="38.282588" lon="16.095617">
        <ele>1009.875735</ele>
        <time>2023-12-04T19:11:02.243Z</time>
      </trkpt>
      <trkpt lat="38.281761" lon="16.094536">
        <ele>1013.007617</ele>
        <time>2023-12-04T19:11:35.360Z</time>
      </trkpt>
      <trkpt lat="38.281632" lon="16.094294">
        <ele>1014.433868</ele>
        <time>2023-12-04T19:11:43.439Z</time>
      </trkpt>
      <trkpt lat="38.281212" lon="16.091189">
        <ele>1029.658733</ele>
        <time>2023-12-04T19:13:28.463Z</time>
      </trkpt>
      <trkpt lat="38.281101" lon="16.090206">
        <ele>1034.394086</ele>
        <time>2023-12-04T19:13:57.731Z</time>
      </trkpt>
      <trkpt lat="38.281049" lon="16.089922">
        <ele>1034.966130</ele>
        <time>2023-12-04T19:14:05.283Z</time>
      </trkpt>
      <trkpt lat="38.280951" lon="16.089683">
        <ele>1035.433785</ele>
        <time>2023-12-04T19:14:12.013Z</time>
      </trkpt>
      <trkpt lat="38.279664" lon="16.088026">
        <ele>1037.868356</ele>
        <time>2023-12-04T19:14:48.851Z</time>
      </trkpt>
      <trkpt lat="38.277690" lon="16.085423">
        <ele>1032.093863</ele>
        <time>2023-12-04T19:15:19.133Z</time>
      </trkpt>
      <trkpt lat="38.277536" lon="16.085219">
        <ele>1031.501833</ele>
        <time>2023-12-04T19:15:21.370Z</time>
      </trkpt>
      <trkpt lat="38.277246" lon="16.084913">
        <ele>1030.034015</ele>
        <time>2023-12-04T19:15:25.118Z</time>
      </trkpt>
      <trkpt lat="38.276729" lon="16.084483">
        <ele>1027.423995</ele>
        <time>2023-12-04T19:15:31.124Z</time>
      </trkpt>
      <trkpt lat="38.275774" lon="16.083753">
        <ele>1023.027786</ele>
        <time>2023-12-04T19:15:41.657Z</time>
      </trkpt>
      <trkpt lat="38.275142" lon="16.083229">
        <ele>1020.863397</ele>
        <time>2023-12-04T19:15:49.118Z</time>
      </trkpt>
      <trkpt lat="38.274574" lon="16.082737">
        <ele>1018.891889</ele>
        <time>2023-12-04T19:15:56.557Z</time>
      </trkpt>
      <trkpt lat="38.272805" lon="16.080623">
        <ele>1017.403552</ele>
        <time>2023-12-04T19:16:34.508Z</time>
      </trkpt>
      <trkpt lat="38.272616" lon="16.080384">
        <ele>1016.872500</ele>
        <time>2023-12-04T19:16:37.406Z</time>
      </trkpt>
      <trkpt lat="38.272293" lon="16.079741">
        <ele>1015.677489</ele>
        <time>2023-12-04T19:16:43.552Z</time>
      </trkpt>
      <trkpt lat="38.271716" lon="16.078443">
        <ele>1013.483923</ele>
        <time>2023-12-04T19:16:55.272Z</time>
      </trkpt>
      <trkpt lat="38.270904" lon="16.076599">
        <ele>1012.810293</ele>
        <time>2023-12-04T19:17:16.341Z</time>
      </trkpt>
      <trkpt lat="38.270359" lon="16.075387">
        <ele>1015.081529</ele>
        <time>2023-12-04T19:17:46.955Z</time>
      </trkpt>
      <trkpt lat="38.270238" lon="16.075212">
        <ele>1015.658854</ele>
        <time>2023-12-04T19:17:52.889Z</time>
      </trkpt>
      <trkpt lat="38.270054" lon="16.075037">
        <ele>1016.708059</ele>
        <time>2023-12-04T19:18:00.499Z</time>
      </trkpt>
      <trkpt lat="38.269824" lon="16.074952">
        <ele>1017.802268</ele>
        <time>2023-12-04T19:18:08.760Z</time>
      </trkpt>
      <trkpt lat="38.267900" lon="16.074670">
        <ele>1025.002057</ele>
        <time>2023-12-04T19:19:14.002Z</time>
      </trkpt>
      <trkpt lat="38.267626" lon="16.074570">
        <ele>1025.619709</ele>
        <time>2023-12-04T19:19:21.641Z</time>
      </trkpt>
      <trkpt lat="38.267331" lon="16.074343">
        <ele>1026.366580</ele>
        <time>2023-12-04T19:19:29.839Z</time>
      </trkpt>
      <trkpt lat="38.265696" lon="16.072274">
        <ele>1023.574990</ele>
        <time>2023-12-04T19:19:55.982Z</time>
      </trkpt>
      <trkpt lat="38.265149" lon="16.071543">
        <ele>1019.410428</ele>
        <time>2023-12-04T19:20:03.244Z</time>
      </trkpt>
      <trkpt lat="38.264763" lon="16.071080">
        <ele>1016.625320</ele>
        <time>2023-12-04T19:20:08.066Z</time>
      </trkpt>
      <trkpt lat="38.264530" lon="16.070651">
        <ele>1014.474024</ele>
        <time>2023-12-04T19:20:11.846Z</time>
      </trkpt>
      <trkpt lat="38.264372" lon="16.070258">
        <ele>1013.667578</ele>
        <time>2023-12-04T19:20:15.145Z</time>
      </trkpt>
      <trkpt lat="38.264249" lon="16.069862">
        <ele>1013.025719</ele>
        <time>2023-12-04T19:20:18.461Z</time>
      </trkpt>
      <trkpt lat="38.263447" lon="16.066321">
        <ele>1010.026980</ele>
        <time>2023-12-04T19:20:58.189Z</time>
      </trkpt>
      <trkpt lat="38.263185" lon="16.065607">
        <ele>1010.188478</ele>
        <time>2023-12-04T19:21:05.700Z</time>
      </trkpt>
      <trkpt lat="38.263034" lon="16.065345">
        <ele>1010.276199</ele>
        <time>2023-12-04T19:21:08.706Z</time>
      </trkpt>
      <trkpt lat="38.262873" lon="16.065129">
        <ele>1010.356584</ele>
        <time>2023-12-04T19:21:11.604Z</time>
      </trkpt>
      <trkpt lat="38.260181" lon="16.061923">
        <ele>1019.215045</ele>
        <time>2023-12-04T19:22:37.480Z</time>
      </trkpt>
      <trkpt lat="38.259729" lon="16.061338">
        <ele>1021.954650</ele>
        <time>2023-12-04T19:23:06.549Z</time>
      </trkpt>
      <trkpt lat="38.259262" lon="16.060903">
        <ele>1024.602104</ele>
        <time>2023-12-04T19:23:34.999Z</time>
      </trkpt>
      <trkpt lat="38.258250" lon="16.059722">
        <ele>1029.706739</ele>
        <time>2023-12-04T19:24:17.662Z</time>
      </trkpt>
      <trkpt lat="38.257727" lon="16.059187">
        <ele>1026.603952</ele>
        <time>2023-12-04T19:24:24.058Z</time>
      </trkpt>
      <trkpt lat="38.256937" lon="16.058678">
        <ele>1022.508929</ele>
        <time>2023-12-04T19:24:31.952Z</time>
      </trkpt>
      <trkpt lat="38.256691" lon="16.058447">
        <ele>1021.942456</ele>
        <time>2023-12-04T19:24:34.669Z</time>
      </trkpt>
      <trkpt lat="38.256347" lon="16.058046">
        <ele>1021.834472</ele>
        <time>2023-12-04T19:24:39.000Z</time>
      </trkpt>
      <trkpt lat="38.255909" lon="16.057631">
        <ele>1021.708061</ele>
        <time>2023-12-04T19:24:45.904Z</time>
      </trkpt>
      <trkpt lat="38.255791" lon="16.057583">
        <ele>1021.679378</ele>
        <time>2023-12-04T19:24:48.972Z</time>
      </trkpt>
      <trkpt lat="38.255444" lon="16.057672">
        <ele>1021.597417</ele>
        <time>2023-12-04T19:25:02.458Z</time>
      </trkpt>
      <trkpt lat="38.255089" lon="16.057824">
        <ele>1023.875049</ele>
        <time>2023-12-04T19:25:21.459Z</time>
      </trkpt>
      <trkpt lat="38.254612" lon="16.057979">
        <ele>1028.257797</ele>
        <time>2023-12-04T19:25:49.350Z</time>
      </trkpt>
      <trkpt lat="38.254124" lon="16.058012">
        <ele>1032.608523</ele>
        <time>2023-12-04T19:26:16.846Z</time>
      </trkpt>
      <trkpt lat="38.253968" lon="16.058143">
        <ele>1034.272157</ele>
        <time>2023-12-04T19:26:26.503Z</time>
      </trkpt>
      <trkpt lat="38.253813" lon="16.058286">
        <ele>1035.976193</ele>
        <time>2023-12-04T19:26:36.373Z</time>
      </trkpt>
      <trkpt lat="38.253390" lon="16.058818">
        <ele>1039.700493</ele>
        <time>2023-12-04T19:27:02.923Z</time>
      </trkpt>
      <trkpt lat="38.253254" lon="16.059028">
        <ele>1040.793513</ele>
        <time>2023-12-04T19:27:11.810Z</time>
      </trkpt>
      <trkpt lat="38.253090" lon="16.059472">
        <ele>1042.763771</ele>
        <time>2023-12-04T19:27:25.458Z</time>
      </trkpt>
      <trkpt lat="38.252996" lon="16.059657">
        <ele>1043.648581</ele>
        <time>2023-12-04T19:27:30.632Z</time>
      </trkpt>
      <trkpt lat="38.252863" lon="16.059821">
        <ele>1044.595258</ele>
        <time>2023-12-04T19:27:35.597Z</time>
      </trkpt>
      <trkpt lat="38.252621" lon="16.060001">
        <ele>1046.028338</ele>
        <time>2023-12-04T19:27:42.490Z</time>
      </trkpt>
      <trkpt lat="38.252487" lon="16.060028">
        <ele>1046.722063</ele>
        <time>2023-12-04T19:27:45.798Z</time>
      </trkpt>
      <trkpt lat="38.252353" lon="16.059987">
        <ele>1047.220793</ele>
        <time>2023-12-04T19:27:49.186Z</time>
      </trkpt>
      <trkpt lat="38.252279" lon="16.059911">
        <ele>1047.551867</ele>
        <time>2023-12-04T19:27:51.616Z</time>
      </trkpt>
      <trkpt lat="38.252196" lon="16.059686">
        <ele>1048.231701</ele>
        <time>2023-12-04T19:27:56.571Z</time>
      </trkpt>
      <trkpt lat="38.251707" lon="16.057449">
        <ele>1054.898699</ele>
        <time>2023-12-04T19:28:51.202Z</time>
      </trkpt>
      <trkpt lat="38.251398" lon="16.056219">
        <ele>1059.157972</ele>
        <time>2023-12-04T19:29:22.896Z</time>
      </trkpt>
      <trkpt lat="38.250893" lon="16.054612">
        <ele>1065.786777</ele>
        <time>2023-12-04T19:30:10.017Z</time>
      </trkpt>
      <trkpt lat="38.250429" lon="16.053358">
        <ele>1071.188136</ele>
        <time>2023-12-04T19:30:49.745Z</time>
      </trkpt>
      <trkpt lat="38.250326" lon="16.053010">
        <ele>1072.530076</ele>
        <time>2023-12-04T19:30:59.838Z</time>
      </trkpt>
      <trkpt lat="38.250248" lon="16.052598">
        <ele>1074.059319</ele>
        <time>2023-12-04T19:31:11.137Z</time>
      </trkpt>
      <trkpt lat="38.250221" lon="16.051948">
        <ele>1076.408048</ele>
        <time>2023-12-04T19:31:27.902Z</time>
      </trkpt>
      <trkpt lat="38.250236" lon="16.051401">
        <ele>1078.260293</ele>
        <time>2023-12-04T19:31:41.126Z</time>
      </trkpt>
      <trkpt lat="38.250323" lon="16.050181">
        <ele>1081.071844</ele>
        <time>2023-12-04T19:32:08.127Z</time>
      </trkpt>
      <trkpt lat="38.250409" lon="16.049354">
        <ele>1082.986464</ele>
        <time>2023-12-04T19:32:24.337Z</time>
      </trkpt>
      <trkpt lat="38.250451" lon="16.048195">
        <ele>1084.272777</ele>
        <time>2023-12-04T19:32:43.394Z</time>
      </trkpt>
      <trkpt lat="38.250524" lon="16.047118">
        <ele>1085.298610</ele>
        <time>2023-12-04T19:32:59.264Z</time>
      </trkpt>
      <trkpt lat="38.250506" lon="16.046798">
        <ele>1085.431845</ele>
        <time>2023-12-04T19:33:03.650Z</time>
      </trkpt>
      <trkpt lat="38.250361" lon="16.046180">
        <ele>1085.220151</ele>
        <time>2023-12-04T19:33:11.462Z</time>
      </trkpt>
      <trkpt lat="38.250228" lon="16.045862">
        <ele>1085.101901</ele>
        <time>2023-12-04T19:33:15.406Z</time>
      </trkpt>
      <trkpt lat="38.250028" lon="16.045531">
        <ele>1084.964827</ele>
        <time>2023-12-04T19:33:19.688Z</time>
      </trkpt>
      <trkpt lat="38.249846" lon="16.045334">
        <ele>1084.864995</ele>
        <time>2023-12-04T19:33:22.678Z</time>
      </trkpt>
      <trkpt lat="38.249136" lon="16.044811">
        <ele>1083.463545</ele>
        <time>2023-12-04T19:33:32.227Z</time>
      </trkpt>
      <trkpt lat="38.249056" lon="16.044729">
        <ele>1083.195611</ele>
        <time>2023-12-04T19:33:33.344Z</time>
      </trkpt>
      <trkpt lat="38.248952" lon="16.044545">
        <ele>1082.731129</ele>
        <time>2023-12-04T19:33:35.279Z</time>
      </trkpt>
      <trkpt lat="38.248886" lon="16.044271">
        <ele>1082.143923</ele>
        <time>2023-12-04T19:33:37.657Z</time>
      </trkpt>
      <trkpt lat="38.248893" lon="16.044100">
        <ele>1081.793089</ele>
        <time>2023-12-04T19:33:39.058Z</time>
      </trkpt>
      <trkpt lat="38.248926" lon="16.043969">
        <ele>1081.511216</ele>
        <time>2023-12-04T19:33:40.148Z</time>
      </trkpt>
      <trkpt lat="38.248985" lon="16.043822">
        <ele>1081.172976</ele>
        <time>2023-12-04T19:33:41.464Z</time>
      </trkpt>
      <trkpt lat="38.249090" lon="16.043670">
        <ele>1080.758211</ele>
        <time>2023-12-04T19:33:43.062Z</time>
      </trkpt>
      <trkpt lat="38.249389" lon="16.043312">
        <ele>1079.459363</ele>
        <time>2023-12-04T19:33:47.097Z</time>
      </trkpt>
      <trkpt lat="38.249755" lon="16.042771">
        <ele>1077.026641</ele>
        <time>2023-12-04T19:33:52.424Z</time>
      </trkpt>
      <trkpt lat="38.250263" lon="16.042182">
        <ele>1074.046147</ele>
        <time>2023-12-04T19:33:58.997Z</time>
      </trkpt>
      <trkpt lat="38.250789" lon="16.041644">
        <ele>1070.974540</ele>
        <time>2023-12-04T19:34:05.598Z</time>
      </trkpt>
      <trkpt lat="38.251071" lon="16.041394">
        <ele>1069.289390</ele>
        <time>2023-12-04T19:34:08.880Z</time>
      </trkpt>
      <trkpt lat="38.251193" lon="16.041388">
        <ele>1068.690626</ele>
        <time>2023-12-04T19:34:10.031Z</time>
      </trkpt>
      <trkpt lat="38.251241" lon="16.041434">
        <ele>1068.396006</ele>
        <time>2023-12-04T19:34:10.582Z</time>
      </trkpt>
      <trkpt lat="38.251284" lon="16.041572">
        <ele>1067.824216</ele>
        <time>2023-12-04T19:34:11.674Z</time>
      </trkpt>
      <trkpt lat="38.251265" lon="16.041645">
        <ele>1067.528030</ele>
        <time>2023-12-04T19:34:12.235Z</time>
      </trkpt>
      <trkpt lat="38.251103" lon="16.041910">
        <ele>1066.234648</ele>
        <time>2023-12-04T19:34:14.693Z</time>
      </trkpt>
      <trkpt lat="38.251105" lon="16.041998">
        <ele>1065.895589</ele>
        <time>2023-12-04T19:34:15.349Z</time>
      </trkpt>
      <trkpt lat="38.251128" lon="16.042075">
        <ele>1065.578310</ele>
        <time>2023-12-04T19:34:15.959Z</time>
      </trkpt>
      <trkpt lat="38.251183" lon="16.042132">
        <ele>1065.230534</ele>
        <time>2023-12-04T19:34:16.632Z</time>
      </trkpt>
      <trkpt lat="38.251263" lon="16.042157">
        <ele>1064.826553</ele>
        <time>2023-12-04T19:34:17.411Z</time>
      </trkpt>
      <trkpt lat="38.251394" lon="16.042083">
        <ele>1064.123721</ele>
        <time>2023-12-04T19:34:18.786Z</time>
      </trkpt>
      <trkpt lat="38.251478" lon="16.041930">
        <ele>1063.400589</ele>
        <time>2023-12-04T19:34:20.193Z</time>
      </trkpt>
      <trkpt lat="38.251568" lon="16.041641">
        <ele>1060.527655</ele>
        <time>2023-12-04T19:34:22.520Z</time>
      </trkpt>
      <trkpt lat="38.251529" lon="16.041495">
        <ele>1059.102573</ele>
        <time>2023-12-04T19:34:23.643Z</time>
      </trkpt>
      <trkpt lat="38.251478" lon="16.041435">
        <ele>1058.285520</ele>
        <time>2023-12-04T19:34:24.280Z</time>
      </trkpt>
      <trkpt lat="38.251168" lon="16.041174">
        <ele>1053.912418</ele>
        <time>2023-12-04T19:34:27.555Z</time>
      </trkpt>
      <trkpt lat="38.251063" lon="16.041113">
        <ele>1052.554340</ele>
        <time>2023-12-04T19:34:28.536Z</time>
      </trkpt>
      <trkpt lat="38.250977" lon="16.041103">
        <ele>1051.538143</ele>
        <time>2023-12-04T19:34:29.264Z</time>
      </trkpt>
      <trkpt lat="38.250808" lon="16.041169">
        <ele>1049.458046</ele>
        <time>2023-12-04T19:34:30.738Z</time>
      </trkpt>
      <trkpt lat="38.250478" lon="16.041479">
        <ele>1044.632509</ele>
        <time>2023-12-04T19:34:34.118Z</time>
      </trkpt>
      <trkpt lat="38.250254" lon="16.041520">
        <ele>1041.905759</ele>
        <time>2023-12-04T19:34:35.971Z</time>
      </trkpt>
      <trkpt lat="38.250155" lon="16.041502">
        <ele>1040.454046</ele>
        <time>2023-12-04T19:34:36.788Z</time>
      </trkpt>
      <trkpt lat="38.250090" lon="16.041460">
        <ele>1039.395941</ele>
        <time>2023-12-04T19:34:37.384Z</time>
      </trkpt>
      <trkpt lat="38.250026" lon="16.041330">
        <ele>1037.646797</ele>
        <time>2023-12-04T19:34:38.372Z</time>
      </trkpt>
      <trkpt lat="38.249972" lon="16.040898">
        <ele>1032.659964</ele>
        <time>2023-12-04T19:34:41.191Z</time>
      </trkpt>
      <trkpt lat="38.249943" lon="16.040834">
        <ele>1031.817616</ele>
        <time>2023-12-04T19:34:41.669Z</time>
      </trkpt>
      <trkpt lat="38.249558" lon="16.040614">
        <ele>1025.691798</ele>
        <time>2023-12-04T19:34:45.166Z</time>
      </trkpt>
      <trkpt lat="38.249387" lon="16.040481">
        <ele>1022.783038</ele>
        <time>2023-12-04T19:34:46.844Z</time>
      </trkpt>
      <trkpt lat="38.249358" lon="16.040427">
        <ele>1022.037250</ele>
        <time>2023-12-04T19:34:47.283Z</time>
      </trkpt>
      <trkpt lat="38.249321" lon="16.040099">
        <ele>1018.259609</ele>
        <time>2023-12-04T19:34:49.496Z</time>
      </trkpt>
      <trkpt lat="38.249322" lon="16.039462">
        <ele>1015.727445</ele>
        <time>2023-12-04T19:34:53.907Z</time>
      </trkpt>
      <trkpt lat="38.249180" lon="16.038983">
        <ele>1015.267043</ele>
        <time>2023-12-04T19:34:58.027Z</time>
      </trkpt>
      <trkpt lat="38.249165" lon="16.038883">
        <ele>1015.175494</ele>
        <time>2023-12-04T19:34:59.269Z</time>
      </trkpt>
      <trkpt lat="38.249189" lon="16.038660">
        <ele>1014.973089</ele>
        <time>2023-12-04T19:35:02.715Z</time>
      </trkpt>
      <trkpt lat="38.249298" lon="16.038414">
        <ele>1014.719096</ele>
        <time>2023-12-04T19:35:08.827Z</time>
      </trkpt>
      <trkpt lat="38.249392" lon="16.038269">
        <ele>1014.550020</ele>
        <time>2023-12-04T19:35:13.640Z</time>
      </trkpt>
      <trkpt lat="38.249725" lon="16.037956">
        <ele>1014.076088</ele>
        <time>2023-12-04T19:35:28.052Z</time>
      </trkpt>
      <trkpt lat="38.249767" lon="16.037892">
        <ele>1014.053568</ele>
        <time>2023-12-04T19:35:30.228Z</time>
      </trkpt>
      <trkpt lat="38.249889" lon="16.037515">
        <ele>1013.954731</ele>
        <time>2023-12-04T19:35:39.682Z</time>
      </trkpt>
      <trkpt lat="38.250367" lon="16.036305">
        <ele>1013.626417</ele>
        <time>2023-12-04T19:35:52.332Z</time>
      </trkpt>
      <trkpt lat="38.250615" lon="16.035782">
        <ele>1013.428050</ele>
        <time>2023-12-04T19:35:57.001Z</time>
      </trkpt>
      <trkpt lat="38.251088" lon="16.034630">
        <ele>1012.711293</ele>
        <time>2023-12-04T19:36:08.656Z</time>
      </trkpt>
      <trkpt lat="38.251265" lon="16.034306">
        <ele>1012.493676</ele>
        <time>2023-12-04T19:36:12.897Z</time>
      </trkpt>
      <trkpt lat="38.251487" lon="16.034030">
        <ele>1012.275839</ele>
        <time>2023-12-04T19:36:18.716Z</time>
      </trkpt>
      <trkpt lat="38.251609" lon="16.034006">
        <ele>1012.679887</ele>
        <time>2023-12-04T19:36:21.958Z</time>
      </trkpt>
      <trkpt lat="38.252103" lon="16.034167">
        <ele>1014.993405</ele>
        <time>2023-12-04T19:36:37.243Z</time>
      </trkpt>
      <trkpt lat="38.252858" lon="16.034483">
        <ele>1018.599117</ele>
        <time>2023-12-04T19:37:08.732Z</time>
      </trkpt>
      <trkpt lat="38.252970" lon="16.034461">
        <ele>1019.113270</ele>
        <time>2023-12-04T19:37:13.460Z</time>
      </trkpt>
      <trkpt lat="38.253039" lon="16.034360">
        <ele>1019.590231</ele>
        <time>2023-12-04T19:37:17.297Z</time>
      </trkpt>
      <trkpt lat="38.253070" lon="16.034257">
        <ele>1019.983232</ele>
        <time>2023-12-04T19:37:20.339Z</time>
      </trkpt>
      <trkpt lat="38.253049" lon="16.034154">
        <ele>1020.362370</ele>
        <time>2023-12-04T19:37:23.167Z</time>
      </trkpt>
      <trkpt lat="38.252763" lon="16.033867">
        <ele>1021.578937</ele>
        <time>2023-12-04T19:37:34.523Z</time>
      </trkpt>
      <trkpt lat="38.252562" lon="16.033497">
        <ele>1022.745331</ele>
        <time>2023-12-04T19:37:44.438Z</time>
      </trkpt>
      <trkpt lat="38.252487" lon="16.033429">
        <ele>1023.049282</ele>
        <time>2023-12-04T19:37:46.909Z</time>
      </trkpt>
      <trkpt lat="38.252215" lon="16.033407">
        <ele>1023.949068</ele>
        <time>2023-12-04T19:37:54.362Z</time>
      </trkpt>
      <trkpt lat="38.252029" lon="16.033352">
        <ele>1024.579464</ele>
        <time>2023-12-04T19:37:59.469Z</time>
      </trkpt>
      <trkpt lat="38.251841" lon="16.033226">
        <ele>1025.280839</ele>
        <time>2023-12-04T19:38:05.175Z</time>
      </trkpt>
      <trkpt lat="38.251004" lon="16.032300">
        <ele>1029.835606</ele>
        <time>2023-12-04T19:38:30.418Z</time>
      </trkpt>
      <trkpt lat="38.250611" lon="16.031722">
        <ele>1032.502714</ele>
        <time>2023-12-04T19:38:50.770Z</time>
      </trkpt>
      <trkpt lat="38.250243" lon="16.031046">
        <ele>1036.518785</ele>
        <time>2023-12-04T19:39:19.926Z</time>
      </trkpt>
      <trkpt lat="38.250179" lon="16.030758">
        <ele>1038.726653</ele>
        <time>2023-12-04T19:39:31.632Z</time>
      </trkpt>
      <trkpt lat="38.250414" lon="16.029921">
        <ele>1045.283556</ele>
        <time>2023-12-04T19:40:09.300Z</time>
      </trkpt>
      <trkpt lat="38.250445" lon="16.029671">
        <ele>1047.150539</ele>
        <time>2023-12-04T19:40:20.538Z</time>
      </trkpt>
      <trkpt lat="38.250360" lon="16.028914">
        <ele>1052.543926</ele>
        <time>2023-12-04T19:40:55.450Z</time>
      </trkpt>
      <trkpt lat="38.250365" lon="16.028414">
        <ele>1055.644842</ele>
        <time>2023-12-04T19:41:17.109Z</time>
      </trkpt>
      <trkpt lat="38.250079" lon="16.027929">
        <ele>1059.406026</ele>
        <time>2023-12-04T19:41:38.946Z</time>
      </trkpt>
      <trkpt lat="38.250490" lon="16.027499">
        <ele>1063.606502</ele>
        <time>2023-12-04T19:42:00.433Z</time>
      </trkpt>
      <trkpt lat="38.250927" lon="16.027096">
        <ele>1066.746423</ele>
        <time>2023-12-04T19:42:21.564Z</time>
      </trkpt>
      <trkpt lat="38.251081" lon="16.026972">
        <ele>1067.520442</ele>
        <time>2023-12-04T19:42:27.807Z</time>
      </trkpt>
      <trkpt lat="38.250838" lon="16.026674">
        <ele>1068.953593</ele>
        <time>2023-12-04T19:42:40.827Z</time>
      </trkpt>
      <trkpt lat="38.250531" lon="16.026213">
        <ele>1070.970034</ele>
        <time>2023-12-04T19:42:57.569Z</time>
      </trkpt>
      <trkpt lat="38.250352" lon="16.026009">
        <ele>1071.990512</ele>
        <time>2023-12-04T19:43:05.108Z</time>
      </trkpt>
      <trkpt lat="38.250230" lon="16.025951">
        <ele>1072.543719</ele>
        <time>2023-12-04T19:43:09.392Z</time>
      </trkpt>
      <trkpt lat="38.250124" lon="16.025951">
        <ele>1072.994015</ele>
        <time>2023-12-04T19:43:12.704Z</time>
      </trkpt>
      <trkpt lat="38.249821" lon="16.026027">
        <ele>1073.930372</ele>
        <time>2023-12-04T19:43:22.278Z</time>
      </trkpt>
      <trkpt lat="38.249707" lon="16.025992">
        <ele>1074.275650</ele>
        <time>2023-12-04T19:43:26.070Z</time>
      </trkpt>
      <trkpt lat="38.249565" lon="16.025852">
        <ele>1074.804424</ele>
        <time>2023-12-04T19:43:31.964Z</time>
      </trkpt>
      <trkpt lat="38.248924" lon="16.025088">
        <ele>1077.389557</ele>
        <time>2023-12-04T19:43:59.102Z</time>
      </trkpt>
      <trkpt lat="38.247624" lon="16.023462">
        <ele>1083.304386</ele>
        <time>2023-12-04T19:45:00.475Z</time>
      </trkpt>
      <trkpt lat="38.246466" lon="16.022074">
        <ele>1088.368208</ele>
        <time>2023-12-04T19:45:53.997Z</time>
      </trkpt>
      <trkpt lat="38.244662" lon="16.019790">
        <ele>1096.753792</ele>
        <time>2023-12-04T19:47:13.291Z</time>
      </trkpt>
      <trkpt lat="38.244401" lon="16.019405">
        <ele>1099.247451</ele>
        <time>2023-12-04T19:47:30.242Z</time>
      </trkpt>
      <trkpt lat="38.244282" lon="16.019084">
        <ele>1100.987867</ele>
        <time>2023-12-04T19:47:43.080Z</time>
      </trkpt>
      <trkpt lat="38.244108" lon="16.018717">
        <ele>1103.089762</ele>
        <time>2023-12-04T19:47:59.613Z</time>
      </trkpt>
      <trkpt lat="38.243861" lon="16.018338">
        <ele>1105.504508</ele>
        <time>2023-12-04T19:48:19.559Z</time>
      </trkpt>
      <trkpt lat="38.243431" lon="16.017866">
        <ele>1109.196343</ele>
        <time>2023-12-04T19:48:49.803Z</time>
      </trkpt>
      <trkpt lat="38.243211" lon="16.017732">
        <ele>1110.809758</ele>
        <time>2023-12-04T19:49:02.576Z</time>
      </trkpt>
      <trkpt lat="38.243032" lon="16.017813">
        <ele>1112.066532</ele>
        <time>2023-12-04T19:49:12.416Z</time>
      </trkpt>
      <trkpt lat="38.242707" lon="16.017819">
        <ele>1114.216859</ele>
        <time>2023-12-04T19:49:28.655Z</time>
      </trkpt>
      <trkpt lat="38.238637" lon="16.015418">
        <ele>1134.802524</ele>
        <time>2023-12-04T19:52:20.711Z</time>
      </trkpt>
      <trkpt lat="38.237850" lon="16.014928">
        <ele>1135.900970</ele>
        <time>2023-12-04T19:52:42.982Z</time>
      </trkpt>
      <trkpt lat="38.234506" lon="16.013422">
        <ele>1137.787999</ele>
        <time>2023-12-04T19:53:49.076Z</time>
      </trkpt>
      <trkpt lat="38.232202" lon="16.012343">
        <ele>1147.811629</ele>
        <time>2023-12-04T19:55:27.615Z</time>
      </trkpt>
      <trkpt lat="38.230416" lon="16.011471">
        <ele>1158.817687</ele>
        <time>2023-12-04T19:56:50.393Z</time>
      </trkpt>
      <trkpt lat="38.229283" lon="16.010970">
        <ele>1166.996933</ele>
        <time>2023-12-04T19:57:44.564Z</time>
      </trkpt>
      <trkpt lat="38.228681" lon="16.010725">
        <ele>1171.519173</ele>
        <time>2023-12-04T19:58:17.369Z</time>
      </trkpt>
      <trkpt lat="38.228297" lon="16.010501">
        <ele>1175.597984</ele>
        <time>2023-12-04T19:58:40.882Z</time>
      </trkpt>
      <trkpt lat="38.228052" lon="16.010213">
        <ele>1178.818188</ele>
        <time>2023-12-04T19:59:00.452Z</time>
      </trkpt>
      <trkpt lat="38.228007" lon="16.010123">
        <ele>1179.627450</ele>
        <time>2023-12-04T19:59:05.568Z</time>
      </trkpt>
      <trkpt lat="38.227040" lon="16.008272">
        <ele>1196.346177</ele>
        <time>2023-12-04T20:00:54.193Z</time>
      </trkpt>
      <trkpt lat="38.226892" lon="16.007924">
        <ele>1199.296197</ele>
        <time>2023-12-04T20:01:12.187Z</time>
      </trkpt>
      <trkpt lat="38.226654" lon="16.007060">
        <ele>1205.780182</ele>
        <time>2023-12-04T20:01:52.005Z</time>
      </trkpt>
      <trkpt lat="38.226157" lon="16.006042">
        <ele>1211.280445</ele>
        <time>2023-12-04T20:02:36.941Z</time>
      </trkpt>
      <trkpt lat="38.225963" lon="16.005736">
        <ele>1213.084939</ele>
        <time>2023-12-04T20:02:49.128Z</time>
      </trkpt>
      <trkpt lat="38.225815" lon="16.005571">
        <ele>1214.234198</ele>
        <time>2023-12-04T20:02:56.384Z</time>
      </trkpt>
      <trkpt lat="38.225496" lon="16.005324">
        <ele>1215.894018</ele>
        <time>2023-12-04T20:03:08.747Z</time>
      </trkpt>
      <trkpt lat="38.225274" lon="16.005089">
        <ele>1216.277852</ele>
        <time>2023-12-04T20:03:17.579Z</time>
      </trkpt>
      <trkpt lat="38.225191" lon="16.004924">
        <ele>1216.482468</ele>
        <time>2023-12-04T20:03:22.145Z</time>
      </trkpt>
      <trkpt lat="38.225062" lon="16.004530">
        <ele>1216.928247</ele>
        <time>2023-12-04T20:03:31.451Z</time>
      </trkpt>
      <trkpt lat="38.224951" lon="16.004359">
        <ele>1217.159907</ele>
        <time>2023-12-04T20:03:35.718Z</time>
      </trkpt>
      <trkpt lat="38.224609" lon="16.004082">
        <ele>1217.698787</ele>
        <time>2023-12-04T20:03:44.759Z</time>
      </trkpt>
      <trkpt lat="38.224197" lon="16.003877">
        <ele>1217.875375</ele>
        <time>2023-12-04T20:03:52.896Z</time>
      </trkpt>
      <trkpt lat="38.223846" lon="16.003577">
        <ele>1216.948570</ele>
        <time>2023-12-04T20:04:00.003Z</time>
      </trkpt>
      <trkpt lat="38.223657" lon="16.003276">
        <ele>1216.284970</ele>
        <time>2023-12-04T20:04:05.092Z</time>
      </trkpt>
      <trkpt lat="38.223578" lon="16.003065">
        <ele>1215.882437</ele>
        <time>2023-12-04T20:04:08.202Z</time>
      </trkpt>
      <trkpt lat="38.223435" lon="16.002553">
        <ele>1214.946624</ele>
        <time>2023-12-04T20:04:14.836Z</time>
      </trkpt>
      <trkpt lat="38.223352" lon="16.002142">
        <ele>1214.215803</ele>
        <time>2023-12-04T20:04:19.454Z</time>
      </trkpt>
      <trkpt lat="38.223324" lon="16.002047">
        <ele>1213.817254</ele>
        <time>2023-12-04T20:04:20.561Z</time>
      </trkpt>
      <trkpt lat="38.222820" lon="16.001341">
        <ele>1209.682576</ele>
        <time>2023-12-04T20:04:30.371Z</time>
      </trkpt>
      <trkpt lat="38.222635" lon="16.000917">
        <ele>1207.580415</ele>
        <time>2023-12-04T20:04:35.389Z</time>
      </trkpt>
      <trkpt lat="38.222575" lon="16.000635">
        <ele>1206.314104</ele>
        <time>2023-12-04T20:04:38.414Z</time>
      </trkpt>
      <trkpt lat="38.222450" lon="16.000335">
        <ele>1204.842242</ele>
        <time>2023-12-04T20:04:42.007Z</time>
      </trkpt>
      <trkpt lat="38.222372" lon="16.000223">
        <ele>1204.221292</ele>
        <time>2023-12-04T20:04:43.593Z</time>
      </trkpt>
      <trkpt lat="38.222076" lon="16.000076">
        <ele>1203.146752</ele>
        <time>2023-12-04T20:04:47.808Z</time>
      </trkpt>
      <trkpt lat="38.221780" lon="15.999870">
        <ele>1202.005849</ele>
        <time>2023-12-04T20:04:52.182Z</time>
      </trkpt>
      <trkpt lat="38.221734" lon="15.999788">
        <ele>1201.738141</ele>
        <time>2023-12-04T20:04:53.237Z</time>
      </trkpt>
      <trkpt lat="38.221725" lon="15.999646">
        <ele>1201.359634</ele>
        <time>2023-12-04T20:04:54.723Z</time>
      </trkpt>
      <trkpt lat="38.221808" lon="15.999364">
        <ele>1200.559530</ele>
        <time>2023-12-04T20:04:57.952Z</time>
      </trkpt>
      <trkpt lat="38.221785" lon="15.999205">
        <ele>1200.129980</ele>
        <time>2023-12-04T20:04:59.825Z</time>
      </trkpt>
      <trkpt lat="38.221646" lon="15.998717">
        <ele>1198.750819</ele>
        <time>2023-12-04T20:05:06.803Z</time>
      </trkpt>
      <trkpt lat="38.221618" lon="15.998470">
        <ele>1198.279455</ele>
        <time>2023-12-04T20:05:11.666Z</time>
      </trkpt>
      <trkpt lat="38.221623" lon="15.998375">
        <ele>1198.538789</ele>
        <time>2023-12-04T20:05:13.759Z</time>
      </trkpt>
      <trkpt lat="38.221651" lon="15.998317">
        <ele>1198.724207</ele>
        <time>2023-12-04T20:05:15.132Z</time>
      </trkpt>
      <trkpt lat="38.221775" lon="15.998170">
        <ele>1199.311682</ele>
        <time>2023-12-04T20:05:19.708Z</time>
      </trkpt>
      <trkpt lat="38.221877" lon="15.997987">
        <ele>1199.922826</ele>
        <time>2023-12-04T20:05:25.419Z</time>
      </trkpt>
      <trkpt lat="38.221896" lon="15.997799">
        <ele>1200.439104</ele>
        <time>2023-12-04T20:05:29.856Z</time>
      </trkpt>
      <trkpt lat="38.221845" lon="15.997693">
        <ele>1200.777658</ele>
        <time>2023-12-04T20:05:33.408Z</time>
      </trkpt>
      <trkpt lat="38.221757" lon="15.997593">
        <ele>1201.186642</ele>
        <time>2023-12-04T20:05:37.283Z</time>
      </trkpt>
      <trkpt lat="38.221600" lon="15.997505">
        <ele>1201.781391</ele>
        <time>2023-12-04T20:05:42.967Z</time>
      </trkpt>
      <trkpt lat="38.221164" lon="15.997388">
        <ele>1203.326212</ele>
        <time>2023-12-04T20:06:00.440Z</time>
      </trkpt>
      <trkpt lat="38.220164" lon="15.997157">
        <ele>1207.709400</ele>
        <time>2023-12-04T20:06:45.330Z</time>
      </trkpt>
      <trkpt lat="38.220073" lon="15.997109">
        <ele>1208.171640</ele>
        <time>2023-12-04T20:06:49.733Z</time>
      </trkpt>
      <trkpt lat="38.219885" lon="15.996911">
        <ele>1209.316690</ele>
        <time>2023-12-04T20:07:00.125Z</time>
      </trkpt>
      <trkpt lat="38.219816" lon="15.996806">
        <ele>1209.821356</ele>
        <time>2023-12-04T20:07:04.538Z</time>
      </trkpt>
      <trkpt lat="38.219475" lon="15.996489">
        <ele>1211.802866</ele>
        <time>2023-12-04T20:07:20.198Z</time>
      </trkpt>
      <trkpt lat="38.218880" lon="15.996087">
        <ele>1212.645293</ele>
        <time>2023-12-04T20:07:39.536Z</time>
      </trkpt>
      <trkpt lat="38.218658" lon="15.995990">
        <ele>1212.533736</ele>
        <time>2023-12-04T20:07:44.436Z</time>
      </trkpt>
      <trkpt lat="38.218286" lon="15.995734">
        <ele>1212.332741</ele>
        <time>2023-12-04T20:07:51.881Z</time>
      </trkpt>
      <trkpt lat="38.218202" lon="15.995559">
        <ele>1212.256163</ele>
        <time>2023-12-04T20:07:54.439Z</time>
      </trkpt>
      <trkpt lat="38.218008" lon="15.994798">
        <ele>1211.727798</ele>
        <time>2023-12-04T20:08:03.903Z</time>
      </trkpt>
      <trkpt lat="38.217976" lon="15.994451">
        <ele>1210.949709</ele>
        <time>2023-12-04T20:08:07.910Z</time>
      </trkpt>
      <trkpt lat="38.217995" lon="15.994217">
        <ele>1210.425806</ele>
        <time>2023-12-04T20:08:10.536Z</time>
      </trkpt>
      <trkpt lat="38.218082" lon="15.993791">
        <ele>1209.445559</ele>
        <time>2023-12-04T20:08:15.472Z</time>
      </trkpt>
      <trkpt lat="38.218174" lon="15.993585">
        <ele>1208.917849</ele>
        <time>2023-12-04T20:08:18.158Z</time>
      </trkpt>
      <trkpt lat="38.218455" lon="15.993236">
        <ele>1207.804951</ele>
        <time>2023-12-04T20:08:23.964Z</time>
      </trkpt>
      <trkpt lat="38.218617" lon="15.992981">
        <ele>1207.074628</ele>
        <time>2023-12-04T20:08:27.937Z</time>
      </trkpt>
      <trkpt lat="38.218718" lon="15.992702">
        <ele>1206.764277</ele>
        <time>2023-12-04T20:08:31.817Z</time>
      </trkpt>
      <trkpt lat="38.218812" lon="15.992304">
        <ele>1206.510834</ele>
        <time>2023-12-04T20:08:37.425Z</time>
      </trkpt>
      <trkpt lat="38.218803" lon="15.992145">
        <ele>1206.413619</ele>
        <time>2023-12-04T20:08:39.670Z</time>
      </trkpt>
      <trkpt lat="38.218688" lon="15.992010">
        <ele>1206.292187</ele>
        <time>2023-12-04T20:08:42.563Z</time>
      </trkpt>
      <trkpt lat="38.218105" lon="15.991661">
        <ele>1205.792105</ele>
        <time>2023-12-04T20:08:54.893Z</time>
      </trkpt>
      <trkpt lat="38.218052" lon="15.991578">
        <ele>1205.726879</ele>
        <time>2023-12-04T20:08:56.491Z</time>
      </trkpt>
      <trkpt lat="38.217886" lon="15.991162">
        <ele>1205.663895</ele>
        <time>2023-12-04T20:09:03.472Z</time>
      </trkpt>
      <trkpt lat="38.217795" lon="15.991031">
        <ele>1205.911146</ele>
        <time>2023-12-04T20:09:06.077Z</time>
      </trkpt>
      <trkpt lat="38.217686" lon="15.990967">
        <ele>1206.127183</ele>
        <time>2023-12-04T20:09:08.433Z</time>
      </trkpt>
      <trkpt lat="38.217334" lon="15.990867">
        <ele>1206.776276</ele>
        <time>2023-12-04T20:09:15.899Z</time>
      </trkpt>
      <trkpt lat="38.217239" lon="15.990794">
        <ele>1206.975993</ele>
        <time>2023-12-04T20:09:18.393Z</time>
      </trkpt>
      <trkpt lat="38.217185" lon="15.990709">
        <ele>1207.130559</ele>
        <time>2023-12-04T20:09:20.468Z</time>
      </trkpt>
      <trkpt lat="38.217135" lon="15.990580">
        <ele>1207.333954</ele>
        <time>2023-12-04T20:09:23.446Z</time>
      </trkpt>
      <trkpt lat="38.217154" lon="15.990445">
        <ele>1207.527882</ele>
        <time>2023-12-04T20:09:26.369Z</time>
      </trkpt>
      <trkpt lat="38.217403" lon="15.990041">
        <ele>1208.253935</ele>
        <time>2023-12-04T20:09:38.755Z</time>
      </trkpt>
      <trkpt lat="38.217440" lon="15.989939">
        <ele>1208.412792</ele>
        <time>2023-12-04T20:09:41.831Z</time>
      </trkpt>
      <trkpt lat="38.217453" lon="15.989803">
        <ele>1208.606513</ele>
        <time>2023-12-04T20:09:45.755Z</time>
      </trkpt>
      <trkpt lat="38.217396" lon="15.989652">
        <ele>1209.217645</ele>
        <time>2023-12-04T20:09:50.802Z</time>
      </trkpt>
      <trkpt lat="38.217356" lon="15.989609">
        <ele>1209.674619</ele>
        <time>2023-12-04T20:09:52.846Z</time>
      </trkpt>
      <trkpt lat="38.217286" lon="15.989589">
        <ele>1210.300776</ele>
        <time>2023-12-04T20:09:55.807Z</time>
      </trkpt>
      <trkpt lat="38.217213" lon="15.989611">
        <ele>1210.955530</ele>
        <time>2023-12-04T20:09:58.967Z</time>
      </trkpt>
      <trkpt lat="38.216686" lon="15.989933">
        <ele>1216.057671</ele>
        <time>2023-12-04T20:10:28.074Z</time>
      </trkpt>
      <trkpt lat="38.216460" lon="15.989850">
        <ele>1218.110650</ele>
        <time>2023-12-04T20:10:41.997Z</time>
      </trkpt>
      <trkpt lat="38.216218" lon="15.989585">
        <ele>1220.896936</ele>
        <time>2023-12-04T20:11:02.695Z</time>
      </trkpt>
      <trkpt lat="38.215931" lon="15.989398">
        <ele>1223.710996</ele>
        <time>2023-12-04T20:11:25.238Z</time>
      </trkpt>
      <trkpt lat="38.215336" lon="15.989062">
        <ele>1229.156965</ele>
        <time>2023-12-04T20:12:09.545Z</time>
      </trkpt>
      <trkpt lat="38.214726" lon="15.988756">
        <ele>1234.607403</ele>
        <time>2023-12-04T20:12:46.716Z</time>
      </trkpt>
      <trkpt lat="38.214504" lon="15.988615">
        <ele>1236.669861</ele>
        <time>2023-12-04T20:12:58.122Z</time>
      </trkpt>
      <trkpt lat="38.214368" lon="15.988440">
        <ele>1238.277510</ele>
        <time>2023-12-04T20:13:05.947Z</time>
      </trkpt>
      <trkpt lat="38.214319" lon="15.988306">
        <ele>1239.242857</ele>
        <time>2023-12-04T20:13:10.238Z</time>
      </trkpt>
      <trkpt lat="38.214285" lon="15.988177">
        <ele>1239.381517</ele>
        <time>2023-12-04T20:13:13.975Z</time>
      </trkpt>
      <trkpt lat="38.214239" lon="15.987697">
        <ele>1239.318099</ele>
        <time>2023-12-04T20:13:23.910Z</time>
      </trkpt>
      <trkpt lat="38.214180" lon="15.987354">
        <ele>1239.272050</ele>
        <time>2023-12-04T20:13:28.876Z</time>
      </trkpt>
      <trkpt lat="38.213903" lon="15.986179">
        <ele>1239.111162</ele>
        <time>2023-12-04T20:13:44.606Z</time>
      </trkpt>
      <trkpt lat="38.213829" lon="15.985997">
        <ele>1238.889766</ele>
        <time>2023-12-04T20:13:47.191Z</time>
      </trkpt>
      <trkpt lat="38.213732" lon="15.985838">
        <ele>1238.426928</ele>
        <time>2023-12-04T20:13:49.554Z</time>
      </trkpt>
      <trkpt lat="38.213612" lon="15.985789">
        <ele>1238.058140</ele>
        <time>2023-12-04T20:13:51.468Z</time>
      </trkpt>
      <trkpt lat="38.212721" lon="15.985876">
        <ele>1235.443131</ele>
        <time>2023-12-04T20:14:04.361Z</time>
      </trkpt>
      <trkpt lat="38.212586" lon="15.985864">
        <ele>1235.047116</ele>
        <time>2023-12-04T20:14:06.271Z</time>
      </trkpt>
      <trkpt lat="38.212507" lon="15.985822">
        <ele>1234.796578</ele>
        <time>2023-12-04T20:14:07.495Z</time>
      </trkpt>
      <trkpt lat="38.212426" lon="15.985715">
        <ele>1234.454949</ele>
        <time>2023-12-04T20:14:09.201Z</time>
      </trkpt>
      <trkpt lat="38.212384" lon="15.985596">
        <ele>1234.154999</ele>
        <time>2023-12-04T20:14:10.663Z</time>
      </trkpt>
      <trkpt lat="38.212363" lon="15.985325">
        <ele>1233.417268</ele>
        <time>2023-12-04T20:14:14.049Z</time>
      </trkpt>
      <trkpt lat="38.212405" lon="15.985235">
        <ele>1233.088164</ele>
        <time>2023-12-04T20:14:15.386Z</time>
      </trkpt>
      <trkpt lat="38.212577" lon="15.985061">
        <ele>1232.208995</ele>
        <time>2023-12-04T20:14:18.757Z</time>
      </trkpt>
      <trkpt lat="38.212902" lon="15.984531">
        <ele>1230.095291</ele>
        <time>2023-12-04T20:14:26.503Z</time>
      </trkpt>
      <trkpt lat="38.212931" lon="15.984407">
        <ele>1229.688537</ele>
        <time>2023-12-04T20:14:27.912Z</time>
      </trkpt>
      <trkpt lat="38.212958" lon="15.984080">
        <ele>1228.654801</ele>
        <time>2023-12-04T20:14:31.420Z</time>
      </trkpt>
      <trkpt lat="38.213040" lon="15.983648">
        <ele>1227.257540</ele>
        <time>2023-12-04T20:14:36.048Z</time>
      </trkpt>
      <trkpt lat="38.213036" lon="15.983560">
        <ele>1226.980409</ele>
        <time>2023-12-04T20:14:36.962Z</time>
      </trkpt>
      <trkpt lat="38.212956" lon="15.983384">
        <ele>1226.484730</ele>
        <time>2023-12-04T20:14:39.043Z</time>
      </trkpt>
      <trkpt lat="38.212785" lon="15.983114">
        <ele>1225.926107</ele>
        <time>2023-12-04T20:14:42.589Z</time>
      </trkpt>
      <trkpt lat="38.212528" lon="15.982626">
        <ele>1224.979780</ele>
        <time>2023-12-04T20:14:49.072Z</time>
      </trkpt>
      <trkpt lat="38.212498" lon="15.982437">
        <ele>1224.669182</ele>
        <time>2023-12-04T20:14:51.553Z</time>
      </trkpt>
      <trkpt lat="38.212511" lon="15.982270">
        <ele>1224.398856</ele>
        <time>2023-12-04T20:14:53.786Z</time>
      </trkpt>
      <trkpt lat="38.212583" lon="15.982130">
        <ele>1224.129326</ele>
        <time>2023-12-04T20:14:56.166Z</time>
      </trkpt>
      <trkpt lat="38.212654" lon="15.982061">
        <ele>1223.946183</ele>
        <time>2023-12-04T20:14:58.212Z</time>
      </trkpt>
      <trkpt lat="38.213039" lon="15.981966">
        <ele>1223.142185</ele>
        <time>2023-12-04T20:15:07.320Z</time>
      </trkpt>
      <trkpt lat="38.213103" lon="15.981881">
        <ele>1222.952547</ele>
        <time>2023-12-04T20:15:09.618Z</time>
      </trkpt>
      <trkpt lat="38.213099" lon="15.981706">
        <ele>1223.482682</ele>
        <time>2023-12-04T20:15:13.343Z</time>
      </trkpt>
      <trkpt lat="38.213010" lon="15.981443">
        <ele>1224.370921</ele>
        <time>2023-12-04T20:15:19.929Z</time>
      </trkpt>
      <trkpt lat="38.212823" lon="15.980959">
        <ele>1226.043923</ele>
        <time>2023-12-04T20:15:33.899Z</time>
      </trkpt>
      <trkpt lat="38.212734" lon="15.980569">
        <ele>1227.303649</ele>
        <time>2023-12-04T20:15:46.177Z</time>
      </trkpt>
      <trkpt lat="38.212675" lon="15.980096">
        <ele>1228.789216</ele>
        <time>2023-12-04T20:16:02.496Z</time>
      </trkpt>
      <trkpt lat="38.212584" lon="15.979926">
        <ele>1229.427284</ele>
        <time>2023-12-04T20:16:10.085Z</time>
      </trkpt>
      <trkpt lat="38.211724" lon="15.979336">
        <ele>1234.181903</ele>
        <time>2023-12-04T20:16:50.611Z</time>
      </trkpt>
      <trkpt lat="38.211380" lon="15.978716">
        <ele>1237.189463</ele>
        <time>2023-12-04T20:17:12.498Z</time>
      </trkpt>
      <trkpt lat="38.211103" lon="15.977834">
        <ele>1240.815332</ele>
        <time>2023-12-04T20:17:43.675Z</time>
      </trkpt>
      <trkpt lat="38.211003" lon="15.977603">
        <ele>1241.781792</ele>
        <time>2023-12-04T20:17:52.333Z</time>
      </trkpt>
      <trkpt lat="38.210855" lon="15.977421">
        <ele>1242.741590</ele>
        <time>2023-12-04T20:18:00.518Z</time>
      </trkpt>
      <trkpt lat="38.210711" lon="15.977305">
        <ele>1243.536387</ele>
        <time>2023-12-04T20:18:06.999Z</time>
      </trkpt>
      <trkpt lat="38.210487" lon="15.977202">
        <ele>1244.647151</ele>
        <time>2023-12-04T20:18:15.886Z</time>
      </trkpt>
      <trkpt lat="38.210272" lon="15.977044">
        <ele>1245.805007</ele>
        <time>2023-12-04T20:18:24.900Z</time>
      </trkpt>
      <trkpt lat="38.210038" lon="15.976801">
        <ele>1247.213514</ele>
        <time>2023-12-04T20:18:35.915Z</time>
      </trkpt>
      <trkpt lat="38.209909" lon="15.976618">
        <ele>1247.877693</ele>
        <time>2023-12-04T20:18:43.221Z</time>
      </trkpt>
      <trkpt lat="38.209880" lon="15.976345">
        <ele>1248.493110</ele>
        <time>2023-12-04T20:18:51.895Z</time>
      </trkpt>
      <trkpt lat="38.209914" lon="15.976175">
        <ele>1248.884991</ele>
        <time>2023-12-04T20:18:57.156Z</time>
      </trkpt>
      <trkpt lat="38.209977" lon="15.975989">
        <ele>1249.337467</ele>
        <time>2023-12-04T20:19:03.330Z</time>
      </trkpt>
      <trkpt lat="38.210119" lon="15.975707">
        <ele>1250.085701</ele>
        <time>2023-12-04T20:19:12.857Z</time>
      </trkpt>
      <trkpt lat="38.210281" lon="15.975467">
        <ele>1250.792515</ele>
        <time>2023-12-04T20:19:20.948Z</time>
      </trkpt>
      <trkpt lat="38.210341" lon="15.975317">
        <ele>1251.168527</ele>
        <time>2023-12-04T20:19:24.722Z</time>
      </trkpt>
      <trkpt lat="38.210320" lon="15.975179">
        <ele>1251.482539</ele>
        <time>2023-12-04T20:19:27.618Z</time>
      </trkpt>
      <trkpt lat="38.210262" lon="15.975065">
        <ele>1251.785933</ele>
        <time>2023-12-04T20:19:30.071Z</time>
      </trkpt>
      <trkpt lat="38.209824" lon="15.974503">
        <ele>1252.884138</ele>
        <time>2023-12-04T20:19:42.788Z</time>
      </trkpt>
      <trkpt lat="38.209787" lon="15.974265">
        <ele>1253.036669</ele>
        <time>2023-12-04T20:19:46.862Z</time>
      </trkpt>
      <trkpt lat="38.209761" lon="15.973816">
        <ele>1253.319720</ele>
        <time>2023-12-04T20:19:55.325Z</time>
      </trkpt>
      <trkpt lat="38.209658" lon="15.973686">
        <ele>1253.435788</ele>
        <time>2023-12-04T20:19:58.912Z</time>
      </trkpt>
      <trkpt lat="38.209578" lon="15.973524">
        <ele>1253.556082</ele>
        <time>2023-12-04T20:20:02.940Z</time>
      </trkpt>
      <trkpt lat="38.209574" lon="15.973351">
        <ele>1253.664894</ele>
        <time>2023-12-04T20:20:06.588Z</time>
      </trkpt>
      <trkpt lat="38.209838" lon="15.972836">
        <ele>1254.051486</ele>
        <time>2023-12-04T20:20:18.641Z</time>
      </trkpt>
      <trkpt lat="38.209872" lon="15.972725">
        <ele>1254.017844</ele>
        <time>2023-12-04T20:20:20.831Z</time>
      </trkpt>
      <trkpt lat="38.209877" lon="15.972551">
        <ele>1253.946066</ele>
        <time>2023-12-04T20:20:23.652Z</time>
      </trkpt>
      <trkpt lat="38.209846" lon="15.972418">
        <ele>1253.888877</ele>
        <time>2023-12-04T20:20:25.718Z</time>
      </trkpt>
      <trkpt lat="38.209781" lon="15.972290">
        <ele>1253.826050</ele>
        <time>2023-12-04T20:20:27.988Z</time>
      </trkpt>
      <trkpt lat="38.209117" lon="15.971255">
        <ele>1253.275228</ele>
        <time>2023-12-04T20:20:46.579Z</time>
      </trkpt>
      <trkpt lat="38.209064" lon="15.971100">
        <ele>1253.205542</ele>
        <time>2023-12-04T20:20:49.021Z</time>
      </trkpt>
      <trkpt lat="38.209046" lon="15.970800">
        <ele>1252.878283</ele>
        <time>2023-12-04T20:20:53.468Z</time>
      </trkpt>
      <trkpt lat="38.209106" lon="15.970496">
        <ele>1252.012941</ele>
        <time>2023-12-04T20:20:57.735Z</time>
      </trkpt>
      <trkpt lat="38.209140" lon="15.969827">
        <ele>1250.162133</ele>
        <time>2023-12-04T20:21:05.558Z</time>
      </trkpt>
      <trkpt lat="38.208911" lon="15.969201">
        <ele>1248.255782</ele>
        <time>2023-12-04T20:21:12.808Z</time>
      </trkpt>
      <trkpt lat="38.208767" lon="15.968915">
        <ele>1247.318010</ele>
        <time>2023-12-04T20:21:16.308Z</time>
      </trkpt>
      <trkpt lat="38.208409" lon="15.968569">
        <ele>1246.730140</ele>
        <time>2023-12-04T20:21:22.469Z</time>
      </trkpt>
      <trkpt lat="38.208051" lon="15.968326">
        <ele>1246.639265</ele>
        <time>2023-12-04T20:21:28.797Z</time>
      </trkpt>
      <trkpt lat="38.207807" lon="15.968253">
        <ele>1246.583125</ele>
        <time>2023-12-04T20:21:33.807Z</time>
      </trkpt>
      <trkpt lat="38.207554" lon="15.968338">
        <ele>1246.524517</ele>
        <time>2023-12-04T20:21:40.313Z</time>
      </trkpt>
      <trkpt lat="38.207425" lon="15.968551">
        <ele>1246.477188</ele>
        <time>2023-12-04T20:21:46.333Z</time>
      </trkpt>
      <trkpt lat="38.207310" lon="15.968885">
        <ele>1246.413009</ele>
        <time>2023-12-04T20:21:55.752Z</time>
      </trkpt>
      <trkpt lat="38.206985" lon="15.969232">
        <ele>1247.985963</ele>
        <time>2023-12-04T20:22:10.995Z</time>
      </trkpt>
      <trkpt lat="38.206632" lon="15.969560">
        <ele>1250.013972</ele>
        <time>2023-12-04T20:22:28.540Z</time>
      </trkpt>
      <trkpt lat="38.206278" lon="15.969834">
        <ele>1251.936450</ele>
        <time>2023-12-04T20:22:45.248Z</time>
      </trkpt>
      <trkpt lat="38.206106" lon="15.969755">
        <ele>1252.784904</ele>
        <time>2023-12-04T20:22:52.566Z</time>
      </trkpt>
      <trkpt lat="38.206039" lon="15.969615">
        <ele>1253.382561</ele>
        <time>2023-12-04T20:22:58.332Z</time>
      </trkpt>
      <trkpt lat="38.206235" lon="15.968903">
        <ele>1254.811657</ele>
        <time>2023-12-04T20:23:23.161Z</time>
      </trkpt>
      <trkpt lat="38.206240" lon="15.968703">
        <ele>1254.848999</ele>
        <time>2023-12-04T20:23:29.432Z</time>
      </trkpt>
      <trkpt lat="38.206207" lon="15.968417">
        <ele>1254.902944</ele>
        <time>2023-12-04T20:23:36.871Z</time>
      </trkpt>
      <trkpt lat="38.206111" lon="15.968101">
        <ele>1254.966168</ele>
        <time>2023-12-04T20:23:42.928Z</time>
      </trkpt>
      <trkpt lat="38.206030" lon="15.967949">
        <ele>1255.000441</ele>
        <time>2023-12-04T20:23:45.456Z</time>
      </trkpt>
      <trkpt lat="38.205915" lon="15.967858">
        <ele>1255.032601</ele>
        <time>2023-12-04T20:23:47.549Z</time>
      </trkpt>
      <trkpt lat="38.205772" lon="15.967864">
        <ele>1255.066580</ele>
        <time>2023-12-04T20:23:49.738Z</time>
      </trkpt>
      <trkpt lat="38.205590" lon="15.967961">
        <ele>1255.113440</ele>
        <time>2023-12-04T20:23:52.456Z</time>
      </trkpt>
      <trkpt lat="38.205452" lon="15.967985">
        <ele>1255.146518</ele>
        <time>2023-12-04T20:23:54.388Z</time>
      </trkpt>
      <trkpt lat="38.205351" lon="15.967949">
        <ele>1255.072023</ele>
        <time>2023-12-04T20:23:55.797Z</time>
      </trkpt>
      <trkpt lat="38.205280" lon="15.967833">
        <ele>1254.401067</ele>
        <time>2023-12-04T20:23:57.356Z</time>
      </trkpt>
      <trkpt lat="38.205318" lon="15.967621">
        <ele>1253.408822</ele>
        <time>2023-12-04T20:23:59.677Z</time>
      </trkpt>
      <trkpt lat="38.205743" lon="15.966836">
        <ele>1249.058833</ele>
        <time>2023-12-04T20:24:09.587Z</time>
      </trkpt>
      <trkpt lat="38.205934" lon="15.966800">
        <ele>1247.937585</ele>
        <time>2023-12-04T20:24:12.089Z</time>
      </trkpt>
      <trkpt lat="38.206063" lon="15.966715">
        <ele>1247.094016</ele>
        <time>2023-12-04T20:24:13.944Z</time>
      </trkpt>
      <trkpt lat="38.206641" lon="15.966101">
        <ele>1243.738665</ele>
        <time>2023-12-04T20:24:23.568Z</time>
      </trkpt>
      <trkpt lat="38.206813" lon="15.965827">
        <ele>1242.951643</ele>
        <time>2023-12-04T20:24:27.385Z</time>
      </trkpt>
      <trkpt lat="38.206837" lon="15.965645">
        <ele>1242.537494</ele>
        <time>2023-12-04T20:24:29.545Z</time>
      </trkpt>
      <trkpt lat="38.206713" lon="15.965329">
        <ele>1241.744832</ele>
        <time>2023-12-04T20:24:34.033Z</time>
      </trkpt>
      <trkpt lat="38.206713" lon="15.964800">
        <ele>1240.557670</ele>
        <time>2023-12-04T20:24:42.903Z</time>
      </trkpt>
      <trkpt lat="38.206665" lon="15.964678">
        <ele>1240.251480</ele>
        <time>2023-12-04T20:24:45.155Z</time>
      </trkpt>
      <trkpt lat="38.206555" lon="15.964556">
        <ele>1239.834763</ele>
        <time>2023-12-04T20:24:47.837Z</time>
      </trkpt>
      <trkpt lat="38.206269" lon="15.964696">
        <ele>1238.540873</ele>
        <time>2023-12-04T20:24:53.326Z</time>
      </trkpt>
      <trkpt lat="38.206121" lon="15.964696">
        <ele>1237.835556</ele>
        <time>2023-12-04T20:24:55.744Z</time>
      </trkpt>
      <trkpt lat="38.206073" lon="15.964654">
        <ele>1237.557950</ele>
        <time>2023-12-04T20:24:56.619Z</time>
      </trkpt>
      <trkpt lat="38.206054" lon="15.964508">
        <ele>1237.003761</ele>
        <time>2023-12-04T20:24:58.296Z</time>
      </trkpt>
      <trkpt lat="38.206073" lon="15.964271">
        <ele>1236.111634</ele>
        <time>2023-12-04T20:25:01.021Z</time>
      </trkpt>
      <trkpt lat="38.206192" lon="15.963778">
        <ele>1234.180305</ele>
        <time>2023-12-04T20:25:06.471Z</time>
      </trkpt>
      <trkpt lat="38.206326" lon="15.963535">
        <ele>1233.068602</ele>
        <time>2023-12-04T20:25:09.445Z</time>
      </trkpt>
      <trkpt lat="38.206484" lon="15.963420">
        <ele>1232.201175</ele>
        <time>2023-12-04T20:25:11.738Z</time>
      </trkpt>
      <trkpt lat="38.206866" lon="15.963365">
        <ele>1230.158415</ele>
        <time>2023-12-04T20:25:16.561Z</time>
      </trkpt>
      <trkpt lat="38.207812" lon="15.963079">
        <ele>1224.011313</ele>
        <time>2023-12-04T20:25:28.679Z</time>
      </trkpt>
      <trkpt lat="38.208782" lon="15.962745">
        <ele>1220.281838</ele>
        <time>2023-12-04T20:25:42.917Z</time>
      </trkpt>
      <trkpt lat="38.208973" lon="15.962617">
        <ele>1220.721111</ele>
        <time>2023-12-04T20:25:47.235Z</time>
      </trkpt>
      <trkpt lat="38.209030" lon="15.962447">
        <ele>1221.016653</ele>
        <time>2023-12-04T20:25:50.683Z</time>
      </trkpt>
      <trkpt lat="38.208963" lon="15.962350">
        <ele>1221.223162</ele>
        <time>2023-12-04T20:25:53.331Z</time>
      </trkpt>
      <trkpt lat="38.208863" lon="15.962313">
        <ele>1221.435084</ele>
        <time>2023-12-04T20:25:56.528Z</time>
      </trkpt>
      <trkpt lat="38.208748" lon="15.962313">
        <ele>1221.669105</ele>
        <time>2023-12-04T20:26:00.292Z</time>
      </trkpt>
      <trkpt lat="38.208514" lon="15.962404">
        <ele>1222.167022</ele>
        <time>2023-12-04T20:26:08.718Z</time>
      </trkpt>
      <trkpt lat="38.208127" lon="15.962489">
        <ele>1222.966195</ele>
        <time>2023-12-04T20:26:24.226Z</time>
      </trkpt>
      <trkpt lat="38.207955" lon="15.962556">
        <ele>1223.441844</ele>
        <time>2023-12-04T20:26:32.313Z</time>
      </trkpt>
      <trkpt lat="38.207826" lon="15.962489">
        <ele>1224.795616</ele>
        <time>2023-12-04T20:26:38.889Z</time>
      </trkpt>
      <trkpt lat="38.207745" lon="15.962337">
        <ele>1226.197813</ele>
        <time>2023-12-04T20:26:46.243Z</time>
      </trkpt>
      <trkpt lat="38.207721" lon="15.962131">
        <ele>1227.787785</ele>
        <time>2023-12-04T20:26:54.935Z</time>
      </trkpt>
      <trkpt lat="38.207922" lon="15.961809">
        <ele>1230.927525</ele>
        <time>2023-12-04T20:27:13.636Z</time>
      </trkpt>
      <trkpt lat="38.208012" lon="15.961602">
        <ele>1232.733733</ele>
        <time>2023-12-04T20:27:25.275Z</time>
      </trkpt>
      <trkpt lat="38.208017" lon="15.961401">
        <ele>1234.269100</ele>
        <time>2023-12-04T20:27:35.448Z</time>
      </trkpt>
      <trkpt lat="38.207993" lon="15.961182">
        <ele>1235.957308</ele>
        <time>2023-12-04T20:27:46.930Z</time>
      </trkpt>
      <trkpt lat="38.207864" lon="15.960817">
        <ele>1239.012924</ele>
        <time>2023-12-04T20:28:08.413Z</time>
      </trkpt>
      <trkpt lat="38.207702" lon="15.960562">
        <ele>1241.474976</ele>
        <time>2023-12-04T20:28:26.141Z</time>
      </trkpt>
      <trkpt lat="38.207592" lon="15.960459">
        <ele>1242.727118</ele>
        <time>2023-12-04T20:28:35.658Z</time>
      </trkpt>
      <trkpt lat="38.207162" lon="15.960185">
        <ele>1247.136268</ele>
        <time>2023-12-04T20:29:07.386Z</time>
      </trkpt>
      <trkpt lat="38.206598" lon="15.959875">
        <ele>1252.769130</ele>
        <time>2023-12-04T20:29:43.917Z</time>
      </trkpt>
      <trkpt lat="38.206517" lon="15.959681">
        <ele>1254.351891</ele>
        <time>2023-12-04T20:29:52.722Z</time>
      </trkpt>
      <trkpt lat="38.206508" lon="15.959468">
        <ele>1255.888701</ele>
        <time>2023-12-04T20:30:00.894Z</time>
      </trkpt>
      <trkpt lat="38.206550" lon="15.959024">
        <ele>1257.042567</ele>
        <time>2023-12-04T20:30:15.018Z</time>
      </trkpt>
      <trkpt lat="38.206431" lon="15.958811">
        <ele>1256.809103</ele>
        <time>2023-12-04T20:30:21.251Z</time>
      </trkpt>
      <trkpt lat="38.206316" lon="15.958665">
        <ele>1256.624436</ele>
        <time>2023-12-04T20:30:25.386Z</time>
      </trkpt>
      <trkpt lat="38.206192" lon="15.958562">
        <ele>1256.456098</ele>
        <time>2023-12-04T20:30:28.169Z</time>
      </trkpt>
      <trkpt lat="38.206006" lon="15.958501">
        <ele>1256.237740</ele>
        <time>2023-12-04T20:30:31.399Z</time>
      </trkpt>
      <trkpt lat="38.205734" lon="15.958489">
        <ele>1255.928336</ele>
        <time>2023-12-04T20:30:35.354Z</time>
      </trkpt>
      <trkpt lat="38.205566" lon="15.958380">
        <ele>1255.713960</ele>
        <time>2023-12-04T20:30:37.927Z</time>
      </trkpt>
      <trkpt lat="38.205519" lon="15.958222">
        <ele>1255.563041</ele>
        <time>2023-12-04T20:30:39.699Z</time>
      </trkpt>
      <trkpt lat="38.205557" lon="15.957905">
        <ele>1255.276583</ele>
        <time>2023-12-04T20:30:43.002Z</time>
      </trkpt>
      <trkpt lat="38.205791" lon="15.957741">
        <ele>1254.267221</ele>
        <time>2023-12-04T20:30:46.475Z</time>
      </trkpt>
      <trkpt lat="38.206173" lon="15.957626">
        <ele>1252.576579</ele>
        <time>2023-12-04T20:30:51.619Z</time>
      </trkpt>
      <trkpt lat="38.206818" lon="15.957571">
        <ele>1249.792402</ele>
        <time>2023-12-04T20:31:00.313Z</time>
      </trkpt>
      <trkpt lat="38.207100" lon="15.957668">
        <ele>1248.534275</ele>
        <time>2023-12-04T20:31:04.506Z</time>
      </trkpt>
      <trkpt lat="38.207315" lon="15.957553">
        <ele>1247.529828</ele>
        <time>2023-12-04T20:31:08.165Z</time>
      </trkpt>
      <trkpt lat="38.207396" lon="15.957443">
        <ele>1247.597815</ele>
        <time>2023-12-04T20:31:10.144Z</time>
      </trkpt>
      <trkpt lat="38.207430" lon="15.957267">
        <ele>1247.755821</ele>
        <time>2023-12-04T20:31:12.859Z</time>
      </trkpt>
      <trkpt lat="38.207420" lon="15.957054">
        <ele>1247.941845</ele>
        <time>2023-12-04T20:31:16.469Z</time>
      </trkpt>
      <trkpt lat="38.206823" lon="15.955486">
        <ele>1249.460846</ele>
        <time>2023-12-04T20:31:56.589Z</time>
      </trkpt>
      <trkpt lat="38.206637" lon="15.954677">
        <ele>1248.784699</ele>
        <time>2023-12-04T20:32:13.727Z</time>
      </trkpt>
      <trkpt lat="38.206546" lon="15.953948">
        <ele>1248.168452</ele>
        <time>2023-12-04T20:32:23.533Z</time>
      </trkpt>
      <trkpt lat="38.206541" lon="15.953510">
        <ele>1247.802743</ele>
        <time>2023-12-04T20:32:28.539Z</time>
      </trkpt>
      <trkpt lat="38.206608" lon="15.953206">
        <ele>1247.458825</ele>
        <time>2023-12-04T20:32:32.014Z</time>
      </trkpt>
      <trkpt lat="38.207069" lon="15.951699">
        <ele>1241.735729</ele>
        <time>2023-12-04T20:32:49.331Z</time>
      </trkpt>
      <trkpt lat="38.207105" lon="15.951589">
        <ele>1241.314031</ele>
        <time>2023-12-04T20:32:50.593Z</time>
      </trkpt>
      <trkpt lat="38.207181" lon="15.951096">
        <ele>1239.536073</ele>
        <time>2023-12-04T20:32:55.882Z</time>
      </trkpt>
      <trkpt lat="38.207482" lon="15.948987">
        <ele>1233.863938</ele>
        <time>2023-12-04T20:33:20.008Z</time>
      </trkpt>
      <trkpt lat="38.207578" lon="15.948585">
        <ele>1233.312088</ele>
        <time>2023-12-04T20:33:25.297Z</time>
      </trkpt>
      <trkpt lat="38.207941" lon="15.947455">
        <ele>1232.764905</ele>
        <time>2023-12-04T20:33:42.893Z</time>
      </trkpt>
      <trkpt lat="38.207955" lon="15.947169">
        <ele>1232.636465</ele>
        <time>2023-12-04T20:33:47.754Z</time>
      </trkpt>
      <trkpt lat="38.207931" lon="15.947023">
        <ele>1232.569608</ele>
        <time>2023-12-04T20:33:50.347Z</time>
      </trkpt>
      <trkpt lat="38.207869" lon="15.946895">
        <ele>1232.502210</ele>
        <time>2023-12-04T20:33:53.122Z</time>
      </trkpt>
      <trkpt lat="38.207602" lon="15.946464">
        <ele>1232.259487</ele>
        <time>2023-12-04T20:34:02.907Z</time>
      </trkpt>
      <trkpt lat="38.207143" lon="15.946069">
        <ele>1231.950625</ele>
        <time>2023-12-04T20:34:15.031Z</time>
      </trkpt>
      <trkpt lat="38.206694" lon="15.945837">
        <ele>1231.680501</ele>
        <time>2023-12-04T20:34:24.393Z</time>
      </trkpt>
      <trkpt lat="38.206259" lon="15.945728">
        <ele>1231.433367</ele>
        <time>2023-12-04T20:34:31.602Z</time>
      </trkpt>
      <trkpt lat="38.205944" lon="15.945533">
        <ele>1230.779651</ele>
        <time>2023-12-04T20:34:36.796Z</time>
      </trkpt>
      <trkpt lat="38.205738" lon="15.945229">
        <ele>1230.097759</ele>
        <time>2023-12-04T20:34:41.338Z</time>
      </trkpt>
      <trkpt lat="38.205719" lon="15.945096">
        <ele>1229.868131</ele>
        <time>2023-12-04T20:34:42.865Z</time>
      </trkpt>
      <trkpt lat="38.205757" lon="15.945005">
        <ele>1229.693079</ele>
        <time>2023-12-04T20:34:44.029Z</time>
      </trkpt>
      <trkpt lat="38.205844" lon="15.944919">
        <ele>1229.454936</ele>
        <time>2023-12-04T20:34:45.598Z</time>
      </trkpt>
      <trkpt lat="38.205939" lon="15.944853">
        <ele>1229.220961</ele>
        <time>2023-12-04T20:34:47.184Z</time>
      </trkpt>
      <trkpt lat="38.206145" lon="15.944774">
        <ele>1228.755862</ele>
        <time>2023-12-04T20:34:50.332Z</time>
      </trkpt>
      <trkpt lat="38.206388" lon="15.944543">
        <ele>1228.100183</ele>
        <time>2023-12-04T20:34:55.057Z</time>
      </trkpt>
      <trkpt lat="38.206546" lon="15.944433">
        <ele>1227.710858</ele>
        <time>2023-12-04T20:34:58.054Z</time>
      </trkpt>
      <trkpt lat="38.206918" lon="15.944391">
        <ele>1228.825765</ele>
        <time>2023-12-04T20:35:05.610Z</time>
      </trkpt>
      <trkpt lat="38.207129" lon="15.944245">
        <ele>1229.954349</ele>
        <time>2023-12-04T20:35:12.042Z</time>
      </trkpt>
      <trkpt lat="38.207453" lon="15.943898">
        <ele>1231.944237</ele>
        <time>2023-12-04T20:35:26.749Z</time>
      </trkpt>
      <trkpt lat="38.207530" lon="15.943716">
        <ele>1232.707474</ele>
        <time>2023-12-04T20:35:33.698Z</time>
      </trkpt>
      <trkpt lat="38.207525" lon="15.943497">
        <ele>1233.516453</ele>
        <time>2023-12-04T20:35:41.505Z</time>
      </trkpt>
      <trkpt lat="38.207430" lon="15.943272">
        <ele>1234.459586</ele>
        <time>2023-12-04T20:35:51.958Z</time>
      </trkpt>
      <trkpt lat="38.207296" lon="15.943138">
        <ele>1235.260400</ele>
        <time>2023-12-04T20:36:01.398Z</time>
      </trkpt>
      <trkpt lat="38.207205" lon="15.943114">
        <ele>1235.697101</ele>
        <time>2023-12-04T20:36:06.952Z</time>
      </trkpt>
      <trkpt lat="38.206140" lon="15.943181">
        <ele>1244.851593</ele>
        <time>2023-12-04T20:37:15.440Z</time>
      </trkpt>
      <trkpt lat="38.205585" lon="15.943077">
        <ele>1249.789079</ele>
        <time>2023-12-04T20:37:46.109Z</time>
      </trkpt>
      <trkpt lat="38.205133" lon="15.942934">
        <ele>1252.369608</ele>
        <time>2023-12-04T20:38:05.295Z</time>
      </trkpt>
      <trkpt lat="38.205009" lon="15.942760">
        <ele>1252.817307</ele>
        <time>2023-12-04T20:38:11.543Z</time>
      </trkpt>
      <trkpt lat="38.204684" lon="15.941773">
        <ele>1254.856947</ele>
        <time>2023-12-04T20:38:34.436Z</time>
      </trkpt>
      <trkpt lat="38.204690" lon="15.941604">
        <ele>1255.179380</ele>
        <time>2023-12-04T20:38:37.307Z</time>
      </trkpt>
      <trkpt lat="38.204741" lon="15.941432">
        <ele>1255.529763</ele>
        <time>2023-12-04T20:38:40.579Z</time>
      </trkpt>
      <trkpt lat="38.204937" lon="15.941086">
        <ele>1256.252787</ele>
        <time>2023-12-04T20:38:48.014Z</time>
      </trkpt>
      <trkpt lat="38.204995" lon="15.940907">
        <ele>1256.445626</ele>
        <time>2023-12-04T20:38:51.373Z</time>
      </trkpt>
      <trkpt lat="38.204980" lon="15.940783">
        <ele>1256.570580</ele>
        <time>2023-12-04T20:38:53.627Z</time>
      </trkpt>
      <trkpt lat="38.204901" lon="15.940667">
        <ele>1256.723463</ele>
        <time>2023-12-04T20:38:56.591Z</time>
      </trkpt>
      <trkpt lat="38.204767" lon="15.940566">
        <ele>1256.920856</ele>
        <time>2023-12-04T20:39:00.366Z</time>
      </trkpt>
      <trkpt lat="38.204463" lon="15.940459">
        <ele>1257.320625</ele>
        <time>2023-12-04T20:39:07.990Z</time>
      </trkpt>
      <trkpt lat="38.203493" lon="15.940562">
        <ele>1258.694261</ele>
        <time>2023-12-04T20:39:33.678Z</time>
      </trkpt>
      <trkpt lat="38.203352" lon="15.940491">
        <ele>1259.110092</ele>
        <time>2023-12-04T20:39:37.950Z</time>
      </trkpt>
      <trkpt lat="38.203320" lon="15.940431">
        <ele>1259.266354</ele>
        <time>2023-12-04T20:39:39.784Z</time>
      </trkpt>
      <trkpt lat="38.203289" lon="15.940337">
        <ele>1259.486033</ele>
        <time>2023-12-04T20:39:42.360Z</time>
      </trkpt>
      <trkpt lat="38.203284" lon="15.940228">
        <ele>1259.721321</ele>
        <time>2023-12-04T20:39:45.101Z</time>
      </trkpt>
      <trkpt lat="38.203341" lon="15.940023">
        <ele>1260.189921</ele>
        <time>2023-12-04T20:39:50.209Z</time>
      </trkpt>
      <trkpt lat="38.203405" lon="15.939965">
        <ele>1260.405382</ele>
        <time>2023-12-04T20:39:52.673Z</time>
      </trkpt>
      <trkpt lat="38.203609" lon="15.939863">
        <ele>1261.006437</ele>
        <time>2023-12-04T20:39:59.227Z</time>
      </trkpt>
      <trkpt lat="38.203674" lon="15.939760">
        <ele>1261.291107</ele>
        <time>2023-12-04T20:40:02.415Z</time>
      </trkpt>
      <trkpt lat="38.203692" lon="15.939663">
        <ele>1261.505884</ele>
        <time>2023-12-04T20:40:04.931Z</time>
      </trkpt>
      <trkpt lat="38.203666" lon="15.939567">
        <ele>1261.724698</ele>
        <time>2023-12-04T20:40:07.456Z</time>
      </trkpt>
      <trkpt lat="38.203517" lon="15.939208">
        <ele>1262.599591</ele>
        <time>2023-12-04T20:40:17.514Z</time>
      </trkpt>
      <trkpt lat="38.203462" lon="15.939038">
        <ele>1262.995762</ele>
        <time>2023-12-04T20:40:21.942Z</time>
      </trkpt>
      <trkpt lat="38.203467" lon="15.938973">
        <ele>1263.136502</ele>
        <time>2023-12-04T20:40:23.590Z</time>
      </trkpt>
      <trkpt lat="38.203556" lon="15.938821">
        <ele>1263.792042</ele>
        <time>2023-12-04T20:40:28.596Z</time>
      </trkpt>
      <trkpt lat="38.203674" lon="15.938740">
        <ele>1264.668414</ele>
        <time>2023-12-04T20:40:33.274Z</time>
      </trkpt>
      <trkpt lat="38.203797" lon="15.938589">
        <ele>1265.785548</ele>
        <time>2023-12-04T20:40:39.700Z</time>
      </trkpt>
      <trkpt lat="38.203836" lon="15.938495">
        <ele>1266.331547</ele>
        <time>2023-12-04T20:40:42.957Z</time>
      </trkpt>
      <trkpt lat="38.203827" lon="15.938239">
        <ele>1267.647811</ele>
        <time>2023-12-04T20:40:51.322Z</time>
      </trkpt>
      <trkpt lat="38.203357" lon="15.936981">
        <ele>1274.802716</ele>
        <time>2023-12-04T20:41:48.474Z</time>
      </trkpt>
      <trkpt lat="38.203340" lon="15.936840">
        <ele>1275.442508</ele>
        <time>2023-12-04T20:41:54.787Z</time>
      </trkpt>
      <trkpt lat="38.203349" lon="15.936374">
        <ele>1277.296899</ele>
        <time>2023-12-04T20:42:14.946Z</time>
      </trkpt>
      <trkpt lat="38.203309" lon="15.936289">
        <ele>1277.691041</ele>
        <time>2023-12-04T20:42:19.034Z</time>
      </trkpt>
      <trkpt lat="38.203202" lon="15.936238">
        <ele>1278.269473</ele>
        <time>2023-12-04T20:42:24.732Z</time>
      </trkpt>
      <trkpt lat="38.202458" lon="15.936150">
        <ele>1282.052172</ele>
        <time>2023-12-04T20:42:53.959Z</time>
      </trkpt>
      <trkpt lat="38.202246" lon="15.936049">
        <ele>1283.198160</ele>
        <time>2023-12-04T20:43:00.475Z</time>
      </trkpt>
      <trkpt lat="38.202144" lon="15.935939">
        <ele>1283.875019</ele>
        <time>2023-12-04T20:43:04.260Z</time>
      </trkpt>
      <trkpt lat="38.202114" lon="15.935646">
        <ele>1284.480949</ele>
        <time>2023-12-04T20:43:10.007Z</time>
      </trkpt>
      <trkpt lat="38.202171" lon="15.935424">
        <ele>1284.765997</ele>
        <time>2023-12-04T20:43:14.280Z</time>
      </trkpt>
      <trkpt lat="38.202261" lon="15.935276">
        <ele>1284.994399</ele>
        <time>2023-12-04T20:43:17.654Z</time>
      </trkpt>
      <trkpt lat="38.202598" lon="15.934949">
        <ele>1285.652607</ele>
        <time>2023-12-04T20:43:26.219Z</time>
      </trkpt>
      <trkpt lat="38.202847" lon="15.934761">
        <ele>1286.102283</ele>
        <time>2023-12-04T20:43:32.046Z</time>
      </trkpt>
      <trkpt lat="38.203039" lon="15.934521">
        <ele>1286.520285</ele>
        <time>2023-12-04T20:43:38.493Z</time>
      </trkpt>
      <trkpt lat="38.203326" lon="15.934319">
        <ele>1287.052413</ele>
        <time>2023-12-04T20:43:48.705Z</time>
      </trkpt>
      <trkpt lat="38.203723" lon="15.934271">
        <ele>1289.612905</ele>
        <time>2023-12-04T20:44:04.493Z</time>
      </trkpt>
      <trkpt lat="38.203851" lon="15.934223">
        <ele>1290.469694</ele>
        <time>2023-12-04T20:44:10.471Z</time>
      </trkpt>
      <trkpt lat="38.203912" lon="15.934074">
        <ele>1291.317377</ele>
        <time>2023-12-04T20:44:16.921Z</time>
      </trkpt>
      <trkpt lat="38.203904" lon="15.933930">
        <ele>1292.045738</ele>
        <time>2023-12-04T20:44:22.493Z</time>
      </trkpt>
      <trkpt lat="38.203847" lon="15.933800">
        <ele>1292.796844</ele>
        <time>2023-12-04T20:44:28.186Z</time>
      </trkpt>
      <trkpt lat="38.203685" lon="15.933584">
        <ele>1294.303374</ele>
        <time>2023-12-04T20:44:40.070Z</time>
      </trkpt>
      <trkpt lat="38.203572" lon="15.933387">
        <ele>1295.533969</ele>
        <time>2023-12-04T20:44:49.865Z</time>
      </trkpt>
      <trkpt lat="38.203519" lon="15.933200">
        <ele>1296.536969</ele>
        <time>2023-12-04T20:44:57.993Z</time>
      </trkpt>
      <trkpt lat="38.203481" lon="15.932757">
        <ele>1298.684578</ele>
        <time>2023-12-04T20:45:16.498Z</time>
      </trkpt>
      <trkpt lat="38.203493" lon="15.932416">
        <ele>1299.597139</ele>
        <time>2023-12-04T20:45:30.256Z</time>
      </trkpt>
      <trkpt lat="38.203470" lon="15.932267">
        <ele>1300.003096</ele>
        <time>2023-12-04T20:45:36.715Z</time>
      </trkpt>
      <trkpt lat="38.203160" lon="15.931907">
        <ele>1301.430892</ele>
        <time>2023-12-04T20:45:56.506Z</time>
      </trkpt>
      <trkpt lat="38.203051" lon="15.931720">
        <ele>1302.053350</ele>
        <time>2023-12-04T20:46:02.932Z</time>
      </trkpt>
      <trkpt lat="38.202922" lon="15.931162">
        <ele>1303.608364</ele>
        <time>2023-12-04T20:46:13.493Z</time>
      </trkpt>
      <trkpt lat="38.202733" lon="15.930984">
        <ele>1304.408308</ele>
        <time>2023-12-04T20:46:17.077Z</time>
      </trkpt>
      <trkpt lat="38.202431" lon="15.930792">
        <ele>1304.404765</ele>
        <time>2023-12-04T20:46:22.051Z</time>
      </trkpt>
      <trkpt lat="38.202477" lon="15.930532">
        <ele>1304.170157</ele>
        <time>2023-12-04T20:46:25.228Z</time>
      </trkpt>
      <trkpt lat="38.202548" lon="15.930235">
        <ele>1303.896876</ele>
        <time>2023-12-04T20:46:28.919Z</time>
      </trkpt>
      <trkpt lat="38.202820" lon="15.929459">
        <ele>1303.148886</ele>
        <time>2023-12-04T20:46:40.143Z</time>
      </trkpt>
      <trkpt lat="38.202926" lon="15.929143">
        <ele>1302.846428</ele>
        <time>2023-12-04T20:46:45.635Z</time>
      </trkpt>
      <trkpt lat="38.202959" lon="15.928942">
        <ele>1302.710856</ele>
        <time>2023-12-04T20:46:48.949Z</time>
      </trkpt>
      <trkpt lat="38.202948" lon="15.928663">
        <ele>1303.623143</ele>
        <time>2023-12-04T20:46:53.543Z</time>
      </trkpt>
      <trkpt lat="38.202772" lon="15.927943">
        <ele>1306.085612</ele>
        <time>2023-12-04T20:47:11.505Z</time>
      </trkpt>
      <trkpt lat="38.202507" lon="15.926570">
        <ele>1310.732779</ele>
        <time>2023-12-04T20:48:03.581Z</time>
      </trkpt>
      <trkpt lat="38.202430" lon="15.925404">
        <ele>1314.761679</ele>
        <time>2023-12-04T20:48:42.887Z</time>
      </trkpt>
      <trkpt lat="38.202318" lon="15.925035">
        <ele>1316.123693</ele>
        <time>2023-12-04T20:48:53.731Z</time>
      </trkpt>
      <trkpt lat="38.202280" lon="15.924814">
        <ele>1316.902640</ele>
        <time>2023-12-04T20:48:59.290Z</time>
      </trkpt>
      <trkpt lat="38.202280" lon="15.924660">
        <ele>1317.432891</ele>
        <time>2023-12-04T20:49:02.911Z</time>
      </trkpt>
      <trkpt lat="38.202677" lon="15.923805">
        <ele>1318.830995</ele>
        <time>2023-12-04T20:49:21.153Z</time>
      </trkpt>
      <trkpt lat="38.202703" lon="15.923632">
        <ele>1319.002962</ele>
        <time>2023-12-04T20:49:24.120Z</time>
      </trkpt>
      <trkpt lat="38.202586" lon="15.923089">
        <ele>1319.552682</ele>
        <time>2023-12-04T20:49:33.926Z</time>
      </trkpt>
      <trkpt lat="38.202639" lon="15.922796">
        <ele>1319.846231</ele>
        <time>2023-12-04T20:49:39.996Z</time>
      </trkpt>
      <trkpt lat="38.202869" lon="15.922215">
        <ele>1320.819429</ele>
        <time>2023-12-04T20:49:53.674Z</time>
      </trkpt>
      <trkpt lat="38.202824" lon="15.922061">
        <ele>1321.231213</ele>
        <time>2023-12-04T20:49:57.615Z</time>
      </trkpt>
      <trkpt lat="38.202182" lon="15.921162">
        <ele>1324.275737</ele>
        <time>2023-12-04T20:50:27.443Z</time>
      </trkpt>
      <trkpt lat="38.201820" lon="15.920778">
        <ele>1325.778803</ele>
        <time>2023-12-04T20:50:45.786Z</time>
      </trkpt>
      <trkpt lat="38.201676" lon="15.920523">
        <ele>1326.304494</ele>
        <time>2023-12-04T20:50:56.788Z</time>
      </trkpt>
      <trkpt lat="38.201653" lon="15.920148">
        <ele>1326.810160</ele>
        <time>2023-12-04T20:51:08.590Z</time>
      </trkpt>
      <trkpt lat="38.201672" lon="15.919797">
        <ele>1327.283147</ele>
        <time>2023-12-04T20:51:17.911Z</time>
      </trkpt>
      <trkpt lat="38.201627" lon="15.919533">
        <ele>1327.646310</ele>
        <time>2023-12-04T20:51:23.889Z</time>
      </trkpt>
      <trkpt lat="38.201510" lon="15.919173">
        <ele>1328.170035</ele>
        <time>2023-12-04T20:51:30.652Z</time>
      </trkpt>
      <trkpt lat="38.201251" lon="15.918653">
        <ele>1328.997691</ele>
        <time>2023-12-04T20:51:39.461Z</time>
      </trkpt>
      <trkpt lat="38.201298" lon="15.918572">
        <ele>1328.976332</ele>
        <time>2023-12-04T20:51:40.643Z</time>
      </trkpt>
      <trkpt lat="38.201494" lon="15.918473">
        <ele>1328.288374</ele>
        <time>2023-12-04T20:51:43.958Z</time>
      </trkpt>
      <trkpt lat="38.201589" lon="15.918378">
        <ele>1327.894201</ele>
        <time>2023-12-04T20:51:45.841Z</time>
      </trkpt>
      <trkpt lat="38.201692" lon="15.918336">
        <ele>1327.541345</ele>
        <time>2023-12-04T20:51:47.413Z</time>
      </trkpt>
      <trkpt lat="38.201858" lon="15.918310">
        <ele>1326.995703</ele>
        <time>2023-12-04T20:51:49.934Z</time>
      </trkpt>
      <trkpt lat="38.202352" lon="15.918156">
        <ele>1325.336430</ele>
        <time>2023-12-04T20:51:57.015Z</time>
      </trkpt>
      <trkpt lat="38.202822" lon="15.918084">
        <ele>1323.792039</ele>
        <time>2023-12-04T20:52:03.315Z</time>
      </trkpt>
      <trkpt lat="38.203989" lon="15.917831">
        <ele>1322.113196</ele>
        <time>2023-12-04T20:52:21.459Z</time>
      </trkpt>
      <trkpt lat="38.204029" lon="15.917765">
        <ele>1322.041689</ele>
        <time>2023-12-04T20:52:22.812Z</time>
      </trkpt>
      <trkpt lat="38.204037" lon="15.917690">
        <ele>1321.976756</ele>
        <time>2023-12-04T20:52:24.124Z</time>
      </trkpt>
      <trkpt lat="38.204013" lon="15.917561">
        <ele>1321.863025</ele>
        <time>2023-12-04T20:52:26.446Z</time>
      </trkpt>
      <trkpt lat="38.203234" lon="15.917169">
        <ele>1321.454116</ele>
        <time>2023-12-04T20:52:47.224Z</time>
      </trkpt>
      <trkpt lat="38.202915" lon="15.917167">
        <ele>1321.694557</ele>
        <time>2023-12-04T20:52:56.336Z</time>
      </trkpt>
      <trkpt lat="38.202519" lon="15.917093">
        <ele>1321.996233</ele>
        <time>2023-12-04T20:53:07.499Z</time>
      </trkpt>
      <trkpt lat="38.201884" lon="15.917193">
        <ele>1322.478499</ele>
        <time>2023-12-04T20:53:20.617Z</time>
      </trkpt>
      <trkpt lat="38.201667" lon="15.917182">
        <ele>1322.476333</ele>
        <time>2023-12-04T20:53:24.572Z</time>
      </trkpt>
      <trkpt lat="38.201284" lon="15.917221">
        <ele>1321.531315</ele>
        <time>2023-12-04T20:53:31.267Z</time>
      </trkpt>
      <trkpt lat="38.201151" lon="15.917171">
        <ele>1321.190219</ele>
        <time>2023-12-04T20:53:33.544Z</time>
      </trkpt>
      <trkpt lat="38.200957" lon="15.916991">
        <ele>1320.599698</ele>
        <time>2023-12-04T20:53:37.473Z</time>
      </trkpt>
      <trkpt lat="38.200805" lon="15.916890">
        <ele>1320.177948</ele>
        <time>2023-12-04T20:53:40.161Z</time>
      </trkpt>
      <trkpt lat="38.200716" lon="15.916913">
        <ele>1319.954579</ele>
        <time>2023-12-04T20:53:41.560Z</time>
      </trkpt>
      <trkpt lat="38.200556" lon="15.917031">
        <ele>1319.499737</ele>
        <time>2023-12-04T20:53:44.153Z</time>
      </trkpt>
      <trkpt lat="38.200444" lon="15.917159">
        <ele>1319.129478</ele>
        <time>2023-12-04T20:53:46.224Z</time>
      </trkpt>
      <trkpt lat="38.200324" lon="15.917193">
        <ele>1318.827104</ele>
        <time>2023-12-04T20:53:48.000Z</time>
      </trkpt>
      <trkpt lat="38.200218" lon="15.917160">
        <ele>1318.558703</ele>
        <time>2023-12-04T20:53:49.487Z</time>
      </trkpt>
      <trkpt lat="38.200163" lon="15.917094">
        <ele>1318.372766</ele>
        <time>2023-12-04T20:53:50.515Z</time>
      </trkpt>
      <trkpt lat="38.200080" lon="15.916960">
        <ele>1317.931236</ele>
        <time>2023-12-04T20:53:52.418Z</time>
      </trkpt>
      <trkpt lat="38.199995" lon="15.916667">
        <ele>1316.833165</ele>
        <time>2023-12-04T20:53:55.722Z</time>
      </trkpt>
      <trkpt lat="38.200019" lon="15.916495">
        <ele>1316.218993</ele>
        <time>2023-12-04T20:53:57.667Z</time>
      </trkpt>
      <trkpt lat="38.200005" lon="15.916238">
        <ele>1315.313271</ele>
        <time>2023-12-04T20:54:00.483Z</time>
      </trkpt>
      <trkpt lat="38.200177" lon="15.916141">
        <ele>1314.471592</ele>
        <time>2023-12-04T20:54:03.247Z</time>
      </trkpt>
      <trkpt lat="38.200384" lon="15.916142">
        <ele>1313.545506</ele>
        <time>2023-12-04T20:54:06.059Z</time>
      </trkpt>
      <trkpt lat="38.200785" lon="15.915985">
        <ele>1311.668513</ele>
        <time>2023-12-04T20:54:11.898Z</time>
      </trkpt>
      <trkpt lat="38.201044" lon="15.915951">
        <ele>1310.503647</ele>
        <time>2023-12-04T20:54:15.406Z</time>
      </trkpt>
      <trkpt lat="38.201264" lon="15.915991">
        <ele>1309.462544</ele>
        <time>2023-12-04T20:54:18.382Z</time>
      </trkpt>
      <trkpt lat="38.201340" lon="15.915960">
        <ele>1309.078643</ele>
        <time>2023-12-04T20:54:19.413Z</time>
      </trkpt>
      <trkpt lat="38.201442" lon="15.915876">
        <ele>1308.494214</ele>
        <time>2023-12-04T20:54:20.996Z</time>
      </trkpt>
      <trkpt lat="38.201539" lon="15.915731">
        <ele>1307.774395</ele>
        <time>2023-12-04T20:54:23.017Z</time>
      </trkpt>
      <trkpt lat="38.201632" lon="15.915339">
        <ele>1306.226545</ele>
        <time>2023-12-04T20:54:27.340Z</time>
      </trkpt>
      <trkpt lat="38.201758" lon="15.915271">
        <ele>1305.568199</ele>
        <time>2023-12-04T20:54:29.265Z</time>
      </trkpt>
      <trkpt lat="38.201976" lon="15.915237">
        <ele>1304.511718</ele>
        <time>2023-12-04T20:54:32.358Z</time>
      </trkpt>
      <trkpt lat="38.202137" lon="15.915137">
        <ele>1303.649939</ele>
        <time>2023-12-04T20:54:34.834Z</time>
      </trkpt>
      <trkpt lat="38.202263" lon="15.914958">
        <ele>1302.741548</ele>
        <time>2023-12-04T20:54:37.417Z</time>
      </trkpt>
      <trkpt lat="38.202404" lon="15.914821">
        <ele>1301.888200</ele>
        <time>2023-12-04T20:54:39.832Z</time>
      </trkpt>
      <trkpt lat="38.202759" lon="15.914665">
        <ele>1300.325029</ele>
        <time>2023-12-04T20:54:44.897Z</time>
      </trkpt>
      <trkpt lat="38.203163" lon="15.914123">
        <ele>1297.992490</ele>
        <time>2023-12-04T20:54:52.922Z</time>
      </trkpt>
      <trkpt lat="38.203443" lon="15.913633">
        <ele>1296.100797</ele>
        <time>2023-12-04T20:54:59.752Z</time>
      </trkpt>
      <trkpt lat="38.203692" lon="15.913517">
        <ele>1295.047218</ele>
        <time>2023-12-04T20:55:03.657Z</time>
      </trkpt>
      <trkpt lat="38.203870" lon="15.913412">
        <ele>1294.293256</ele>
        <time>2023-12-04T20:55:06.553Z</time>
      </trkpt>
      <trkpt lat="38.203950" lon="15.913335">
        <ele>1294.048303</ele>
        <time>2023-12-04T20:55:08.050Z</time>
      </trkpt>
      <trkpt lat="38.203966" lon="15.913259">
        <ele>1293.897315</ele>
        <time>2023-12-04T20:55:08.928Z</time>
      </trkpt>
      <trkpt lat="38.203922" lon="15.913091">
        <ele>1293.557485</ele>
        <time>2023-12-04T20:55:10.954Z</time>
      </trkpt>
      <trkpt lat="38.203812" lon="15.912855">
        <ele>1293.030923</ele>
        <time>2023-12-04T20:55:14.180Z</time>
      </trkpt>
      <trkpt lat="38.203685" lon="15.912679">
        <ele>1292.572379</ele>
        <time>2023-12-04T20:55:17.063Z</time>
      </trkpt>
      <trkpt lat="38.203599" lon="15.912609">
        <ele>1292.323075</ele>
        <time>2023-12-04T20:55:18.723Z</time>
      </trkpt>
      <trkpt lat="38.203281" lon="15.912530">
        <ele>1291.531836</ele>
        <time>2023-12-04T20:55:24.205Z</time>
      </trkpt>
      <trkpt lat="38.203224" lon="15.912442">
        <ele>1291.312987</ele>
        <time>2023-12-04T20:55:25.686Z</time>
      </trkpt>
      <trkpt lat="38.203223" lon="15.912331">
        <ele>1291.099961</ele>
        <time>2023-12-04T20:55:27.160Z</time>
      </trkpt>
      <trkpt lat="38.203266" lon="15.912285">
        <ele>1290.962776</ele>
        <time>2023-12-04T20:55:28.116Z</time>
      </trkpt>
      <trkpt lat="38.203638" lon="15.912237">
        <ele>1290.049668</ele>
        <time>2023-12-04T20:55:34.174Z</time>
      </trkpt>
      <trkpt lat="38.203655" lon="15.912201">
        <ele>1289.969069</ele>
        <time>2023-12-04T20:55:34.675Z</time>
      </trkpt>
      <trkpt lat="38.203624" lon="15.912097">
        <ele>1289.373400</ele>
        <time>2023-12-04T20:55:36.019Z</time>
      </trkpt>
      <trkpt lat="38.203574" lon="15.912054">
        <ele>1288.923242</ele>
        <time>2023-12-04T20:55:36.894Z</time>
      </trkpt>
      <trkpt lat="38.203518" lon="15.912054">
        <ele>1288.505511</ele>
        <time>2023-12-04T20:55:37.646Z</time>
      </trkpt>
      <trkpt lat="38.203333" lon="15.912121">
        <ele>1287.070711</ele>
        <time>2023-12-04T20:55:40.277Z</time>
      </trkpt>
      <trkpt lat="38.203136" lon="15.912066">
        <ele>1285.566244</ele>
        <time>2023-12-04T20:55:42.900Z</time>
      </trkpt>
      <trkpt lat="38.202876" lon="15.911951">
        <ele>1283.512968</ele>
        <time>2023-12-04T20:55:46.399Z</time>
      </trkpt>
      <trkpt lat="38.202765" lon="15.911852">
        <ele>1282.501848</ele>
        <time>2023-12-04T20:55:48.091Z</time>
      </trkpt>
      <trkpt lat="38.202644" lon="15.911613">
        <ele>1280.835283</ele>
        <time>2023-12-04T20:55:50.883Z</time>
      </trkpt>
      <trkpt lat="38.202666" lon="15.911397">
        <ele>1279.558530</ele>
        <time>2023-12-04T20:55:52.995Z</time>
      </trkpt>
      <trkpt lat="38.202748" lon="15.911259">
        <ele>1278.544366</ele>
        <time>2023-12-04T20:55:54.655Z</time>
      </trkpt>
      <trkpt lat="38.203119" lon="15.911382">
        <ele>1275.427413</ele>
        <time>2023-12-04T20:55:59.306Z</time>
      </trkpt>
      <trkpt lat="38.203222" lon="15.911338">
        <ele>1274.368941</ele>
        <time>2023-12-04T20:56:00.619Z</time>
      </trkpt>
      <trkpt lat="38.203587" lon="15.910984">
        <ele>1269.898051</ele>
        <time>2023-12-04T20:56:06.044Z</time>
      </trkpt>
      <trkpt lat="38.203684" lon="15.910706">
        <ele>1267.569438</ele>
        <time>2023-12-04T20:56:08.859Z</time>
      </trkpt>
      <trkpt lat="38.203724" lon="15.910688">
        <ele>1267.156105</ele>
        <time>2023-12-04T20:56:09.359Z</time>
      </trkpt>
      <trkpt lat="38.203817" lon="15.910705">
        <ele>1266.240785</ele>
        <time>2023-12-04T20:56:10.477Z</time>
      </trkpt>
      <trkpt lat="38.204702" lon="15.911270">
        <ele>1260.478798</ele>
        <time>2023-12-04T20:56:23.018Z</time>
      </trkpt>
      <trkpt lat="38.204820" lon="15.911317">
        <ele>1261.217766</ele>
        <time>2023-12-04T20:56:25.269Z</time>
      </trkpt>
      <trkpt lat="38.205143" lon="15.911342">
        <ele>1263.151755</ele>
        <time>2023-12-04T20:56:34.720Z</time>
      </trkpt>
      <trkpt lat="38.205312" lon="15.911396">
        <ele>1264.193142</ele>
        <time>2023-12-04T20:56:42.247Z</time>
      </trkpt>
      <trkpt lat="38.205572" lon="15.911401">
        <ele>1265.747220</ele>
        <time>2023-12-04T20:56:55.736Z</time>
      </trkpt>
      <trkpt lat="38.205849" lon="15.911337">
        <ele>1267.429785</ele>
        <time>2023-12-04T20:57:13.893Z</time>
      </trkpt>
      <trkpt lat="38.206071" lon="15.911183">
        <ele>1268.940891</ele>
        <time>2023-12-04T20:57:33.375Z</time>
      </trkpt>
      <trkpt lat="38.206301" lon="15.910960">
        <ele>1272.389905</ele>
        <time>2023-12-04T20:57:58.717Z</time>
      </trkpt>
      <trkpt lat="38.206476" lon="15.910566">
        <ele>1278.502990</ele>
        <time>2023-12-04T20:58:32.928Z</time>
      </trkpt>
      <trkpt lat="38.206545" lon="15.910443">
        <ele>1280.544272</ele>
        <time>2023-12-04T20:58:44.802Z</time>
      </trkpt>
      <trkpt lat="38.206666" lon="15.910304">
        <ele>1283.346201</ele>
        <time>2023-12-04T20:59:01.256Z</time>
      </trkpt>
      <trkpt lat="38.206753" lon="15.910152">
        <ele>1285.886167</ele>
        <time>2023-12-04T20:59:15.974Z</time>
      </trkpt>
      <trkpt lat="38.206807" lon="15.909998">
        <ele>1288.163943</ele>
        <time>2023-12-04T20:59:29.129Z</time>
      </trkpt>
      <trkpt lat="38.206799" lon="15.909879">
        <ele>1289.777140</ele>
        <time>2023-12-04T20:59:38.365Z</time>
      </trkpt>
      <trkpt lat="38.206737" lon="15.909704">
        <ele>1292.369999</ele>
        <time>2023-12-04T20:59:52.477Z</time>
      </trkpt>
      <trkpt lat="38.206603" lon="15.909520">
        <ele>1295.758510</ele>
        <time>2023-12-04T21:00:10.460Z</time>
      </trkpt>
      <trkpt lat="38.206497" lon="15.909438">
        <ele>1297.890780</ele>
        <time>2023-12-04T21:00:20.927Z</time>
      </trkpt>
      <trkpt lat="38.206318" lon="15.909368">
        <ele>1300.907020</ele>
        <time>2023-12-04T21:00:36.181Z</time>
      </trkpt>
      <trkpt lat="38.206289" lon="15.909318">
        <ele>1301.360608</ele>
        <time>2023-12-04T21:00:39.979Z</time>
      </trkpt>
      <trkpt lat="38.206105" lon="15.908591">
        <ele>1306.935322</ele>
        <time>2023-12-04T21:01:21.081Z</time>
      </trkpt>
      <trkpt lat="38.206111" lon="15.908442">
        <ele>1308.024279</ele>
        <time>2023-12-04T21:01:28.075Z</time>
      </trkpt>
      <trkpt lat="38.206064" lon="15.908232">
        <ele>1309.617999</ele>
        <time>2023-12-04T21:01:37.499Z</time>
      </trkpt>
      <trkpt lat="38.205980" lon="15.908012">
        <ele>1311.403274</ele>
        <time>2023-12-04T21:01:47.583Z</time>
      </trkpt>
      <trkpt lat="38.205949" lon="15.907862">
        <ele>1312.535338</ele>
        <time>2023-12-04T21:01:53.423Z</time>
      </trkpt>
      <trkpt lat="38.205930" lon="15.907456">
        <ele>1315.503932</ele>
        <time>2023-12-04T21:02:07.569Z</time>
      </trkpt>
      <trkpt lat="38.205898" lon="15.907329">
        <ele>1316.477379</ele>
        <time>2023-12-04T21:02:11.784Z</time>
      </trkpt>
      <trkpt lat="38.205523" lon="15.906611">
        <ele>1319.068259</ele>
        <time>2023-12-04T21:02:35.551Z</time>
      </trkpt>
      <trkpt lat="38.205280" lon="15.906305">
        <ele>1320.064632</ele>
        <time>2023-12-04T21:02:46.053Z</time>
      </trkpt>
      <trkpt lat="38.205166" lon="15.906111">
        <ele>1320.619440</ele>
        <time>2023-12-04T21:02:51.742Z</time>
      </trkpt>
      <trkpt lat="38.204988" lon="15.905729">
        <ele>1321.636581</ele>
        <time>2023-12-04T21:03:01.720Z</time>
      </trkpt>
      <trkpt lat="38.204886" lon="15.905604">
        <ele>1322.049302</ele>
        <time>2023-12-04T21:03:05.665Z</time>
      </trkpt>
      <trkpt lat="38.204674" lon="15.905443">
        <ele>1322.750153</ele>
        <time>2023-12-04T21:03:12.434Z</time>
      </trkpt>
      <trkpt lat="38.204416" lon="15.905313">
        <ele>1323.458729</ele>
        <time>2023-12-04T21:03:19.897Z</time>
      </trkpt>
      <trkpt lat="38.204088" lon="15.905213">
        <ele>1324.319989</ele>
        <time>2023-12-04T21:03:29.005Z</time>
      </trkpt>
      <trkpt lat="38.203859" lon="15.905230">
        <ele>1324.905742</ele>
        <time>2023-12-04T21:03:35.401Z</time>
      </trkpt>
      <trkpt lat="38.203636" lon="15.905394">
        <ele>1325.563432</ele>
        <time>2023-12-04T21:03:42.984Z</time>
      </trkpt>
      <trkpt lat="38.203537" lon="15.905442">
        <ele>1325.833959</ele>
        <time>2023-12-04T21:03:46.254Z</time>
      </trkpt>
      <trkpt lat="38.203500" lon="15.905425">
        <ele>1325.934409</ele>
        <time>2023-12-04T21:03:47.492Z</time>
      </trkpt>
      <trkpt lat="38.203445" lon="15.905306">
        <ele>1326.211436</ele>
        <time>2023-12-04T21:03:50.971Z</time>
      </trkpt>
      <trkpt lat="38.203483" lon="15.905065">
        <ele>1326.704669</ele>
        <time>2023-12-04T21:03:57.499Z</time>
      </trkpt>
      <trkpt lat="38.203450" lon="15.904845">
        <ele>1327.154096</ele>
        <time>2023-12-04T21:04:03.524Z</time>
      </trkpt>
      <trkpt lat="38.203306" lon="15.904571">
        <ele>1328.536804</ele>
        <time>2023-12-04T21:04:13.026Z</time>
      </trkpt>
      <trkpt lat="38.203159" lon="15.904349">
        <ele>1329.814106</ele>
        <time>2023-12-04T21:04:21.952Z</time>
      </trkpt>
      <trkpt lat="38.203077" lon="15.904289">
        <ele>1330.343713</ele>
        <time>2023-12-04T21:04:25.738Z</time>
      </trkpt>
      <trkpt lat="38.202953" lon="15.904260">
        <ele>1331.049622</ele>
        <time>2023-12-04T21:04:31.023Z</time>
      </trkpt>
      <trkpt lat="38.202690" lon="15.904260">
        <ele>1332.522171</ele>
        <time>2023-12-04T21:04:42.468Z</time>
      </trkpt>
      <trkpt lat="38.202487" lon="15.904206">
        <ele>1333.683344</ele>
        <time>2023-12-04T21:04:51.897Z</time>
      </trkpt>
      <trkpt lat="38.202419" lon="15.904160">
        <ele>1334.114532</ele>
        <time>2023-12-04T21:04:55.444Z</time>
      </trkpt>
      <trkpt lat="38.202193" lon="15.903955">
        <ele>1335.668484</ele>
        <time>2023-12-04T21:05:08.536Z</time>
      </trkpt>
      <trkpt lat="38.202126" lon="15.903891">
        <ele>1336.137550</ele>
        <time>2023-12-04T21:05:12.537Z</time>
      </trkpt>
      <trkpt lat="38.202019" lon="15.903879">
        <ele>1336.738969</ele>
        <time>2023-12-04T21:05:17.657Z</time>
      </trkpt>
      <trkpt lat="38.201935" lon="15.903919">
        <ele>1337.241140</ele>
        <time>2023-12-04T21:05:21.903Z</time>
      </trkpt>
      <trkpt lat="38.201860" lon="15.904019">
        <ele>1337.879707</ele>
        <time>2023-12-04T21:05:27.078Z</time>
      </trkpt>
      <trkpt lat="38.201776" lon="15.904310">
        <ele>1339.316624</ele>
        <time>2023-12-04T21:05:38.590Z</time>
      </trkpt>
      <trkpt lat="38.201705" lon="15.904383">
        <ele>1339.855009</ele>
        <time>2023-12-04T21:05:42.866Z</time>
      </trkpt>
      <trkpt lat="38.201500" lon="15.904395">
        <ele>1341.065424</ele>
        <time>2023-12-04T21:05:52.369Z</time>
      </trkpt>
      <trkpt lat="38.201273" lon="15.904347">
        <ele>1342.422680</ele>
        <time>2023-12-04T21:06:02.700Z</time>
      </trkpt>
      <trkpt lat="38.200881" lon="15.904212">
        <ele>1344.817962</ele>
        <time>2023-12-04T21:06:20.059Z</time>
      </trkpt>
      <trkpt lat="38.200214" lon="15.903831">
        <ele>1349.071414</ele>
        <time>2023-12-04T21:06:49.924Z</time>
      </trkpt>
      <trkpt lat="38.200117" lon="15.903810">
        <ele>1349.624219</ele>
        <time>2023-12-04T21:06:53.781Z</time>
      </trkpt>
      <trkpt lat="38.199986" lon="15.903847">
        <ele>1350.378126</ele>
        <time>2023-12-04T21:06:59.135Z</time>
      </trkpt>
      <trkpt lat="38.199816" lon="15.903921">
        <ele>1351.387572</ele>
        <time>2023-12-04T21:07:06.132Z</time>
      </trkpt>
      <trkpt lat="38.199766" lon="15.903974">
        <ele>1351.753182</ele>
        <time>2023-12-04T21:07:08.707Z</time>
      </trkpt>
      <trkpt lat="38.199720" lon="15.904147">
        <ele>1352.559547</ele>
        <time>2023-12-04T21:07:14.394Z</time>
      </trkpt>
      <trkpt lat="38.199665" lon="15.904226">
        <ele>1353.025536</ele>
        <time>2023-12-04T21:07:17.679Z</time>
      </trkpt>
      <trkpt lat="38.199271" lon="15.904374">
        <ele>1355.333575</ele>
        <time>2023-12-04T21:07:34.499Z</time>
      </trkpt>
      <trkpt lat="38.198953" lon="15.904634">
        <ele>1357.457204</ele>
        <time>2023-12-04T21:07:51.598Z</time>
      </trkpt>
      <trkpt lat="38.198357" lon="15.905250">
        <ele>1362.889135</ele>
        <time>2023-12-04T21:08:30.925Z</time>
      </trkpt>
      <trkpt lat="38.197926" lon="15.905605">
        <ele>1366.627820</ele>
        <time>2023-12-04T21:08:57.606Z</time>
      </trkpt>
      <trkpt lat="38.197565" lon="15.906012">
        <ele>1370.140037</ele>
        <time>2023-12-04T21:09:22.100Z</time>
      </trkpt>
      <trkpt lat="38.197428" lon="15.906089">
        <ele>1371.135722</ele>
        <time>2023-12-04T21:09:29.599Z</time>
      </trkpt>
      <trkpt lat="38.197409" lon="15.906080">
        <ele>1371.181326</ele>
        <time>2023-12-04T21:09:30.512Z</time>
      </trkpt>
      <trkpt lat="38.197255" lon="15.906008">
        <ele>1371.550379</ele>
        <time>2023-12-04T21:09:38.080Z</time>
      </trkpt>
      <trkpt lat="38.197043" lon="15.905860">
        <ele>1372.094310</ele>
        <time>2023-12-04T21:09:48.554Z</time>
      </trkpt>
      <trkpt lat="38.196579" lon="15.905489">
        <ele>1373.326994</ele>
        <time>2023-12-04T21:10:07.092Z</time>
      </trkpt>
      <trkpt lat="38.195966" lon="15.905167">
        <ele>1374.818760</ele>
        <time>2023-12-04T21:10:18.533Z</time>
      </trkpt>
      <trkpt lat="38.195895" lon="15.905007">
        <ele>1375.138278</ele>
        <time>2023-12-04T21:10:20.781Z</time>
      </trkpt>
      <trkpt lat="38.195828" lon="15.904737">
        <ele>1375.035674</ele>
        <time>2023-12-04T21:10:24.165Z</time>
      </trkpt>
      <trkpt lat="38.195814" lon="15.904477">
        <ele>1374.941235</ele>
        <time>2023-12-04T21:10:27.723Z</time>
      </trkpt>
      <trkpt lat="38.195711" lon="15.903991">
        <ele>1374.758828</ele>
        <time>2023-12-04T21:10:35.175Z</time>
      </trkpt>
      <trkpt lat="38.195706" lon="15.903615">
        <ele>1374.622554</ele>
        <time>2023-12-04T21:10:40.940Z</time>
      </trkpt>
      <trkpt lat="38.195685" lon="15.903536">
        <ele>1374.592332</ele>
        <time>2023-12-04T21:10:42.156Z</time>
      </trkpt>
      <trkpt lat="38.195566" lon="15.903513">
        <ele>1374.536832</ele>
        <time>2023-12-04T21:10:44.331Z</time>
      </trkpt>
      <trkpt lat="38.195185" lon="15.903655">
        <ele>1374.353772</ele>
        <time>2023-12-04T21:10:51.800Z</time>
      </trkpt>
      <trkpt lat="38.194856" lon="15.903767">
        <ele>1374.782512</ele>
        <time>2023-12-04T21:10:59.199Z</time>
      </trkpt>
      <trkpt lat="38.194742" lon="15.903849">
        <ele>1375.034888</ele>
        <time>2023-12-04T21:11:02.926Z</time>
      </trkpt>
      <trkpt lat="38.194623" lon="15.903894">
        <ele>1375.274139</ele>
        <time>2023-12-04T21:11:06.341Z</time>
      </trkpt>
      <trkpt lat="38.194576" lon="15.903816">
        <ele>1375.423007</ele>
        <time>2023-12-04T21:11:08.444Z</time>
      </trkpt>
      <trkpt lat="38.194585" lon="15.903671">
        <ele>1375.643310</ele>
        <time>2023-12-04T21:11:12.185Z</time>
      </trkpt>
      <trkpt lat="38.194762" lon="15.902940">
        <ele>1376.801851</ele>
        <time>2023-12-04T21:11:32.923Z</time>
      </trkpt>
      <trkpt lat="38.194723" lon="15.902539">
        <ele>1377.413845</ele>
        <time>2023-12-04T21:11:42.923Z</time>
      </trkpt>
      <trkpt lat="38.194658" lon="15.902253">
        <ele>1377.747096</ele>
        <time>2023-12-04T21:11:49.076Z</time>
      </trkpt>
      <trkpt lat="38.194613" lon="15.902039">
        <ele>1377.636953</ele>
        <time>2023-12-04T21:11:52.843Z</time>
      </trkpt>
      <trkpt lat="38.194447" lon="15.901572">
        <ele>1377.382115</ele>
        <time>2023-12-04T21:11:59.990Z</time>
      </trkpt>
      <trkpt lat="38.194371" lon="15.901416">
        <ele>1377.290858</ele>
        <time>2023-12-04T21:12:02.623Z</time>
      </trkpt>
      <trkpt lat="38.194141" lon="15.901127">
        <ele>1377.086360</ele>
        <time>2023-12-04T21:12:08.656Z</time>
      </trkpt>
      <trkpt lat="38.193983" lon="15.900997">
        <ele>1376.967326</ele>
        <time>2023-12-04T21:12:11.928Z</time>
      </trkpt>
      <trkpt lat="38.193712" lon="15.900479">
        <ele>1376.657928</ele>
        <time>2023-12-04T21:12:19.973Z</time>
      </trkpt>
      <trkpt lat="38.193417" lon="15.900215">
        <ele>1375.335703</ele>
        <time>2023-12-04T21:12:25.473Z</time>
      </trkpt>
      <trkpt lat="38.193145" lon="15.900251">
        <ele>1374.255001</ele>
        <time>2023-12-04T21:12:29.519Z</time>
      </trkpt>
      <trkpt lat="38.193101" lon="15.900227">
        <ele>1374.065816</ele>
        <time>2023-12-04T21:12:30.213Z</time>
      </trkpt>
      <trkpt lat="38.193075" lon="15.900116">
        <ele>1373.706077</ele>
        <time>2023-12-04T21:12:31.556Z</time>
      </trkpt>
      <trkpt lat="38.193157" lon="15.899863">
        <ele>1372.856094</ele>
        <time>2023-12-04T21:12:34.626Z</time>
      </trkpt>
      <trkpt lat="38.193462" lon="15.899343">
        <ele>1370.840858</ele>
        <time>2023-12-04T21:12:41.669Z</time>
      </trkpt>
      <trkpt lat="38.193688" lon="15.898782">
        <ele>1368.443222</ele>
        <time>2023-12-04T21:12:48.207Z</time>
      </trkpt>
      <trkpt lat="38.193857" lon="15.898267">
        <ele>1365.532704</ele>
        <time>2023-12-04T21:12:53.756Z</time>
      </trkpt>
      <trkpt lat="38.193966" lon="15.898015">
        <ele>1364.032603</ele>
        <time>2023-12-04T21:12:56.603Z</time>
      </trkpt>
      <trkpt lat="38.194064" lon="15.897858">
        <ele>1362.987004</ele>
        <time>2023-12-04T21:12:58.597Z</time>
      </trkpt>
      <trkpt lat="38.194157" lon="15.897810">
        <ele>1362.321048</ele>
        <time>2023-12-04T21:12:59.877Z</time>
      </trkpt>
      <trkpt lat="38.195075" lon="15.897621">
        <ele>1356.721641</ele>
        <time>2023-12-04T21:13:11.959Z</time>
      </trkpt>
      <trkpt lat="38.195831" lon="15.897400">
        <ele>1353.609913</ele>
        <time>2023-12-04T21:13:22.739Z</time>
      </trkpt>
      <trkpt lat="38.196221" lon="15.897219">
        <ele>1351.944596</ele>
        <time>2023-12-04T21:13:28.891Z</time>
      </trkpt>
      <trkpt lat="38.196470" lon="15.897026">
        <ele>1350.774993</ele>
        <time>2023-12-04T21:13:33.311Z</time>
      </trkpt>
      <trkpt lat="38.196532" lon="15.896844">
        <ele>1350.087799</ele>
        <time>2023-12-04T21:13:35.815Z</time>
      </trkpt>
      <trkpt lat="38.196563" lon="15.896604">
        <ele>1349.115033</ele>
        <time>2023-12-04T21:13:38.715Z</time>
      </trkpt>
      <trkpt lat="38.196637" lon="15.896422">
        <ele>1348.295470</ele>
        <time>2023-12-04T21:13:41.072Z</time>
      </trkpt>
      <trkpt lat="38.196853" lon="15.896229">
        <ele>1346.952263</ele>
        <time>2023-12-04T21:13:44.794Z</time>
      </trkpt>
      <trkpt lat="38.197094" lon="15.896077">
        <ele>1345.583382</ele>
        <time>2023-12-04T21:13:48.460Z</time>
      </trkpt>
      <trkpt lat="38.197307" lon="15.896042">
        <ele>1344.490392</ele>
        <time>2023-12-04T21:13:51.288Z</time>
      </trkpt>
      <trkpt lat="38.197783" lon="15.896247">
        <ele>1341.932970</ele>
        <time>2023-12-04T21:13:57.730Z</time>
      </trkpt>
      <trkpt lat="38.198860" lon="15.896633">
        <ele>1334.672619</ele>
        <time>2023-12-04T21:14:11.977Z</time>
      </trkpt>
      <trkpt lat="38.199027" lon="15.896684">
        <ele>1333.524157</ele>
        <time>2023-12-04T21:14:14.187Z</time>
      </trkpt>
      <trkpt lat="38.199180" lon="15.896654">
        <ele>1332.488950</ele>
        <time>2023-12-04T21:14:16.198Z</time>
      </trkpt>
      <trkpt lat="38.199360" lon="15.896546">
        <ele>1331.158169</ele>
        <time>2023-12-04T21:14:18.786Z</time>
      </trkpt>
      <trkpt lat="38.199718" lon="15.896134">
        <ele>1327.999224</ele>
        <time>2023-12-04T21:14:25.186Z</time>
      </trkpt>
      <trkpt lat="38.200040" lon="15.895826">
        <ele>1325.451824</ele>
        <time>2023-12-04T21:14:30.584Z</time>
      </trkpt>
      <trkpt lat="38.200179" lon="15.895640">
        <ele>1324.176256</ele>
        <time>2023-12-04T21:14:33.285Z</time>
      </trkpt>
      <trkpt lat="38.200689" lon="15.894760">
        <ele>1318.742410</ele>
        <time>2023-12-04T21:14:44.484Z</time>
      </trkpt>
      <trkpt lat="38.200830" lon="15.894548">
        <ele>1317.163448</ele>
        <time>2023-12-04T21:14:47.229Z</time>
      </trkpt>
      <trkpt lat="38.200905" lon="15.894479">
        <ele>1316.326422</ele>
        <time>2023-12-04T21:14:48.382Z</time>
      </trkpt>
      <trkpt lat="38.201046" lon="15.894448">
        <ele>1315.032294</ele>
        <time>2023-12-04T21:14:50.164Z</time>
      </trkpt>
      <trkpt lat="38.201353" lon="15.894477">
        <ele>1312.248082</ele>
        <time>2023-12-04T21:14:53.977Z</time>
      </trkpt>
      <trkpt lat="38.201545" lon="15.894448">
        <ele>1310.499404</ele>
        <time>2023-12-04T21:14:56.359Z</time>
      </trkpt>
      <trkpt lat="38.202143" lon="15.894001">
        <ele>1304.226905</ele>
        <time>2023-12-04T21:15:04.843Z</time>
      </trkpt>
      <trkpt lat="38.202368" lon="15.893794">
        <ele>1301.715843</ele>
        <time>2023-12-04T21:15:08.240Z</time>
      </trkpt>
      <trkpt lat="38.202574" lon="15.893495">
        <ele>1299.104659</ele>
        <time>2023-12-04T21:15:12.085Z</time>
      </trkpt>
      <trkpt lat="38.202649" lon="15.893322">
        <ele>1297.813587</ele>
        <time>2023-12-04T21:15:13.998Z</time>
      </trkpt>
      <trkpt lat="38.202703" lon="15.893265">
        <ele>1297.230189</ele>
        <time>2023-12-04T21:15:14.875Z</time>
      </trkpt>
      <trkpt lat="38.203079" lon="15.893124">
        <ele>1293.970699</ele>
        <time>2023-12-04T21:15:19.768Z</time>
      </trkpt>
      <trkpt lat="38.203285" lon="15.893130">
        <ele>1292.257293</ele>
        <time>2023-12-04T21:15:22.371Z</time>
      </trkpt>
      <trkpt lat="38.203465" lon="15.893066">
        <ele>1290.703210</ele>
        <time>2023-12-04T21:15:24.738Z</time>
      </trkpt>
      <trkpt lat="38.203488" lon="15.892996">
        <ele>1290.207432</ele>
        <time>2023-12-04T21:15:25.502Z</time>
      </trkpt>
      <trkpt lat="38.203357" lon="15.892785">
        <ele>1288.450293</ele>
        <time>2023-12-04T21:15:28.181Z</time>
      </trkpt>
      <trkpt lat="38.203348" lon="15.892732">
        <ele>1288.095979</ele>
        <time>2023-12-04T21:15:28.723Z</time>
      </trkpt>
      <trkpt lat="38.203375" lon="15.892633">
        <ele>1287.411225</ele>
        <time>2023-12-04T21:15:29.771Z</time>
      </trkpt>
      <trkpt lat="38.203412" lon="15.892619">
        <ele>1287.090246</ele>
        <time>2023-12-04T21:15:30.253Z</time>
      </trkpt>
      <trkpt lat="38.203540" lon="15.892659">
        <ele>1285.946848</ele>
        <time>2023-12-04T21:15:31.927Z</time>
      </trkpt>
      <trkpt lat="38.203660" lon="15.892748">
        <ele>1284.701590</ele>
        <time>2023-12-04T21:15:33.686Z</time>
      </trkpt>
      <trkpt lat="38.203966" lon="15.892903">
        <ele>1281.748771</ele>
        <time>2023-12-04T21:15:37.842Z</time>
      </trkpt>
      <trkpt lat="38.204033" lon="15.892872">
        <ele>1281.109604</ele>
        <time>2023-12-04T21:15:38.740Z</time>
      </trkpt>
      <trkpt lat="38.204072" lon="15.892823">
        <ele>1280.618242</ele>
        <time>2023-12-04T21:15:39.426Z</time>
      </trkpt>
      <trkpt lat="38.204085" lon="15.892741">
        <ele>1280.028889</ele>
        <time>2023-12-04T21:15:40.250Z</time>
      </trkpt>
      <trkpt lat="38.204091" lon="15.892565">
        <ele>1278.787755</ele>
        <time>2023-12-04T21:15:41.979Z</time>
      </trkpt>
      <trkpt lat="38.204067" lon="15.892479">
        <ele>1278.144787</ele>
        <time>2023-12-04T21:15:42.863Z</time>
      </trkpt>
      <trkpt lat="38.203825" lon="15.892204">
        <ele>1275.235972</ele>
        <time>2023-12-04T21:15:46.879Z</time>
      </trkpt>
      <trkpt lat="38.203669" lon="15.892130">
        <ele>1273.743330</ele>
        <time>2023-12-04T21:15:48.904Z</time>
      </trkpt>
      <trkpt lat="38.203664" lon="15.892082">
        <ele>1273.402197</ele>
        <time>2023-12-04T21:15:49.373Z</time>
      </trkpt>
      <trkpt lat="38.203720" lon="15.892016">
        <ele>1272.717877</ele>
        <time>2023-12-04T21:15:50.293Z</time>
      </trkpt>
      <trkpt lat="38.204121" lon="15.891857">
        <ele>1268.669618</ele>
        <time>2023-12-04T21:15:55.383Z</time>
      </trkpt>
      <trkpt lat="38.204801" lon="15.891459">
        <ele>1260.713582</ele>
        <time>2023-12-04T21:16:04.360Z</time>
      </trkpt>
      <trkpt lat="38.205268" lon="15.891321">
        <ele>1255.617451</ele>
        <time>2023-12-04T21:16:10.122Z</time>
      </trkpt>
      <trkpt lat="38.206118" lon="15.890955">
        <ele>1247.930640</ele>
        <time>2023-12-04T21:16:21.180Z</time>
      </trkpt>
      <trkpt lat="38.206544" lon="15.890700">
        <ele>1244.682462</ele>
        <time>2023-12-04T21:16:27.258Z</time>
      </trkpt>
      <trkpt lat="38.206650" lon="15.890686">
        <ele>1243.947168</ele>
        <time>2023-12-04T21:16:28.647Z</time>
      </trkpt>
      <trkpt lat="38.206691" lon="15.890729">
        <ele>1243.580595</ele>
        <time>2023-12-04T21:16:29.356Z</time>
      </trkpt>
      <trkpt lat="38.206757" lon="15.890891">
        <ele>1242.591254</ele>
        <time>2023-12-04T21:16:31.276Z</time>
      </trkpt>
      <trkpt lat="38.206792" lon="15.890927">
        <ele>1242.280751</ele>
        <time>2023-12-04T21:16:31.890Z</time>
      </trkpt>
      <trkpt lat="38.206834" lon="15.890925">
        <ele>1241.990762</ele>
        <time>2023-12-04T21:16:32.440Z</time>
      </trkpt>
      <trkpt lat="38.206882" lon="15.890846">
        <ele>1241.449344</ele>
        <time>2023-12-04T21:16:33.500Z</time>
      </trkpt>
      <trkpt lat="38.206878" lon="15.890774">
        <ele>1241.058011</ele>
        <time>2023-12-04T21:16:34.259Z</time>
      </trkpt>
      <trkpt lat="38.206763" lon="15.890609">
        <ele>1239.862250</ele>
        <time>2023-12-04T21:16:36.617Z</time>
      </trkpt>
      <trkpt lat="38.206601" lon="15.890487">
        <ele>1238.596965</ele>
        <time>2023-12-04T21:16:39.137Z</time>
      </trkpt>
      <trkpt lat="38.206570" lon="15.890436">
        <ele>1238.278040</ele>
        <time>2023-12-04T21:16:39.813Z</time>
      </trkpt>
      <trkpt lat="38.206585" lon="15.890340">
        <ele>1237.793901</ele>
        <time>2023-12-04T21:16:40.858Z</time>
      </trkpt>
      <trkpt lat="38.206615" lon="15.890318">
        <ele>1237.575950</ele>
        <time>2023-12-04T21:16:41.342Z</time>
      </trkpt>
      <trkpt lat="38.207000" lon="15.890328">
        <ele>1235.151988</ele>
        <time>2023-12-04T21:16:46.561Z</time>
      </trkpt>
      <trkpt lat="38.207153" lon="15.890508">
        <ele>1233.840418</ele>
        <time>2023-12-04T21:16:49.358Z</time>
      </trkpt>
      <trkpt lat="38.207197" lon="15.890747">
        <ele>1232.626255</ele>
        <time>2023-12-04T21:16:51.928Z</time>
      </trkpt>
      <trkpt lat="38.207273" lon="15.890838">
        <ele>1231.969398</ele>
        <time>2023-12-04T21:16:53.279Z</time>
      </trkpt>
      <trkpt lat="38.207311" lon="15.890846">
        <ele>1231.726949</ele>
        <time>2023-12-04T21:16:53.787Z</time>
      </trkpt>
      <trkpt lat="38.207422" lon="15.890733">
        <ele>1230.832190</ele>
        <time>2023-12-04T21:16:55.635Z</time>
      </trkpt>
      <trkpt lat="38.207485" lon="15.890447">
        <ele>1229.363037</ele>
        <time>2023-12-04T21:16:58.587Z</time>
      </trkpt>
      <trkpt lat="38.207470" lon="15.890311">
        <ele>1228.683756</ele>
        <time>2023-12-04T21:16:59.949Z</time>
      </trkpt>
      <trkpt lat="38.207352" lon="15.889848">
        <ele>1226.012362</ele>
        <time>2023-12-04T21:17:04.691Z</time>
      </trkpt>
      <trkpt lat="38.207239" lon="15.889568">
        <ele>1224.150581</ele>
        <time>2023-12-04T21:17:07.747Z</time>
      </trkpt>
      <trkpt lat="38.207125" lon="15.889524">
        <ele>1223.253880</ele>
        <time>2023-12-04T21:17:09.230Z</time>
      </trkpt>
      <trkpt lat="38.206921" lon="15.889558">
        <ele>1221.705213</ele>
        <time>2023-12-04T21:17:11.790Z</time>
      </trkpt>
      <trkpt lat="38.206817" lon="15.889546">
        <ele>1220.919171</ele>
        <time>2023-12-04T21:17:13.086Z</time>
      </trkpt>
      <trkpt lat="38.206724" lon="15.889588">
        <ele>1220.176367</ele>
        <time>2023-12-04T21:17:14.318Z</time>
      </trkpt>
      <trkpt lat="38.206558" lon="15.889604">
        <ele>1218.923268</ele>
        <time>2023-12-04T21:17:16.417Z</time>
      </trkpt>
      <trkpt lat="38.206368" lon="15.889458">
        <ele>1217.252600</ele>
        <time>2023-12-04T21:17:19.241Z</time>
      </trkpt>
      <trkpt lat="38.206162" lon="15.889388">
        <ele>1215.647666</ele>
        <time>2023-12-04T21:17:22.007Z</time>
      </trkpt>
      <trkpt lat="38.206127" lon="15.889343">
        <ele>1215.273163</ele>
        <time>2023-12-04T21:17:22.658Z</time>
      </trkpt>
      <trkpt lat="38.206117" lon="15.889267">
        <ele>1214.817378</ele>
        <time>2023-12-04T21:17:23.459Z</time>
      </trkpt>
      <trkpt lat="38.206151" lon="15.889181">
        <ele>1214.247950</ele>
        <time>2023-12-04T21:17:24.450Z</time>
      </trkpt>
      <trkpt lat="38.206231" lon="15.889138">
        <ele>1213.831512</ele>
        <time>2023-12-04T21:17:25.604Z</time>
      </trkpt>
      <trkpt lat="38.206324" lon="15.889154">
        <ele>1213.466680</ele>
        <time>2023-12-04T21:17:26.859Z</time>
      </trkpt>
      <trkpt lat="38.206467" lon="15.889251">
        <ele>1212.836720</ele>
        <time>2023-12-04T21:17:29.068Z</time>
      </trkpt>
      <trkpt lat="38.206608" lon="15.889307">
        <ele>1212.262501</ele>
        <time>2023-12-04T21:17:31.108Z</time>
      </trkpt>
      <trkpt lat="38.206786" lon="15.889247">
        <ele>1211.546654</ele>
        <time>2023-12-04T21:17:33.759Z</time>
      </trkpt>
      <trkpt lat="38.206918" lon="15.889245">
        <ele>1211.033460</ele>
        <time>2023-12-04T21:17:35.722Z</time>
      </trkpt>
      <trkpt lat="38.207302" lon="15.889090">
        <ele>1209.467348</ele>
        <time>2023-12-04T21:17:41.799Z</time>
      </trkpt>
      <trkpt lat="38.207597" lon="15.889052">
        <ele>1208.314659</ele>
        <time>2023-12-04T21:17:46.175Z</time>
      </trkpt>
      <trkpt lat="38.207677" lon="15.889073">
        <ele>1207.997108</ele>
        <time>2023-12-04T21:17:47.343Z</time>
      </trkpt>
      <trkpt lat="38.207989" lon="15.889515">
        <ele>1205.996564</ele>
        <time>2023-12-04T21:17:53.920Z</time>
      </trkpt>
      <trkpt lat="38.208090" lon="15.889750">
        <ele>1205.011586</ele>
        <time>2023-12-04T21:17:56.881Z</time>
      </trkpt>
      <trkpt lat="38.208107" lon="15.889873">
        <ele>1204.552338</ele>
        <time>2023-12-04T21:17:58.248Z</time>
      </trkpt>
      <trkpt lat="38.208135" lon="15.889934">
        <ele>1204.292556</ele>
        <time>2023-12-04T21:17:59.037Z</time>
      </trkpt>
      <trkpt lat="38.208169" lon="15.889940">
        <ele>1204.131919</ele>
        <time>2023-12-04T21:17:59.515Z</time>
      </trkpt>
      <trkpt lat="38.208210" lon="15.889853">
        <ele>1203.758870</ele>
        <time>2023-12-04T21:18:00.642Z</time>
      </trkpt>
      <trkpt lat="38.208159" lon="15.889521">
        <ele>1202.514906</ele>
        <time>2023-12-04T21:18:04.408Z</time>
      </trkpt>
      <trkpt lat="38.208160" lon="15.889366">
        <ele>1201.944910</ele>
        <time>2023-12-04T21:18:06.139Z</time>
      </trkpt>
      <trkpt lat="38.208067" lon="15.889083">
        <ele>1200.816899</ele>
        <time>2023-12-04T21:18:09.525Z</time>
      </trkpt>
      <trkpt lat="38.207871" lon="15.888819">
        <ele>1199.481309</ele>
        <time>2023-12-04T21:18:13.368Z</time>
      </trkpt>
      <trkpt lat="38.207906" lon="15.888732">
        <ele>1199.121893</ele>
        <time>2023-12-04T21:18:14.373Z</time>
      </trkpt>
      <trkpt lat="38.207954" lon="15.888721">
        <ele>1198.893648</ele>
        <time>2023-12-04T21:18:15.003Z</time>
      </trkpt>
      <trkpt lat="38.207992" lon="15.888732">
        <ele>1198.711272</ele>
        <time>2023-12-04T21:18:15.512Z</time>
      </trkpt>
      <trkpt lat="38.208105" lon="15.888885">
        <ele>1197.548948</ele>
        <time>2023-12-04T21:18:17.613Z</time>
      </trkpt>
      <trkpt lat="38.208262" lon="15.889171">
        <ele>1195.585978</ele>
        <time>2023-12-04T21:18:21.007Z</time>
      </trkpt>
      <trkpt lat="38.208345" lon="15.889393">
        <ele>1194.202718</ele>
        <time>2023-12-04T21:18:23.391Z</time>
      </trkpt>
      <trkpt lat="38.208470" lon="15.889599">
        <ele>1192.738297</ele>
        <time>2023-12-04T21:18:25.921Z</time>
      </trkpt>
      <trkpt lat="38.208532" lon="15.889753">
        <ele>1191.764711</ele>
        <time>2023-12-04T21:18:27.606Z</time>
      </trkpt>
      <trkpt lat="38.208575" lon="15.889779">
        <ele>1191.423826</ele>
        <time>2023-12-04T21:18:28.201Z</time>
      </trkpt>
      <trkpt lat="38.208613" lon="15.889759">
        <ele>1191.129377</ele>
        <time>2023-12-04T21:18:28.721Z</time>
      </trkpt>
      <trkpt lat="38.208656" lon="15.889701">
        <ele>1190.680716</ele>
        <time>2023-12-04T21:18:29.523Z</time>
      </trkpt>
      <trkpt lat="38.208688" lon="15.889550">
        <ele>1189.800767</ele>
        <time>2023-12-04T21:18:31.099Z</time>
      </trkpt>
      <trkpt lat="38.208578" lon="15.888937">
        <ele>1186.262962</ele>
        <time>2023-12-04T21:18:37.630Z</time>
      </trkpt>
      <trkpt lat="38.208503" lon="15.888731">
        <ele>1185.135180</ele>
        <time>2023-12-04T21:18:40.049Z</time>
      </trkpt>
      <trkpt lat="38.208447" lon="15.888654">
        <ele>1184.653836</ele>
        <time>2023-12-04T21:18:41.139Z</time>
      </trkpt>
      <trkpt lat="38.208138" lon="15.888399">
        <ele>1182.503617</ele>
        <time>2023-12-04T21:18:45.957Z</time>
      </trkpt>
      <trkpt lat="38.208125" lon="15.888347">
        <ele>1182.253270</ele>
        <time>2023-12-04T21:18:46.517Z</time>
      </trkpt>
      <trkpt lat="38.208156" lon="15.888306">
        <ele>1181.992233</ele>
        <time>2023-12-04T21:18:47.090Z</time>
      </trkpt>
      <trkpt lat="38.208248" lon="15.888299">
        <ele>1181.454126</ele>
        <time>2023-12-04T21:18:48.270Z</time>
      </trkpt>
      <trkpt lat="38.208429" lon="15.888432">
        <ele>1180.233843</ele>
        <time>2023-12-04T21:18:50.923Z</time>
      </trkpt>
      <trkpt lat="38.208536" lon="15.888603">
        <ele>1179.230983</ele>
        <time>2023-12-04T21:18:53.120Z</time>
      </trkpt>
      <trkpt lat="38.208703" lon="15.888751">
        <ele>1178.042824</ele>
        <time>2023-12-04T21:18:55.774Z</time>
      </trkpt>
      <trkpt lat="38.208704" lon="15.888751">
        <ele>1178.036985</ele>
        <time>2023-12-04T21:18:55.780Z</time>
      </trkpt>
      <trkpt lat="38.208813" lon="15.889015">
        <ele>1176.668806</ele>
        <time>2023-12-04T21:18:58.912Z</time>
      </trkpt>
      <trkpt lat="38.208826" lon="15.889097">
        <ele>1176.285033</ele>
        <time>2023-12-04T21:18:59.800Z</time>
      </trkpt>
      <trkpt lat="38.208864" lon="15.889161">
        <ele>1175.917020</ele>
        <time>2023-12-04T21:19:00.684Z</time>
      </trkpt>
      <trkpt lat="38.208902" lon="15.889172">
        <ele>1175.689488</ele>
        <time>2023-12-04T21:19:01.235Z</time>
      </trkpt>
      <trkpt lat="38.208924" lon="15.889122">
        <ele>1175.426587</ele>
        <time>2023-12-04T21:19:01.877Z</time>
      </trkpt>
      <trkpt lat="38.208886" lon="15.888811">
        <ele>1173.239058</ele>
        <time>2023-12-04T21:19:05.415Z</time>
      </trkpt>
      <trkpt lat="38.208838" lon="15.888643">
        <ele>1171.954118</ele>
        <time>2023-12-04T21:19:07.432Z</time>
      </trkpt>
      <trkpt lat="38.208759" lon="15.888487">
        <ele>1170.620084</ele>
        <time>2023-12-04T21:19:09.472Z</time>
      </trkpt>
      <trkpt lat="38.208631" lon="15.888319">
        <ele>1168.938023</ele>
        <time>2023-12-04T21:19:11.979Z</time>
      </trkpt>
      <trkpt lat="38.208630" lon="15.888236">
        <ele>1168.341346</ele>
        <time>2023-12-04T21:19:12.833Z</time>
      </trkpt>
      <trkpt lat="38.208697" lon="15.888197">
        <ele>1167.667373</ele>
        <time>2023-12-04T21:19:13.782Z</time>
      </trkpt>
      <trkpt lat="38.208737" lon="15.888228">
        <ele>1167.238951</ele>
        <time>2023-12-04T21:19:14.373Z</time>
      </trkpt>
      <trkpt lat="38.209091" lon="15.888846">
        <ele>1161.741694</ele>
        <time>2023-12-04T21:19:21.630Z</time>
      </trkpt>
      <trkpt lat="38.209144" lon="15.889053">
        <ele>1160.176782</ele>
        <time>2023-12-04T21:19:23.629Z</time>
      </trkpt>
      <trkpt lat="38.209174" lon="15.889126">
        <ele>1159.584626</ele>
        <time>2023-12-04T21:19:24.384Z</time>
      </trkpt>
      <trkpt lat="38.209198" lon="15.889112">
        <ele>1159.343114</ele>
        <time>2023-12-04T21:19:24.682Z</time>
      </trkpt>
      <trkpt lat="38.209193" lon="15.888983">
        <ele>1158.046738</ele>
        <time>2023-12-04T21:19:25.858Z</time>
      </trkpt>
      <trkpt lat="38.209119" lon="15.888724">
        <ele>1154.355290</ele>
        <time>2023-12-04T21:19:28.363Z</time>
      </trkpt>
      <trkpt lat="38.209101" lon="15.888563">
        <ele>1152.177025</ele>
        <time>2023-12-04T21:19:29.841Z</time>
      </trkpt>
      <trkpt lat="38.209097" lon="15.888383">
        <ele>1149.765018</ele>
        <time>2023-12-04T21:19:31.476Z</time>
      </trkpt>
      <trkpt lat="38.209131" lon="15.888133">
        <ele>1146.366558</ele>
        <time>2023-12-04T21:19:33.776Z</time>
      </trkpt>
      <trkpt lat="38.209208" lon="15.888005">
        <ele>1144.207275</ele>
        <time>2023-12-04T21:19:35.245Z</time>
      </trkpt>
      <trkpt lat="38.209435" lon="15.887850">
        <ele>1139.815862</ele>
        <time>2023-12-04T21:19:38.208Z</time>
      </trkpt>
      <trkpt lat="38.209919" lon="15.887384">
        <ele>1129.470118</ele>
        <time>2023-12-04T21:19:45.191Z</time>
      </trkpt>
      <trkpt lat="38.209977" lon="15.887264">
        <ele>1127.753479</ele>
        <time>2023-12-04T21:19:46.462Z</time>
      </trkpt>
      <trkpt lat="38.209961" lon="15.887117">
        <ele>1126.333471</ele>
        <time>2023-12-04T21:19:47.802Z</time>
      </trkpt>
      <trkpt lat="38.209923" lon="15.887087">
        <ele>1125.788917</ele>
        <time>2023-12-04T21:19:48.316Z</time>
      </trkpt>
      <trkpt lat="38.209605" lon="15.887375">
        <ele>1121.035993</ele>
        <time>2023-12-04T21:19:52.852Z</time>
      </trkpt>
      <trkpt lat="38.209539" lon="15.887408">
        <ele>1120.172467</ele>
        <time>2023-12-04T21:19:53.686Z</time>
      </trkpt>
      <trkpt lat="38.209493" lon="15.887403">
        <ele>1119.610257</ele>
        <time>2023-12-04T21:19:54.234Z</time>
      </trkpt>
      <trkpt lat="38.209467" lon="15.887368">
        <ele>1119.149382</ele>
        <time>2023-12-04T21:19:54.675Z</time>
      </trkpt>
      <trkpt lat="38.209446" lon="15.887310">
        <ele>1118.538317</ele>
        <time>2023-12-04T21:19:55.276Z</time>
      </trkpt>
      <trkpt lat="38.209462" lon="15.887249">
        <ele>1117.922969</ele>
        <time>2023-12-04T21:19:55.889Z</time>
      </trkpt>
      <trkpt lat="38.209965" lon="15.886800">
        <ele>1110.441127</ele>
        <time>2023-12-04T21:20:03.463Z</time>
      </trkpt>
      <trkpt lat="38.210042" lon="15.886774">
        <ele>1109.471008</ele>
        <time>2023-12-04T21:20:04.478Z</time>
      </trkpt>
      <trkpt lat="38.210113" lon="15.886785">
        <ele>1108.600014</ele>
        <time>2023-12-04T21:20:05.386Z</time>
      </trkpt>
      <trkpt lat="38.210303" lon="15.887137">
        <ele>1104.889879</ele>
        <time>2023-12-04T21:20:09.632Z</time>
      </trkpt>
      <trkpt lat="38.210330" lon="15.887275">
        <ele>1103.819456</ele>
        <time>2023-12-04T21:20:11.029Z</time>
      </trkpt>
      <trkpt lat="38.210243" lon="15.887548">
        <ele>1101.602051</ele>
        <time>2023-12-04T21:20:13.889Z</time>
      </trkpt>
      <trkpt lat="38.210267" lon="15.887650">
        <ele>1100.800627</ele>
        <time>2023-12-04T21:20:14.922Z</time>
      </trkpt>
      <trkpt lat="38.210310" lon="15.887675">
        <ele>1100.347773</ele>
        <time>2023-12-04T21:20:15.505Z</time>
      </trkpt>
      <trkpt lat="38.210374" lon="15.887642">
        <ele>1099.686295</ele>
        <time>2023-12-04T21:20:16.344Z</time>
      </trkpt>
      <trkpt lat="38.210448" lon="15.887543">
        <ele>1098.657825</ele>
        <time>2023-12-04T21:20:17.659Z</time>
      </trkpt>
      <trkpt lat="38.210489" lon="15.887379">
        <ele>1097.362449</ele>
        <time>2023-12-04T21:20:19.310Z</time>
      </trkpt>
      <trkpt lat="38.210482" lon="15.887072">
        <ele>1095.050736</ele>
        <time>2023-12-04T21:20:22.249Z</time>
      </trkpt>
      <trkpt lat="38.210447" lon="15.886772">
        <ele>1092.767929</ele>
        <time>2023-12-04T21:20:25.164Z</time>
      </trkpt>
      <trkpt lat="38.210465" lon="15.886580">
        <ele>1091.312525</ele>
        <time>2023-12-04T21:20:27.020Z</time>
      </trkpt>
      <trkpt lat="38.210564" lon="15.886439">
        <ele>1089.889260</ele>
        <time>2023-12-04T21:20:28.825Z</time>
      </trkpt>
      <trkpt lat="38.210749" lon="15.886308">
        <ele>1087.697334</ele>
        <time>2023-12-04T21:20:31.411Z</time>
      </trkpt>
      <trkpt lat="38.211101" lon="15.885984">
        <ele>1082.960643</ele>
        <time>2023-12-04T21:20:36.655Z</time>
      </trkpt>
      <trkpt lat="38.211144" lon="15.885994">
        <ele>1082.484022</ele>
        <time>2023-12-04T21:20:37.174Z</time>
      </trkpt>
      <trkpt lat="38.211194" lon="15.886091">
        <ele>1081.490117</ele>
        <time>2023-12-04T21:20:38.270Z</time>
      </trkpt>
      <trkpt lat="38.211257" lon="15.886432">
        <ele>1078.488963</ele>
        <time>2023-12-04T21:20:41.568Z</time>
      </trkpt>
      <trkpt lat="38.211312" lon="15.886611">
        <ele>1076.842313</ele>
        <time>2023-12-04T21:20:43.381Z</time>
      </trkpt>
      <trkpt lat="38.211358" lon="15.886701">
        <ele>1075.922470</ele>
        <time>2023-12-04T21:20:44.388Z</time>
      </trkpt>
      <trkpt lat="38.211438" lon="15.886723">
        <ele>1075.030047</ele>
        <time>2023-12-04T21:20:45.376Z</time>
      </trkpt>
      <trkpt lat="38.211486" lon="15.886695">
        <ele>1074.454314</ele>
        <time>2023-12-04T21:20:45.999Z</time>
      </trkpt>
      <trkpt lat="38.211513" lon="15.886640">
        <ele>1073.898702</ele>
        <time>2023-12-04T21:20:46.612Z</time>
      </trkpt>
      <trkpt lat="38.211580" lon="15.886394">
        <ele>1071.668109</ele>
        <time>2023-12-04T21:20:49.069Z</time>
      </trkpt>
      <trkpt lat="38.211603" lon="15.886188">
        <ele>1069.885506</ele>
        <time>2023-12-04T21:20:51.047Z</time>
      </trkpt>
      <trkpt lat="38.211596" lon="15.885990">
        <ele>1068.383506</ele>
        <time>2023-12-04T21:20:52.938Z</time>
      </trkpt>
      <trkpt lat="38.211626" lon="15.885884">
        <ele>1067.569925</ele>
        <time>2023-12-04T21:20:54.017Z</time>
      </trkpt>
      <trkpt lat="38.211704" lon="15.885865">
        <ele>1066.840067</ele>
        <time>2023-12-04T21:20:54.995Z</time>
      </trkpt>
      <trkpt lat="38.211750" lon="15.885918">
        <ele>1066.269808</ele>
        <time>2023-12-04T21:20:55.766Z</time>
      </trkpt>
      <trkpt lat="38.211817" lon="15.886103">
        <ele>1064.798823</ele>
        <time>2023-12-04T21:20:57.744Z</time>
      </trkpt>
      <trkpt lat="38.211943" lon="15.886682">
        <ele>1060.460408</ele>
        <time>2023-12-04T21:21:03.652Z</time>
      </trkpt>
      <trkpt lat="38.211897" lon="15.886903">
        <ele>1058.809499</ele>
        <time>2023-12-04T21:21:05.896Z</time>
      </trkpt>
      <trkpt lat="38.211902" lon="15.887024">
        <ele>1057.934538</ele>
        <time>2023-12-04T21:21:07.090Z</time>
      </trkpt>
      <trkpt lat="38.211927" lon="15.887085">
        <ele>1057.437730</ele>
        <time>2023-12-04T21:21:07.754Z</time>
      </trkpt>
      <trkpt lat="38.212007" lon="15.887138">
        <ele>1056.608857</ele>
        <time>2023-12-04T21:21:08.881Z</time>
      </trkpt>
      <trkpt lat="38.212097" lon="15.887052">
        <ele>1055.574545</ele>
        <time>2023-12-04T21:21:10.268Z</time>
      </trkpt>
      <trkpt lat="38.212154" lon="15.886937">
        <ele>1054.592699</ele>
        <time>2023-12-04T21:21:11.590Z</time>
      </trkpt>
      <trkpt lat="38.212420" lon="15.886666">
        <ele>1051.494219</ele>
        <time>2023-12-04T21:21:15.777Z</time>
      </trkpt>
      <trkpt lat="38.212420" lon="15.886666">
        <ele>1051.494219</ele>
        <time>2023-12-04T21:21:15.778Z</time>
      </trkpt>
      <trkpt lat="38.212460" lon="15.886581">
        <ele>1050.795080</ele>
        <time>2023-12-04T21:21:16.729Z</time>
      </trkpt>
      <trkpt lat="38.212539" lon="15.886221">
        <ele>1048.157575</ele>
        <time>2023-12-04T21:21:20.330Z</time>
      </trkpt>
      <trkpt lat="38.212623" lon="15.886095">
        <ele>1046.991560</ele>
        <time>2023-12-04T21:21:21.932Z</time>
      </trkpt>
      <trkpt lat="38.212707" lon="15.886074">
        <ele>1046.222762</ele>
        <time>2023-12-04T21:21:23.006Z</time>
      </trkpt>
      <trkpt lat="38.213088" lon="15.886125">
        <ele>1042.782229</ele>
        <time>2023-12-04T21:21:27.756Z</time>
      </trkpt>
      <trkpt lat="38.213258" lon="15.886102">
        <ele>1041.246902</ele>
        <time>2023-12-04T21:21:29.873Z</time>
      </trkpt>
      <trkpt lat="38.214889" lon="15.885484">
        <ele>1026.868608</ele>
        <time>2023-12-04T21:21:51.016Z</time>
      </trkpt>
      <trkpt lat="38.214993" lon="15.885494">
        <ele>1026.010494</ele>
        <time>2023-12-04T21:21:52.336Z</time>
      </trkpt>
      <trkpt lat="38.215116" lon="15.885560">
        <ele>1024.912233</ele>
        <time>2023-12-04T21:21:54.033Z</time>
      </trkpt>
      <trkpt lat="38.216523" lon="15.886711">
        <ele>1011.917548</ele>
        <time>2023-12-04T21:22:15.361Z</time>
      </trkpt>
      <trkpt lat="38.217588" lon="15.887532">
        <ele>1002.737732</ele>
        <time>2023-12-04T21:22:30.890Z</time>
      </trkpt>
      <trkpt lat="38.218158" lon="15.887755">
        <ele>998.444660</ele>
        <time>2023-12-04T21:22:38.333Z</time>
      </trkpt>
      <trkpt lat="38.218499" lon="15.887774">
        <ele>995.987351</ele>
        <time>2023-12-04T21:22:42.869Z</time>
      </trkpt>
      <trkpt lat="38.218711" lon="15.887898">
        <ele>995.254475</ele>
        <time>2023-12-04T21:22:46.169Z</time>
      </trkpt>
      <trkpt lat="38.219004" lon="15.887902">
        <ele>995.251469</ele>
        <time>2023-12-04T21:22:50.564Z</time>
      </trkpt>
      <trkpt lat="38.219027" lon="15.887863">
        <ele>995.251076</ele>
        <time>2023-12-04T21:22:51.177Z</time>
      </trkpt>
      <trkpt lat="38.219004" lon="15.887804">
        <ele>995.250545</ele>
        <time>2023-12-04T21:22:52.117Z</time>
      </trkpt>
      <trkpt lat="38.219157" lon="15.887847">
        <ele>995.248937</ele>
        <time>2023-12-04T21:22:53.849Z</time>
      </trkpt>
      <trkpt lat="38.219004" lon="15.887804">
        <ele>995.247329</ele>
        <time>2023-12-04T21:22:56.173Z</time>
      </trkpt>
      <trkpt lat="38.218785" lon="15.887665">
        <ele>995.244818</ele>
        <time>2023-12-04T21:22:59.871Z</time>
      </trkpt>
      <trkpt lat="38.218522" lon="15.887418">
        <ele>995.241465</ele>
        <time>2023-12-04T21:23:06.414Z</time>
      </trkpt>
      <trkpt lat="38.218211" lon="15.887211">
        <ele>995.237863</ele>
        <time>2023-12-04T21:23:15.774Z</time>
      </trkpt>
      <trkpt lat="38.217934" lon="15.887070">
        <ele>995.895289</ele>
        <time>2023-12-04T21:23:26.094Z</time>
      </trkpt>
      <trkpt lat="38.217727" lon="15.886868">
        <ele>996.580759</ele>
        <time>2023-12-04T21:23:36.523Z</time>
      </trkpt>
      <trkpt lat="38.217548" lon="15.886539">
        <ele>997.407022</ele>
        <time>2023-12-04T21:23:49.001Z</time>
      </trkpt>
      <trkpt lat="38.217498" lon="15.886251">
        <ele>998.016001</ele>
        <time>2023-12-04T21:23:57.146Z</time>
      </trkpt>
      <trkpt lat="38.217440" lon="15.886143">
        <ele>998.286105</ele>
        <time>2023-12-04T21:24:00.098Z</time>
      </trkpt>
      <trkpt lat="38.217304" lon="15.886010">
        <ele>998.736822</ele>
        <time>2023-12-04T21:24:04.290Z</time>
      </trkpt>
      <trkpt lat="38.216678" lon="15.885822">
        <ele>998.734487</ele>
        <time>2023-12-04T21:24:11.851Z</time>
      </trkpt>
      <trkpt lat="38.216515" lon="15.885605">
        <ele>997.088099</ele>
        <time>2023-12-04T21:24:14.120Z</time>
      </trkpt>
      <trkpt lat="38.216374" lon="15.885326">
        <ele>995.268866</ele>
        <time>2023-12-04T21:24:16.553Z</time>
      </trkpt>
      <trkpt lat="38.216303" lon="15.885055">
        <ele>993.702249</ele>
        <time>2023-12-04T21:24:18.597Z</time>
      </trkpt>
      <trkpt lat="38.216292" lon="15.884825">
        <ele>992.438591</ele>
        <time>2023-12-04T21:24:20.227Z</time>
      </trkpt>
      <trkpt lat="38.216396" lon="15.884229">
        <ele>989.090480</ele>
        <time>2023-12-04T21:24:24.395Z</time>
      </trkpt>
      <trkpt lat="38.216377" lon="15.884154">
        <ele>988.658328</ele>
        <time>2023-12-04T21:24:24.920Z</time>
      </trkpt>
      <trkpt lat="38.216295" lon="15.884051">
        <ele>987.854182</ele>
        <time>2023-12-04T21:24:25.898Z</time>
      </trkpt>
      <trkpt lat="38.215772" lon="15.884002">
        <ele>982.964261</ele>
        <time>2023-12-04T21:24:30.291Z</time>
      </trkpt>
      <trkpt lat="38.215471" lon="15.883914">
        <ele>979.984405</ele>
        <time>2023-12-04T21:24:32.877Z</time>
      </trkpt>
      <trkpt lat="38.214745" lon="15.883542">
        <ele>972.433183</ele>
        <time>2023-12-04T21:24:39.719Z</time>
      </trkpt>
      <trkpt lat="38.214196" lon="15.883412">
        <ele>967.901997</ele>
        <time>2023-12-04T21:24:45.029Z</time>
      </trkpt>
      <trkpt lat="38.213991" lon="15.883492">
        <ele>966.422010</ele>
        <time>2023-12-04T21:24:47.045Z</time>
      </trkpt>
      <trkpt lat="38.213824" lon="15.883796">
        <ele>964.410370</ele>
        <time>2023-12-04T21:24:49.724Z</time>
      </trkpt>
      <trkpt lat="38.213464" lon="15.883943">
        <ele>961.800797</ele>
        <time>2023-12-04T21:24:53.122Z</time>
      </trkpt>
      <trkpt lat="38.213251" lon="15.883861">
        <ele>960.264826</ele>
        <time>2023-12-04T21:24:55.116Z</time>
      </trkpt>
      <trkpt lat="38.212832" lon="15.883176">
        <ele>954.734116</ele>
        <time>2023-12-04T21:25:01.104Z</time>
      </trkpt>
      <trkpt lat="38.212608" lon="15.882532">
        <ele>949.406433</ele>
        <time>2023-12-04T21:25:05.857Z</time>
      </trkpt>
      <trkpt lat="38.212478" lon="15.881954">
        <ele>944.858409</ele>
        <time>2023-12-04T21:25:09.866Z</time>
      </trkpt>
      <trkpt lat="38.212508" lon="15.881729">
        <ele>943.132010</ele>
        <time>2023-12-04T21:25:11.388Z</time>
      </trkpt>
      <trkpt lat="38.212732" lon="15.881517">
        <ele>940.444462</ele>
        <time>2023-12-04T21:25:13.806Z</time>
      </trkpt>
      <trkpt lat="38.213074" lon="15.881458">
        <ele>939.270188</ele>
        <time>2023-12-04T21:25:16.864Z</time>
      </trkpt>
      <trkpt lat="38.213499" lon="15.881582">
        <ele>937.888994</ele>
        <time>2023-12-04T21:25:21.088Z</time>
      </trkpt>
      <trkpt lat="38.213712" lon="15.881594">
        <ele>937.213614</ele>
        <time>2023-12-04T21:25:23.430Z</time>
      </trkpt>
      <trkpt lat="38.213954" lon="15.881470">
        <ele>936.387239</ele>
        <time>2023-12-04T21:25:26.719Z</time>
      </trkpt>
      <trkpt lat="38.214178" lon="15.881245">
        <ele>935.483316</ele>
        <time>2023-12-04T21:25:30.728Z</time>
      </trkpt>
      <trkpt lat="38.214769" lon="15.881086">
        <ele>935.800071</ele>
        <time>2023-12-04T21:25:40.741Z</time>
      </trkpt>
      <trkpt lat="38.215093" lon="15.881127">
        <ele>936.946270</ele>
        <time>2023-12-04T21:25:47.336Z</time>
      </trkpt>
      <trkpt lat="38.215288" lon="15.881245">
        <ele>937.706364</ele>
        <time>2023-12-04T21:25:52.680Z</time>
      </trkpt>
      <trkpt lat="38.215601" lon="15.881600">
        <ele>939.182225</ele>
        <time>2023-12-04T21:26:06.399Z</time>
      </trkpt>
      <trkpt lat="38.215636" lon="15.881818">
        <ele>939.797641</ele>
        <time>2023-12-04T21:26:13.169Z</time>
      </trkpt>
      <trkpt lat="38.215967" lon="15.882196">
        <ele>941.679287</ele>
        <time>2023-12-04T21:26:32.055Z</time>
      </trkpt>
      <trkpt lat="38.216132" lon="15.882225">
        <ele>942.723121</ele>
        <time>2023-12-04T21:26:39.526Z</time>
      </trkpt>
      <trkpt lat="38.216383" lon="15.882192">
        <ele>944.304457</ele>
        <time>2023-12-04T21:26:50.695Z</time>
      </trkpt>
      <trkpt lat="38.216469" lon="15.882089">
        <ele>945.044493</ele>
        <time>2023-12-04T21:26:55.825Z</time>
      </trkpt>
      <trkpt lat="38.216664" lon="15.881623">
        <ele>947.644067</ele>
        <time>2023-12-04T21:27:13.678Z</time>
      </trkpt>
      <trkpt lat="38.217130" lon="15.881180">
        <ele>951.289046</ele>
        <time>2023-12-04T21:27:35.873Z</time>
      </trkpt>
      <trkpt lat="38.217714" lon="15.881239">
        <ele>954.643425</ele>
        <time>2023-12-04T21:27:55.152Z</time>
      </trkpt>
      <trkpt lat="38.218075" lon="15.881611">
        <ele>957.216380</ele>
        <time>2023-12-04T21:28:09.960Z</time>
      </trkpt>
      <trkpt lat="38.218234" lon="15.882184">
        <ele>959.861116</ele>
        <time>2023-12-04T21:28:26.580Z</time>
      </trkpt>
      <trkpt lat="38.218376" lon="15.882438">
        <ele>961.217851</ele>
        <time>2023-12-04T21:28:35.956Z</time>
      </trkpt>
      <trkpt lat="38.218588" lon="15.882532">
        <ele>962.735612</ele>
        <time>2023-12-04T21:28:45.903Z</time>
      </trkpt>
      <trkpt lat="38.219013" lon="15.882503">
        <ele>967.502580</ele>
        <time>2023-12-04T21:29:06.664Z</time>
      </trkpt>
      <trkpt lat="38.219674" lon="15.882196">
        <ele>975.383460</ele>
        <time>2023-12-04T21:29:50.595Z</time>
      </trkpt>
      <trkpt lat="38.219940" lon="15.881895">
        <ele>979.369862</ele>
        <time>2023-12-04T21:30:15.977Z</time>
      </trkpt>
      <trkpt lat="38.220241" lon="15.881718">
        <ele>982.912554</ele>
        <time>2023-12-04T21:30:40.016Z</time>
      </trkpt>
      <trkpt lat="38.220448" lon="15.881470">
        <ele>985.365782</ele>
        <time>2023-12-04T21:30:59.240Z</time>
      </trkpt>
      <trkpt lat="38.220702" lon="15.881074">
        <ele>988.831782</ele>
        <time>2023-12-04T21:31:23.242Z</time>
      </trkpt>
      <trkpt lat="38.220873" lon="15.880578">
        <ele>992.504149</ele>
        <time>2023-12-04T21:31:43.142Z</time>
      </trkpt>
      <trkpt lat="38.220835" lon="15.880408">
        <ele>993.702473</ele>
        <time>2023-12-04T21:31:48.830Z</time>
      </trkpt>
      <trkpt lat="38.220803" lon="15.880346">
        <ele>994.205423</ele>
        <time>2023-12-04T21:31:50.779Z</time>
      </trkpt>
      <trkpt lat="38.220666" lon="15.880248">
        <ele>995.561621</ele>
        <time>2023-12-04T21:31:56.263Z</time>
      </trkpt>
      <trkpt lat="38.220525" lon="15.880277">
        <ele>996.794211</ele>
        <time>2023-12-04T21:32:01.150Z</time>
      </trkpt>
      <trkpt lat="38.220259" lon="15.880437">
        <ele>998.284822</ele>
        <time>2023-12-04T21:32:09.507Z</time>
      </trkpt>
      <trkpt lat="38.219952" lon="15.880496">
        <ele>999.056834</ele>
        <time>2023-12-04T21:32:17.479Z</time>
      </trkpt>
      <trkpt lat="38.219320" lon="15.880318">
        <ele>1000.666322</ele>
        <time>2023-12-04T21:32:32.168Z</time>
      </trkpt>
      <trkpt lat="38.218995" lon="15.880484">
        <ele>1001.537077</ele>
        <time>2023-12-04T21:32:39.394Z</time>
      </trkpt>
      <trkpt lat="38.218724" lon="15.880490">
        <ele>1002.211025</ele>
        <time>2023-12-04T21:32:44.775Z</time>
      </trkpt>
      <trkpt lat="38.217915" lon="15.879982">
        <ele>1005.363543</ele>
        <time>2023-12-04T21:33:08.289Z</time>
      </trkpt>
      <trkpt lat="38.217313" lon="15.879988">
        <ele>1007.502256</ele>
        <time>2023-12-04T21:33:27.352Z</time>
      </trkpt>
      <trkpt lat="38.216634" lon="15.879510">
        <ele>1010.965002</ele>
        <time>2023-12-04T21:33:53.937Z</time>
      </trkpt>
      <trkpt lat="38.216487" lon="15.879279">
        <ele>1012.176146</ele>
        <time>2023-12-04T21:34:02.332Z</time>
      </trkpt>
      <trkpt lat="38.216487" lon="15.879206">
        <ele>1012.473568</ele>
        <time>2023-12-04T21:34:04.349Z</time>
      </trkpt>
      <trkpt lat="38.216487" lon="15.879067">
        <ele>1013.039892</ele>
        <time>2023-12-04T21:34:08.443Z</time>
      </trkpt>
      <trkpt lat="38.216575" lon="15.878807">
        <ele>1014.193316</ele>
        <time>2023-12-04T21:34:16.978Z</time>
      </trkpt>
      <trkpt lat="38.216847" lon="15.878465">
        <ele>1016.176010</ele>
        <time>2023-12-04T21:34:31.184Z</time>
      </trkpt>
      <trkpt lat="38.217335" lon="15.878335">
        <ele>1018.865271</ele>
        <time>2023-12-04T21:34:48.561Z</time>
      </trkpt>
      <trkpt lat="38.217516" lon="15.878233">
        <ele>1020.041518</ele>
        <time>2023-12-04T21:34:55.295Z</time>
      </trkpt>
      <trkpt lat="38.217649" lon="15.878120">
        <ele>1020.991734</ele>
        <time>2023-12-04T21:35:00.468Z</time>
      </trkpt>
      <trkpt lat="38.217771" lon="15.877922">
        <ele>1022.166484</ele>
        <time>2023-12-04T21:35:07.476Z</time>
      </trkpt>
      <trkpt lat="38.217855" lon="15.877754">
        <ele>1023.096167</ele>
        <time>2023-12-04T21:35:13.258Z</time>
      </trkpt>
      <trkpt lat="38.217909" lon="15.877520">
        <ele>1024.234767</ele>
        <time>2023-12-04T21:35:20.833Z</time>
      </trkpt>
      <trkpt lat="38.217915" lon="15.877208">
        <ele>1025.691802</ele>
        <time>2023-12-04T21:35:30.795Z</time>
      </trkpt>
      <trkpt lat="38.217876" lon="15.876869">
        <ele>1027.291331</ele>
        <time>2023-12-04T21:35:42.054Z</time>
      </trkpt>
      <trkpt lat="38.217355" lon="15.875511">
        <ele>1035.205492</ele>
        <time>2023-12-04T21:36:34.168Z</time>
      </trkpt>
      <trkpt lat="38.216923" lon="15.874244">
        <ele>1042.128377</ele>
        <time>2023-12-04T21:37:19.686Z</time>
      </trkpt>
      <trkpt lat="38.216752" lon="15.874132">
        <ele>1043.018422</ele>
        <time>2023-12-04T21:37:26.462Z</time>
      </trkpt>
      <trkpt lat="38.216262" lon="15.873984">
        <ele>1045.349174</ele>
        <time>2023-12-04T21:37:42.331Z</time>
      </trkpt>
      <trkpt lat="38.216062" lon="15.873789">
        <ele>1046.515170</ele>
        <time>2023-12-04T21:37:50.159Z</time>
      </trkpt>
      <trkpt lat="38.216032" lon="15.873594">
        <ele>1047.237700</ele>
        <time>2023-12-04T21:37:54.866Z</time>
      </trkpt>
      <trkpt lat="38.216152" lon="15.873392">
        <ele>1048.158545</ele>
        <time>2023-12-04T21:38:00.992Z</time>
      </trkpt>
      <trkpt lat="38.216222" lon="15.873348">
        <ele>1048.519867</ele>
        <time>2023-12-04T21:38:03.264Z</time>
      </trkpt>
      <trkpt lat="38.216573" lon="15.873451">
        <ele>1050.082180</ele>
        <time>2023-12-04T21:38:14.183Z</time>
      </trkpt>
      <trkpt lat="38.216708" lon="15.873422">
        <ele>1050.632904</ele>
        <time>2023-12-04T21:38:18.282Z</time>
      </trkpt>
      <trkpt lat="38.216802" lon="15.873369">
        <ele>1051.046463</ele>
        <time>2023-12-04T21:38:21.298Z</time>
      </trkpt>
      <trkpt lat="38.216839" lon="15.873304">
        <ele>1051.300139</ele>
        <time>2023-12-04T21:38:23.141Z</time>
      </trkpt>
      <trkpt lat="38.216844" lon="15.873214">
        <ele>1051.585286</ele>
        <time>2023-12-04T21:38:25.125Z</time>
      </trkpt>
      <trkpt lat="38.216165" lon="15.870864">
        <ele>1059.641068</ele>
        <time>2023-12-04T21:39:27.171Z</time>
      </trkpt>
      <trkpt lat="38.215933" lon="15.870154">
        <ele>1062.191653</ele>
        <time>2023-12-04T21:39:47.063Z</time>
      </trkpt>
      <trkpt lat="38.215196" lon="15.868369">
        <ele>1068.577593</ele>
        <time>2023-12-04T21:40:35.814Z</time>
      </trkpt>
      <trkpt lat="38.214305" lon="15.866819">
        <ele>1073.889405</ele>
        <time>2023-12-04T21:41:21.134Z</time>
      </trkpt>
      <trkpt lat="38.214074" lon="15.866306">
        <ele>1075.355740</ele>
        <time>2023-12-04T21:41:34.074Z</time>
      </trkpt>
      <trkpt lat="38.213464" lon="15.864952">
        <ele>1078.132159</ele>
        <time>2023-12-04T21:42:03.087Z</time>
      </trkpt>
      <trkpt lat="38.213393" lon="15.864703">
        <ele>1078.467253</ele>
        <time>2023-12-04T21:42:07.371Z</time>
      </trkpt>
      <trkpt lat="38.213334" lon="15.863375">
        <ele>1080.050074</ele>
        <time>2023-12-04T21:42:27.804Z</time>
      </trkpt>
      <trkpt lat="38.213222" lon="15.862218">
        <ele>1080.961273</ele>
        <time>2023-12-04T21:42:44.824Z</time>
      </trkpt>
      <trkpt lat="38.213080" lon="15.862011">
        <ele>1081.176064</ele>
        <time>2023-12-04T21:42:48.568Z</time>
      </trkpt>
      <trkpt lat="38.212891" lon="15.861840">
        <ele>1081.406752</ele>
        <time>2023-12-04T21:42:52.522Z</time>
      </trkpt>
      <trkpt lat="38.212578" lon="15.861651">
        <ele>1081.827840</ele>
        <time>2023-12-04T21:42:58.979Z</time>
      </trkpt>
      <trkpt lat="38.212500" lon="15.861510">
        <ele>1082.102973</ele>
        <time>2023-12-04T21:43:01.681Z</time>
      </trkpt>
      <trkpt lat="38.212508" lon="15.861333">
        <ele>1082.385847</ele>
        <time>2023-12-04T21:43:04.562Z</time>
      </trkpt>
      <trkpt lat="38.212573" lon="15.861067">
        <ele>1082.830306</ele>
        <time>2023-12-04T21:43:09.232Z</time>
      </trkpt>
      <trkpt lat="38.212655" lon="15.860950">
        <ele>1083.080454</ele>
        <time>2023-12-04T21:43:11.992Z</time>
      </trkpt>
      <trkpt lat="38.212773" lon="15.860896">
        <ele>1083.335089</ele>
        <time>2023-12-04T21:43:14.902Z</time>
      </trkpt>
      <trkpt lat="38.213098" lon="15.860937">
        <ele>1083.998282</ele>
        <time>2023-12-04T21:43:22.734Z</time>
      </trkpt>
      <trkpt lat="38.213192" lon="15.860848">
        <ele>1084.236188</ele>
        <time>2023-12-04T21:43:25.567Z</time>
      </trkpt>
      <trkpt lat="38.213388" lon="15.859775">
        <ele>1086.470912</ele>
        <time>2023-12-04T21:43:47.402Z</time>
      </trkpt>
      <trkpt lat="38.213277" lon="15.859395">
        <ele>1087.582903</ele>
        <time>2023-12-04T21:43:56.161Z</time>
      </trkpt>
      <trkpt lat="38.212948" lon="15.859087">
        <ele>1089.008662</ele>
        <time>2023-12-04T21:44:07.955Z</time>
      </trkpt>
      <trkpt lat="38.211656" lon="15.857973">
        <ele>1096.496414</ele>
        <time>2023-12-04T21:44:57.020Z</time>
      </trkpt>
      <trkpt lat="38.211477" lon="15.857932">
        <ele>1097.586214</ele>
        <time>2023-12-04T21:45:03.281Z</time>
      </trkpt>
      <trkpt lat="38.209896" lon="15.858014">
        <ele>1108.016861</ele>
        <time>2023-12-04T21:46:17.939Z</time>
      </trkpt>
      <trkpt lat="38.208879" lon="15.857864">
        <ele>1115.357368</ele>
        <time>2023-12-04T21:47:03.370Z</time>
      </trkpt>
      <trkpt lat="38.208770" lon="15.857760">
        <ele>1115.507896</ele>
        <time>2023-12-04T21:47:08.052Z</time>
      </trkpt>
      <trkpt lat="38.208695" lon="15.857631">
        <ele>1115.647222</ele>
        <time>2023-12-04T21:47:12.168Z</time>
      </trkpt>
      <trkpt lat="38.208625" lon="15.857440">
        <ele>1115.830203</ele>
        <time>2023-12-04T21:47:16.922Z</time>
      </trkpt>
      <trkpt lat="38.208609" lon="15.857255">
        <ele>1115.991794</ele>
        <time>2023-12-04T21:47:21.025Z</time>
      </trkpt>
      <trkpt lat="38.209087" lon="15.855333">
        <ele>1117.372136</ele>
        <time>2023-12-04T21:47:40.700Z</time>
      </trkpt>
      <trkpt lat="38.209083" lon="15.855017">
        <ele>1117.395446</ele>
        <time>2023-12-04T21:47:43.362Z</time>
      </trkpt>
      <trkpt lat="38.208955" lon="15.854835">
        <ele>1117.413462</ele>
        <time>2023-12-04T21:47:45.529Z</time>
      </trkpt>
      <trkpt lat="38.208256" lon="15.854422">
        <ele>1117.485802</ele>
        <time>2023-12-04T21:47:57.423Z</time>
      </trkpt>
      <trkpt lat="38.207926" lon="15.854282">
        <ele>1118.130083</ele>
        <time>2023-12-04T21:48:05.980Z</time>
      </trkpt>
      <trkpt lat="38.207424" lon="15.854180">
        <ele>1120.644704</ele>
        <time>2023-12-04T21:48:22.330Z</time>
      </trkpt>
      <trkpt lat="38.207084" lon="15.854140">
        <ele>1122.333704</ele>
        <time>2023-12-04T21:48:35.502Z</time>
      </trkpt>
      <trkpt lat="38.206821" lon="15.854143">
        <ele>1123.634701</ele>
        <time>2023-12-04T21:48:46.236Z</time>
      </trkpt>
      <trkpt lat="38.206266" lon="15.854264">
        <ele>1126.419032</ele>
        <time>2023-12-04T21:49:09.263Z</time>
      </trkpt>
      <trkpt lat="38.205644" lon="15.854477">
        <ele>1129.409559</ele>
        <time>2023-12-04T21:49:31.557Z</time>
      </trkpt>
      <trkpt lat="38.205486" lon="15.854451">
        <ele>1130.149224</ele>
        <time>2023-12-04T21:49:36.343Z</time>
      </trkpt>
      <trkpt lat="38.205278" lon="15.854296">
        <ele>1131.268304</ele>
        <time>2023-12-04T21:49:43.790Z</time>
      </trkpt>
      <trkpt lat="38.205143" lon="15.854152">
        <ele>1132.086131</ele>
        <time>2023-12-04T21:49:48.967Z</time>
      </trkpt>
      <trkpt lat="38.205131" lon="15.854057">
        <ele>1132.437169</ele>
        <time>2023-12-04T21:49:51.264Z</time>
      </trkpt>
      <trkpt lat="38.205163" lon="15.853864">
        <ele>1133.156792</ele>
        <time>2023-12-04T21:49:56.131Z</time>
      </trkpt>
      <trkpt lat="38.205431" lon="15.853391">
        <ele>1135.382894</ele>
        <time>2023-12-04T21:50:11.033Z</time>
      </trkpt>
      <trkpt lat="38.205572" lon="15.853060">
        <ele>1137.012267</ele>
        <time>2023-12-04T21:50:21.101Z</time>
      </trkpt>
      <trkpt lat="38.205557" lon="15.852795">
        <ele>1138.162049</ele>
        <time>2023-12-04T21:50:28.431Z</time>
      </trkpt>
      <trkpt lat="38.205413" lon="15.852541">
        <ele>1139.517476</ele>
        <time>2023-12-04T21:50:37.287Z</time>
      </trkpt>
      <trkpt lat="38.205180" lon="15.852481">
        <ele>1140.826676</ele>
        <time>2023-12-04T21:50:46.200Z</time>
      </trkpt>
      <trkpt lat="38.204797" lon="15.852449">
        <ele>1142.940498</ele>
        <time>2023-12-04T21:51:01.896Z</time>
      </trkpt>
      <trkpt lat="38.204264" lon="15.852504">
        <ele>1145.425131</ele>
        <time>2023-12-04T21:51:23.841Z</time>
      </trkpt>
      <trkpt lat="38.203999" lon="15.852590">
        <ele>1146.365472</ele>
        <time>2023-12-04T21:51:34.016Z</time>
      </trkpt>
      <trkpt lat="38.203593" lon="15.852576">
        <ele>1147.761979</ele>
        <time>2023-12-04T21:51:46.907Z</time>
      </trkpt>
      <trkpt lat="38.203293" lon="15.852464">
        <ele>1148.836976</ele>
        <time>2023-12-04T21:51:54.975Z</time>
      </trkpt>
      <trkpt lat="38.203158" lon="15.852294">
        <ele>1149.490013</ele>
        <time>2023-12-04T21:51:59.405Z</time>
      </trkpt>
      <trkpt lat="38.203116" lon="15.851593">
        <ele>1150.710053</ele>
        <time>2023-12-04T21:52:10.155Z</time>
      </trkpt>
      <trkpt lat="38.203162" lon="15.851006">
        <ele>1150.317027</ele>
        <time>2023-12-04T21:52:16.188Z</time>
      </trkpt>
      <trkpt lat="38.203043" lon="15.850770">
        <ele>1150.130206</ele>
        <time>2023-12-04T21:52:18.652Z</time>
      </trkpt>
      <trkpt lat="38.202257" lon="15.850395">
        <ele>1149.418514</ele>
        <time>2023-12-04T21:52:27.805Z</time>
      </trkpt>
      <trkpt lat="38.202118" lon="15.850203">
        <ele>1149.358049</ele>
        <time>2023-12-04T21:52:30.431Z</time>
      </trkpt>
      <trkpt lat="38.202102" lon="15.849285">
        <ele>1149.672567</ele>
        <time>2023-12-04T21:52:41.981Z</time>
      </trkpt>
      <trkpt lat="38.202027" lon="15.848613">
        <ele>1149.905056</ele>
        <time>2023-12-04T21:52:51.332Z</time>
      </trkpt>
      <trkpt lat="38.201994" lon="15.848312">
        <ele>1150.009156</ele>
        <time>2023-12-04T21:52:55.677Z</time>
      </trkpt>
      <trkpt lat="38.201977" lon="15.848168">
        <ele>1150.059034</ele>
        <time>2023-12-04T21:52:57.679Z</time>
      </trkpt>
      <trkpt lat="38.201876" lon="15.847521">
        <ele>1151.596883</ele>
        <time>2023-12-04T21:53:08.781Z</time>
      </trkpt>
      <trkpt lat="38.201784" lon="15.847440">
        <ele>1151.998175</ele>
        <time>2023-12-04T21:53:11.581Z</time>
      </trkpt>
      <trkpt lat="38.201707" lon="15.847345">
        <ele>1152.382878</ele>
        <time>2023-12-04T21:53:14.287Z</time>
      </trkpt>
      <trkpt lat="38.201642" lon="15.847249">
        <ele>1152.740074</ele>
        <time>2023-12-04T21:53:16.987Z</time>
      </trkpt>
      <trkpt lat="38.201555" lon="15.847182">
        <ele>1153.104843</ele>
        <time>2023-12-04T21:53:19.845Z</time>
      </trkpt>
      <trkpt lat="38.198027" lon="15.846405">
        <ele>1170.222062</ele>
        <time>2023-12-04T21:55:23.795Z</time>
      </trkpt>
      <trkpt lat="38.194503" lon="15.845695">
        <ele>1194.407455</ele>
        <time>2023-12-04T21:57:50.565Z</time>
      </trkpt>
      <trkpt lat="38.193426" lon="15.845479">
        <ele>1203.726498</ele>
        <time>2023-12-04T21:58:49.685Z</time>
      </trkpt>
      <trkpt lat="38.191829" lon="15.845050">
        <ele>1219.587576</ele>
        <time>2023-12-04T22:00:22.539Z</time>
      </trkpt>
      <trkpt lat="38.191235" lon="15.844800">
        <ele>1221.998022</ele>
        <time>2023-12-04T22:00:47.297Z</time>
      </trkpt>
      <trkpt lat="38.191109" lon="15.844657">
        <ele>1222.494351</ele>
        <time>2023-12-04T22:00:52.440Z</time>
      </trkpt>
      <trkpt lat="38.190948" lon="15.844374">
        <ele>1223.301503</ele>
        <time>2023-12-04T22:00:59.582Z</time>
      </trkpt>
      <trkpt lat="38.190581" lon="15.843499">
        <ele>1225.592950</ele>
        <time>2023-12-04T22:01:11.130Z</time>
      </trkpt>
      <trkpt lat="38.190378" lon="15.843085">
        <ele>1226.058379</ele>
        <time>2023-12-04T22:01:15.464Z</time>
      </trkpt>
      <trkpt lat="38.190154" lon="15.842899">
        <ele>1226.337586</ele>
        <time>2023-12-04T22:01:18.524Z</time>
      </trkpt>
      <trkpt lat="38.189812" lon="15.842785">
        <ele>1226.706624</ele>
        <time>2023-12-04T22:01:23.006Z</time>
      </trkpt>
      <trkpt lat="38.189478" lon="15.842777">
        <ele>1227.055326</ele>
        <time>2023-12-04T22:01:29.252Z</time>
      </trkpt>
      <trkpt lat="38.189241" lon="15.842832">
        <ele>1227.306795</ele>
        <time>2023-12-04T22:01:35.237Z</time>
      </trkpt>
      <trkpt lat="38.189022" lon="15.842971">
        <ele>1227.562260</ele>
        <time>2023-12-04T22:01:42.827Z</time>
      </trkpt>
      <trkpt lat="38.188755" lon="15.843343">
        <ele>1231.241551</ele>
        <time>2023-12-04T22:01:58.279Z</time>
      </trkpt>
      <trkpt lat="38.188688" lon="15.843503">
        <ele>1232.592128</ele>
        <time>2023-12-04T22:02:04.872Z</time>
      </trkpt>
      <trkpt lat="38.188612" lon="15.843807">
        <ele>1234.968661</ele>
        <time>2023-12-04T22:02:17.461Z</time>
      </trkpt>
      <trkpt lat="38.188707" lon="15.844444">
        <ele>1239.798836</ele>
        <time>2023-12-04T22:02:47.316Z</time>
      </trkpt>
      <trkpt lat="38.188686" lon="15.844842">
        <ele>1242.770516</ele>
        <time>2023-12-04T22:03:07.992Z</time>
      </trkpt>
      <trkpt lat="38.188299" lon="15.845476">
        <ele>1249.459404</ele>
        <time>2023-12-04T22:03:51.382Z</time>
      </trkpt>
      <trkpt lat="38.187922" lon="15.846317">
        <ele>1257.909284</ele>
        <time>2023-12-04T22:04:38.920Z</time>
      </trkpt>
      <trkpt lat="38.187769" lon="15.846385">
        <ele>1259.708899</ele>
        <time>2023-12-04T22:04:47.903Z</time>
      </trkpt>
      <trkpt lat="38.187679" lon="15.846352">
        <ele>1260.748948</ele>
        <time>2023-12-04T22:04:52.811Z</time>
      </trkpt>
      <trkpt lat="38.187613" lon="15.846282">
        <ele>1261.703075</ele>
        <time>2023-12-04T22:04:57.272Z</time>
      </trkpt>
      <trkpt lat="38.187561" lon="15.846145">
        <ele>1263.030900</ele>
        <time>2023-12-04T22:05:03.584Z</time>
      </trkpt>
      <trkpt lat="38.187596" lon="15.845690">
        <ele>1265.638684</ele>
        <time>2023-12-04T22:05:20.799Z</time>
      </trkpt>
      <trkpt lat="38.187722" lon="15.845300">
        <ele>1267.224561</ele>
        <time>2023-12-04T22:05:34.952Z</time>
      </trkpt>
      <trkpt lat="38.187739" lon="15.844990">
        <ele>1268.393311</ele>
        <time>2023-12-04T22:05:43.822Z</time>
      </trkpt>
      <trkpt lat="38.187575" lon="15.844463">
        <ele>1270.525068</ele>
        <time>2023-12-04T22:05:57.133Z</time>
      </trkpt>
      <trkpt lat="38.187425" lon="15.844254">
        <ele>1271.589522</ele>
        <time>2023-12-04T22:06:02.114Z</time>
      </trkpt>
      <trkpt lat="38.186941" lon="15.844114">
        <ele>1273.917166</ele>
        <time>2023-12-04T22:06:12.274Z</time>
      </trkpt>
      <trkpt lat="38.186588" lon="15.843498">
        <ele>1276.606819</ele>
        <time>2023-12-04T22:06:27.907Z</time>
      </trkpt>
      <trkpt lat="38.186329" lon="15.843323">
        <ele>1277.923195</ele>
        <time>2023-12-04T22:06:36.948Z</time>
      </trkpt>
      <trkpt lat="38.186054" lon="15.843189">
        <ele>1279.245048</ele>
        <time>2023-12-04T22:06:47.420Z</time>
      </trkpt>
      <trkpt lat="38.185853" lon="15.843136">
        <ele>1280.166466</ele>
        <time>2023-12-04T22:06:55.535Z</time>
      </trkpt>
      <trkpt lat="38.185027" lon="15.843719">
        <ele>1286.072445</ele>
        <time>2023-12-04T22:07:39.963Z</time>
      </trkpt>
      <trkpt lat="38.184844" lon="15.843816">
        <ele>1287.435317</ele>
        <time>2023-12-04T22:07:50.335Z</time>
      </trkpt>
      <trkpt lat="38.184499" lon="15.844091">
        <ele>1290.234115</ele>
        <time>2023-12-04T22:08:09.286Z</time>
      </trkpt>
      <trkpt lat="38.184227" lon="15.844250">
        <ele>1292.291945</ele>
        <time>2023-12-04T22:08:21.200Z</time>
      </trkpt>
      <trkpt lat="38.183840" lon="15.844230">
        <ele>1293.971219</ele>
        <time>2023-12-04T22:08:33.131Z</time>
      </trkpt>
      <trkpt lat="38.183747" lon="15.844069">
        <ele>1294.244949</ele>
        <time>2023-12-04T22:08:36.869Z</time>
      </trkpt>
      <trkpt lat="38.183770" lon="15.843849">
        <ele>1294.549009</ele>
        <time>2023-12-04T22:08:41.312Z</time>
      </trkpt>
      <trkpt lat="38.183818" lon="15.843785">
        <ele>1294.670201</ele>
        <time>2023-12-04T22:08:42.805Z</time>
      </trkpt>
      <trkpt lat="38.184022" lon="15.843735">
        <ele>1295.032305</ele>
        <time>2023-12-04T22:08:46.854Z</time>
      </trkpt>
      <trkpt lat="38.184290" lon="15.843482">
        <ele>1295.613973</ele>
        <time>2023-12-04T22:08:52.840Z</time>
      </trkpt>
      <trkpt lat="38.184533" lon="15.843093">
        <ele>1296.294714</ele>
        <time>2023-12-04T22:08:58.813Z</time>
      </trkpt>
      <trkpt lat="38.184679" lon="15.842676">
        <ele>1297.064203</ele>
        <time>2023-12-04T22:09:04.254Z</time>
      </trkpt>
      <trkpt lat="38.184629" lon="15.842492">
        <ele>1297.590694</ele>
        <time>2023-12-04T22:09:07.027Z</time>
      </trkpt>
      <trkpt lat="38.184531" lon="15.842381">
        <ele>1298.042127</ele>
        <time>2023-12-04T22:09:09.283Z</time>
      </trkpt>
      <trkpt lat="38.184330" lon="15.842258">
        <ele>1298.809509</ele>
        <time>2023-12-04T22:09:14.139Z</time>
      </trkpt>
      <trkpt lat="38.184134" lon="15.842257">
        <ele>1299.483854</ele>
        <time>2023-12-04T22:09:18.913Z</time>
      </trkpt>
      <trkpt lat="38.183293" lon="15.842553">
        <ele>1302.486010</ele>
        <time>2023-12-04T22:09:48.988Z</time>
      </trkpt>
      <trkpt lat="38.182740" lon="15.842996">
        <ele>1305.590198</ele>
        <time>2023-12-04T22:10:15.033Z</time>
      </trkpt>
      <trkpt lat="38.182637" lon="15.843029">
        <ele>1306.131935</ele>
        <time>2023-12-04T22:10:19.154Z</time>
      </trkpt>
      <trkpt lat="38.182547" lon="15.842978">
        <ele>1306.634441</ele>
        <time>2023-12-04T22:10:22.818Z</time>
      </trkpt>
      <trkpt lat="38.182321" lon="15.842674">
        <ele>1308.311951</ele>
        <time>2023-12-04T22:10:34.928Z</time>
      </trkpt>
      <trkpt lat="38.182122" lon="15.842617">
        <ele>1309.352323</ele>
        <time>2023-12-04T22:10:42.108Z</time>
      </trkpt>
      <trkpt lat="38.181921" lon="15.842751">
        <ele>1310.509721</ele>
        <time>2023-12-04T22:10:49.351Z</time>
      </trkpt>
      <trkpt lat="38.181183" lon="15.843449">
        <ele>1313.807724</ele>
        <time>2023-12-04T22:11:16.982Z</time>
      </trkpt>
      <trkpt lat="38.180870" lon="15.843633">
        <ele>1314.767710</ele>
        <time>2023-12-04T22:11:27.234Z</time>
      </trkpt>
      <trkpt lat="38.179061" lon="15.844391">
        <ele>1317.525746</ele>
        <time>2023-12-04T22:12:07.493Z</time>
      </trkpt>
      <trkpt lat="38.178882" lon="15.844514">
        <ele>1317.600001</ele>
        <time>2023-12-04T22:12:10.210Z</time>
      </trkpt>
      <trkpt lat="38.178652" lon="15.844671">
        <ele>1317.695271</ele>
        <time>2023-12-04T22:12:13.342Z</time>
      </trkpt>
      <trkpt lat="38.178456" lon="15.844805">
        <ele>1317.776486</ele>
        <time>2023-12-04T22:12:15.921Z</time>
      </trkpt>
      <trkpt lat="38.178374" lon="15.844891">
        <ele>1317.739931</ele>
        <time>2023-12-04T22:12:17.131Z</time>
      </trkpt>
      <trkpt lat="38.177943" lon="15.845514">
        <ele>1316.920821</ele>
        <time>2023-12-04T22:12:24.301Z</time>
      </trkpt>
      <trkpt lat="38.177731" lon="15.846203">
        <ele>1316.190542</ele>
        <time>2023-12-04T22:12:30.501Z</time>
      </trkpt>
      <trkpt lat="38.177603" lon="15.846486">
        <ele>1315.868286</ele>
        <time>2023-12-04T22:12:33.581Z</time>
      </trkpt>
      <trkpt lat="38.177383" lon="15.846870">
        <ele>1315.875285</ele>
        <time>2023-12-04T22:12:40.231Z</time>
      </trkpt>
      <trkpt lat="38.177210" lon="15.847474">
        <ele>1317.387472</ele>
        <time>2023-12-04T22:12:50.765Z</time>
      </trkpt>
      <trkpt lat="38.176847" lon="15.847910">
        <ele>1318.881404</ele>
        <time>2023-12-04T22:13:03.464Z</time>
      </trkpt>
      <trkpt lat="38.176746" lon="15.848148">
        <ele>1319.517635</ele>
        <time>2023-12-04T22:13:09.618Z</time>
      </trkpt>
      <trkpt lat="38.176689" lon="15.848609">
        <ele>1320.615404</ele>
        <time>2023-12-04T22:13:22.228Z</time>
      </trkpt>
      <trkpt lat="38.176420" lon="15.849151">
        <ele>1323.854055</ele>
        <time>2023-12-04T22:13:42.921Z</time>
      </trkpt>
      <trkpt lat="38.176306" lon="15.849274">
        <ele>1324.946042</ele>
        <time>2023-12-04T22:13:49.423Z</time>
      </trkpt>
      <trkpt lat="38.176044" lon="15.849485">
        <ele>1327.211283</ele>
        <time>2023-12-04T22:14:03.519Z</time>
      </trkpt>
      <trkpt lat="38.175370" lon="15.849678">
        <ele>1332.258104</ele>
        <time>2023-12-04T22:14:36.166Z</time>
      </trkpt>
      <trkpt lat="38.175216" lon="15.849639">
        <ele>1333.405161</ele>
        <time>2023-12-04T22:14:43.826Z</time>
      </trkpt>
      <trkpt lat="38.175126" lon="15.849483">
        <ele>1334.391110</ele>
        <time>2023-12-04T22:14:51.109Z</time>
      </trkpt>
      <trkpt lat="38.175058" lon="15.849300">
        <ele>1335.233406</ele>
        <time>2023-12-04T22:14:58.451Z</time>
      </trkpt>
      <trkpt lat="38.175025" lon="15.849088">
        <ele>1336.132722</ele>
        <time>2023-12-04T22:15:06.241Z</time>
      </trkpt>
      <trkpt lat="38.175149" lon="15.848741">
        <ele>1337.718863</ele>
        <time>2023-12-04T22:15:18.642Z</time>
      </trkpt>
      <trkpt lat="38.175147" lon="15.848674">
        <ele>1337.997868</ele>
        <time>2023-12-04T22:15:20.667Z</time>
      </trkpt>
      <trkpt lat="38.175125" lon="15.848610">
        <ele>1338.288537</ele>
        <time>2023-12-04T22:15:22.629Z</time>
      </trkpt>
      <trkpt lat="38.174904" lon="15.848374">
        <ele>1339.815938</ele>
        <time>2023-12-04T22:15:32.383Z</time>
      </trkpt>
      <trkpt lat="38.174838" lon="15.848231">
        <ele>1340.505977</ele>
        <time>2023-12-04T22:15:36.143Z</time>
      </trkpt>
      <trkpt lat="38.174728" lon="15.847932">
        <ele>1341.879705</ele>
        <time>2023-12-04T22:15:43.501Z</time>
      </trkpt>
      <trkpt lat="38.174671" lon="15.847572">
        <ele>1343.407849</ele>
        <time>2023-12-04T22:15:51.312Z</time>
      </trkpt>
      <trkpt lat="38.174666" lon="15.847320">
        <ele>1344.063088</ele>
        <time>2023-12-04T22:15:56.738Z</time>
      </trkpt>
      <trkpt lat="38.175051" lon="15.846672">
        <ele>1345.921179</ele>
        <time>2023-12-04T22:16:14.777Z</time>
      </trkpt>
      <trkpt lat="38.175097" lon="15.846364">
        <ele>1346.638355</ele>
        <time>2023-12-04T22:16:21.696Z</time>
      </trkpt>
      <trkpt lat="38.174989" lon="15.846062">
        <ele>1347.397327</ele>
        <time>2023-12-04T22:16:28.198Z</time>
      </trkpt>
      <trkpt lat="38.174792" lon="15.845830">
        <ele>1348.178536</ele>
        <time>2023-12-04T22:16:34.541Z</time>
      </trkpt>
      <trkpt lat="38.174572" lon="15.845691">
        <ele>1348.849957</ele>
        <time>2023-12-04T22:16:40.339Z</time>
      </trkpt>
      <trkpt lat="38.174044" lon="15.845545">
        <ele>1349.536733</ele>
        <time>2023-12-04T22:16:53.615Z</time>
      </trkpt>
      <trkpt lat="38.173848" lon="15.845435">
        <ele>1349.809024</ele>
        <time>2023-12-04T22:16:59.151Z</time>
      </trkpt>
      <trkpt lat="38.173352" lon="15.844731">
        <ele>1350.753626</ele>
        <time>2023-12-04T22:17:15.153Z</time>
      </trkpt>
      <trkpt lat="38.170631" lon="15.840626">
        <ele>1343.696515</ele>
        <time>2023-12-04T22:18:02.125Z</time>
      </trkpt>
      <trkpt lat="38.170493" lon="15.840522">
        <ele>1343.170164</ele>
        <time>2023-12-04T22:18:03.954Z</time>
      </trkpt>
      <trkpt lat="38.170318" lon="15.840546">
        <ele>1342.592584</ele>
        <time>2023-12-04T22:18:05.905Z</time>
      </trkpt>
      <trkpt lat="38.170031" lon="15.840674">
        <ele>1341.594598</ele>
        <time>2023-12-04T22:18:09.162Z</time>
      </trkpt>
      <trkpt lat="38.169896" lon="15.840636">
        <ele>1341.140886</ele>
        <time>2023-12-04T22:18:10.595Z</time>
      </trkpt>
      <trkpt lat="38.169820" lon="15.840534">
        <ele>1340.778343</ele>
        <time>2023-12-04T22:18:11.675Z</time>
      </trkpt>
      <trkpt lat="38.169778" lon="15.840187">
        <ele>1339.872602</ele>
        <time>2023-12-04T22:18:14.344Z</time>
      </trkpt>
      <trkpt lat="38.169704" lon="15.839901">
        <ele>1339.095845</ele>
        <time>2023-12-04T22:18:16.537Z</time>
      </trkpt>
      <trkpt lat="38.169405" lon="15.839359">
        <ele>1335.787541</ele>
        <time>2023-12-04T22:18:21.303Z</time>
      </trkpt>
      <trkpt lat="38.169353" lon="15.839262">
        <ele>1335.172681</ele>
        <time>2023-12-04T22:18:22.122Z</time>
      </trkpt>
      <trkpt lat="38.169097" lon="15.838779">
        <ele>1332.121997</ele>
        <time>2023-12-04T22:18:26.182Z</time>
      </trkpt>
      <trkpt lat="38.168754" lon="15.838410">
        <ele>1329.129472</ele>
        <time>2023-12-04T22:18:30.205Z</time>
      </trkpt>
      <trkpt lat="38.168629" lon="15.838354">
        <ele>1328.246655</ele>
        <time>2023-12-04T22:18:31.403Z</time>
      </trkpt>
      <trkpt lat="38.168455" lon="15.838325">
        <ele>1327.077661</ele>
        <time>2023-12-04T22:18:32.990Z</time>
      </trkpt>
      <trkpt lat="38.168194" lon="15.838280">
        <ele>1326.159128</ele>
        <time>2023-12-04T22:18:35.398Z</time>
      </trkpt>
      <trkpt lat="38.167979" lon="15.838189">
        <ele>1325.420767</ele>
        <time>2023-12-04T22:18:37.485Z</time>
      </trkpt>
      <trkpt lat="38.167908" lon="15.838114">
        <ele>1325.120026</ele>
        <time>2023-12-04T22:18:38.338Z</time>
      </trkpt>
      <trkpt lat="38.167846" lon="15.837989">
        <ele>1324.741387</ele>
        <time>2023-12-04T22:18:39.440Z</time>
      </trkpt>
      <trkpt lat="38.167768" lon="15.837744">
        <ele>1324.064213</ele>
        <time>2023-12-04T22:18:41.450Z</time>
      </trkpt>
      <trkpt lat="38.167729" lon="15.837559">
        <ele>1323.573520</ele>
        <time>2023-12-04T22:18:42.976Z</time>
      </trkpt>
      <trkpt lat="38.167676" lon="15.837171">
        <ele>1322.564612</ele>
        <time>2023-12-04T22:18:46.283Z</time>
      </trkpt>
      <trkpt lat="38.167521" lon="15.836742">
        <ele>1321.355055</ele>
        <time>2023-12-04T22:18:51.215Z</time>
      </trkpt>
      <trkpt lat="38.167481" lon="15.836631">
        <ele>1321.141605</ele>
        <time>2023-12-04T22:18:52.937Z</time>
      </trkpt>
      <trkpt lat="38.167300" lon="15.836163">
        <ele>1322.157479</ele>
        <time>2023-12-04T22:19:01.236Z</time>
      </trkpt>
      <trkpt lat="38.167313" lon="15.836087">
        <ele>1322.308972</ele>
        <time>2023-12-04T22:19:02.638Z</time>
      </trkpt>
      <trkpt lat="38.167323" lon="15.836046">
        <ele>1322.392585</ele>
        <time>2023-12-04T22:19:03.379Z</time>
      </trkpt>
      <trkpt lat="38.167300" lon="15.835997">
        <ele>1322.503741</ele>
        <time>2023-12-04T22:19:04.463Z</time>
      </trkpt>
      <trkpt lat="38.167290" lon="15.835991">
        <ele>1322.531133</ele>
        <time>2023-12-04T22:19:04.734Z</time>
      </trkpt>
      <trkpt lat="38.167239" lon="15.835928">
        <ele>1322.707261</ele>
        <time>2023-12-04T22:19:06.474Z</time>
      </trkpt>
      <trkpt lat="38.167080" lon="15.835529">
        <ele>1323.578548</ele>
        <time>2023-12-04T22:19:14.694Z</time>
      </trkpt>
      <trkpt lat="38.167020" lon="15.835358">
        <ele>1323.943280</ele>
        <time>2023-12-04T22:19:18.516Z</time>
      </trkpt>
      <trkpt lat="38.166784" lon="15.834971">
        <ele>1324.897237</ele>
        <time>2023-12-04T22:19:29.472Z</time>
      </trkpt>
      <trkpt lat="38.166270" lon="15.834506">
        <ele>1326.841485</ele>
        <time>2023-12-04T22:19:50.689Z</time>
      </trkpt>
      <trkpt lat="38.165986" lon="15.834348">
        <ele>1327.933170</ele>
        <time>2023-12-04T22:20:01.739Z</time>
      </trkpt>
      <trkpt lat="38.165864" lon="15.834336">
        <ele>1328.364112</ele>
        <time>2023-12-04T22:20:05.856Z</time>
      </trkpt>
      <trkpt lat="38.165740" lon="15.834374">
        <ele>1328.813312</ele>
        <time>2023-12-04T22:20:10.023Z</time>
      </trkpt>
      <trkpt lat="38.165625" lon="15.834485">
        <ele>1329.321736</ele>
        <time>2023-12-04T22:20:14.217Z</time>
      </trkpt>
      <trkpt lat="38.165403" lon="15.834827">
        <ele>1330.549758</ele>
        <time>2023-12-04T22:20:23.738Z</time>
      </trkpt>
      <trkpt lat="38.165211" lon="15.835012">
        <ele>1331.398069</ele>
        <time>2023-12-04T22:20:29.726Z</time>
      </trkpt>
      <trkpt lat="38.165102" lon="15.835031">
        <ele>1331.785533</ele>
        <time>2023-12-04T22:20:31.954Z</time>
      </trkpt>
      <trkpt lat="38.165004" lon="15.835002">
        <ele>1331.906859</ele>
        <time>2023-12-04T22:20:34.036Z</time>
      </trkpt>
      <trkpt lat="38.164924" lon="15.834918">
        <ele>1331.932708</ele>
        <time>2023-12-04T22:20:36.312Z</time>
      </trkpt>
      <trkpt lat="38.164870" lon="15.834795">
        <ele>1331.960307</ele>
        <time>2023-12-04T22:20:38.311Z</time>
      </trkpt>
      <trkpt lat="38.164823" lon="15.834516">
        <ele>1332.016206</ele>
        <time>2023-12-04T22:20:42.287Z</time>
      </trkpt>
      <trkpt lat="38.164780" lon="15.834383">
        <ele>1332.044378</ele>
        <time>2023-12-04T22:20:44.075Z</time>
      </trkpt>
      <trkpt lat="38.164741" lon="15.834322">
        <ele>1332.059781</ele>
        <time>2023-12-04T22:20:44.874Z</time>
      </trkpt>
      <trkpt lat="38.164643" lon="15.834271">
        <ele>1332.086165</ele>
        <time>2023-12-04T22:20:46.279Z</time>
      </trkpt>
      <trkpt lat="38.164597" lon="15.834262">
        <ele>1332.097762</ele>
        <time>2023-12-04T22:20:47.034Z</time>
      </trkpt>
      <trkpt lat="38.164279" lon="15.834343">
        <ele>1332.178572</ele>
        <time>2023-12-04T22:20:50.973Z</time>
      </trkpt>
      <trkpt lat="38.163507" lon="15.834586">
        <ele>1333.104020</ele>
        <time>2023-12-04T22:21:01.072Z</time>
      </trkpt>
      <trkpt lat="38.163292" lon="15.834735">
        <ele>1334.289825</ele>
        <time>2023-12-04T22:21:05.217Z</time>
      </trkpt>
      <trkpt lat="38.163035" lon="15.835077">
        <ele>1336.091263</ele>
        <time>2023-12-04T22:21:16.056Z</time>
      </trkpt>
      <trkpt lat="38.162930" lon="15.835320">
        <ele>1337.147109</ele>
        <time>2023-12-04T22:21:24.407Z</time>
      </trkpt>
      <trkpt lat="38.162668" lon="15.835762">
        <ele>1339.254921</ele>
        <time>2023-12-04T22:21:44.005Z</time>
      </trkpt>
      <trkpt lat="38.162305" lon="15.836179">
        <ele>1341.734629</ele>
        <time>2023-12-04T22:22:08.312Z</time>
      </trkpt>
      <trkpt lat="38.162048" lon="15.836632">
        <ele>1344.270898</ele>
        <time>2023-12-04T22:22:29.711Z</time>
      </trkpt>
      <trkpt lat="38.161970" lon="15.836696">
        <ele>1344.806910</ele>
        <time>2023-12-04T22:22:33.790Z</time>
      </trkpt>
      <trkpt lat="38.161646" lon="15.836781">
        <ele>1346.717244</ele>
        <time>2023-12-04T22:22:47.692Z</time>
      </trkpt>
      <trkpt lat="38.161535" lon="15.836714">
        <ele>1347.426740</ele>
        <time>2023-12-04T22:22:52.221Z</time>
      </trkpt>
      <trkpt lat="38.161472" lon="15.836585">
        <ele>1348.116230</ele>
        <time>2023-12-04T22:22:56.702Z</time>
      </trkpt>
      <trkpt lat="38.161465" lon="15.836504">
        <ele>1348.486213</ele>
        <time>2023-12-04T22:22:59.122Z</time>
      </trkpt>
      <trkpt lat="38.161662" lon="15.835784">
        <ele>1351.374930</ele>
        <time>2023-12-04T22:23:16.361Z</time>
      </trkpt>
      <trkpt lat="38.161711" lon="15.835462">
        <ele>1351.201864</ele>
        <time>2023-12-04T22:23:21.020Z</time>
      </trkpt>
      <trkpt lat="38.161714" lon="15.835059">
        <ele>1350.989199</ele>
        <time>2023-12-04T22:23:24.963Z</time>
      </trkpt>
      <trkpt lat="38.161646" lon="15.834533">
        <ele>1350.707912</ele>
        <time>2023-12-04T22:23:29.348Z</time>
      </trkpt>
      <trkpt lat="38.161415" lon="15.833962">
        <ele>1350.369061</ele>
        <time>2023-12-04T22:23:34.716Z</time>
      </trkpt>
      <trkpt lat="38.161272" lon="15.833685">
        <ele>1350.287967</ele>
        <time>2023-12-04T22:23:37.691Z</time>
      </trkpt>
      <trkpt lat="38.161132" lon="15.833523">
        <ele>1350.519235</ele>
        <time>2023-12-04T22:23:40.147Z</time>
      </trkpt>
      <trkpt lat="38.160742" lon="15.833460">
        <ele>1350.999592</ele>
        <time>2023-12-04T22:23:46.601Z</time>
      </trkpt>
      <trkpt lat="38.159112" lon="15.833345">
        <ele>1353.546748</ele>
        <time>2023-12-04T22:24:25.886Z</time>
      </trkpt>
      <trkpt lat="38.157323" lon="15.833167">
        <ele>1357.154646</ele>
        <time>2023-12-04T22:25:10.392Z</time>
      </trkpt>
      <trkpt lat="38.156534" lon="15.833154">
        <ele>1357.835940</ele>
        <time>2023-12-04T22:25:24.937Z</time>
      </trkpt>
      <trkpt lat="38.155881" lon="15.833034">
        <ele>1358.189747</ele>
        <time>2023-12-04T22:25:34.076Z</time>
      </trkpt>
      <trkpt lat="38.155199" lon="15.832706">
        <ele>1357.411891</ele>
        <time>2023-12-04T22:25:42.523Z</time>
      </trkpt>
      <trkpt lat="38.153818" lon="15.832223">
        <ele>1356.005081</ele>
        <time>2023-12-04T22:25:59.724Z</time>
      </trkpt>
      <trkpt lat="38.152483" lon="15.831757">
        <ele>1354.850617</ele>
        <time>2023-12-04T22:26:17.433Z</time>
      </trkpt>
      <trkpt lat="38.152332" lon="15.831630">
        <ele>1354.610694</ele>
        <time>2023-12-04T22:26:19.799Z</time>
      </trkpt>
      <trkpt lat="38.152088" lon="15.831444">
        <ele>1354.233682</ele>
        <time>2023-12-04T22:26:23.490Z</time>
      </trkpt>
      <trkpt lat="38.151932" lon="15.831406">
        <ele>1354.023183</ele>
        <time>2023-12-04T22:26:25.488Z</time>
      </trkpt>
      <trkpt lat="38.151867" lon="15.831420">
        <ele>1353.935814</ele>
        <time>2023-12-04T22:26:26.339Z</time>
      </trkpt>
      <trkpt lat="38.151172" lon="15.831826">
        <ele>1352.922219</ele>
        <time>2023-12-04T22:26:34.950Z</time>
      </trkpt>
      <trkpt lat="38.151002" lon="15.831784">
        <ele>1352.692712</ele>
        <time>2023-12-04T22:26:36.788Z</time>
      </trkpt>
      <trkpt lat="38.150702" lon="15.831579">
        <ele>1352.324064</ele>
        <time>2023-12-04T22:26:40.519Z</time>
      </trkpt>
      <trkpt lat="38.150583" lon="15.831559">
        <ele>1352.208041</ele>
        <time>2023-12-04T22:26:41.938Z</time>
      </trkpt>
      <trkpt lat="38.150441" lon="15.831676">
        <ele>1352.044495</ele>
        <time>2023-12-04T22:26:43.895Z</time>
      </trkpt>
      <trkpt lat="38.150311" lon="15.831853">
        <ele>1351.860403</ele>
        <time>2023-12-04T22:26:46.169Z</time>
      </trkpt>
      <trkpt lat="38.150139" lon="15.831901">
        <ele>1351.690196</ele>
        <time>2023-12-04T22:26:48.298Z</time>
      </trkpt>
      <trkpt lat="38.149927" lon="15.831915">
        <ele>1351.485006</ele>
        <time>2023-12-04T22:26:51.072Z</time>
      </trkpt>
      <trkpt lat="38.149631" lon="15.831894">
        <ele>1351.198455</ele>
        <time>2023-12-04T22:26:55.487Z</time>
      </trkpt>
      <trkpt lat="38.149514" lon="15.831856">
        <ele>1351.081736</ele>
        <time>2023-12-04T22:26:57.618Z</time>
      </trkpt>
      <trkpt lat="38.149173" lon="15.831447">
        <ele>1350.326606</ele>
        <time>2023-12-04T22:27:04.904Z</time>
      </trkpt>
      <trkpt lat="38.149067" lon="15.831382">
        <ele>1350.021714</ele>
        <time>2023-12-04T22:27:06.295Z</time>
      </trkpt>
      <trkpt lat="38.148781" lon="15.831365">
        <ele>1349.279930</ele>
        <time>2023-12-04T22:27:09.313Z</time>
      </trkpt>
      <trkpt lat="38.148641" lon="15.831403">
        <ele>1348.909043</ele>
        <time>2023-12-04T22:27:10.738Z</time>
      </trkpt>
      <trkpt lat="38.148489" lon="15.831755">
        <ele>1348.090853</ele>
        <time>2023-12-04T22:27:13.789Z</time>
      </trkpt>
      <trkpt lat="38.148344" lon="15.831936">
        <ele>1347.564426</ele>
        <time>2023-12-04T22:27:15.734Z</time>
      </trkpt>
      <trkpt lat="38.148250" lon="15.831998">
        <ele>1347.290076</ele>
        <time>2023-12-04T22:27:16.780Z</time>
      </trkpt>
      <trkpt lat="38.148115" lon="15.832018">
        <ele>1346.937949</ele>
        <time>2023-12-04T22:27:18.098Z</time>
      </trkpt>
      <trkpt lat="38.147748" lon="15.831988">
        <ele>1346.061290</ele>
        <time>2023-12-04T22:27:21.938Z</time>
      </trkpt>
      <trkpt lat="38.147432" lon="15.832109">
        <ele>1345.604986</ele>
        <time>2023-12-04T22:27:25.701Z</time>
      </trkpt>
      <trkpt lat="38.147123" lon="15.832418">
        <ele>1345.061450</ele>
        <time>2023-12-04T22:27:30.272Z</time>
      </trkpt>
      <trkpt lat="38.147029" lon="15.832558">
        <ele>1344.861282</ele>
        <time>2023-12-04T22:27:31.916Z</time>
      </trkpt>
      <trkpt lat="38.146998" lon="15.832749">
        <ele>1344.649217</ele>
        <time>2023-12-04T22:27:33.486Z</time>
      </trkpt>
      <trkpt lat="38.147018" lon="15.832974">
        <ele>1344.403001</ele>
        <time>2023-12-04T22:27:35.336Z</time>
      </trkpt>
      <trkpt lat="38.146977" lon="15.833370">
        <ele>1343.968686</ele>
        <time>2023-12-04T22:27:38.721Z</time>
      </trkpt>
      <trkpt lat="38.146920" lon="15.833615">
        <ele>1343.690866</ele>
        <time>2023-12-04T22:27:41.362Z</time>
      </trkpt>
      <trkpt lat="38.146796" lon="15.833773">
        <ele>1344.437672</ele>
        <time>2023-12-04T22:27:45.094Z</time>
      </trkpt>
      <trkpt lat="38.146465" lon="15.834050">
        <ele>1346.430954</ele>
        <time>2023-12-04T22:27:56.991Z</time>
      </trkpt>
      <trkpt lat="38.146085" lon="15.834560">
        <ele>1349.210263</ele>
        <time>2023-12-04T22:28:19.292Z</time>
      </trkpt>
      <trkpt lat="38.145770" lon="15.834647">
        <ele>1350.831765</ele>
        <time>2023-12-04T22:28:33.340Z</time>
      </trkpt>
      <trkpt lat="38.145595" lon="15.834751">
        <ele>1351.803474</ele>
        <time>2023-12-04T22:28:41.748Z</time>
      </trkpt>
      <trkpt lat="38.145355" lon="15.835587">
        <ele>1356.123276</ele>
        <time>2023-12-04T22:29:11.224Z</time>
      </trkpt>
      <trkpt lat="38.145260" lon="15.835759">
        <ele>1357.208849</ele>
        <time>2023-12-04T22:29:18.652Z</time>
      </trkpt>
      <trkpt lat="38.145128" lon="15.835753">
        <ele>1358.076308</ele>
        <time>2023-12-04T22:29:24.238Z</time>
      </trkpt>
      <trkpt lat="38.144985" lon="15.835690">
        <ele>1359.070228</ele>
        <time>2023-12-04T22:29:31.034Z</time>
      </trkpt>
      <trkpt lat="38.144677" lon="15.835323">
        <ele>1361.842367</ele>
        <time>2023-12-04T22:29:49.439Z</time>
      </trkpt>
      <trkpt lat="38.144279" lon="15.835192">
        <ele>1364.522234</ele>
        <time>2023-12-04T22:30:05.650Z</time>
      </trkpt>
      <trkpt lat="38.143739" lon="15.834942">
        <ele>1364.604119</ele>
        <time>2023-12-04T22:30:23.826Z</time>
      </trkpt>
      <trkpt lat="38.143359" lon="15.834844">
        <ele>1364.659367</ele>
        <time>2023-12-04T22:30:30.962Z</time>
      </trkpt>
      <trkpt lat="38.143059" lon="15.834829">
        <ele>1364.702147</ele>
        <time>2023-12-04T22:30:34.366Z</time>
      </trkpt>
      <trkpt lat="38.142812" lon="15.834898">
        <ele>1364.738181</ele>
        <time>2023-12-04T22:30:36.903Z</time>
      </trkpt>
      <trkpt lat="38.142629" lon="15.834861">
        <ele>1364.764584</ele>
        <time>2023-12-04T22:30:38.670Z</time>
      </trkpt>
      <trkpt lat="38.142534" lon="15.834799">
        <ele>1364.699467</ele>
        <time>2023-12-04T22:30:39.675Z</time>
      </trkpt>
      <trkpt lat="38.142454" lon="15.834694">
        <ele>1363.953416</ele>
        <time>2023-12-04T22:30:40.782Z</time>
      </trkpt>
      <trkpt lat="38.142249" lon="15.834316">
        <ele>1361.610215</ele>
        <time>2023-12-04T22:30:44.102Z</time>
      </trkpt>
      <trkpt lat="38.142287" lon="15.834026">
        <ele>1360.109867</ele>
        <time>2023-12-04T22:30:46.183Z</time>
      </trkpt>
      <trkpt lat="38.142376" lon="15.832634">
        <ele>1352.984367</ele>
        <time>2023-12-04T22:30:56.021Z</time>
      </trkpt>
      <trkpt lat="38.142399" lon="15.831421">
        <ele>1346.875988</ele>
        <time>2023-12-04T22:31:04.533Z</time>
      </trkpt>
      <trkpt lat="38.142370" lon="15.827114">
        <ele>1328.110331</ele>
        <time>2023-12-04T22:31:36.147Z</time>
      </trkpt>
      <trkpt lat="38.142389" lon="15.826733">
        <ele>1326.588034</ele>
        <time>2023-12-04T22:31:38.992Z</time>
      </trkpt>
      <trkpt lat="38.142433" lon="15.826494">
        <ele>1325.609255</ele>
        <time>2023-12-04T22:31:40.821Z</time>
      </trkpt>
      <trkpt lat="38.142692" lon="15.825547">
        <ele>1321.629206</ele>
        <time>2023-12-04T22:31:48.291Z</time>
      </trkpt>
      <trkpt lat="38.143228" lon="15.824048">
        <ele>1315.157258</ele>
        <time>2023-12-04T22:32:00.498Z</time>
      </trkpt>
      <trkpt lat="38.143553" lon="15.823048">
        <ele>1311.094570</ele>
        <time>2023-12-04T22:32:08.505Z</time>
      </trkpt>
      <trkpt lat="38.144468" lon="15.819415">
        <ele>1297.561864</ele>
        <time>2023-12-04T22:32:37.288Z</time>
      </trkpt>
      <trkpt lat="38.144663" lon="15.818525">
        <ele>1294.176064</ele>
        <time>2023-12-04T22:32:44.369Z</time>
      </trkpt>
      <trkpt lat="38.145019" lon="15.816672">
        <ele>1286.917072</ele>
        <time>2023-12-04T22:32:58.538Z</time>
      </trkpt>
      <trkpt lat="38.145038" lon="15.816465">
        <ele>1286.050221</ele>
        <time>2023-12-04T22:33:00.057Z</time>
      </trkpt>
      <trkpt lat="38.145004" lon="15.816254">
        <ele>1285.154344</ele>
        <time>2023-12-04T22:33:01.648Z</time>
      </trkpt>
      <trkpt lat="38.144895" lon="15.816135">
        <ele>1284.394515</ele>
        <time>2023-12-04T22:33:02.995Z</time>
      </trkpt>
      <trkpt lat="38.144648" lon="15.815983">
        <ele>1282.943207</ele>
        <time>2023-12-04T22:33:05.585Z</time>
      </trkpt>
      <trkpt lat="38.144557" lon="15.815841">
        <ele>1282.181300</ele>
        <time>2023-12-04T22:33:06.943Z</time>
      </trkpt>
      <trkpt lat="38.144504" lon="15.815690">
        <ele>1281.493506</ele>
        <time>2023-12-04T22:33:08.159Z</time>
      </trkpt>
      <trkpt lat="38.144486" lon="15.815487">
        <ele>1280.643782</ele>
        <time>2023-12-04T22:33:09.658Z</time>
      </trkpt>
      <trkpt lat="38.144511" lon="15.815334">
        <ele>1279.993791</ele>
        <time>2023-12-04T22:33:10.799Z</time>
      </trkpt>
      <trkpt lat="38.144574" lon="15.815229">
        <ele>1279.379237</ele>
        <time>2023-12-04T22:33:11.757Z</time>
      </trkpt>
      <trkpt lat="38.144637" lon="15.815130">
        <ele>1278.683918</ele>
        <time>2023-12-04T22:33:12.677Z</time>
      </trkpt>
      <trkpt lat="38.144751" lon="15.815041">
        <ele>1277.755208</ele>
        <time>2023-12-04T22:33:13.899Z</time>
      </trkpt>
      <trkpt lat="38.144922" lon="15.815028">
        <ele>1276.565932</ele>
        <time>2023-12-04T22:33:15.458Z</time>
      </trkpt>
      <trkpt lat="38.145215" lon="15.815076">
        <ele>1274.514987</ele>
        <time>2023-12-04T22:33:18.146Z</time>
      </trkpt>
      <trkpt lat="38.145384" lon="15.815057">
        <ele>1273.337139</ele>
        <time>2023-12-04T22:33:19.685Z</time>
      </trkpt>
      <trkpt lat="38.145509" lon="15.814985">
        <ele>1272.384449</ele>
        <time>2023-12-04T22:33:20.933Z</time>
      </trkpt>
      <trkpt lat="38.146549" lon="15.813799">
        <ele>1261.559029</ele>
        <time>2023-12-04T22:33:33.267Z</time>
      </trkpt>
      <trkpt lat="38.146749" lon="15.813542">
        <ele>1259.088452</ele>
        <time>2023-12-04T22:33:35.702Z</time>
      </trkpt>
      <trkpt lat="38.147017" lon="15.813097">
        <ele>1255.258512</ele>
        <time>2023-12-04T22:33:39.489Z</time>
      </trkpt>
      <trkpt lat="38.147084" lon="15.812657">
        <ele>1252.196104</ele>
        <time>2023-12-04T22:33:42.579Z</time>
      </trkpt>
      <trkpt lat="38.146994" lon="15.811817">
        <ele>1248.079489</ele>
        <time>2023-12-04T22:33:48.645Z</time>
      </trkpt>
      <trkpt lat="38.147050" lon="15.811691">
        <ele>1247.413373</ele>
        <time>2023-12-04T22:33:49.711Z</time>
      </trkpt>
      <trkpt lat="38.147131" lon="15.811613">
        <ele>1246.818735</ele>
        <time>2023-12-04T22:33:50.660Z</time>
      </trkpt>
      <trkpt lat="38.147251" lon="15.811589">
        <ele>1246.107813</ele>
        <time>2023-12-04T22:33:51.790Z</time>
      </trkpt>
      <trkpt lat="38.147346" lon="15.811613">
        <ele>1245.540969</ele>
        <time>2023-12-04T22:33:52.693Z</time>
      </trkpt>
      <trkpt lat="38.147415" lon="15.811686">
        <ele>1245.015660</ele>
        <time>2023-12-04T22:33:53.541Z</time>
      </trkpt>
      <trkpt lat="38.147620" lon="15.812115">
        <ele>1242.705280</ele>
        <time>2023-12-04T22:33:57.252Z</time>
      </trkpt>
      <trkpt lat="38.147825" lon="15.812442">
        <ele>1240.744202</ele>
        <time>2023-12-04T22:34:00.348Z</time>
      </trkpt>
      <trkpt lat="38.147922" lon="15.812659">
        <ele>1239.414495</ele>
        <time>2023-12-04T22:34:02.191Z</time>
      </trkpt>
      <trkpt lat="38.148100" lon="15.812883">
        <ele>1237.718067</ele>
        <time>2023-12-04T22:34:04.596Z</time>
      </trkpt>
      <trkpt lat="38.148717" lon="15.813101">
        <ele>1233.380138</ele>
        <time>2023-12-04T22:34:10.523Z</time>
      </trkpt>
      <trkpt lat="38.148889" lon="15.813105">
        <ele>1232.214807</ele>
        <time>2023-12-04T22:34:12.052Z</time>
      </trkpt>
      <trkpt lat="38.148935" lon="15.813061">
        <ele>1231.824885</ele>
        <time>2023-12-04T22:34:12.559Z</time>
      </trkpt>
      <trkpt lat="38.149106" lon="15.812641">
        <ele>1229.305403</ele>
        <time>2023-12-04T22:34:15.800Z</time>
      </trkpt>
      <trkpt lat="38.149839" lon="15.810759">
        <ele>1212.958476</ele>
        <time>2023-12-04T22:34:29.965Z</time>
      </trkpt>
      <trkpt lat="38.149892" lon="15.810385">
        <ele>1210.012243</ele>
        <time>2023-12-04T22:34:32.543Z</time>
      </trkpt>
      <trkpt lat="38.149910" lon="15.808181">
        <ele>1193.771452</ele>
        <time>2023-12-04T22:34:47.562Z</time>
      </trkpt>
      <trkpt lat="38.150031" lon="15.806227">
        <ele>1181.097523</ele>
        <time>2023-12-04T22:35:01.130Z</time>
      </trkpt>
      <trkpt lat="38.150053" lon="15.805169">
        <ele>1174.954959</ele>
        <time>2023-12-04T22:35:08.554Z</time>
      </trkpt>
      <trkpt lat="38.150399" lon="15.803519">
        <ele>1165.662921</ele>
        <time>2023-12-04T22:35:20.643Z</time>
      </trkpt>
      <trkpt lat="38.150491" lon="15.803195">
        <ele>1164.071246</ele>
        <time>2023-12-04T22:35:23.124Z</time>
      </trkpt>
      <trkpt lat="38.150461" lon="15.802017">
        <ele>1158.625344</ele>
        <time>2023-12-04T22:35:31.690Z</time>
      </trkpt>
      <trkpt lat="38.150444" lon="15.801483">
        <ele>1156.155930</ele>
        <time>2023-12-04T22:35:35.605Z</time>
      </trkpt>
      <trkpt lat="38.150387" lon="15.799678">
        <ele>1147.216640</ele>
        <time>2023-12-04T22:35:48.781Z</time>
      </trkpt>
      <trkpt lat="38.150475" lon="15.797706">
        <ele>1134.308637</ele>
        <time>2023-12-04T22:36:02.445Z</time>
      </trkpt>
      <trkpt lat="38.150380" lon="15.797384">
        <ele>1131.857969</ele>
        <time>2023-12-04T22:36:04.764Z</time>
      </trkpt>
      <trkpt lat="38.150254" lon="15.797264">
        <ele>1130.431525</ele>
        <time>2023-12-04T22:36:06.119Z</time>
      </trkpt>
      <trkpt lat="38.150077" lon="15.797202">
        <ele>1128.767925</ele>
        <time>2023-12-04T22:36:07.692Z</time>
      </trkpt>
      <trkpt lat="38.149600" lon="15.797342">
        <ele>1123.283182</ele>
        <time>2023-12-04T22:36:11.870Z</time>
      </trkpt>
      <trkpt lat="38.149511" lon="15.797307">
        <ele>1122.212931</ele>
        <time>2023-12-04T22:36:12.659Z</time>
      </trkpt>
      <trkpt lat="38.149440" lon="15.797242">
        <ele>1121.207849</ele>
        <time>2023-12-04T22:36:13.407Z</time>
      </trkpt>
      <trkpt lat="38.149417" lon="15.797135">
        <ele>1120.205691</ele>
        <time>2023-12-04T22:36:14.154Z</time>
      </trkpt>
      <trkpt lat="38.149469" lon="15.796880">
        <ele>1117.825686</ele>
        <time>2023-12-04T22:36:15.910Z</time>
      </trkpt>
      <trkpt lat="38.149712" lon="15.796296">
        <ele>1111.856478</ele>
        <time>2023-12-04T22:36:20.296Z</time>
      </trkpt>
      <trkpt lat="38.150224" lon="15.795467">
        <ele>1103.945099</ele>
        <time>2023-12-04T22:36:27.306Z</time>
      </trkpt>
      <trkpt lat="38.150313" lon="15.795182">
        <ele>1102.025134</ele>
        <time>2023-12-04T22:36:29.385Z</time>
      </trkpt>
      <trkpt lat="38.150450" lon="15.794469">
        <ele>1097.429637</ele>
        <time>2023-12-04T22:36:34.587Z</time>
      </trkpt>
      <trkpt lat="38.150484" lon="15.793978">
        <ele>1094.343541</ele>
        <time>2023-12-04T22:36:38.296Z</time>
      </trkpt>
      <trkpt lat="38.150526" lon="15.793879">
        <ele>1093.639245</ele>
        <time>2023-12-04T22:36:39.159Z</time>
      </trkpt>
      <trkpt lat="38.150779" lon="15.793581">
        <ele>1091.752467</ele>
        <time>2023-12-04T22:36:42.456Z</time>
      </trkpt>
      <trkpt lat="38.150876" lon="15.793517">
        <ele>1091.197704</ele>
        <time>2023-12-04T22:36:43.498Z</time>
      </trkpt>
      <trkpt lat="38.150950" lon="15.793533">
        <ele>1090.816648</ele>
        <time>2023-12-04T22:36:44.207Z</time>
      </trkpt>
      <trkpt lat="38.151117" lon="15.793691">
        <ele>1089.759959</ele>
        <time>2023-12-04T22:36:46.152Z</time>
      </trkpt>
      <trkpt lat="38.151289" lon="15.793997">
        <ele>1088.258395</ele>
        <time>2023-12-04T22:36:48.939Z</time>
      </trkpt>
      <trkpt lat="38.151446" lon="15.794206">
        <ele>1087.104541</ele>
        <time>2023-12-04T22:36:51.130Z</time>
      </trkpt>
      <trkpt lat="38.151505" lon="15.794198">
        <ele>1086.803326</ele>
        <time>2023-12-04T22:36:51.689Z</time>
      </trkpt>
      <trkpt lat="38.151557" lon="15.794118">
        <ele>1086.388982</ele>
        <time>2023-12-04T22:36:52.470Z</time>
      </trkpt>
      <trkpt lat="38.151543" lon="15.794016">
        <ele>1085.975632</ele>
        <time>2023-12-04T22:36:53.259Z</time>
      </trkpt>
      <trkpt lat="38.151395" lon="15.793863">
        <ele>1085.007354</ele>
        <time>2023-12-04T22:36:55.077Z</time>
      </trkpt>
      <trkpt lat="38.151344" lon="15.793750">
        <ele>1084.487229</ele>
        <time>2023-12-04T22:36:56.040Z</time>
      </trkpt>
      <trkpt lat="38.151275" lon="15.793096">
        <ele>1079.792384</ele>
        <time>2023-12-04T22:37:00.811Z</time>
      </trkpt>
      <trkpt lat="38.151224" lon="15.792946">
        <ele>1078.550324</ele>
        <time>2023-12-04T22:37:01.943Z</time>
      </trkpt>
      <trkpt lat="38.150754" lon="15.792253">
        <ele>1071.594935</ele>
        <time>2023-12-04T22:37:08.085Z</time>
      </trkpt>
      <trkpt lat="38.150682" lon="15.792087">
        <ele>1070.154071</ele>
        <time>2023-12-04T22:37:09.340Z</time>
      </trkpt>
      <trkpt lat="38.150642" lon="15.791838">
        <ele>1068.222466</ele>
        <time>2023-12-04T22:37:11.019Z</time>
      </trkpt>
      <trkpt lat="38.150636" lon="15.791639">
        <ele>1066.709064</ele>
        <time>2023-12-04T22:37:12.337Z</time>
      </trkpt>
      <trkpt lat="38.150663" lon="15.791441">
        <ele>1065.189587</ele>
        <time>2023-12-04T22:37:13.670Z</time>
      </trkpt>
      <trkpt lat="38.150720" lon="15.791288">
        <ele>1063.909455</ele>
        <time>2023-12-04T22:37:14.799Z</time>
      </trkpt>
      <trkpt lat="38.150956" lon="15.790867">
        <ele>1060.000164</ele>
        <time>2023-12-04T22:37:18.260Z</time>
      </trkpt>
      <trkpt lat="38.151119" lon="15.790660">
        <ele>1057.785183</ele>
        <time>2023-12-04T22:37:20.228Z</time>
      </trkpt>
      <trkpt lat="38.151330" lon="15.790472">
        <ele>1055.307938</ele>
        <time>2023-12-04T22:37:22.461Z</time>
      </trkpt>
      <trkpt lat="38.151731" lon="15.790233">
        <ele>1051.049761</ele>
        <time>2023-12-04T22:37:26.371Z</time>
      </trkpt>
      <trkpt lat="38.152224" lon="15.789995">
        <ele>1048.923083</ele>
        <time>2023-12-04T22:37:31.164Z</time>
      </trkpt>
      <trkpt lat="38.152509" lon="15.790019">
        <ele>1048.503102</ele>
        <time>2023-12-04T22:37:33.957Z</time>
      </trkpt>
      <trkpt lat="38.152602" lon="15.789987">
        <ele>1048.361438</ele>
        <time>2023-12-04T22:37:34.920Z</time>
      </trkpt>
      <trkpt lat="38.153241" lon="15.789394">
        <ele>1047.198271</ele>
        <time>2023-12-04T22:37:47.723Z</time>
      </trkpt>
      <trkpt lat="38.153361" lon="15.789244">
        <ele>1046.950855</ele>
        <time>2023-12-04T22:37:52.306Z</time>
      </trkpt>
      <trkpt lat="38.153536" lon="15.788906">
        <ele>1047.423278</ele>
        <time>2023-12-04T22:38:01.836Z</time>
      </trkpt>
      <trkpt lat="38.153667" lon="15.788734">
        <ele>1047.942923</ele>
        <time>2023-12-04T22:38:07.695Z</time>
      </trkpt>
      <trkpt lat="38.153924" lon="15.788544">
        <ele>1048.763326</ele>
        <time>2023-12-04T22:38:17.624Z</time>
      </trkpt>
      <trkpt lat="38.153945" lon="15.788478">
        <ele>1048.917836</ele>
        <time>2023-12-04T22:38:19.374Z</time>
      </trkpt>
      <trkpt lat="38.153964" lon="15.788346">
        <ele>1049.209055</ele>
        <time>2023-12-04T22:38:22.832Z</time>
      </trkpt>
      <trkpt lat="38.153943" lon="15.788225">
        <ele>1049.477962</ele>
        <time>2023-12-04T22:38:25.893Z</time>
      </trkpt>
      <trkpt lat="38.153861" lon="15.787999">
        <ele>1050.018107</ele>
        <time>2023-12-04T22:38:31.596Z</time>
      </trkpt>
      <trkpt lat="38.153713" lon="15.787836">
        <ele>1050.558435</ele>
        <time>2023-12-04T22:38:37.126Z</time>
      </trkpt>
      <trkpt lat="38.153470" lon="15.787667">
        <ele>1051.322793</ele>
        <time>2023-12-04T22:38:43.977Z</time>
      </trkpt>
      <trkpt lat="38.153363" lon="15.787554">
        <ele>1051.706636</ele>
        <time>2023-12-04T22:38:46.472Z</time>
      </trkpt>
      <trkpt lat="38.153298" lon="15.787393">
        <ele>1051.329779</ele>
        <time>2023-12-04T22:38:48.912Z</time>
      </trkpt>
      <trkpt lat="38.153215" lon="15.786991">
        <ele>1050.100930</ele>
        <time>2023-12-04T22:38:52.802Z</time>
      </trkpt>
      <trkpt lat="38.153182" lon="15.786916">
        <ele>1049.846830</ele>
        <time>2023-12-04T22:38:53.539Z</time>
      </trkpt>
      <trkpt lat="38.152983" lon="15.786717">
        <ele>1048.894986</ele>
        <time>2023-12-04T22:38:56.011Z</time>
      </trkpt>
      <trkpt lat="38.152943" lon="15.786581">
        <ele>1048.465678</ele>
        <time>2023-12-04T22:38:57.109Z</time>
      </trkpt>
      <trkpt lat="38.152922" lon="15.786058">
        <ele>1046.917341</ele>
        <time>2023-12-04T22:39:00.915Z</time>
      </trkpt>
      <trkpt lat="38.152817" lon="15.785457">
        <ele>1045.097073</ele>
        <time>2023-12-04T22:39:05.318Z</time>
      </trkpt>
      <trkpt lat="38.152829" lon="15.785317">
        <ele>1044.641274</ele>
        <time>2023-12-04T22:39:06.312Z</time>
      </trkpt>
      <trkpt lat="38.153087" lon="15.784944">
        <ele>1042.997218</ele>
        <time>2023-12-04T22:39:09.878Z</time>
      </trkpt>
      <trkpt lat="38.153139" lon="15.784826">
        <ele>1042.549552</ele>
        <time>2023-12-04T22:39:10.877Z</time>
      </trkpt>
      <trkpt lat="38.153108" lon="15.784454">
        <ele>1041.311512</ele>
        <time>2023-12-04T22:39:13.608Z</time>
      </trkpt>
      <trkpt lat="38.152964" lon="15.784151">
        <ele>1040.139813</ele>
        <time>2023-12-04T22:39:16.250Z</time>
      </trkpt>
      <trkpt lat="38.151908" lon="15.782367">
        <ele>1034.088931</ele>
        <time>2023-12-04T22:39:36.226Z</time>
      </trkpt>
      <trkpt lat="38.151538" lon="15.782107">
        <ele>1032.817655</ele>
        <time>2023-12-04T22:39:40.516Z</time>
      </trkpt>
      <trkpt lat="38.151349" lon="15.781592">
        <ele>1030.151459</ele>
        <time>2023-12-04T22:39:44.647Z</time>
      </trkpt>
      <trkpt lat="38.151268" lon="15.781474">
        <ele>1028.903937</ele>
        <time>2023-12-04T22:39:45.742Z</time>
      </trkpt>
      <trkpt lat="38.150750" lon="15.781031">
        <ele>1022.581423</ele>
        <time>2023-12-04T22:39:51.151Z</time>
      </trkpt>
      <trkpt lat="38.150640" lon="15.780838">
        <ele>1020.682955</ele>
        <time>2023-12-04T22:39:52.742Z</time>
      </trkpt>
      <trkpt lat="38.150627" lon="15.780709">
        <ele>1019.647103</ele>
        <time>2023-12-04T22:39:53.606Z</time>
      </trkpt>
      <trkpt lat="38.150659" lon="15.780441">
        <ele>1017.488092</ele>
        <time>2023-12-04T22:39:55.406Z</time>
      </trkpt>
      <trkpt lat="38.150651" lon="15.780298">
        <ele>1016.346258</ele>
        <time>2023-12-04T22:39:56.353Z</time>
      </trkpt>
      <trkpt lat="38.150545" lon="15.780127">
        <ele>1014.612027</ele>
        <time>2023-12-04T22:39:57.789Z</time>
      </trkpt>
      <trkpt lat="38.149619" lon="15.779272">
        <ele>999.070112</ele>
        <time>2023-12-04T22:40:07.345Z</time>
      </trkpt>
      <trkpt lat="38.149117" lon="15.778671">
        <ele>989.530241</ele>
        <time>2023-12-04T22:40:13.104Z</time>
      </trkpt>
      <trkpt lat="38.148828" lon="15.778218">
        <ele>983.253389</ele>
        <time>2023-12-04T22:40:16.941Z</time>
      </trkpt>
      <trkpt lat="38.148691" lon="15.777888">
        <ele>979.242658</ele>
        <time>2023-12-04T22:40:19.393Z</time>
      </trkpt>
      <trkpt lat="38.148341" lon="15.776198">
        <ele>961.591902</ele>
        <time>2023-12-04T22:40:30.883Z</time>
      </trkpt>
      <trkpt lat="38.148221" lon="15.775879">
        <ele>958.898845</ele>
        <time>2023-12-04T22:40:33.244Z</time>
      </trkpt>
      <trkpt lat="38.147721" lon="15.775052">
        <ele>950.954445</ele>
        <time>2023-12-04T22:40:40.357Z</time>
      </trkpt>
      <trkpt lat="38.147085" lon="15.774271">
        <ele>944.459400</ele>
        <time>2023-12-04T22:40:48.426Z</time>
      </trkpt>
      <trkpt lat="38.146577" lon="15.773475">
        <ele>940.210647</ele>
        <time>2023-12-04T22:40:56.035Z</time>
      </trkpt>
      <trkpt lat="38.146092" lon="15.772866">
        <ele>936.804304</ele>
        <time>2023-12-04T22:41:02.535Z</time>
      </trkpt>
      <trkpt lat="38.145822" lon="15.772587">
        <ele>935.381414</ele>
        <time>2023-12-04T22:41:05.966Z</time>
      </trkpt>
      <trkpt lat="38.145485" lon="15.772358">
        <ele>933.818692</ele>
        <time>2023-12-04T22:41:09.719Z</time>
      </trkpt>
      <trkpt lat="38.145305" lon="15.772197">
        <ele>932.918642</ele>
        <time>2023-12-04T22:41:11.813Z</time>
      </trkpt>
      <trkpt lat="38.145187" lon="15.772038">
        <ele>932.215481</ele>
        <time>2023-12-04T22:41:13.471Z</time>
      </trkpt>
      <trkpt lat="38.145059" lon="15.771813">
        <ele>931.322300</ele>
        <time>2023-12-04T22:41:15.580Z</time>
      </trkpt>
      <trkpt lat="38.144869" lon="15.771125">
        <ele>929.115908</ele>
        <time>2023-12-04T22:41:21.282Z</time>
      </trkpt>
      <trkpt lat="38.144080" lon="15.769686">
        <ele>924.176565</ele>
        <time>2023-12-04T22:41:35.097Z</time>
      </trkpt>
      <trkpt lat="38.143658" lon="15.769128">
        <ele>923.238813</ele>
        <time>2023-12-04T22:41:41.026Z</time>
      </trkpt>
      <trkpt lat="38.143515" lon="15.768806">
        <ele>922.978519</ele>
        <time>2023-12-04T22:41:44.015Z</time>
      </trkpt>
      <trkpt lat="38.143337" lon="15.768012">
        <ele>922.397360</ele>
        <time>2023-12-04T22:41:51.587Z</time>
      </trkpt>
      <trkpt lat="38.143270" lon="15.767487">
        <ele>922.179147</ele>
        <time>2023-12-04T22:42:01.703Z</time>
      </trkpt>
      <trkpt lat="38.143179" lon="15.766297">
        <ele>927.910860</ele>
        <time>2023-12-04T22:42:39.298Z</time>
      </trkpt>
      <trkpt lat="38.143194" lon="15.766168">
        <ele>928.536003</ele>
        <time>2023-12-04T22:42:44.057Z</time>
      </trkpt>
      <trkpt lat="38.143394" lon="15.765637">
        <ele>931.358458</ele>
        <time>2023-12-04T22:43:05.652Z</time>
      </trkpt>
      <trkpt lat="38.143436" lon="15.765468">
        <ele>932.208122</ele>
        <time>2023-12-04T22:43:11.571Z</time>
      </trkpt>
      <trkpt lat="38.143449" lon="15.765176">
        <ele>933.320777</ele>
        <time>2023-12-04T22:43:21.946Z</time>
      </trkpt>
      <trkpt lat="38.143415" lon="15.764051">
        <ele>936.129709</ele>
        <time>2023-12-04T22:43:55.104Z</time>
      </trkpt>
      <trkpt lat="38.143030" lon="15.763210">
        <ele>938.557584</ele>
        <time>2023-12-04T22:44:08.858Z</time>
      </trkpt>
      <trkpt lat="38.142605" lon="15.762008">
        <ele>934.536930</ele>
        <time>2023-12-04T22:44:19.299Z</time>
      </trkpt>
      <trkpt lat="38.142011" lon="15.760677">
        <ele>928.408085</ele>
        <time>2023-12-04T22:44:30.278Z</time>
      </trkpt>
      <trkpt lat="38.141181" lon="15.759201">
        <ele>918.600687</ele>
        <time>2023-12-04T22:44:43.050Z</time>
      </trkpt>
      <trkpt lat="38.140465" lon="15.757691">
        <ele>909.497675</ele>
        <time>2023-12-04T22:44:55.675Z</time>
      </trkpt>
      <trkpt lat="38.140041" lon="15.756413">
        <ele>901.240042</ele>
        <time>2023-12-04T22:45:05.527Z</time>
      </trkpt>
      <trkpt lat="38.139979" lon="15.756020">
        <ele>898.676772</ele>
        <time>2023-12-04T22:45:08.267Z</time>
      </trkpt>
      <trkpt lat="38.140000" lon="15.755579">
        <ele>895.851439</ele>
        <time>2023-12-04T22:45:11.306Z</time>
      </trkpt>
      <trkpt lat="38.140147" lon="15.755108">
        <ele>892.610944</ele>
        <time>2023-12-04T22:45:14.791Z</time>
      </trkpt>
      <trkpt lat="38.140192" lon="15.754796">
        <ele>889.838696</ele>
        <time>2023-12-04T22:45:16.957Z</time>
      </trkpt>
      <trkpt lat="38.140190" lon="15.754606">
        <ele>888.099455</ele>
        <time>2023-12-04T22:45:18.254Z</time>
      </trkpt>
      <trkpt lat="38.140184" lon="15.754284">
        <ele>885.151335</ele>
        <time>2023-12-04T22:45:20.425Z</time>
      </trkpt>
      <trkpt lat="38.140237" lon="15.754080">
        <ele>883.184871</ele>
        <time>2023-12-04T22:45:21.861Z</time>
      </trkpt>
      <trkpt lat="38.140357" lon="15.753924">
        <ele>881.187593</ele>
        <time>2023-12-04T22:45:23.310Z</time>
      </trkpt>
      <trkpt lat="38.140492" lon="15.753841">
        <ele>879.442464</ele>
        <time>2023-12-04T22:45:24.570Z</time>
      </trkpt>
      <trkpt lat="38.140631" lon="15.753643">
        <ele>877.013226</ele>
        <time>2023-12-04T22:45:26.320Z</time>
      </trkpt>
      <trkpt lat="38.140941" lon="15.753063">
        <ele>870.372636</ele>
        <time>2023-12-04T22:45:30.944Z</time>
      </trkpt>
      <trkpt lat="38.141080" lon="15.752675">
        <ele>865.359724</ele>
        <time>2023-12-04T22:45:33.768Z</time>
      </trkpt>
      <trkpt lat="38.141144" lon="15.752377">
        <ele>861.727685</ele>
        <time>2023-12-04T22:45:35.811Z</time>
      </trkpt>
      <trkpt lat="38.141191" lon="15.751921">
        <ele>856.320392</ele>
        <time>2023-12-04T22:45:38.826Z</time>
      </trkpt>
      <trkpt lat="38.141382" lon="15.751534">
        <ele>850.948523</ele>
        <time>2023-12-04T22:45:41.791Z</time>
      </trkpt>
      <trkpt lat="38.141418" lon="15.751399">
        <ele>849.272501</ele>
        <time>2023-12-04T22:45:42.716Z</time>
      </trkpt>
      <trkpt lat="38.141424" lon="15.751226">
        <ele>847.236472</ele>
        <time>2023-12-04T22:45:43.838Z</time>
      </trkpt>
      <trkpt lat="38.141231" lon="15.750072">
        <ele>836.063440</ele>
        <time>2023-12-04T22:45:51.475Z</time>
      </trkpt>
      <trkpt lat="38.140689" lon="15.748973">
        <ele>824.512386</ele>
        <time>2023-12-04T22:46:00.381Z</time>
      </trkpt>
      <trkpt lat="38.140639" lon="15.748778">
        <ele>824.224078</ele>
        <time>2023-12-04T22:46:02.080Z</time>
      </trkpt>
      <trkpt lat="38.140658" lon="15.748603">
        <ele>824.335887</ele>
        <time>2023-12-04T22:46:03.635Z</time>
      </trkpt>
      <trkpt lat="38.140711" lon="15.748435">
        <ele>824.450451</ele>
        <time>2023-12-04T22:46:05.546Z</time>
      </trkpt>
      <trkpt lat="38.140821" lon="15.748252">
        <ele>824.596227</ele>
        <time>2023-12-04T22:46:08.206Z</time>
      </trkpt>
      <trkpt lat="38.140917" lon="15.748179">
        <ele>824.686242</ele>
        <time>2023-12-04T22:46:10.173Z</time>
      </trkpt>
      <trkpt lat="38.140987" lon="15.748288">
        <ele>824.775306</ele>
        <time>2023-12-04T22:46:12.470Z</time>
      </trkpt>
      <trkpt lat="38.141083" lon="15.748634">
        <ele>825.007519</ele>
        <time>2023-12-04T22:46:19.471Z</time>
      </trkpt>
      <trkpt lat="38.141416" lon="15.749326">
        <ele>825.520965</ele>
        <time>2023-12-04T22:46:39.501Z</time>
      </trkpt>
      <trkpt lat="38.141468" lon="15.749384">
        <ele>825.571816</ele>
        <time>2023-12-04T22:46:41.721Z</time>
      </trkpt>
      <trkpt lat="38.141539" lon="15.749408">
        <ele>825.591465</ele>
        <time>2023-12-04T22:46:44.047Z</time>
      </trkpt>
      <trkpt lat="38.141600" lon="15.749358">
        <ele>825.610876</ele>
        <time>2023-12-04T22:46:46.321Z</time>
      </trkpt>
      <trkpt lat="38.141614" lon="15.749276">
        <ele>825.628527</ele>
        <time>2023-12-04T22:46:48.613Z</time>
      </trkpt>
      <trkpt lat="38.141574" lon="15.749169">
        <ele>825.653448</ele>
        <time>2023-12-04T22:46:51.775Z</time>
      </trkpt>
      <trkpt lat="38.141244" lon="15.748651">
        <ele>825.793672</ele>
        <time>2023-12-04T22:47:05.358Z</time>
      </trkpt>
      <trkpt lat="38.141192" lon="15.748393">
        <ele>825.849696</ele>
        <time>2023-12-04T22:47:09.237Z</time>
      </trkpt>
      <trkpt lat="38.141206" lon="15.748163">
        <ele>825.898222</ele>
        <time>2023-12-04T22:47:11.693Z</time>
      </trkpt>
      <trkpt lat="38.141240" lon="15.748093">
        <ele>825.915528</ele>
        <time>2023-12-04T22:47:12.711Z</time>
      </trkpt>
      <trkpt lat="38.141291" lon="15.748051">
        <ele>825.931780</ele>
        <time>2023-12-04T22:47:13.542Z</time>
      </trkpt>
      <trkpt lat="38.141389" lon="15.748053">
        <ele>825.957994</ele>
        <time>2023-12-04T22:47:14.590Z</time>
      </trkpt>
      <trkpt lat="38.141662" lon="15.748216">
        <ele>826.038660</ele>
        <time>2023-12-04T22:47:17.623Z</time>
      </trkpt>
      <trkpt lat="38.141829" lon="15.748387">
        <ele>824.525099</ele>
        <time>2023-12-04T22:47:19.595Z</time>
      </trkpt>
      <trkpt lat="38.142240" lon="15.749382">
        <ele>816.604504</ele>
        <time>2023-12-04T22:47:27.393Z</time>
      </trkpt>
      <trkpt lat="38.142423" lon="15.749631">
        <ele>814.202744</ele>
        <time>2023-12-04T22:47:29.690Z</time>
      </trkpt>
      <trkpt lat="38.142639" lon="15.749683">
        <ele>812.232820</ele>
        <time>2023-12-04T22:47:31.558Z</time>
      </trkpt>
      <trkpt lat="38.142969" lon="15.749090">
        <ele>805.572693</ele>
        <time>2023-12-04T22:47:36.355Z</time>
      </trkpt>
      <trkpt lat="38.143347" lon="15.748275">
        <ele>795.261654</ele>
        <time>2023-12-04T22:47:42.556Z</time>
      </trkpt>
      <trkpt lat="38.143537" lon="15.748232">
        <ele>792.587543</ele>
        <time>2023-12-04T22:47:44.156Z</time>
      </trkpt>
      <trkpt lat="38.143833" lon="15.748241">
        <ele>788.484850</ele>
        <time>2023-12-04T22:47:46.637Z</time>
      </trkpt>
      <trkpt lat="38.143948" lon="15.748181">
        <ele>786.762422</ele>
        <time>2023-12-04T22:47:47.669Z</time>
      </trkpt>
      <trkpt lat="38.143847" lon="15.747897">
        <ele>783.469218</ele>
        <time>2023-12-04T22:47:49.712Z</time>
      </trkpt>
      <trkpt lat="38.143672" lon="15.747726">
        <ele>780.603354</ele>
        <time>2023-12-04T22:47:51.558Z</time>
      </trkpt>
      <trkpt lat="38.143314" lon="15.747837">
        <ele>775.818524</ele>
        <time>2023-12-04T22:47:54.642Z</time>
      </trkpt>
      <trkpt lat="38.143307" lon="15.747631">
        <ele>773.712835</ele>
        <time>2023-12-04T22:47:56.005Z</time>
      </trkpt>
      <trkpt lat="38.143543" lon="15.747442">
        <ele>770.091205</ele>
        <time>2023-12-04T22:47:58.357Z</time>
      </trkpt>
      <trkpt lat="38.144153" lon="15.747185">
        <ele>761.746883</ele>
        <time>2023-12-04T22:48:03.782Z</time>
      </trkpt>
      <trkpt lat="38.144161" lon="15.747123">
        <ele>761.243798</ele>
        <time>2023-12-04T22:48:04.202Z</time>
      </trkpt>
      <trkpt lat="38.143915" lon="15.746189">
        <ele>753.719929</ele>
        <time>2023-12-04T22:48:10.744Z</time>
      </trkpt>
      <trkpt lat="38.143917" lon="15.745943">
        <ele>751.840740</ele>
        <time>2023-12-04T22:48:12.390Z</time>
      </trkpt>
      <trkpt lat="38.143988" lon="15.745732">
        <ele>750.087674</ele>
        <time>2023-12-04T22:48:13.937Z</time>
      </trkpt>
      <trkpt lat="38.144474" lon="15.745154">
        <ele>744.062019</ele>
        <time>2023-12-04T22:48:19.927Z</time>
      </trkpt>
      <trkpt lat="38.144544" lon="15.744953">
        <ele>743.692497</ele>
        <time>2023-12-04T22:48:21.589Z</time>
      </trkpt>
      <trkpt lat="38.144551" lon="15.744842">
        <ele>743.505309</ele>
        <time>2023-12-04T22:48:22.445Z</time>
      </trkpt>
      <trkpt lat="38.144504" lon="15.744560">
        <ele>743.020745</ele>
        <time>2023-12-04T22:48:24.705Z</time>
      </trkpt>
      <trkpt lat="38.144301" lon="15.744115">
        <ele>742.155975</ele>
        <time>2023-12-04T22:48:29.117Z</time>
      </trkpt>
      <trkpt lat="38.144259" lon="15.743919">
        <ele>741.814491</ele>
        <time>2023-12-04T22:48:31.029Z</time>
      </trkpt>
      <trkpt lat="38.144256" lon="15.743546">
        <ele>741.187450</ele>
        <time>2023-12-04T22:48:34.953Z</time>
      </trkpt>
      <trkpt lat="38.144387" lon="15.743250">
        <ele>740.616505</ele>
        <time>2023-12-04T22:48:39.079Z</time>
      </trkpt>
      <trkpt lat="38.144489" lon="15.743183">
        <ele>740.371116</ele>
        <time>2023-12-04T22:48:41.195Z</time>
      </trkpt>
      <trkpt lat="38.144899" lon="15.743012">
        <ele>740.298810</ele>
        <time>2023-12-04T22:48:49.429Z</time>
      </trkpt>
      <trkpt lat="38.144945" lon="15.742905">
        <ele>740.289104</ele>
        <time>2023-12-04T22:48:51.124Z</time>
      </trkpt>
      <trkpt lat="38.144941" lon="15.742764">
        <ele>740.277873</ele>
        <time>2023-12-04T22:48:53.218Z</time>
      </trkpt>
      <trkpt lat="38.144828" lon="15.742437">
        <ele>740.249443</ele>
        <time>2023-12-04T22:48:58.207Z</time>
      </trkpt>
      <trkpt lat="38.144707" lon="15.742295">
        <ele>740.232777</ele>
        <time>2023-12-04T22:49:01.068Z</time>
      </trkpt>
      <trkpt lat="38.143949" lon="15.742024">
        <ele>739.731198</ele>
        <time>2023-12-04T22:49:12.169Z</time>
      </trkpt>
      <trkpt lat="38.143860" lon="15.741957">
        <ele>738.976158</ele>
        <time>2023-12-04T22:49:13.311Z</time>
      </trkpt>
      <trkpt lat="38.143729" lon="15.741847">
        <ele>737.830134</ele>
        <time>2023-12-04T22:49:14.988Z</time>
      </trkpt>
      <trkpt lat="38.143119" lon="15.741170">
        <ele>731.919360</ele>
        <time>2023-12-04T22:49:22.361Z</time>
      </trkpt>
      <trkpt lat="38.142798" lon="15.740900">
        <ele>729.109704</ele>
        <time>2023-12-04T22:49:25.649Z</time>
      </trkpt>
      <trkpt lat="38.142673" lon="15.740737">
        <ele>727.802620</ele>
        <time>2023-12-04T22:49:27.156Z</time>
      </trkpt>
      <trkpt lat="38.142610" lon="15.740313">
        <ele>724.606912</ele>
        <time>2023-12-04T22:49:30.009Z</time>
      </trkpt>
      <trkpt lat="38.142616" lon="15.740104">
        <ele>722.899865</ele>
        <time>2023-12-04T22:49:31.388Z</time>
      </trkpt>
      <trkpt lat="38.142651" lon="15.739886">
        <ele>721.083797</ele>
        <time>2023-12-04T22:49:32.844Z</time>
      </trkpt>
      <trkpt lat="38.142762" lon="15.739470">
        <ele>717.498209</ele>
        <time>2023-12-04T22:49:35.751Z</time>
      </trkpt>
      <trkpt lat="38.142822" lon="15.739373">
        <ele>716.490937</ele>
        <time>2023-12-04T22:49:36.576Z</time>
      </trkpt>
      <trkpt lat="38.143510" lon="15.738389">
        <ele>707.792895</ele>
        <time>2023-12-04T22:49:45.667Z</time>
      </trkpt>
      <trkpt lat="38.143650" lon="15.738270">
        <ele>707.412942</ele>
        <time>2023-12-04T22:49:47.366Z</time>
      </trkpt>
      <trkpt lat="38.144374" lon="15.737967">
        <ele>705.693216</ele>
        <time>2023-12-04T22:49:56.758Z</time>
      </trkpt>
      <trkpt lat="38.144579" lon="15.737757">
        <ele>705.099257</ele>
        <time>2023-12-04T22:50:00.354Z</time>
      </trkpt>
      <trkpt lat="38.144651" lon="15.737551">
        <ele>704.699252</ele>
        <time>2023-12-04T22:50:02.878Z</time>
      </trkpt>
      <trkpt lat="38.144649" lon="15.737422">
        <ele>704.470306</ele>
        <time>2023-12-04T22:50:04.260Z</time>
      </trkpt>
      <trkpt lat="38.144558" lon="15.736666">
        <ele>704.345586</ele>
        <time>2023-12-04T22:50:14.835Z</time>
      </trkpt>
      <trkpt lat="38.144543" lon="15.736210">
        <ele>704.374008</ele>
        <time>2023-12-04T22:50:20.740Z</time>
      </trkpt>
      <trkpt lat="38.144663" lon="15.735402">
        <ele>704.425216</ele>
        <time>2023-12-04T22:50:29.722Z</time>
      </trkpt>
      <trkpt lat="38.144796" lon="15.734533">
        <ele>703.973263</ele>
        <time>2023-12-04T22:50:39.902Z</time>
      </trkpt>
      <trkpt lat="38.144864" lon="15.734308">
        <ele>703.765197</ele>
        <time>2023-12-04T22:50:43.091Z</time>
      </trkpt>
      <trkpt lat="38.145204" lon="15.733512">
        <ele>702.983296</ele>
        <time>2023-12-04T22:50:52.654Z</time>
      </trkpt>
      <trkpt lat="38.145339" lon="15.733340">
        <ele>702.773538</ele>
        <time>2023-12-04T22:50:54.832Z</time>
      </trkpt>
      <trkpt lat="38.145488" lon="15.733253">
        <ele>702.593580</ele>
        <time>2023-12-04T22:50:56.660Z</time>
      </trkpt>
      <trkpt lat="38.145764" lon="15.733143">
        <ele>701.303996</ele>
        <time>2023-12-04T22:50:59.524Z</time>
      </trkpt>
      <trkpt lat="38.146104" lon="15.732826">
        <ele>698.545586</ele>
        <time>2023-12-04T22:51:03.446Z</time>
      </trkpt>
      <trkpt lat="38.146224" lon="15.732756">
        <ele>697.681795</ele>
        <time>2023-12-04T22:51:04.632Z</time>
      </trkpt>
      <trkpt lat="38.146591" lon="15.732657">
        <ele>695.227211</ele>
        <time>2023-12-04T22:51:07.981Z</time>
      </trkpt>
      <trkpt lat="38.147171" lon="15.732558">
        <ele>691.398448</ele>
        <time>2023-12-04T22:51:13.138Z</time>
      </trkpt>
      <trkpt lat="38.147707" lon="15.732413">
        <ele>687.131558</ele>
        <time>2023-12-04T22:51:17.934Z</time>
      </trkpt>
      <trkpt lat="38.148025" lon="15.732465">
        <ele>684.539352</ele>
        <time>2023-12-04T22:51:20.730Z</time>
      </trkpt>
      <trkpt lat="38.148220" lon="15.732435">
        <ele>682.951277</ele>
        <time>2023-12-04T22:51:22.430Z</time>
      </trkpt>
      <trkpt lat="38.148552" lon="15.732242">
        <ele>679.999853</ele>
        <time>2023-12-04T22:51:25.605Z</time>
      </trkpt>
      <trkpt lat="38.148677" lon="15.732196">
        <ele>678.947756</ele>
        <time>2023-12-04T22:51:26.748Z</time>
      </trkpt>
      <trkpt lat="38.148802" lon="15.732161">
        <ele>677.912919</ele>
        <time>2023-12-04T22:51:27.880Z</time>
      </trkpt>
      <trkpt lat="38.148983" lon="15.732164">
        <ele>676.449407</ele>
        <time>2023-12-04T22:51:29.509Z</time>
      </trkpt>
      <trkpt lat="38.149085" lon="15.732196">
        <ele>676.001792</ele>
        <time>2023-12-04T22:51:30.452Z</time>
      </trkpt>
      <trkpt lat="38.149304" lon="15.732330">
        <ele>675.441267</ele>
        <time>2023-12-04T22:51:32.764Z</time>
      </trkpt>
      <trkpt lat="38.149511" lon="15.732351">
        <ele>674.962332</ele>
        <time>2023-12-04T22:51:34.804Z</time>
      </trkpt>
      <trkpt lat="38.149639" lon="15.732402">
        <ele>674.652965</ele>
        <time>2023-12-04T22:51:36.193Z</time>
      </trkpt>
      <trkpt lat="38.149745" lon="15.732499">
        <ele>674.351769</ele>
        <time>2023-12-04T22:51:37.514Z</time>
      </trkpt>
      <trkpt lat="38.149914" lon="15.732794">
        <ele>673.689801</ele>
        <time>2023-12-04T22:51:40.758Z</time>
      </trkpt>
      <trkpt lat="38.149996" lon="15.732882">
        <ele>673.442331</ele>
        <time>2023-12-04T22:51:42.056Z</time>
      </trkpt>
      <trkpt lat="38.150099" lon="15.732923">
        <ele>673.193409</ele>
        <time>2023-12-04T22:51:43.481Z</time>
      </trkpt>
      <trkpt lat="38.150228" lon="15.732872">
        <ele>672.881840</ele>
        <time>2023-12-04T22:51:45.249Z</time>
      </trkpt>
      <trkpt lat="38.150308" lon="15.732781">
        <ele>672.634284</ele>
        <time>2023-12-04T22:51:46.764Z</time>
      </trkpt>
      <trkpt lat="38.150614" lon="15.732177">
        <ele>672.220566</ele>
        <time>2023-12-04T22:51:57.072Z</time>
      </trkpt>
      <trkpt lat="38.150960" lon="15.731640">
        <ele>672.601881</ele>
        <time>2023-12-04T22:52:11.476Z</time>
      </trkpt>
      <trkpt lat="38.151048" lon="15.731417">
        <ele>672.738922</ele>
        <time>2023-12-04T22:52:16.919Z</time>
      </trkpt>
      <trkpt lat="38.151069" lon="15.731155">
        <ele>672.883574</ele>
        <time>2023-12-04T22:52:22.146Z</time>
      </trkpt>
      <trkpt lat="38.150828" lon="15.729485">
        <ele>669.984601</ele>
        <time>2023-12-04T22:52:36.559Z</time>
      </trkpt>
      <trkpt lat="38.150836" lon="15.729105">
        <ele>668.728313</ele>
        <time>2023-12-04T22:52:39.297Z</time>
      </trkpt>
      <trkpt lat="38.150899" lon="15.728362">
        <ele>666.258587</ele>
        <time>2023-12-04T22:52:44.663Z</time>
      </trkpt>
      <trkpt lat="38.150846" lon="15.728150">
        <ele>665.624915</ele>
        <time>2023-12-04T22:52:46.281Z</time>
      </trkpt>
      <trkpt lat="38.150646" lon="15.727566">
        <ele>664.657643</ele>
        <time>2023-12-04T22:52:50.970Z</time>
      </trkpt>
      <trkpt lat="38.150630" lon="15.727104">
        <ele>663.955396</ele>
        <time>2023-12-04T22:52:54.596Z</time>
      </trkpt>
      <trkpt lat="38.150494" lon="15.726546">
        <ele>663.068285</ele>
        <time>2023-12-04T22:52:59.911Z</time>
      </trkpt>
      <trkpt lat="38.150486" lon="15.726017">
        <ele>662.264827</ele>
        <time>2023-12-04T22:53:08.373Z</time>
      </trkpt>
      <trkpt lat="38.150347" lon="15.725454">
        <ele>664.703745</ele>
        <time>2023-12-04T22:53:23.692Z</time>
      </trkpt>
      <trkpt lat="38.150382" lon="15.725269">
        <ele>665.523408</ele>
        <time>2023-12-04T22:53:29.414Z</time>
      </trkpt>
      <trkpt lat="38.150463" lon="15.725131">
        <ele>666.265202</ele>
        <time>2023-12-04T22:53:35.263Z</time>
      </trkpt>
      <trkpt lat="38.150508" lon="15.724946">
        <ele>667.099378</ele>
        <time>2023-12-04T22:53:42.286Z</time>
      </trkpt>
      <trkpt lat="38.150438" lon="15.724775">
        <ele>667.929821</ele>
        <time>2023-12-04T22:53:49.337Z</time>
      </trkpt>
      <trkpt lat="38.150263" lon="15.724609">
        <ele>669.125765</ele>
        <time>2023-12-04T22:53:59.358Z</time>
      </trkpt>
      <trkpt lat="38.150236" lon="15.724551">
        <ele>669.416106</ele>
        <time>2023-12-04T22:54:01.626Z</time>
      </trkpt>
      <trkpt lat="38.150192" lon="15.723933">
        <ele>672.089161</ele>
        <time>2023-12-04T22:54:21.746Z</time>
      </trkpt>
      <trkpt lat="38.150102" lon="15.723044">
        <ele>672.811605</ele>
        <time>2023-12-04T22:54:42.443Z</time>
      </trkpt>
      <trkpt lat="38.150031" lon="15.722608">
        <ele>673.169899</ele>
        <time>2023-12-04T22:54:49.750Z</time>
      </trkpt>
      <trkpt lat="38.149976" lon="15.722546">
        <ele>673.245109</ele>
        <time>2023-12-04T22:54:50.709Z</time>
      </trkpt>
      <trkpt lat="38.149689" lon="15.722386">
        <ele>673.565774</ele>
        <time>2023-12-04T22:54:55.286Z</time>
      </trkpt>
      <trkpt lat="38.149639" lon="15.722316">
        <ele>673.641871</ele>
        <time>2023-12-04T22:54:56.058Z</time>
      </trkpt>
      <trkpt lat="38.149570" lon="15.721999">
        <ele>673.906555</ele>
        <time>2023-12-04T22:54:58.851Z</time>
      </trkpt>
      <trkpt lat="38.149479" lon="15.721317">
        <ele>670.799120</ele>
        <time>2023-12-04T22:55:03.873Z</time>
      </trkpt>
      <trkpt lat="38.149408" lon="15.721039">
        <ele>669.414667</ele>
        <time>2023-12-04T22:55:05.905Z</time>
      </trkpt>
      <trkpt lat="38.149280" lon="15.720708">
        <ele>667.667574</ele>
        <time>2023-12-04T22:55:08.468Z</time>
      </trkpt>
      <trkpt lat="38.149251" lon="15.720427">
        <ele>666.325195</ele>
        <time>2023-12-04T22:55:10.459Z</time>
      </trkpt>
      <trkpt lat="38.149228" lon="15.720367">
        <ele>666.009038</ele>
        <time>2023-12-04T22:55:10.939Z</time>
      </trkpt>
      <trkpt lat="38.149194" lon="15.720323">
        <ele>665.716856</ele>
        <time>2023-12-04T22:55:11.380Z</time>
      </trkpt>
      <trkpt lat="38.148930" lon="15.720212">
        <ele>664.042110</ele>
        <time>2023-12-04T22:55:13.926Z</time>
      </trkpt>
      <trkpt lat="38.148767" lon="15.720206">
        <ele>663.054482</ele>
        <time>2023-12-04T22:55:15.451Z</time>
      </trkpt>
      <trkpt lat="38.148486" lon="15.720250">
        <ele>661.103251</ele>
        <time>2023-12-04T22:55:18.080Z</time>
      </trkpt>
      <trkpt lat="38.148216" lon="15.720193">
        <ele>659.216987</ele>
        <time>2023-12-04T22:55:20.602Z</time>
      </trkpt>
      <trkpt lat="38.148057" lon="15.720094">
        <ele>657.996872</ele>
        <time>2023-12-04T22:55:22.203Z</time>
      </trkpt>
      <trkpt lat="38.147876" lon="15.719823">
        <ele>656.069859</ele>
        <time>2023-12-04T22:55:24.708Z</time>
      </trkpt>
      <trkpt lat="38.147813" lon="15.719633">
        <ele>654.952294</ele>
        <time>2023-12-04T22:55:26.155Z</time>
      </trkpt>
      <trkpt lat="38.147771" lon="15.719351">
        <ele>653.396722</ele>
        <time>2023-12-04T22:55:28.144Z</time>
      </trkpt>
      <trkpt lat="38.147697" lon="15.719271">
        <ele>652.727323</ele>
        <time>2023-12-04T22:55:29.006Z</time>
      </trkpt>
      <trkpt lat="38.147625" lon="15.719244">
        <ele>652.209983</ele>
        <time>2023-12-04T22:55:29.669Z</time>
      </trkpt>
      <trkpt lat="38.147264" lon="15.719260">
        <ele>649.789544</ele>
        <time>2023-12-04T22:55:32.868Z</time>
      </trkpt>
      <trkpt lat="38.146908" lon="15.719021">
        <ele>647.210229</ele>
        <time>2023-12-04T22:55:36.473Z</time>
      </trkpt>
      <trkpt lat="38.146521" lon="15.718678">
        <ele>644.187787</ele>
        <time>2023-12-04T22:55:40.725Z</time>
      </trkpt>
      <trkpt lat="38.146206" lon="15.718723">
        <ele>642.156852</ele>
        <time>2023-12-04T22:55:43.607Z</time>
      </trkpt>
      <trkpt lat="38.146122" lon="15.718699">
        <ele>641.605236</ele>
        <time>2023-12-04T22:55:44.387Z</time>
      </trkpt>
      <trkpt lat="38.146056" lon="15.718640">
        <ele>641.088323</ele>
        <time>2023-12-04T22:55:45.139Z</time>
      </trkpt>
      <trkpt lat="38.145879" lon="15.718387">
        <ele>639.382086</ele>
        <time>2023-12-04T22:55:47.585Z</time>
      </trkpt>
      <trkpt lat="38.145721" lon="15.718067">
        <ele>638.606353</ele>
        <time>2023-12-04T22:55:50.416Z</time>
      </trkpt>
      <trkpt lat="38.145352" lon="15.717006">
        <ele>636.640913</ele>
        <time>2023-12-04T22:56:00.738Z</time>
      </trkpt>
      <trkpt lat="38.145242" lon="15.716481">
        <ele>635.720444</ele>
        <time>2023-12-04T22:56:06.104Z</time>
      </trkpt>
      <trkpt lat="38.145241" lon="15.716236">
        <ele>635.305364</ele>
        <time>2023-12-04T22:56:08.846Z</time>
      </trkpt>
      <trkpt lat="38.145344" lon="15.715866">
        <ele>634.560176</ele>
        <time>2023-12-04T22:56:12.778Z</time>
      </trkpt>
      <trkpt lat="38.145570" lon="15.715683">
        <ele>633.913109</ele>
        <time>2023-12-04T22:56:15.881Z</time>
      </trkpt>
      <trkpt lat="38.145618" lon="15.715573">
        <ele>633.674184</ele>
        <time>2023-12-04T22:56:17.048Z</time>
      </trkpt>
      <trkpt lat="38.145587" lon="15.715366">
        <ele>633.273969</ele>
        <time>2023-12-04T22:56:18.794Z</time>
      </trkpt>
      <trkpt lat="38.145368" lon="15.714953">
        <ele>632.327919</ele>
        <time>2023-12-04T22:56:22.953Z</time>
      </trkpt>
      <trkpt lat="38.145339" lon="15.714852">
        <ele>632.123706</ele>
        <time>2023-12-04T22:56:23.909Z</time>
      </trkpt>
      <trkpt lat="38.145345" lon="15.714730">
        <ele>631.891541</ele>
        <time>2023-12-04T22:56:24.910Z</time>
      </trkpt>
      <trkpt lat="38.145408" lon="15.714659">
        <ele>631.688236</ele>
        <time>2023-12-04T22:56:25.740Z</time>
      </trkpt>
      <trkpt lat="38.145607" lon="15.714542">
        <ele>631.158760</ele>
        <time>2023-12-04T22:56:27.927Z</time>
      </trkpt>
      <trkpt lat="38.145696" lon="15.714440">
        <ele>630.772505</ele>
        <time>2023-12-04T22:56:29.064Z</time>
      </trkpt>
      <trkpt lat="38.146353" lon="15.713342">
        <ele>625.329437</ele>
        <time>2023-12-04T22:56:39.184Z</time>
      </trkpt>
      <trkpt lat="38.146812" lon="15.712849">
        <ele>622.315357</ele>
        <time>2023-12-04T22:56:44.906Z</time>
      </trkpt>
      <trkpt lat="38.146931" lon="15.712637">
        <ele>621.156170</ele>
        <time>2023-12-04T22:56:46.824Z</time>
      </trkpt>
      <trkpt lat="38.147113" lon="15.712158">
        <ele>618.631587</ele>
        <time>2023-12-04T22:56:50.672Z</time>
      </trkpt>
      <trkpt lat="38.147227" lon="15.712052">
        <ele>617.779358</ele>
        <time>2023-12-04T22:56:51.960Z</time>
      </trkpt>
      <trkpt lat="38.147452" lon="15.712018">
        <ele>616.412051</ele>
        <time>2023-12-04T22:56:54.011Z</time>
      </trkpt>
      <trkpt lat="38.147541" lon="15.711980">
        <ele>615.845517</ele>
        <time>2023-12-04T22:56:54.874Z</time>
      </trkpt>
      <trkpt lat="38.147629" lon="15.711848">
        <ele>615.024298</ele>
        <time>2023-12-04T22:56:56.108Z</time>
      </trkpt>
      <trkpt lat="38.147698" lon="15.711376">
        <ele>612.745991</ele>
        <time>2023-12-04T22:56:59.556Z</time>
      </trkpt>
      <trkpt lat="38.147823" lon="15.710881">
        <ele>610.302677</ele>
        <time>2023-12-04T22:57:03.286Z</time>
      </trkpt>
      <trkpt lat="38.147804" lon="15.710500">
        <ele>608.544837</ele>
        <time>2023-12-04T22:57:06.005Z</time>
      </trkpt>
      <trkpt lat="38.147822" lon="15.710382">
        <ele>607.991378</ele>
        <time>2023-12-04T22:57:06.852Z</time>
      </trkpt>
      <trkpt lat="38.148119" lon="15.709428">
        <ele>603.267013</ele>
        <time>2023-12-04T22:57:14.167Z</time>
      </trkpt>
      <trkpt lat="38.148122" lon="15.709362">
        <ele>602.962610</ele>
        <time>2023-12-04T22:57:14.647Z</time>
      </trkpt>
      <trkpt lat="38.148113" lon="15.709285">
        <ele>602.604170</ele>
        <time>2023-12-04T22:57:15.211Z</time>
      </trkpt>
      <trkpt lat="38.148044" lon="15.709115">
        <ele>601.723300</ele>
        <time>2023-12-04T22:57:16.635Z</time>
      </trkpt>
      <trkpt lat="38.147746" lon="15.708686">
        <ele>599.767472</ele>
        <time>2023-12-04T22:57:21.087Z</time>
      </trkpt>
      <trkpt lat="38.147685" lon="15.708521">
        <ele>599.317803</ele>
        <time>2023-12-04T22:57:22.537Z</time>
      </trkpt>
      <trkpt lat="38.147671" lon="15.707865">
        <ele>597.699291</ele>
        <time>2023-12-04T22:57:27.794Z</time>
      </trkpt>
      <trkpt lat="38.147746" lon="15.707652">
        <ele>597.123708</ele>
        <time>2023-12-04T22:57:29.703Z</time>
      </trkpt>
      <trkpt lat="38.147997" lon="15.707343">
        <ele>596.028065</ele>
        <time>2023-12-04T22:57:33.343Z</time>
      </trkpt>
      <trkpt lat="38.149620" lon="15.705633">
        <ele>590.562495</ele>
        <time>2023-12-04T22:57:55.665Z</time>
      </trkpt>
      <trkpt lat="38.149879" lon="15.705330">
        <ele>589.401541</ele>
        <time>2023-12-04T22:57:59.493Z</time>
      </trkpt>
      <trkpt lat="38.150101" lon="15.705136">
        <ele>588.478911</ele>
        <time>2023-12-04T22:58:02.350Z</time>
      </trkpt>
      <trkpt lat="38.150180" lon="15.705125">
        <ele>588.206705</ele>
        <time>2023-12-04T22:58:03.175Z</time>
      </trkpt>
      <trkpt lat="38.150280" lon="15.705153">
        <ele>587.855982</ele>
        <time>2023-12-04T22:58:04.224Z</time>
      </trkpt>
      <trkpt lat="38.150411" lon="15.705243">
        <ele>587.345986</ele>
        <time>2023-12-04T22:58:05.706Z</time>
      </trkpt>
      <trkpt lat="38.150514" lon="15.705388">
        <ele>586.819677</ele>
        <time>2023-12-04T22:58:07.223Z</time>
      </trkpt>
      <trkpt lat="38.150613" lon="15.706040">
        <ele>585.031062</ele>
        <time>2023-12-04T22:58:12.285Z</time>
      </trkpt>
      <trkpt lat="38.150613" lon="15.706201">
        <ele>584.597405</ele>
        <time>2023-12-04T22:58:13.497Z</time>
      </trkpt>
      <trkpt lat="38.150629" lon="15.706246">
        <ele>584.464384</ele>
        <time>2023-12-04T22:58:13.884Z</time>
      </trkpt>
      <trkpt lat="38.150694" lon="15.706262">
        <ele>584.172039</ele>
        <time>2023-12-04T22:58:14.529Z</time>
      </trkpt>
      <trkpt lat="38.150721" lon="15.706222">
        <ele>583.832131</ele>
        <time>2023-12-04T22:58:14.940Z</time>
      </trkpt>
      <trkpt lat="38.150736" lon="15.706056">
        <ele>582.754709</ele>
        <time>2023-12-04T22:58:16.216Z</time>
      </trkpt>
      <trkpt lat="38.150649" lon="15.705714">
        <ele>580.436957</ele>
        <time>2023-12-04T22:58:18.922Z</time>
      </trkpt>
      <trkpt lat="38.150735" lon="15.705548">
        <ele>579.155173</ele>
        <time>2023-12-04T22:58:20.382Z</time>
      </trkpt>
      <trkpt lat="38.150958" lon="15.705329">
        <ele>576.844861</ele>
        <time>2023-12-04T22:58:22.950Z</time>
      </trkpt>
      <trkpt lat="38.151057" lon="15.705155">
        <ele>575.460034</ele>
        <time>2023-12-04T22:58:24.440Z</time>
      </trkpt>
      <trkpt lat="38.151064" lon="15.705076">
        <ele>574.947415</ele>
        <time>2023-12-04T22:58:24.984Z</time>
      </trkpt>
      <trkpt lat="38.151008" lon="15.704967">
        <ele>574.107878</ele>
        <time>2023-12-04T22:58:25.867Z</time>
      </trkpt>
      <trkpt lat="38.150532" lon="15.704785">
        <ele>570.032258</ele>
        <time>2023-12-04T22:58:30.073Z</time>
      </trkpt>
      <trkpt lat="38.149994" lon="15.704396">
        <ele>561.723249</ele>
        <time>2023-12-04T22:58:35.238Z</time>
      </trkpt>
      <trkpt lat="38.149914" lon="15.704284">
        <ele>560.058468</ele>
        <time>2023-12-04T22:58:36.238Z</time>
      </trkpt>
      <trkpt lat="38.149821" lon="15.703948">
        <ele>556.139189</ele>
        <time>2023-12-04T22:58:38.569Z</time>
      </trkpt>
      <trkpt lat="38.149762" lon="15.703873">
        <ele>554.971956</ele>
        <time>2023-12-04T22:58:39.267Z</time>
      </trkpt>
      <trkpt lat="38.149530" lon="15.703852">
        <ele>551.717712</ele>
        <time>2023-12-04T22:58:41.205Z</time>
      </trkpt>
      <trkpt lat="38.149130" lon="15.703911">
        <ele>546.083583</ele>
        <time>2023-12-04T22:58:44.557Z</time>
      </trkpt>
      <trkpt lat="38.149011" lon="15.703903">
        <ele>544.416268</ele>
        <time>2023-12-04T22:58:45.541Z</time>
      </trkpt>
      <trkpt lat="38.148950" lon="15.703855">
        <ele>543.724818</ele>
        <time>2023-12-04T22:58:46.140Z</time>
      </trkpt>
      <trkpt lat="38.148927" lon="15.703774">
        <ele>543.086021</ele>
        <time>2023-12-04T22:58:46.701Z</time>
      </trkpt>
      <trkpt lat="38.148940" lon="15.703699">
        <ele>542.516342</ele>
        <time>2023-12-04T22:58:47.204Z</time>
      </trkpt>
      <trkpt lat="38.148988" lon="15.703610">
        <ele>541.715835</ele>
        <time>2023-12-04T22:58:47.909Z</time>
      </trkpt>
      <trkpt lat="38.149275" lon="15.703412">
        <ele>538.636004</ele>
        <time>2023-12-04T22:58:50.637Z</time>
      </trkpt>
      <trkpt lat="38.149355" lon="15.703374">
        <ele>537.830490</ele>
        <time>2023-12-04T22:58:51.356Z</time>
      </trkpt>
      <trkpt lat="38.149707" lon="15.703334">
        <ele>534.497075</ele>
        <time>2023-12-04T22:58:54.365Z</time>
      </trkpt>
      <trkpt lat="38.149771" lon="15.703291">
        <ele>533.814323</ele>
        <time>2023-12-04T22:58:54.987Z</time>
      </trkpt>
      <trkpt lat="38.150166" lon="15.702931">
        <ele>529.230435</ele>
        <time>2023-12-04T22:58:59.404Z</time>
      </trkpt>
      <trkpt lat="38.150692" lon="15.702515">
        <ele>529.345767</ele>
        <time>2023-12-04T22:59:06.648Z</time>
      </trkpt>
      <trkpt lat="38.150881" lon="15.702180">
        <ele>530.822799</ele>
        <time>2023-12-04T22:59:15.203Z</time>
      </trkpt>
      <trkpt lat="38.151323" lon="15.702016">
        <ele>532.920329</ele>
        <time>2023-12-04T22:59:32.650Z</time>
      </trkpt>
      <trkpt lat="38.151477" lon="15.701776">
        <ele>534.030018</ele>
        <time>2023-12-04T22:59:44.296Z</time>
      </trkpt>
      <trkpt lat="38.151655" lon="15.701682">
        <ele>534.908054</ele>
        <time>2023-12-04T22:59:54.953Z</time>
      </trkpt>
      <trkpt lat="38.151884" lon="15.701625">
        <ele>536.363752</ele>
        <time>2023-12-04T23:00:08.396Z</time>
      </trkpt>
      <trkpt lat="38.151953" lon="15.701385">
        <ele>538.245877</ele>
        <time>2023-12-04T23:00:21.454Z</time>
      </trkpt>
      <trkpt lat="38.151998" lon="15.700874">
        <ele>542.033108</ele>
        <time>2023-12-04T23:00:47.902Z</time>
      </trkpt>
      <trkpt lat="38.152112" lon="15.700716">
        <ele>543.612460</ele>
        <time>2023-12-04T23:00:58.697Z</time>
      </trkpt>
      <trkpt lat="38.152241" lon="15.700419">
        <ele>546.111470</ele>
        <time>2023-12-04T23:01:14.701Z</time>
      </trkpt>
      <trkpt lat="38.152316" lon="15.700344">
        <ele>547.005118</ele>
        <time>2023-12-04T23:01:20.272Z</time>
      </trkpt>
      <trkpt lat="38.152375" lon="15.700123">
        <ele>548.724103</ele>
        <time>2023-12-04T23:01:29.795Z</time>
      </trkpt>
      <trkpt lat="38.152340" lon="15.699946">
        <ele>550.068352</ele>
        <time>2023-12-04T23:01:36.388Z</time>
      </trkpt>
      <trkpt lat="38.152201" lon="15.699813">
        <ele>551.697633</ele>
        <time>2023-12-04T23:01:43.434Z</time>
      </trkpt>
      <trkpt lat="38.152062" lon="15.699548">
        <ele>552.157519</ele>
        <time>2023-12-04T23:01:51.458Z</time>
      </trkpt>
      <trkpt lat="38.151913" lon="15.699151">
        <ele>551.573170</ele>
        <time>2023-12-04T23:01:58.088Z</time>
      </trkpt>
      <trkpt lat="38.151675" lon="15.698665">
        <ele>550.812628</ele>
        <time>2023-12-04T23:02:02.582Z</time>
      </trkpt>
      <trkpt lat="38.151313" lon="15.698002">
        <ele>549.740434</ele>
        <time>2023-12-04T23:02:08.519Z</time>
      </trkpt>
      <trkpt lat="38.151159" lon="15.697888">
        <ele>549.439424</ele>
        <time>2023-12-04T23:02:10.224Z</time>
      </trkpt>
      <trkpt lat="38.150900" lon="15.697808">
        <ele>548.881030</ele>
        <time>2023-12-04T23:02:12.862Z</time>
      </trkpt>
      <trkpt lat="38.150746" lon="15.697671">
        <ele>548.481439</ele>
        <time>2023-12-04T23:02:14.677Z</time>
      </trkpt>
      <trkpt lat="38.150660" lon="15.697392">
        <ele>547.980409</ele>
        <time>2023-12-04T23:02:17.099Z</time>
      </trkpt>
      <trkpt lat="38.150663" lon="15.697250">
        <ele>547.742906</ele>
        <time>2023-12-04T23:02:18.248Z</time>
      </trkpt>
      <trkpt lat="38.150697" lon="15.697123">
        <ele>547.518600</ele>
        <time>2023-12-04T23:02:19.408Z</time>
      </trkpt>
      <trkpt lat="38.151100" lon="15.696752">
        <ele>546.460814</ele>
        <time>2023-12-04T23:02:25.109Z</time>
      </trkpt>
      <trkpt lat="38.151502" lon="15.696475">
        <ele>545.601480</ele>
        <time>2023-12-04T23:02:30.847Z</time>
      </trkpt>
      <trkpt lat="38.151953" lon="15.696045">
        <ele>545.832127</ele>
        <time>2023-12-04T23:02:42.470Z</time>
      </trkpt>
      <trkpt lat="38.152082" lon="15.695972">
        <ele>545.889901</ele>
        <time>2023-12-04T23:02:46.231Z</time>
      </trkpt>
      <trkpt lat="38.152608" lon="15.695723">
        <ele>546.119557</ele>
        <time>2023-12-04T23:02:55.673Z</time>
      </trkpt>
      <trkpt lat="38.153646" lon="15.695421">
        <ele>545.994768</ele>
        <time>2023-12-04T23:03:10.343Z</time>
      </trkpt>
      <trkpt lat="38.153889" lon="15.695263">
        <ele>545.841240</ele>
        <time>2023-12-04T23:03:13.740Z</time>
      </trkpt>
      <trkpt lat="38.154172" lon="15.694493">
        <ele>545.465261</ele>
        <time>2023-12-04T23:03:21.969Z</time>
      </trkpt>
      <trkpt lat="38.154207" lon="15.694215">
        <ele>545.340721</ele>
        <time>2023-12-04T23:03:24.868Z</time>
      </trkpt>
      <trkpt lat="38.154207" lon="15.694000">
        <ele>545.012773</ele>
        <time>2023-12-04T23:03:26.984Z</time>
      </trkpt>
      <trkpt lat="38.154246" lon="15.693735">
        <ele>544.444348</ele>
        <time>2023-12-04T23:03:30.369Z</time>
      </trkpt>
      <trkpt lat="38.154385" lon="15.693464">
        <ele>543.762171</ele>
        <time>2023-12-04T23:03:34.260Z</time>
      </trkpt>
      <trkpt lat="38.154574" lon="15.693193">
        <ele>542.998454</ele>
        <time>2023-12-04T23:03:38.052Z</time>
      </trkpt>
      <trkpt lat="38.154852" lon="15.692858">
        <ele>541.971583</ele>
        <time>2023-12-04T23:03:42.099Z</time>
      </trkpt>
      <trkpt lat="38.154817" lon="15.692700">
        <ele>541.625495</ele>
        <time>2023-12-04T23:03:43.347Z</time>
      </trkpt>
      <trkpt lat="38.154733" lon="15.692505">
        <ele>541.156713</ele>
        <time>2023-12-04T23:03:44.974Z</time>
      </trkpt>
      <trkpt lat="38.154643" lon="15.692132">
        <ele>540.103107</ele>
        <time>2023-12-04T23:03:47.737Z</time>
      </trkpt>
      <trkpt lat="38.154589" lon="15.692012">
        <ele>539.364956</ele>
        <time>2023-12-04T23:03:48.707Z</time>
      </trkpt>
      <trkpt lat="38.154609" lon="15.691659">
        <ele>537.475453</ele>
        <time>2023-12-04T23:03:51.188Z</time>
      </trkpt>
      <trkpt lat="38.154549" lon="15.691608">
        <ele>536.985468</ele>
        <time>2023-12-04T23:03:51.832Z</time>
      </trkpt>
      <trkpt lat="38.154415" lon="15.691356">
        <ele>535.361339</ele>
        <time>2023-12-04T23:03:53.992Z</time>
      </trkpt>
      <trkpt lat="38.154440" lon="15.691122">
        <ele>534.100565</ele>
        <time>2023-12-04T23:03:55.676Z</time>
      </trkpt>
      <trkpt lat="38.154504" lon="15.690895">
        <ele>532.813098</ele>
        <time>2023-12-04T23:03:57.409Z</time>
      </trkpt>
      <trkpt lat="38.154390" lon="15.690289">
        <ele>529.486449</ele>
        <time>2023-12-04T23:04:01.907Z</time>
      </trkpt>
      <trkpt lat="38.154410" lon="15.690195">
        <ele>528.966549</ele>
        <time>2023-12-04T23:04:02.594Z</time>
      </trkpt>
      <trkpt lat="38.154465" lon="15.690125">
        <ele>528.438240</ele>
        <time>2023-12-04T23:04:03.285Z</time>
      </trkpt>
      <trkpt lat="38.154544" lon="15.690188">
        <ele>527.401380</ele>
        <time>2023-12-04T23:04:04.126Z</time>
      </trkpt>
      <trkpt lat="38.154594" lon="15.690403">
        <ele>525.171526</ele>
        <time>2023-12-04T23:04:05.668Z</time>
      </trkpt>
      <trkpt lat="38.154797" lon="15.690699">
        <ele>521.265301</ele>
        <time>2023-12-04T23:04:08.354Z</time>
      </trkpt>
      <trkpt lat="38.154738" lon="15.691085">
        <ele>517.354461</ele>
        <time>2023-12-04T23:04:10.984Z</time>
      </trkpt>
      <trkpt lat="38.154782" lon="15.691148">
        <ele>516.516435</ele>
        <time>2023-12-04T23:04:11.548Z</time>
      </trkpt>
      <trkpt lat="38.154916" lon="15.691192">
        <ele>514.766041</ele>
        <time>2023-12-04T23:04:12.711Z</time>
      </trkpt>
      <trkpt lat="38.155045" lon="15.691312">
        <ele>512.744561</ele>
        <time>2023-12-04T23:04:14.049Z</time>
      </trkpt>
      <trkpt lat="38.155075" lon="15.691735">
        <ele>508.520530</ele>
        <time>2023-12-04T23:04:16.819Z</time>
      </trkpt>
      <trkpt lat="38.155115" lon="15.691886">
        <ele>506.935831</ele>
        <time>2023-12-04T23:04:17.855Z</time>
      </trkpt>
      <trkpt lat="38.155214" lon="15.691930">
        <ele>505.609430</ele>
        <time>2023-12-04T23:04:18.720Z</time>
      </trkpt>
      <trkpt lat="38.155432" lon="15.691905">
        <ele>500.629865</ele>
        <time>2023-12-04T23:04:20.517Z</time>
      </trkpt>
      <trkpt lat="38.155561" lon="15.691930">
        <ele>497.619356</ele>
        <time>2023-12-04T23:04:21.585Z</time>
      </trkpt>
      <trkpt lat="38.155854" lon="15.691911">
        <ele>490.850792</ele>
        <time>2023-12-04T23:04:23.976Z</time>
      </trkpt>
      <trkpt lat="38.155968" lon="15.691930">
        <ele>488.198216</ele>
        <time>2023-12-04T23:04:24.914Z</time>
      </trkpt>
      <trkpt lat="38.156385" lon="15.691867">
        <ele>478.509989</ele>
        <time>2023-12-04T23:04:28.348Z</time>
      </trkpt>
      <trkpt lat="38.156519" lon="15.691905">
        <ele>475.342557</ele>
        <time>2023-12-04T23:04:29.472Z</time>
      </trkpt>
      <trkpt lat="38.156604" lon="15.691861">
        <ele>473.225298</ele>
        <time>2023-12-04T23:04:30.219Z</time>
      </trkpt>
      <trkpt lat="38.156678" lon="15.691747">
        <ele>470.543556</ele>
        <time>2023-12-04T23:04:31.173Z</time>
      </trkpt>
      <trkpt lat="38.156693" lon="15.691350">
        <ele>463.316162</ele>
        <time>2023-12-04T23:04:33.739Z</time>
      </trkpt>
      <trkpt lat="38.156891" lon="15.691154">
        <ele>457.385571</ele>
        <time>2023-12-04T23:04:35.799Z</time>
      </trkpt>
      <trkpt lat="38.157234" lon="15.691015">
        <ele>448.876715</ele>
        <time>2023-12-04T23:04:38.746Z</time>
      </trkpt>
      <trkpt lat="38.157432" lon="15.690788">
        <ele>442.575824</ele>
        <time>2023-12-04T23:04:40.934Z</time>
      </trkpt>
      <trkpt lat="38.157482" lon="15.690567">
        <ele>438.301793</ele>
        <time>2023-12-04T23:04:42.414Z</time>
      </trkpt>
      <trkpt lat="38.157591" lon="15.690441">
        <ele>434.820212</ele>
        <time>2023-12-04T23:04:43.618Z</time>
      </trkpt>
      <trkpt lat="38.157700" lon="15.690422">
        <ele>432.219783</ele>
        <time>2023-12-04T23:04:44.518Z</time>
      </trkpt>
      <trkpt lat="38.157844" lon="15.690340">
        <ele>428.490558</ele>
        <time>2023-12-04T23:04:45.803Z</time>
      </trkpt>
      <trkpt lat="38.157944" lon="15.690239">
        <ele>425.472236</ele>
        <time>2023-12-04T23:04:46.841Z</time>
      </trkpt>
      <trkpt lat="38.158088" lon="15.689942">
        <ele>419.998998</ele>
        <time>2023-12-04T23:04:49.088Z</time>
      </trkpt>
      <trkpt lat="38.158207" lon="15.689450">
        <ele>414.261449</ele>
        <time>2023-12-04T23:04:52.436Z</time>
      </trkpt>
      <trkpt lat="38.158261" lon="15.689128">
        <ele>410.591630</ele>
        <time>2023-12-04T23:04:54.595Z</time>
      </trkpt>
      <trkpt lat="38.158301" lon="15.688478">
        <ele>403.324409</ele>
        <time>2023-12-04T23:04:58.889Z</time>
      </trkpt>
      <trkpt lat="38.158410" lon="15.688434">
        <ele>401.703319</ele>
        <time>2023-12-04T23:04:59.853Z</time>
      </trkpt>
      <trkpt lat="38.158524" lon="15.688554">
        <ele>399.605583</ele>
        <time>2023-12-04T23:05:01.101Z</time>
      </trkpt>
      <trkpt lat="38.158614" lon="15.688977">
        <ele>395.339391</ele>
        <time>2023-12-04T23:05:04.038Z</time>
      </trkpt>
      <trkpt lat="38.158708" lon="15.689077">
        <ele>394.430229</ele>
        <time>2023-12-04T23:05:05.116Z</time>
      </trkpt>
      <trkpt lat="38.158887" lon="15.689090">
        <ele>393.100127</ele>
        <time>2023-12-04T23:05:06.704Z</time>
      </trkpt>
      <trkpt lat="38.159065" lon="15.689014">
        <ele>391.707176</ele>
        <time>2023-12-04T23:05:08.425Z</time>
      </trkpt>
      <trkpt lat="38.159184" lon="15.688875">
        <ele>390.508507</ele>
        <time>2023-12-04T23:05:09.951Z</time>
      </trkpt>
      <trkpt lat="38.159482" lon="15.688396">
        <ele>386.945559</ele>
        <time>2023-12-04T23:05:14.444Z</time>
      </trkpt>
      <trkpt lat="38.159730" lon="15.687866">
        <ele>383.347919</ele>
        <time>2023-12-04T23:05:18.832Z</time>
      </trkpt>
      <trkpt lat="38.159849" lon="15.687790">
        <ele>382.265668</ele>
        <time>2023-12-04T23:05:20.008Z</time>
      </trkpt>
      <trkpt lat="38.160569" lon="15.687474">
        <ele>374.920234</ele>
        <time>2023-12-04T23:05:26.618Z</time>
      </trkpt>
      <trkpt lat="38.161060" lon="15.687304">
        <ele>370.012749</ele>
        <time>2023-12-04T23:05:31.046Z</time>
      </trkpt>
      <trkpt lat="38.161164" lon="15.687197">
        <ele>368.722695</ele>
        <time>2023-12-04T23:05:32.203Z</time>
      </trkpt>
      <trkpt lat="38.161154" lon="15.687133">
        <ele>368.227908</ele>
        <time>2023-12-04T23:05:32.639Z</time>
      </trkpt>
      <trkpt lat="38.161020" lon="15.687070">
        <ele>366.850155</ele>
        <time>2023-12-04T23:05:33.861Z</time>
      </trkpt>
      <trkpt lat="38.160668" lon="15.687014">
        <ele>362.495708</ele>
        <time>2023-12-04T23:05:36.869Z</time>
      </trkpt>
      <trkpt lat="38.160559" lon="15.686951">
        <ele>360.773770</ele>
        <time>2023-12-04T23:05:37.876Z</time>
      </trkpt>
      <trkpt lat="38.159914" lon="15.686881">
        <ele>351.463611</ele>
        <time>2023-12-04T23:05:43.259Z</time>
      </trkpt>
      <trkpt lat="38.159770" lon="15.686673">
        <ele>348.329634</ele>
        <time>2023-12-04T23:05:45.064Z</time>
      </trkpt>
      <trkpt lat="38.159755" lon="15.686111">
        <ele>341.970595</ele>
        <time>2023-12-04T23:05:48.725Z</time>
      </trkpt>
      <trkpt lat="38.159686" lon="15.685688">
        <ele>337.209950</ele>
        <time>2023-12-04T23:05:51.542Z</time>
      </trkpt>
      <trkpt lat="38.159696" lon="15.685472">
        <ele>334.891548</ele>
        <time>2023-12-04T23:05:52.955Z</time>
      </trkpt>
      <trkpt lat="38.159730" lon="15.684988">
        <ele>329.684937</ele>
        <time>2023-12-04T23:05:56.133Z</time>
      </trkpt>
      <trkpt lat="38.159849" lon="15.684855">
        <ele>327.526134</ele>
        <time>2023-12-04T23:05:57.453Z</time>
      </trkpt>
      <trkpt lat="38.160127" lon="15.684748">
        <ele>323.568149</ele>
        <time>2023-12-04T23:05:59.880Z</time>
      </trkpt>
      <trkpt lat="38.160529" lon="15.684729">
        <ele>318.086319</ele>
        <time>2023-12-04T23:06:03.269Z</time>
      </trkpt>
      <trkpt lat="38.160747" lon="15.684628">
        <ele>314.929966</ele>
        <time>2023-12-04T23:06:05.243Z</time>
      </trkpt>
      <trkpt lat="38.161075" lon="15.684413">
        <ele>310.937781</ele>
        <time>2023-12-04T23:06:08.402Z</time>
      </trkpt>
      <trkpt lat="38.161427" lon="15.684268">
        <ele>306.934756</ele>
        <time>2023-12-04T23:06:11.597Z</time>
      </trkpt>
      <trkpt lat="38.161834" lon="15.684300">
        <ele>302.523060</ele>
        <time>2023-12-04T23:06:15.096Z</time>
      </trkpt>
      <trkpt lat="38.162053" lon="15.684205">
        <ele>300.019697</ele>
        <time>2023-12-04T23:06:17.069Z</time>
      </trkpt>
      <trkpt lat="38.162167" lon="15.683953">
        <ele>297.546566</ele>
        <time>2023-12-04T23:06:19.022Z</time>
      </trkpt>
      <trkpt lat="38.162172" lon="15.683675">
        <ele>295.157226</ele>
        <time>2023-12-04T23:06:20.880Z</time>
      </trkpt>
      <trkpt lat="38.161755" lon="15.683151">
        <ele>288.325876</ele>
        <time>2023-12-04T23:06:25.842Z</time>
      </trkpt>
      <trkpt lat="38.161378" lon="15.682823">
        <ele>283.002885</ele>
        <time>2023-12-04T23:06:29.714Z</time>
      </trkpt>
      <trkpt lat="38.161095" lon="15.682539">
        <ele>278.801912</ele>
        <time>2023-12-04T23:06:32.772Z</time>
      </trkpt>
      <trkpt lat="38.161015" lon="15.682312">
        <ele>276.522559</ele>
        <time>2023-12-04T23:06:34.431Z</time>
      </trkpt>
      <trkpt lat="38.161110" lon="15.682103">
        <ele>274.305747</ele>
        <time>2023-12-04T23:06:36.035Z</time>
      </trkpt>
      <trkpt lat="38.161204" lon="15.681996">
        <ele>272.803619</ele>
        <time>2023-12-04T23:06:37.106Z</time>
      </trkpt>
      <trkpt lat="38.161398" lon="15.681958">
        <ele>270.466354</ele>
        <time>2023-12-04T23:06:38.763Z</time>
      </trkpt>
      <trkpt lat="38.161611" lon="15.682015">
        <ele>267.874549</ele>
        <time>2023-12-04T23:06:40.606Z</time>
      </trkpt>
      <trkpt lat="38.161978" lon="15.682179">
        <ele>263.242651</ele>
        <time>2023-12-04T23:06:43.892Z</time>
      </trkpt>
      <trkpt lat="38.162142" lon="15.682173">
        <ele>261.289035</ele>
        <time>2023-12-04T23:06:45.275Z</time>
      </trkpt>
      <trkpt lat="38.162192" lon="15.682078">
        <ele>260.218738</ele>
        <time>2023-12-04T23:06:46.029Z</time>
      </trkpt>
      <trkpt lat="38.162177" lon="15.681807">
        <ele>257.675264</ele>
        <time>2023-12-04T23:06:47.837Z</time>
      </trkpt>
      <trkpt lat="38.162286" lon="15.681270">
        <ele>252.477567</ele>
        <time>2023-12-04T23:06:51.531Z</time>
      </trkpt>
      <trkpt lat="38.162256" lon="15.680999">
        <ele>249.893848</ele>
        <time>2023-12-04T23:06:53.365Z</time>
      </trkpt>
      <trkpt lat="38.162172" lon="15.680791">
        <ele>247.686256</ele>
        <time>2023-12-04T23:06:54.937Z</time>
      </trkpt>
      <trkpt lat="38.162078" lon="15.680683">
        <ele>246.165218</ele>
        <time>2023-12-04T23:06:56.018Z</time>
      </trkpt>
      <trkpt lat="38.161934" lon="15.680589">
        <ele>244.221721</ele>
        <time>2023-12-04T23:06:57.404Z</time>
      </trkpt>
      <trkpt lat="38.161795" lon="15.680399">
        <ele>241.771564</ele>
        <time>2023-12-04T23:06:59.138Z</time>
      </trkpt>
      <trkpt lat="38.161790" lon="15.680140">
        <ele>239.325617</ele>
        <time>2023-12-04T23:07:00.875Z</time>
      </trkpt>
      <trkpt lat="38.161809" lon="15.680027">
        <ele>238.234666</ele>
        <time>2023-12-04T23:07:01.657Z</time>
      </trkpt>
      <trkpt lat="38.161904" lon="15.679831">
        <ele>236.060899</ele>
        <time>2023-12-04T23:07:03.186Z</time>
      </trkpt>
      <trkpt lat="38.161948" lon="15.679616">
        <ele>233.963464</ele>
        <time>2023-12-04T23:07:04.649Z</time>
      </trkpt>
      <trkpt lat="38.161844" lon="15.679610">
        <ele>232.713421</ele>
        <time>2023-12-04T23:07:05.522Z</time>
      </trkpt>
      <trkpt lat="38.161725" lon="15.679768">
        <ele>230.342710</ele>
        <time>2023-12-04T23:07:06.953Z</time>
      </trkpt>
      <trkpt lat="38.161646" lon="15.679749">
        <ele>229.038297</ele>
        <time>2023-12-04T23:07:07.623Z</time>
      </trkpt>
      <trkpt lat="38.161512" lon="15.679591">
        <ele>226.073725</ele>
        <time>2023-12-04T23:07:09.143Z</time>
      </trkpt>
      <trkpt lat="38.160956" lon="15.679251">
        <ele>216.064637</ele>
        <time>2023-12-04T23:07:14.255Z</time>
      </trkpt>
      <trkpt lat="38.160797" lon="15.679118">
        <ele>212.977086</ele>
        <time>2023-12-04T23:07:15.826Z</time>
      </trkpt>
      <trkpt lat="38.160688" lon="15.678897">
        <ele>209.649134</ele>
        <time>2023-12-04T23:07:17.519Z</time>
      </trkpt>
      <trkpt lat="38.160489" lon="15.678676">
        <ele>205.362909</ele>
        <time>2023-12-04T23:07:19.690Z</time>
      </trkpt>
      <trkpt lat="38.160430" lon="15.678468">
        <ele>202.542141</ele>
        <time>2023-12-04T23:07:21.122Z</time>
      </trkpt>
      <trkpt lat="38.160589" lon="15.678058">
        <ele>195.774456</ele>
        <time>2023-12-04T23:07:24.067Z</time>
      </trkpt>
      <trkpt lat="38.160678" lon="15.677748">
        <ele>190.864078</ele>
        <time>2023-12-04T23:07:26.185Z</time>
      </trkpt>
      <trkpt lat="38.160817" lon="15.677022">
        <ele>179.746232</ele>
        <time>2023-12-04T23:07:30.984Z</time>
      </trkpt>
      <trkpt lat="38.160868" lon="15.676855">
        <ele>177.080590</ele>
        <time>2023-12-04T23:07:32.145Z</time>
      </trkpt>
      <trkpt lat="38.160834" lon="15.675758">
        <ele>162.560677</ele>
        <time>2023-12-04T23:07:39.255Z</time>
      </trkpt>
      <trkpt lat="38.160731" lon="15.675428">
        <ele>158.547334</ele>
        <time>2023-12-04T23:07:41.573Z</time>
      </trkpt>
      <trkpt lat="38.160683" lon="15.675066">
        <ele>154.397645</ele>
        <time>2023-12-04T23:07:43.983Z</time>
      </trkpt>
      <trkpt lat="38.160673" lon="15.674719">
        <ele>150.472651</ele>
        <time>2023-12-04T23:07:46.272Z</time>
      </trkpt>
      <trkpt lat="38.160699" lon="15.674467">
        <ele>147.599718</ele>
        <time>2023-12-04T23:07:47.955Z</time>
      </trkpt>
      <trkpt lat="38.160579" lon="15.673905">
        <ele>141.287397</ele>
        <time>2023-12-04T23:07:51.829Z</time>
      </trkpt>
      <trkpt lat="38.160620" lon="15.673749">
        <ele>139.781034</ele>
        <time>2023-12-04T23:07:52.918Z</time>
      </trkpt>
      <trkpt lat="38.160785" lon="15.673515">
        <ele>136.902529</ele>
        <time>2023-12-04T23:07:55.006Z</time>
      </trkpt>
      <trkpt lat="38.160912" lon="15.673277">
        <ele>134.268365</ele>
        <time>2023-12-04T23:07:56.915Z</time>
      </trkpt>
      <trkpt lat="38.160968" lon="15.672876">
        <ele>130.538508</ele>
        <time>2023-12-04T23:07:59.624Z</time>
      </trkpt>
      <trkpt lat="38.160924" lon="15.672706">
        <ele>128.899458</ele>
        <time>2023-12-04T23:08:00.815Z</time>
      </trkpt>
      <trkpt lat="38.160696" lon="15.672433">
        <ele>125.252134</ele>
        <time>2023-12-04T23:08:03.480Z</time>
      </trkpt>
      <trkpt lat="38.160648" lon="15.672330">
        <ele>124.155618</ele>
        <time>2023-12-04T23:08:04.277Z</time>
      </trkpt>
      <trkpt lat="38.160684" lon="15.671572">
        <ele>118.277465</ele>
        <time>2023-12-04T23:08:09.404Z</time>
      </trkpt>
      <trkpt lat="38.160468" lon="15.671102">
        <ele>114.542412</ele>
        <time>2023-12-04T23:08:13.108Z</time>
      </trkpt>
      <trkpt lat="38.160437" lon="15.670635">
        <ele>111.326956</ele>
        <time>2023-12-04T23:08:16.317Z</time>
      </trkpt>
      <trkpt lat="38.160450" lon="15.670496">
        <ele>110.366563</ele>
        <time>2023-12-04T23:08:17.290Z</time>
      </trkpt>
      <trkpt lat="38.160495" lon="15.670394">
        <ele>109.564114</ele>
        <time>2023-12-04T23:08:18.100Z</time>
      </trkpt>
      <trkpt lat="38.160928" lon="15.669733">
        <ele>104.074013</ele>
        <time>2023-12-04T23:08:24.211Z</time>
      </trkpt>
      <trkpt lat="38.160998" lon="15.669661">
        <ele>103.440190</ele>
        <time>2023-12-04T23:08:25.066Z</time>
      </trkpt>
      <trkpt lat="38.161191" lon="15.669552">
        <ele>101.953460</ele>
        <time>2023-12-04T23:08:27.006Z</time>
      </trkpt>
      <trkpt lat="38.161236" lon="15.669505">
        <ele>101.543505</ele>
        <time>2023-12-04T23:08:27.546Z</time>
      </trkpt>
      <trkpt lat="38.161248" lon="15.669431">
        <ele>101.125247</ele>
        <time>2023-12-04T23:08:28.103Z</time>
      </trkpt>
      <trkpt lat="38.161226" lon="15.669362">
        <ele>100.713078</ele>
        <time>2023-12-04T23:08:28.648Z</time>
      </trkpt>
      <trkpt lat="38.161180" lon="15.669337">
        <ele>100.360893</ele>
        <time>2023-12-04T23:08:29.111Z</time>
      </trkpt>
      <trkpt lat="38.161128" lon="15.669336">
        <ele>99.994754</ele>
        <time>2023-12-04T23:08:29.576Z</time>
      </trkpt>
      <trkpt lat="38.160894" lon="15.669447">
        <ele>98.236457</ele>
        <time>2023-12-04T23:08:31.852Z</time>
      </trkpt>
      <trkpt lat="38.160850" lon="15.669441">
        <ele>97.924907</ele>
        <time>2023-12-04T23:08:32.258Z</time>
      </trkpt>
      <trkpt lat="38.160827" lon="15.669405">
        <ele>97.668129</ele>
        <time>2023-12-04T23:08:32.588Z</time>
      </trkpt>
      <trkpt lat="38.160846" lon="15.669299">
        <ele>97.066294</ele>
        <time>2023-12-04T23:08:33.341Z</time>
      </trkpt>
      <trkpt lat="38.161140" lon="15.669047">
        <ele>94.570238</ele>
        <time>2023-12-04T23:08:36.488Z</time>
      </trkpt>
      <trkpt lat="38.161186" lon="15.668980">
        <ele>94.077856</ele>
        <time>2023-12-04T23:08:37.101Z</time>
      </trkpt>
      <trkpt lat="38.161196" lon="15.668887">
        <ele>93.558250</ele>
        <time>2023-12-04T23:08:37.757Z</time>
      </trkpt>
      <trkpt lat="38.161158" lon="15.668752">
        <ele>92.707553</ele>
        <time>2023-12-04T23:08:38.745Z</time>
      </trkpt>
      <trkpt lat="38.161111" lon="15.668719">
        <ele>92.271418</ele>
        <time>2023-12-04T23:08:39.208Z</time>
      </trkpt>
      <trkpt lat="38.161054" lon="15.668705">
        <ele>91.799810</ele>
        <time>2023-12-04T23:08:39.704Z</time>
      </trkpt>
      <trkpt lat="38.160838" lon="15.668745">
        <ele>90.026581</ele>
        <time>2023-12-04T23:08:41.625Z</time>
      </trkpt>
      <trkpt lat="38.160594" lon="15.668808">
        <ele>88.003956</ele>
        <time>2023-12-04T23:08:43.798Z</time>
      </trkpt>
      <trkpt lat="38.160545" lon="15.668764">
        <ele>87.516674</ele>
        <time>2023-12-04T23:08:44.334Z</time>
      </trkpt>
      <trkpt lat="38.160487" lon="15.668537">
        <ele>85.992066</ele>
        <time>2023-12-04T23:08:45.953Z</time>
      </trkpt>
      <trkpt lat="38.160279" lon="15.668149">
        <ele>82.992476</ele>
        <time>2023-12-04T23:08:49.161Z</time>
      </trkpt>
      <trkpt lat="38.160277" lon="15.668108">
        <ele>82.730082</ele>
        <time>2023-12-04T23:08:49.445Z</time>
      </trkpt>
      <trkpt lat="38.160289" lon="15.668066">
        <ele>82.444642</ele>
        <time>2023-12-04T23:08:49.757Z</time>
      </trkpt>
      <trkpt lat="38.160599" lon="15.667884">
        <ele>79.670908</ele>
        <time>2023-12-04T23:08:52.777Z</time>
      </trkpt>
      <trkpt lat="38.160842" lon="15.667865">
        <ele>78.048861</ele>
        <time>2023-12-04T23:08:54.973Z</time>
      </trkpt>
      <trkpt lat="38.161037" lon="15.667758">
        <ele>77.063308</ele>
        <time>2023-12-04T23:08:56.955Z</time>
      </trkpt>
      <trkpt lat="38.160882" lon="15.667410">
        <ele>75.603940</ele>
        <time>2023-12-04T23:08:59.999Z</time>
      </trkpt>
      <trkpt lat="38.160691" lon="15.667125">
        <ele>74.237535</ele>
        <time>2023-12-04T23:09:02.909Z</time>
      </trkpt>
      <trkpt lat="38.160596" lon="15.667059">
        <ele>73.735188</ele>
        <time>2023-12-04T23:09:04.053Z</time>
      </trkpt>
      <trkpt lat="38.159918" lon="15.666858">
        <ele>70.504492</ele>
        <time>2023-12-04T23:09:10.850Z</time>
      </trkpt>
      <trkpt lat="38.159466" lon="15.666710">
        <ele>68.227083</ele>
        <time>2023-12-04T23:09:15.305Z</time>
      </trkpt>
      <trkpt lat="38.159154" lon="15.666609">
        <ele>66.642426</ele>
        <time>2023-12-04T23:09:18.398Z</time>
      </trkpt>
      <trkpt lat="38.158805" lon="15.666387">
        <ele>64.721731</ele>
        <time>2023-12-04T23:09:22.148Z</time>
      </trkpt>
      <trkpt lat="38.158688" lon="15.666354">
        <ele>64.131855</ele>
        <time>2023-12-04T23:09:23.266Z</time>
      </trkpt>
      <trkpt lat="38.158420" lon="15.666513">
        <ele>62.676262</ele>
        <time>2023-12-04T23:09:26.032Z</time>
      </trkpt>
      <trkpt lat="38.158331" lon="15.666535">
        <ele>62.229999</ele>
        <time>2023-12-04T23:09:26.857Z</time>
      </trkpt>
      <trkpt lat="38.158096" lon="15.666495">
        <ele>61.027906</ele>
        <time>2023-12-04T23:09:29.055Z</time>
      </trkpt>
      <trkpt lat="38.157935" lon="15.666394">
        <ele>60.025002</ele>
        <time>2023-12-04T23:09:30.681Z</time>
      </trkpt>
      <trkpt lat="38.157677" lon="15.666181">
        <ele>58.306610</ele>
        <time>2023-12-04T23:09:33.486Z</time>
      </trkpt>
      <trkpt lat="38.157441" lon="15.665969">
        <ele>56.692456</ele>
        <time>2023-12-04T23:09:36.146Z</time>
      </trkpt>
      <trkpt lat="38.157159" lon="15.665609">
        <ele>54.460254</ele>
        <time>2023-12-04T23:09:39.858Z</time>
      </trkpt>
      <trkpt lat="38.156886" lon="15.665472">
        <ele>52.820687</ele>
        <time>2023-12-04T23:09:42.584Z</time>
      </trkpt>
      <trkpt lat="38.156461" lon="15.665189">
        <ele>50.374811</ele>
        <time>2023-12-04T23:09:47.113Z</time>
      </trkpt>
      <trkpt lat="38.156263" lon="15.664983">
        <ele>49.240765</ele>
        <time>2023-12-04T23:09:49.540Z</time>
      </trkpt>
      <trkpt lat="38.155983" lon="15.664740">
        <ele>47.738034</ele>
        <time>2023-12-04T23:09:52.753Z</time>
      </trkpt>
      <trkpt lat="38.155858" lon="15.664696">
        <ele>47.163071</ele>
        <time>2023-12-04T23:09:53.994Z</time>
      </trkpt>
      <trkpt lat="38.155747" lon="15.664726">
        <ele>46.660015</ele>
        <time>2023-12-04T23:09:55.084Z</time>
      </trkpt>
      <trkpt lat="38.155513" lon="15.664870">
        <ele>45.507620</ele>
        <time>2023-12-04T23:09:57.582Z</time>
      </trkpt>
      <trkpt lat="38.155414" lon="15.664916">
        <ele>45.040374</ele>
        <time>2023-12-04T23:09:58.588Z</time>
      </trkpt>
      <trkpt lat="38.155258" lon="15.664981">
        <ele>44.312649</ele>
        <time>2023-12-04T23:10:00.200Z</time>
      </trkpt>
      <trkpt lat="38.154760" lon="15.663718">
        <ele>40.639657</ele>
        <time>2023-12-04T23:10:16.297Z</time>
      </trkpt>
      <trkpt lat="38.154760" lon="15.663718">
        <ele>40.639657</ele>
        <time>2023-12-04T23:10:16.304Z</time>
      </trkpt>
      <trkpt lat="38.154670" lon="15.663614">
        <ele>40.273045</ele>
        <time>2023-12-04T23:10:18.100Z</time>
      </trkpt>
      <trkpt lat="38.154559" lon="15.663607">
        <ele>39.937996</ele>
        <time>2023-12-04T23:10:19.762Z</time>
      </trkpt>
      <trkpt lat="38.153061" lon="15.663451">
        <ele>36.381163</ele>
        <time>2023-12-04T23:10:42.555Z</time>
      </trkpt>
      <trkpt lat="38.153045" lon="15.663291">
        <ele>36.149510</ele>
        <time>2023-12-04T23:10:44.588Z</time>
      </trkpt>
      <trkpt lat="38.152964" lon="15.663210">
        <ele>35.961303</ele>
        <time>2023-12-04T23:10:46.285Z</time>
      </trkpt>
      <trkpt lat="38.152918" lon="15.663190">
        <ele>35.872511</ele>
        <time>2023-12-04T23:10:47.047Z</time>
      </trkpt>
      <trkpt lat="38.152852" lon="15.663162">
        <ele>35.745433</ele>
        <time>2023-12-04T23:10:48.189Z</time>
      </trkpt>
      <trkpt lat="38.152698" lon="15.663098">
        <ele>35.449518</ele>
        <time>2023-12-04T23:10:50.900Z</time>
      </trkpt>
      <trkpt lat="38.152629" lon="15.663113">
        <ele>35.321664</ele>
        <time>2023-12-04T23:10:52.112Z</time>
      </trkpt>
      <trkpt lat="38.152432" lon="15.662117">
        <ele>34.336630</ele>
        <time>2023-12-04T23:11:06.338Z</time>
      </trkpt>
      <trkpt lat="38.151171" lon="15.661922">
        <ele>33.538335</ele>
        <time>2023-12-04T23:11:28.632Z</time>
      </trkpt>
      <trkpt lat="38.151109" lon="15.661878">
        <ele>33.493716</ele>
        <time>2023-12-04T23:11:30.088Z</time>
      </trkpt>
      <trkpt lat="38.151041" lon="15.661725">
        <ele>33.502727</ele>
        <time>2023-12-04T23:11:33.270Z</time>
      </trkpt>
      <trkpt lat="38.150942" lon="15.661394">
        <ele>33.624673</ele>
        <time>2023-12-04T23:11:40.005Z</time>
      </trkpt>
      <trkpt lat="38.150995" lon="15.661024">
        <ele>33.754180</ele>
        <time>2023-12-04T23:11:47.047Z</time>
      </trkpt>
      <trkpt lat="38.150334" lon="15.660854">
        <ele>34.049486</ele>
        <time>2023-12-04T23:11:59.453Z</time>
      </trkpt>
      <trkpt lat="38.150185" lon="15.660809">
        <ele>34.116547</ele>
        <time>2023-12-04T23:12:02.105Z</time>
      </trkpt>
      <trkpt lat="38.149074" lon="15.660528">
        <ele>33.615135</ele>
        <time>2023-12-04T23:12:18.099Z</time>
      </trkpt>
      <trkpt lat="38.148382" lon="15.660350">
        <ele>33.071518</ele>
        <time>2023-12-04T23:12:26.825Z</time>
      </trkpt>
      <trkpt lat="38.147978" lon="15.660260">
        <ele>32.644697</ele>
        <time>2023-12-04T23:12:31.425Z</time>
      </trkpt>
      <trkpt lat="38.147434" lon="15.660201">
        <ele>31.801380</ele>
        <time>2023-12-04T23:12:37.276Z</time>
      </trkpt>
      <trkpt lat="38.146551" lon="15.659821">
        <ele>30.361499</ele>
        <time>2023-12-04T23:12:47.675Z</time>
      </trkpt>
      <trkpt lat="38.145866" lon="15.659554">
        <ele>30.444219</ele>
        <time>2023-12-04T23:12:57.733Z</time>
      </trkpt>
      <trkpt lat="38.145827" lon="15.659545">
        <ele>30.470410</ele>
        <time>2023-12-04T23:12:58.368Z</time>
      </trkpt>
      <trkpt lat="38.145705" lon="15.659549">
        <ele>30.551052</ele>
        <time>2023-12-04T23:13:00.421Z</time>
      </trkpt>
      <trkpt lat="38.145461" lon="15.659529">
        <ele>30.712617</ele>
        <time>2023-12-04T23:13:04.647Z</time>
      </trkpt>
      <trkpt lat="38.145195" lon="15.659447">
        <ele>30.893476</ele>
        <time>2023-12-04T23:13:09.858Z</time>
      </trkpt>
      <trkpt lat="38.144324" lon="15.659126">
        <ele>31.886229</ele>
        <time>2023-12-04T23:13:29.513Z</time>
      </trkpt>
      <trkpt lat="38.143991" lon="15.659105">
        <ele>32.507292</ele>
        <time>2023-12-04T23:13:37.412Z</time>
      </trkpt>
      <trkpt lat="38.143652" lon="15.659104">
        <ele>33.138772</ele>
        <time>2023-12-04T23:13:45.448Z</time>
      </trkpt>
      <trkpt lat="38.143298" lon="15.659094">
        <ele>33.798353</ele>
        <time>2023-12-04T23:13:53.734Z</time>
      </trkpt>
      <trkpt lat="38.143133" lon="15.659066">
        <ele>34.108435</ele>
        <time>2023-12-04T23:13:57.558Z</time>
      </trkpt>
      <trkpt lat="38.142694" lon="15.658871">
        <ele>34.586629</ele>
        <time>2023-12-04T23:14:07.690Z</time>
      </trkpt>
      <trkpt lat="38.141703" lon="15.658467">
        <ele>34.362647</ele>
        <time>2023-12-04T23:14:24.467Z</time>
      </trkpt>
      <trkpt lat="38.141006" lon="15.658214">
        <ele>33.827741</ele>
        <time>2023-12-04T23:14:32.634Z</time>
      </trkpt>
      <trkpt lat="38.139992" lon="15.658017">
        <ele>31.077019</ele>
        <time>2023-12-04T23:14:43.013Z</time>
      </trkpt>
      <trkpt lat="38.138797" lon="15.657823">
        <ele>28.650374</ele>
        <time>2023-12-04T23:14:55.695Z</time>
      </trkpt>
      <trkpt lat="38.138104" lon="15.657819">
        <ele>27.743585</ele>
        <time>2023-12-04T23:15:04.167Z</time>
      </trkpt>
      <trkpt lat="38.138010" lon="15.657819">
        <ele>27.620588</ele>
        <time>2023-12-04T23:15:05.491Z</time>
      </trkpt>
      <trkpt lat="38.137300" lon="15.657822">
        <ele>27.108289</ele>
        <time>2023-12-04T23:15:15.345Z</time>
      </trkpt>
      <trkpt lat="38.135750" lon="15.657829">
        <ele>27.426292</ele>
        <time>2023-12-04T23:15:38.496Z</time>
      </trkpt>
      <trkpt lat="38.135477" lon="15.657797">
        <ele>28.017946</ele>
        <time>2023-12-04T23:15:44.286Z</time>
      </trkpt>
      <trkpt lat="38.134978" lon="15.657597">
        <ele>29.147071</ele>
        <time>2023-12-04T23:15:56.496Z</time>
      </trkpt>
      <trkpt lat="38.134348" lon="15.657300">
        <ele>30.597120</ele>
        <time>2023-12-04T23:16:13.816Z</time>
      </trkpt>
      <trkpt lat="38.134005" lon="15.657132">
        <ele>31.387973</ele>
        <time>2023-12-04T23:16:23.992Z</time>
      </trkpt>
      <trkpt lat="38.132413" lon="15.656374">
        <ele>35.001074</ele>
        <time>2023-12-04T23:17:05.191Z</time>
      </trkpt>
      <trkpt lat="38.132047" lon="15.656190">
        <ele>34.657490</ele>
        <time>2023-12-04T23:17:11.370Z</time>
      </trkpt>
      <trkpt lat="38.131667" lon="15.656007">
        <ele>34.219213</ele>
        <time>2023-12-04T23:17:16.661Z</time>
      </trkpt>
      <trkpt lat="38.130717" lon="15.655612">
        <ele>33.141164</ele>
        <time>2023-12-04T23:17:27.520Z</time>
      </trkpt>
      <trkpt lat="38.130567" lon="15.655499">
        <ele>32.730221</ele>
        <time>2023-12-04T23:17:29.374Z</time>
      </trkpt>
      <trkpt lat="38.129954" lon="15.654664">
        <ele>30.425384</ele>
        <time>2023-12-04T23:17:38.797Z</time>
      </trkpt>
      <trkpt lat="38.129783" lon="15.654580">
        <ele>29.955090</ele>
        <time>2023-12-04T23:17:40.651Z</time>
      </trkpt>
      <trkpt lat="38.129103" lon="15.654464">
        <ele>28.337265</ele>
        <time>2023-12-04T23:17:47.745Z</time>
      </trkpt>
      <trkpt lat="38.128647" lon="15.654391">
        <ele>27.707207</ele>
        <time>2023-12-04T23:17:52.815Z</time>
      </trkpt>
      <trkpt lat="38.128146" lon="15.654265">
        <ele>27.007085</ele>
        <time>2023-12-04T23:17:58.920Z</time>
      </trkpt>
      <trkpt lat="38.128027" lon="15.654246">
        <ele>26.842669</ele>
        <time>2023-12-04T23:18:00.439Z</time>
      </trkpt>
      <trkpt lat="38.127357" lon="15.654146">
        <ele>26.023387</ele>
        <time>2023-12-04T23:18:09.059Z</time>
      </trkpt>
      <trkpt lat="38.126826" lon="15.654049">
        <ele>25.951429</ele>
        <time>2023-12-04T23:18:16.299Z</time>
      </trkpt>
      <trkpt lat="38.126651" lon="15.654028">
        <ele>25.927851</ele>
        <time>2023-12-04T23:18:18.751Z</time>
      </trkpt>
      <trkpt lat="38.125946" lon="15.653918">
        <ele>25.832576</ele>
        <time>2023-12-04T23:18:29.617Z</time>
      </trkpt>
      <trkpt lat="38.125838" lon="15.653891">
        <ele>25.817812</ele>
        <time>2023-12-04T23:18:31.348Z</time>
      </trkpt>
      <trkpt lat="38.125206" lon="15.653801">
        <ele>25.976058</ele>
        <time>2023-12-04T23:18:41.431Z</time>
      </trkpt>
      <trkpt lat="38.124506" lon="15.653692">
        <ele>26.258771</ele>
        <time>2023-12-04T23:18:53.248Z</time>
      </trkpt>
      <trkpt lat="38.123764" lon="15.653575">
        <ele>26.499716</ele>
        <time>2023-12-04T23:19:06.010Z</time>
      </trkpt>
      <trkpt lat="38.123053" lon="15.653459">
        <ele>26.402215</ele>
        <time>2023-12-04T23:19:16.678Z</time>
      </trkpt>
      <trkpt lat="38.122334" lon="15.653308">
        <ele>26.303094</ele>
        <time>2023-12-04T23:19:26.281Z</time>
      </trkpt>
      <trkpt lat="38.121527" lon="15.653158">
        <ele>26.044988</ele>
        <time>2023-12-04T23:19:37.564Z</time>
      </trkpt>
      <trkpt lat="38.121301" lon="15.653133">
        <ele>25.955765</ele>
        <time>2023-12-04T23:19:40.626Z</time>
      </trkpt>
      <trkpt lat="38.121162" lon="15.653131">
        <ele>25.901092</ele>
        <time>2023-12-04T23:19:42.506Z</time>
      </trkpt>
      <trkpt lat="38.120790" lon="15.653138">
        <ele>25.754767</ele>
        <time>2023-12-04T23:19:47.489Z</time>
      </trkpt>
      <trkpt lat="38.120701" lon="15.653128">
        <ele>25.719626</ele>
        <time>2023-12-04T23:19:48.691Z</time>
      </trkpt>
      <trkpt lat="38.120297" lon="15.652988">
        <ele>25.547887</ele>
        <time>2023-12-04T23:19:54.371Z</time>
      </trkpt>
      <trkpt lat="38.119757" lon="15.652800">
        <ele>25.124020</ele>
        <time>2023-12-04T23:20:02.221Z</time>
      </trkpt>
      <trkpt lat="38.119090" lon="15.652567">
        <ele>24.600342</ele>
        <time>2023-12-04T23:20:11.627Z</time>
      </trkpt>
      <trkpt lat="38.118531" lon="15.652373">
        <ele>24.064822</ele>
        <time>2023-12-04T23:20:18.388Z</time>
      </trkpt>
      <trkpt lat="38.118016" lon="15.652193">
        <ele>22.662051</ele>
        <time>2023-12-04T23:20:24.089Z</time>
      </trkpt>
      <trkpt lat="38.118162" lon="15.651523">
        <ele>21.225540</ele>
        <time>2023-12-04T23:20:29.633Z</time>
      </trkpt>
      <trkpt lat="38.118359" lon="15.650625">
        <ele>19.319052</ele>
        <time>2023-12-04T23:20:37.160Z</time>
      </trkpt>
      <trkpt lat="38.118501" lon="15.649921">
        <ele>17.984540</ele>
        <time>2023-12-04T23:20:43.168Z</time>
      </trkpt>
      <trkpt lat="38.118543" lon="15.649787">
        <ele>17.719678</ele>
        <time>2023-12-04T23:20:44.391Z</time>
      </trkpt>
      <trkpt lat="38.117807" lon="15.649863">
        <ele>15.996211</ele>
        <time>2023-12-04T23:20:52.097Z</time>
      </trkpt>
      <trkpt lat="38.116889" lon="15.649955">
        <ele>14.782102</ele>
        <time>2023-12-04T23:21:03.191Z</time>
      </trkpt>
      <trkpt lat="38.116846" lon="15.649583">
        <ele>14.542526</ele>
        <time>2023-12-04T23:21:35.298Z</time>
      </trkpt>
      <trkpt lat="38.116763" lon="15.649498">
        <ele>14.456201</ele>
        <time>2023-12-04T23:21:46.763Z</time>
      </trkpt>
      <trkpt lat="38.116661" lon="15.649494">
        <ele>14.373553</ele>
        <time>2023-12-04T23:21:57.787Z</time>
      </trkpt>
      <trkpt lat="38.116192" lon="15.649753">
        <ele>13.959413</ele>
        <time>2023-12-04T23:22:53.687Z</time>
      </trkpt>
      <trkpt lat="38.115899" lon="15.649767">
        <ele>13.884330</ele>
        <time>2023-12-04T23:23:25.933Z</time>
      </trkpt>
      <trkpt lat="38.115678" lon="15.649727">
        <ele>13.996014</ele>
        <time>2023-12-04T23:23:50.512Z</time>
      </trkpt>
      <trkpt lat="38.115449" lon="15.649669">
        <ele>14.112837</ele>
        <time>2023-12-04T23:24:16.614Z</time>
      </trkpt>
      <trkpt lat="38.115417" lon="15.649602">
        <ele>14.143690</ele>
        <time>2023-12-04T23:24:17.846Z</time>
      </trkpt>
      <trkpt lat="38.115009" lon="15.649379">
        <ele>14.365890</ele>
        <time>2023-12-04T23:24:29.069Z</time>
      </trkpt>
      <trkpt lat="38.114459" lon="15.648968">
        <ele>14.685095</ele>
        <time>2023-12-04T23:24:43.796Z</time>
      </trkpt>
      <trkpt lat="38.114062" lon="15.648599">
        <ele>14.770253</ele>
        <time>2023-12-04T23:24:55.251Z</time>
      </trkpt>
      <trkpt lat="38.113669" lon="15.648138">
        <ele>14.831779</ele>
        <time>2023-12-04T23:25:06.659Z</time>
      </trkpt>
      <trkpt lat="38.113577" lon="15.648034">
        <ele>14.845944</ele>
        <time>2023-12-04T23:25:09.049Z</time>
      </trkpt>
      <trkpt lat="38.113402" lon="15.647836">
        <ele>14.872899</ele>
        <time>2023-12-04T23:25:13.883Z</time>
      </trkpt>
      <trkpt lat="38.113201" lon="15.647614">
        <ele>14.903535</ele>
        <time>2023-12-04T23:25:19.006Z</time>
      </trkpt>
      <trkpt lat="38.113065" lon="15.647533">
        <ele>14.920814</ele>
        <time>2023-12-04T23:25:21.814Z</time>
      </trkpt>
      <trkpt lat="38.112933" lon="15.647415">
        <ele>14.853916</ele>
        <time>2023-12-04T23:25:24.790Z</time>
      </trkpt>
      <trkpt lat="38.112785" lon="15.647172">
        <ele>14.649800</ele>
        <time>2023-12-04T23:25:29.019Z</time>
      </trkpt>
      <trkpt lat="38.112567" lon="15.646781">
        <ele>14.331489</ele>
        <time>2023-12-04T23:25:35.815Z</time>
      </trkpt>
      <trkpt lat="38.112319" lon="15.646454">
        <ele>14.029808</ele>
        <time>2023-12-04T23:25:42.019Z</time>
      </trkpt>
      <trkpt lat="38.111928" lon="15.645815">
        <ele>13.492115</ele>
        <time>2023-12-04T23:25:52.936Z</time>
      </trkpt>
      <trkpt lat="38.111707" lon="15.645558">
        <ele>13.410682</ele>
        <time>2023-12-04T23:25:58.294Z</time>
      </trkpt>
      <trkpt lat="38.111553" lon="15.645325">
        <ele>13.410682</ele>
        <time>2023-12-04T23:26:02.643Z</time>
      </trkpt>
      <trkpt lat="38.111516" lon="15.645181">
        <ele>13.410682</ele>
        <time>2023-12-04T23:26:04.865Z</time>
      </trkpt>
      <trkpt lat="38.111556" lon="15.645046">
        <ele>13.410682</ele>
        <time>2023-12-04T23:26:08.705Z</time>
      </trkpt>
      <trkpt lat="38.111512" lon="15.644960">
        <ele>13.410682</ele>
        <time>2023-12-04T23:26:11.600Z</time>
      </trkpt>
      <trkpt lat="38.111359" lon="15.644728">
        <ele>13.410682</ele>
        <time>2023-12-04T23:26:19.759Z</time>
      </trkpt>
    </trkseg>
  </trk>
</gpx>